<?xml version="1.0" encoding="UTF-8" standalone="no" ?>
<gpx xmlns="http://www.topografix.com/GPX/1/1" xmlns:xsi="http://www.w3.org/2001/XMLSchema-instance" xsi:schemaLocation="http://www.topografix.com/GPX/1/1 http://www.topografix.com/GPX/1/1/gpx.xsd" version="1.1" creator="VisuGPX - https://www.visugpx.com">
  <metadata>
    <name>E 701</name>
  </metadata>
  <trk>
    <name><![CDATA[Sortie vélo dans l'après-midi]]></name>
    <trkseg>
      <trkpt lat="49.2845" lon="-0.10686">
        <ele>19.2</ele>
        <time>2024-10-02T11:42:58Z</time>
      </trkpt>
      <trkpt lat="49.2845" lon="-0.10686">
        <ele>2.6</ele>
        <time>2024-10-02T11:42:59Z</time>
      </trkpt>
      <trkpt lat="49.2845" lon="-0.10686">
        <ele>2.6</ele>
        <time>2024-10-02T11:43:00Z</time>
      </trkpt>
      <trkpt lat="49.2845" lon="-0.10686">
        <ele>2.4</ele>
        <time>2024-10-02T11:43:03Z</time>
      </trkpt>
      <trkpt lat="49.28455" lon="-0.10681">
        <ele>2.4</ele>
        <time>2024-10-02T11:43:04Z</time>
      </trkpt>
      <trkpt lat="49.28447" lon="-0.10699">
        <ele>2.6</ele>
        <time>2024-10-02T11:43:08Z</time>
      </trkpt>
      <trkpt lat="49.28444" lon="-0.107">
        <ele>2.6</ele>
        <time>2024-10-02T11:43:09Z</time>
      </trkpt>
      <trkpt lat="49.28444" lon="-0.10701">
        <ele>2.6</ele>
        <time>2024-10-02T11:43:10Z</time>
      </trkpt>
      <trkpt lat="49.28444" lon="-0.10703">
        <ele>2.6</ele>
        <time>2024-10-02T11:43:11Z</time>
      </trkpt>
      <trkpt lat="49.28445" lon="-0.10704">
        <ele>2.6</ele>
        <time>2024-10-02T11:43:12Z</time>
      </trkpt>
      <trkpt lat="49.28445" lon="-0.10705">
        <ele>2.6</ele>
        <time>2024-10-02T11:43:13Z</time>
      </trkpt>
      <trkpt lat="49.28445" lon="-0.10707">
        <ele>2.6</ele>
        <time>2024-10-02T11:43:14Z</time>
      </trkpt>
      <trkpt lat="49.28445" lon="-0.10708">
        <ele>2.6</ele>
        <time>2024-10-02T11:43:15Z</time>
      </trkpt>
      <trkpt lat="49.28446" lon="-0.10708">
        <ele>2.6</ele>
        <time>2024-10-02T11:43:16Z</time>
      </trkpt>
      <trkpt lat="49.28447" lon="-0.10721">
        <ele>3</ele>
        <time>2024-10-02T11:44:03Z</time>
      </trkpt>
      <trkpt lat="49.28447" lon="-0.10724">
        <ele>3</ele>
        <time>2024-10-02T11:44:04Z</time>
      </trkpt>
      <trkpt lat="49.28447" lon="-0.10728">
        <ele>3</ele>
        <time>2024-10-02T11:44:05Z</time>
      </trkpt>
      <trkpt lat="49.28447" lon="-0.10732">
        <ele>3</ele>
        <time>2024-10-02T11:44:06Z</time>
      </trkpt>
      <trkpt lat="49.28446" lon="-0.10737">
        <ele>3</ele>
        <time>2024-10-02T11:44:07Z</time>
      </trkpt>
      <trkpt lat="49.28445" lon="-0.1074">
        <ele>3</ele>
        <time>2024-10-02T11:44:08Z</time>
      </trkpt>
      <trkpt lat="49.28443" lon="-0.10744">
        <ele>3</ele>
        <time>2024-10-02T11:44:09Z</time>
      </trkpt>
      <trkpt lat="49.28441" lon="-0.10747">
        <ele>3</ele>
        <time>2024-10-02T11:44:10Z</time>
      </trkpt>
      <trkpt lat="49.28439" lon="-0.10749">
        <ele>2.8</ele>
        <time>2024-10-02T11:44:11Z</time>
      </trkpt>
      <trkpt lat="49.28436" lon="-0.10751">
        <ele>2.8</ele>
        <time>2024-10-02T11:44:12Z</time>
      </trkpt>
      <trkpt lat="49.28433" lon="-0.10752">
        <ele>2.8</ele>
        <time>2024-10-02T11:44:13Z</time>
      </trkpt>
      <trkpt lat="49.2843" lon="-0.10754">
        <ele>2.8</ele>
        <time>2024-10-02T11:44:14Z</time>
      </trkpt>
      <trkpt lat="49.28427" lon="-0.10757">
        <ele>2.8</ele>
        <time>2024-10-02T11:44:15Z</time>
      </trkpt>
      <trkpt lat="49.28425" lon="-0.10761">
        <ele>2.6</ele>
        <time>2024-10-02T11:44:16Z</time>
      </trkpt>
      <trkpt lat="49.28425" lon="-0.10766">
        <ele>2.6</ele>
        <time>2024-10-02T11:44:17Z</time>
      </trkpt>
      <trkpt lat="49.28425" lon="-0.10771">
        <ele>2.6</ele>
        <time>2024-10-02T11:44:18Z</time>
      </trkpt>
      <trkpt lat="49.28426" lon="-0.10777">
        <ele>2.6</ele>
        <time>2024-10-02T11:44:19Z</time>
      </trkpt>
      <trkpt lat="49.28426" lon="-0.10782">
        <ele>2.6</ele>
        <time>2024-10-02T11:44:20Z</time>
      </trkpt>
      <trkpt lat="49.28427" lon="-0.10788">
        <ele>2.4</ele>
        <time>2024-10-02T11:44:21Z</time>
      </trkpt>
      <trkpt lat="49.28428" lon="-0.10793">
        <ele>2.4</ele>
        <time>2024-10-02T11:44:22Z</time>
      </trkpt>
      <trkpt lat="49.28428" lon="-0.10798">
        <ele>2.4</ele>
        <time>2024-10-02T11:44:23Z</time>
      </trkpt>
      <trkpt lat="49.28428" lon="-0.10804">
        <ele>2.4</ele>
        <time>2024-10-02T11:44:24Z</time>
      </trkpt>
      <trkpt lat="49.28427" lon="-0.1081">
        <ele>2.4</ele>
        <time>2024-10-02T11:44:25Z</time>
      </trkpt>
      <trkpt lat="49.28428" lon="-0.10816">
        <ele>2.4</ele>
        <time>2024-10-02T11:44:26Z</time>
      </trkpt>
      <trkpt lat="49.28428" lon="-0.10822">
        <ele>2.4</ele>
        <time>2024-10-02T11:44:27Z</time>
      </trkpt>
      <trkpt lat="49.28429" lon="-0.10828">
        <ele>2.4</ele>
        <time>2024-10-02T11:44:28Z</time>
      </trkpt>
      <trkpt lat="49.2843" lon="-0.10834">
        <ele>2.4</ele>
        <time>2024-10-02T11:44:29Z</time>
      </trkpt>
      <trkpt lat="49.28431" lon="-0.1084">
        <ele>2.4</ele>
        <time>2024-10-02T11:44:30Z</time>
      </trkpt>
      <trkpt lat="49.28432" lon="-0.10846">
        <ele>2.4</ele>
        <time>2024-10-02T11:44:31Z</time>
      </trkpt>
      <trkpt lat="49.28433" lon="-0.10852">
        <ele>2.4</ele>
        <time>2024-10-02T11:44:32Z</time>
      </trkpt>
      <trkpt lat="49.28434" lon="-0.10859">
        <ele>2.4</ele>
        <time>2024-10-02T11:44:33Z</time>
      </trkpt>
      <trkpt lat="49.28435" lon="-0.10865">
        <ele>2.4</ele>
        <time>2024-10-02T11:44:34Z</time>
      </trkpt>
      <trkpt lat="49.28435" lon="-0.10872">
        <ele>2.4</ele>
        <time>2024-10-02T11:44:35Z</time>
      </trkpt>
      <trkpt lat="49.28437" lon="-0.10878">
        <ele>2.4</ele>
        <time>2024-10-02T11:44:36Z</time>
      </trkpt>
      <trkpt lat="49.28439" lon="-0.10883">
        <ele>2.4</ele>
        <time>2024-10-02T11:44:37Z</time>
      </trkpt>
      <trkpt lat="49.28443" lon="-0.10886">
        <ele>2.4</ele>
        <time>2024-10-02T11:44:38Z</time>
      </trkpt>
      <trkpt lat="49.28448" lon="-0.10886">
        <ele>2.4</ele>
        <time>2024-10-02T11:44:39Z</time>
      </trkpt>
      <trkpt lat="49.28452" lon="-0.10884">
        <ele>2.4</ele>
        <time>2024-10-02T11:44:40Z</time>
      </trkpt>
      <trkpt lat="49.28458" lon="-0.10881">
        <ele>2.4</ele>
        <time>2024-10-02T11:44:41Z</time>
      </trkpt>
      <trkpt lat="49.28463" lon="-0.1088">
        <ele>2.4</ele>
        <time>2024-10-02T11:44:42Z</time>
      </trkpt>
      <trkpt lat="49.28466" lon="-0.10878">
        <ele>2.4</ele>
        <time>2024-10-02T11:44:43Z</time>
      </trkpt>
      <trkpt lat="49.28471" lon="-0.10876">
        <ele>2.4</ele>
        <time>2024-10-02T11:44:44Z</time>
      </trkpt>
      <trkpt lat="49.28475" lon="-0.10873">
        <ele>2.4</ele>
        <time>2024-10-02T11:44:45Z</time>
      </trkpt>
      <trkpt lat="49.2848" lon="-0.10871">
        <ele>2.4</ele>
        <time>2024-10-02T11:44:46Z</time>
      </trkpt>
      <trkpt lat="49.28484" lon="-0.10868">
        <ele>2.4</ele>
        <time>2024-10-02T11:44:47Z</time>
      </trkpt>
      <trkpt lat="49.28488" lon="-0.10865">
        <ele>2.4</ele>
        <time>2024-10-02T11:44:48Z</time>
      </trkpt>
      <trkpt lat="49.28493" lon="-0.10863">
        <ele>2.4</ele>
        <time>2024-10-02T11:44:49Z</time>
      </trkpt>
      <trkpt lat="49.28497" lon="-0.10861">
        <ele>2.4</ele>
        <time>2024-10-02T11:44:50Z</time>
      </trkpt>
      <trkpt lat="49.28502" lon="-0.10859">
        <ele>2.4</ele>
        <time>2024-10-02T11:44:51Z</time>
      </trkpt>
      <trkpt lat="49.28506" lon="-0.10856">
        <ele>2.4</ele>
        <time>2024-10-02T11:44:52Z</time>
      </trkpt>
      <trkpt lat="49.28511" lon="-0.10854">
        <ele>2.4</ele>
        <time>2024-10-02T11:44:53Z</time>
      </trkpt>
      <trkpt lat="49.28514" lon="-0.10853">
        <ele>2.4</ele>
        <time>2024-10-02T11:44:54Z</time>
      </trkpt>
      <trkpt lat="49.28518" lon="-0.10851">
        <ele>2.4</ele>
        <time>2024-10-02T11:44:55Z</time>
      </trkpt>
      <trkpt lat="49.28521" lon="-0.10849">
        <ele>2.6</ele>
        <time>2024-10-02T11:44:56Z</time>
      </trkpt>
      <trkpt lat="49.28524" lon="-0.10847">
        <ele>2.6</ele>
        <time>2024-10-02T11:44:57Z</time>
      </trkpt>
      <trkpt lat="49.28528" lon="-0.10845">
        <ele>2.8</ele>
        <time>2024-10-02T11:44:58Z</time>
      </trkpt>
      <trkpt lat="49.28532" lon="-0.10843">
        <ele>2.8</ele>
        <time>2024-10-02T11:44:59Z</time>
      </trkpt>
      <trkpt lat="49.28535" lon="-0.10844">
        <ele>2.8</ele>
        <time>2024-10-02T11:45:00Z</time>
      </trkpt>
      <trkpt lat="49.28538" lon="-0.10848">
        <ele>2.8</ele>
        <time>2024-10-02T11:45:01Z</time>
      </trkpt>
      <trkpt lat="49.2854" lon="-0.10853">
        <ele>2.8</ele>
        <time>2024-10-02T11:45:02Z</time>
      </trkpt>
      <trkpt lat="49.28541" lon="-0.1086">
        <ele>3</ele>
        <time>2024-10-02T11:45:03Z</time>
      </trkpt>
      <trkpt lat="49.28542" lon="-0.10867">
        <ele>3</ele>
        <time>2024-10-02T11:45:04Z</time>
      </trkpt>
      <trkpt lat="49.28542" lon="-0.10874">
        <ele>3</ele>
        <time>2024-10-02T11:45:05Z</time>
      </trkpt>
      <trkpt lat="49.28541" lon="-0.10881">
        <ele>3</ele>
        <time>2024-10-02T11:45:06Z</time>
      </trkpt>
      <trkpt lat="49.28538" lon="-0.10889">
        <ele>3.2</ele>
        <time>2024-10-02T11:45:07Z</time>
      </trkpt>
      <trkpt lat="49.28536" lon="-0.10894">
        <ele>3.2</ele>
        <time>2024-10-02T11:45:08Z</time>
      </trkpt>
      <trkpt lat="49.28533" lon="-0.10901">
        <ele>3.2</ele>
        <time>2024-10-02T11:45:09Z</time>
      </trkpt>
      <trkpt lat="49.28531" lon="-0.10908">
        <ele>3.2</ele>
        <time>2024-10-02T11:45:10Z</time>
      </trkpt>
      <trkpt lat="49.28529" lon="-0.10916">
        <ele>3.2</ele>
        <time>2024-10-02T11:45:11Z</time>
      </trkpt>
      <trkpt lat="49.28529" lon="-0.10925">
        <ele>3.2</ele>
        <time>2024-10-02T11:45:12Z</time>
      </trkpt>
      <trkpt lat="49.28529" lon="-0.10933">
        <ele>3.2</ele>
        <time>2024-10-02T11:45:13Z</time>
      </trkpt>
      <trkpt lat="49.28531" lon="-0.10943">
        <ele>3.2</ele>
        <time>2024-10-02T11:45:14Z</time>
      </trkpt>
      <trkpt lat="49.28532" lon="-0.10949">
        <ele>3.2</ele>
        <time>2024-10-02T11:45:15Z</time>
      </trkpt>
      <trkpt lat="49.28533" lon="-0.10958">
        <ele>3</ele>
        <time>2024-10-02T11:45:16Z</time>
      </trkpt>
      <trkpt lat="49.28534" lon="-0.10965">
        <ele>3</ele>
        <time>2024-10-02T11:45:17Z</time>
      </trkpt>
      <trkpt lat="49.28536" lon="-0.10974">
        <ele>3</ele>
        <time>2024-10-02T11:45:18Z</time>
      </trkpt>
      <trkpt lat="49.28538" lon="-0.10982">
        <ele>3</ele>
        <time>2024-10-02T11:45:19Z</time>
      </trkpt>
      <trkpt lat="49.28539" lon="-0.1099">
        <ele>2.8</ele>
        <time>2024-10-02T11:45:20Z</time>
      </trkpt>
      <trkpt lat="49.28541" lon="-0.10998">
        <ele>2.8</ele>
        <time>2024-10-02T11:45:21Z</time>
      </trkpt>
      <trkpt lat="49.28542" lon="-0.11006">
        <ele>2.8</ele>
        <time>2024-10-02T11:45:22Z</time>
      </trkpt>
      <trkpt lat="49.28544" lon="-0.11012">
        <ele>2.8</ele>
        <time>2024-10-02T11:45:23Z</time>
      </trkpt>
      <trkpt lat="49.28546" lon="-0.11021">
        <ele>2.8</ele>
        <time>2024-10-02T11:45:24Z</time>
      </trkpt>
      <trkpt lat="49.28547" lon="-0.11028">
        <ele>2.8</ele>
        <time>2024-10-02T11:45:25Z</time>
      </trkpt>
      <trkpt lat="49.28549" lon="-0.11034">
        <ele>2.8</ele>
        <time>2024-10-02T11:45:26Z</time>
      </trkpt>
      <trkpt lat="49.28551" lon="-0.11042">
        <ele>2.6</ele>
        <time>2024-10-02T11:45:27Z</time>
      </trkpt>
      <trkpt lat="49.28552" lon="-0.1105">
        <ele>2.6</ele>
        <time>2024-10-02T11:45:28Z</time>
      </trkpt>
      <trkpt lat="49.28554" lon="-0.11057">
        <ele>2.6</ele>
        <time>2024-10-02T11:45:29Z</time>
      </trkpt>
      <trkpt lat="49.28556" lon="-0.11065">
        <ele>2.6</ele>
        <time>2024-10-02T11:45:30Z</time>
      </trkpt>
      <trkpt lat="49.28559" lon="-0.11074">
        <ele>2.6</ele>
        <time>2024-10-02T11:45:31Z</time>
      </trkpt>
      <trkpt lat="49.28561" lon="-0.11082">
        <ele>2.6</ele>
        <time>2024-10-02T11:45:32Z</time>
      </trkpt>
      <trkpt lat="49.28562" lon="-0.11088">
        <ele>2.6</ele>
        <time>2024-10-02T11:45:33Z</time>
      </trkpt>
      <trkpt lat="49.28564" lon="-0.11098">
        <ele>2.6</ele>
        <time>2024-10-02T11:45:34Z</time>
      </trkpt>
      <trkpt lat="49.28566" lon="-0.11104">
        <ele>2.6</ele>
        <time>2024-10-02T11:45:35Z</time>
      </trkpt>
      <trkpt lat="49.28568" lon="-0.11112">
        <ele>2.8</ele>
        <time>2024-10-02T11:45:36Z</time>
      </trkpt>
      <trkpt lat="49.2857" lon="-0.1112">
        <ele>2.8</ele>
        <time>2024-10-02T11:45:37Z</time>
      </trkpt>
      <trkpt lat="49.28572" lon="-0.11128">
        <ele>2.8</ele>
        <time>2024-10-02T11:45:38Z</time>
      </trkpt>
      <trkpt lat="49.28574" lon="-0.11137">
        <ele>2.8</ele>
        <time>2024-10-02T11:45:39Z</time>
      </trkpt>
      <trkpt lat="49.28576" lon="-0.11145">
        <ele>3</ele>
        <time>2024-10-02T11:45:40Z</time>
      </trkpt>
      <trkpt lat="49.28578" lon="-0.1115">
        <ele>3</ele>
        <time>2024-10-02T11:45:41Z</time>
      </trkpt>
      <trkpt lat="49.2858" lon="-0.11157">
        <ele>3.2</ele>
        <time>2024-10-02T11:45:42Z</time>
      </trkpt>
      <trkpt lat="49.28582" lon="-0.11165">
        <ele>3.4</ele>
        <time>2024-10-02T11:45:43Z</time>
      </trkpt>
      <trkpt lat="49.28585" lon="-0.11174">
        <ele>3.4</ele>
        <time>2024-10-02T11:45:44Z</time>
      </trkpt>
      <trkpt lat="49.28586" lon="-0.1118">
        <ele>3.4</ele>
        <time>2024-10-02T11:45:45Z</time>
      </trkpt>
      <trkpt lat="49.28588" lon="-0.11187">
        <ele>3.8</ele>
        <time>2024-10-02T11:45:46Z</time>
      </trkpt>
      <trkpt lat="49.2859" lon="-0.11195">
        <ele>4</ele>
        <time>2024-10-02T11:45:47Z</time>
      </trkpt>
      <trkpt lat="49.28592" lon="-0.11203">
        <ele>4.2</ele>
        <time>2024-10-02T11:45:48Z</time>
      </trkpt>
      <trkpt lat="49.28594" lon="-0.11211">
        <ele>4.4</ele>
        <time>2024-10-02T11:45:49Z</time>
      </trkpt>
      <trkpt lat="49.28596" lon="-0.11218">
        <ele>4.6</ele>
        <time>2024-10-02T11:45:50Z</time>
      </trkpt>
      <trkpt lat="49.28599" lon="-0.11225">
        <ele>4.8</ele>
        <time>2024-10-02T11:45:51Z</time>
      </trkpt>
      <trkpt lat="49.28602" lon="-0.11232">
        <ele>4.8</ele>
        <time>2024-10-02T11:45:52Z</time>
      </trkpt>
      <trkpt lat="49.28605" lon="-0.11239">
        <ele>4.8</ele>
        <time>2024-10-02T11:45:53Z</time>
      </trkpt>
      <trkpt lat="49.28607" lon="-0.11248">
        <ele>4.8</ele>
        <time>2024-10-02T11:45:54Z</time>
      </trkpt>
      <trkpt lat="49.28608" lon="-0.11257">
        <ele>4.8</ele>
        <time>2024-10-02T11:45:55Z</time>
      </trkpt>
      <trkpt lat="49.28609" lon="-0.11266">
        <ele>4.8</ele>
        <time>2024-10-02T11:45:56Z</time>
      </trkpt>
      <trkpt lat="49.28611" lon="-0.11275">
        <ele>4.8</ele>
        <time>2024-10-02T11:45:57Z</time>
      </trkpt>
      <trkpt lat="49.28614" lon="-0.11284">
        <ele>4.8</ele>
        <time>2024-10-02T11:45:58Z</time>
      </trkpt>
      <trkpt lat="49.28616" lon="-0.11293">
        <ele>4.8</ele>
        <time>2024-10-02T11:45:59Z</time>
      </trkpt>
      <trkpt lat="49.28618" lon="-0.11302">
        <ele>4.6</ele>
        <time>2024-10-02T11:46:00Z</time>
      </trkpt>
      <trkpt lat="49.2862" lon="-0.11311">
        <ele>4.2</ele>
        <time>2024-10-02T11:46:01Z</time>
      </trkpt>
      <trkpt lat="49.28623" lon="-0.1132">
        <ele>4</ele>
        <time>2024-10-02T11:46:02Z</time>
      </trkpt>
      <trkpt lat="49.28625" lon="-0.11329">
        <ele>4</ele>
        <time>2024-10-02T11:46:03Z</time>
      </trkpt>
      <trkpt lat="49.28628" lon="-0.11338">
        <ele>3.8</ele>
        <time>2024-10-02T11:46:04Z</time>
      </trkpt>
      <trkpt lat="49.28631" lon="-0.11348">
        <ele>3.8</ele>
        <time>2024-10-02T11:46:05Z</time>
      </trkpt>
      <trkpt lat="49.28633" lon="-0.11358">
        <ele>3.6</ele>
        <time>2024-10-02T11:46:06Z</time>
      </trkpt>
      <trkpt lat="49.28636" lon="-0.11367">
        <ele>3.6</ele>
        <time>2024-10-02T11:46:07Z</time>
      </trkpt>
      <trkpt lat="49.28639" lon="-0.11377">
        <ele>3.6</ele>
        <time>2024-10-02T11:46:08Z</time>
      </trkpt>
      <trkpt lat="49.28642" lon="-0.11386">
        <ele>3.4</ele>
        <time>2024-10-02T11:46:09Z</time>
      </trkpt>
      <trkpt lat="49.28645" lon="-0.11395">
        <ele>3.4</ele>
        <time>2024-10-02T11:46:10Z</time>
      </trkpt>
      <trkpt lat="49.28648" lon="-0.11404">
        <ele>3.4</ele>
        <time>2024-10-02T11:46:11Z</time>
      </trkpt>
      <trkpt lat="49.28651" lon="-0.11412">
        <ele>3.4</ele>
        <time>2024-10-02T11:46:12Z</time>
      </trkpt>
      <trkpt lat="49.28653" lon="-0.11421">
        <ele>3.4</ele>
        <time>2024-10-02T11:46:13Z</time>
      </trkpt>
      <trkpt lat="49.28655" lon="-0.1143">
        <ele>3.2</ele>
        <time>2024-10-02T11:46:14Z</time>
      </trkpt>
      <trkpt lat="49.28658" lon="-0.11438">
        <ele>3.2</ele>
        <time>2024-10-02T11:46:15Z</time>
      </trkpt>
      <trkpt lat="49.2866" lon="-0.11447">
        <ele>3.2</ele>
        <time>2024-10-02T11:46:16Z</time>
      </trkpt>
      <trkpt lat="49.28662" lon="-0.11455">
        <ele>3.2</ele>
        <time>2024-10-02T11:46:17Z</time>
      </trkpt>
      <trkpt lat="49.28664" lon="-0.11463">
        <ele>3.2</ele>
        <time>2024-10-02T11:46:18Z</time>
      </trkpt>
      <trkpt lat="49.28667" lon="-0.11472">
        <ele>3</ele>
        <time>2024-10-02T11:46:19Z</time>
      </trkpt>
      <trkpt lat="49.28669" lon="-0.1148">
        <ele>3</ele>
        <time>2024-10-02T11:46:20Z</time>
      </trkpt>
      <trkpt lat="49.28672" lon="-0.1149">
        <ele>2.8</ele>
        <time>2024-10-02T11:46:21Z</time>
      </trkpt>
      <trkpt lat="49.28674" lon="-0.11499">
        <ele>2.8</ele>
        <time>2024-10-02T11:46:22Z</time>
      </trkpt>
      <trkpt lat="49.28676" lon="-0.11508">
        <ele>2.8</ele>
        <time>2024-10-02T11:46:23Z</time>
      </trkpt>
      <trkpt lat="49.28678" lon="-0.11517">
        <ele>2.8</ele>
        <time>2024-10-02T11:46:24Z</time>
      </trkpt>
      <trkpt lat="49.2868" lon="-0.11529">
        <ele>2.6</ele>
        <time>2024-10-02T11:46:25Z</time>
      </trkpt>
      <trkpt lat="49.28682" lon="-0.11537">
        <ele>2.6</ele>
        <time>2024-10-02T11:46:26Z</time>
      </trkpt>
      <trkpt lat="49.28684" lon="-0.11547">
        <ele>2.6</ele>
        <time>2024-10-02T11:46:27Z</time>
      </trkpt>
      <trkpt lat="49.28685" lon="-0.11556">
        <ele>2.6</ele>
        <time>2024-10-02T11:46:28Z</time>
      </trkpt>
      <trkpt lat="49.28686" lon="-0.11565">
        <ele>2.6</ele>
        <time>2024-10-02T11:46:29Z</time>
      </trkpt>
      <trkpt lat="49.28687" lon="-0.11576">
        <ele>2.6</ele>
        <time>2024-10-02T11:46:30Z</time>
      </trkpt>
      <trkpt lat="49.28688" lon="-0.11582">
        <ele>2.6</ele>
        <time>2024-10-02T11:46:31Z</time>
      </trkpt>
      <trkpt lat="49.28689" lon="-0.11593">
        <ele>2.6</ele>
        <time>2024-10-02T11:46:32Z</time>
      </trkpt>
      <trkpt lat="49.28689" lon="-0.11599">
        <ele>2.6</ele>
        <time>2024-10-02T11:46:33Z</time>
      </trkpt>
      <trkpt lat="49.2869" lon="-0.11608">
        <ele>2.6</ele>
        <time>2024-10-02T11:46:34Z</time>
      </trkpt>
      <trkpt lat="49.2869" lon="-0.11615">
        <ele>2.6</ele>
        <time>2024-10-02T11:46:35Z</time>
      </trkpt>
      <trkpt lat="49.2869" lon="-0.1162">
        <ele>2.6</ele>
        <time>2024-10-02T11:46:36Z</time>
      </trkpt>
      <trkpt lat="49.2869" lon="-0.11624">
        <ele>2.6</ele>
        <time>2024-10-02T11:46:37Z</time>
      </trkpt>
      <trkpt lat="49.2869" lon="-0.11628">
        <ele>2.6</ele>
        <time>2024-10-02T11:46:38Z</time>
      </trkpt>
      <trkpt lat="49.2869" lon="-0.11631">
        <ele>2.6</ele>
        <time>2024-10-02T11:46:39Z</time>
      </trkpt>
      <trkpt lat="49.2869" lon="-0.11633">
        <ele>2.8</ele>
        <time>2024-10-02T11:46:40Z</time>
      </trkpt>
      <trkpt lat="49.2869" lon="-0.11633">
        <ele>2.8</ele>
        <time>2024-10-02T11:46:41Z</time>
      </trkpt>
      <trkpt lat="49.2869" lon="-0.11634">
        <ele>2.8</ele>
        <time>2024-10-02T11:46:42Z</time>
      </trkpt>
      <trkpt lat="49.28689" lon="-0.11643">
        <ele>3.6</ele>
        <time>2024-10-02T11:46:45Z</time>
      </trkpt>
      <trkpt lat="49.28689" lon="-0.11647">
        <ele>3.8</ele>
        <time>2024-10-02T11:46:46Z</time>
      </trkpt>
      <trkpt lat="49.28689" lon="-0.11651">
        <ele>4</ele>
        <time>2024-10-02T11:46:47Z</time>
      </trkpt>
      <trkpt lat="49.28689" lon="-0.11656">
        <ele>4</ele>
        <time>2024-10-02T11:46:48Z</time>
      </trkpt>
      <trkpt lat="49.28689" lon="-0.1166">
        <ele>4</ele>
        <time>2024-10-02T11:46:49Z</time>
      </trkpt>
      <trkpt lat="49.28688" lon="-0.11665">
        <ele>4</ele>
        <time>2024-10-02T11:46:50Z</time>
      </trkpt>
      <trkpt lat="49.28688" lon="-0.11671">
        <ele>4</ele>
        <time>2024-10-02T11:46:51Z</time>
      </trkpt>
      <trkpt lat="49.28688" lon="-0.11678">
        <ele>4</ele>
        <time>2024-10-02T11:46:52Z</time>
      </trkpt>
      <trkpt lat="49.28688" lon="-0.11685">
        <ele>4</ele>
        <time>2024-10-02T11:46:53Z</time>
      </trkpt>
      <trkpt lat="49.28687" lon="-0.11692">
        <ele>4</ele>
        <time>2024-10-02T11:46:54Z</time>
      </trkpt>
      <trkpt lat="49.28687" lon="-0.117">
        <ele>4</ele>
        <time>2024-10-02T11:46:55Z</time>
      </trkpt>
      <trkpt lat="49.28687" lon="-0.11707">
        <ele>4</ele>
        <time>2024-10-02T11:46:56Z</time>
      </trkpt>
      <trkpt lat="49.28687" lon="-0.11715">
        <ele>3.8</ele>
        <time>2024-10-02T11:46:57Z</time>
      </trkpt>
      <trkpt lat="49.28687" lon="-0.11723">
        <ele>3.8</ele>
        <time>2024-10-02T11:46:58Z</time>
      </trkpt>
      <trkpt lat="49.28687" lon="-0.11731">
        <ele>3.6</ele>
        <time>2024-10-02T11:46:59Z</time>
      </trkpt>
      <trkpt lat="49.28686" lon="-0.11739">
        <ele>3.4</ele>
        <time>2024-10-02T11:47:00Z</time>
      </trkpt>
      <trkpt lat="49.28686" lon="-0.11748">
        <ele>3.4</ele>
        <time>2024-10-02T11:47:01Z</time>
      </trkpt>
      <trkpt lat="49.28685" lon="-0.11756">
        <ele>3.4</ele>
        <time>2024-10-02T11:47:02Z</time>
      </trkpt>
      <trkpt lat="49.28685" lon="-0.11765">
        <ele>3.2</ele>
        <time>2024-10-02T11:47:03Z</time>
      </trkpt>
      <trkpt lat="49.28685" lon="-0.11773">
        <ele>3</ele>
        <time>2024-10-02T11:47:04Z</time>
      </trkpt>
      <trkpt lat="49.28684" lon="-0.11782">
        <ele>3</ele>
        <time>2024-10-02T11:47:05Z</time>
      </trkpt>
      <trkpt lat="49.28684" lon="-0.1179">
        <ele>3</ele>
        <time>2024-10-02T11:47:06Z</time>
      </trkpt>
      <trkpt lat="49.28683" lon="-0.11799">
        <ele>3</ele>
        <time>2024-10-02T11:47:07Z</time>
      </trkpt>
      <trkpt lat="49.28683" lon="-0.11809">
        <ele>3</ele>
        <time>2024-10-02T11:47:08Z</time>
      </trkpt>
      <trkpt lat="49.28682" lon="-0.11815">
        <ele>2.8</ele>
        <time>2024-10-02T11:47:09Z</time>
      </trkpt>
      <trkpt lat="49.28681" lon="-0.11823">
        <ele>2.8</ele>
        <time>2024-10-02T11:47:10Z</time>
      </trkpt>
      <trkpt lat="49.28679" lon="-0.11833">
        <ele>2.8</ele>
        <time>2024-10-02T11:47:11Z</time>
      </trkpt>
      <trkpt lat="49.28678" lon="-0.11841">
        <ele>2.8</ele>
        <time>2024-10-02T11:47:12Z</time>
      </trkpt>
      <trkpt lat="49.28676" lon="-0.11849">
        <ele>2.8</ele>
        <time>2024-10-02T11:47:13Z</time>
      </trkpt>
      <trkpt lat="49.28675" lon="-0.11855">
        <ele>2.8</ele>
        <time>2024-10-02T11:47:14Z</time>
      </trkpt>
      <trkpt lat="49.28673" lon="-0.11863">
        <ele>2.8</ele>
        <time>2024-10-02T11:47:15Z</time>
      </trkpt>
      <trkpt lat="49.28671" lon="-0.1187">
        <ele>3</ele>
        <time>2024-10-02T11:47:16Z</time>
      </trkpt>
      <trkpt lat="49.28668" lon="-0.11876">
        <ele>3</ele>
        <time>2024-10-02T11:47:17Z</time>
      </trkpt>
      <trkpt lat="49.28664" lon="-0.1188">
        <ele>3</ele>
        <time>2024-10-02T11:47:18Z</time>
      </trkpt>
      <trkpt lat="49.28659" lon="-0.11883">
        <ele>3</ele>
        <time>2024-10-02T11:47:19Z</time>
      </trkpt>
      <trkpt lat="49.28655" lon="-0.11885">
        <ele>3</ele>
        <time>2024-10-02T11:47:20Z</time>
      </trkpt>
      <trkpt lat="49.28652" lon="-0.11888">
        <ele>3.2</ele>
        <time>2024-10-02T11:47:21Z</time>
      </trkpt>
      <trkpt lat="49.28649" lon="-0.11891">
        <ele>3.2</ele>
        <time>2024-10-02T11:47:22Z</time>
      </trkpt>
      <trkpt lat="49.28646" lon="-0.11893">
        <ele>3.2</ele>
        <time>2024-10-02T11:47:23Z</time>
      </trkpt>
      <trkpt lat="49.28644" lon="-0.11895">
        <ele>3.4</ele>
        <time>2024-10-02T11:47:24Z</time>
      </trkpt>
      <trkpt lat="49.28643" lon="-0.11899">
        <ele>3.4</ele>
        <time>2024-10-02T11:47:25Z</time>
      </trkpt>
      <trkpt lat="49.28642" lon="-0.11902">
        <ele>3.4</ele>
        <time>2024-10-02T11:47:26Z</time>
      </trkpt>
      <trkpt lat="49.28641" lon="-0.11905">
        <ele>3.4</ele>
        <time>2024-10-02T11:47:27Z</time>
      </trkpt>
      <trkpt lat="49.2864" lon="-0.11907">
        <ele>3.6</ele>
        <time>2024-10-02T11:47:28Z</time>
      </trkpt>
      <trkpt lat="49.28639" lon="-0.1191">
        <ele>3.8</ele>
        <time>2024-10-02T11:47:29Z</time>
      </trkpt>
      <trkpt lat="49.2864" lon="-0.11914">
        <ele>3.8</ele>
        <time>2024-10-02T11:47:30Z</time>
      </trkpt>
      <trkpt lat="49.2864" lon="-0.11917">
        <ele>3.8</ele>
        <time>2024-10-02T11:47:31Z</time>
      </trkpt>
      <trkpt lat="49.28641" lon="-0.11921">
        <ele>3.8</ele>
        <time>2024-10-02T11:47:32Z</time>
      </trkpt>
      <trkpt lat="49.28642" lon="-0.11923">
        <ele>3.8</ele>
        <time>2024-10-02T11:47:33Z</time>
      </trkpt>
      <trkpt lat="49.28644" lon="-0.11925">
        <ele>3.8</ele>
        <time>2024-10-02T11:47:34Z</time>
      </trkpt>
      <trkpt lat="49.28644" lon="-0.11926">
        <ele>3.8</ele>
        <time>2024-10-02T11:47:35Z</time>
      </trkpt>
      <trkpt lat="49.28644" lon="-0.11926">
        <ele>4</ele>
        <time>2024-10-02T11:47:36Z</time>
      </trkpt>
      <trkpt lat="49.28644" lon="-0.11926">
        <ele>4</ele>
        <time>2024-10-02T11:47:37Z</time>
      </trkpt>
      <trkpt lat="49.2864" lon="-0.11911">
        <ele>3.6</ele>
        <time>2024-10-02T12:02:42Z</time>
      </trkpt>
      <trkpt lat="49.2864" lon="-0.11908">
        <ele>3.6</ele>
        <time>2024-10-02T12:02:43Z</time>
      </trkpt>
      <trkpt lat="49.28639" lon="-0.11905">
        <ele>3.6</ele>
        <time>2024-10-02T12:02:44Z</time>
      </trkpt>
      <trkpt lat="49.28639" lon="-0.11902">
        <ele>3.6</ele>
        <time>2024-10-02T12:02:45Z</time>
      </trkpt>
      <trkpt lat="49.2864" lon="-0.11899">
        <ele>3.6</ele>
        <time>2024-10-02T12:02:46Z</time>
      </trkpt>
      <trkpt lat="49.28641" lon="-0.11896">
        <ele>3.6</ele>
        <time>2024-10-02T12:02:47Z</time>
      </trkpt>
      <trkpt lat="49.28642" lon="-0.11894">
        <ele>3.6</ele>
        <time>2024-10-02T12:02:48Z</time>
      </trkpt>
      <trkpt lat="49.28642" lon="-0.1189">
        <ele>3.4</ele>
        <time>2024-10-02T12:02:49Z</time>
      </trkpt>
      <trkpt lat="49.28642" lon="-0.11887">
        <ele>3.4</ele>
        <time>2024-10-02T12:02:50Z</time>
      </trkpt>
      <trkpt lat="49.28641" lon="-0.11883">
        <ele>3.4</ele>
        <time>2024-10-02T12:02:51Z</time>
      </trkpt>
      <trkpt lat="49.2864" lon="-0.11879">
        <ele>3.2</ele>
        <time>2024-10-02T12:02:52Z</time>
      </trkpt>
      <trkpt lat="49.28638" lon="-0.11875">
        <ele>3.2</ele>
        <time>2024-10-02T12:02:53Z</time>
      </trkpt>
      <trkpt lat="49.28636" lon="-0.11871">
        <ele>3.2</ele>
        <time>2024-10-02T12:02:54Z</time>
      </trkpt>
      <trkpt lat="49.28634" lon="-0.11866">
        <ele>3.2</ele>
        <time>2024-10-02T12:02:55Z</time>
      </trkpt>
      <trkpt lat="49.28632" lon="-0.11862">
        <ele>3.2</ele>
        <time>2024-10-02T12:02:56Z</time>
      </trkpt>
      <trkpt lat="49.2863" lon="-0.11857">
        <ele>3.2</ele>
        <time>2024-10-02T12:02:57Z</time>
      </trkpt>
      <trkpt lat="49.28628" lon="-0.11851">
        <ele>3.2</ele>
        <time>2024-10-02T12:02:58Z</time>
      </trkpt>
      <trkpt lat="49.28628" lon="-0.11845">
        <ele>3.2</ele>
        <time>2024-10-02T12:02:59Z</time>
      </trkpt>
      <trkpt lat="49.28628" lon="-0.11838">
        <ele>3.2</ele>
        <time>2024-10-02T12:03:00Z</time>
      </trkpt>
      <trkpt lat="49.28629" lon="-0.11831">
        <ele>3</ele>
        <time>2024-10-02T12:03:01Z</time>
      </trkpt>
      <trkpt lat="49.2863" lon="-0.11825">
        <ele>3</ele>
        <time>2024-10-02T12:03:02Z</time>
      </trkpt>
      <trkpt lat="49.28631" lon="-0.1182">
        <ele>3</ele>
        <time>2024-10-02T12:03:03Z</time>
      </trkpt>
      <trkpt lat="49.28632" lon="-0.11815">
        <ele>3</ele>
        <time>2024-10-02T12:03:04Z</time>
      </trkpt>
      <trkpt lat="49.28633" lon="-0.11809">
        <ele>3</ele>
        <time>2024-10-02T12:03:05Z</time>
      </trkpt>
      <trkpt lat="49.28635" lon="-0.11804">
        <ele>3</ele>
        <time>2024-10-02T12:03:06Z</time>
      </trkpt>
      <trkpt lat="49.28636" lon="-0.11799">
        <ele>3</ele>
        <time>2024-10-02T12:03:07Z</time>
      </trkpt>
      <trkpt lat="49.28637" lon="-0.11793">
        <ele>3</ele>
        <time>2024-10-02T12:03:08Z</time>
      </trkpt>
      <trkpt lat="49.28638" lon="-0.11787">
        <ele>3</ele>
        <time>2024-10-02T12:03:09Z</time>
      </trkpt>
      <trkpt lat="49.28639" lon="-0.11781">
        <ele>3</ele>
        <time>2024-10-02T12:03:10Z</time>
      </trkpt>
      <trkpt lat="49.28641" lon="-0.11776">
        <ele>3.2</ele>
        <time>2024-10-02T12:03:11Z</time>
      </trkpt>
      <trkpt lat="49.28642" lon="-0.1177">
        <ele>3.2</ele>
        <time>2024-10-02T12:03:12Z</time>
      </trkpt>
      <trkpt lat="49.28643" lon="-0.11765">
        <ele>3</ele>
        <time>2024-10-02T12:03:13Z</time>
      </trkpt>
      <trkpt lat="49.28644" lon="-0.11759">
        <ele>3</ele>
        <time>2024-10-02T12:03:14Z</time>
      </trkpt>
      <trkpt lat="49.28645" lon="-0.11754">
        <ele>3</ele>
        <time>2024-10-02T12:03:15Z</time>
      </trkpt>
      <trkpt lat="49.28646" lon="-0.11749">
        <ele>3</ele>
        <time>2024-10-02T12:03:16Z</time>
      </trkpt>
      <trkpt lat="49.28648" lon="-0.11743">
        <ele>3</ele>
        <time>2024-10-02T12:03:17Z</time>
      </trkpt>
      <trkpt lat="49.28649" lon="-0.11738">
        <ele>3</ele>
        <time>2024-10-02T12:03:18Z</time>
      </trkpt>
      <trkpt lat="49.28651" lon="-0.11733">
        <ele>3</ele>
        <time>2024-10-02T12:03:19Z</time>
      </trkpt>
      <trkpt lat="49.28652" lon="-0.11728">
        <ele>3.2</ele>
        <time>2024-10-02T12:03:20Z</time>
      </trkpt>
      <trkpt lat="49.28653" lon="-0.11723">
        <ele>3.2</ele>
        <time>2024-10-02T12:03:21Z</time>
      </trkpt>
      <trkpt lat="49.28655" lon="-0.11717">
        <ele>3.2</ele>
        <time>2024-10-02T12:03:22Z</time>
      </trkpt>
      <trkpt lat="49.28656" lon="-0.11712">
        <ele>3.2</ele>
        <time>2024-10-02T12:03:23Z</time>
      </trkpt>
      <trkpt lat="49.28657" lon="-0.11707">
        <ele>3.4</ele>
        <time>2024-10-02T12:03:24Z</time>
      </trkpt>
      <trkpt lat="49.28658" lon="-0.11702">
        <ele>3.6</ele>
        <time>2024-10-02T12:03:25Z</time>
      </trkpt>
      <trkpt lat="49.28659" lon="-0.11698">
        <ele>3.6</ele>
        <time>2024-10-02T12:03:26Z</time>
      </trkpt>
      <trkpt lat="49.28659" lon="-0.11693">
        <ele>3.6</ele>
        <time>2024-10-02T12:03:27Z</time>
      </trkpt>
      <trkpt lat="49.28659" lon="-0.11688">
        <ele>3.6</ele>
        <time>2024-10-02T12:03:28Z</time>
      </trkpt>
      <trkpt lat="49.2866" lon="-0.11683">
        <ele>3.8</ele>
        <time>2024-10-02T12:03:29Z</time>
      </trkpt>
      <trkpt lat="49.2866" lon="-0.11679">
        <ele>3.8</ele>
        <time>2024-10-02T12:03:30Z</time>
      </trkpt>
      <trkpt lat="49.28661" lon="-0.11675">
        <ele>3.8</ele>
        <time>2024-10-02T12:03:31Z</time>
      </trkpt>
      <trkpt lat="49.28663" lon="-0.1167">
        <ele>3.8</ele>
        <time>2024-10-02T12:03:32Z</time>
      </trkpt>
      <trkpt lat="49.28664" lon="-0.11667">
        <ele>3.8</ele>
        <time>2024-10-02T12:03:33Z</time>
      </trkpt>
      <trkpt lat="49.28666" lon="-0.11664">
        <ele>3.8</ele>
        <time>2024-10-02T12:03:34Z</time>
      </trkpt>
      <trkpt lat="49.28668" lon="-0.11661">
        <ele>3.8</ele>
        <time>2024-10-02T12:03:35Z</time>
      </trkpt>
      <trkpt lat="49.28669" lon="-0.1166">
        <ele>3.8</ele>
        <time>2024-10-02T12:03:36Z</time>
      </trkpt>
      <trkpt lat="49.28671" lon="-0.11659">
        <ele>4</ele>
        <time>2024-10-02T12:03:37Z</time>
      </trkpt>
      <trkpt lat="49.28672" lon="-0.11658">
        <ele>4</ele>
        <time>2024-10-02T12:03:38Z</time>
      </trkpt>
      <trkpt lat="49.28673" lon="-0.11658">
        <ele>4</ele>
        <time>2024-10-02T12:03:39Z</time>
      </trkpt>
      <trkpt lat="49.28674" lon="-0.11658">
        <ele>4</ele>
        <time>2024-10-02T12:03:40Z</time>
      </trkpt>
      <trkpt lat="49.28674" lon="-0.11658">
        <ele>4</ele>
        <time>2024-10-02T12:03:41Z</time>
      </trkpt>
      <trkpt lat="49.28679" lon="-0.11656">
        <ele>4</ele>
        <time>2024-10-02T12:04:24Z</time>
      </trkpt>
      <trkpt lat="49.28681" lon="-0.11655">
        <ele>4</ele>
        <time>2024-10-02T12:04:25Z</time>
      </trkpt>
      <trkpt lat="49.28683" lon="-0.11653">
        <ele>4</ele>
        <time>2024-10-02T12:04:26Z</time>
      </trkpt>
      <trkpt lat="49.28684" lon="-0.11649">
        <ele>3.8</ele>
        <time>2024-10-02T12:04:27Z</time>
      </trkpt>
      <trkpt lat="49.28685" lon="-0.11645">
        <ele>3.8</ele>
        <time>2024-10-02T12:04:28Z</time>
      </trkpt>
      <trkpt lat="49.28685" lon="-0.11641">
        <ele>3.8</ele>
        <time>2024-10-02T12:04:29Z</time>
      </trkpt>
      <trkpt lat="49.28684" lon="-0.11635">
        <ele>3.8</ele>
        <time>2024-10-02T12:04:30Z</time>
      </trkpt>
      <trkpt lat="49.28683" lon="-0.11629">
        <ele>3.8</ele>
        <time>2024-10-02T12:04:31Z</time>
      </trkpt>
      <trkpt lat="49.28683" lon="-0.11623">
        <ele>3.8</ele>
        <time>2024-10-02T12:04:32Z</time>
      </trkpt>
      <trkpt lat="49.28683" lon="-0.11617">
        <ele>3.8</ele>
        <time>2024-10-02T12:04:33Z</time>
      </trkpt>
      <trkpt lat="49.28683" lon="-0.11613">
        <ele>3.8</ele>
        <time>2024-10-02T12:04:34Z</time>
      </trkpt>
      <trkpt lat="49.28682" lon="-0.11605">
        <ele>3.6</ele>
        <time>2024-10-02T12:04:35Z</time>
      </trkpt>
      <trkpt lat="49.28682" lon="-0.11598">
        <ele>3.6</ele>
        <time>2024-10-02T12:04:36Z</time>
      </trkpt>
      <trkpt lat="49.28682" lon="-0.11593">
        <ele>3.4</ele>
        <time>2024-10-02T12:04:37Z</time>
      </trkpt>
      <trkpt lat="49.28681" lon="-0.11584">
        <ele>3.4</ele>
        <time>2024-10-02T12:04:38Z</time>
      </trkpt>
      <trkpt lat="49.28681" lon="-0.11576">
        <ele>3.4</ele>
        <time>2024-10-02T12:04:39Z</time>
      </trkpt>
      <trkpt lat="49.2868" lon="-0.11568">
        <ele>3.4</ele>
        <time>2024-10-02T12:04:40Z</time>
      </trkpt>
      <trkpt lat="49.28679" lon="-0.1156">
        <ele>3.4</ele>
        <time>2024-10-02T12:04:41Z</time>
      </trkpt>
      <trkpt lat="49.28678" lon="-0.11552">
        <ele>3.4</ele>
        <time>2024-10-02T12:04:42Z</time>
      </trkpt>
      <trkpt lat="49.28676" lon="-0.11544">
        <ele>3.4</ele>
        <time>2024-10-02T12:04:43Z</time>
      </trkpt>
      <trkpt lat="49.28675" lon="-0.11538">
        <ele>3.4</ele>
        <time>2024-10-02T12:04:44Z</time>
      </trkpt>
      <trkpt lat="49.28674" lon="-0.11529">
        <ele>3.4</ele>
        <time>2024-10-02T12:04:45Z</time>
      </trkpt>
      <trkpt lat="49.28672" lon="-0.11521">
        <ele>3.4</ele>
        <time>2024-10-02T12:04:46Z</time>
      </trkpt>
      <trkpt lat="49.28671" lon="-0.11512">
        <ele>3.4</ele>
        <time>2024-10-02T12:04:47Z</time>
      </trkpt>
      <trkpt lat="49.28669" lon="-0.11505">
        <ele>3.4</ele>
        <time>2024-10-02T12:04:48Z</time>
      </trkpt>
      <trkpt lat="49.28667" lon="-0.11497">
        <ele>3.4</ele>
        <time>2024-10-02T12:04:49Z</time>
      </trkpt>
      <trkpt lat="49.28665" lon="-0.11489">
        <ele>3.4</ele>
        <time>2024-10-02T12:04:50Z</time>
      </trkpt>
      <trkpt lat="49.28663" lon="-0.11481">
        <ele>3.4</ele>
        <time>2024-10-02T12:04:51Z</time>
      </trkpt>
      <trkpt lat="49.28661" lon="-0.11474">
        <ele>3.4</ele>
        <time>2024-10-02T12:04:52Z</time>
      </trkpt>
      <trkpt lat="49.28659" lon="-0.11466">
        <ele>3.4</ele>
        <time>2024-10-02T12:04:53Z</time>
      </trkpt>
      <trkpt lat="49.28657" lon="-0.11458">
        <ele>3.4</ele>
        <time>2024-10-02T12:04:54Z</time>
      </trkpt>
      <trkpt lat="49.28655" lon="-0.1145">
        <ele>3.4</ele>
        <time>2024-10-02T12:04:55Z</time>
      </trkpt>
      <trkpt lat="49.28652" lon="-0.11442">
        <ele>3.4</ele>
        <time>2024-10-02T12:04:56Z</time>
      </trkpt>
      <trkpt lat="49.2865" lon="-0.11434">
        <ele>3.4</ele>
        <time>2024-10-02T12:04:57Z</time>
      </trkpt>
      <trkpt lat="49.28648" lon="-0.11426">
        <ele>3.4</ele>
        <time>2024-10-02T12:04:58Z</time>
      </trkpt>
      <trkpt lat="49.28646" lon="-0.11419">
        <ele>3.2</ele>
        <time>2024-10-02T12:04:59Z</time>
      </trkpt>
      <trkpt lat="49.28643" lon="-0.11409">
        <ele>3.2</ele>
        <time>2024-10-02T12:05:00Z</time>
      </trkpt>
      <trkpt lat="49.28641" lon="-0.11401">
        <ele>3</ele>
        <time>2024-10-02T12:05:01Z</time>
      </trkpt>
      <trkpt lat="49.28638" lon="-0.11393">
        <ele>3</ele>
        <time>2024-10-02T12:05:02Z</time>
      </trkpt>
      <trkpt lat="49.28636" lon="-0.11385">
        <ele>3</ele>
        <time>2024-10-02T12:05:03Z</time>
      </trkpt>
      <trkpt lat="49.28634" lon="-0.11377">
        <ele>3</ele>
        <time>2024-10-02T12:05:04Z</time>
      </trkpt>
      <trkpt lat="49.28632" lon="-0.11369">
        <ele>3</ele>
        <time>2024-10-02T12:05:05Z</time>
      </trkpt>
      <trkpt lat="49.28629" lon="-0.11361">
        <ele>3</ele>
        <time>2024-10-02T12:05:06Z</time>
      </trkpt>
      <trkpt lat="49.28627" lon="-0.11352">
        <ele>3</ele>
        <time>2024-10-02T12:05:07Z</time>
      </trkpt>
      <trkpt lat="49.28624" lon="-0.11344">
        <ele>3</ele>
        <time>2024-10-02T12:05:08Z</time>
      </trkpt>
      <trkpt lat="49.28622" lon="-0.11336">
        <ele>3</ele>
        <time>2024-10-02T12:05:09Z</time>
      </trkpt>
      <trkpt lat="49.28619" lon="-0.11328">
        <ele>3</ele>
        <time>2024-10-02T12:05:10Z</time>
      </trkpt>
      <trkpt lat="49.28617" lon="-0.1132">
        <ele>3.2</ele>
        <time>2024-10-02T12:05:11Z</time>
      </trkpt>
      <trkpt lat="49.28615" lon="-0.11312">
        <ele>3.2</ele>
        <time>2024-10-02T12:05:12Z</time>
      </trkpt>
      <trkpt lat="49.28613" lon="-0.11304">
        <ele>3.2</ele>
        <time>2024-10-02T12:05:13Z</time>
      </trkpt>
      <trkpt lat="49.28611" lon="-0.11296">
        <ele>3.2</ele>
        <time>2024-10-02T12:05:14Z</time>
      </trkpt>
      <trkpt lat="49.28609" lon="-0.11288">
        <ele>3.2</ele>
        <time>2024-10-02T12:05:15Z</time>
      </trkpt>
      <trkpt lat="49.28607" lon="-0.11281">
        <ele>3.4</ele>
        <time>2024-10-02T12:05:16Z</time>
      </trkpt>
      <trkpt lat="49.28605" lon="-0.11273">
        <ele>3.4</ele>
        <time>2024-10-02T12:05:17Z</time>
      </trkpt>
      <trkpt lat="49.28603" lon="-0.11265">
        <ele>3.4</ele>
        <time>2024-10-02T12:05:18Z</time>
      </trkpt>
      <trkpt lat="49.28601" lon="-0.11258">
        <ele>3.6</ele>
        <time>2024-10-02T12:05:19Z</time>
      </trkpt>
      <trkpt lat="49.28598" lon="-0.11251">
        <ele>3.8</ele>
        <time>2024-10-02T12:05:20Z</time>
      </trkpt>
      <trkpt lat="49.28595" lon="-0.11245">
        <ele>3.8</ele>
        <time>2024-10-02T12:05:21Z</time>
      </trkpt>
      <trkpt lat="49.28593" lon="-0.11238">
        <ele>4</ele>
        <time>2024-10-02T12:05:22Z</time>
      </trkpt>
      <trkpt lat="49.28591" lon="-0.1123">
        <ele>4</ele>
        <time>2024-10-02T12:05:23Z</time>
      </trkpt>
      <trkpt lat="49.2859" lon="-0.11221">
        <ele>4.2</ele>
        <time>2024-10-02T12:05:24Z</time>
      </trkpt>
      <trkpt lat="49.28589" lon="-0.11213">
        <ele>4.2</ele>
        <time>2024-10-02T12:05:25Z</time>
      </trkpt>
      <trkpt lat="49.28587" lon="-0.11206">
        <ele>4.4</ele>
        <time>2024-10-02T12:05:26Z</time>
      </trkpt>
      <trkpt lat="49.28585" lon="-0.11199">
        <ele>4.4</ele>
        <time>2024-10-02T12:05:27Z</time>
      </trkpt>
      <trkpt lat="49.28583" lon="-0.11191">
        <ele>4.6</ele>
        <time>2024-10-02T12:05:28Z</time>
      </trkpt>
      <trkpt lat="49.28581" lon="-0.11184">
        <ele>4.8</ele>
        <time>2024-10-02T12:05:29Z</time>
      </trkpt>
      <trkpt lat="49.2858" lon="-0.11176">
        <ele>4.8</ele>
        <time>2024-10-02T12:05:30Z</time>
      </trkpt>
      <trkpt lat="49.28577" lon="-0.11169">
        <ele>5</ele>
        <time>2024-10-02T12:05:31Z</time>
      </trkpt>
      <trkpt lat="49.28576" lon="-0.1116">
        <ele>5</ele>
        <time>2024-10-02T12:05:32Z</time>
      </trkpt>
      <trkpt lat="49.28574" lon="-0.11154">
        <ele>5</ele>
        <time>2024-10-02T12:05:33Z</time>
      </trkpt>
      <trkpt lat="49.28572" lon="-0.11144">
        <ele>5</ele>
        <time>2024-10-02T12:05:34Z</time>
      </trkpt>
      <trkpt lat="49.2857" lon="-0.11135">
        <ele>5</ele>
        <time>2024-10-02T12:05:35Z</time>
      </trkpt>
      <trkpt lat="49.28567" lon="-0.11127">
        <ele>5.2</ele>
        <time>2024-10-02T12:05:36Z</time>
      </trkpt>
      <trkpt lat="49.28565" lon="-0.11118">
        <ele>5.2</ele>
        <time>2024-10-02T12:05:37Z</time>
      </trkpt>
      <trkpt lat="49.28563" lon="-0.1111">
        <ele>5.2</ele>
        <time>2024-10-02T12:05:38Z</time>
      </trkpt>
      <trkpt lat="49.28561" lon="-0.11101">
        <ele>5.2</ele>
        <time>2024-10-02T12:05:39Z</time>
      </trkpt>
      <trkpt lat="49.28558" lon="-0.11091">
        <ele>5.2</ele>
        <time>2024-10-02T12:05:40Z</time>
      </trkpt>
      <trkpt lat="49.28556" lon="-0.11085">
        <ele>5.2</ele>
        <time>2024-10-02T12:05:41Z</time>
      </trkpt>
      <trkpt lat="49.28553" lon="-0.11074">
        <ele>5.2</ele>
        <time>2024-10-02T12:05:42Z</time>
      </trkpt>
      <trkpt lat="49.28551" lon="-0.11065">
        <ele>5.2</ele>
        <time>2024-10-02T12:05:43Z</time>
      </trkpt>
      <trkpt lat="49.28549" lon="-0.11057">
        <ele>5.2</ele>
        <time>2024-10-02T12:05:44Z</time>
      </trkpt>
      <trkpt lat="49.28547" lon="-0.11049">
        <ele>5.2</ele>
        <time>2024-10-02T12:05:45Z</time>
      </trkpt>
      <trkpt lat="49.28544" lon="-0.11039">
        <ele>5.2</ele>
        <time>2024-10-02T12:05:46Z</time>
      </trkpt>
      <trkpt lat="49.28542" lon="-0.11029">
        <ele>5.2</ele>
        <time>2024-10-02T12:05:47Z</time>
      </trkpt>
      <trkpt lat="49.2854" lon="-0.1102">
        <ele>5</ele>
        <time>2024-10-02T12:05:48Z</time>
      </trkpt>
      <trkpt lat="49.28538" lon="-0.11011">
        <ele>4.8</ele>
        <time>2024-10-02T12:05:49Z</time>
      </trkpt>
      <trkpt lat="49.28536" lon="-0.11001">
        <ele>4.6</ele>
        <time>2024-10-02T12:05:50Z</time>
      </trkpt>
      <trkpt lat="49.28534" lon="-0.10991">
        <ele>4.4</ele>
        <time>2024-10-02T12:05:51Z</time>
      </trkpt>
      <trkpt lat="49.28532" lon="-0.10982">
        <ele>4.4</ele>
        <time>2024-10-02T12:05:52Z</time>
      </trkpt>
      <trkpt lat="49.2853" lon="-0.10972">
        <ele>4.4</ele>
        <time>2024-10-02T12:05:53Z</time>
      </trkpt>
      <trkpt lat="49.28529" lon="-0.10963">
        <ele>4.2</ele>
        <time>2024-10-02T12:05:54Z</time>
      </trkpt>
      <trkpt lat="49.28527" lon="-0.10955">
        <ele>4.2</ele>
        <time>2024-10-02T12:05:55Z</time>
      </trkpt>
      <trkpt lat="49.28526" lon="-0.10946">
        <ele>4</ele>
        <time>2024-10-02T12:05:56Z</time>
      </trkpt>
      <trkpt lat="49.28524" lon="-0.10936">
        <ele>4</ele>
        <time>2024-10-02T12:05:57Z</time>
      </trkpt>
      <trkpt lat="49.28523" lon="-0.10926">
        <ele>3.8</ele>
        <time>2024-10-02T12:05:58Z</time>
      </trkpt>
      <trkpt lat="49.28523" lon="-0.10917">
        <ele>3.4</ele>
        <time>2024-10-02T12:05:59Z</time>
      </trkpt>
      <trkpt lat="49.28524" lon="-0.10909">
        <ele>3.2</ele>
        <time>2024-10-02T12:06:00Z</time>
      </trkpt>
      <trkpt lat="49.28524" lon="-0.10901">
        <ele>3</ele>
        <time>2024-10-02T12:06:01Z</time>
      </trkpt>
      <trkpt lat="49.28524" lon="-0.10893">
        <ele>3</ele>
        <time>2024-10-02T12:06:02Z</time>
      </trkpt>
      <trkpt lat="49.28523" lon="-0.10886">
        <ele>3</ele>
        <time>2024-10-02T12:06:03Z</time>
      </trkpt>
      <trkpt lat="49.28523" lon="-0.10879">
        <ele>2.8</ele>
        <time>2024-10-02T12:06:04Z</time>
      </trkpt>
      <trkpt lat="49.28523" lon="-0.10871">
        <ele>2.8</ele>
        <time>2024-10-02T12:06:05Z</time>
      </trkpt>
      <trkpt lat="49.28523" lon="-0.10863">
        <ele>2.8</ele>
        <time>2024-10-02T12:06:06Z</time>
      </trkpt>
      <trkpt lat="49.28523" lon="-0.10857">
        <ele>2.8</ele>
        <time>2024-10-02T12:06:07Z</time>
      </trkpt>
      <trkpt lat="49.28524" lon="-0.10848">
        <ele>2.8</ele>
        <time>2024-10-02T12:06:08Z</time>
      </trkpt>
      <trkpt lat="49.28527" lon="-0.10842">
        <ele>2.8</ele>
        <time>2024-10-02T12:06:09Z</time>
      </trkpt>
      <trkpt lat="49.28532" lon="-0.10839">
        <ele>2.8</ele>
        <time>2024-10-02T12:06:10Z</time>
      </trkpt>
      <trkpt lat="49.28537" lon="-0.10837">
        <ele>2.8</ele>
        <time>2024-10-02T12:06:11Z</time>
      </trkpt>
      <trkpt lat="49.28543" lon="-0.10835">
        <ele>2.8</ele>
        <time>2024-10-02T12:06:12Z</time>
      </trkpt>
      <trkpt lat="49.28549" lon="-0.10832">
        <ele>2.8</ele>
        <time>2024-10-02T12:06:13Z</time>
      </trkpt>
      <trkpt lat="49.28555" lon="-0.1083">
        <ele>2.8</ele>
        <time>2024-10-02T12:06:14Z</time>
      </trkpt>
      <trkpt lat="49.28561" lon="-0.10827">
        <ele>2.8</ele>
        <time>2024-10-02T12:06:15Z</time>
      </trkpt>
      <trkpt lat="49.28566" lon="-0.10824">
        <ele>2.8</ele>
        <time>2024-10-02T12:06:16Z</time>
      </trkpt>
      <trkpt lat="49.28573" lon="-0.10821">
        <ele>2.8</ele>
        <time>2024-10-02T12:06:17Z</time>
      </trkpt>
      <trkpt lat="49.28578" lon="-0.10819">
        <ele>2.8</ele>
        <time>2024-10-02T12:06:18Z</time>
      </trkpt>
      <trkpt lat="49.28583" lon="-0.10815">
        <ele>2.8</ele>
        <time>2024-10-02T12:06:19Z</time>
      </trkpt>
      <trkpt lat="49.2859" lon="-0.10811">
        <ele>2.8</ele>
        <time>2024-10-02T12:06:20Z</time>
      </trkpt>
      <trkpt lat="49.28594" lon="-0.10809">
        <ele>2.6</ele>
        <time>2024-10-02T12:06:21Z</time>
      </trkpt>
      <trkpt lat="49.286" lon="-0.10804">
        <ele>2.6</ele>
        <time>2024-10-02T12:06:22Z</time>
      </trkpt>
      <trkpt lat="49.28605" lon="-0.108">
        <ele>2.6</ele>
        <time>2024-10-02T12:06:23Z</time>
      </trkpt>
      <trkpt lat="49.2861" lon="-0.10794">
        <ele>2.6</ele>
        <time>2024-10-02T12:06:24Z</time>
      </trkpt>
      <trkpt lat="49.28614" lon="-0.10787">
        <ele>2.6</ele>
        <time>2024-10-02T12:06:25Z</time>
      </trkpt>
      <trkpt lat="49.28617" lon="-0.10779">
        <ele>2.4</ele>
        <time>2024-10-02T12:06:26Z</time>
      </trkpt>
      <trkpt lat="49.2862" lon="-0.10771">
        <ele>2.4</ele>
        <time>2024-10-02T12:06:27Z</time>
      </trkpt>
      <trkpt lat="49.28623" lon="-0.10763">
        <ele>2.4</ele>
        <time>2024-10-02T12:06:28Z</time>
      </trkpt>
      <trkpt lat="49.28628" lon="-0.10756">
        <ele>2.4</ele>
        <time>2024-10-02T12:06:29Z</time>
      </trkpt>
      <trkpt lat="49.28632" lon="-0.10749">
        <ele>2.4</ele>
        <time>2024-10-02T12:06:30Z</time>
      </trkpt>
      <trkpt lat="49.28637" lon="-0.10744">
        <ele>2.4</ele>
        <time>2024-10-02T12:06:31Z</time>
      </trkpt>
      <trkpt lat="49.28642" lon="-0.10738">
        <ele>2.4</ele>
        <time>2024-10-02T12:06:32Z</time>
      </trkpt>
      <trkpt lat="49.28647" lon="-0.10734">
        <ele>2.4</ele>
        <time>2024-10-02T12:06:33Z</time>
      </trkpt>
      <trkpt lat="49.28652" lon="-0.1073">
        <ele>2.4</ele>
        <time>2024-10-02T12:06:34Z</time>
      </trkpt>
      <trkpt lat="49.28658" lon="-0.10725">
        <ele>2.4</ele>
        <time>2024-10-02T12:06:35Z</time>
      </trkpt>
      <trkpt lat="49.28662" lon="-0.10722">
        <ele>2.4</ele>
        <time>2024-10-02T12:06:36Z</time>
      </trkpt>
      <trkpt lat="49.28668" lon="-0.10719">
        <ele>2.4</ele>
        <time>2024-10-02T12:06:37Z</time>
      </trkpt>
      <trkpt lat="49.28675" lon="-0.10716">
        <ele>2.4</ele>
        <time>2024-10-02T12:06:38Z</time>
      </trkpt>
      <trkpt lat="49.28681" lon="-0.10713">
        <ele>2.6</ele>
        <time>2024-10-02T12:06:39Z</time>
      </trkpt>
      <trkpt lat="49.28687" lon="-0.10708">
        <ele>2.6</ele>
        <time>2024-10-02T12:06:40Z</time>
      </trkpt>
      <trkpt lat="49.28692" lon="-0.10703">
        <ele>2.6</ele>
        <time>2024-10-02T12:06:41Z</time>
      </trkpt>
      <trkpt lat="49.28697" lon="-0.10696">
        <ele>2.6</ele>
        <time>2024-10-02T12:06:42Z</time>
      </trkpt>
      <trkpt lat="49.28701" lon="-0.10689">
        <ele>2.4</ele>
        <time>2024-10-02T12:06:43Z</time>
      </trkpt>
      <trkpt lat="49.28706" lon="-0.10682">
        <ele>2.4</ele>
        <time>2024-10-02T12:06:44Z</time>
      </trkpt>
      <trkpt lat="49.28711" lon="-0.10675">
        <ele>2.6</ele>
        <time>2024-10-02T12:06:45Z</time>
      </trkpt>
      <trkpt lat="49.28716" lon="-0.10668">
        <ele>2.6</ele>
        <time>2024-10-02T12:06:46Z</time>
      </trkpt>
      <trkpt lat="49.28721" lon="-0.10661">
        <ele>2.6</ele>
        <time>2024-10-02T12:06:47Z</time>
      </trkpt>
      <trkpt lat="49.28725" lon="-0.10654">
        <ele>2.6</ele>
        <time>2024-10-02T12:06:48Z</time>
      </trkpt>
      <trkpt lat="49.2873" lon="-0.10646">
        <ele>2.6</ele>
        <time>2024-10-02T12:06:49Z</time>
      </trkpt>
      <trkpt lat="49.28734" lon="-0.10638">
        <ele>2.6</ele>
        <time>2024-10-02T12:06:50Z</time>
      </trkpt>
      <trkpt lat="49.28737" lon="-0.1063">
        <ele>2.6</ele>
        <time>2024-10-02T12:06:51Z</time>
      </trkpt>
      <trkpt lat="49.28741" lon="-0.10622">
        <ele>2.6</ele>
        <time>2024-10-02T12:06:52Z</time>
      </trkpt>
      <trkpt lat="49.28745" lon="-0.10614">
        <ele>2.6</ele>
        <time>2024-10-02T12:06:53Z</time>
      </trkpt>
      <trkpt lat="49.28749" lon="-0.10606">
        <ele>2.6</ele>
        <time>2024-10-02T12:06:54Z</time>
      </trkpt>
      <trkpt lat="49.28753" lon="-0.10598">
        <ele>2.6</ele>
        <time>2024-10-02T12:06:55Z</time>
      </trkpt>
      <trkpt lat="49.28757" lon="-0.10591">
        <ele>2.6</ele>
        <time>2024-10-02T12:06:56Z</time>
      </trkpt>
      <trkpt lat="49.2876" lon="-0.10584">
        <ele>2.6</ele>
        <time>2024-10-02T12:06:57Z</time>
      </trkpt>
      <trkpt lat="49.28762" lon="-0.10576">
        <ele>2.6</ele>
        <time>2024-10-02T12:06:58Z</time>
      </trkpt>
      <trkpt lat="49.28764" lon="-0.10568">
        <ele>2.4</ele>
        <time>2024-10-02T12:06:59Z</time>
      </trkpt>
      <trkpt lat="49.28766" lon="-0.1056">
        <ele>2.4</ele>
        <time>2024-10-02T12:07:00Z</time>
      </trkpt>
      <trkpt lat="49.28768" lon="-0.10552">
        <ele>2.4</ele>
        <time>2024-10-02T12:07:01Z</time>
      </trkpt>
      <trkpt lat="49.28772" lon="-0.10544">
        <ele>2.4</ele>
        <time>2024-10-02T12:07:02Z</time>
      </trkpt>
      <trkpt lat="49.28775" lon="-0.10536">
        <ele>2.4</ele>
        <time>2024-10-02T12:07:03Z</time>
      </trkpt>
      <trkpt lat="49.28779" lon="-0.10528">
        <ele>2.4</ele>
        <time>2024-10-02T12:07:04Z</time>
      </trkpt>
      <trkpt lat="49.28782" lon="-0.10521">
        <ele>2.4</ele>
        <time>2024-10-02T12:07:05Z</time>
      </trkpt>
      <trkpt lat="49.28786" lon="-0.10513">
        <ele>2.4</ele>
        <time>2024-10-02T12:07:06Z</time>
      </trkpt>
      <trkpt lat="49.2879" lon="-0.10506">
        <ele>2.4</ele>
        <time>2024-10-02T12:07:07Z</time>
      </trkpt>
      <trkpt lat="49.28793" lon="-0.10498">
        <ele>2.4</ele>
        <time>2024-10-02T12:07:08Z</time>
      </trkpt>
      <trkpt lat="49.28797" lon="-0.10491">
        <ele>2.4</ele>
        <time>2024-10-02T12:07:09Z</time>
      </trkpt>
      <trkpt lat="49.28801" lon="-0.10484">
        <ele>2.4</ele>
        <time>2024-10-02T12:07:10Z</time>
      </trkpt>
      <trkpt lat="49.28805" lon="-0.10477">
        <ele>2.2</ele>
        <time>2024-10-02T12:07:11Z</time>
      </trkpt>
      <trkpt lat="49.28809" lon="-0.1047">
        <ele>2.2</ele>
        <time>2024-10-02T12:07:12Z</time>
      </trkpt>
      <trkpt lat="49.28813" lon="-0.10464">
        <ele>2.2</ele>
        <time>2024-10-02T12:07:13Z</time>
      </trkpt>
      <trkpt lat="49.28818" lon="-0.10457">
        <ele>2.2</ele>
        <time>2024-10-02T12:07:14Z</time>
      </trkpt>
      <trkpt lat="49.28822" lon="-0.1045">
        <ele>2.2</ele>
        <time>2024-10-02T12:07:15Z</time>
      </trkpt>
      <trkpt lat="49.28826" lon="-0.10443">
        <ele>2.2</ele>
        <time>2024-10-02T12:07:16Z</time>
      </trkpt>
      <trkpt lat="49.2883" lon="-0.10436">
        <ele>2.2</ele>
        <time>2024-10-02T12:07:17Z</time>
      </trkpt>
      <trkpt lat="49.28834" lon="-0.10429">
        <ele>2</ele>
        <time>2024-10-02T12:07:18Z</time>
      </trkpt>
      <trkpt lat="49.28838" lon="-0.10422">
        <ele>2</ele>
        <time>2024-10-02T12:07:19Z</time>
      </trkpt>
      <trkpt lat="49.28843" lon="-0.10415">
        <ele>2</ele>
        <time>2024-10-02T12:07:20Z</time>
      </trkpt>
      <trkpt lat="49.28847" lon="-0.10408">
        <ele>2</ele>
        <time>2024-10-02T12:07:21Z</time>
      </trkpt>
      <trkpt lat="49.28852" lon="-0.10402">
        <ele>2</ele>
        <time>2024-10-02T12:07:22Z</time>
      </trkpt>
      <trkpt lat="49.28856" lon="-0.10395">
        <ele>2</ele>
        <time>2024-10-02T12:07:23Z</time>
      </trkpt>
      <trkpt lat="49.28861" lon="-0.10389">
        <ele>2</ele>
        <time>2024-10-02T12:07:24Z</time>
      </trkpt>
      <trkpt lat="49.28866" lon="-0.10383">
        <ele>2</ele>
        <time>2024-10-02T12:07:25Z</time>
      </trkpt>
      <trkpt lat="49.28871" lon="-0.10378">
        <ele>2</ele>
        <time>2024-10-02T12:07:26Z</time>
      </trkpt>
      <trkpt lat="49.28877" lon="-0.10373">
        <ele>2</ele>
        <time>2024-10-02T12:07:27Z</time>
      </trkpt>
      <trkpt lat="49.28882" lon="-0.10368">
        <ele>2</ele>
        <time>2024-10-02T12:07:28Z</time>
      </trkpt>
      <trkpt lat="49.28887" lon="-0.10364">
        <ele>2</ele>
        <time>2024-10-02T12:07:29Z</time>
      </trkpt>
      <trkpt lat="49.28893" lon="-0.10359">
        <ele>2</ele>
        <time>2024-10-02T12:07:30Z</time>
      </trkpt>
      <trkpt lat="49.28898" lon="-0.10354">
        <ele>2.2</ele>
        <time>2024-10-02T12:07:31Z</time>
      </trkpt>
      <trkpt lat="49.28903" lon="-0.1035">
        <ele>2.2</ele>
        <time>2024-10-02T12:07:32Z</time>
      </trkpt>
      <trkpt lat="49.28908" lon="-0.10344">
        <ele>2.2</ele>
        <time>2024-10-02T12:07:33Z</time>
      </trkpt>
      <trkpt lat="49.28913" lon="-0.10339">
        <ele>2.2</ele>
        <time>2024-10-02T12:07:34Z</time>
      </trkpt>
      <trkpt lat="49.28918" lon="-0.10333">
        <ele>2.2</ele>
        <time>2024-10-02T12:07:35Z</time>
      </trkpt>
      <trkpt lat="49.28923" lon="-0.10327">
        <ele>2.4</ele>
        <time>2024-10-02T12:07:36Z</time>
      </trkpt>
      <trkpt lat="49.28928" lon="-0.10321">
        <ele>2.4</ele>
        <time>2024-10-02T12:07:37Z</time>
      </trkpt>
      <trkpt lat="49.28933" lon="-0.10316">
        <ele>2.4</ele>
        <time>2024-10-02T12:07:38Z</time>
      </trkpt>
      <trkpt lat="49.28937" lon="-0.1031">
        <ele>2.4</ele>
        <time>2024-10-02T12:07:39Z</time>
      </trkpt>
      <trkpt lat="49.28941" lon="-0.10303">
        <ele>2.4</ele>
        <time>2024-10-02T12:07:40Z</time>
      </trkpt>
      <trkpt lat="49.28944" lon="-0.10297">
        <ele>2.4</ele>
        <time>2024-10-02T12:07:41Z</time>
      </trkpt>
      <trkpt lat="49.28948" lon="-0.1029">
        <ele>2.4</ele>
        <time>2024-10-02T12:07:42Z</time>
      </trkpt>
      <trkpt lat="49.28951" lon="-0.10284">
        <ele>2.4</ele>
        <time>2024-10-02T12:07:43Z</time>
      </trkpt>
      <trkpt lat="49.28954" lon="-0.10279">
        <ele>2.4</ele>
        <time>2024-10-02T12:07:44Z</time>
      </trkpt>
      <trkpt lat="49.28956" lon="-0.10276">
        <ele>2.4</ele>
        <time>2024-10-02T12:07:45Z</time>
      </trkpt>
      <trkpt lat="49.28958" lon="-0.10273">
        <ele>2.4</ele>
        <time>2024-10-02T12:07:46Z</time>
      </trkpt>
      <trkpt lat="49.2896" lon="-0.10269">
        <ele>2.6</ele>
        <time>2024-10-02T12:07:47Z</time>
      </trkpt>
      <trkpt lat="49.28962" lon="-0.10265">
        <ele>2.6</ele>
        <time>2024-10-02T12:07:48Z</time>
      </trkpt>
      <trkpt lat="49.28965" lon="-0.1026">
        <ele>2.6</ele>
        <time>2024-10-02T12:07:49Z</time>
      </trkpt>
      <trkpt lat="49.28968" lon="-0.10255">
        <ele>2.6</ele>
        <time>2024-10-02T12:07:50Z</time>
      </trkpt>
      <trkpt lat="49.28971" lon="-0.10248">
        <ele>2.6</ele>
        <time>2024-10-02T12:07:51Z</time>
      </trkpt>
      <trkpt lat="49.28975" lon="-0.10241">
        <ele>2.6</ele>
        <time>2024-10-02T12:07:52Z</time>
      </trkpt>
      <trkpt lat="49.2898" lon="-0.10234">
        <ele>2.6</ele>
        <time>2024-10-02T12:07:53Z</time>
      </trkpt>
      <trkpt lat="49.28986" lon="-0.10227">
        <ele>2.6</ele>
        <time>2024-10-02T12:07:54Z</time>
      </trkpt>
      <trkpt lat="49.28991" lon="-0.1022">
        <ele>2.6</ele>
        <time>2024-10-02T12:07:55Z</time>
      </trkpt>
      <trkpt lat="49.28996" lon="-0.10213">
        <ele>2.6</ele>
        <time>2024-10-02T12:07:56Z</time>
      </trkpt>
      <trkpt lat="49.29001" lon="-0.10206">
        <ele>2.4</ele>
        <time>2024-10-02T12:07:57Z</time>
      </trkpt>
      <trkpt lat="49.29006" lon="-0.10199">
        <ele>2.2</ele>
        <time>2024-10-02T12:07:58Z</time>
      </trkpt>
      <trkpt lat="49.2901" lon="-0.10192">
        <ele>2.2</ele>
        <time>2024-10-02T12:07:59Z</time>
      </trkpt>
      <trkpt lat="49.29015" lon="-0.10185">
        <ele>2.2</ele>
        <time>2024-10-02T12:08:00Z</time>
      </trkpt>
      <trkpt lat="49.29019" lon="-0.10178">
        <ele>2.2</ele>
        <time>2024-10-02T12:08:01Z</time>
      </trkpt>
      <trkpt lat="49.29024" lon="-0.10172">
        <ele>2.2</ele>
        <time>2024-10-02T12:08:02Z</time>
      </trkpt>
      <trkpt lat="49.29028" lon="-0.10168">
        <ele>2.2</ele>
        <time>2024-10-02T12:08:03Z</time>
      </trkpt>
      <trkpt lat="49.29034" lon="-0.10161">
        <ele>2.2</ele>
        <time>2024-10-02T12:08:04Z</time>
      </trkpt>
      <trkpt lat="49.29038" lon="-0.10156">
        <ele>2.2</ele>
        <time>2024-10-02T12:08:05Z</time>
      </trkpt>
      <trkpt lat="49.29043" lon="-0.10151">
        <ele>2.2</ele>
        <time>2024-10-02T12:08:06Z</time>
      </trkpt>
      <trkpt lat="49.29048" lon="-0.10146">
        <ele>2.2</ele>
        <time>2024-10-02T12:08:07Z</time>
      </trkpt>
      <trkpt lat="49.29053" lon="-0.1014">
        <ele>2.2</ele>
        <time>2024-10-02T12:08:08Z</time>
      </trkpt>
      <trkpt lat="49.29058" lon="-0.10134">
        <ele>2.2</ele>
        <time>2024-10-02T12:08:09Z</time>
      </trkpt>
      <trkpt lat="49.29062" lon="-0.10129">
        <ele>2.2</ele>
        <time>2024-10-02T12:08:10Z</time>
      </trkpt>
      <trkpt lat="49.29067" lon="-0.10123">
        <ele>2.4</ele>
        <time>2024-10-02T12:08:11Z</time>
      </trkpt>
      <trkpt lat="49.29071" lon="-0.10117">
        <ele>2.6</ele>
        <time>2024-10-02T12:08:12Z</time>
      </trkpt>
      <trkpt lat="49.29075" lon="-0.10112">
        <ele>2.8</ele>
        <time>2024-10-02T12:08:13Z</time>
      </trkpt>
      <trkpt lat="49.29079" lon="-0.10106">
        <ele>2.8</ele>
        <time>2024-10-02T12:08:14Z</time>
      </trkpt>
      <trkpt lat="49.29083" lon="-0.101">
        <ele>3</ele>
        <time>2024-10-02T12:08:15Z</time>
      </trkpt>
      <trkpt lat="49.29087" lon="-0.10096">
        <ele>3</ele>
        <time>2024-10-02T12:08:16Z</time>
      </trkpt>
      <trkpt lat="49.29092" lon="-0.10089">
        <ele>3.2</ele>
        <time>2024-10-02T12:08:17Z</time>
      </trkpt>
      <trkpt lat="49.29096" lon="-0.10082">
        <ele>3.2</ele>
        <time>2024-10-02T12:08:18Z</time>
      </trkpt>
      <trkpt lat="49.291" lon="-0.10075">
        <ele>3.2</ele>
        <time>2024-10-02T12:08:19Z</time>
      </trkpt>
      <trkpt lat="49.29104" lon="-0.10069">
        <ele>3.4</ele>
        <time>2024-10-02T12:08:20Z</time>
      </trkpt>
      <trkpt lat="49.29108" lon="-0.10062">
        <ele>3.4</ele>
        <time>2024-10-02T12:08:21Z</time>
      </trkpt>
      <trkpt lat="49.29112" lon="-0.10056">
        <ele>3.4</ele>
        <time>2024-10-02T12:08:22Z</time>
      </trkpt>
      <trkpt lat="49.29116" lon="-0.10049">
        <ele>3.4</ele>
        <time>2024-10-02T12:08:23Z</time>
      </trkpt>
      <trkpt lat="49.29119" lon="-0.10043">
        <ele>3.4</ele>
        <time>2024-10-02T12:08:24Z</time>
      </trkpt>
      <trkpt lat="49.29123" lon="-0.10037">
        <ele>3.4</ele>
        <time>2024-10-02T12:08:25Z</time>
      </trkpt>
      <trkpt lat="49.29126" lon="-0.10032">
        <ele>3.4</ele>
        <time>2024-10-02T12:08:26Z</time>
      </trkpt>
      <trkpt lat="49.29129" lon="-0.10026">
        <ele>3.4</ele>
        <time>2024-10-02T12:08:27Z</time>
      </trkpt>
      <trkpt lat="49.29132" lon="-0.10021">
        <ele>3.4</ele>
        <time>2024-10-02T12:08:28Z</time>
      </trkpt>
      <trkpt lat="49.29135" lon="-0.10016">
        <ele>3.4</ele>
        <time>2024-10-02T12:08:29Z</time>
      </trkpt>
      <trkpt lat="49.29138" lon="-0.10011">
        <ele>3.4</ele>
        <time>2024-10-02T12:08:30Z</time>
      </trkpt>
      <trkpt lat="49.29142" lon="-0.10008">
        <ele>3.6</ele>
        <time>2024-10-02T12:08:31Z</time>
      </trkpt>
      <trkpt lat="49.29146" lon="-0.10008">
        <ele>3.6</ele>
        <time>2024-10-02T12:08:32Z</time>
      </trkpt>
      <trkpt lat="49.29149" lon="-0.10009">
        <ele>3.6</ele>
        <time>2024-10-02T12:08:33Z</time>
      </trkpt>
      <trkpt lat="49.29153" lon="-0.10012">
        <ele>3.6</ele>
        <time>2024-10-02T12:08:34Z</time>
      </trkpt>
      <trkpt lat="49.29156" lon="-0.10016">
        <ele>3.6</ele>
        <time>2024-10-02T12:08:35Z</time>
      </trkpt>
      <trkpt lat="49.29159" lon="-0.10019">
        <ele>3.6</ele>
        <time>2024-10-02T12:08:36Z</time>
      </trkpt>
      <trkpt lat="49.29163" lon="-0.10021">
        <ele>3.6</ele>
        <time>2024-10-02T12:08:37Z</time>
      </trkpt>
      <trkpt lat="49.29167" lon="-0.10022">
        <ele>3.6</ele>
        <time>2024-10-02T12:08:38Z</time>
      </trkpt>
      <trkpt lat="49.29172" lon="-0.10019">
        <ele>3.6</ele>
        <time>2024-10-02T12:08:39Z</time>
      </trkpt>
      <trkpt lat="49.29175" lon="-0.10013">
        <ele>3.6</ele>
        <time>2024-10-02T12:08:40Z</time>
      </trkpt>
      <trkpt lat="49.29178" lon="-0.10006">
        <ele>3.6</ele>
        <time>2024-10-02T12:08:41Z</time>
      </trkpt>
      <trkpt lat="49.29181" lon="-0.09999">
        <ele>3.6</ele>
        <time>2024-10-02T12:08:42Z</time>
      </trkpt>
      <trkpt lat="49.29184" lon="-0.09992">
        <ele>3.6</ele>
        <time>2024-10-02T12:08:43Z</time>
      </trkpt>
      <trkpt lat="49.29187" lon="-0.09985">
        <ele>3.6</ele>
        <time>2024-10-02T12:08:44Z</time>
      </trkpt>
      <trkpt lat="49.2919" lon="-0.09978">
        <ele>3.6</ele>
        <time>2024-10-02T12:08:45Z</time>
      </trkpt>
      <trkpt lat="49.29194" lon="-0.09971">
        <ele>3.6</ele>
        <time>2024-10-02T12:08:46Z</time>
      </trkpt>
      <trkpt lat="49.29198" lon="-0.09964">
        <ele>3.6</ele>
        <time>2024-10-02T12:08:47Z</time>
      </trkpt>
      <trkpt lat="49.29202" lon="-0.09958">
        <ele>3.6</ele>
        <time>2024-10-02T12:08:48Z</time>
      </trkpt>
      <trkpt lat="49.29205" lon="-0.09951">
        <ele>3.4</ele>
        <time>2024-10-02T12:08:49Z</time>
      </trkpt>
      <trkpt lat="49.29209" lon="-0.09944">
        <ele>3.4</ele>
        <time>2024-10-02T12:08:50Z</time>
      </trkpt>
      <trkpt lat="49.29212" lon="-0.09937">
        <ele>3.2</ele>
        <time>2024-10-02T12:08:51Z</time>
      </trkpt>
      <trkpt lat="49.29215" lon="-0.09929">
        <ele>3.2</ele>
        <time>2024-10-02T12:08:52Z</time>
      </trkpt>
      <trkpt lat="49.29218" lon="-0.09923">
        <ele>3</ele>
        <time>2024-10-02T12:08:53Z</time>
      </trkpt>
      <trkpt lat="49.29222" lon="-0.09916">
        <ele>3</ele>
        <time>2024-10-02T12:08:54Z</time>
      </trkpt>
      <trkpt lat="49.29225" lon="-0.09909">
        <ele>2.8</ele>
        <time>2024-10-02T12:08:55Z</time>
      </trkpt>
      <trkpt lat="49.29228" lon="-0.09902">
        <ele>2.8</ele>
        <time>2024-10-02T12:08:56Z</time>
      </trkpt>
      <trkpt lat="49.29231" lon="-0.09895">
        <ele>2.8</ele>
        <time>2024-10-02T12:08:57Z</time>
      </trkpt>
      <trkpt lat="49.29234" lon="-0.09887">
        <ele>2.8</ele>
        <time>2024-10-02T12:08:58Z</time>
      </trkpt>
      <trkpt lat="49.29237" lon="-0.0988">
        <ele>2.8</ele>
        <time>2024-10-02T12:08:59Z</time>
      </trkpt>
      <trkpt lat="49.29239" lon="-0.09871">
        <ele>2.8</ele>
        <time>2024-10-02T12:09:00Z</time>
      </trkpt>
      <trkpt lat="49.29242" lon="-0.09863">
        <ele>2.6</ele>
        <time>2024-10-02T12:09:01Z</time>
      </trkpt>
      <trkpt lat="49.29244" lon="-0.09857">
        <ele>2.6</ele>
        <time>2024-10-02T12:09:02Z</time>
      </trkpt>
      <trkpt lat="49.29248" lon="-0.09848">
        <ele>2.6</ele>
        <time>2024-10-02T12:09:03Z</time>
      </trkpt>
      <trkpt lat="49.2925" lon="-0.0984">
        <ele>2.6</ele>
        <time>2024-10-02T12:09:04Z</time>
      </trkpt>
      <trkpt lat="49.29253" lon="-0.09831">
        <ele>2.4</ele>
        <time>2024-10-02T12:09:05Z</time>
      </trkpt>
      <trkpt lat="49.29256" lon="-0.09823">
        <ele>2.2</ele>
        <time>2024-10-02T12:09:06Z</time>
      </trkpt>
      <trkpt lat="49.29258" lon="-0.09814">
        <ele>2.2</ele>
        <time>2024-10-02T12:09:07Z</time>
      </trkpt>
      <trkpt lat="49.29261" lon="-0.09805">
        <ele>2.2</ele>
        <time>2024-10-02T12:09:08Z</time>
      </trkpt>
      <trkpt lat="49.29263" lon="-0.09797">
        <ele>2.2</ele>
        <time>2024-10-02T12:09:09Z</time>
      </trkpt>
      <trkpt lat="49.29266" lon="-0.09788">
        <ele>2.2</ele>
        <time>2024-10-02T12:09:10Z</time>
      </trkpt>
      <trkpt lat="49.29268" lon="-0.09781">
        <ele>2.2</ele>
        <time>2024-10-02T12:09:11Z</time>
      </trkpt>
      <trkpt lat="49.29271" lon="-0.0977">
        <ele>2.2</ele>
        <time>2024-10-02T12:09:12Z</time>
      </trkpt>
      <trkpt lat="49.29273" lon="-0.09761">
        <ele>2.2</ele>
        <time>2024-10-02T12:09:13Z</time>
      </trkpt>
      <trkpt lat="49.29276" lon="-0.09752">
        <ele>2</ele>
        <time>2024-10-02T12:09:14Z</time>
      </trkpt>
      <trkpt lat="49.29278" lon="-0.09744">
        <ele>2</ele>
        <time>2024-10-02T12:09:15Z</time>
      </trkpt>
      <trkpt lat="49.29281" lon="-0.09735">
        <ele>2</ele>
        <time>2024-10-02T12:09:16Z</time>
      </trkpt>
      <trkpt lat="49.29283" lon="-0.09728">
        <ele>2</ele>
        <time>2024-10-02T12:09:17Z</time>
      </trkpt>
      <trkpt lat="49.29286" lon="-0.09717">
        <ele>2</ele>
        <time>2024-10-02T12:09:18Z</time>
      </trkpt>
      <trkpt lat="49.29289" lon="-0.09709">
        <ele>2</ele>
        <time>2024-10-02T12:09:19Z</time>
      </trkpt>
      <trkpt lat="49.29291" lon="-0.097">
        <ele>2</ele>
        <time>2024-10-02T12:09:20Z</time>
      </trkpt>
      <trkpt lat="49.29294" lon="-0.09692">
        <ele>2</ele>
        <time>2024-10-02T12:09:21Z</time>
      </trkpt>
      <trkpt lat="49.29297" lon="-0.09683">
        <ele>2</ele>
        <time>2024-10-02T12:09:22Z</time>
      </trkpt>
      <trkpt lat="49.29299" lon="-0.09674">
        <ele>1.8</ele>
        <time>2024-10-02T12:09:23Z</time>
      </trkpt>
      <trkpt lat="49.29302" lon="-0.09665">
        <ele>1.8</ele>
        <time>2024-10-02T12:09:24Z</time>
      </trkpt>
      <trkpt lat="49.29305" lon="-0.09656">
        <ele>1.8</ele>
        <time>2024-10-02T12:09:25Z</time>
      </trkpt>
      <trkpt lat="49.29307" lon="-0.09647">
        <ele>1.8</ele>
        <time>2024-10-02T12:09:26Z</time>
      </trkpt>
      <trkpt lat="49.2931" lon="-0.09639">
        <ele>1.8</ele>
        <time>2024-10-02T12:09:27Z</time>
      </trkpt>
      <trkpt lat="49.29312" lon="-0.0963">
        <ele>1.8</ele>
        <time>2024-10-02T12:09:28Z</time>
      </trkpt>
      <trkpt lat="49.29315" lon="-0.09621">
        <ele>1.6</ele>
        <time>2024-10-02T12:09:29Z</time>
      </trkpt>
      <trkpt lat="49.29317" lon="-0.09612">
        <ele>1.6</ele>
        <time>2024-10-02T12:09:30Z</time>
      </trkpt>
      <trkpt lat="49.29319" lon="-0.09604">
        <ele>1.6</ele>
        <time>2024-10-02T12:09:31Z</time>
      </trkpt>
      <trkpt lat="49.29322" lon="-0.09595">
        <ele>1.4</ele>
        <time>2024-10-02T12:09:32Z</time>
      </trkpt>
      <trkpt lat="49.29324" lon="-0.09586">
        <ele>1.4</ele>
        <time>2024-10-02T12:09:33Z</time>
      </trkpt>
      <trkpt lat="49.29327" lon="-0.09578">
        <ele>1.4</ele>
        <time>2024-10-02T12:09:34Z</time>
      </trkpt>
      <trkpt lat="49.29329" lon="-0.09569">
        <ele>1.4</ele>
        <time>2024-10-02T12:09:35Z</time>
      </trkpt>
      <trkpt lat="49.29331" lon="-0.0956">
        <ele>1.4</ele>
        <time>2024-10-02T12:09:36Z</time>
      </trkpt>
      <trkpt lat="49.29334" lon="-0.09552">
        <ele>1.2</ele>
        <time>2024-10-02T12:09:37Z</time>
      </trkpt>
      <trkpt lat="49.29336" lon="-0.09543">
        <ele>1.2</ele>
        <time>2024-10-02T12:09:38Z</time>
      </trkpt>
      <trkpt lat="49.29339" lon="-0.09534">
        <ele>1</ele>
        <time>2024-10-02T12:09:39Z</time>
      </trkpt>
      <trkpt lat="49.29341" lon="-0.09525">
        <ele>1</ele>
        <time>2024-10-02T12:09:40Z</time>
      </trkpt>
      <trkpt lat="49.29344" lon="-0.09516">
        <ele>1</ele>
        <time>2024-10-02T12:09:41Z</time>
      </trkpt>
      <trkpt lat="49.29347" lon="-0.09507">
        <ele>1</ele>
        <time>2024-10-02T12:09:42Z</time>
      </trkpt>
      <trkpt lat="49.29349" lon="-0.09499">
        <ele>1.2</ele>
        <time>2024-10-02T12:09:43Z</time>
      </trkpt>
      <trkpt lat="49.29352" lon="-0.0949">
        <ele>1.2</ele>
        <time>2024-10-02T12:09:44Z</time>
      </trkpt>
      <trkpt lat="49.29355" lon="-0.09482">
        <ele>1.2</ele>
        <time>2024-10-02T12:09:45Z</time>
      </trkpt>
      <trkpt lat="49.29357" lon="-0.09473">
        <ele>1.2</ele>
        <time>2024-10-02T12:09:46Z</time>
      </trkpt>
      <trkpt lat="49.2936" lon="-0.09465">
        <ele>1.2</ele>
        <time>2024-10-02T12:09:47Z</time>
      </trkpt>
      <trkpt lat="49.29362" lon="-0.09456">
        <ele>1.4</ele>
        <time>2024-10-02T12:09:48Z</time>
      </trkpt>
      <trkpt lat="49.29365" lon="-0.09447">
        <ele>1.4</ele>
        <time>2024-10-02T12:09:49Z</time>
      </trkpt>
      <trkpt lat="49.29368" lon="-0.09438">
        <ele>1.4</ele>
        <time>2024-10-02T12:09:50Z</time>
      </trkpt>
      <trkpt lat="49.2937" lon="-0.09429">
        <ele>1.4</ele>
        <time>2024-10-02T12:09:51Z</time>
      </trkpt>
      <trkpt lat="49.29372" lon="-0.09421">
        <ele>1.4</ele>
        <time>2024-10-02T12:09:52Z</time>
      </trkpt>
      <trkpt lat="49.29376" lon="-0.09411">
        <ele>1.4</ele>
        <time>2024-10-02T12:09:53Z</time>
      </trkpt>
      <trkpt lat="49.29378" lon="-0.09402">
        <ele>1.4</ele>
        <time>2024-10-02T12:09:54Z</time>
      </trkpt>
      <trkpt lat="49.29381" lon="-0.09393">
        <ele>1.4</ele>
        <time>2024-10-02T12:09:55Z</time>
      </trkpt>
      <trkpt lat="49.29383" lon="-0.09384">
        <ele>1.4</ele>
        <time>2024-10-02T12:09:56Z</time>
      </trkpt>
      <trkpt lat="49.29386" lon="-0.09375">
        <ele>1.4</ele>
        <time>2024-10-02T12:09:57Z</time>
      </trkpt>
      <trkpt lat="49.29388" lon="-0.09367">
        <ele>1.4</ele>
        <time>2024-10-02T12:09:58Z</time>
      </trkpt>
      <trkpt lat="49.29391" lon="-0.09358">
        <ele>1.4</ele>
        <time>2024-10-02T12:09:59Z</time>
      </trkpt>
      <trkpt lat="49.29393" lon="-0.0935">
        <ele>1.4</ele>
        <time>2024-10-02T12:10:00Z</time>
      </trkpt>
      <trkpt lat="49.29396" lon="-0.09342">
        <ele>1.4</ele>
        <time>2024-10-02T12:10:01Z</time>
      </trkpt>
      <trkpt lat="49.29398" lon="-0.09334">
        <ele>1.4</ele>
        <time>2024-10-02T12:10:02Z</time>
      </trkpt>
      <trkpt lat="49.29401" lon="-0.09325">
        <ele>1.4</ele>
        <time>2024-10-02T12:10:03Z</time>
      </trkpt>
      <trkpt lat="49.29404" lon="-0.09317">
        <ele>1.4</ele>
        <time>2024-10-02T12:10:04Z</time>
      </trkpt>
      <trkpt lat="49.29406" lon="-0.0931">
        <ele>1.4</ele>
        <time>2024-10-02T12:10:05Z</time>
      </trkpt>
      <trkpt lat="49.29409" lon="-0.09302">
        <ele>1.4</ele>
        <time>2024-10-02T12:10:06Z</time>
      </trkpt>
      <trkpt lat="49.29412" lon="-0.09295">
        <ele>1.4</ele>
        <time>2024-10-02T12:10:07Z</time>
      </trkpt>
      <trkpt lat="49.29415" lon="-0.09288">
        <ele>1.4</ele>
        <time>2024-10-02T12:10:08Z</time>
      </trkpt>
      <trkpt lat="49.29417" lon="-0.09281">
        <ele>1.4</ele>
        <time>2024-10-02T12:10:09Z</time>
      </trkpt>
      <trkpt lat="49.29418" lon="-0.09272">
        <ele>1.4</ele>
        <time>2024-10-02T12:10:10Z</time>
      </trkpt>
      <trkpt lat="49.29419" lon="-0.09265">
        <ele>1.6</ele>
        <time>2024-10-02T12:10:11Z</time>
      </trkpt>
      <trkpt lat="49.29418" lon="-0.09255">
        <ele>1.6</ele>
        <time>2024-10-02T12:10:12Z</time>
      </trkpt>
      <trkpt lat="49.29419" lon="-0.09246">
        <ele>1.6</ele>
        <time>2024-10-02T12:10:13Z</time>
      </trkpt>
      <trkpt lat="49.2942" lon="-0.09238">
        <ele>1.8</ele>
        <time>2024-10-02T12:10:14Z</time>
      </trkpt>
      <trkpt lat="49.29421" lon="-0.0923">
        <ele>1.8</ele>
        <time>2024-10-02T12:10:15Z</time>
      </trkpt>
      <trkpt lat="49.29423" lon="-0.09221">
        <ele>2</ele>
        <time>2024-10-02T12:10:16Z</time>
      </trkpt>
      <trkpt lat="49.29426" lon="-0.09212">
        <ele>2</ele>
        <time>2024-10-02T12:10:17Z</time>
      </trkpt>
      <trkpt lat="49.29428" lon="-0.09205">
        <ele>2</ele>
        <time>2024-10-02T12:10:18Z</time>
      </trkpt>
      <trkpt lat="49.2943" lon="-0.09195">
        <ele>2.4</ele>
        <time>2024-10-02T12:10:19Z</time>
      </trkpt>
      <trkpt lat="49.29433" lon="-0.09186">
        <ele>2.4</ele>
        <time>2024-10-02T12:10:20Z</time>
      </trkpt>
      <trkpt lat="49.29435" lon="-0.09178">
        <ele>2.6</ele>
        <time>2024-10-02T12:10:21Z</time>
      </trkpt>
      <trkpt lat="49.29438" lon="-0.09169">
        <ele>2.6</ele>
        <time>2024-10-02T12:10:22Z</time>
      </trkpt>
      <trkpt lat="49.29441" lon="-0.09161">
        <ele>2.6</ele>
        <time>2024-10-02T12:10:23Z</time>
      </trkpt>
      <trkpt lat="49.29444" lon="-0.09152">
        <ele>2.6</ele>
        <time>2024-10-02T12:10:24Z</time>
      </trkpt>
      <trkpt lat="49.29447" lon="-0.09144">
        <ele>2.6</ele>
        <time>2024-10-02T12:10:25Z</time>
      </trkpt>
      <trkpt lat="49.29449" lon="-0.09136">
        <ele>2.6</ele>
        <time>2024-10-02T12:10:26Z</time>
      </trkpt>
      <trkpt lat="49.29451" lon="-0.09129">
        <ele>2.6</ele>
        <time>2024-10-02T12:10:27Z</time>
      </trkpt>
      <trkpt lat="49.29454" lon="-0.0912">
        <ele>2.8</ele>
        <time>2024-10-02T12:10:28Z</time>
      </trkpt>
      <trkpt lat="49.29457" lon="-0.09113">
        <ele>2.8</ele>
        <time>2024-10-02T12:10:29Z</time>
      </trkpt>
      <trkpt lat="49.29459" lon="-0.09105">
        <ele>2.8</ele>
        <time>2024-10-02T12:10:30Z</time>
      </trkpt>
      <trkpt lat="49.29461" lon="-0.09099">
        <ele>2.8</ele>
        <time>2024-10-02T12:10:31Z</time>
      </trkpt>
      <trkpt lat="49.29463" lon="-0.09092">
        <ele>2.8</ele>
        <time>2024-10-02T12:10:32Z</time>
      </trkpt>
      <trkpt lat="49.29465" lon="-0.09086">
        <ele>2.8</ele>
        <time>2024-10-02T12:10:33Z</time>
      </trkpt>
      <trkpt lat="49.29467" lon="-0.0908">
        <ele>2.8</ele>
        <time>2024-10-02T12:10:34Z</time>
      </trkpt>
      <trkpt lat="49.29468" lon="-0.09074">
        <ele>2.8</ele>
        <time>2024-10-02T12:10:35Z</time>
      </trkpt>
      <trkpt lat="49.29467" lon="-0.09068">
        <ele>2.8</ele>
        <time>2024-10-02T12:10:36Z</time>
      </trkpt>
      <trkpt lat="49.29466" lon="-0.09064">
        <ele>2.8</ele>
        <time>2024-10-02T12:10:37Z</time>
      </trkpt>
      <trkpt lat="49.29463" lon="-0.09062">
        <ele>3</ele>
        <time>2024-10-02T12:10:38Z</time>
      </trkpt>
      <trkpt lat="49.29461" lon="-0.09061">
        <ele>3</ele>
        <time>2024-10-02T12:10:39Z</time>
      </trkpt>
      <trkpt lat="49.29457" lon="-0.09061">
        <ele>3</ele>
        <time>2024-10-02T12:10:40Z</time>
      </trkpt>
      <trkpt lat="49.29456" lon="-0.09058">
        <ele>3.2</ele>
        <time>2024-10-02T12:10:41Z</time>
      </trkpt>
      <trkpt lat="49.29455" lon="-0.09055">
        <ele>3.2</ele>
        <time>2024-10-02T12:10:42Z</time>
      </trkpt>
      <trkpt lat="49.29456" lon="-0.09051">
        <ele>3.4</ele>
        <time>2024-10-02T12:10:43Z</time>
      </trkpt>
      <trkpt lat="49.29457" lon="-0.09046">
        <ele>3.4</ele>
        <time>2024-10-02T12:10:44Z</time>
      </trkpt>
      <trkpt lat="49.29458" lon="-0.09041">
        <ele>3.4</ele>
        <time>2024-10-02T12:10:45Z</time>
      </trkpt>
      <trkpt lat="49.29459" lon="-0.09036">
        <ele>3.6</ele>
        <time>2024-10-02T12:10:46Z</time>
      </trkpt>
      <trkpt lat="49.2946" lon="-0.0903">
        <ele>3.8</ele>
        <time>2024-10-02T12:10:47Z</time>
      </trkpt>
      <trkpt lat="49.29462" lon="-0.09024">
        <ele>4</ele>
        <time>2024-10-02T12:10:48Z</time>
      </trkpt>
      <trkpt lat="49.29463" lon="-0.09017">
        <ele>4</ele>
        <time>2024-10-02T12:10:49Z</time>
      </trkpt>
      <trkpt lat="49.29465" lon="-0.09011">
        <ele>4</ele>
        <time>2024-10-02T12:10:50Z</time>
      </trkpt>
      <trkpt lat="49.29467" lon="-0.09005">
        <ele>4.2</ele>
        <time>2024-10-02T12:10:51Z</time>
      </trkpt>
      <trkpt lat="49.29469" lon="-0.08999">
        <ele>4.2</ele>
        <time>2024-10-02T12:10:52Z</time>
      </trkpt>
      <trkpt lat="49.29472" lon="-0.08993">
        <ele>4.2</ele>
        <time>2024-10-02T12:10:53Z</time>
      </trkpt>
      <trkpt lat="49.29475" lon="-0.08986">
        <ele>4.2</ele>
        <time>2024-10-02T12:10:54Z</time>
      </trkpt>
      <trkpt lat="49.29477" lon="-0.08981">
        <ele>4.2</ele>
        <time>2024-10-02T12:10:55Z</time>
      </trkpt>
      <trkpt lat="49.29479" lon="-0.08974">
        <ele>4.2</ele>
        <time>2024-10-02T12:10:56Z</time>
      </trkpt>
      <trkpt lat="49.29482" lon="-0.08966">
        <ele>4</ele>
        <time>2024-10-02T12:10:57Z</time>
      </trkpt>
      <trkpt lat="49.29485" lon="-0.08958">
        <ele>4</ele>
        <time>2024-10-02T12:10:58Z</time>
      </trkpt>
      <trkpt lat="49.29487" lon="-0.08951">
        <ele>3.6</ele>
        <time>2024-10-02T12:10:59Z</time>
      </trkpt>
      <trkpt lat="49.29489" lon="-0.08945">
        <ele>3.4</ele>
        <time>2024-10-02T12:11:00Z</time>
      </trkpt>
      <trkpt lat="49.29492" lon="-0.08937">
        <ele>3</ele>
        <time>2024-10-02T12:11:01Z</time>
      </trkpt>
      <trkpt lat="49.29494" lon="-0.08929">
        <ele>2.8</ele>
        <time>2024-10-02T12:11:02Z</time>
      </trkpt>
      <trkpt lat="49.29497" lon="-0.08922">
        <ele>2.8</ele>
        <time>2024-10-02T12:11:03Z</time>
      </trkpt>
      <trkpt lat="49.29499" lon="-0.08914">
        <ele>2.8</ele>
        <time>2024-10-02T12:11:04Z</time>
      </trkpt>
      <trkpt lat="49.29502" lon="-0.08907">
        <ele>2.6</ele>
        <time>2024-10-02T12:11:05Z</time>
      </trkpt>
      <trkpt lat="49.29505" lon="-0.08899">
        <ele>2.6</ele>
        <time>2024-10-02T12:11:06Z</time>
      </trkpt>
      <trkpt lat="49.29508" lon="-0.08892">
        <ele>2.6</ele>
        <time>2024-10-02T12:11:07Z</time>
      </trkpt>
      <trkpt lat="49.29511" lon="-0.08884">
        <ele>2.6</ele>
        <time>2024-10-02T12:11:08Z</time>
      </trkpt>
      <trkpt lat="49.29515" lon="-0.08877">
        <ele>2.6</ele>
        <time>2024-10-02T12:11:09Z</time>
      </trkpt>
      <trkpt lat="49.29518" lon="-0.0887">
        <ele>2.6</ele>
        <time>2024-10-02T12:11:10Z</time>
      </trkpt>
      <trkpt lat="49.29522" lon="-0.08862">
        <ele>2.4</ele>
        <time>2024-10-02T12:11:11Z</time>
      </trkpt>
      <trkpt lat="49.29526" lon="-0.08856">
        <ele>2.4</ele>
        <time>2024-10-02T12:11:12Z</time>
      </trkpt>
      <trkpt lat="49.2953" lon="-0.08849">
        <ele>2.4</ele>
        <time>2024-10-02T12:11:13Z</time>
      </trkpt>
      <trkpt lat="49.29533" lon="-0.08842">
        <ele>2.4</ele>
        <time>2024-10-02T12:11:14Z</time>
      </trkpt>
      <trkpt lat="49.29537" lon="-0.08835">
        <ele>2.4</ele>
        <time>2024-10-02T12:11:15Z</time>
      </trkpt>
      <trkpt lat="49.29541" lon="-0.08828">
        <ele>2.2</ele>
        <time>2024-10-02T12:11:16Z</time>
      </trkpt>
      <trkpt lat="49.29545" lon="-0.08822">
        <ele>2.2</ele>
        <time>2024-10-02T12:11:17Z</time>
      </trkpt>
      <trkpt lat="49.29551" lon="-0.08815">
        <ele>2</ele>
        <time>2024-10-02T12:11:18Z</time>
      </trkpt>
      <trkpt lat="49.29555" lon="-0.08808">
        <ele>2</ele>
        <time>2024-10-02T12:11:19Z</time>
      </trkpt>
      <trkpt lat="49.29558" lon="-0.08803">
        <ele>2</ele>
        <time>2024-10-02T12:11:20Z</time>
      </trkpt>
      <trkpt lat="49.29562" lon="-0.08798">
        <ele>2</ele>
        <time>2024-10-02T12:11:21Z</time>
      </trkpt>
      <trkpt lat="49.29567" lon="-0.08792">
        <ele>2</ele>
        <time>2024-10-02T12:11:22Z</time>
      </trkpt>
      <trkpt lat="49.29571" lon="-0.08787">
        <ele>2</ele>
        <time>2024-10-02T12:11:23Z</time>
      </trkpt>
      <trkpt lat="49.29576" lon="-0.08782">
        <ele>2</ele>
        <time>2024-10-02T12:11:24Z</time>
      </trkpt>
      <trkpt lat="49.29581" lon="-0.08777">
        <ele>2</ele>
        <time>2024-10-02T12:11:25Z</time>
      </trkpt>
      <trkpt lat="49.29586" lon="-0.08772">
        <ele>2</ele>
        <time>2024-10-02T12:11:26Z</time>
      </trkpt>
      <trkpt lat="49.29591" lon="-0.08767">
        <ele>2</ele>
        <time>2024-10-02T12:11:27Z</time>
      </trkpt>
      <trkpt lat="49.29596" lon="-0.08763">
        <ele>2</ele>
        <time>2024-10-02T12:11:28Z</time>
      </trkpt>
      <trkpt lat="49.29601" lon="-0.08758">
        <ele>2</ele>
        <time>2024-10-02T12:11:29Z</time>
      </trkpt>
      <trkpt lat="49.29607" lon="-0.08754">
        <ele>2</ele>
        <time>2024-10-02T12:11:30Z</time>
      </trkpt>
      <trkpt lat="49.29612" lon="-0.0875">
        <ele>2</ele>
        <time>2024-10-02T12:11:31Z</time>
      </trkpt>
      <trkpt lat="49.29618" lon="-0.08746">
        <ele>2</ele>
        <time>2024-10-02T12:11:32Z</time>
      </trkpt>
      <trkpt lat="49.29623" lon="-0.08742">
        <ele>2.2</ele>
        <time>2024-10-02T12:11:33Z</time>
      </trkpt>
      <trkpt lat="49.29628" lon="-0.08738">
        <ele>2.2</ele>
        <time>2024-10-02T12:11:34Z</time>
      </trkpt>
      <trkpt lat="49.29633" lon="-0.08733">
        <ele>2.2</ele>
        <time>2024-10-02T12:11:35Z</time>
      </trkpt>
      <trkpt lat="49.29638" lon="-0.08729">
        <ele>2.4</ele>
        <time>2024-10-02T12:11:36Z</time>
      </trkpt>
      <trkpt lat="49.29643" lon="-0.08725">
        <ele>2.4</ele>
        <time>2024-10-02T12:11:37Z</time>
      </trkpt>
      <trkpt lat="49.29648" lon="-0.08721">
        <ele>2.4</ele>
        <time>2024-10-02T12:11:38Z</time>
      </trkpt>
      <trkpt lat="49.29654" lon="-0.08716">
        <ele>2.4</ele>
        <time>2024-10-02T12:11:39Z</time>
      </trkpt>
      <trkpt lat="49.29659" lon="-0.08712">
        <ele>2.4</ele>
        <time>2024-10-02T12:11:40Z</time>
      </trkpt>
      <trkpt lat="49.29664" lon="-0.08708">
        <ele>2.4</ele>
        <time>2024-10-02T12:11:41Z</time>
      </trkpt>
      <trkpt lat="49.2967" lon="-0.08704">
        <ele>2.4</ele>
        <time>2024-10-02T12:11:42Z</time>
      </trkpt>
      <trkpt lat="49.29675" lon="-0.087">
        <ele>2.4</ele>
        <time>2024-10-02T12:11:43Z</time>
      </trkpt>
      <trkpt lat="49.29681" lon="-0.08695">
        <ele>2.4</ele>
        <time>2024-10-02T12:11:44Z</time>
      </trkpt>
      <trkpt lat="49.29686" lon="-0.08691">
        <ele>2.4</ele>
        <time>2024-10-02T12:11:45Z</time>
      </trkpt>
      <trkpt lat="49.29692" lon="-0.08686">
        <ele>2.4</ele>
        <time>2024-10-02T12:11:46Z</time>
      </trkpt>
      <trkpt lat="49.29697" lon="-0.08682">
        <ele>2.4</ele>
        <time>2024-10-02T12:11:47Z</time>
      </trkpt>
      <trkpt lat="49.29702" lon="-0.08678">
        <ele>2.4</ele>
        <time>2024-10-02T12:11:48Z</time>
      </trkpt>
      <trkpt lat="49.29707" lon="-0.08673">
        <ele>2.4</ele>
        <time>2024-10-02T12:11:49Z</time>
      </trkpt>
      <trkpt lat="49.29713" lon="-0.08669">
        <ele>2.4</ele>
        <time>2024-10-02T12:11:50Z</time>
      </trkpt>
      <trkpt lat="49.29717" lon="-0.08664">
        <ele>2.4</ele>
        <time>2024-10-02T12:11:51Z</time>
      </trkpt>
      <trkpt lat="49.29722" lon="-0.08659">
        <ele>2.4</ele>
        <time>2024-10-02T12:11:52Z</time>
      </trkpt>
      <trkpt lat="49.29728" lon="-0.08654">
        <ele>2.4</ele>
        <time>2024-10-02T12:11:53Z</time>
      </trkpt>
      <trkpt lat="49.29733" lon="-0.0865">
        <ele>2.4</ele>
        <time>2024-10-02T12:11:54Z</time>
      </trkpt>
      <trkpt lat="49.29738" lon="-0.08645">
        <ele>2.4</ele>
        <time>2024-10-02T12:11:55Z</time>
      </trkpt>
      <trkpt lat="49.29743" lon="-0.0864">
        <ele>2.4</ele>
        <time>2024-10-02T12:11:56Z</time>
      </trkpt>
      <trkpt lat="49.29748" lon="-0.08635">
        <ele>2.4</ele>
        <time>2024-10-02T12:11:57Z</time>
      </trkpt>
      <trkpt lat="49.29753" lon="-0.0863">
        <ele>2.2</ele>
        <time>2024-10-02T12:11:58Z</time>
      </trkpt>
      <trkpt lat="49.29757" lon="-0.08625">
        <ele>2.2</ele>
        <time>2024-10-02T12:11:59Z</time>
      </trkpt>
      <trkpt lat="49.29762" lon="-0.0862">
        <ele>2.4</ele>
        <time>2024-10-02T12:12:00Z</time>
      </trkpt>
      <trkpt lat="49.29767" lon="-0.08615">
        <ele>2.4</ele>
        <time>2024-10-02T12:12:01Z</time>
      </trkpt>
      <trkpt lat="49.29772" lon="-0.0861">
        <ele>2.4</ele>
        <time>2024-10-02T12:12:02Z</time>
      </trkpt>
      <trkpt lat="49.29777" lon="-0.08605">
        <ele>2.4</ele>
        <time>2024-10-02T12:12:03Z</time>
      </trkpt>
      <trkpt lat="49.29782" lon="-0.086">
        <ele>2.4</ele>
        <time>2024-10-02T12:12:04Z</time>
      </trkpt>
      <trkpt lat="49.29787" lon="-0.08595">
        <ele>2.4</ele>
        <time>2024-10-02T12:12:05Z</time>
      </trkpt>
      <trkpt lat="49.29792" lon="-0.08591">
        <ele>2.4</ele>
        <time>2024-10-02T12:12:06Z</time>
      </trkpt>
      <trkpt lat="49.29797" lon="-0.08586">
        <ele>2.4</ele>
        <time>2024-10-02T12:12:07Z</time>
      </trkpt>
      <trkpt lat="49.29802" lon="-0.08581">
        <ele>2.2</ele>
        <time>2024-10-02T12:12:08Z</time>
      </trkpt>
      <trkpt lat="49.29807" lon="-0.08576">
        <ele>2.2</ele>
        <time>2024-10-02T12:12:09Z</time>
      </trkpt>
      <trkpt lat="49.29812" lon="-0.08571">
        <ele>2.2</ele>
        <time>2024-10-02T12:12:10Z</time>
      </trkpt>
      <trkpt lat="49.29818" lon="-0.08566">
        <ele>2.2</ele>
        <time>2024-10-02T12:12:11Z</time>
      </trkpt>
      <trkpt lat="49.29823" lon="-0.08561">
        <ele>2.2</ele>
        <time>2024-10-02T12:12:12Z</time>
      </trkpt>
      <trkpt lat="49.29828" lon="-0.08556">
        <ele>2.4</ele>
        <time>2024-10-02T12:12:13Z</time>
      </trkpt>
      <trkpt lat="49.29832" lon="-0.08552">
        <ele>2.4</ele>
        <time>2024-10-02T12:12:14Z</time>
      </trkpt>
      <trkpt lat="49.29837" lon="-0.08547">
        <ele>2.4</ele>
        <time>2024-10-02T12:12:15Z</time>
      </trkpt>
      <trkpt lat="49.29842" lon="-0.08542">
        <ele>2.4</ele>
        <time>2024-10-02T12:12:16Z</time>
      </trkpt>
      <trkpt lat="49.29847" lon="-0.08538">
        <ele>2.4</ele>
        <time>2024-10-02T12:12:17Z</time>
      </trkpt>
      <trkpt lat="49.29852" lon="-0.08533">
        <ele>2.4</ele>
        <time>2024-10-02T12:12:18Z</time>
      </trkpt>
      <trkpt lat="49.29856" lon="-0.08528">
        <ele>2.4</ele>
        <time>2024-10-02T12:12:19Z</time>
      </trkpt>
      <trkpt lat="49.29861" lon="-0.08523">
        <ele>2.6</ele>
        <time>2024-10-02T12:12:20Z</time>
      </trkpt>
      <trkpt lat="49.29865" lon="-0.08519">
        <ele>2.6</ele>
        <time>2024-10-02T12:12:21Z</time>
      </trkpt>
      <trkpt lat="49.2987" lon="-0.08515">
        <ele>2.6</ele>
        <time>2024-10-02T12:12:22Z</time>
      </trkpt>
      <trkpt lat="49.29875" lon="-0.0851">
        <ele>2.6</ele>
        <time>2024-10-02T12:12:23Z</time>
      </trkpt>
      <trkpt lat="49.29879" lon="-0.08506">
        <ele>2.8</ele>
        <time>2024-10-02T12:12:24Z</time>
      </trkpt>
      <trkpt lat="49.29883" lon="-0.08502">
        <ele>2.8</ele>
        <time>2024-10-02T12:12:25Z</time>
      </trkpt>
      <trkpt lat="49.29887" lon="-0.08498">
        <ele>3</ele>
        <time>2024-10-02T12:12:26Z</time>
      </trkpt>
      <trkpt lat="49.29891" lon="-0.08494">
        <ele>3</ele>
        <time>2024-10-02T12:12:27Z</time>
      </trkpt>
      <trkpt lat="49.29895" lon="-0.0849">
        <ele>3</ele>
        <time>2024-10-02T12:12:28Z</time>
      </trkpt>
      <trkpt lat="49.29899" lon="-0.08486">
        <ele>3</ele>
        <time>2024-10-02T12:12:29Z</time>
      </trkpt>
      <trkpt lat="49.29903" lon="-0.08482">
        <ele>3.2</ele>
        <time>2024-10-02T12:12:30Z</time>
      </trkpt>
      <trkpt lat="49.29907" lon="-0.08478">
        <ele>3.2</ele>
        <time>2024-10-02T12:12:31Z</time>
      </trkpt>
      <trkpt lat="49.29911" lon="-0.08474">
        <ele>3.4</ele>
        <time>2024-10-02T12:12:32Z</time>
      </trkpt>
      <trkpt lat="49.29916" lon="-0.08469">
        <ele>3.4</ele>
        <time>2024-10-02T12:12:33Z</time>
      </trkpt>
      <trkpt lat="49.2992" lon="-0.08463">
        <ele>3.6</ele>
        <time>2024-10-02T12:12:34Z</time>
      </trkpt>
      <trkpt lat="49.29924" lon="-0.08458">
        <ele>3.6</ele>
        <time>2024-10-02T12:12:35Z</time>
      </trkpt>
      <trkpt lat="49.29928" lon="-0.08452">
        <ele>3.6</ele>
        <time>2024-10-02T12:12:36Z</time>
      </trkpt>
      <trkpt lat="49.29932" lon="-0.08447">
        <ele>3.6</ele>
        <time>2024-10-02T12:12:37Z</time>
      </trkpt>
      <trkpt lat="49.29936" lon="-0.08443">
        <ele>3.6</ele>
        <time>2024-10-02T12:12:38Z</time>
      </trkpt>
      <trkpt lat="49.29939" lon="-0.08438">
        <ele>3.6</ele>
        <time>2024-10-02T12:12:39Z</time>
      </trkpt>
      <trkpt lat="49.29943" lon="-0.08433">
        <ele>3.8</ele>
        <time>2024-10-02T12:12:40Z</time>
      </trkpt>
      <trkpt lat="49.29946" lon="-0.0843">
        <ele>4</ele>
        <time>2024-10-02T12:12:41Z</time>
      </trkpt>
      <trkpt lat="49.29949" lon="-0.08426">
        <ele>4.2</ele>
        <time>2024-10-02T12:12:42Z</time>
      </trkpt>
      <trkpt lat="49.29951" lon="-0.08424">
        <ele>4.2</ele>
        <time>2024-10-02T12:12:43Z</time>
      </trkpt>
      <trkpt lat="49.29953" lon="-0.08422">
        <ele>4.4</ele>
        <time>2024-10-02T12:12:44Z</time>
      </trkpt>
      <trkpt lat="49.29954" lon="-0.0842">
        <ele>4.4</ele>
        <time>2024-10-02T12:12:45Z</time>
      </trkpt>
      <trkpt lat="49.29956" lon="-0.08418">
        <ele>4.4</ele>
        <time>2024-10-02T12:12:46Z</time>
      </trkpt>
      <trkpt lat="49.29957" lon="-0.08416">
        <ele>4.6</ele>
        <time>2024-10-02T12:12:47Z</time>
      </trkpt>
      <trkpt lat="49.29958" lon="-0.08415">
        <ele>4.6</ele>
        <time>2024-10-02T12:12:48Z</time>
      </trkpt>
      <trkpt lat="49.29959" lon="-0.08413">
        <ele>4.8</ele>
        <time>2024-10-02T12:12:49Z</time>
      </trkpt>
      <trkpt lat="49.29959" lon="-0.08412">
        <ele>4.8</ele>
        <time>2024-10-02T12:12:50Z</time>
      </trkpt>
      <trkpt lat="49.29959" lon="-0.08412">
        <ele>5</ele>
        <time>2024-10-02T12:12:51Z</time>
      </trkpt>
      <trkpt lat="49.2996" lon="-0.08405">
        <ele>5.4</ele>
        <time>2024-10-02T12:13:20Z</time>
      </trkpt>
      <trkpt lat="49.29961" lon="-0.08401">
        <ele>5</ele>
        <time>2024-10-02T12:13:21Z</time>
      </trkpt>
      <trkpt lat="49.29962" lon="-0.08397">
        <ele>5</ele>
        <time>2024-10-02T12:13:22Z</time>
      </trkpt>
      <trkpt lat="49.29963" lon="-0.08394">
        <ele>5</ele>
        <time>2024-10-02T12:13:23Z</time>
      </trkpt>
      <trkpt lat="49.29965" lon="-0.0839">
        <ele>5</ele>
        <time>2024-10-02T12:13:24Z</time>
      </trkpt>
      <trkpt lat="49.29967" lon="-0.08387">
        <ele>5</ele>
        <time>2024-10-02T12:13:25Z</time>
      </trkpt>
      <trkpt lat="49.2997" lon="-0.08384">
        <ele>5</ele>
        <time>2024-10-02T12:13:26Z</time>
      </trkpt>
      <trkpt lat="49.29974" lon="-0.0838">
        <ele>5</ele>
        <time>2024-10-02T12:13:27Z</time>
      </trkpt>
      <trkpt lat="49.29977" lon="-0.08378">
        <ele>5.2</ele>
        <time>2024-10-02T12:13:28Z</time>
      </trkpt>
      <trkpt lat="49.29981" lon="-0.08376">
        <ele>5.2</ele>
        <time>2024-10-02T12:13:29Z</time>
      </trkpt>
      <trkpt lat="49.29986" lon="-0.08373">
        <ele>5.2</ele>
        <time>2024-10-02T12:13:30Z</time>
      </trkpt>
      <trkpt lat="49.29991" lon="-0.0837">
        <ele>5.2</ele>
        <time>2024-10-02T12:13:31Z</time>
      </trkpt>
      <trkpt lat="49.29994" lon="-0.08367">
        <ele>5.2</ele>
        <time>2024-10-02T12:13:32Z</time>
      </trkpt>
      <trkpt lat="49.29999" lon="-0.08363">
        <ele>5.2</ele>
        <time>2024-10-02T12:13:33Z</time>
      </trkpt>
      <trkpt lat="49.30003" lon="-0.08359">
        <ele>5.2</ele>
        <time>2024-10-02T12:13:34Z</time>
      </trkpt>
      <trkpt lat="49.30008" lon="-0.08355">
        <ele>5.2</ele>
        <time>2024-10-02T12:13:35Z</time>
      </trkpt>
      <trkpt lat="49.30013" lon="-0.0835">
        <ele>5.2</ele>
        <time>2024-10-02T12:13:36Z</time>
      </trkpt>
      <trkpt lat="49.30018" lon="-0.08345">
        <ele>5.2</ele>
        <time>2024-10-02T12:13:37Z</time>
      </trkpt>
      <trkpt lat="49.30023" lon="-0.0834">
        <ele>5</ele>
        <time>2024-10-02T12:13:38Z</time>
      </trkpt>
      <trkpt lat="49.30027" lon="-0.08335">
        <ele>5</ele>
        <time>2024-10-02T12:13:39Z</time>
      </trkpt>
      <trkpt lat="49.30032" lon="-0.0833">
        <ele>5</ele>
        <time>2024-10-02T12:13:40Z</time>
      </trkpt>
      <trkpt lat="49.30037" lon="-0.08324">
        <ele>5</ele>
        <time>2024-10-02T12:13:41Z</time>
      </trkpt>
      <trkpt lat="49.30043" lon="-0.08319">
        <ele>4.8</ele>
        <time>2024-10-02T12:13:42Z</time>
      </trkpt>
      <trkpt lat="49.30048" lon="-0.08314">
        <ele>4.4</ele>
        <time>2024-10-02T12:13:43Z</time>
      </trkpt>
      <trkpt lat="49.30053" lon="-0.08308">
        <ele>4.2</ele>
        <time>2024-10-02T12:13:44Z</time>
      </trkpt>
      <trkpt lat="49.30058" lon="-0.08304">
        <ele>4.4</ele>
        <time>2024-10-02T12:13:45Z</time>
      </trkpt>
      <trkpt lat="49.30062" lon="-0.08299">
        <ele>4</ele>
        <time>2024-10-02T12:13:46Z</time>
      </trkpt>
      <trkpt lat="49.30067" lon="-0.08295">
        <ele>4</ele>
        <time>2024-10-02T12:13:47Z</time>
      </trkpt>
      <trkpt lat="49.30069" lon="-0.08289">
        <ele>4.2</ele>
        <time>2024-10-02T12:13:48Z</time>
      </trkpt>
      <trkpt lat="49.30069" lon="-0.08282">
        <ele>4.2</ele>
        <time>2024-10-02T12:13:49Z</time>
      </trkpt>
      <trkpt lat="49.30067" lon="-0.08276">
        <ele>4.2</ele>
        <time>2024-10-02T12:13:50Z</time>
      </trkpt>
      <trkpt lat="49.30065" lon="-0.0827">
        <ele>4.2</ele>
        <time>2024-10-02T12:13:51Z</time>
      </trkpt>
      <trkpt lat="49.30062" lon="-0.08262">
        <ele>4.2</ele>
        <time>2024-10-02T12:13:52Z</time>
      </trkpt>
      <trkpt lat="49.3006" lon="-0.08256">
        <ele>4</ele>
        <time>2024-10-02T12:13:53Z</time>
      </trkpt>
      <trkpt lat="49.30057" lon="-0.08249">
        <ele>4</ele>
        <time>2024-10-02T12:13:54Z</time>
      </trkpt>
      <trkpt lat="49.30054" lon="-0.08242">
        <ele>4.2</ele>
        <time>2024-10-02T12:13:55Z</time>
      </trkpt>
      <trkpt lat="49.30051" lon="-0.08234">
        <ele>4.2</ele>
        <time>2024-10-02T12:13:56Z</time>
      </trkpt>
      <trkpt lat="49.30048" lon="-0.08226">
        <ele>4.2</ele>
        <time>2024-10-02T12:13:57Z</time>
      </trkpt>
      <trkpt lat="49.30045" lon="-0.08218">
        <ele>4.2</ele>
        <time>2024-10-02T12:13:58Z</time>
      </trkpt>
      <trkpt lat="49.30043" lon="-0.0821">
        <ele>4.2</ele>
        <time>2024-10-02T12:13:59Z</time>
      </trkpt>
      <trkpt lat="49.3004" lon="-0.08201">
        <ele>4.4</ele>
        <time>2024-10-02T12:14:00Z</time>
      </trkpt>
      <trkpt lat="49.30037" lon="-0.08192">
        <ele>4.4</ele>
        <time>2024-10-02T12:14:01Z</time>
      </trkpt>
      <trkpt lat="49.30034" lon="-0.08183">
        <ele>4.6</ele>
        <time>2024-10-02T12:14:02Z</time>
      </trkpt>
      <trkpt lat="49.30032" lon="-0.08173">
        <ele>4.6</ele>
        <time>2024-10-02T12:14:03Z</time>
      </trkpt>
      <trkpt lat="49.30029" lon="-0.08163">
        <ele>4.6</ele>
        <time>2024-10-02T12:14:04Z</time>
      </trkpt>
      <trkpt lat="49.30025" lon="-0.08154">
        <ele>4.6</ele>
        <time>2024-10-02T12:14:05Z</time>
      </trkpt>
      <trkpt lat="49.30022" lon="-0.08146">
        <ele>4.6</ele>
        <time>2024-10-02T12:14:06Z</time>
      </trkpt>
      <trkpt lat="49.30018" lon="-0.08138">
        <ele>4.8</ele>
        <time>2024-10-02T12:14:07Z</time>
      </trkpt>
      <trkpt lat="49.30015" lon="-0.08129">
        <ele>4.8</ele>
        <time>2024-10-02T12:14:08Z</time>
      </trkpt>
      <trkpt lat="49.30011" lon="-0.08118">
        <ele>5</ele>
        <time>2024-10-02T12:14:09Z</time>
      </trkpt>
      <trkpt lat="49.30009" lon="-0.08112">
        <ele>5</ele>
        <time>2024-10-02T12:14:10Z</time>
      </trkpt>
      <trkpt lat="49.30006" lon="-0.08103">
        <ele>5</ele>
        <time>2024-10-02T12:14:11Z</time>
      </trkpt>
      <trkpt lat="49.30003" lon="-0.08095">
        <ele>5</ele>
        <time>2024-10-02T12:14:12Z</time>
      </trkpt>
      <trkpt lat="49.3" lon="-0.08088">
        <ele>5.2</ele>
        <time>2024-10-02T12:14:13Z</time>
      </trkpt>
      <trkpt lat="49.29998" lon="-0.08082">
        <ele>5.2</ele>
        <time>2024-10-02T12:14:14Z</time>
      </trkpt>
      <trkpt lat="49.29996" lon="-0.08077">
        <ele>5.2</ele>
        <time>2024-10-02T12:14:15Z</time>
      </trkpt>
      <trkpt lat="49.29994" lon="-0.08072">
        <ele>5.2</ele>
        <time>2024-10-02T12:14:16Z</time>
      </trkpt>
      <trkpt lat="49.29993" lon="-0.08069">
        <ele>5.2</ele>
        <time>2024-10-02T12:14:17Z</time>
      </trkpt>
      <trkpt lat="49.29994" lon="-0.08064">
        <ele>5.4</ele>
        <time>2024-10-02T12:14:18Z</time>
      </trkpt>
      <trkpt lat="49.29995" lon="-0.08058">
        <ele>5.4</ele>
        <time>2024-10-02T12:14:19Z</time>
      </trkpt>
      <trkpt lat="49.29997" lon="-0.08055">
        <ele>5.6</ele>
        <time>2024-10-02T12:14:20Z</time>
      </trkpt>
      <trkpt lat="49.3" lon="-0.08051">
        <ele>5.6</ele>
        <time>2024-10-02T12:14:21Z</time>
      </trkpt>
      <trkpt lat="49.30004" lon="-0.08047">
        <ele>5.6</ele>
        <time>2024-10-02T12:14:22Z</time>
      </trkpt>
      <trkpt lat="49.30009" lon="-0.08043">
        <ele>5.6</ele>
        <time>2024-10-02T12:14:23Z</time>
      </trkpt>
      <trkpt lat="49.30014" lon="-0.08038">
        <ele>5.8</ele>
        <time>2024-10-02T12:14:24Z</time>
      </trkpt>
      <trkpt lat="49.3002" lon="-0.08032">
        <ele>5.8</ele>
        <time>2024-10-02T12:14:25Z</time>
      </trkpt>
      <trkpt lat="49.30025" lon="-0.08027">
        <ele>5.8</ele>
        <time>2024-10-02T12:14:26Z</time>
      </trkpt>
      <trkpt lat="49.30031" lon="-0.08021">
        <ele>5.8</ele>
        <time>2024-10-02T12:14:27Z</time>
      </trkpt>
      <trkpt lat="49.30036" lon="-0.08015">
        <ele>5.8</ele>
        <time>2024-10-02T12:14:28Z</time>
      </trkpt>
      <trkpt lat="49.30039" lon="-0.08007">
        <ele>5.8</ele>
        <time>2024-10-02T12:14:29Z</time>
      </trkpt>
      <trkpt lat="49.3004" lon="-0.07998">
        <ele>5.8</ele>
        <time>2024-10-02T12:14:30Z</time>
      </trkpt>
      <trkpt lat="49.30039" lon="-0.07987">
        <ele>5.8</ele>
        <time>2024-10-02T12:14:31Z</time>
      </trkpt>
      <trkpt lat="49.30038" lon="-0.0798">
        <ele>5.8</ele>
        <time>2024-10-02T12:14:32Z</time>
      </trkpt>
      <trkpt lat="49.30036" lon="-0.07972">
        <ele>5.8</ele>
        <time>2024-10-02T12:14:33Z</time>
      </trkpt>
      <trkpt lat="49.30034" lon="-0.07964">
        <ele>5.8</ele>
        <time>2024-10-02T12:14:34Z</time>
      </trkpt>
      <trkpt lat="49.30032" lon="-0.07956">
        <ele>5.8</ele>
        <time>2024-10-02T12:14:35Z</time>
      </trkpt>
      <trkpt lat="49.3003" lon="-0.07948">
        <ele>5.8</ele>
        <time>2024-10-02T12:14:36Z</time>
      </trkpt>
      <trkpt lat="49.30027" lon="-0.0794">
        <ele>5.8</ele>
        <time>2024-10-02T12:14:37Z</time>
      </trkpt>
      <trkpt lat="49.30024" lon="-0.07932">
        <ele>5.8</ele>
        <time>2024-10-02T12:14:38Z</time>
      </trkpt>
      <trkpt lat="49.30022" lon="-0.07924">
        <ele>5.8</ele>
        <time>2024-10-02T12:14:39Z</time>
      </trkpt>
      <trkpt lat="49.3002" lon="-0.07916">
        <ele>5.8</ele>
        <time>2024-10-02T12:14:40Z</time>
      </trkpt>
      <trkpt lat="49.30018" lon="-0.07908">
        <ele>5.8</ele>
        <time>2024-10-02T12:14:41Z</time>
      </trkpt>
      <trkpt lat="49.30016" lon="-0.079">
        <ele>5.8</ele>
        <time>2024-10-02T12:14:42Z</time>
      </trkpt>
      <trkpt lat="49.30013" lon="-0.07892">
        <ele>6</ele>
        <time>2024-10-02T12:14:43Z</time>
      </trkpt>
      <trkpt lat="49.30011" lon="-0.07884">
        <ele>6.2</ele>
        <time>2024-10-02T12:14:44Z</time>
      </trkpt>
      <trkpt lat="49.30009" lon="-0.07876">
        <ele>6.4</ele>
        <time>2024-10-02T12:14:45Z</time>
      </trkpt>
      <trkpt lat="49.30007" lon="-0.07869">
        <ele>6.6</ele>
        <time>2024-10-02T12:14:46Z</time>
      </trkpt>
      <trkpt lat="49.30004" lon="-0.07861">
        <ele>6.8</ele>
        <time>2024-10-02T12:14:47Z</time>
      </trkpt>
      <trkpt lat="49.30002" lon="-0.07854">
        <ele>7</ele>
        <time>2024-10-02T12:14:48Z</time>
      </trkpt>
      <trkpt lat="49.29999" lon="-0.07846">
        <ele>7.2</ele>
        <time>2024-10-02T12:14:49Z</time>
      </trkpt>
      <trkpt lat="49.29997" lon="-0.07838">
        <ele>7.4</ele>
        <time>2024-10-02T12:14:50Z</time>
      </trkpt>
      <trkpt lat="49.29994" lon="-0.07831">
        <ele>7.6</ele>
        <time>2024-10-02T12:14:51Z</time>
      </trkpt>
      <trkpt lat="49.29991" lon="-0.07823">
        <ele>7.8</ele>
        <time>2024-10-02T12:14:52Z</time>
      </trkpt>
      <trkpt lat="49.29988" lon="-0.07816">
        <ele>7.8</ele>
        <time>2024-10-02T12:14:53Z</time>
      </trkpt>
      <trkpt lat="49.29985" lon="-0.07808">
        <ele>7.8</ele>
        <time>2024-10-02T12:14:54Z</time>
      </trkpt>
      <trkpt lat="49.29981" lon="-0.07801">
        <ele>8.2</ele>
        <time>2024-10-02T12:14:55Z</time>
      </trkpt>
      <trkpt lat="49.29978" lon="-0.07794">
        <ele>8.4</ele>
        <time>2024-10-02T12:14:56Z</time>
      </trkpt>
      <trkpt lat="49.29974" lon="-0.07786">
        <ele>8.6</ele>
        <time>2024-10-02T12:14:57Z</time>
      </trkpt>
      <trkpt lat="49.29971" lon="-0.07778">
        <ele>8.8</ele>
        <time>2024-10-02T12:14:58Z</time>
      </trkpt>
      <trkpt lat="49.29968" lon="-0.07772">
        <ele>8.8</ele>
        <time>2024-10-02T12:14:59Z</time>
      </trkpt>
      <trkpt lat="49.29965" lon="-0.07764">
        <ele>9</ele>
        <time>2024-10-02T12:15:00Z</time>
      </trkpt>
      <trkpt lat="49.29962" lon="-0.07756">
        <ele>9.2</ele>
        <time>2024-10-02T12:15:01Z</time>
      </trkpt>
      <trkpt lat="49.29959" lon="-0.07747">
        <ele>9.4</ele>
        <time>2024-10-02T12:15:02Z</time>
      </trkpt>
      <trkpt lat="49.29955" lon="-0.0774">
        <ele>9.4</ele>
        <time>2024-10-02T12:15:03Z</time>
      </trkpt>
      <trkpt lat="49.29953" lon="-0.07734">
        <ele>9.4</ele>
        <time>2024-10-02T12:15:04Z</time>
      </trkpt>
      <trkpt lat="49.29948" lon="-0.07727">
        <ele>9.4</ele>
        <time>2024-10-02T12:15:05Z</time>
      </trkpt>
      <trkpt lat="49.29946" lon="-0.07722">
        <ele>9.4</ele>
        <time>2024-10-02T12:15:06Z</time>
      </trkpt>
      <trkpt lat="49.29943" lon="-0.07717">
        <ele>9.4</ele>
        <time>2024-10-02T12:15:07Z</time>
      </trkpt>
      <trkpt lat="49.29939" lon="-0.07711">
        <ele>9.4</ele>
        <time>2024-10-02T12:15:08Z</time>
      </trkpt>
      <trkpt lat="49.29937" lon="-0.07707">
        <ele>9.4</ele>
        <time>2024-10-02T12:15:09Z</time>
      </trkpt>
      <trkpt lat="49.29934" lon="-0.077">
        <ele>9.4</ele>
        <time>2024-10-02T12:15:10Z</time>
      </trkpt>
      <trkpt lat="49.29932" lon="-0.07694">
        <ele>8.8</ele>
        <time>2024-10-02T12:15:11Z</time>
      </trkpt>
      <trkpt lat="49.29931" lon="-0.0769">
        <ele>8.8</ele>
        <time>2024-10-02T12:15:12Z</time>
      </trkpt>
      <trkpt lat="49.29929" lon="-0.07684">
        <ele>8.8</ele>
        <time>2024-10-02T12:15:13Z</time>
      </trkpt>
      <trkpt lat="49.29927" lon="-0.07677">
        <ele>8.6</ele>
        <time>2024-10-02T12:15:14Z</time>
      </trkpt>
      <trkpt lat="49.29924" lon="-0.07669">
        <ele>8.6</ele>
        <time>2024-10-02T12:15:15Z</time>
      </trkpt>
      <trkpt lat="49.29923" lon="-0.07663">
        <ele>8.6</ele>
        <time>2024-10-02T12:15:16Z</time>
      </trkpt>
      <trkpt lat="49.29922" lon="-0.07658">
        <ele>8.6</ele>
        <time>2024-10-02T12:15:17Z</time>
      </trkpt>
      <trkpt lat="49.29921" lon="-0.07652">
        <ele>8.6</ele>
        <time>2024-10-02T12:15:18Z</time>
      </trkpt>
      <trkpt lat="49.29919" lon="-0.07646">
        <ele>8.6</ele>
        <time>2024-10-02T12:15:19Z</time>
      </trkpt>
      <trkpt lat="49.29918" lon="-0.07641">
        <ele>8.6</ele>
        <time>2024-10-02T12:15:20Z</time>
      </trkpt>
      <trkpt lat="49.29916" lon="-0.07636">
        <ele>8.6</ele>
        <time>2024-10-02T12:15:21Z</time>
      </trkpt>
      <trkpt lat="49.29915" lon="-0.07632">
        <ele>8.8</ele>
        <time>2024-10-02T12:15:22Z</time>
      </trkpt>
      <trkpt lat="49.29913" lon="-0.0763">
        <ele>8.8</ele>
        <time>2024-10-02T12:15:23Z</time>
      </trkpt>
      <trkpt lat="49.29911" lon="-0.07629">
        <ele>8.8</ele>
        <time>2024-10-02T12:15:24Z</time>
      </trkpt>
      <trkpt lat="49.29907" lon="-0.07628">
        <ele>8.8</ele>
        <time>2024-10-02T12:15:25Z</time>
      </trkpt>
      <trkpt lat="49.29903" lon="-0.07629">
        <ele>8.8</ele>
        <time>2024-10-02T12:15:26Z</time>
      </trkpt>
      <trkpt lat="49.29898" lon="-0.0763">
        <ele>8.6</ele>
        <time>2024-10-02T12:15:27Z</time>
      </trkpt>
      <trkpt lat="49.29894" lon="-0.07632">
        <ele>8.6</ele>
        <time>2024-10-02T12:15:28Z</time>
      </trkpt>
      <trkpt lat="49.29889" lon="-0.07633">
        <ele>9</ele>
        <time>2024-10-02T12:15:29Z</time>
      </trkpt>
      <trkpt lat="49.29885" lon="-0.07632">
        <ele>9</ele>
        <time>2024-10-02T12:15:30Z</time>
      </trkpt>
      <trkpt lat="49.2988" lon="-0.07627">
        <ele>9.4</ele>
        <time>2024-10-02T12:15:31Z</time>
      </trkpt>
      <trkpt lat="49.29877" lon="-0.0762">
        <ele>9.4</ele>
        <time>2024-10-02T12:15:32Z</time>
      </trkpt>
      <trkpt lat="49.29874" lon="-0.07612">
        <ele>9.2</ele>
        <time>2024-10-02T12:15:33Z</time>
      </trkpt>
      <trkpt lat="49.29872" lon="-0.07603">
        <ele>9.4</ele>
        <time>2024-10-02T12:15:34Z</time>
      </trkpt>
      <trkpt lat="49.2987" lon="-0.07595">
        <ele>9.4</ele>
        <time>2024-10-02T12:15:35Z</time>
      </trkpt>
      <trkpt lat="49.29868" lon="-0.07586">
        <ele>9.4</ele>
        <time>2024-10-02T12:15:36Z</time>
      </trkpt>
      <trkpt lat="49.29865" lon="-0.07577">
        <ele>9.4</ele>
        <time>2024-10-02T12:15:37Z</time>
      </trkpt>
      <trkpt lat="49.29863" lon="-0.07568">
        <ele>9.4</ele>
        <time>2024-10-02T12:15:38Z</time>
      </trkpt>
      <trkpt lat="49.29861" lon="-0.07559">
        <ele>9.4</ele>
        <time>2024-10-02T12:15:39Z</time>
      </trkpt>
      <trkpt lat="49.29859" lon="-0.0755">
        <ele>9.4</ele>
        <time>2024-10-02T12:15:40Z</time>
      </trkpt>
      <trkpt lat="49.29856" lon="-0.07541">
        <ele>9.4</ele>
        <time>2024-10-02T12:15:41Z</time>
      </trkpt>
      <trkpt lat="49.29854" lon="-0.07533">
        <ele>9.2</ele>
        <time>2024-10-02T12:15:42Z</time>
      </trkpt>
      <trkpt lat="49.29852" lon="-0.07522">
        <ele>9</ele>
        <time>2024-10-02T12:15:43Z</time>
      </trkpt>
      <trkpt lat="49.29849" lon="-0.07513">
        <ele>9</ele>
        <time>2024-10-02T12:15:44Z</time>
      </trkpt>
      <trkpt lat="49.29847" lon="-0.07503">
        <ele>9</ele>
        <time>2024-10-02T12:15:45Z</time>
      </trkpt>
      <trkpt lat="49.29844" lon="-0.07493">
        <ele>9</ele>
        <time>2024-10-02T12:15:46Z</time>
      </trkpt>
      <trkpt lat="49.29842" lon="-0.07484">
        <ele>8.8</ele>
        <time>2024-10-02T12:15:47Z</time>
      </trkpt>
      <trkpt lat="49.2984" lon="-0.07474">
        <ele>8.8</ele>
        <time>2024-10-02T12:15:48Z</time>
      </trkpt>
      <trkpt lat="49.29838" lon="-0.07465">
        <ele>8.8</ele>
        <time>2024-10-02T12:15:49Z</time>
      </trkpt>
      <trkpt lat="49.29836" lon="-0.07457">
        <ele>8.8</ele>
        <time>2024-10-02T12:15:50Z</time>
      </trkpt>
      <trkpt lat="49.29833" lon="-0.07449">
        <ele>8.8</ele>
        <time>2024-10-02T12:15:51Z</time>
      </trkpt>
      <trkpt lat="49.29829" lon="-0.07438">
        <ele>8.8</ele>
        <time>2024-10-02T12:15:52Z</time>
      </trkpt>
      <trkpt lat="49.29826" lon="-0.07432">
        <ele>8.8</ele>
        <time>2024-10-02T12:15:53Z</time>
      </trkpt>
      <trkpt lat="49.29821" lon="-0.07424">
        <ele>9</ele>
        <time>2024-10-02T12:15:54Z</time>
      </trkpt>
      <trkpt lat="49.29816" lon="-0.07417">
        <ele>9</ele>
        <time>2024-10-02T12:15:55Z</time>
      </trkpt>
      <trkpt lat="49.29811" lon="-0.0741">
        <ele>9</ele>
        <time>2024-10-02T12:15:56Z</time>
      </trkpt>
      <trkpt lat="49.29806" lon="-0.07403">
        <ele>9.2</ele>
        <time>2024-10-02T12:15:57Z</time>
      </trkpt>
      <trkpt lat="49.29801" lon="-0.07396">
        <ele>9.4</ele>
        <time>2024-10-02T12:15:58Z</time>
      </trkpt>
      <trkpt lat="49.29796" lon="-0.07389">
        <ele>9.6</ele>
        <time>2024-10-02T12:15:59Z</time>
      </trkpt>
      <trkpt lat="49.29792" lon="-0.07382">
        <ele>9.8</ele>
        <time>2024-10-02T12:16:00Z</time>
      </trkpt>
      <trkpt lat="49.29788" lon="-0.07374">
        <ele>9.8</ele>
        <time>2024-10-02T12:16:01Z</time>
      </trkpt>
      <trkpt lat="49.29784" lon="-0.07366">
        <ele>10</ele>
        <time>2024-10-02T12:16:02Z</time>
      </trkpt>
      <trkpt lat="49.29781" lon="-0.07358">
        <ele>10</ele>
        <time>2024-10-02T12:16:03Z</time>
      </trkpt>
      <trkpt lat="49.29777" lon="-0.0735">
        <ele>10.2</ele>
        <time>2024-10-02T12:16:04Z</time>
      </trkpt>
      <trkpt lat="49.29774" lon="-0.07341">
        <ele>10.2</ele>
        <time>2024-10-02T12:16:05Z</time>
      </trkpt>
      <trkpt lat="49.29771" lon="-0.07332">
        <ele>10.4</ele>
        <time>2024-10-02T12:16:06Z</time>
      </trkpt>
      <trkpt lat="49.29769" lon="-0.07323">
        <ele>10.4</ele>
        <time>2024-10-02T12:16:07Z</time>
      </trkpt>
      <trkpt lat="49.29766" lon="-0.07314">
        <ele>10.4</ele>
        <time>2024-10-02T12:16:08Z</time>
      </trkpt>
      <trkpt lat="49.29764" lon="-0.07305">
        <ele>10.4</ele>
        <time>2024-10-02T12:16:09Z</time>
      </trkpt>
      <trkpt lat="49.29761" lon="-0.07296">
        <ele>10.6</ele>
        <time>2024-10-02T12:16:10Z</time>
      </trkpt>
      <trkpt lat="49.29759" lon="-0.07287">
        <ele>10.6</ele>
        <time>2024-10-02T12:16:11Z</time>
      </trkpt>
      <trkpt lat="49.29757" lon="-0.07277">
        <ele>10.6</ele>
        <time>2024-10-02T12:16:12Z</time>
      </trkpt>
      <trkpt lat="49.29755" lon="-0.07268">
        <ele>10.8</ele>
        <time>2024-10-02T12:16:13Z</time>
      </trkpt>
      <trkpt lat="49.29753" lon="-0.07259">
        <ele>10.8</ele>
        <time>2024-10-02T12:16:14Z</time>
      </trkpt>
      <trkpt lat="49.2975" lon="-0.0725">
        <ele>11</ele>
        <time>2024-10-02T12:16:15Z</time>
      </trkpt>
      <trkpt lat="49.29748" lon="-0.07241">
        <ele>11.2</ele>
        <time>2024-10-02T12:16:16Z</time>
      </trkpt>
      <trkpt lat="49.29745" lon="-0.07232">
        <ele>11.2</ele>
        <time>2024-10-02T12:16:17Z</time>
      </trkpt>
      <trkpt lat="49.29741" lon="-0.07224">
        <ele>11.2</ele>
        <time>2024-10-02T12:16:18Z</time>
      </trkpt>
      <trkpt lat="49.29738" lon="-0.07216">
        <ele>11.4</ele>
        <time>2024-10-02T12:16:19Z</time>
      </trkpt>
      <trkpt lat="49.29735" lon="-0.07208">
        <ele>11.4</ele>
        <time>2024-10-02T12:16:20Z</time>
      </trkpt>
      <trkpt lat="49.29731" lon="-0.07201">
        <ele>11.4</ele>
        <time>2024-10-02T12:16:21Z</time>
      </trkpt>
      <trkpt lat="49.29729" lon="-0.07193">
        <ele>11.4</ele>
        <time>2024-10-02T12:16:22Z</time>
      </trkpt>
      <trkpt lat="49.29727" lon="-0.07186">
        <ele>11.4</ele>
        <time>2024-10-02T12:16:23Z</time>
      </trkpt>
      <trkpt lat="49.29726" lon="-0.0718">
        <ele>11.6</ele>
        <time>2024-10-02T12:16:24Z</time>
      </trkpt>
      <trkpt lat="49.29724" lon="-0.07174">
        <ele>11.6</ele>
        <time>2024-10-02T12:16:25Z</time>
      </trkpt>
      <trkpt lat="49.29723" lon="-0.07168">
        <ele>11.8</ele>
        <time>2024-10-02T12:16:26Z</time>
      </trkpt>
      <trkpt lat="49.2972" lon="-0.07163">
        <ele>12</ele>
        <time>2024-10-02T12:16:27Z</time>
      </trkpt>
      <trkpt lat="49.29717" lon="-0.07159">
        <ele>12.4</ele>
        <time>2024-10-02T12:16:28Z</time>
      </trkpt>
      <trkpt lat="49.29713" lon="-0.07155">
        <ele>12.6</ele>
        <time>2024-10-02T12:16:29Z</time>
      </trkpt>
      <trkpt lat="49.29708" lon="-0.0715">
        <ele>13</ele>
        <time>2024-10-02T12:16:30Z</time>
      </trkpt>
      <trkpt lat="49.29704" lon="-0.07146">
        <ele>13.4</ele>
        <time>2024-10-02T12:16:31Z</time>
      </trkpt>
      <trkpt lat="49.297" lon="-0.0714">
        <ele>13.6</ele>
        <time>2024-10-02T12:16:32Z</time>
      </trkpt>
      <trkpt lat="49.29695" lon="-0.07135">
        <ele>13.8</ele>
        <time>2024-10-02T12:16:33Z</time>
      </trkpt>
      <trkpt lat="49.29691" lon="-0.07129">
        <ele>13.8</ele>
        <time>2024-10-02T12:16:34Z</time>
      </trkpt>
      <trkpt lat="49.29686" lon="-0.07124">
        <ele>13.8</ele>
        <time>2024-10-02T12:16:35Z</time>
      </trkpt>
      <trkpt lat="49.2968" lon="-0.07117">
        <ele>14</ele>
        <time>2024-10-02T12:16:36Z</time>
      </trkpt>
      <trkpt lat="49.29676" lon="-0.07112">
        <ele>14</ele>
        <time>2024-10-02T12:16:37Z</time>
      </trkpt>
      <trkpt lat="49.2967" lon="-0.07105">
        <ele>14</ele>
        <time>2024-10-02T12:16:38Z</time>
      </trkpt>
      <trkpt lat="49.29665" lon="-0.07099">
        <ele>14</ele>
        <time>2024-10-02T12:16:39Z</time>
      </trkpt>
      <trkpt lat="49.2966" lon="-0.07094">
        <ele>14.2</ele>
        <time>2024-10-02T12:16:40Z</time>
      </trkpt>
      <trkpt lat="49.29655" lon="-0.07088">
        <ele>14.2</ele>
        <time>2024-10-02T12:16:41Z</time>
      </trkpt>
      <trkpt lat="49.2965" lon="-0.07082">
        <ele>14.2</ele>
        <time>2024-10-02T12:16:42Z</time>
      </trkpt>
      <trkpt lat="49.29644" lon="-0.07075">
        <ele>14.2</ele>
        <time>2024-10-02T12:16:43Z</time>
      </trkpt>
      <trkpt lat="49.29639" lon="-0.07069">
        <ele>14.2</ele>
        <time>2024-10-02T12:16:44Z</time>
      </trkpt>
      <trkpt lat="49.29634" lon="-0.07064">
        <ele>14.2</ele>
        <time>2024-10-02T12:16:45Z</time>
      </trkpt>
      <trkpt lat="49.29629" lon="-0.07058">
        <ele>14.2</ele>
        <time>2024-10-02T12:16:46Z</time>
      </trkpt>
      <trkpt lat="49.29623" lon="-0.07052">
        <ele>14.2</ele>
        <time>2024-10-02T12:16:47Z</time>
      </trkpt>
      <trkpt lat="49.29618" lon="-0.07046">
        <ele>14</ele>
        <time>2024-10-02T12:16:48Z</time>
      </trkpt>
      <trkpt lat="49.29613" lon="-0.07039">
        <ele>14</ele>
        <time>2024-10-02T12:16:49Z</time>
      </trkpt>
      <trkpt lat="49.29608" lon="-0.07033">
        <ele>14</ele>
        <time>2024-10-02T12:16:50Z</time>
      </trkpt>
      <trkpt lat="49.29603" lon="-0.07027">
        <ele>14</ele>
        <time>2024-10-02T12:16:51Z</time>
      </trkpt>
      <trkpt lat="49.29598" lon="-0.07021">
        <ele>14</ele>
        <time>2024-10-02T12:16:52Z</time>
      </trkpt>
      <trkpt lat="49.29593" lon="-0.07015">
        <ele>14</ele>
        <time>2024-10-02T12:16:53Z</time>
      </trkpt>
      <trkpt lat="49.29588" lon="-0.07009">
        <ele>14</ele>
        <time>2024-10-02T12:16:54Z</time>
      </trkpt>
      <trkpt lat="49.29583" lon="-0.07002">
        <ele>14</ele>
        <time>2024-10-02T12:16:55Z</time>
      </trkpt>
      <trkpt lat="49.29578" lon="-0.06995">
        <ele>14.2</ele>
        <time>2024-10-02T12:16:56Z</time>
      </trkpt>
      <trkpt lat="49.29573" lon="-0.06988">
        <ele>14.2</ele>
        <time>2024-10-02T12:16:57Z</time>
      </trkpt>
      <trkpt lat="49.29568" lon="-0.06981">
        <ele>14.2</ele>
        <time>2024-10-02T12:16:58Z</time>
      </trkpt>
      <trkpt lat="49.29563" lon="-0.06975">
        <ele>14.2</ele>
        <time>2024-10-02T12:16:59Z</time>
      </trkpt>
      <trkpt lat="49.29559" lon="-0.06968">
        <ele>14.2</ele>
        <time>2024-10-02T12:17:00Z</time>
      </trkpt>
      <trkpt lat="49.29554" lon="-0.06961">
        <ele>14.2</ele>
        <time>2024-10-02T12:17:01Z</time>
      </trkpt>
      <trkpt lat="49.29549" lon="-0.06954">
        <ele>14.4</ele>
        <time>2024-10-02T12:17:02Z</time>
      </trkpt>
      <trkpt lat="49.29545" lon="-0.06946">
        <ele>14.6</ele>
        <time>2024-10-02T12:17:03Z</time>
      </trkpt>
      <trkpt lat="49.2954" lon="-0.06939">
        <ele>14.8</ele>
        <time>2024-10-02T12:17:04Z</time>
      </trkpt>
      <trkpt lat="49.29536" lon="-0.06932">
        <ele>15</ele>
        <time>2024-10-02T12:17:05Z</time>
      </trkpt>
      <trkpt lat="49.29532" lon="-0.06924">
        <ele>15.2</ele>
        <time>2024-10-02T12:17:06Z</time>
      </trkpt>
      <trkpt lat="49.29527" lon="-0.06916">
        <ele>15.2</ele>
        <time>2024-10-02T12:17:07Z</time>
      </trkpt>
      <trkpt lat="49.29523" lon="-0.06908">
        <ele>15.4</ele>
        <time>2024-10-02T12:17:08Z</time>
      </trkpt>
      <trkpt lat="49.29518" lon="-0.06901">
        <ele>15.6</ele>
        <time>2024-10-02T12:17:09Z</time>
      </trkpt>
      <trkpt lat="49.29514" lon="-0.06893">
        <ele>15.6</ele>
        <time>2024-10-02T12:17:10Z</time>
      </trkpt>
      <trkpt lat="49.2951" lon="-0.06885">
        <ele>15.8</ele>
        <time>2024-10-02T12:17:11Z</time>
      </trkpt>
      <trkpt lat="49.29507" lon="-0.06877">
        <ele>15.8</ele>
        <time>2024-10-02T12:17:12Z</time>
      </trkpt>
      <trkpt lat="49.29503" lon="-0.06868">
        <ele>16</ele>
        <time>2024-10-02T12:17:13Z</time>
      </trkpt>
      <trkpt lat="49.29499" lon="-0.0686">
        <ele>16</ele>
        <time>2024-10-02T12:17:14Z</time>
      </trkpt>
      <trkpt lat="49.29496" lon="-0.06851">
        <ele>16</ele>
        <time>2024-10-02T12:17:15Z</time>
      </trkpt>
      <trkpt lat="49.29493" lon="-0.06844">
        <ele>16</ele>
        <time>2024-10-02T12:17:16Z</time>
      </trkpt>
      <trkpt lat="49.29489" lon="-0.06834">
        <ele>16.2</ele>
        <time>2024-10-02T12:17:17Z</time>
      </trkpt>
      <trkpt lat="49.29487" lon="-0.06827">
        <ele>16.4</ele>
        <time>2024-10-02T12:17:18Z</time>
      </trkpt>
      <trkpt lat="49.29483" lon="-0.06816">
        <ele>16.6</ele>
        <time>2024-10-02T12:17:19Z</time>
      </trkpt>
      <trkpt lat="49.2948" lon="-0.06807">
        <ele>16.6</ele>
        <time>2024-10-02T12:17:20Z</time>
      </trkpt>
      <trkpt lat="49.29478" lon="-0.06797">
        <ele>16.8</ele>
        <time>2024-10-02T12:17:21Z</time>
      </trkpt>
      <trkpt lat="49.29476" lon="-0.06788">
        <ele>16.8</ele>
        <time>2024-10-02T12:17:22Z</time>
      </trkpt>
      <trkpt lat="49.29474" lon="-0.06778">
        <ele>17</ele>
        <time>2024-10-02T12:17:23Z</time>
      </trkpt>
      <trkpt lat="49.29472" lon="-0.06768">
        <ele>17</ele>
        <time>2024-10-02T12:17:24Z</time>
      </trkpt>
      <trkpt lat="49.29471" lon="-0.06758">
        <ele>17</ele>
        <time>2024-10-02T12:17:25Z</time>
      </trkpt>
      <trkpt lat="49.2947" lon="-0.06749">
        <ele>17</ele>
        <time>2024-10-02T12:17:26Z</time>
      </trkpt>
      <trkpt lat="49.2947" lon="-0.06739">
        <ele>17</ele>
        <time>2024-10-02T12:17:27Z</time>
      </trkpt>
      <trkpt lat="49.2947" lon="-0.06732">
        <ele>17.2</ele>
        <time>2024-10-02T12:17:28Z</time>
      </trkpt>
      <trkpt lat="49.29469" lon="-0.06721">
        <ele>17.2</ele>
        <time>2024-10-02T12:17:29Z</time>
      </trkpt>
      <trkpt lat="49.29468" lon="-0.06713">
        <ele>17.4</ele>
        <time>2024-10-02T12:17:30Z</time>
      </trkpt>
      <trkpt lat="49.29466" lon="-0.06705">
        <ele>17.6</ele>
        <time>2024-10-02T12:17:31Z</time>
      </trkpt>
      <trkpt lat="49.29466" lon="-0.06697">
        <ele>17.6</ele>
        <time>2024-10-02T12:17:32Z</time>
      </trkpt>
      <trkpt lat="49.29467" lon="-0.06689">
        <ele>17.8</ele>
        <time>2024-10-02T12:17:33Z</time>
      </trkpt>
      <trkpt lat="49.29469" lon="-0.06681">
        <ele>17.8</ele>
        <time>2024-10-02T12:17:34Z</time>
      </trkpt>
      <trkpt lat="49.29472" lon="-0.06673">
        <ele>18</ele>
        <time>2024-10-02T12:17:35Z</time>
      </trkpt>
      <trkpt lat="49.29474" lon="-0.06665">
        <ele>18</ele>
        <time>2024-10-02T12:17:36Z</time>
      </trkpt>
      <trkpt lat="49.29476" lon="-0.06657">
        <ele>18</ele>
        <time>2024-10-02T12:17:37Z</time>
      </trkpt>
      <trkpt lat="49.29477" lon="-0.06648">
        <ele>18.2</ele>
        <time>2024-10-02T12:17:38Z</time>
      </trkpt>
      <trkpt lat="49.29479" lon="-0.06639">
        <ele>18.2</ele>
        <time>2024-10-02T12:17:39Z</time>
      </trkpt>
      <trkpt lat="49.29481" lon="-0.0663">
        <ele>18.4</ele>
        <time>2024-10-02T12:17:40Z</time>
      </trkpt>
      <trkpt lat="49.29483" lon="-0.06621">
        <ele>18.4</ele>
        <time>2024-10-02T12:17:41Z</time>
      </trkpt>
      <trkpt lat="49.29485" lon="-0.06612">
        <ele>18.6</ele>
        <time>2024-10-02T12:17:42Z</time>
      </trkpt>
      <trkpt lat="49.29487" lon="-0.06604">
        <ele>18.8</ele>
        <time>2024-10-02T12:17:43Z</time>
      </trkpt>
      <trkpt lat="49.29488" lon="-0.06595">
        <ele>18.8</ele>
        <time>2024-10-02T12:17:44Z</time>
      </trkpt>
      <trkpt lat="49.2949" lon="-0.06586">
        <ele>19</ele>
        <time>2024-10-02T12:17:45Z</time>
      </trkpt>
      <trkpt lat="49.29492" lon="-0.06576">
        <ele>19</ele>
        <time>2024-10-02T12:17:46Z</time>
      </trkpt>
      <trkpt lat="49.29494" lon="-0.06567">
        <ele>19</ele>
        <time>2024-10-02T12:17:47Z</time>
      </trkpt>
      <trkpt lat="49.29496" lon="-0.06558">
        <ele>19.4</ele>
        <time>2024-10-02T12:17:48Z</time>
      </trkpt>
      <trkpt lat="49.29498" lon="-0.06549">
        <ele>19.4</ele>
        <time>2024-10-02T12:17:49Z</time>
      </trkpt>
      <trkpt lat="49.295" lon="-0.06539">
        <ele>19.6</ele>
        <time>2024-10-02T12:17:50Z</time>
      </trkpt>
      <trkpt lat="49.29502" lon="-0.0653">
        <ele>19.6</ele>
        <time>2024-10-02T12:17:51Z</time>
      </trkpt>
      <trkpt lat="49.29503" lon="-0.06521">
        <ele>19.8</ele>
        <time>2024-10-02T12:17:52Z</time>
      </trkpt>
      <trkpt lat="49.29505" lon="-0.06511">
        <ele>19.8</ele>
        <time>2024-10-02T12:17:53Z</time>
      </trkpt>
      <trkpt lat="49.29507" lon="-0.06502">
        <ele>20</ele>
        <time>2024-10-02T12:17:54Z</time>
      </trkpt>
      <trkpt lat="49.29509" lon="-0.06493">
        <ele>20.2</ele>
        <time>2024-10-02T12:17:55Z</time>
      </trkpt>
      <trkpt lat="49.29511" lon="-0.06484">
        <ele>20.2</ele>
        <time>2024-10-02T12:17:56Z</time>
      </trkpt>
      <trkpt lat="49.29513" lon="-0.06474">
        <ele>20.4</ele>
        <time>2024-10-02T12:17:57Z</time>
      </trkpt>
      <trkpt lat="49.29515" lon="-0.06465">
        <ele>20.4</ele>
        <time>2024-10-02T12:17:58Z</time>
      </trkpt>
      <trkpt lat="49.29517" lon="-0.06455">
        <ele>20.4</ele>
        <time>2024-10-02T12:17:59Z</time>
      </trkpt>
      <trkpt lat="49.29519" lon="-0.06445">
        <ele>20.4</ele>
        <time>2024-10-02T12:18:00Z</time>
      </trkpt>
      <trkpt lat="49.29521" lon="-0.06436">
        <ele>20.4</ele>
        <time>2024-10-02T12:18:01Z</time>
      </trkpt>
      <trkpt lat="49.29523" lon="-0.06426">
        <ele>20.4</ele>
        <time>2024-10-02T12:18:02Z</time>
      </trkpt>
      <trkpt lat="49.29525" lon="-0.06417">
        <ele>20.4</ele>
        <time>2024-10-02T12:18:03Z</time>
      </trkpt>
      <trkpt lat="49.29527" lon="-0.06407">
        <ele>20.4</ele>
        <time>2024-10-02T12:18:04Z</time>
      </trkpt>
      <trkpt lat="49.29529" lon="-0.06398">
        <ele>20.4</ele>
        <time>2024-10-02T12:18:05Z</time>
      </trkpt>
      <trkpt lat="49.29532" lon="-0.06388">
        <ele>20.4</ele>
        <time>2024-10-02T12:18:06Z</time>
      </trkpt>
      <trkpt lat="49.29534" lon="-0.06379">
        <ele>20.4</ele>
        <time>2024-10-02T12:18:07Z</time>
      </trkpt>
      <trkpt lat="49.29537" lon="-0.06371">
        <ele>20.4</ele>
        <time>2024-10-02T12:18:08Z</time>
      </trkpt>
      <trkpt lat="49.29541" lon="-0.06362">
        <ele>20.4</ele>
        <time>2024-10-02T12:18:09Z</time>
      </trkpt>
      <trkpt lat="49.29545" lon="-0.06354">
        <ele>20.2</ele>
        <time>2024-10-02T12:18:10Z</time>
      </trkpt>
      <trkpt lat="49.29549" lon="-0.06346">
        <ele>20</ele>
        <time>2024-10-02T12:18:11Z</time>
      </trkpt>
      <trkpt lat="49.29552" lon="-0.06338">
        <ele>20</ele>
        <time>2024-10-02T12:18:12Z</time>
      </trkpt>
      <trkpt lat="49.29556" lon="-0.0633">
        <ele>20</ele>
        <time>2024-10-02T12:18:13Z</time>
      </trkpt>
      <trkpt lat="49.2956" lon="-0.06321">
        <ele>20</ele>
        <time>2024-10-02T12:18:14Z</time>
      </trkpt>
      <trkpt lat="49.29564" lon="-0.06313">
        <ele>20</ele>
        <time>2024-10-02T12:18:15Z</time>
      </trkpt>
      <trkpt lat="49.29567" lon="-0.06304">
        <ele>20</ele>
        <time>2024-10-02T12:18:16Z</time>
      </trkpt>
      <trkpt lat="49.2957" lon="-0.06294">
        <ele>20</ele>
        <time>2024-10-02T12:18:17Z</time>
      </trkpt>
      <trkpt lat="49.29572" lon="-0.06284">
        <ele>20</ele>
        <time>2024-10-02T12:18:18Z</time>
      </trkpt>
      <trkpt lat="49.29574" lon="-0.06274">
        <ele>20</ele>
        <time>2024-10-02T12:18:19Z</time>
      </trkpt>
      <trkpt lat="49.29575" lon="-0.06264">
        <ele>20</ele>
        <time>2024-10-02T12:18:20Z</time>
      </trkpt>
      <trkpt lat="49.29576" lon="-0.06255">
        <ele>20</ele>
        <time>2024-10-02T12:18:21Z</time>
      </trkpt>
      <trkpt lat="49.29576" lon="-0.06245">
        <ele>20.2</ele>
        <time>2024-10-02T12:18:22Z</time>
      </trkpt>
      <trkpt lat="49.29577" lon="-0.06235">
        <ele>20.2</ele>
        <time>2024-10-02T12:18:23Z</time>
      </trkpt>
      <trkpt lat="49.29577" lon="-0.06226">
        <ele>20.2</ele>
        <time>2024-10-02T12:18:24Z</time>
      </trkpt>
      <trkpt lat="49.29577" lon="-0.06217">
        <ele>20.2</ele>
        <time>2024-10-02T12:18:25Z</time>
      </trkpt>
      <trkpt lat="49.29576" lon="-0.06209">
        <ele>20.2</ele>
        <time>2024-10-02T12:18:26Z</time>
      </trkpt>
      <trkpt lat="49.29576" lon="-0.06201">
        <ele>20.2</ele>
        <time>2024-10-02T12:18:27Z</time>
      </trkpt>
      <trkpt lat="49.29577" lon="-0.06192">
        <ele>20.2</ele>
        <time>2024-10-02T12:18:28Z</time>
      </trkpt>
      <trkpt lat="49.29576" lon="-0.06184">
        <ele>20.2</ele>
        <time>2024-10-02T12:18:29Z</time>
      </trkpt>
      <trkpt lat="49.29576" lon="-0.06177">
        <ele>20.4</ele>
        <time>2024-10-02T12:18:30Z</time>
      </trkpt>
      <trkpt lat="49.29575" lon="-0.06171">
        <ele>20.4</ele>
        <time>2024-10-02T12:18:31Z</time>
      </trkpt>
      <trkpt lat="49.29575" lon="-0.06165">
        <ele>20.4</ele>
        <time>2024-10-02T12:18:32Z</time>
      </trkpt>
      <trkpt lat="49.29574" lon="-0.0616">
        <ele>20.4</ele>
        <time>2024-10-02T12:18:33Z</time>
      </trkpt>
      <trkpt lat="49.29574" lon="-0.06156">
        <ele>20.4</ele>
        <time>2024-10-02T12:18:34Z</time>
      </trkpt>
      <trkpt lat="49.29573" lon="-0.06152">
        <ele>20.6</ele>
        <time>2024-10-02T12:18:35Z</time>
      </trkpt>
      <trkpt lat="49.29573" lon="-0.06148">
        <ele>20.6</ele>
        <time>2024-10-02T12:18:36Z</time>
      </trkpt>
      <trkpt lat="49.29573" lon="-0.06142">
        <ele>21</ele>
        <time>2024-10-02T12:18:37Z</time>
      </trkpt>
      <trkpt lat="49.29572" lon="-0.06137">
        <ele>21.2</ele>
        <time>2024-10-02T12:18:38Z</time>
      </trkpt>
      <trkpt lat="49.29571" lon="-0.0613">
        <ele>21.4</ele>
        <time>2024-10-02T12:18:39Z</time>
      </trkpt>
      <trkpt lat="49.29571" lon="-0.06125">
        <ele>21.6</ele>
        <time>2024-10-02T12:18:40Z</time>
      </trkpt>
      <trkpt lat="49.2957" lon="-0.06118">
        <ele>21.8</ele>
        <time>2024-10-02T12:18:41Z</time>
      </trkpt>
      <trkpt lat="49.29569" lon="-0.06109">
        <ele>21.8</ele>
        <time>2024-10-02T12:18:42Z</time>
      </trkpt>
      <trkpt lat="49.29568" lon="-0.06101">
        <ele>22</ele>
        <time>2024-10-02T12:18:43Z</time>
      </trkpt>
      <trkpt lat="49.29567" lon="-0.06092">
        <ele>22.4</ele>
        <time>2024-10-02T12:18:44Z</time>
      </trkpt>
      <trkpt lat="49.29566" lon="-0.06083">
        <ele>22.4</ele>
        <time>2024-10-02T12:18:45Z</time>
      </trkpt>
      <trkpt lat="49.29565" lon="-0.06075">
        <ele>22.6</ele>
        <time>2024-10-02T12:18:46Z</time>
      </trkpt>
      <trkpt lat="49.29564" lon="-0.06067">
        <ele>22.8</ele>
        <time>2024-10-02T12:18:47Z</time>
      </trkpt>
      <trkpt lat="49.29564" lon="-0.06058">
        <ele>22.8</ele>
        <time>2024-10-02T12:18:48Z</time>
      </trkpt>
      <trkpt lat="49.29563" lon="-0.0605">
        <ele>22.8</ele>
        <time>2024-10-02T12:18:49Z</time>
      </trkpt>
      <trkpt lat="49.29563" lon="-0.06041">
        <ele>22.8</ele>
        <time>2024-10-02T12:18:50Z</time>
      </trkpt>
      <trkpt lat="49.29562" lon="-0.06033">
        <ele>23</ele>
        <time>2024-10-02T12:18:51Z</time>
      </trkpt>
      <trkpt lat="49.29562" lon="-0.06024">
        <ele>23</ele>
        <time>2024-10-02T12:18:52Z</time>
      </trkpt>
      <trkpt lat="49.29562" lon="-0.06016">
        <ele>23</ele>
        <time>2024-10-02T12:18:53Z</time>
      </trkpt>
      <trkpt lat="49.29562" lon="-0.06007">
        <ele>23</ele>
        <time>2024-10-02T12:18:54Z</time>
      </trkpt>
      <trkpt lat="49.29562" lon="-0.05998">
        <ele>23.4</ele>
        <time>2024-10-02T12:18:55Z</time>
      </trkpt>
      <trkpt lat="49.29562" lon="-0.05989">
        <ele>23.6</ele>
        <time>2024-10-02T12:18:56Z</time>
      </trkpt>
      <trkpt lat="49.29562" lon="-0.0598">
        <ele>23.6</ele>
        <time>2024-10-02T12:18:57Z</time>
      </trkpt>
      <trkpt lat="49.29562" lon="-0.0597">
        <ele>23.6</ele>
        <time>2024-10-02T12:18:58Z</time>
      </trkpt>
      <trkpt lat="49.29561" lon="-0.05961">
        <ele>23.8</ele>
        <time>2024-10-02T12:18:59Z</time>
      </trkpt>
      <trkpt lat="49.29561" lon="-0.05951">
        <ele>24</ele>
        <time>2024-10-02T12:19:00Z</time>
      </trkpt>
      <trkpt lat="49.2956" lon="-0.05941">
        <ele>24.2</ele>
        <time>2024-10-02T12:19:01Z</time>
      </trkpt>
      <trkpt lat="49.2956" lon="-0.05931">
        <ele>24.2</ele>
        <time>2024-10-02T12:19:02Z</time>
      </trkpt>
      <trkpt lat="49.2956" lon="-0.05921">
        <ele>24.2</ele>
        <time>2024-10-02T12:19:03Z</time>
      </trkpt>
      <trkpt lat="49.29559" lon="-0.05911">
        <ele>24.2</ele>
        <time>2024-10-02T12:19:04Z</time>
      </trkpt>
      <trkpt lat="49.29559" lon="-0.05901">
        <ele>24.2</ele>
        <time>2024-10-02T12:19:05Z</time>
      </trkpt>
      <trkpt lat="49.29558" lon="-0.05893">
        <ele>24.2</ele>
        <time>2024-10-02T12:19:06Z</time>
      </trkpt>
      <trkpt lat="49.29558" lon="-0.05881">
        <ele>24.4</ele>
        <time>2024-10-02T12:19:07Z</time>
      </trkpt>
      <trkpt lat="49.29557" lon="-0.05871">
        <ele>24.4</ele>
        <time>2024-10-02T12:19:08Z</time>
      </trkpt>
      <trkpt lat="49.29556" lon="-0.05861">
        <ele>24.6</ele>
        <time>2024-10-02T12:19:09Z</time>
      </trkpt>
      <trkpt lat="49.29554" lon="-0.05851">
        <ele>24.6</ele>
        <time>2024-10-02T12:19:10Z</time>
      </trkpt>
      <trkpt lat="49.29552" lon="-0.05841">
        <ele>24.6</ele>
        <time>2024-10-02T12:19:11Z</time>
      </trkpt>
      <trkpt lat="49.29551" lon="-0.05831">
        <ele>24.6</ele>
        <time>2024-10-02T12:19:12Z</time>
      </trkpt>
      <trkpt lat="49.2955" lon="-0.05821">
        <ele>24.6</ele>
        <time>2024-10-02T12:19:13Z</time>
      </trkpt>
      <trkpt lat="49.29548" lon="-0.05812">
        <ele>24.6</ele>
        <time>2024-10-02T12:19:14Z</time>
      </trkpt>
      <trkpt lat="49.29546" lon="-0.05802">
        <ele>24.6</ele>
        <time>2024-10-02T12:19:15Z</time>
      </trkpt>
      <trkpt lat="49.29545" lon="-0.05792">
        <ele>24.6</ele>
        <time>2024-10-02T12:19:16Z</time>
      </trkpt>
      <trkpt lat="49.29544" lon="-0.05782">
        <ele>24.6</ele>
        <time>2024-10-02T12:19:17Z</time>
      </trkpt>
      <trkpt lat="49.29543" lon="-0.05772">
        <ele>24.6</ele>
        <time>2024-10-02T12:19:18Z</time>
      </trkpt>
      <trkpt lat="49.29543" lon="-0.05763">
        <ele>24.8</ele>
        <time>2024-10-02T12:19:19Z</time>
      </trkpt>
      <trkpt lat="49.29543" lon="-0.05753">
        <ele>24.8</ele>
        <time>2024-10-02T12:19:20Z</time>
      </trkpt>
      <trkpt lat="49.29542" lon="-0.05743">
        <ele>24.8</ele>
        <time>2024-10-02T12:19:21Z</time>
      </trkpt>
      <trkpt lat="49.29541" lon="-0.05733">
        <ele>24.8</ele>
        <time>2024-10-02T12:19:22Z</time>
      </trkpt>
      <trkpt lat="49.29539" lon="-0.05723">
        <ele>25</ele>
        <time>2024-10-02T12:19:23Z</time>
      </trkpt>
      <trkpt lat="49.29537" lon="-0.05714">
        <ele>25</ele>
        <time>2024-10-02T12:19:24Z</time>
      </trkpt>
      <trkpt lat="49.29535" lon="-0.05704">
        <ele>25</ele>
        <time>2024-10-02T12:19:25Z</time>
      </trkpt>
      <trkpt lat="49.29533" lon="-0.05695">
        <ele>25.2</ele>
        <time>2024-10-02T12:19:26Z</time>
      </trkpt>
      <trkpt lat="49.29531" lon="-0.05686">
        <ele>25.4</ele>
        <time>2024-10-02T12:19:27Z</time>
      </trkpt>
      <trkpt lat="49.29529" lon="-0.05677">
        <ele>25.6</ele>
        <time>2024-10-02T12:19:28Z</time>
      </trkpt>
      <trkpt lat="49.29526" lon="-0.05668">
        <ele>25.6</ele>
        <time>2024-10-02T12:19:29Z</time>
      </trkpt>
      <trkpt lat="49.29524" lon="-0.05659">
        <ele>25.8</ele>
        <time>2024-10-02T12:19:30Z</time>
      </trkpt>
      <trkpt lat="49.29522" lon="-0.0565">
        <ele>25.8</ele>
        <time>2024-10-02T12:19:31Z</time>
      </trkpt>
      <trkpt lat="49.2952" lon="-0.05641">
        <ele>25.8</ele>
        <time>2024-10-02T12:19:32Z</time>
      </trkpt>
      <trkpt lat="49.29518" lon="-0.05633">
        <ele>26</ele>
        <time>2024-10-02T12:19:33Z</time>
      </trkpt>
      <trkpt lat="49.29516" lon="-0.05624">
        <ele>26.2</ele>
        <time>2024-10-02T12:19:34Z</time>
      </trkpt>
      <trkpt lat="49.29514" lon="-0.05616">
        <ele>26.4</ele>
        <time>2024-10-02T12:19:35Z</time>
      </trkpt>
      <trkpt lat="49.29511" lon="-0.05607">
        <ele>26.6</ele>
        <time>2024-10-02T12:19:36Z</time>
      </trkpt>
      <trkpt lat="49.29509" lon="-0.05599">
        <ele>26.8</ele>
        <time>2024-10-02T12:19:37Z</time>
      </trkpt>
      <trkpt lat="49.29507" lon="-0.0559">
        <ele>26.8</ele>
        <time>2024-10-02T12:19:38Z</time>
      </trkpt>
      <trkpt lat="49.29505" lon="-0.05582">
        <ele>27</ele>
        <time>2024-10-02T12:19:39Z</time>
      </trkpt>
      <trkpt lat="49.29503" lon="-0.05573">
        <ele>27</ele>
        <time>2024-10-02T12:19:40Z</time>
      </trkpt>
      <trkpt lat="49.29502" lon="-0.05564">
        <ele>27.2</ele>
        <time>2024-10-02T12:19:41Z</time>
      </trkpt>
      <trkpt lat="49.295" lon="-0.05555">
        <ele>27.2</ele>
        <time>2024-10-02T12:19:42Z</time>
      </trkpt>
      <trkpt lat="49.29499" lon="-0.05546">
        <ele>27.2</ele>
        <time>2024-10-02T12:19:43Z</time>
      </trkpt>
      <trkpt lat="49.29499" lon="-0.05538">
        <ele>27.4</ele>
        <time>2024-10-02T12:19:44Z</time>
      </trkpt>
      <trkpt lat="49.29498" lon="-0.05529">
        <ele>27.4</ele>
        <time>2024-10-02T12:19:45Z</time>
      </trkpt>
      <trkpt lat="49.29497" lon="-0.0552">
        <ele>27.4</ele>
        <time>2024-10-02T12:19:46Z</time>
      </trkpt>
      <trkpt lat="49.29496" lon="-0.05511">
        <ele>27.6</ele>
        <time>2024-10-02T12:19:47Z</time>
      </trkpt>
      <trkpt lat="49.29495" lon="-0.05503">
        <ele>27.8</ele>
        <time>2024-10-02T12:19:48Z</time>
      </trkpt>
      <trkpt lat="49.29495" lon="-0.05495">
        <ele>28</ele>
        <time>2024-10-02T12:19:49Z</time>
      </trkpt>
      <trkpt lat="49.29494" lon="-0.05487">
        <ele>28.2</ele>
        <time>2024-10-02T12:19:50Z</time>
      </trkpt>
      <trkpt lat="49.29494" lon="-0.05481">
        <ele>28.8</ele>
        <time>2024-10-02T12:19:51Z</time>
      </trkpt>
      <trkpt lat="49.29493" lon="-0.05472">
        <ele>29</ele>
        <time>2024-10-02T12:19:52Z</time>
      </trkpt>
      <trkpt lat="49.29493" lon="-0.05463">
        <ele>29.2</ele>
        <time>2024-10-02T12:19:53Z</time>
      </trkpt>
      <trkpt lat="49.29492" lon="-0.05456">
        <ele>29.2</ele>
        <time>2024-10-02T12:19:54Z</time>
      </trkpt>
      <trkpt lat="49.29492" lon="-0.05447">
        <ele>29.4</ele>
        <time>2024-10-02T12:19:55Z</time>
      </trkpt>
      <trkpt lat="49.2949" lon="-0.05439">
        <ele>29.4</ele>
        <time>2024-10-02T12:19:56Z</time>
      </trkpt>
      <trkpt lat="49.29489" lon="-0.05429">
        <ele>29.4</ele>
        <time>2024-10-02T12:19:57Z</time>
      </trkpt>
      <trkpt lat="49.29489" lon="-0.05423">
        <ele>29.6</ele>
        <time>2024-10-02T12:19:58Z</time>
      </trkpt>
      <trkpt lat="49.29488" lon="-0.05414">
        <ele>30</ele>
        <time>2024-10-02T12:19:59Z</time>
      </trkpt>
      <trkpt lat="49.29488" lon="-0.05406">
        <ele>30.4</ele>
        <time>2024-10-02T12:20:00Z</time>
      </trkpt>
      <trkpt lat="49.29487" lon="-0.05396">
        <ele>30.6</ele>
        <time>2024-10-02T12:20:01Z</time>
      </trkpt>
      <trkpt lat="49.29486" lon="-0.05388">
        <ele>30.8</ele>
        <time>2024-10-02T12:20:02Z</time>
      </trkpt>
      <trkpt lat="49.29485" lon="-0.05381">
        <ele>31</ele>
        <time>2024-10-02T12:20:03Z</time>
      </trkpt>
      <trkpt lat="49.29483" lon="-0.05373">
        <ele>31.2</ele>
        <time>2024-10-02T12:20:04Z</time>
      </trkpt>
      <trkpt lat="49.29482" lon="-0.05365">
        <ele>31.2</ele>
        <time>2024-10-02T12:20:05Z</time>
      </trkpt>
      <trkpt lat="49.2948" lon="-0.05357">
        <ele>31.4</ele>
        <time>2024-10-02T12:20:06Z</time>
      </trkpt>
      <trkpt lat="49.29479" lon="-0.05349">
        <ele>31.8</ele>
        <time>2024-10-02T12:20:07Z</time>
      </trkpt>
      <trkpt lat="49.29476" lon="-0.05341">
        <ele>32</ele>
        <time>2024-10-02T12:20:08Z</time>
      </trkpt>
      <trkpt lat="49.29474" lon="-0.05333">
        <ele>32.8</ele>
        <time>2024-10-02T12:20:09Z</time>
      </trkpt>
      <trkpt lat="49.29472" lon="-0.05326">
        <ele>33.2</ele>
        <time>2024-10-02T12:20:10Z</time>
      </trkpt>
      <trkpt lat="49.29469" lon="-0.05318">
        <ele>33.4</ele>
        <time>2024-10-02T12:20:11Z</time>
      </trkpt>
      <trkpt lat="49.29466" lon="-0.0531">
        <ele>33.6</ele>
        <time>2024-10-02T12:20:12Z</time>
      </trkpt>
      <trkpt lat="49.29463" lon="-0.05302">
        <ele>33.8</ele>
        <time>2024-10-02T12:20:13Z</time>
      </trkpt>
      <trkpt lat="49.2946" lon="-0.05295">
        <ele>34</ele>
        <time>2024-10-02T12:20:14Z</time>
      </trkpt>
      <trkpt lat="49.29456" lon="-0.05286">
        <ele>34.2</ele>
        <time>2024-10-02T12:20:15Z</time>
      </trkpt>
      <trkpt lat="49.29454" lon="-0.05278">
        <ele>34.4</ele>
        <time>2024-10-02T12:20:16Z</time>
      </trkpt>
      <trkpt lat="49.29451" lon="-0.05271">
        <ele>34.6</ele>
        <time>2024-10-02T12:20:17Z</time>
      </trkpt>
      <trkpt lat="49.29448" lon="-0.05263">
        <ele>34.8</ele>
        <time>2024-10-02T12:20:18Z</time>
      </trkpt>
      <trkpt lat="49.29445" lon="-0.05255">
        <ele>35.2</ele>
        <time>2024-10-02T12:20:19Z</time>
      </trkpt>
      <trkpt lat="49.29442" lon="-0.05248">
        <ele>35.4</ele>
        <time>2024-10-02T12:20:20Z</time>
      </trkpt>
      <trkpt lat="49.29438" lon="-0.0524">
        <ele>35.4</ele>
        <time>2024-10-02T12:20:21Z</time>
      </trkpt>
      <trkpt lat="49.29436" lon="-0.05232">
        <ele>35.6</ele>
        <time>2024-10-02T12:20:22Z</time>
      </trkpt>
      <trkpt lat="49.29433" lon="-0.05225">
        <ele>35.8</ele>
        <time>2024-10-02T12:20:23Z</time>
      </trkpt>
      <trkpt lat="49.29429" lon="-0.05216">
        <ele>36</ele>
        <time>2024-10-02T12:20:24Z</time>
      </trkpt>
      <trkpt lat="49.29426" lon="-0.0521">
        <ele>36.2</ele>
        <time>2024-10-02T12:20:25Z</time>
      </trkpt>
      <trkpt lat="49.29422" lon="-0.05203">
        <ele>36.4</ele>
        <time>2024-10-02T12:20:26Z</time>
      </trkpt>
      <trkpt lat="49.29419" lon="-0.05196">
        <ele>36.4</ele>
        <time>2024-10-02T12:20:27Z</time>
      </trkpt>
      <trkpt lat="49.29416" lon="-0.05188">
        <ele>36.4</ele>
        <time>2024-10-02T12:20:28Z</time>
      </trkpt>
      <trkpt lat="49.29413" lon="-0.0518">
        <ele>36.6</ele>
        <time>2024-10-02T12:20:29Z</time>
      </trkpt>
      <trkpt lat="49.2941" lon="-0.05172">
        <ele>36.6</ele>
        <time>2024-10-02T12:20:30Z</time>
      </trkpt>
      <trkpt lat="49.29408" lon="-0.05164">
        <ele>36.6</ele>
        <time>2024-10-02T12:20:31Z</time>
      </trkpt>
      <trkpt lat="49.29405" lon="-0.05155">
        <ele>36.6</ele>
        <time>2024-10-02T12:20:32Z</time>
      </trkpt>
      <trkpt lat="49.29403" lon="-0.05145">
        <ele>36.8</ele>
        <time>2024-10-02T12:20:33Z</time>
      </trkpt>
      <trkpt lat="49.29401" lon="-0.05136">
        <ele>36.8</ele>
        <time>2024-10-02T12:20:34Z</time>
      </trkpt>
      <trkpt lat="49.29398" lon="-0.05125">
        <ele>37</ele>
        <time>2024-10-02T12:20:35Z</time>
      </trkpt>
      <trkpt lat="49.29397" lon="-0.05116">
        <ele>37</ele>
        <time>2024-10-02T12:20:36Z</time>
      </trkpt>
      <trkpt lat="49.29395" lon="-0.05108">
        <ele>37.4</ele>
        <time>2024-10-02T12:20:37Z</time>
      </trkpt>
      <trkpt lat="49.29393" lon="-0.05099">
        <ele>37.6</ele>
        <time>2024-10-02T12:20:38Z</time>
      </trkpt>
      <trkpt lat="49.29391" lon="-0.05089">
        <ele>37.8</ele>
        <time>2024-10-02T12:20:39Z</time>
      </trkpt>
      <trkpt lat="49.29389" lon="-0.05079">
        <ele>38</ele>
        <time>2024-10-02T12:20:40Z</time>
      </trkpt>
      <trkpt lat="49.29386" lon="-0.05067">
        <ele>38</ele>
        <time>2024-10-02T12:20:41Z</time>
      </trkpt>
      <trkpt lat="49.29385" lon="-0.0506">
        <ele>38.2</ele>
        <time>2024-10-02T12:20:42Z</time>
      </trkpt>
      <trkpt lat="49.29381" lon="-0.05048">
        <ele>38.2</ele>
        <time>2024-10-02T12:20:43Z</time>
      </trkpt>
      <trkpt lat="49.29379" lon="-0.0504">
        <ele>38.2</ele>
        <time>2024-10-02T12:20:44Z</time>
      </trkpt>
      <trkpt lat="49.29376" lon="-0.0503">
        <ele>38.2</ele>
        <time>2024-10-02T12:20:45Z</time>
      </trkpt>
      <trkpt lat="49.29373" lon="-0.0502">
        <ele>38.2</ele>
        <time>2024-10-02T12:20:46Z</time>
      </trkpt>
      <trkpt lat="49.2937" lon="-0.0501">
        <ele>38.2</ele>
        <time>2024-10-02T12:20:47Z</time>
      </trkpt>
      <trkpt lat="49.29367" lon="-0.04999">
        <ele>38.2</ele>
        <time>2024-10-02T12:20:48Z</time>
      </trkpt>
      <trkpt lat="49.29363" lon="-0.04989">
        <ele>38.2</ele>
        <time>2024-10-02T12:20:49Z</time>
      </trkpt>
      <trkpt lat="49.2936" lon="-0.04979">
        <ele>38.2</ele>
        <time>2024-10-02T12:20:50Z</time>
      </trkpt>
      <trkpt lat="49.29355" lon="-0.04967">
        <ele>38</ele>
        <time>2024-10-02T12:20:51Z</time>
      </trkpt>
      <trkpt lat="49.2935" lon="-0.04957">
        <ele>37.8</ele>
        <time>2024-10-02T12:20:52Z</time>
      </trkpt>
      <trkpt lat="49.29347" lon="-0.0495">
        <ele>37.4</ele>
        <time>2024-10-02T12:20:53Z</time>
      </trkpt>
      <trkpt lat="49.29343" lon="-0.0494">
        <ele>37.4</ele>
        <time>2024-10-02T12:20:54Z</time>
      </trkpt>
      <trkpt lat="49.29339" lon="-0.04931">
        <ele>37.2</ele>
        <time>2024-10-02T12:20:55Z</time>
      </trkpt>
      <trkpt lat="49.29334" lon="-0.04922">
        <ele>37</ele>
        <time>2024-10-02T12:20:56Z</time>
      </trkpt>
      <trkpt lat="49.29329" lon="-0.04913">
        <ele>36.6</ele>
        <time>2024-10-02T12:20:57Z</time>
      </trkpt>
      <trkpt lat="49.29325" lon="-0.04905">
        <ele>36.4</ele>
        <time>2024-10-02T12:20:58Z</time>
      </trkpt>
      <trkpt lat="49.2932" lon="-0.04897">
        <ele>36</ele>
        <time>2024-10-02T12:20:59Z</time>
      </trkpt>
      <trkpt lat="49.29316" lon="-0.04888">
        <ele>35.8</ele>
        <time>2024-10-02T12:21:00Z</time>
      </trkpt>
      <trkpt lat="49.29311" lon="-0.0488">
        <ele>35.2</ele>
        <time>2024-10-02T12:21:01Z</time>
      </trkpt>
      <trkpt lat="49.29306" lon="-0.04872">
        <ele>35</ele>
        <time>2024-10-02T12:21:02Z</time>
      </trkpt>
      <trkpt lat="49.29301" lon="-0.04864">
        <ele>34.8</ele>
        <time>2024-10-02T12:21:03Z</time>
      </trkpt>
      <trkpt lat="49.29297" lon="-0.04856">
        <ele>34.6</ele>
        <time>2024-10-02T12:21:04Z</time>
      </trkpt>
      <trkpt lat="49.29291" lon="-0.04847">
        <ele>34.6</ele>
        <time>2024-10-02T12:21:05Z</time>
      </trkpt>
      <trkpt lat="49.29286" lon="-0.04841">
        <ele>34.4</ele>
        <time>2024-10-02T12:21:06Z</time>
      </trkpt>
      <trkpt lat="49.29281" lon="-0.04834">
        <ele>34.4</ele>
        <time>2024-10-02T12:21:07Z</time>
      </trkpt>
      <trkpt lat="49.29276" lon="-0.04827">
        <ele>34.4</ele>
        <time>2024-10-02T12:21:08Z</time>
      </trkpt>
      <trkpt lat="49.29271" lon="-0.0482">
        <ele>34.4</ele>
        <time>2024-10-02T12:21:09Z</time>
      </trkpt>
      <trkpt lat="49.29266" lon="-0.04813">
        <ele>34.4</ele>
        <time>2024-10-02T12:21:10Z</time>
      </trkpt>
      <trkpt lat="49.29262" lon="-0.04805">
        <ele>34.4</ele>
        <time>2024-10-02T12:21:11Z</time>
      </trkpt>
      <trkpt lat="49.29257" lon="-0.04798">
        <ele>34.4</ele>
        <time>2024-10-02T12:21:12Z</time>
      </trkpt>
      <trkpt lat="49.29254" lon="-0.04791">
        <ele>34.4</ele>
        <time>2024-10-02T12:21:13Z</time>
      </trkpt>
      <trkpt lat="49.2925" lon="-0.04783">
        <ele>34.4</ele>
        <time>2024-10-02T12:21:14Z</time>
      </trkpt>
      <trkpt lat="49.29248" lon="-0.04776">
        <ele>34.6</ele>
        <time>2024-10-02T12:21:15Z</time>
      </trkpt>
      <trkpt lat="49.29245" lon="-0.04768">
        <ele>34.6</ele>
        <time>2024-10-02T12:21:16Z</time>
      </trkpt>
      <trkpt lat="49.29243" lon="-0.04761">
        <ele>34.8</ele>
        <time>2024-10-02T12:21:17Z</time>
      </trkpt>
      <trkpt lat="49.29241" lon="-0.04754">
        <ele>35</ele>
        <time>2024-10-02T12:21:18Z</time>
      </trkpt>
      <trkpt lat="49.2924" lon="-0.04746">
        <ele>35.2</ele>
        <time>2024-10-02T12:21:19Z</time>
      </trkpt>
      <trkpt lat="49.29239" lon="-0.04739">
        <ele>35.4</ele>
        <time>2024-10-02T12:21:20Z</time>
      </trkpt>
      <trkpt lat="49.29238" lon="-0.04733">
        <ele>35.6</ele>
        <time>2024-10-02T12:21:21Z</time>
      </trkpt>
      <trkpt lat="49.29237" lon="-0.04726">
        <ele>35.8</ele>
        <time>2024-10-02T12:21:22Z</time>
      </trkpt>
      <trkpt lat="49.29236" lon="-0.0472">
        <ele>35.8</ele>
        <time>2024-10-02T12:21:23Z</time>
      </trkpt>
      <trkpt lat="49.29234" lon="-0.04714">
        <ele>36.2</ele>
        <time>2024-10-02T12:21:24Z</time>
      </trkpt>
      <trkpt lat="49.29233" lon="-0.04708">
        <ele>36.6</ele>
        <time>2024-10-02T12:21:25Z</time>
      </trkpt>
      <trkpt lat="49.29233" lon="-0.04702">
        <ele>37</ele>
        <time>2024-10-02T12:21:26Z</time>
      </trkpt>
      <trkpt lat="49.29232" lon="-0.04696">
        <ele>37.4</ele>
        <time>2024-10-02T12:21:27Z</time>
      </trkpt>
      <trkpt lat="49.29232" lon="-0.0469">
        <ele>38</ele>
        <time>2024-10-02T12:21:28Z</time>
      </trkpt>
      <trkpt lat="49.29232" lon="-0.04684">
        <ele>38.4</ele>
        <time>2024-10-02T12:21:29Z</time>
      </trkpt>
      <trkpt lat="49.29231" lon="-0.04678">
        <ele>39</ele>
        <time>2024-10-02T12:21:30Z</time>
      </trkpt>
      <trkpt lat="49.29231" lon="-0.04673">
        <ele>39.4</ele>
        <time>2024-10-02T12:21:31Z</time>
      </trkpt>
      <trkpt lat="49.29231" lon="-0.04667">
        <ele>39.8</ele>
        <time>2024-10-02T12:21:32Z</time>
      </trkpt>
      <trkpt lat="49.29231" lon="-0.04662">
        <ele>40.2</ele>
        <time>2024-10-02T12:21:33Z</time>
      </trkpt>
      <trkpt lat="49.29231" lon="-0.04657">
        <ele>40.2</ele>
        <time>2024-10-02T12:21:34Z</time>
      </trkpt>
      <trkpt lat="49.29231" lon="-0.04651">
        <ele>40.4</ele>
        <time>2024-10-02T12:21:35Z</time>
      </trkpt>
      <trkpt lat="49.29231" lon="-0.04646">
        <ele>40.6</ele>
        <time>2024-10-02T12:21:36Z</time>
      </trkpt>
      <trkpt lat="49.29231" lon="-0.04641">
        <ele>40.8</ele>
        <time>2024-10-02T12:21:37Z</time>
      </trkpt>
      <trkpt lat="49.29231" lon="-0.04635">
        <ele>41.2</ele>
        <time>2024-10-02T12:21:38Z</time>
      </trkpt>
      <trkpt lat="49.29231" lon="-0.04629">
        <ele>41.8</ele>
        <time>2024-10-02T12:21:39Z</time>
      </trkpt>
      <trkpt lat="49.29231" lon="-0.04624">
        <ele>42.4</ele>
        <time>2024-10-02T12:21:40Z</time>
      </trkpt>
      <trkpt lat="49.29231" lon="-0.04619">
        <ele>43</ele>
        <time>2024-10-02T12:21:41Z</time>
      </trkpt>
      <trkpt lat="49.29231" lon="-0.04614">
        <ele>43.4</ele>
        <time>2024-10-02T12:21:42Z</time>
      </trkpt>
      <trkpt lat="49.29232" lon="-0.04609">
        <ele>44</ele>
        <time>2024-10-02T12:21:43Z</time>
      </trkpt>
      <trkpt lat="49.29232" lon="-0.04603">
        <ele>44.4</ele>
        <time>2024-10-02T12:21:44Z</time>
      </trkpt>
      <trkpt lat="49.29232" lon="-0.04598">
        <ele>44.8</ele>
        <time>2024-10-02T12:21:45Z</time>
      </trkpt>
      <trkpt lat="49.29232" lon="-0.04592">
        <ele>45.2</ele>
        <time>2024-10-02T12:21:46Z</time>
      </trkpt>
      <trkpt lat="49.29233" lon="-0.04587">
        <ele>45.4</ele>
        <time>2024-10-02T12:21:47Z</time>
      </trkpt>
      <trkpt lat="49.29233" lon="-0.04582">
        <ele>45.6</ele>
        <time>2024-10-02T12:21:48Z</time>
      </trkpt>
      <trkpt lat="49.29233" lon="-0.04577">
        <ele>45.8</ele>
        <time>2024-10-02T12:21:49Z</time>
      </trkpt>
      <trkpt lat="49.29234" lon="-0.04571">
        <ele>46.2</ele>
        <time>2024-10-02T12:21:50Z</time>
      </trkpt>
      <trkpt lat="49.29235" lon="-0.04566">
        <ele>46.4</ele>
        <time>2024-10-02T12:21:51Z</time>
      </trkpt>
      <trkpt lat="49.29235" lon="-0.04561">
        <ele>46.8</ele>
        <time>2024-10-02T12:21:52Z</time>
      </trkpt>
      <trkpt lat="49.29236" lon="-0.04556">
        <ele>47.2</ele>
        <time>2024-10-02T12:21:53Z</time>
      </trkpt>
      <trkpt lat="49.29236" lon="-0.04552">
        <ele>47.6</ele>
        <time>2024-10-02T12:21:54Z</time>
      </trkpt>
      <trkpt lat="49.29237" lon="-0.04547">
        <ele>48</ele>
        <time>2024-10-02T12:21:55Z</time>
      </trkpt>
      <trkpt lat="49.29237" lon="-0.04542">
        <ele>48</ele>
        <time>2024-10-02T12:21:56Z</time>
      </trkpt>
      <trkpt lat="49.29237" lon="-0.04537">
        <ele>48.4</ele>
        <time>2024-10-02T12:21:57Z</time>
      </trkpt>
      <trkpt lat="49.29238" lon="-0.04532">
        <ele>48.8</ele>
        <time>2024-10-02T12:21:58Z</time>
      </trkpt>
      <trkpt lat="49.29238" lon="-0.04527">
        <ele>49</ele>
        <time>2024-10-02T12:21:59Z</time>
      </trkpt>
      <trkpt lat="49.29239" lon="-0.04522">
        <ele>49.4</ele>
        <time>2024-10-02T12:22:00Z</time>
      </trkpt>
      <trkpt lat="49.29239" lon="-0.04517">
        <ele>49.8</ele>
        <time>2024-10-02T12:22:01Z</time>
      </trkpt>
      <trkpt lat="49.29239" lon="-0.04512">
        <ele>50.2</ele>
        <time>2024-10-02T12:22:02Z</time>
      </trkpt>
      <trkpt lat="49.2924" lon="-0.04508">
        <ele>50.6</ele>
        <time>2024-10-02T12:22:03Z</time>
      </trkpt>
      <trkpt lat="49.2924" lon="-0.04503">
        <ele>50.8</ele>
        <time>2024-10-02T12:22:04Z</time>
      </trkpt>
      <trkpt lat="49.29241" lon="-0.04498">
        <ele>51.2</ele>
        <time>2024-10-02T12:22:05Z</time>
      </trkpt>
      <trkpt lat="49.29241" lon="-0.04493">
        <ele>51.4</ele>
        <time>2024-10-02T12:22:06Z</time>
      </trkpt>
      <trkpt lat="49.29242" lon="-0.04488">
        <ele>51.6</ele>
        <time>2024-10-02T12:22:07Z</time>
      </trkpt>
      <trkpt lat="49.29242" lon="-0.04483">
        <ele>52</ele>
        <time>2024-10-02T12:22:08Z</time>
      </trkpt>
      <trkpt lat="49.29243" lon="-0.04479">
        <ele>52.2</ele>
        <time>2024-10-02T12:22:09Z</time>
      </trkpt>
      <trkpt lat="49.29244" lon="-0.04474">
        <ele>52.4</ele>
        <time>2024-10-02T12:22:10Z</time>
      </trkpt>
      <trkpt lat="49.29245" lon="-0.0447">
        <ele>52.8</ele>
        <time>2024-10-02T12:22:11Z</time>
      </trkpt>
      <trkpt lat="49.29245" lon="-0.04466">
        <ele>53.2</ele>
        <time>2024-10-02T12:22:12Z</time>
      </trkpt>
      <trkpt lat="49.29246" lon="-0.04461">
        <ele>53.6</ele>
        <time>2024-10-02T12:22:13Z</time>
      </trkpt>
      <trkpt lat="49.29246" lon="-0.04456">
        <ele>53.8</ele>
        <time>2024-10-02T12:22:14Z</time>
      </trkpt>
      <trkpt lat="49.29247" lon="-0.04451">
        <ele>54.4</ele>
        <time>2024-10-02T12:22:15Z</time>
      </trkpt>
      <trkpt lat="49.29248" lon="-0.04447">
        <ele>54.6</ele>
        <time>2024-10-02T12:22:16Z</time>
      </trkpt>
      <trkpt lat="49.29249" lon="-0.04442">
        <ele>54.8</ele>
        <time>2024-10-02T12:22:17Z</time>
      </trkpt>
      <trkpt lat="49.29251" lon="-0.04439">
        <ele>55.2</ele>
        <time>2024-10-02T12:22:18Z</time>
      </trkpt>
      <trkpt lat="49.29252" lon="-0.04434">
        <ele>55.2</ele>
        <time>2024-10-02T12:22:19Z</time>
      </trkpt>
      <trkpt lat="49.29253" lon="-0.04429">
        <ele>55.4</ele>
        <time>2024-10-02T12:22:20Z</time>
      </trkpt>
      <trkpt lat="49.29254" lon="-0.04425">
        <ele>55.8</ele>
        <time>2024-10-02T12:22:21Z</time>
      </trkpt>
      <trkpt lat="49.29255" lon="-0.04421">
        <ele>56</ele>
        <time>2024-10-02T12:22:22Z</time>
      </trkpt>
      <trkpt lat="49.29256" lon="-0.04417">
        <ele>56.4</ele>
        <time>2024-10-02T12:22:23Z</time>
      </trkpt>
      <trkpt lat="49.29257" lon="-0.04412">
        <ele>56.6</ele>
        <time>2024-10-02T12:22:24Z</time>
      </trkpt>
      <trkpt lat="49.29258" lon="-0.04408">
        <ele>57</ele>
        <time>2024-10-02T12:22:25Z</time>
      </trkpt>
      <trkpt lat="49.2926" lon="-0.04403">
        <ele>57.2</ele>
        <time>2024-10-02T12:22:26Z</time>
      </trkpt>
      <trkpt lat="49.29261" lon="-0.04399">
        <ele>57.6</ele>
        <time>2024-10-02T12:22:27Z</time>
      </trkpt>
      <trkpt lat="49.29262" lon="-0.04394">
        <ele>57.8</ele>
        <time>2024-10-02T12:22:28Z</time>
      </trkpt>
      <trkpt lat="49.29263" lon="-0.0439">
        <ele>58.2</ele>
        <time>2024-10-02T12:22:29Z</time>
      </trkpt>
      <trkpt lat="49.29264" lon="-0.04386">
        <ele>58.6</ele>
        <time>2024-10-02T12:22:30Z</time>
      </trkpt>
      <trkpt lat="49.29266" lon="-0.04381">
        <ele>58.8</ele>
        <time>2024-10-02T12:22:31Z</time>
      </trkpt>
      <trkpt lat="49.29267" lon="-0.04378">
        <ele>59.2</ele>
        <time>2024-10-02T12:22:32Z</time>
      </trkpt>
      <trkpt lat="49.29269" lon="-0.04373">
        <ele>59.4</ele>
        <time>2024-10-02T12:22:33Z</time>
      </trkpt>
      <trkpt lat="49.2927" lon="-0.04369">
        <ele>59.8</ele>
        <time>2024-10-02T12:22:34Z</time>
      </trkpt>
      <trkpt lat="49.29271" lon="-0.04364">
        <ele>60</ele>
        <time>2024-10-02T12:22:35Z</time>
      </trkpt>
      <trkpt lat="49.29273" lon="-0.04361">
        <ele>60.4</ele>
        <time>2024-10-02T12:22:36Z</time>
      </trkpt>
      <trkpt lat="49.29275" lon="-0.04357">
        <ele>60.8</ele>
        <time>2024-10-02T12:22:37Z</time>
      </trkpt>
      <trkpt lat="49.29276" lon="-0.04354">
        <ele>61.2</ele>
        <time>2024-10-02T12:22:38Z</time>
      </trkpt>
      <trkpt lat="49.29278" lon="-0.0435">
        <ele>61.4</ele>
        <time>2024-10-02T12:22:39Z</time>
      </trkpt>
      <trkpt lat="49.29279" lon="-0.04346">
        <ele>61.8</ele>
        <time>2024-10-02T12:22:40Z</time>
      </trkpt>
      <trkpt lat="49.29281" lon="-0.04342">
        <ele>61.8</ele>
        <time>2024-10-02T12:22:41Z</time>
      </trkpt>
      <trkpt lat="49.29282" lon="-0.04339">
        <ele>62.2</ele>
        <time>2024-10-02T12:22:42Z</time>
      </trkpt>
      <trkpt lat="49.29283" lon="-0.04335">
        <ele>62.6</ele>
        <time>2024-10-02T12:22:43Z</time>
      </trkpt>
      <trkpt lat="49.29285" lon="-0.04331">
        <ele>63</ele>
        <time>2024-10-02T12:22:44Z</time>
      </trkpt>
      <trkpt lat="49.29286" lon="-0.04328">
        <ele>63.4</ele>
        <time>2024-10-02T12:22:45Z</time>
      </trkpt>
      <trkpt lat="49.29287" lon="-0.04324">
        <ele>63.8</ele>
        <time>2024-10-02T12:22:46Z</time>
      </trkpt>
      <trkpt lat="49.29288" lon="-0.0432">
        <ele>64</ele>
        <time>2024-10-02T12:22:47Z</time>
      </trkpt>
      <trkpt lat="49.29289" lon="-0.04316">
        <ele>64.2</ele>
        <time>2024-10-02T12:22:48Z</time>
      </trkpt>
      <trkpt lat="49.2929" lon="-0.04312">
        <ele>64.4</ele>
        <time>2024-10-02T12:22:49Z</time>
      </trkpt>
      <trkpt lat="49.29291" lon="-0.04307">
        <ele>64.6</ele>
        <time>2024-10-02T12:22:50Z</time>
      </trkpt>
      <trkpt lat="49.29291" lon="-0.04303">
        <ele>65</ele>
        <time>2024-10-02T12:22:51Z</time>
      </trkpt>
      <trkpt lat="49.2929" lon="-0.04298">
        <ele>65.2</ele>
        <time>2024-10-02T12:22:52Z</time>
      </trkpt>
      <trkpt lat="49.29289" lon="-0.04294">
        <ele>65.4</ele>
        <time>2024-10-02T12:22:53Z</time>
      </trkpt>
      <trkpt lat="49.29288" lon="-0.0429">
        <ele>65.8</ele>
        <time>2024-10-02T12:22:54Z</time>
      </trkpt>
      <trkpt lat="49.29287" lon="-0.04286">
        <ele>66.2</ele>
        <time>2024-10-02T12:22:55Z</time>
      </trkpt>
      <trkpt lat="49.29286" lon="-0.04282">
        <ele>66.4</ele>
        <time>2024-10-02T12:22:56Z</time>
      </trkpt>
      <trkpt lat="49.29285" lon="-0.04277">
        <ele>66.6</ele>
        <time>2024-10-02T12:22:57Z</time>
      </trkpt>
      <trkpt lat="49.29284" lon="-0.04273">
        <ele>66.8</ele>
        <time>2024-10-02T12:22:58Z</time>
      </trkpt>
      <trkpt lat="49.29283" lon="-0.04268">
        <ele>67.2</ele>
        <time>2024-10-02T12:22:59Z</time>
      </trkpt>
      <trkpt lat="49.29281" lon="-0.04264">
        <ele>67.4</ele>
        <time>2024-10-02T12:23:00Z</time>
      </trkpt>
      <trkpt lat="49.2928" lon="-0.0426">
        <ele>67.8</ele>
        <time>2024-10-02T12:23:01Z</time>
      </trkpt>
      <trkpt lat="49.29279" lon="-0.04255">
        <ele>68</ele>
        <time>2024-10-02T12:23:02Z</time>
      </trkpt>
      <trkpt lat="49.29278" lon="-0.04251">
        <ele>68</ele>
        <time>2024-10-02T12:23:03Z</time>
      </trkpt>
      <trkpt lat="49.29277" lon="-0.04247">
        <ele>68.2</ele>
        <time>2024-10-02T12:23:04Z</time>
      </trkpt>
      <trkpt lat="49.29276" lon="-0.04242">
        <ele>68.4</ele>
        <time>2024-10-02T12:23:05Z</time>
      </trkpt>
      <trkpt lat="49.29275" lon="-0.04238">
        <ele>68.8</ele>
        <time>2024-10-02T12:23:06Z</time>
      </trkpt>
      <trkpt lat="49.29274" lon="-0.04234">
        <ele>69.2</ele>
        <time>2024-10-02T12:23:07Z</time>
      </trkpt>
      <trkpt lat="49.29272" lon="-0.0423">
        <ele>69.6</ele>
        <time>2024-10-02T12:23:08Z</time>
      </trkpt>
      <trkpt lat="49.29271" lon="-0.04226">
        <ele>69.8</ele>
        <time>2024-10-02T12:23:09Z</time>
      </trkpt>
      <trkpt lat="49.29269" lon="-0.04223">
        <ele>70.2</ele>
        <time>2024-10-02T12:23:10Z</time>
      </trkpt>
      <trkpt lat="49.29267" lon="-0.04219">
        <ele>70.4</ele>
        <time>2024-10-02T12:23:11Z</time>
      </trkpt>
      <trkpt lat="49.29266" lon="-0.04215">
        <ele>70.8</ele>
        <time>2024-10-02T12:23:12Z</time>
      </trkpt>
      <trkpt lat="49.29265" lon="-0.04211">
        <ele>71.2</ele>
        <time>2024-10-02T12:23:13Z</time>
      </trkpt>
      <trkpt lat="49.29263" lon="-0.04206">
        <ele>71.4</ele>
        <time>2024-10-02T12:23:14Z</time>
      </trkpt>
      <trkpt lat="49.29262" lon="-0.04203">
        <ele>71.8</ele>
        <time>2024-10-02T12:23:15Z</time>
      </trkpt>
      <trkpt lat="49.29261" lon="-0.04199">
        <ele>72</ele>
        <time>2024-10-02T12:23:16Z</time>
      </trkpt>
      <trkpt lat="49.29259" lon="-0.04195">
        <ele>72.4</ele>
        <time>2024-10-02T12:23:17Z</time>
      </trkpt>
      <trkpt lat="49.29258" lon="-0.04191">
        <ele>72.8</ele>
        <time>2024-10-02T12:23:18Z</time>
      </trkpt>
      <trkpt lat="49.29257" lon="-0.04187">
        <ele>73.2</ele>
        <time>2024-10-02T12:23:19Z</time>
      </trkpt>
      <trkpt lat="49.29256" lon="-0.04183">
        <ele>73.4</ele>
        <time>2024-10-02T12:23:20Z</time>
      </trkpt>
      <trkpt lat="49.29254" lon="-0.04178">
        <ele>73.6</ele>
        <time>2024-10-02T12:23:21Z</time>
      </trkpt>
      <trkpt lat="49.29253" lon="-0.04174">
        <ele>74</ele>
        <time>2024-10-02T12:23:22Z</time>
      </trkpt>
      <trkpt lat="49.29253" lon="-0.0417">
        <ele>74.2</ele>
        <time>2024-10-02T12:23:23Z</time>
      </trkpt>
      <trkpt lat="49.29251" lon="-0.04165">
        <ele>74.2</ele>
        <time>2024-10-02T12:23:24Z</time>
      </trkpt>
      <trkpt lat="49.2925" lon="-0.04162">
        <ele>74.6</ele>
        <time>2024-10-02T12:23:25Z</time>
      </trkpt>
      <trkpt lat="49.29248" lon="-0.04156">
        <ele>74.8</ele>
        <time>2024-10-02T12:23:26Z</time>
      </trkpt>
      <trkpt lat="49.29247" lon="-0.04151">
        <ele>75</ele>
        <time>2024-10-02T12:23:27Z</time>
      </trkpt>
      <trkpt lat="49.29246" lon="-0.04146">
        <ele>75.4</ele>
        <time>2024-10-02T12:23:28Z</time>
      </trkpt>
      <trkpt lat="49.29246" lon="-0.04141">
        <ele>75.8</ele>
        <time>2024-10-02T12:23:29Z</time>
      </trkpt>
      <trkpt lat="49.29246" lon="-0.04137">
        <ele>76</ele>
        <time>2024-10-02T12:23:30Z</time>
      </trkpt>
      <trkpt lat="49.29244" lon="-0.04133">
        <ele>76.2</ele>
        <time>2024-10-02T12:23:31Z</time>
      </trkpt>
      <trkpt lat="49.29243" lon="-0.04128">
        <ele>76.6</ele>
        <time>2024-10-02T12:23:32Z</time>
      </trkpt>
      <trkpt lat="49.29241" lon="-0.04123">
        <ele>76.8</ele>
        <time>2024-10-02T12:23:33Z</time>
      </trkpt>
      <trkpt lat="49.2924" lon="-0.04119">
        <ele>77</ele>
        <time>2024-10-02T12:23:34Z</time>
      </trkpt>
      <trkpt lat="49.2924" lon="-0.04114">
        <ele>77</ele>
        <time>2024-10-02T12:23:35Z</time>
      </trkpt>
      <trkpt lat="49.29239" lon="-0.0411">
        <ele>77.4</ele>
        <time>2024-10-02T12:23:36Z</time>
      </trkpt>
      <trkpt lat="49.29238" lon="-0.04105">
        <ele>77.6</ele>
        <time>2024-10-02T12:23:37Z</time>
      </trkpt>
      <trkpt lat="49.29237" lon="-0.041">
        <ele>77.8</ele>
        <time>2024-10-02T12:23:38Z</time>
      </trkpt>
      <trkpt lat="49.29236" lon="-0.04096">
        <ele>78</ele>
        <time>2024-10-02T12:23:39Z</time>
      </trkpt>
      <trkpt lat="49.29234" lon="-0.0409">
        <ele>78.4</ele>
        <time>2024-10-02T12:23:40Z</time>
      </trkpt>
      <trkpt lat="49.29233" lon="-0.04085">
        <ele>78.6</ele>
        <time>2024-10-02T12:23:41Z</time>
      </trkpt>
      <trkpt lat="49.29232" lon="-0.04081">
        <ele>79</ele>
        <time>2024-10-02T12:23:42Z</time>
      </trkpt>
      <trkpt lat="49.29229" lon="-0.04074">
        <ele>79.2</ele>
        <time>2024-10-02T12:23:43Z</time>
      </trkpt>
      <trkpt lat="49.29228" lon="-0.0407">
        <ele>79.2</ele>
        <time>2024-10-02T12:23:44Z</time>
      </trkpt>
      <trkpt lat="49.29226" lon="-0.04064">
        <ele>79.4</ele>
        <time>2024-10-02T12:23:45Z</time>
      </trkpt>
      <trkpt lat="49.29224" lon="-0.04059">
        <ele>79.4</ele>
        <time>2024-10-02T12:23:46Z</time>
      </trkpt>
      <trkpt lat="49.29222" lon="-0.04052">
        <ele>79.6</ele>
        <time>2024-10-02T12:23:47Z</time>
      </trkpt>
      <trkpt lat="49.29219" lon="-0.04047">
        <ele>79.8</ele>
        <time>2024-10-02T12:23:48Z</time>
      </trkpt>
      <trkpt lat="49.29217" lon="-0.04041">
        <ele>80</ele>
        <time>2024-10-02T12:23:49Z</time>
      </trkpt>
      <trkpt lat="49.29214" lon="-0.04037">
        <ele>80.4</ele>
        <time>2024-10-02T12:23:50Z</time>
      </trkpt>
      <trkpt lat="49.29211" lon="-0.04032">
        <ele>80.6</ele>
        <time>2024-10-02T12:23:51Z</time>
      </trkpt>
      <trkpt lat="49.29208" lon="-0.04027">
        <ele>81</ele>
        <time>2024-10-02T12:23:52Z</time>
      </trkpt>
      <trkpt lat="49.29206" lon="-0.04022">
        <ele>81.2</ele>
        <time>2024-10-02T12:23:53Z</time>
      </trkpt>
      <trkpt lat="49.29204" lon="-0.04017">
        <ele>81.4</ele>
        <time>2024-10-02T12:23:54Z</time>
      </trkpt>
      <trkpt lat="49.29201" lon="-0.04013">
        <ele>81.6</ele>
        <time>2024-10-02T12:23:55Z</time>
      </trkpt>
      <trkpt lat="49.29198" lon="-0.04008">
        <ele>81.8</ele>
        <time>2024-10-02T12:23:56Z</time>
      </trkpt>
      <trkpt lat="49.29196" lon="-0.04003">
        <ele>82.2</ele>
        <time>2024-10-02T12:23:57Z</time>
      </trkpt>
      <trkpt lat="49.29193" lon="-0.03998">
        <ele>82.6</ele>
        <time>2024-10-02T12:23:58Z</time>
      </trkpt>
      <trkpt lat="49.29191" lon="-0.03993">
        <ele>82.8</ele>
        <time>2024-10-02T12:23:59Z</time>
      </trkpt>
      <trkpt lat="49.29188" lon="-0.03989">
        <ele>83</ele>
        <time>2024-10-02T12:24:00Z</time>
      </trkpt>
      <trkpt lat="49.29185" lon="-0.03983">
        <ele>83.2</ele>
        <time>2024-10-02T12:24:01Z</time>
      </trkpt>
      <trkpt lat="49.29183" lon="-0.03978">
        <ele>83.4</ele>
        <time>2024-10-02T12:24:02Z</time>
      </trkpt>
      <trkpt lat="49.29181" lon="-0.03972">
        <ele>83.4</ele>
        <time>2024-10-02T12:24:03Z</time>
      </trkpt>
      <trkpt lat="49.29178" lon="-0.03965">
        <ele>83.6</ele>
        <time>2024-10-02T12:24:04Z</time>
      </trkpt>
      <trkpt lat="49.29176" lon="-0.03959">
        <ele>83.6</ele>
        <time>2024-10-02T12:24:05Z</time>
      </trkpt>
      <trkpt lat="49.29174" lon="-0.03953">
        <ele>83.6</ele>
        <time>2024-10-02T12:24:06Z</time>
      </trkpt>
      <trkpt lat="49.29171" lon="-0.03947">
        <ele>83.8</ele>
        <time>2024-10-02T12:24:07Z</time>
      </trkpt>
      <trkpt lat="49.29169" lon="-0.0394">
        <ele>83.8</ele>
        <time>2024-10-02T12:24:08Z</time>
      </trkpt>
      <trkpt lat="49.29167" lon="-0.03933">
        <ele>84</ele>
        <time>2024-10-02T12:24:09Z</time>
      </trkpt>
      <trkpt lat="49.29165" lon="-0.03927">
        <ele>84.2</ele>
        <time>2024-10-02T12:24:10Z</time>
      </trkpt>
      <trkpt lat="49.29163" lon="-0.0392">
        <ele>84.4</ele>
        <time>2024-10-02T12:24:11Z</time>
      </trkpt>
      <trkpt lat="49.2916" lon="-0.03914">
        <ele>84.6</ele>
        <time>2024-10-02T12:24:12Z</time>
      </trkpt>
      <trkpt lat="49.29158" lon="-0.03907">
        <ele>84.8</ele>
        <time>2024-10-02T12:24:13Z</time>
      </trkpt>
      <trkpt lat="49.29156" lon="-0.03901">
        <ele>85</ele>
        <time>2024-10-02T12:24:14Z</time>
      </trkpt>
      <trkpt lat="49.29153" lon="-0.03894">
        <ele>85</ele>
        <time>2024-10-02T12:24:15Z</time>
      </trkpt>
      <trkpt lat="49.29151" lon="-0.03888">
        <ele>85</ele>
        <time>2024-10-02T12:24:16Z</time>
      </trkpt>
      <trkpt lat="49.29148" lon="-0.0388">
        <ele>85.2</ele>
        <time>2024-10-02T12:24:17Z</time>
      </trkpt>
      <trkpt lat="49.29147" lon="-0.03874">
        <ele>85.4</ele>
        <time>2024-10-02T12:24:18Z</time>
      </trkpt>
      <trkpt lat="49.29144" lon="-0.03867">
        <ele>85.4</ele>
        <time>2024-10-02T12:24:19Z</time>
      </trkpt>
      <trkpt lat="49.29142" lon="-0.03859">
        <ele>85.4</ele>
        <time>2024-10-02T12:24:20Z</time>
      </trkpt>
      <trkpt lat="49.2914" lon="-0.03852">
        <ele>85.4</ele>
        <time>2024-10-02T12:24:21Z</time>
      </trkpt>
      <trkpt lat="49.29138" lon="-0.03846">
        <ele>85.6</ele>
        <time>2024-10-02T12:24:22Z</time>
      </trkpt>
      <trkpt lat="49.29136" lon="-0.0384">
        <ele>85.8</ele>
        <time>2024-10-02T12:24:23Z</time>
      </trkpt>
      <trkpt lat="49.29134" lon="-0.03833">
        <ele>86</ele>
        <time>2024-10-02T12:24:24Z</time>
      </trkpt>
      <trkpt lat="49.29132" lon="-0.03827">
        <ele>86</ele>
        <time>2024-10-02T12:24:25Z</time>
      </trkpt>
      <trkpt lat="49.2913" lon="-0.0382">
        <ele>86.2</ele>
        <time>2024-10-02T12:24:26Z</time>
      </trkpt>
      <trkpt lat="49.29128" lon="-0.03814">
        <ele>86.2</ele>
        <time>2024-10-02T12:24:27Z</time>
      </trkpt>
      <trkpt lat="49.29126" lon="-0.03808">
        <ele>86.2</ele>
        <time>2024-10-02T12:24:28Z</time>
      </trkpt>
      <trkpt lat="49.29125" lon="-0.03802">
        <ele>86.4</ele>
        <time>2024-10-02T12:24:29Z</time>
      </trkpt>
      <trkpt lat="49.29123" lon="-0.03795">
        <ele>86.4</ele>
        <time>2024-10-02T12:24:30Z</time>
      </trkpt>
      <trkpt lat="49.29121" lon="-0.03789">
        <ele>86.6</ele>
        <time>2024-10-02T12:24:31Z</time>
      </trkpt>
      <trkpt lat="49.29119" lon="-0.03783">
        <ele>86.6</ele>
        <time>2024-10-02T12:24:32Z</time>
      </trkpt>
      <trkpt lat="49.29117" lon="-0.03777">
        <ele>86.8</ele>
        <time>2024-10-02T12:24:33Z</time>
      </trkpt>
      <trkpt lat="49.29115" lon="-0.03771">
        <ele>87</ele>
        <time>2024-10-02T12:24:34Z</time>
      </trkpt>
      <trkpt lat="49.29113" lon="-0.03766">
        <ele>87.2</ele>
        <time>2024-10-02T12:24:35Z</time>
      </trkpt>
      <trkpt lat="49.29111" lon="-0.03759">
        <ele>87.6</ele>
        <time>2024-10-02T12:24:36Z</time>
      </trkpt>
      <trkpt lat="49.29109" lon="-0.03753">
        <ele>87.8</ele>
        <time>2024-10-02T12:24:37Z</time>
      </trkpt>
      <trkpt lat="49.29107" lon="-0.03747">
        <ele>88.2</ele>
        <time>2024-10-02T12:24:38Z</time>
      </trkpt>
      <trkpt lat="49.29105" lon="-0.03741">
        <ele>88.4</ele>
        <time>2024-10-02T12:24:39Z</time>
      </trkpt>
      <trkpt lat="49.29103" lon="-0.03735">
        <ele>88.8</ele>
        <time>2024-10-02T12:24:40Z</time>
      </trkpt>
      <trkpt lat="49.29101" lon="-0.03729">
        <ele>89</ele>
        <time>2024-10-02T12:24:41Z</time>
      </trkpt>
      <trkpt lat="49.29099" lon="-0.03723">
        <ele>89.2</ele>
        <time>2024-10-02T12:24:42Z</time>
      </trkpt>
      <trkpt lat="49.29097" lon="-0.03718">
        <ele>89.4</ele>
        <time>2024-10-02T12:24:43Z</time>
      </trkpt>
      <trkpt lat="49.29095" lon="-0.03711">
        <ele>89.8</ele>
        <time>2024-10-02T12:24:44Z</time>
      </trkpt>
      <trkpt lat="49.29094" lon="-0.03706">
        <ele>90</ele>
        <time>2024-10-02T12:24:45Z</time>
      </trkpt>
      <trkpt lat="49.29091" lon="-0.03698">
        <ele>90.2</ele>
        <time>2024-10-02T12:24:46Z</time>
      </trkpt>
      <trkpt lat="49.2909" lon="-0.03693">
        <ele>90.4</ele>
        <time>2024-10-02T12:24:47Z</time>
      </trkpt>
      <trkpt lat="49.29087" lon="-0.03685">
        <ele>90.6</ele>
        <time>2024-10-02T12:24:48Z</time>
      </trkpt>
      <trkpt lat="49.29085" lon="-0.03679">
        <ele>90.8</ele>
        <time>2024-10-02T12:24:49Z</time>
      </trkpt>
      <trkpt lat="49.29083" lon="-0.03672">
        <ele>91.2</ele>
        <time>2024-10-02T12:24:50Z</time>
      </trkpt>
      <trkpt lat="49.29081" lon="-0.03666">
        <ele>91.2</ele>
        <time>2024-10-02T12:24:51Z</time>
      </trkpt>
      <trkpt lat="49.29079" lon="-0.0366">
        <ele>91.4</ele>
        <time>2024-10-02T12:24:52Z</time>
      </trkpt>
      <trkpt lat="49.29077" lon="-0.03654">
        <ele>91.6</ele>
        <time>2024-10-02T12:24:53Z</time>
      </trkpt>
      <trkpt lat="49.29074" lon="-0.03648">
        <ele>92</ele>
        <time>2024-10-02T12:24:54Z</time>
      </trkpt>
      <trkpt lat="49.29072" lon="-0.03642">
        <ele>92.2</ele>
        <time>2024-10-02T12:24:55Z</time>
      </trkpt>
      <trkpt lat="49.29071" lon="-0.03636">
        <ele>92.6</ele>
        <time>2024-10-02T12:24:56Z</time>
      </trkpt>
      <trkpt lat="49.29069" lon="-0.03629">
        <ele>92.8</ele>
        <time>2024-10-02T12:24:57Z</time>
      </trkpt>
      <trkpt lat="49.29066" lon="-0.03624">
        <ele>93</ele>
        <time>2024-10-02T12:24:58Z</time>
      </trkpt>
      <trkpt lat="49.29064" lon="-0.03618">
        <ele>93.2</ele>
        <time>2024-10-02T12:24:59Z</time>
      </trkpt>
      <trkpt lat="49.29062" lon="-0.03613">
        <ele>93.6</ele>
        <time>2024-10-02T12:25:00Z</time>
      </trkpt>
      <trkpt lat="49.2906" lon="-0.03607">
        <ele>94</ele>
        <time>2024-10-02T12:25:01Z</time>
      </trkpt>
      <trkpt lat="49.29058" lon="-0.03601">
        <ele>94.2</ele>
        <time>2024-10-02T12:25:02Z</time>
      </trkpt>
      <trkpt lat="49.29056" lon="-0.03595">
        <ele>94.2</ele>
        <time>2024-10-02T12:25:03Z</time>
      </trkpt>
      <trkpt lat="49.29053" lon="-0.03589">
        <ele>94.4</ele>
        <time>2024-10-02T12:25:04Z</time>
      </trkpt>
      <trkpt lat="49.29051" lon="-0.03584">
        <ele>94.8</ele>
        <time>2024-10-02T12:25:05Z</time>
      </trkpt>
      <trkpt lat="49.29048" lon="-0.03579">
        <ele>95</ele>
        <time>2024-10-02T12:25:06Z</time>
      </trkpt>
      <trkpt lat="49.29046" lon="-0.03574">
        <ele>95.2</ele>
        <time>2024-10-02T12:25:07Z</time>
      </trkpt>
      <trkpt lat="49.29044" lon="-0.03569">
        <ele>95.6</ele>
        <time>2024-10-02T12:25:08Z</time>
      </trkpt>
      <trkpt lat="49.29042" lon="-0.03564">
        <ele>95.8</ele>
        <time>2024-10-02T12:25:09Z</time>
      </trkpt>
      <trkpt lat="49.2904" lon="-0.03559">
        <ele>96</ele>
        <time>2024-10-02T12:25:10Z</time>
      </trkpt>
      <trkpt lat="49.29037" lon="-0.03554">
        <ele>96.2</ele>
        <time>2024-10-02T12:25:11Z</time>
      </trkpt>
      <trkpt lat="49.29035" lon="-0.03549">
        <ele>96.6</ele>
        <time>2024-10-02T12:25:12Z</time>
      </trkpt>
      <trkpt lat="49.29032" lon="-0.03544">
        <ele>96.6</ele>
        <time>2024-10-02T12:25:13Z</time>
      </trkpt>
      <trkpt lat="49.2903" lon="-0.03539">
        <ele>96.8</ele>
        <time>2024-10-02T12:25:14Z</time>
      </trkpt>
      <trkpt lat="49.29028" lon="-0.03534">
        <ele>97</ele>
        <time>2024-10-02T12:25:15Z</time>
      </trkpt>
      <trkpt lat="49.29026" lon="-0.0353">
        <ele>97.2</ele>
        <time>2024-10-02T12:25:16Z</time>
      </trkpt>
      <trkpt lat="49.29023" lon="-0.03525">
        <ele>97.4</ele>
        <time>2024-10-02T12:25:17Z</time>
      </trkpt>
      <trkpt lat="49.29021" lon="-0.03521">
        <ele>97.8</ele>
        <time>2024-10-02T12:25:18Z</time>
      </trkpt>
      <trkpt lat="49.29019" lon="-0.03516">
        <ele>98</ele>
        <time>2024-10-02T12:25:19Z</time>
      </trkpt>
      <trkpt lat="49.29016" lon="-0.03511">
        <ele>98.2</ele>
        <time>2024-10-02T12:25:20Z</time>
      </trkpt>
      <trkpt lat="49.29013" lon="-0.03507">
        <ele>98.6</ele>
        <time>2024-10-02T12:25:21Z</time>
      </trkpt>
      <trkpt lat="49.2901" lon="-0.03503">
        <ele>98.8</ele>
        <time>2024-10-02T12:25:22Z</time>
      </trkpt>
      <trkpt lat="49.29008" lon="-0.03498">
        <ele>98.8</ele>
        <time>2024-10-02T12:25:23Z</time>
      </trkpt>
      <trkpt lat="49.29005" lon="-0.03493">
        <ele>99.2</ele>
        <time>2024-10-02T12:25:24Z</time>
      </trkpt>
      <trkpt lat="49.29004" lon="-0.03489">
        <ele>99.6</ele>
        <time>2024-10-02T12:25:25Z</time>
      </trkpt>
      <trkpt lat="49.29002" lon="-0.03485">
        <ele>99.8</ele>
        <time>2024-10-02T12:25:26Z</time>
      </trkpt>
      <trkpt lat="49.28999" lon="-0.0348">
        <ele>100</ele>
        <time>2024-10-02T12:25:27Z</time>
      </trkpt>
      <trkpt lat="49.28997" lon="-0.03475">
        <ele>100.2</ele>
        <time>2024-10-02T12:25:28Z</time>
      </trkpt>
      <trkpt lat="49.28994" lon="-0.0347">
        <ele>100.6</ele>
        <time>2024-10-02T12:25:29Z</time>
      </trkpt>
      <trkpt lat="49.28991" lon="-0.03466">
        <ele>100.8</ele>
        <time>2024-10-02T12:25:30Z</time>
      </trkpt>
      <trkpt lat="49.28989" lon="-0.03461">
        <ele>100.8</ele>
        <time>2024-10-02T12:25:31Z</time>
      </trkpt>
      <trkpt lat="49.28987" lon="-0.03455">
        <ele>101</ele>
        <time>2024-10-02T12:25:32Z</time>
      </trkpt>
      <trkpt lat="49.28985" lon="-0.0345">
        <ele>101.4</ele>
        <time>2024-10-02T12:25:33Z</time>
      </trkpt>
      <trkpt lat="49.28983" lon="-0.03445">
        <ele>101.4</ele>
        <time>2024-10-02T12:25:34Z</time>
      </trkpt>
      <trkpt lat="49.28981" lon="-0.0344">
        <ele>101.6</ele>
        <time>2024-10-02T12:25:35Z</time>
      </trkpt>
      <trkpt lat="49.28979" lon="-0.03435">
        <ele>101.8</ele>
        <time>2024-10-02T12:25:36Z</time>
      </trkpt>
      <trkpt lat="49.28978" lon="-0.0343">
        <ele>102.2</ele>
        <time>2024-10-02T12:25:37Z</time>
      </trkpt>
      <trkpt lat="49.28976" lon="-0.03424">
        <ele>102.4</ele>
        <time>2024-10-02T12:25:38Z</time>
      </trkpt>
      <trkpt lat="49.28974" lon="-0.03418">
        <ele>102.8</ele>
        <time>2024-10-02T12:25:39Z</time>
      </trkpt>
      <trkpt lat="49.28973" lon="-0.03413">
        <ele>103</ele>
        <time>2024-10-02T12:25:40Z</time>
      </trkpt>
      <trkpt lat="49.28972" lon="-0.03407">
        <ele>103.2</ele>
        <time>2024-10-02T12:25:41Z</time>
      </trkpt>
      <trkpt lat="49.2897" lon="-0.03401">
        <ele>103.4</ele>
        <time>2024-10-02T12:25:42Z</time>
      </trkpt>
      <trkpt lat="49.28968" lon="-0.03396">
        <ele>103.6</ele>
        <time>2024-10-02T12:25:43Z</time>
      </trkpt>
      <trkpt lat="49.28966" lon="-0.03391">
        <ele>103.8</ele>
        <time>2024-10-02T12:25:44Z</time>
      </trkpt>
      <trkpt lat="49.28964" lon="-0.03385">
        <ele>104</ele>
        <time>2024-10-02T12:25:45Z</time>
      </trkpt>
      <trkpt lat="49.28963" lon="-0.03379">
        <ele>104.4</ele>
        <time>2024-10-02T12:25:46Z</time>
      </trkpt>
      <trkpt lat="49.28961" lon="-0.03374">
        <ele>104.6</ele>
        <time>2024-10-02T12:25:47Z</time>
      </trkpt>
      <trkpt lat="49.28959" lon="-0.03368">
        <ele>105</ele>
        <time>2024-10-02T12:25:48Z</time>
      </trkpt>
      <trkpt lat="49.28957" lon="-0.03362">
        <ele>105.2</ele>
        <time>2024-10-02T12:25:49Z</time>
      </trkpt>
      <trkpt lat="49.28956" lon="-0.03356">
        <ele>105.6</ele>
        <time>2024-10-02T12:25:50Z</time>
      </trkpt>
      <trkpt lat="49.28954" lon="-0.0335">
        <ele>105.8</ele>
        <time>2024-10-02T12:25:51Z</time>
      </trkpt>
      <trkpt lat="49.28953" lon="-0.03345">
        <ele>106</ele>
        <time>2024-10-02T12:25:52Z</time>
      </trkpt>
      <trkpt lat="49.28951" lon="-0.03338">
        <ele>106.4</ele>
        <time>2024-10-02T12:25:53Z</time>
      </trkpt>
      <trkpt lat="49.28949" lon="-0.03332">
        <ele>106.6</ele>
        <time>2024-10-02T12:25:54Z</time>
      </trkpt>
      <trkpt lat="49.28947" lon="-0.03326">
        <ele>107</ele>
        <time>2024-10-02T12:25:55Z</time>
      </trkpt>
      <trkpt lat="49.28945" lon="-0.0332">
        <ele>107</ele>
        <time>2024-10-02T12:25:56Z</time>
      </trkpt>
      <trkpt lat="49.28944" lon="-0.03314">
        <ele>107.2</ele>
        <time>2024-10-02T12:25:57Z</time>
      </trkpt>
      <trkpt lat="49.28942" lon="-0.03308">
        <ele>107.2</ele>
        <time>2024-10-02T12:25:58Z</time>
      </trkpt>
      <trkpt lat="49.28941" lon="-0.03301">
        <ele>107.4</ele>
        <time>2024-10-02T12:25:59Z</time>
      </trkpt>
      <trkpt lat="49.28939" lon="-0.03295">
        <ele>107.6</ele>
        <time>2024-10-02T12:26:00Z</time>
      </trkpt>
      <trkpt lat="49.28938" lon="-0.03289">
        <ele>107.6</ele>
        <time>2024-10-02T12:26:01Z</time>
      </trkpt>
      <trkpt lat="49.28937" lon="-0.03283">
        <ele>107.8</ele>
        <time>2024-10-02T12:26:02Z</time>
      </trkpt>
      <trkpt lat="49.28935" lon="-0.03277">
        <ele>108</ele>
        <time>2024-10-02T12:26:03Z</time>
      </trkpt>
      <trkpt lat="49.28934" lon="-0.0327">
        <ele>108.2</ele>
        <time>2024-10-02T12:26:04Z</time>
      </trkpt>
      <trkpt lat="49.28933" lon="-0.03264">
        <ele>108.6</ele>
        <time>2024-10-02T12:26:05Z</time>
      </trkpt>
      <trkpt lat="49.28932" lon="-0.03258">
        <ele>108.8</ele>
        <time>2024-10-02T12:26:06Z</time>
      </trkpt>
      <trkpt lat="49.2893" lon="-0.03251">
        <ele>109</ele>
        <time>2024-10-02T12:26:07Z</time>
      </trkpt>
      <trkpt lat="49.28929" lon="-0.03245">
        <ele>109.2</ele>
        <time>2024-10-02T12:26:08Z</time>
      </trkpt>
      <trkpt lat="49.28928" lon="-0.03238">
        <ele>109.4</ele>
        <time>2024-10-02T12:26:09Z</time>
      </trkpt>
      <trkpt lat="49.28926" lon="-0.03232">
        <ele>109.6</ele>
        <time>2024-10-02T12:26:10Z</time>
      </trkpt>
      <trkpt lat="49.28926" lon="-0.03226">
        <ele>109.8</ele>
        <time>2024-10-02T12:26:11Z</time>
      </trkpt>
      <trkpt lat="49.28925" lon="-0.03219">
        <ele>109.8</ele>
        <time>2024-10-02T12:26:12Z</time>
      </trkpt>
      <trkpt lat="49.28923" lon="-0.03213">
        <ele>110</ele>
        <time>2024-10-02T12:26:13Z</time>
      </trkpt>
      <trkpt lat="49.28922" lon="-0.03206">
        <ele>110.2</ele>
        <time>2024-10-02T12:26:14Z</time>
      </trkpt>
      <trkpt lat="49.28921" lon="-0.032">
        <ele>110.2</ele>
        <time>2024-10-02T12:26:15Z</time>
      </trkpt>
      <trkpt lat="49.2892" lon="-0.03193">
        <ele>110.4</ele>
        <time>2024-10-02T12:26:16Z</time>
      </trkpt>
      <trkpt lat="49.28918" lon="-0.03187">
        <ele>110.4</ele>
        <time>2024-10-02T12:26:17Z</time>
      </trkpt>
      <trkpt lat="49.28918" lon="-0.0318">
        <ele>110.6</ele>
        <time>2024-10-02T12:26:18Z</time>
      </trkpt>
      <trkpt lat="49.28917" lon="-0.03174">
        <ele>110.8</ele>
        <time>2024-10-02T12:26:19Z</time>
      </trkpt>
      <trkpt lat="49.28915" lon="-0.03167">
        <ele>111</ele>
        <time>2024-10-02T12:26:20Z</time>
      </trkpt>
      <trkpt lat="49.28914" lon="-0.03161">
        <ele>111.4</ele>
        <time>2024-10-02T12:26:21Z</time>
      </trkpt>
      <trkpt lat="49.28912" lon="-0.03154">
        <ele>111.4</ele>
        <time>2024-10-02T12:26:22Z</time>
      </trkpt>
      <trkpt lat="49.2891" lon="-0.03148">
        <ele>111.6</ele>
        <time>2024-10-02T12:26:23Z</time>
      </trkpt>
      <trkpt lat="49.28909" lon="-0.03142">
        <ele>111.8</ele>
        <time>2024-10-02T12:26:24Z</time>
      </trkpt>
      <trkpt lat="49.28907" lon="-0.03135">
        <ele>112</ele>
        <time>2024-10-02T12:26:25Z</time>
      </trkpt>
      <trkpt lat="49.28905" lon="-0.03129">
        <ele>112</ele>
        <time>2024-10-02T12:26:26Z</time>
      </trkpt>
      <trkpt lat="49.28903" lon="-0.03123">
        <ele>112.2</ele>
        <time>2024-10-02T12:26:27Z</time>
      </trkpt>
      <trkpt lat="49.28901" lon="-0.03117">
        <ele>112.4</ele>
        <time>2024-10-02T12:26:28Z</time>
      </trkpt>
      <trkpt lat="49.289" lon="-0.0311">
        <ele>112.6</ele>
        <time>2024-10-02T12:26:29Z</time>
      </trkpt>
      <trkpt lat="49.28899" lon="-0.03105">
        <ele>112.8</ele>
        <time>2024-10-02T12:26:30Z</time>
      </trkpt>
      <trkpt lat="49.28897" lon="-0.03099">
        <ele>113</ele>
        <time>2024-10-02T12:26:31Z</time>
      </trkpt>
      <trkpt lat="49.28895" lon="-0.03092">
        <ele>113.4</ele>
        <time>2024-10-02T12:26:32Z</time>
      </trkpt>
      <trkpt lat="49.28893" lon="-0.03087">
        <ele>113.8</ele>
        <time>2024-10-02T12:26:33Z</time>
      </trkpt>
      <trkpt lat="49.28891" lon="-0.0308">
        <ele>114.2</ele>
        <time>2024-10-02T12:26:34Z</time>
      </trkpt>
      <trkpt lat="49.28889" lon="-0.03073">
        <ele>114.4</ele>
        <time>2024-10-02T12:26:35Z</time>
      </trkpt>
      <trkpt lat="49.28887" lon="-0.03067">
        <ele>114.6</ele>
        <time>2024-10-02T12:26:36Z</time>
      </trkpt>
      <trkpt lat="49.28885" lon="-0.0306">
        <ele>114.8</ele>
        <time>2024-10-02T12:26:37Z</time>
      </trkpt>
      <trkpt lat="49.28884" lon="-0.03053">
        <ele>115.2</ele>
        <time>2024-10-02T12:26:38Z</time>
      </trkpt>
      <trkpt lat="49.28882" lon="-0.03046">
        <ele>115.2</ele>
        <time>2024-10-02T12:26:39Z</time>
      </trkpt>
      <trkpt lat="49.2888" lon="-0.03039">
        <ele>115.6</ele>
        <time>2024-10-02T12:26:40Z</time>
      </trkpt>
      <trkpt lat="49.28878" lon="-0.03032">
        <ele>116</ele>
        <time>2024-10-02T12:26:41Z</time>
      </trkpt>
      <trkpt lat="49.28876" lon="-0.03026">
        <ele>116.2</ele>
        <time>2024-10-02T12:26:42Z</time>
      </trkpt>
      <trkpt lat="49.28875" lon="-0.03019">
        <ele>116.6</ele>
        <time>2024-10-02T12:26:43Z</time>
      </trkpt>
      <trkpt lat="49.28873" lon="-0.03012">
        <ele>117</ele>
        <time>2024-10-02T12:26:44Z</time>
      </trkpt>
      <trkpt lat="49.28871" lon="-0.03005">
        <ele>117.2</ele>
        <time>2024-10-02T12:26:45Z</time>
      </trkpt>
      <trkpt lat="49.28869" lon="-0.02998">
        <ele>117.4</ele>
        <time>2024-10-02T12:26:46Z</time>
      </trkpt>
      <trkpt lat="49.28867" lon="-0.02992">
        <ele>117.6</ele>
        <time>2024-10-02T12:26:47Z</time>
      </trkpt>
      <trkpt lat="49.28865" lon="-0.02986">
        <ele>117.8</ele>
        <time>2024-10-02T12:26:48Z</time>
      </trkpt>
      <trkpt lat="49.28862" lon="-0.02978">
        <ele>118</ele>
        <time>2024-10-02T12:26:49Z</time>
      </trkpt>
      <trkpt lat="49.2886" lon="-0.02971">
        <ele>118</ele>
        <time>2024-10-02T12:26:50Z</time>
      </trkpt>
      <trkpt lat="49.28858" lon="-0.02964">
        <ele>118</ele>
        <time>2024-10-02T12:26:51Z</time>
      </trkpt>
      <trkpt lat="49.28855" lon="-0.02958">
        <ele>118.2</ele>
        <time>2024-10-02T12:26:52Z</time>
      </trkpt>
      <trkpt lat="49.28853" lon="-0.02951">
        <ele>118.2</ele>
        <time>2024-10-02T12:26:53Z</time>
      </trkpt>
      <trkpt lat="49.28851" lon="-0.02944">
        <ele>118.6</ele>
        <time>2024-10-02T12:26:54Z</time>
      </trkpt>
      <trkpt lat="49.28849" lon="-0.02937">
        <ele>118.8</ele>
        <time>2024-10-02T12:26:55Z</time>
      </trkpt>
      <trkpt lat="49.28847" lon="-0.0293">
        <ele>118.8</ele>
        <time>2024-10-02T12:26:56Z</time>
      </trkpt>
      <trkpt lat="49.28844" lon="-0.02923">
        <ele>119</ele>
        <time>2024-10-02T12:26:57Z</time>
      </trkpt>
      <trkpt lat="49.28842" lon="-0.02916">
        <ele>119</ele>
        <time>2024-10-02T12:26:58Z</time>
      </trkpt>
      <trkpt lat="49.2884" lon="-0.02909">
        <ele>119</ele>
        <time>2024-10-02T12:26:59Z</time>
      </trkpt>
      <trkpt lat="49.28838" lon="-0.02901">
        <ele>119</ele>
        <time>2024-10-02T12:27:00Z</time>
      </trkpt>
      <trkpt lat="49.28836" lon="-0.02894">
        <ele>119.2</ele>
        <time>2024-10-02T12:27:01Z</time>
      </trkpt>
      <trkpt lat="49.28834" lon="-0.02887">
        <ele>119.4</ele>
        <time>2024-10-02T12:27:02Z</time>
      </trkpt>
      <trkpt lat="49.28832" lon="-0.02881">
        <ele>119.6</ele>
        <time>2024-10-02T12:27:03Z</time>
      </trkpt>
      <trkpt lat="49.28828" lon="-0.02873">
        <ele>119.8</ele>
        <time>2024-10-02T12:27:04Z</time>
      </trkpt>
      <trkpt lat="49.28825" lon="-0.02865">
        <ele>120</ele>
        <time>2024-10-02T12:27:05Z</time>
      </trkpt>
      <trkpt lat="49.28822" lon="-0.02858">
        <ele>120.2</ele>
        <time>2024-10-02T12:27:06Z</time>
      </trkpt>
      <trkpt lat="49.2882" lon="-0.02851">
        <ele>120.2</ele>
        <time>2024-10-02T12:27:07Z</time>
      </trkpt>
      <trkpt lat="49.28817" lon="-0.02843">
        <ele>120.4</ele>
        <time>2024-10-02T12:27:08Z</time>
      </trkpt>
      <trkpt lat="49.28814" lon="-0.02836">
        <ele>120.4</ele>
        <time>2024-10-02T12:27:09Z</time>
      </trkpt>
      <trkpt lat="49.28812" lon="-0.02828">
        <ele>120.6</ele>
        <time>2024-10-02T12:27:10Z</time>
      </trkpt>
      <trkpt lat="49.28809" lon="-0.02821">
        <ele>120.8</ele>
        <time>2024-10-02T12:27:11Z</time>
      </trkpt>
      <trkpt lat="49.28807" lon="-0.02813">
        <ele>121</ele>
        <time>2024-10-02T12:27:12Z</time>
      </trkpt>
      <trkpt lat="49.28804" lon="-0.02806">
        <ele>121.2</ele>
        <time>2024-10-02T12:27:13Z</time>
      </trkpt>
      <trkpt lat="49.28802" lon="-0.02798">
        <ele>121.4</ele>
        <time>2024-10-02T12:27:14Z</time>
      </trkpt>
      <trkpt lat="49.28799" lon="-0.02791">
        <ele>121.6</ele>
        <time>2024-10-02T12:27:15Z</time>
      </trkpt>
      <trkpt lat="49.28797" lon="-0.02783">
        <ele>121.8</ele>
        <time>2024-10-02T12:27:16Z</time>
      </trkpt>
      <trkpt lat="49.28794" lon="-0.02775">
        <ele>121.8</ele>
        <time>2024-10-02T12:27:17Z</time>
      </trkpt>
      <trkpt lat="49.28792" lon="-0.02768">
        <ele>122</ele>
        <time>2024-10-02T12:27:18Z</time>
      </trkpt>
      <trkpt lat="49.28789" lon="-0.0276">
        <ele>122</ele>
        <time>2024-10-02T12:27:19Z</time>
      </trkpt>
      <trkpt lat="49.28786" lon="-0.02752">
        <ele>122.2</ele>
        <time>2024-10-02T12:27:20Z</time>
      </trkpt>
      <trkpt lat="49.28784" lon="-0.02744">
        <ele>122.2</ele>
        <time>2024-10-02T12:27:21Z</time>
      </trkpt>
      <trkpt lat="49.28781" lon="-0.02736">
        <ele>122.2</ele>
        <time>2024-10-02T12:27:22Z</time>
      </trkpt>
      <trkpt lat="49.28779" lon="-0.02728">
        <ele>122.4</ele>
        <time>2024-10-02T12:27:23Z</time>
      </trkpt>
      <trkpt lat="49.28776" lon="-0.0272">
        <ele>122.6</ele>
        <time>2024-10-02T12:27:24Z</time>
      </trkpt>
      <trkpt lat="49.28774" lon="-0.02712">
        <ele>122.8</ele>
        <time>2024-10-02T12:27:25Z</time>
      </trkpt>
      <trkpt lat="49.28771" lon="-0.02704">
        <ele>123.2</ele>
        <time>2024-10-02T12:27:26Z</time>
      </trkpt>
      <trkpt lat="49.28768" lon="-0.02696">
        <ele>123.4</ele>
        <time>2024-10-02T12:27:27Z</time>
      </trkpt>
      <trkpt lat="49.28766" lon="-0.02689">
        <ele>123.6</ele>
        <time>2024-10-02T12:27:28Z</time>
      </trkpt>
      <trkpt lat="49.28763" lon="-0.02679">
        <ele>123.6</ele>
        <time>2024-10-02T12:27:29Z</time>
      </trkpt>
      <trkpt lat="49.28761" lon="-0.02671">
        <ele>123.8</ele>
        <time>2024-10-02T12:27:30Z</time>
      </trkpt>
      <trkpt lat="49.28758" lon="-0.02663">
        <ele>124</ele>
        <time>2024-10-02T12:27:31Z</time>
      </trkpt>
      <trkpt lat="49.28755" lon="-0.02654">
        <ele>124.2</ele>
        <time>2024-10-02T12:27:32Z</time>
      </trkpt>
      <trkpt lat="49.28752" lon="-0.02646">
        <ele>124.4</ele>
        <time>2024-10-02T12:27:33Z</time>
      </trkpt>
      <trkpt lat="49.2875" lon="-0.02637">
        <ele>124.4</ele>
        <time>2024-10-02T12:27:34Z</time>
      </trkpt>
      <trkpt lat="49.28747" lon="-0.02629">
        <ele>124.6</ele>
        <time>2024-10-02T12:27:35Z</time>
      </trkpt>
      <trkpt lat="49.28744" lon="-0.02621">
        <ele>124.8</ele>
        <time>2024-10-02T12:27:36Z</time>
      </trkpt>
      <trkpt lat="49.28742" lon="-0.02612">
        <ele>125</ele>
        <time>2024-10-02T12:27:37Z</time>
      </trkpt>
      <trkpt lat="49.28739" lon="-0.02604">
        <ele>125.2</ele>
        <time>2024-10-02T12:27:38Z</time>
      </trkpt>
      <trkpt lat="49.28737" lon="-0.02596">
        <ele>125.4</ele>
        <time>2024-10-02T12:27:39Z</time>
      </trkpt>
      <trkpt lat="49.28734" lon="-0.02587">
        <ele>125.4</ele>
        <time>2024-10-02T12:27:40Z</time>
      </trkpt>
      <trkpt lat="49.28732" lon="-0.02579">
        <ele>125.6</ele>
        <time>2024-10-02T12:27:41Z</time>
      </trkpt>
      <trkpt lat="49.28729" lon="-0.0257">
        <ele>125.6</ele>
        <time>2024-10-02T12:27:42Z</time>
      </trkpt>
      <trkpt lat="49.28727" lon="-0.02562">
        <ele>125.6</ele>
        <time>2024-10-02T12:27:43Z</time>
      </trkpt>
      <trkpt lat="49.28725" lon="-0.02554">
        <ele>125.8</ele>
        <time>2024-10-02T12:27:44Z</time>
      </trkpt>
      <trkpt lat="49.28722" lon="-0.02545">
        <ele>125.8</ele>
        <time>2024-10-02T12:27:45Z</time>
      </trkpt>
      <trkpt lat="49.28719" lon="-0.02537">
        <ele>126</ele>
        <time>2024-10-02T12:27:46Z</time>
      </trkpt>
      <trkpt lat="49.28718" lon="-0.02531">
        <ele>126.2</ele>
        <time>2024-10-02T12:27:47Z</time>
      </trkpt>
      <trkpt lat="49.28715" lon="-0.0252">
        <ele>126.4</ele>
        <time>2024-10-02T12:27:48Z</time>
      </trkpt>
      <trkpt lat="49.28712" lon="-0.02512">
        <ele>126.4</ele>
        <time>2024-10-02T12:27:49Z</time>
      </trkpt>
      <trkpt lat="49.28709" lon="-0.02503">
        <ele>126.6</ele>
        <time>2024-10-02T12:27:50Z</time>
      </trkpt>
      <trkpt lat="49.28707" lon="-0.02495">
        <ele>126.6</ele>
        <time>2024-10-02T12:27:51Z</time>
      </trkpt>
      <trkpt lat="49.28704" lon="-0.02486">
        <ele>126.6</ele>
        <time>2024-10-02T12:27:52Z</time>
      </trkpt>
      <trkpt lat="49.28702" lon="-0.02477">
        <ele>126.8</ele>
        <time>2024-10-02T12:27:53Z</time>
      </trkpt>
      <trkpt lat="49.28699" lon="-0.02468">
        <ele>126.8</ele>
        <time>2024-10-02T12:27:54Z</time>
      </trkpt>
      <trkpt lat="49.28697" lon="-0.02461">
        <ele>126.8</ele>
        <time>2024-10-02T12:27:55Z</time>
      </trkpt>
      <trkpt lat="49.28693" lon="-0.0245">
        <ele>126.8</ele>
        <time>2024-10-02T12:27:56Z</time>
      </trkpt>
      <trkpt lat="49.28691" lon="-0.02441">
        <ele>127.2</ele>
        <time>2024-10-02T12:27:57Z</time>
      </trkpt>
      <trkpt lat="49.28688" lon="-0.02432">
        <ele>127.4</ele>
        <time>2024-10-02T12:27:58Z</time>
      </trkpt>
      <trkpt lat="49.28685" lon="-0.02422">
        <ele>127.4</ele>
        <time>2024-10-02T12:27:59Z</time>
      </trkpt>
      <trkpt lat="49.28682" lon="-0.02413">
        <ele>127.6</ele>
        <time>2024-10-02T12:28:00Z</time>
      </trkpt>
      <trkpt lat="49.28679" lon="-0.02404">
        <ele>127.6</ele>
        <time>2024-10-02T12:28:01Z</time>
      </trkpt>
      <trkpt lat="49.28677" lon="-0.02395">
        <ele>127.6</ele>
        <time>2024-10-02T12:28:02Z</time>
      </trkpt>
      <trkpt lat="49.28675" lon="-0.02386">
        <ele>127.8</ele>
        <time>2024-10-02T12:28:03Z</time>
      </trkpt>
      <trkpt lat="49.28672" lon="-0.02377">
        <ele>127.8</ele>
        <time>2024-10-02T12:28:04Z</time>
      </trkpt>
      <trkpt lat="49.2867" lon="-0.02368">
        <ele>127.8</ele>
        <time>2024-10-02T12:28:05Z</time>
      </trkpt>
      <trkpt lat="49.28667" lon="-0.02359">
        <ele>127.8</ele>
        <time>2024-10-02T12:28:06Z</time>
      </trkpt>
      <trkpt lat="49.28665" lon="-0.0235">
        <ele>128</ele>
        <time>2024-10-02T12:28:07Z</time>
      </trkpt>
      <trkpt lat="49.28662" lon="-0.0234">
        <ele>128</ele>
        <time>2024-10-02T12:28:08Z</time>
      </trkpt>
      <trkpt lat="49.2866" lon="-0.02331">
        <ele>128.2</ele>
        <time>2024-10-02T12:28:09Z</time>
      </trkpt>
      <trkpt lat="49.28657" lon="-0.02322">
        <ele>128.2</ele>
        <time>2024-10-02T12:28:10Z</time>
      </trkpt>
      <trkpt lat="49.28654" lon="-0.02313">
        <ele>128.2</ele>
        <time>2024-10-02T12:28:11Z</time>
      </trkpt>
      <trkpt lat="49.28651" lon="-0.02304">
        <ele>128.2</ele>
        <time>2024-10-02T12:28:12Z</time>
      </trkpt>
      <trkpt lat="49.28648" lon="-0.02295">
        <ele>128.2</ele>
        <time>2024-10-02T12:28:13Z</time>
      </trkpt>
      <trkpt lat="49.28645" lon="-0.02286">
        <ele>128.4</ele>
        <time>2024-10-02T12:28:14Z</time>
      </trkpt>
      <trkpt lat="49.28642" lon="-0.02277">
        <ele>128.4</ele>
        <time>2024-10-02T12:28:15Z</time>
      </trkpt>
      <trkpt lat="49.28639" lon="-0.02268">
        <ele>128.4</ele>
        <time>2024-10-02T12:28:16Z</time>
      </trkpt>
      <trkpt lat="49.28636" lon="-0.02259">
        <ele>128.6</ele>
        <time>2024-10-02T12:28:17Z</time>
      </trkpt>
      <trkpt lat="49.28633" lon="-0.02249">
        <ele>128.6</ele>
        <time>2024-10-02T12:28:18Z</time>
      </trkpt>
      <trkpt lat="49.2863" lon="-0.0224">
        <ele>128.4</ele>
        <time>2024-10-02T12:28:19Z</time>
      </trkpt>
      <trkpt lat="49.28627" lon="-0.02231">
        <ele>128.6</ele>
        <time>2024-10-02T12:28:20Z</time>
      </trkpt>
      <trkpt lat="49.28624" lon="-0.02222">
        <ele>128.6</ele>
        <time>2024-10-02T12:28:21Z</time>
      </trkpt>
      <trkpt lat="49.28621" lon="-0.02216">
        <ele>128.6</ele>
        <time>2024-10-02T12:28:22Z</time>
      </trkpt>
      <trkpt lat="49.28617" lon="-0.02205">
        <ele>128.6</ele>
        <time>2024-10-02T12:28:23Z</time>
      </trkpt>
      <trkpt lat="49.28613" lon="-0.02197">
        <ele>128.8</ele>
        <time>2024-10-02T12:28:24Z</time>
      </trkpt>
      <trkpt lat="49.2861" lon="-0.02191">
        <ele>128.8</ele>
        <time>2024-10-02T12:28:25Z</time>
      </trkpt>
      <trkpt lat="49.28606" lon="-0.02181">
        <ele>128.8</ele>
        <time>2024-10-02T12:28:26Z</time>
      </trkpt>
      <trkpt lat="49.28602" lon="-0.02173">
        <ele>128.8</ele>
        <time>2024-10-02T12:28:27Z</time>
      </trkpt>
      <trkpt lat="49.28598" lon="-0.02165">
        <ele>128.8</ele>
        <time>2024-10-02T12:28:28Z</time>
      </trkpt>
      <trkpt lat="49.28594" lon="-0.02157">
        <ele>128.8</ele>
        <time>2024-10-02T12:28:29Z</time>
      </trkpt>
      <trkpt lat="49.2859" lon="-0.02149">
        <ele>128.8</ele>
        <time>2024-10-02T12:28:30Z</time>
      </trkpt>
      <trkpt lat="49.28586" lon="-0.02141">
        <ele>128.8</ele>
        <time>2024-10-02T12:28:31Z</time>
      </trkpt>
      <trkpt lat="49.28581" lon="-0.02133">
        <ele>128.8</ele>
        <time>2024-10-02T12:28:32Z</time>
      </trkpt>
      <trkpt lat="49.28577" lon="-0.02125">
        <ele>128.8</ele>
        <time>2024-10-02T12:28:33Z</time>
      </trkpt>
      <trkpt lat="49.28573" lon="-0.02117">
        <ele>128.8</ele>
        <time>2024-10-02T12:28:34Z</time>
      </trkpt>
      <trkpt lat="49.28569" lon="-0.02109">
        <ele>128.8</ele>
        <time>2024-10-02T12:28:35Z</time>
      </trkpt>
      <trkpt lat="49.28565" lon="-0.02101">
        <ele>128.8</ele>
        <time>2024-10-02T12:28:36Z</time>
      </trkpt>
      <trkpt lat="49.28561" lon="-0.02092">
        <ele>128.8</ele>
        <time>2024-10-02T12:28:37Z</time>
      </trkpt>
      <trkpt lat="49.28557" lon="-0.02083">
        <ele>128.8</ele>
        <time>2024-10-02T12:28:38Z</time>
      </trkpt>
      <trkpt lat="49.28553" lon="-0.02073">
        <ele>128.8</ele>
        <time>2024-10-02T12:28:39Z</time>
      </trkpt>
      <trkpt lat="49.28549" lon="-0.02064">
        <ele>128.8</ele>
        <time>2024-10-02T12:28:40Z</time>
      </trkpt>
      <trkpt lat="49.28544" lon="-0.02055">
        <ele>129</ele>
        <time>2024-10-02T12:28:41Z</time>
      </trkpt>
      <trkpt lat="49.2854" lon="-0.02046">
        <ele>129</ele>
        <time>2024-10-02T12:28:42Z</time>
      </trkpt>
      <trkpt lat="49.28536" lon="-0.02036">
        <ele>129</ele>
        <time>2024-10-02T12:28:43Z</time>
      </trkpt>
      <trkpt lat="49.28532" lon="-0.02027">
        <ele>129</ele>
        <time>2024-10-02T12:28:44Z</time>
      </trkpt>
      <trkpt lat="49.28528" lon="-0.02018">
        <ele>129</ele>
        <time>2024-10-02T12:28:45Z</time>
      </trkpt>
      <trkpt lat="49.28524" lon="-0.0201">
        <ele>129</ele>
        <time>2024-10-02T12:28:46Z</time>
      </trkpt>
      <trkpt lat="49.2852" lon="-0.02001">
        <ele>129</ele>
        <time>2024-10-02T12:28:47Z</time>
      </trkpt>
      <trkpt lat="49.28517" lon="-0.01993">
        <ele>129</ele>
        <time>2024-10-02T12:28:48Z</time>
      </trkpt>
      <trkpt lat="49.28513" lon="-0.01985">
        <ele>129</ele>
        <time>2024-10-02T12:28:49Z</time>
      </trkpt>
      <trkpt lat="49.2851" lon="-0.01976">
        <ele>129.2</ele>
        <time>2024-10-02T12:28:50Z</time>
      </trkpt>
      <trkpt lat="49.28506" lon="-0.01967">
        <ele>129.6</ele>
        <time>2024-10-02T12:28:51Z</time>
      </trkpt>
      <trkpt lat="49.28503" lon="-0.01959">
        <ele>129.8</ele>
        <time>2024-10-02T12:28:52Z</time>
      </trkpt>
      <trkpt lat="49.28499" lon="-0.0195">
        <ele>130</ele>
        <time>2024-10-02T12:28:53Z</time>
      </trkpt>
      <trkpt lat="49.28496" lon="-0.01942">
        <ele>130</ele>
        <time>2024-10-02T12:28:54Z</time>
      </trkpt>
      <trkpt lat="49.28492" lon="-0.01933">
        <ele>130.2</ele>
        <time>2024-10-02T12:28:55Z</time>
      </trkpt>
      <trkpt lat="49.28489" lon="-0.01925">
        <ele>130.4</ele>
        <time>2024-10-02T12:28:56Z</time>
      </trkpt>
      <trkpt lat="49.28486" lon="-0.01916">
        <ele>130.4</ele>
        <time>2024-10-02T12:28:57Z</time>
      </trkpt>
      <trkpt lat="49.28481" lon="-0.01908">
        <ele>130.6</ele>
        <time>2024-10-02T12:28:58Z</time>
      </trkpt>
      <trkpt lat="49.28477" lon="-0.019">
        <ele>130.6</ele>
        <time>2024-10-02T12:28:59Z</time>
      </trkpt>
      <trkpt lat="49.28473" lon="-0.01892">
        <ele>130.6</ele>
        <time>2024-10-02T12:29:00Z</time>
      </trkpt>
      <trkpt lat="49.28469" lon="-0.01884">
        <ele>130.8</ele>
        <time>2024-10-02T12:29:01Z</time>
      </trkpt>
      <trkpt lat="49.28465" lon="-0.01876">
        <ele>131</ele>
        <time>2024-10-02T12:29:02Z</time>
      </trkpt>
      <trkpt lat="49.2846" lon="-0.01869">
        <ele>131.2</ele>
        <time>2024-10-02T12:29:03Z</time>
      </trkpt>
      <trkpt lat="49.28457" lon="-0.01862">
        <ele>131.2</ele>
        <time>2024-10-02T12:29:04Z</time>
      </trkpt>
      <trkpt lat="49.28452" lon="-0.01853">
        <ele>131.4</ele>
        <time>2024-10-02T12:29:05Z</time>
      </trkpt>
      <trkpt lat="49.28447" lon="-0.01846">
        <ele>131.4</ele>
        <time>2024-10-02T12:29:06Z</time>
      </trkpt>
      <trkpt lat="49.28443" lon="-0.01838">
        <ele>131.4</ele>
        <time>2024-10-02T12:29:07Z</time>
      </trkpt>
      <trkpt lat="49.28438" lon="-0.0183">
        <ele>131.6</ele>
        <time>2024-10-02T12:29:08Z</time>
      </trkpt>
      <trkpt lat="49.28433" lon="-0.01822">
        <ele>131.6</ele>
        <time>2024-10-02T12:29:09Z</time>
      </trkpt>
      <trkpt lat="49.28428" lon="-0.01814">
        <ele>131.6</ele>
        <time>2024-10-02T12:29:10Z</time>
      </trkpt>
      <trkpt lat="49.28424" lon="-0.01806">
        <ele>131.6</ele>
        <time>2024-10-02T12:29:11Z</time>
      </trkpt>
      <trkpt lat="49.28419" lon="-0.01798">
        <ele>131.8</ele>
        <time>2024-10-02T12:29:12Z</time>
      </trkpt>
      <trkpt lat="49.28415" lon="-0.0179">
        <ele>131.8</ele>
        <time>2024-10-02T12:29:13Z</time>
      </trkpt>
      <trkpt lat="49.28411" lon="-0.01783">
        <ele>131.8</ele>
        <time>2024-10-02T12:29:14Z</time>
      </trkpt>
      <trkpt lat="49.28407" lon="-0.01775">
        <ele>131.8</ele>
        <time>2024-10-02T12:29:15Z</time>
      </trkpt>
      <trkpt lat="49.28403" lon="-0.01767">
        <ele>131.8</ele>
        <time>2024-10-02T12:29:16Z</time>
      </trkpt>
      <trkpt lat="49.28399" lon="-0.01759">
        <ele>131.8</ele>
        <time>2024-10-02T12:29:17Z</time>
      </trkpt>
      <trkpt lat="49.28395" lon="-0.0175">
        <ele>131.8</ele>
        <time>2024-10-02T12:29:18Z</time>
      </trkpt>
      <trkpt lat="49.28392" lon="-0.01742">
        <ele>131.8</ele>
        <time>2024-10-02T12:29:19Z</time>
      </trkpt>
      <trkpt lat="49.28389" lon="-0.01733">
        <ele>131.8</ele>
        <time>2024-10-02T12:29:20Z</time>
      </trkpt>
      <trkpt lat="49.28386" lon="-0.01724">
        <ele>131.6</ele>
        <time>2024-10-02T12:29:21Z</time>
      </trkpt>
      <trkpt lat="49.28383" lon="-0.01715">
        <ele>131.6</ele>
        <time>2024-10-02T12:29:22Z</time>
      </trkpt>
      <trkpt lat="49.2838" lon="-0.01706">
        <ele>131.6</ele>
        <time>2024-10-02T12:29:23Z</time>
      </trkpt>
      <trkpt lat="49.28377" lon="-0.01699">
        <ele>131.6</ele>
        <time>2024-10-02T12:29:24Z</time>
      </trkpt>
      <trkpt lat="49.28374" lon="-0.01689">
        <ele>131.6</ele>
        <time>2024-10-02T12:29:25Z</time>
      </trkpt>
      <trkpt lat="49.28372" lon="-0.0168">
        <ele>131.6</ele>
        <time>2024-10-02T12:29:26Z</time>
      </trkpt>
      <trkpt lat="49.2837" lon="-0.01671">
        <ele>131.6</ele>
        <time>2024-10-02T12:29:27Z</time>
      </trkpt>
      <trkpt lat="49.28367" lon="-0.01662">
        <ele>131.6</ele>
        <time>2024-10-02T12:29:28Z</time>
      </trkpt>
      <trkpt lat="49.28364" lon="-0.01653">
        <ele>131.6</ele>
        <time>2024-10-02T12:29:29Z</time>
      </trkpt>
      <trkpt lat="49.28362" lon="-0.01645">
        <ele>131.6</ele>
        <time>2024-10-02T12:29:30Z</time>
      </trkpt>
      <trkpt lat="49.28359" lon="-0.01634">
        <ele>131.8</ele>
        <time>2024-10-02T12:29:31Z</time>
      </trkpt>
      <trkpt lat="49.28356" lon="-0.01624">
        <ele>131.8</ele>
        <time>2024-10-02T12:29:32Z</time>
      </trkpt>
      <trkpt lat="49.28353" lon="-0.01615">
        <ele>132</ele>
        <time>2024-10-02T12:29:33Z</time>
      </trkpt>
      <trkpt lat="49.2835" lon="-0.01606">
        <ele>132</ele>
        <time>2024-10-02T12:29:34Z</time>
      </trkpt>
      <trkpt lat="49.28346" lon="-0.01596">
        <ele>132.2</ele>
        <time>2024-10-02T12:29:35Z</time>
      </trkpt>
      <trkpt lat="49.28342" lon="-0.01588">
        <ele>132.4</ele>
        <time>2024-10-02T12:29:36Z</time>
      </trkpt>
      <trkpt lat="49.28339" lon="-0.01579">
        <ele>132.6</ele>
        <time>2024-10-02T12:29:37Z</time>
      </trkpt>
      <trkpt lat="49.28336" lon="-0.01571">
        <ele>132.8</ele>
        <time>2024-10-02T12:29:38Z</time>
      </trkpt>
      <trkpt lat="49.28334" lon="-0.01565">
        <ele>133</ele>
        <time>2024-10-02T12:29:39Z</time>
      </trkpt>
      <trkpt lat="49.2833" lon="-0.01554">
        <ele>133.2</ele>
        <time>2024-10-02T12:29:40Z</time>
      </trkpt>
      <trkpt lat="49.28327" lon="-0.01546">
        <ele>133.2</ele>
        <time>2024-10-02T12:29:41Z</time>
      </trkpt>
      <trkpt lat="49.28323" lon="-0.01537">
        <ele>133.4</ele>
        <time>2024-10-02T12:29:42Z</time>
      </trkpt>
      <trkpt lat="49.2832" lon="-0.01529">
        <ele>133.6</ele>
        <time>2024-10-02T12:29:43Z</time>
      </trkpt>
      <trkpt lat="49.28317" lon="-0.01521">
        <ele>133.6</ele>
        <time>2024-10-02T12:29:44Z</time>
      </trkpt>
      <trkpt lat="49.28313" lon="-0.01513">
        <ele>133.8</ele>
        <time>2024-10-02T12:29:45Z</time>
      </trkpt>
      <trkpt lat="49.2831" lon="-0.01504">
        <ele>133.8</ele>
        <time>2024-10-02T12:29:46Z</time>
      </trkpt>
      <trkpt lat="49.28307" lon="-0.01496">
        <ele>134.2</ele>
        <time>2024-10-02T12:29:47Z</time>
      </trkpt>
      <trkpt lat="49.28304" lon="-0.01487">
        <ele>134.4</ele>
        <time>2024-10-02T12:29:48Z</time>
      </trkpt>
      <trkpt lat="49.28301" lon="-0.01479">
        <ele>134.4</ele>
        <time>2024-10-02T12:29:49Z</time>
      </trkpt>
      <trkpt lat="49.28298" lon="-0.01471">
        <ele>134.6</ele>
        <time>2024-10-02T12:29:50Z</time>
      </trkpt>
      <trkpt lat="49.28294" lon="-0.01463">
        <ele>134.8</ele>
        <time>2024-10-02T12:29:51Z</time>
      </trkpt>
      <trkpt lat="49.28292" lon="-0.01457">
        <ele>134.8</ele>
        <time>2024-10-02T12:29:52Z</time>
      </trkpt>
      <trkpt lat="49.28288" lon="-0.01447">
        <ele>135</ele>
        <time>2024-10-02T12:29:53Z</time>
      </trkpt>
      <trkpt lat="49.28284" lon="-0.01439">
        <ele>135.2</ele>
        <time>2024-10-02T12:29:54Z</time>
      </trkpt>
      <trkpt lat="49.28281" lon="-0.01431">
        <ele>135.4</ele>
        <time>2024-10-02T12:29:55Z</time>
      </trkpt>
      <trkpt lat="49.28278" lon="-0.01423">
        <ele>135.4</ele>
        <time>2024-10-02T12:29:56Z</time>
      </trkpt>
      <trkpt lat="49.28275" lon="-0.01415">
        <ele>135.6</ele>
        <time>2024-10-02T12:29:57Z</time>
      </trkpt>
      <trkpt lat="49.28272" lon="-0.01407">
        <ele>135.6</ele>
        <time>2024-10-02T12:29:58Z</time>
      </trkpt>
      <trkpt lat="49.28269" lon="-0.01399">
        <ele>136</ele>
        <time>2024-10-02T12:29:59Z</time>
      </trkpt>
      <trkpt lat="49.28266" lon="-0.01391">
        <ele>136.4</ele>
        <time>2024-10-02T12:30:00Z</time>
      </trkpt>
      <trkpt lat="49.28264" lon="-0.01382">
        <ele>136.6</ele>
        <time>2024-10-02T12:30:01Z</time>
      </trkpt>
      <trkpt lat="49.28261" lon="-0.01374">
        <ele>136.8</ele>
        <time>2024-10-02T12:30:02Z</time>
      </trkpt>
      <trkpt lat="49.28259" lon="-0.01365">
        <ele>137</ele>
        <time>2024-10-02T12:30:03Z</time>
      </trkpt>
      <trkpt lat="49.28256" lon="-0.01357">
        <ele>137</ele>
        <time>2024-10-02T12:30:04Z</time>
      </trkpt>
      <trkpt lat="49.28254" lon="-0.01348">
        <ele>137.2</ele>
        <time>2024-10-02T12:30:05Z</time>
      </trkpt>
      <trkpt lat="49.28252" lon="-0.0134">
        <ele>137.2</ele>
        <time>2024-10-02T12:30:06Z</time>
      </trkpt>
      <trkpt lat="49.28249" lon="-0.01332">
        <ele>137.2</ele>
        <time>2024-10-02T12:30:07Z</time>
      </trkpt>
      <trkpt lat="49.28247" lon="-0.01324">
        <ele>137.4</ele>
        <time>2024-10-02T12:30:08Z</time>
      </trkpt>
      <trkpt lat="49.28244" lon="-0.01316">
        <ele>137.4</ele>
        <time>2024-10-02T12:30:09Z</time>
      </trkpt>
      <trkpt lat="49.28242" lon="-0.01308">
        <ele>137.4</ele>
        <time>2024-10-02T12:30:10Z</time>
      </trkpt>
      <trkpt lat="49.28239" lon="-0.013">
        <ele>137.4</ele>
        <time>2024-10-02T12:30:11Z</time>
      </trkpt>
      <trkpt lat="49.28236" lon="-0.01292">
        <ele>137.6</ele>
        <time>2024-10-02T12:30:12Z</time>
      </trkpt>
      <trkpt lat="49.28234" lon="-0.01284">
        <ele>137.6</ele>
        <time>2024-10-02T12:30:13Z</time>
      </trkpt>
      <trkpt lat="49.28231" lon="-0.01276">
        <ele>137.6</ele>
        <time>2024-10-02T12:30:14Z</time>
      </trkpt>
      <trkpt lat="49.28228" lon="-0.01268">
        <ele>137.6</ele>
        <time>2024-10-02T12:30:15Z</time>
      </trkpt>
      <trkpt lat="49.28225" lon="-0.0126">
        <ele>137.8</ele>
        <time>2024-10-02T12:30:16Z</time>
      </trkpt>
      <trkpt lat="49.28223" lon="-0.01253">
        <ele>137.8</ele>
        <time>2024-10-02T12:30:17Z</time>
      </trkpt>
      <trkpt lat="49.2822" lon="-0.01245">
        <ele>138</ele>
        <time>2024-10-02T12:30:18Z</time>
      </trkpt>
      <trkpt lat="49.28217" lon="-0.01238">
        <ele>138</ele>
        <time>2024-10-02T12:30:19Z</time>
      </trkpt>
      <trkpt lat="49.28214" lon="-0.0123">
        <ele>138.2</ele>
        <time>2024-10-02T12:30:20Z</time>
      </trkpt>
      <trkpt lat="49.28211" lon="-0.01224">
        <ele>138.2</ele>
        <time>2024-10-02T12:30:21Z</time>
      </trkpt>
      <trkpt lat="49.28207" lon="-0.01216">
        <ele>138.4</ele>
        <time>2024-10-02T12:30:22Z</time>
      </trkpt>
      <trkpt lat="49.28204" lon="-0.01209">
        <ele>138.6</ele>
        <time>2024-10-02T12:30:23Z</time>
      </trkpt>
      <trkpt lat="49.282" lon="-0.01203">
        <ele>138.6</ele>
        <time>2024-10-02T12:30:24Z</time>
      </trkpt>
      <trkpt lat="49.28196" lon="-0.01196">
        <ele>139</ele>
        <time>2024-10-02T12:30:25Z</time>
      </trkpt>
      <trkpt lat="49.28193" lon="-0.0119">
        <ele>139.2</ele>
        <time>2024-10-02T12:30:26Z</time>
      </trkpt>
      <trkpt lat="49.28189" lon="-0.01185">
        <ele>139.4</ele>
        <time>2024-10-02T12:30:27Z</time>
      </trkpt>
      <trkpt lat="49.28184" lon="-0.01179">
        <ele>139.4</ele>
        <time>2024-10-02T12:30:28Z</time>
      </trkpt>
      <trkpt lat="49.28179" lon="-0.01174">
        <ele>139.6</ele>
        <time>2024-10-02T12:30:29Z</time>
      </trkpt>
      <trkpt lat="49.28175" lon="-0.01169">
        <ele>140</ele>
        <time>2024-10-02T12:30:30Z</time>
      </trkpt>
      <trkpt lat="49.2817" lon="-0.01164">
        <ele>140</ele>
        <time>2024-10-02T12:30:31Z</time>
      </trkpt>
      <trkpt lat="49.28164" lon="-0.01159">
        <ele>140.2</ele>
        <time>2024-10-02T12:30:32Z</time>
      </trkpt>
      <trkpt lat="49.28159" lon="-0.01154">
        <ele>140.4</ele>
        <time>2024-10-02T12:30:33Z</time>
      </trkpt>
      <trkpt lat="49.28154" lon="-0.01149">
        <ele>140.6</ele>
        <time>2024-10-02T12:30:34Z</time>
      </trkpt>
      <trkpt lat="49.28149" lon="-0.01145">
        <ele>140.8</ele>
        <time>2024-10-02T12:30:35Z</time>
      </trkpt>
      <trkpt lat="49.28143" lon="-0.0114">
        <ele>141</ele>
        <time>2024-10-02T12:30:36Z</time>
      </trkpt>
      <trkpt lat="49.28138" lon="-0.01135">
        <ele>141.2</ele>
        <time>2024-10-02T12:30:37Z</time>
      </trkpt>
      <trkpt lat="49.28132" lon="-0.0113">
        <ele>141.6</ele>
        <time>2024-10-02T12:30:38Z</time>
      </trkpt>
      <trkpt lat="49.28126" lon="-0.01124">
        <ele>141.8</ele>
        <time>2024-10-02T12:30:39Z</time>
      </trkpt>
      <trkpt lat="49.28121" lon="-0.01119">
        <ele>142</ele>
        <time>2024-10-02T12:30:40Z</time>
      </trkpt>
      <trkpt lat="49.28115" lon="-0.01114">
        <ele>142.2</ele>
        <time>2024-10-02T12:30:41Z</time>
      </trkpt>
      <trkpt lat="49.28109" lon="-0.01109">
        <ele>142.4</ele>
        <time>2024-10-02T12:30:42Z</time>
      </trkpt>
      <trkpt lat="49.28103" lon="-0.01104">
        <ele>142.4</ele>
        <time>2024-10-02T12:30:43Z</time>
      </trkpt>
      <trkpt lat="49.28099" lon="-0.01099">
        <ele>142.6</ele>
        <time>2024-10-02T12:30:44Z</time>
      </trkpt>
      <trkpt lat="49.28092" lon="-0.01092">
        <ele>142.8</ele>
        <time>2024-10-02T12:30:45Z</time>
      </trkpt>
      <trkpt lat="49.28086" lon="-0.01086">
        <ele>143</ele>
        <time>2024-10-02T12:30:46Z</time>
      </trkpt>
      <trkpt lat="49.28081" lon="-0.0108">
        <ele>143.2</ele>
        <time>2024-10-02T12:30:47Z</time>
      </trkpt>
      <trkpt lat="49.28076" lon="-0.01073">
        <ele>143.4</ele>
        <time>2024-10-02T12:30:48Z</time>
      </trkpt>
      <trkpt lat="49.28072" lon="-0.01068">
        <ele>143.6</ele>
        <time>2024-10-02T12:30:49Z</time>
      </trkpt>
      <trkpt lat="49.28067" lon="-0.0106">
        <ele>143.8</ele>
        <time>2024-10-02T12:30:50Z</time>
      </trkpt>
      <trkpt lat="49.28062" lon="-0.01052">
        <ele>144</ele>
        <time>2024-10-02T12:30:51Z</time>
      </trkpt>
      <trkpt lat="49.28058" lon="-0.01045">
        <ele>144</ele>
        <time>2024-10-02T12:30:52Z</time>
      </trkpt>
      <trkpt lat="49.28055" lon="-0.01038">
        <ele>144.2</ele>
        <time>2024-10-02T12:30:53Z</time>
      </trkpt>
      <trkpt lat="49.28051" lon="-0.01027">
        <ele>144.2</ele>
        <time>2024-10-02T12:30:54Z</time>
      </trkpt>
      <trkpt lat="49.28048" lon="-0.01018">
        <ele>144.4</ele>
        <time>2024-10-02T12:30:55Z</time>
      </trkpt>
      <trkpt lat="49.28045" lon="-0.01009">
        <ele>144.4</ele>
        <time>2024-10-02T12:30:56Z</time>
      </trkpt>
      <trkpt lat="49.28042" lon="-0.01">
        <ele>144.4</ele>
        <time>2024-10-02T12:30:57Z</time>
      </trkpt>
      <trkpt lat="49.28039" lon="-0.00991">
        <ele>144.4</ele>
        <time>2024-10-02T12:30:58Z</time>
      </trkpt>
      <trkpt lat="49.28036" lon="-0.00981">
        <ele>144.4</ele>
        <time>2024-10-02T12:30:59Z</time>
      </trkpt>
      <trkpt lat="49.28034" lon="-0.00972">
        <ele>144.4</ele>
        <time>2024-10-02T12:31:00Z</time>
      </trkpt>
      <trkpt lat="49.28031" lon="-0.00962">
        <ele>144.6</ele>
        <time>2024-10-02T12:31:01Z</time>
      </trkpt>
      <trkpt lat="49.28029" lon="-0.00953">
        <ele>144.6</ele>
        <time>2024-10-02T12:31:02Z</time>
      </trkpt>
      <trkpt lat="49.28027" lon="-0.00945">
        <ele>144.6</ele>
        <time>2024-10-02T12:31:03Z</time>
      </trkpt>
      <trkpt lat="49.28024" lon="-0.00933">
        <ele>144.6</ele>
        <time>2024-10-02T12:31:04Z</time>
      </trkpt>
      <trkpt lat="49.28022" lon="-0.00924">
        <ele>144.6</ele>
        <time>2024-10-02T12:31:05Z</time>
      </trkpt>
      <trkpt lat="49.2802" lon="-0.00914">
        <ele>144.6</ele>
        <time>2024-10-02T12:31:06Z</time>
      </trkpt>
      <trkpt lat="49.28018" lon="-0.00904">
        <ele>144.6</ele>
        <time>2024-10-02T12:31:07Z</time>
      </trkpt>
      <trkpt lat="49.28016" lon="-0.00894">
        <ele>144.6</ele>
        <time>2024-10-02T12:31:08Z</time>
      </trkpt>
      <trkpt lat="49.28013" lon="-0.00884">
        <ele>144.6</ele>
        <time>2024-10-02T12:31:09Z</time>
      </trkpt>
      <trkpt lat="49.28011" lon="-0.00873">
        <ele>144.6</ele>
        <time>2024-10-02T12:31:10Z</time>
      </trkpt>
      <trkpt lat="49.2801" lon="-0.00865">
        <ele>144.6</ele>
        <time>2024-10-02T12:31:11Z</time>
      </trkpt>
      <trkpt lat="49.28008" lon="-0.00854">
        <ele>144.6</ele>
        <time>2024-10-02T12:31:12Z</time>
      </trkpt>
      <trkpt lat="49.28006" lon="-0.0084">
        <ele>144.6</ele>
        <time>2024-10-02T12:31:13Z</time>
      </trkpt>
      <trkpt lat="49.28004" lon="-0.00829">
        <ele>144.6</ele>
        <time>2024-10-02T12:31:14Z</time>
      </trkpt>
      <trkpt lat="49.28001" lon="-0.00818">
        <ele>144.6</ele>
        <time>2024-10-02T12:31:15Z</time>
      </trkpt>
      <trkpt lat="49.27999" lon="-0.00807">
        <ele>144.6</ele>
        <time>2024-10-02T12:31:16Z</time>
      </trkpt>
      <trkpt lat="49.27997" lon="-0.00796">
        <ele>144.6</ele>
        <time>2024-10-02T12:31:17Z</time>
      </trkpt>
      <trkpt lat="49.27995" lon="-0.00786">
        <ele>144.6</ele>
        <time>2024-10-02T12:31:18Z</time>
      </trkpt>
      <trkpt lat="49.27993" lon="-0.00775">
        <ele>144.4</ele>
        <time>2024-10-02T12:31:19Z</time>
      </trkpt>
      <trkpt lat="49.2799" lon="-0.00764">
        <ele>144.4</ele>
        <time>2024-10-02T12:31:20Z</time>
      </trkpt>
      <trkpt lat="49.27988" lon="-0.00753">
        <ele>144.4</ele>
        <time>2024-10-02T12:31:21Z</time>
      </trkpt>
      <trkpt lat="49.27986" lon="-0.00745">
        <ele>144.4</ele>
        <time>2024-10-02T12:31:22Z</time>
      </trkpt>
      <trkpt lat="49.27983" lon="-0.00732">
        <ele>144.2</ele>
        <time>2024-10-02T12:31:23Z</time>
      </trkpt>
      <trkpt lat="49.2798" lon="-0.00722">
        <ele>144.2</ele>
        <time>2024-10-02T12:31:24Z</time>
      </trkpt>
      <trkpt lat="49.27978" lon="-0.00712">
        <ele>144.2</ele>
        <time>2024-10-02T12:31:25Z</time>
      </trkpt>
      <trkpt lat="49.27974" lon="-0.00702">
        <ele>144</ele>
        <time>2024-10-02T12:31:26Z</time>
      </trkpt>
      <trkpt lat="49.27971" lon="-0.00692">
        <ele>144</ele>
        <time>2024-10-02T12:31:27Z</time>
      </trkpt>
      <trkpt lat="49.27967" lon="-0.00682">
        <ele>144</ele>
        <time>2024-10-02T12:31:28Z</time>
      </trkpt>
      <trkpt lat="49.27963" lon="-0.00672">
        <ele>144</ele>
        <time>2024-10-02T12:31:29Z</time>
      </trkpt>
      <trkpt lat="49.27959" lon="-0.00665">
        <ele>143.8</ele>
        <time>2024-10-02T12:31:30Z</time>
      </trkpt>
      <trkpt lat="49.27952" lon="-0.00656">
        <ele>143.8</ele>
        <time>2024-10-02T12:31:31Z</time>
      </trkpt>
      <trkpt lat="49.27946" lon="-0.00649">
        <ele>143.8</ele>
        <time>2024-10-02T12:31:32Z</time>
      </trkpt>
      <trkpt lat="49.2794" lon="-0.00644">
        <ele>143.8</ele>
        <time>2024-10-02T12:31:33Z</time>
      </trkpt>
      <trkpt lat="49.27933" lon="-0.0064">
        <ele>143.8</ele>
        <time>2024-10-02T12:31:34Z</time>
      </trkpt>
      <trkpt lat="49.27926" lon="-0.00636">
        <ele>143.6</ele>
        <time>2024-10-02T12:31:35Z</time>
      </trkpt>
      <trkpt lat="49.27919" lon="-0.00634">
        <ele>143.6</ele>
        <time>2024-10-02T12:31:36Z</time>
      </trkpt>
      <trkpt lat="49.27911" lon="-0.00632">
        <ele>143.4</ele>
        <time>2024-10-02T12:31:37Z</time>
      </trkpt>
      <trkpt lat="49.27904" lon="-0.00631">
        <ele>143.2</ele>
        <time>2024-10-02T12:31:38Z</time>
      </trkpt>
      <trkpt lat="49.27898" lon="-0.00631">
        <ele>142.8</ele>
        <time>2024-10-02T12:31:39Z</time>
      </trkpt>
      <trkpt lat="49.27893" lon="-0.00631">
        <ele>142.6</ele>
        <time>2024-10-02T12:31:40Z</time>
      </trkpt>
      <trkpt lat="49.27889" lon="-0.00631">
        <ele>142.2</ele>
        <time>2024-10-02T12:31:41Z</time>
      </trkpt>
      <trkpt lat="49.27886" lon="-0.00631">
        <ele>141.8</ele>
        <time>2024-10-02T12:31:42Z</time>
      </trkpt>
      <trkpt lat="49.27884" lon="-0.00631">
        <ele>141.6</ele>
        <time>2024-10-02T12:31:43Z</time>
      </trkpt>
      <trkpt lat="49.27881" lon="-0.0063">
        <ele>141.2</ele>
        <time>2024-10-02T12:31:44Z</time>
      </trkpt>
      <trkpt lat="49.2788" lon="-0.00629">
        <ele>141.2</ele>
        <time>2024-10-02T12:31:45Z</time>
      </trkpt>
      <trkpt lat="49.2788" lon="-0.00629">
        <ele>140.4</ele>
        <time>2024-10-02T12:31:46Z</time>
      </trkpt>
      <trkpt lat="49.2788" lon="-0.00629">
        <ele>140</ele>
        <time>2024-10-02T12:31:47Z</time>
      </trkpt>
      <trkpt lat="49.27874" lon="-0.00625">
        <ele>139.2</ele>
        <time>2024-10-02T12:32:14Z</time>
      </trkpt>
      <trkpt lat="49.27873" lon="-0.00622">
        <ele>139.2</ele>
        <time>2024-10-02T12:32:15Z</time>
      </trkpt>
      <trkpt lat="49.27873" lon="-0.00619">
        <ele>139.2</ele>
        <time>2024-10-02T12:32:16Z</time>
      </trkpt>
      <trkpt lat="49.27872" lon="-0.00615">
        <ele>139.2</ele>
        <time>2024-10-02T12:32:17Z</time>
      </trkpt>
      <trkpt lat="49.27872" lon="-0.00609">
        <ele>139.2</ele>
        <time>2024-10-02T12:32:18Z</time>
      </trkpt>
      <trkpt lat="49.27873" lon="-0.00604">
        <ele>139.2</ele>
        <time>2024-10-02T12:32:19Z</time>
      </trkpt>
      <trkpt lat="49.27873" lon="-0.006">
        <ele>139.2</ele>
        <time>2024-10-02T12:32:20Z</time>
      </trkpt>
      <trkpt lat="49.27873" lon="-0.00594">
        <ele>139.2</ele>
        <time>2024-10-02T12:32:21Z</time>
      </trkpt>
      <trkpt lat="49.27874" lon="-0.00589">
        <ele>139.2</ele>
        <time>2024-10-02T12:32:22Z</time>
      </trkpt>
      <trkpt lat="49.27874" lon="-0.00584">
        <ele>139</ele>
        <time>2024-10-02T12:32:23Z</time>
      </trkpt>
      <trkpt lat="49.27874" lon="-0.00577">
        <ele>139</ele>
        <time>2024-10-02T12:32:24Z</time>
      </trkpt>
      <trkpt lat="49.27874" lon="-0.00572">
        <ele>139</ele>
        <time>2024-10-02T12:32:25Z</time>
      </trkpt>
      <trkpt lat="49.27874" lon="-0.00566">
        <ele>139</ele>
        <time>2024-10-02T12:32:26Z</time>
      </trkpt>
      <trkpt lat="49.27874" lon="-0.00558">
        <ele>139</ele>
        <time>2024-10-02T12:32:27Z</time>
      </trkpt>
      <trkpt lat="49.27875" lon="-0.0055">
        <ele>138.8</ele>
        <time>2024-10-02T12:32:28Z</time>
      </trkpt>
      <trkpt lat="49.27875" lon="-0.00543">
        <ele>138.8</ele>
        <time>2024-10-02T12:32:29Z</time>
      </trkpt>
      <trkpt lat="49.27875" lon="-0.00535">
        <ele>138.8</ele>
        <time>2024-10-02T12:32:30Z</time>
      </trkpt>
      <trkpt lat="49.27875" lon="-0.00527">
        <ele>138.8</ele>
        <time>2024-10-02T12:32:31Z</time>
      </trkpt>
      <trkpt lat="49.27876" lon="-0.0052">
        <ele>138.8</ele>
        <time>2024-10-02T12:32:32Z</time>
      </trkpt>
      <trkpt lat="49.27876" lon="-0.0051">
        <ele>138.8</ele>
        <time>2024-10-02T12:32:33Z</time>
      </trkpt>
      <trkpt lat="49.27876" lon="-0.00501">
        <ele>138.8</ele>
        <time>2024-10-02T12:32:34Z</time>
      </trkpt>
      <trkpt lat="49.27876" lon="-0.00492">
        <ele>138.8</ele>
        <time>2024-10-02T12:32:35Z</time>
      </trkpt>
      <trkpt lat="49.27877" lon="-0.00483">
        <ele>138.6</ele>
        <time>2024-10-02T12:32:36Z</time>
      </trkpt>
      <trkpt lat="49.27877" lon="-0.00476">
        <ele>138.6</ele>
        <time>2024-10-02T12:32:37Z</time>
      </trkpt>
      <trkpt lat="49.27879" lon="-0.00466">
        <ele>138.6</ele>
        <time>2024-10-02T12:32:38Z</time>
      </trkpt>
      <trkpt lat="49.2788" lon="-0.00457">
        <ele>138.6</ele>
        <time>2024-10-02T12:32:39Z</time>
      </trkpt>
      <trkpt lat="49.27881" lon="-0.0045">
        <ele>138.6</ele>
        <time>2024-10-02T12:32:40Z</time>
      </trkpt>
      <trkpt lat="49.27882" lon="-0.00441">
        <ele>138.6</ele>
        <time>2024-10-02T12:32:41Z</time>
      </trkpt>
      <trkpt lat="49.27883" lon="-0.00431">
        <ele>138.6</ele>
        <time>2024-10-02T12:32:42Z</time>
      </trkpt>
      <trkpt lat="49.27885" lon="-0.00424">
        <ele>138.6</ele>
        <time>2024-10-02T12:32:43Z</time>
      </trkpt>
      <trkpt lat="49.27886" lon="-0.00416">
        <ele>138.6</ele>
        <time>2024-10-02T12:32:44Z</time>
      </trkpt>
      <trkpt lat="49.27888" lon="-0.00405">
        <ele>138.6</ele>
        <time>2024-10-02T12:32:45Z</time>
      </trkpt>
      <trkpt lat="49.2789" lon="-0.00397">
        <ele>138.8</ele>
        <time>2024-10-02T12:32:46Z</time>
      </trkpt>
      <trkpt lat="49.27892" lon="-0.0039">
        <ele>138.8</ele>
        <time>2024-10-02T12:32:47Z</time>
      </trkpt>
      <trkpt lat="49.27895" lon="-0.00379">
        <ele>138.8</ele>
        <time>2024-10-02T12:32:48Z</time>
      </trkpt>
      <trkpt lat="49.27898" lon="-0.00371">
        <ele>139</ele>
        <time>2024-10-02T12:32:49Z</time>
      </trkpt>
      <trkpt lat="49.27901" lon="-0.00362">
        <ele>139</ele>
        <time>2024-10-02T12:32:50Z</time>
      </trkpt>
      <trkpt lat="49.27904" lon="-0.00355">
        <ele>139.2</ele>
        <time>2024-10-02T12:32:51Z</time>
      </trkpt>
      <trkpt lat="49.27907" lon="-0.00348">
        <ele>139.6</ele>
        <time>2024-10-02T12:32:52Z</time>
      </trkpt>
      <trkpt lat="49.2791" lon="-0.00341">
        <ele>139.8</ele>
        <time>2024-10-02T12:32:53Z</time>
      </trkpt>
      <trkpt lat="49.27915" lon="-0.00332">
        <ele>140</ele>
        <time>2024-10-02T12:32:54Z</time>
      </trkpt>
      <trkpt lat="49.27918" lon="-0.00324">
        <ele>140.4</ele>
        <time>2024-10-02T12:32:55Z</time>
      </trkpt>
      <trkpt lat="49.27921" lon="-0.00318">
        <ele>140.8</ele>
        <time>2024-10-02T12:32:56Z</time>
      </trkpt>
      <trkpt lat="49.27926" lon="-0.0031">
        <ele>141.4</ele>
        <time>2024-10-02T12:32:57Z</time>
      </trkpt>
      <trkpt lat="49.27929" lon="-0.00304">
        <ele>141.6</ele>
        <time>2024-10-02T12:32:58Z</time>
      </trkpt>
      <trkpt lat="49.27934" lon="-0.00296">
        <ele>141.8</ele>
        <time>2024-10-02T12:32:59Z</time>
      </trkpt>
      <trkpt lat="49.27938" lon="-0.0029">
        <ele>141.8</ele>
        <time>2024-10-02T12:33:00Z</time>
      </trkpt>
      <trkpt lat="49.27942" lon="-0.00284">
        <ele>142</ele>
        <time>2024-10-02T12:33:01Z</time>
      </trkpt>
      <trkpt lat="49.27946" lon="-0.00278">
        <ele>142</ele>
        <time>2024-10-02T12:33:02Z</time>
      </trkpt>
      <trkpt lat="49.27951" lon="-0.00272">
        <ele>142.2</ele>
        <time>2024-10-02T12:33:03Z</time>
      </trkpt>
      <trkpt lat="49.27956" lon="-0.00266">
        <ele>142.4</ele>
        <time>2024-10-02T12:33:04Z</time>
      </trkpt>
      <trkpt lat="49.2796" lon="-0.0026">
        <ele>142.8</ele>
        <time>2024-10-02T12:33:05Z</time>
      </trkpt>
      <trkpt lat="49.27965" lon="-0.00254">
        <ele>143</ele>
        <time>2024-10-02T12:33:06Z</time>
      </trkpt>
      <trkpt lat="49.27969" lon="-0.00248">
        <ele>143.4</ele>
        <time>2024-10-02T12:33:07Z</time>
      </trkpt>
      <trkpt lat="49.27974" lon="-0.00241">
        <ele>143.8</ele>
        <time>2024-10-02T12:33:08Z</time>
      </trkpt>
      <trkpt lat="49.27979" lon="-0.00235">
        <ele>143.8</ele>
        <time>2024-10-02T12:33:09Z</time>
      </trkpt>
      <trkpt lat="49.27984" lon="-0.00228">
        <ele>144</ele>
        <time>2024-10-02T12:33:10Z</time>
      </trkpt>
      <trkpt lat="49.27988" lon="-0.00222">
        <ele>144</ele>
        <time>2024-10-02T12:33:11Z</time>
      </trkpt>
      <trkpt lat="49.27993" lon="-0.00215">
        <ele>144.2</ele>
        <time>2024-10-02T12:33:12Z</time>
      </trkpt>
      <trkpt lat="49.27997" lon="-0.0021">
        <ele>144.2</ele>
        <time>2024-10-02T12:33:13Z</time>
      </trkpt>
      <trkpt lat="49.28002" lon="-0.00203">
        <ele>144.8</ele>
        <time>2024-10-02T12:33:14Z</time>
      </trkpt>
      <trkpt lat="49.28008" lon="-0.00195">
        <ele>145</ele>
        <time>2024-10-02T12:33:15Z</time>
      </trkpt>
      <trkpt lat="49.28013" lon="-0.00188">
        <ele>145.2</ele>
        <time>2024-10-02T12:33:16Z</time>
      </trkpt>
      <trkpt lat="49.28016" lon="-0.00182">
        <ele>145.6</ele>
        <time>2024-10-02T12:33:17Z</time>
      </trkpt>
      <trkpt lat="49.28022" lon="-0.00173">
        <ele>146</ele>
        <time>2024-10-02T12:33:18Z</time>
      </trkpt>
      <trkpt lat="49.28028" lon="-0.00166">
        <ele>146.2</ele>
        <time>2024-10-02T12:33:19Z</time>
      </trkpt>
      <trkpt lat="49.28032" lon="-0.0016">
        <ele>146.2</ele>
        <time>2024-10-02T12:33:20Z</time>
      </trkpt>
      <trkpt lat="49.28038" lon="-0.00151">
        <ele>146.2</ele>
        <time>2024-10-02T12:33:21Z</time>
      </trkpt>
      <trkpt lat="49.28042" lon="-0.00145">
        <ele>146.4</ele>
        <time>2024-10-02T12:33:22Z</time>
      </trkpt>
      <trkpt lat="49.28048" lon="-0.00135">
        <ele>146.4</ele>
        <time>2024-10-02T12:33:23Z</time>
      </trkpt>
      <trkpt lat="49.28053" lon="-0.00127">
        <ele>146.4</ele>
        <time>2024-10-02T12:33:24Z</time>
      </trkpt>
      <trkpt lat="49.28059" lon="-0.0012">
        <ele>146.6</ele>
        <time>2024-10-02T12:33:25Z</time>
      </trkpt>
      <trkpt lat="49.28064" lon="-0.00111">
        <ele>146.6</ele>
        <time>2024-10-02T12:33:26Z</time>
      </trkpt>
      <trkpt lat="49.2807" lon="-0.00103">
        <ele>146.6</ele>
        <time>2024-10-02T12:33:27Z</time>
      </trkpt>
      <trkpt lat="49.28075" lon="-0.00094">
        <ele>146.8</ele>
        <time>2024-10-02T12:33:28Z</time>
      </trkpt>
      <trkpt lat="49.2808" lon="-0.00087">
        <ele>147</ele>
        <time>2024-10-02T12:33:29Z</time>
      </trkpt>
      <trkpt lat="49.28086" lon="-0.00078">
        <ele>147</ele>
        <time>2024-10-02T12:33:30Z</time>
      </trkpt>
      <trkpt lat="49.28091" lon="-0.0007">
        <ele>147</ele>
        <time>2024-10-02T12:33:31Z</time>
      </trkpt>
      <trkpt lat="49.28096" lon="-0.00062">
        <ele>147</ele>
        <time>2024-10-02T12:33:32Z</time>
      </trkpt>
      <trkpt lat="49.28101" lon="-0.00054">
        <ele>147</ele>
        <time>2024-10-02T12:33:33Z</time>
      </trkpt>
      <trkpt lat="49.28106" lon="-0.00046">
        <ele>147</ele>
        <time>2024-10-02T12:33:34Z</time>
      </trkpt>
      <trkpt lat="49.2811" lon="-0.0004">
        <ele>147</ele>
        <time>2024-10-02T12:33:35Z</time>
      </trkpt>
      <trkpt lat="49.28115" lon="-0.00032">
        <ele>147</ele>
        <time>2024-10-02T12:33:36Z</time>
      </trkpt>
      <trkpt lat="49.2812" lon="-0.00024">
        <ele>147</ele>
        <time>2024-10-02T12:33:37Z</time>
      </trkpt>
      <trkpt lat="49.28125" lon="-0.00014">
        <ele>147</ele>
        <time>2024-10-02T12:33:38Z</time>
      </trkpt>
      <trkpt lat="49.28128" lon="-8.0E-5">
        <ele>147</ele>
        <time>2024-10-02T12:33:39Z</time>
      </trkpt>
      <trkpt lat="49.28132" lon="1.0E-5">
        <ele>146.8</ele>
        <time>2024-10-02T12:33:40Z</time>
      </trkpt>
      <trkpt lat="49.28135" lon="0.00012">
        <ele>146.8</ele>
        <time>2024-10-02T12:33:41Z</time>
      </trkpt>
      <trkpt lat="49.28137" lon="0.00023">
        <ele>146.8</ele>
        <time>2024-10-02T12:33:42Z</time>
      </trkpt>
      <trkpt lat="49.28138" lon="0.00033">
        <ele>146.8</ele>
        <time>2024-10-02T12:33:43Z</time>
      </trkpt>
      <trkpt lat="49.28138" lon="0.00045">
        <ele>146.8</ele>
        <time>2024-10-02T12:33:44Z</time>
      </trkpt>
      <trkpt lat="49.28138" lon="0.00057">
        <ele>146.6</ele>
        <time>2024-10-02T12:33:45Z</time>
      </trkpt>
      <trkpt lat="49.28135" lon="0.00068">
        <ele>146.4</ele>
        <time>2024-10-02T12:33:46Z</time>
      </trkpt>
      <trkpt lat="49.28132" lon="0.0008">
        <ele>146.4</ele>
        <time>2024-10-02T12:33:47Z</time>
      </trkpt>
      <trkpt lat="49.28129" lon="0.00092">
        <ele>146.2</ele>
        <time>2024-10-02T12:33:48Z</time>
      </trkpt>
      <trkpt lat="49.28125" lon="0.00103">
        <ele>146.2</ele>
        <time>2024-10-02T12:33:49Z</time>
      </trkpt>
      <trkpt lat="49.28122" lon="0.00114">
        <ele>146.2</ele>
        <time>2024-10-02T12:33:50Z</time>
      </trkpt>
      <trkpt lat="49.28118" lon="0.00124">
        <ele>146</ele>
        <time>2024-10-02T12:33:51Z</time>
      </trkpt>
      <trkpt lat="49.28114" lon="0.00136">
        <ele>146</ele>
        <time>2024-10-02T12:33:52Z</time>
      </trkpt>
      <trkpt lat="49.28111" lon="0.00147">
        <ele>146</ele>
        <time>2024-10-02T12:33:53Z</time>
      </trkpt>
      <trkpt lat="49.28107" lon="0.00158">
        <ele>146</ele>
        <time>2024-10-02T12:33:54Z</time>
      </trkpt>
      <trkpt lat="49.28104" lon="0.00169">
        <ele>146</ele>
        <time>2024-10-02T12:33:55Z</time>
      </trkpt>
      <trkpt lat="49.28101" lon="0.00178">
        <ele>146</ele>
        <time>2024-10-02T12:33:56Z</time>
      </trkpt>
      <trkpt lat="49.28097" lon="0.00191">
        <ele>146.2</ele>
        <time>2024-10-02T12:33:57Z</time>
      </trkpt>
      <trkpt lat="49.28093" lon="0.00202">
        <ele>146.2</ele>
        <time>2024-10-02T12:33:58Z</time>
      </trkpt>
      <trkpt lat="49.28089" lon="0.00213">
        <ele>146.2</ele>
        <time>2024-10-02T12:33:59Z</time>
      </trkpt>
      <trkpt lat="49.28085" lon="0.00223">
        <ele>146.2</ele>
        <time>2024-10-02T12:34:00Z</time>
      </trkpt>
      <trkpt lat="49.2808" lon="0.00234">
        <ele>146.4</ele>
        <time>2024-10-02T12:34:01Z</time>
      </trkpt>
      <trkpt lat="49.28075" lon="0.00243">
        <ele>146.4</ele>
        <time>2024-10-02T12:34:02Z</time>
      </trkpt>
      <trkpt lat="49.28071" lon="0.00253">
        <ele>146.4</ele>
        <time>2024-10-02T12:34:03Z</time>
      </trkpt>
      <trkpt lat="49.28066" lon="0.00264">
        <ele>146.6</ele>
        <time>2024-10-02T12:34:04Z</time>
      </trkpt>
      <trkpt lat="49.28061" lon="0.00274">
        <ele>146.8</ele>
        <time>2024-10-02T12:34:05Z</time>
      </trkpt>
      <trkpt lat="49.28056" lon="0.00284">
        <ele>146.8</ele>
        <time>2024-10-02T12:34:06Z</time>
      </trkpt>
      <trkpt lat="49.28051" lon="0.00294">
        <ele>146.8</ele>
        <time>2024-10-02T12:34:07Z</time>
      </trkpt>
      <trkpt lat="49.28046" lon="0.00305">
        <ele>147</ele>
        <time>2024-10-02T12:34:08Z</time>
      </trkpt>
      <trkpt lat="49.28041" lon="0.00315">
        <ele>147.2</ele>
        <time>2024-10-02T12:34:09Z</time>
      </trkpt>
      <trkpt lat="49.28036" lon="0.00324">
        <ele>147.2</ele>
        <time>2024-10-02T12:34:10Z</time>
      </trkpt>
      <trkpt lat="49.28031" lon="0.00334">
        <ele>147.2</ele>
        <time>2024-10-02T12:34:11Z</time>
      </trkpt>
      <trkpt lat="49.28025" lon="0.00344">
        <ele>147.2</ele>
        <time>2024-10-02T12:34:12Z</time>
      </trkpt>
      <trkpt lat="49.2802" lon="0.00354">
        <ele>147.2</ele>
        <time>2024-10-02T12:34:13Z</time>
      </trkpt>
      <trkpt lat="49.28015" lon="0.00364">
        <ele>147.2</ele>
        <time>2024-10-02T12:34:14Z</time>
      </trkpt>
      <trkpt lat="49.28009" lon="0.00373">
        <ele>147.2</ele>
        <time>2024-10-02T12:34:15Z</time>
      </trkpt>
      <trkpt lat="49.28004" lon="0.00383">
        <ele>147.2</ele>
        <time>2024-10-02T12:34:16Z</time>
      </trkpt>
      <trkpt lat="49.27999" lon="0.00393">
        <ele>147.2</ele>
        <time>2024-10-02T12:34:17Z</time>
      </trkpt>
      <trkpt lat="49.27996" lon="0.00401">
        <ele>147</ele>
        <time>2024-10-02T12:34:18Z</time>
      </trkpt>
      <trkpt lat="49.2799" lon="0.00412">
        <ele>147</ele>
        <time>2024-10-02T12:34:19Z</time>
      </trkpt>
      <trkpt lat="49.27986" lon="0.0042">
        <ele>146.8</ele>
        <time>2024-10-02T12:34:20Z</time>
      </trkpt>
      <trkpt lat="49.27981" lon="0.0043">
        <ele>146.8</ele>
        <time>2024-10-02T12:34:21Z</time>
      </trkpt>
      <trkpt lat="49.27975" lon="0.00442">
        <ele>146.8</ele>
        <time>2024-10-02T12:34:22Z</time>
      </trkpt>
      <trkpt lat="49.2797" lon="0.00451">
        <ele>146.6</ele>
        <time>2024-10-02T12:34:23Z</time>
      </trkpt>
      <trkpt lat="49.27965" lon="0.0046">
        <ele>146.6</ele>
        <time>2024-10-02T12:34:24Z</time>
      </trkpt>
      <trkpt lat="49.27959" lon="0.00469">
        <ele>146.6</ele>
        <time>2024-10-02T12:34:25Z</time>
      </trkpt>
      <trkpt lat="49.27954" lon="0.00479">
        <ele>146.6</ele>
        <time>2024-10-02T12:34:26Z</time>
      </trkpt>
      <trkpt lat="49.27949" lon="0.0049">
        <ele>146.6</ele>
        <time>2024-10-02T12:34:27Z</time>
      </trkpt>
      <trkpt lat="49.27943" lon="0.005">
        <ele>146.6</ele>
        <time>2024-10-02T12:34:28Z</time>
      </trkpt>
      <trkpt lat="49.27938" lon="0.0051">
        <ele>146.6</ele>
        <time>2024-10-02T12:34:29Z</time>
      </trkpt>
      <trkpt lat="49.27933" lon="0.0052">
        <ele>146.4</ele>
        <time>2024-10-02T12:34:30Z</time>
      </trkpt>
      <trkpt lat="49.27927" lon="0.0053">
        <ele>146.4</ele>
        <time>2024-10-02T12:34:31Z</time>
      </trkpt>
      <trkpt lat="49.27922" lon="0.0054">
        <ele>146.4</ele>
        <time>2024-10-02T12:34:32Z</time>
      </trkpt>
      <trkpt lat="49.27917" lon="0.00549">
        <ele>146.4</ele>
        <time>2024-10-02T12:34:33Z</time>
      </trkpt>
      <trkpt lat="49.27911" lon="0.00559">
        <ele>146.4</ele>
        <time>2024-10-02T12:34:34Z</time>
      </trkpt>
      <trkpt lat="49.27905" lon="0.00567">
        <ele>146.4</ele>
        <time>2024-10-02T12:34:35Z</time>
      </trkpt>
      <trkpt lat="49.279" lon="0.00576">
        <ele>146.4</ele>
        <time>2024-10-02T12:34:36Z</time>
      </trkpt>
      <trkpt lat="49.27894" lon="0.00585">
        <ele>146.4</ele>
        <time>2024-10-02T12:34:37Z</time>
      </trkpt>
      <trkpt lat="49.27887" lon="0.00593">
        <ele>146.4</ele>
        <time>2024-10-02T12:34:38Z</time>
      </trkpt>
      <trkpt lat="49.27882" lon="0.006">
        <ele>146</ele>
        <time>2024-10-02T12:34:39Z</time>
      </trkpt>
      <trkpt lat="49.27875" lon="0.00608">
        <ele>145.8</ele>
        <time>2024-10-02T12:34:40Z</time>
      </trkpt>
      <trkpt lat="49.27867" lon="0.00618">
        <ele>145.8</ele>
        <time>2024-10-02T12:34:41Z</time>
      </trkpt>
      <trkpt lat="49.2786" lon="0.00625">
        <ele>145.6</ele>
        <time>2024-10-02T12:34:42Z</time>
      </trkpt>
      <trkpt lat="49.27852" lon="0.00633">
        <ele>145.4</ele>
        <time>2024-10-02T12:34:43Z</time>
      </trkpt>
      <trkpt lat="49.27845" lon="0.00641">
        <ele>145.4</ele>
        <time>2024-10-02T12:34:44Z</time>
      </trkpt>
      <trkpt lat="49.27837" lon="0.00649">
        <ele>145.4</ele>
        <time>2024-10-02T12:34:45Z</time>
      </trkpt>
      <trkpt lat="49.2783" lon="0.00657">
        <ele>145.2</ele>
        <time>2024-10-02T12:34:46Z</time>
      </trkpt>
      <trkpt lat="49.27823" lon="0.00665">
        <ele>145</ele>
        <time>2024-10-02T12:34:47Z</time>
      </trkpt>
      <trkpt lat="49.27818" lon="0.00672">
        <ele>144.8</ele>
        <time>2024-10-02T12:34:48Z</time>
      </trkpt>
      <trkpt lat="49.2781" lon="0.00683">
        <ele>144.6</ele>
        <time>2024-10-02T12:34:49Z</time>
      </trkpt>
      <trkpt lat="49.27804" lon="0.00692">
        <ele>144.6</ele>
        <time>2024-10-02T12:34:50Z</time>
      </trkpt>
      <trkpt lat="49.27798" lon="0.00702">
        <ele>144.4</ele>
        <time>2024-10-02T12:34:51Z</time>
      </trkpt>
      <trkpt lat="49.27792" lon="0.00712">
        <ele>144.4</ele>
        <time>2024-10-02T12:34:52Z</time>
      </trkpt>
      <trkpt lat="49.27787" lon="0.00722">
        <ele>144.2</ele>
        <time>2024-10-02T12:34:53Z</time>
      </trkpt>
      <trkpt lat="49.27782" lon="0.00732">
        <ele>144</ele>
        <time>2024-10-02T12:34:54Z</time>
      </trkpt>
      <trkpt lat="49.27776" lon="0.00741">
        <ele>144</ele>
        <time>2024-10-02T12:34:55Z</time>
      </trkpt>
      <trkpt lat="49.27771" lon="0.00751">
        <ele>143.8</ele>
        <time>2024-10-02T12:34:56Z</time>
      </trkpt>
      <trkpt lat="49.27766" lon="0.00761">
        <ele>143.8</ele>
        <time>2024-10-02T12:34:57Z</time>
      </trkpt>
      <trkpt lat="49.2776" lon="0.00771">
        <ele>143.8</ele>
        <time>2024-10-02T12:34:58Z</time>
      </trkpt>
      <trkpt lat="49.27756" lon="0.00778">
        <ele>143.6</ele>
        <time>2024-10-02T12:34:59Z</time>
      </trkpt>
      <trkpt lat="49.27751" lon="0.00788">
        <ele>143.6</ele>
        <time>2024-10-02T12:35:00Z</time>
      </trkpt>
      <trkpt lat="49.27746" lon="0.00797">
        <ele>143.6</ele>
        <time>2024-10-02T12:35:01Z</time>
      </trkpt>
      <trkpt lat="49.27742" lon="0.00807">
        <ele>143.6</ele>
        <time>2024-10-02T12:35:02Z</time>
      </trkpt>
      <trkpt lat="49.27737" lon="0.00816">
        <ele>143.6</ele>
        <time>2024-10-02T12:35:03Z</time>
      </trkpt>
      <trkpt lat="49.27732" lon="0.00825">
        <ele>143.6</ele>
        <time>2024-10-02T12:35:04Z</time>
      </trkpt>
      <trkpt lat="49.27727" lon="0.00835">
        <ele>143.4</ele>
        <time>2024-10-02T12:35:05Z</time>
      </trkpt>
      <trkpt lat="49.27723" lon="0.00844">
        <ele>143.4</ele>
        <time>2024-10-02T12:35:06Z</time>
      </trkpt>
      <trkpt lat="49.27718" lon="0.00854">
        <ele>143.6</ele>
        <time>2024-10-02T12:35:07Z</time>
      </trkpt>
      <trkpt lat="49.27714" lon="0.00864">
        <ele>143.6</ele>
        <time>2024-10-02T12:35:08Z</time>
      </trkpt>
      <trkpt lat="49.27709" lon="0.00874">
        <ele>143.6</ele>
        <time>2024-10-02T12:35:09Z</time>
      </trkpt>
      <trkpt lat="49.27705" lon="0.00885">
        <ele>143.6</ele>
        <time>2024-10-02T12:35:10Z</time>
      </trkpt>
      <trkpt lat="49.27702" lon="0.00896">
        <ele>143.6</ele>
        <time>2024-10-02T12:35:11Z</time>
      </trkpt>
      <trkpt lat="49.27698" lon="0.00907">
        <ele>143.4</ele>
        <time>2024-10-02T12:35:12Z</time>
      </trkpt>
      <trkpt lat="49.27695" lon="0.00918">
        <ele>143.4</ele>
        <time>2024-10-02T12:35:13Z</time>
      </trkpt>
      <trkpt lat="49.27692" lon="0.0093">
        <ele>143.4</ele>
        <time>2024-10-02T12:35:14Z</time>
      </trkpt>
      <trkpt lat="49.2769" lon="0.00941">
        <ele>143.4</ele>
        <time>2024-10-02T12:35:15Z</time>
      </trkpt>
      <trkpt lat="49.27687" lon="0.00953">
        <ele>143.4</ele>
        <time>2024-10-02T12:35:16Z</time>
      </trkpt>
      <trkpt lat="49.27685" lon="0.00965">
        <ele>143.4</ele>
        <time>2024-10-02T12:35:17Z</time>
      </trkpt>
      <trkpt lat="49.27683" lon="0.00977">
        <ele>143.4</ele>
        <time>2024-10-02T12:35:18Z</time>
      </trkpt>
      <trkpt lat="49.27681" lon="0.0099">
        <ele>143.4</ele>
        <time>2024-10-02T12:35:19Z</time>
      </trkpt>
      <trkpt lat="49.2768" lon="0.01003">
        <ele>143.4</ele>
        <time>2024-10-02T12:35:20Z</time>
      </trkpt>
      <trkpt lat="49.27678" lon="0.01016">
        <ele>143.6</ele>
        <time>2024-10-02T12:35:21Z</time>
      </trkpt>
      <trkpt lat="49.27677" lon="0.01029">
        <ele>143.6</ele>
        <time>2024-10-02T12:35:22Z</time>
      </trkpt>
      <trkpt lat="49.27676" lon="0.01041">
        <ele>143.6</ele>
        <time>2024-10-02T12:35:23Z</time>
      </trkpt>
      <trkpt lat="49.27674" lon="0.01054">
        <ele>143.6</ele>
        <time>2024-10-02T12:35:24Z</time>
      </trkpt>
      <trkpt lat="49.27673" lon="0.01066">
        <ele>143.6</ele>
        <time>2024-10-02T12:35:25Z</time>
      </trkpt>
      <trkpt lat="49.27671" lon="0.01078">
        <ele>143.6</ele>
        <time>2024-10-02T12:35:26Z</time>
      </trkpt>
      <trkpt lat="49.27669" lon="0.0109">
        <ele>143.6</ele>
        <time>2024-10-02T12:35:27Z</time>
      </trkpt>
      <trkpt lat="49.27668" lon="0.01102">
        <ele>143.4</ele>
        <time>2024-10-02T12:35:28Z</time>
      </trkpt>
      <trkpt lat="49.27667" lon="0.01114">
        <ele>143.4</ele>
        <time>2024-10-02T12:35:29Z</time>
      </trkpt>
      <trkpt lat="49.27665" lon="0.01126">
        <ele>143.4</ele>
        <time>2024-10-02T12:35:30Z</time>
      </trkpt>
      <trkpt lat="49.27663" lon="0.01137">
        <ele>143.2</ele>
        <time>2024-10-02T12:35:31Z</time>
      </trkpt>
      <trkpt lat="49.27662" lon="0.01149">
        <ele>143.2</ele>
        <time>2024-10-02T12:35:32Z</time>
      </trkpt>
      <trkpt lat="49.27661" lon="0.01161">
        <ele>143</ele>
        <time>2024-10-02T12:35:33Z</time>
      </trkpt>
      <trkpt lat="49.27659" lon="0.01173">
        <ele>143</ele>
        <time>2024-10-02T12:35:34Z</time>
      </trkpt>
      <trkpt lat="49.27657" lon="0.01185">
        <ele>143</ele>
        <time>2024-10-02T12:35:35Z</time>
      </trkpt>
      <trkpt lat="49.27656" lon="0.01198">
        <ele>142.8</ele>
        <time>2024-10-02T12:35:36Z</time>
      </trkpt>
      <trkpt lat="49.27654" lon="0.01211">
        <ele>142.8</ele>
        <time>2024-10-02T12:35:37Z</time>
      </trkpt>
      <trkpt lat="49.27653" lon="0.01224">
        <ele>142.8</ele>
        <time>2024-10-02T12:35:38Z</time>
      </trkpt>
      <trkpt lat="49.27652" lon="0.01237">
        <ele>142.6</ele>
        <time>2024-10-02T12:35:39Z</time>
      </trkpt>
      <trkpt lat="49.2765" lon="0.0125">
        <ele>142.4</ele>
        <time>2024-10-02T12:35:40Z</time>
      </trkpt>
      <trkpt lat="49.27648" lon="0.01263">
        <ele>142.4</ele>
        <time>2024-10-02T12:35:41Z</time>
      </trkpt>
      <trkpt lat="49.27647" lon="0.01275">
        <ele>142</ele>
        <time>2024-10-02T12:35:42Z</time>
      </trkpt>
      <trkpt lat="49.27645" lon="0.01288">
        <ele>141.8</ele>
        <time>2024-10-02T12:35:43Z</time>
      </trkpt>
      <trkpt lat="49.27644" lon="0.013">
        <ele>141.6</ele>
        <time>2024-10-02T12:35:44Z</time>
      </trkpt>
      <trkpt lat="49.27642" lon="0.01315">
        <ele>141.4</ele>
        <time>2024-10-02T12:35:45Z</time>
      </trkpt>
      <trkpt lat="49.2764" lon="0.01327">
        <ele>141.4</ele>
        <time>2024-10-02T12:35:46Z</time>
      </trkpt>
      <trkpt lat="49.27639" lon="0.01339">
        <ele>141.2</ele>
        <time>2024-10-02T12:35:47Z</time>
      </trkpt>
      <trkpt lat="49.27637" lon="0.01352">
        <ele>141.2</ele>
        <time>2024-10-02T12:35:48Z</time>
      </trkpt>
      <trkpt lat="49.27635" lon="0.01364">
        <ele>141.2</ele>
        <time>2024-10-02T12:35:49Z</time>
      </trkpt>
      <trkpt lat="49.27634" lon="0.01377">
        <ele>141.2</ele>
        <time>2024-10-02T12:35:50Z</time>
      </trkpt>
      <trkpt lat="49.27633" lon="0.01387">
        <ele>141</ele>
        <time>2024-10-02T12:35:51Z</time>
      </trkpt>
      <trkpt lat="49.27631" lon="0.014">
        <ele>141</ele>
        <time>2024-10-02T12:35:52Z</time>
      </trkpt>
      <trkpt lat="49.2763" lon="0.01413">
        <ele>141</ele>
        <time>2024-10-02T12:35:53Z</time>
      </trkpt>
      <trkpt lat="49.27628" lon="0.01425">
        <ele>141</ele>
        <time>2024-10-02T12:35:54Z</time>
      </trkpt>
      <trkpt lat="49.27626" lon="0.0144">
        <ele>140.8</ele>
        <time>2024-10-02T12:35:55Z</time>
      </trkpt>
      <trkpt lat="49.27624" lon="0.0145">
        <ele>140.8</ele>
        <time>2024-10-02T12:35:56Z</time>
      </trkpt>
      <trkpt lat="49.27622" lon="0.01462">
        <ele>140.8</ele>
        <time>2024-10-02T12:35:57Z</time>
      </trkpt>
      <trkpt lat="49.2762" lon="0.01474">
        <ele>140.8</ele>
        <time>2024-10-02T12:35:58Z</time>
      </trkpt>
      <trkpt lat="49.27618" lon="0.01487">
        <ele>140.8</ele>
        <time>2024-10-02T12:35:59Z</time>
      </trkpt>
      <trkpt lat="49.27616" lon="0.01499">
        <ele>140.8</ele>
        <time>2024-10-02T12:36:00Z</time>
      </trkpt>
      <trkpt lat="49.27614" lon="0.01511">
        <ele>140.8</ele>
        <time>2024-10-02T12:36:01Z</time>
      </trkpt>
      <trkpt lat="49.27611" lon="0.01523">
        <ele>140.8</ele>
        <time>2024-10-02T12:36:02Z</time>
      </trkpt>
      <trkpt lat="49.27608" lon="0.01537">
        <ele>140.8</ele>
        <time>2024-10-02T12:36:03Z</time>
      </trkpt>
      <trkpt lat="49.27606" lon="0.01546">
        <ele>140.8</ele>
        <time>2024-10-02T12:36:04Z</time>
      </trkpt>
      <trkpt lat="49.27603" lon="0.01558">
        <ele>140.8</ele>
        <time>2024-10-02T12:36:05Z</time>
      </trkpt>
      <trkpt lat="49.27601" lon="0.01569">
        <ele>140.8</ele>
        <time>2024-10-02T12:36:06Z</time>
      </trkpt>
      <trkpt lat="49.27598" lon="0.0158">
        <ele>140.8</ele>
        <time>2024-10-02T12:36:07Z</time>
      </trkpt>
      <trkpt lat="49.27595" lon="0.01591">
        <ele>140.8</ele>
        <time>2024-10-02T12:36:08Z</time>
      </trkpt>
      <trkpt lat="49.27592" lon="0.01603">
        <ele>140.8</ele>
        <time>2024-10-02T12:36:09Z</time>
      </trkpt>
      <trkpt lat="49.27589" lon="0.01614">
        <ele>141</ele>
        <time>2024-10-02T12:36:10Z</time>
      </trkpt>
      <trkpt lat="49.27586" lon="0.01626">
        <ele>141</ele>
        <time>2024-10-02T12:36:11Z</time>
      </trkpt>
      <trkpt lat="49.27582" lon="0.01637">
        <ele>141</ele>
        <time>2024-10-02T12:36:12Z</time>
      </trkpt>
      <trkpt lat="49.27579" lon="0.01649">
        <ele>141</ele>
        <time>2024-10-02T12:36:13Z</time>
      </trkpt>
      <trkpt lat="49.27576" lon="0.01661">
        <ele>141</ele>
        <time>2024-10-02T12:36:14Z</time>
      </trkpt>
      <trkpt lat="49.27572" lon="0.01672">
        <ele>141</ele>
        <time>2024-10-02T12:36:15Z</time>
      </trkpt>
      <trkpt lat="49.27569" lon="0.01684">
        <ele>141.2</ele>
        <time>2024-10-02T12:36:16Z</time>
      </trkpt>
      <trkpt lat="49.27565" lon="0.01696">
        <ele>141.2</ele>
        <time>2024-10-02T12:36:17Z</time>
      </trkpt>
      <trkpt lat="49.27562" lon="0.01707">
        <ele>141.2</ele>
        <time>2024-10-02T12:36:18Z</time>
      </trkpt>
      <trkpt lat="49.27558" lon="0.01719">
        <ele>141.2</ele>
        <time>2024-10-02T12:36:19Z</time>
      </trkpt>
      <trkpt lat="49.27555" lon="0.01731">
        <ele>141.2</ele>
        <time>2024-10-02T12:36:20Z</time>
      </trkpt>
      <trkpt lat="49.27551" lon="0.01742">
        <ele>141.4</ele>
        <time>2024-10-02T12:36:21Z</time>
      </trkpt>
      <trkpt lat="49.27548" lon="0.01754">
        <ele>141.4</ele>
        <time>2024-10-02T12:36:22Z</time>
      </trkpt>
      <trkpt lat="49.27545" lon="0.01766">
        <ele>141.4</ele>
        <time>2024-10-02T12:36:23Z</time>
      </trkpt>
      <trkpt lat="49.27541" lon="0.01778">
        <ele>141.6</ele>
        <time>2024-10-02T12:36:24Z</time>
      </trkpt>
      <trkpt lat="49.27538" lon="0.0179">
        <ele>141.6</ele>
        <time>2024-10-02T12:36:25Z</time>
      </trkpt>
      <trkpt lat="49.27534" lon="0.01801">
        <ele>141.6</ele>
        <time>2024-10-02T12:36:26Z</time>
      </trkpt>
      <trkpt lat="49.27531" lon="0.01813">
        <ele>141.6</ele>
        <time>2024-10-02T12:36:27Z</time>
      </trkpt>
      <trkpt lat="49.27527" lon="0.01825">
        <ele>141.6</ele>
        <time>2024-10-02T12:36:28Z</time>
      </trkpt>
      <trkpt lat="49.27524" lon="0.01837">
        <ele>141.6</ele>
        <time>2024-10-02T12:36:29Z</time>
      </trkpt>
      <trkpt lat="49.2752" lon="0.01848">
        <ele>141.6</ele>
        <time>2024-10-02T12:36:30Z</time>
      </trkpt>
      <trkpt lat="49.27517" lon="0.0186">
        <ele>141.6</ele>
        <time>2024-10-02T12:36:31Z</time>
      </trkpt>
      <trkpt lat="49.27514" lon="0.01872">
        <ele>141.6</ele>
        <time>2024-10-02T12:36:32Z</time>
      </trkpt>
      <trkpt lat="49.2751" lon="0.01883">
        <ele>141.6</ele>
        <time>2024-10-02T12:36:33Z</time>
      </trkpt>
      <trkpt lat="49.27506" lon="0.01897">
        <ele>141.6</ele>
        <time>2024-10-02T12:36:34Z</time>
      </trkpt>
      <trkpt lat="49.27502" lon="0.01909">
        <ele>141.6</ele>
        <time>2024-10-02T12:36:35Z</time>
      </trkpt>
      <trkpt lat="49.27499" lon="0.01921">
        <ele>141.6</ele>
        <time>2024-10-02T12:36:36Z</time>
      </trkpt>
      <trkpt lat="49.27495" lon="0.01932">
        <ele>141.6</ele>
        <time>2024-10-02T12:36:37Z</time>
      </trkpt>
      <trkpt lat="49.27493" lon="0.01941">
        <ele>141.6</ele>
        <time>2024-10-02T12:36:38Z</time>
      </trkpt>
      <trkpt lat="49.27489" lon="0.01954">
        <ele>141.6</ele>
        <time>2024-10-02T12:36:39Z</time>
      </trkpt>
      <trkpt lat="49.27486" lon="0.01963">
        <ele>141.6</ele>
        <time>2024-10-02T12:36:40Z</time>
      </trkpt>
      <trkpt lat="49.27482" lon="0.01976">
        <ele>141.6</ele>
        <time>2024-10-02T12:36:41Z</time>
      </trkpt>
      <trkpt lat="49.27478" lon="0.01987">
        <ele>141.6</ele>
        <time>2024-10-02T12:36:42Z</time>
      </trkpt>
      <trkpt lat="49.27475" lon="0.01998">
        <ele>141.6</ele>
        <time>2024-10-02T12:36:43Z</time>
      </trkpt>
      <trkpt lat="49.27471" lon="0.0201">
        <ele>141.6</ele>
        <time>2024-10-02T12:36:44Z</time>
      </trkpt>
      <trkpt lat="49.27467" lon="0.02021">
        <ele>141.6</ele>
        <time>2024-10-02T12:36:45Z</time>
      </trkpt>
      <trkpt lat="49.27463" lon="0.02033">
        <ele>141.6</ele>
        <time>2024-10-02T12:36:46Z</time>
      </trkpt>
      <trkpt lat="49.27459" lon="0.02045">
        <ele>141.6</ele>
        <time>2024-10-02T12:36:47Z</time>
      </trkpt>
      <trkpt lat="49.27455" lon="0.02056">
        <ele>141.6</ele>
        <time>2024-10-02T12:36:48Z</time>
      </trkpt>
      <trkpt lat="49.27452" lon="0.02065">
        <ele>141.6</ele>
        <time>2024-10-02T12:36:49Z</time>
      </trkpt>
      <trkpt lat="49.27448" lon="0.02078">
        <ele>141.6</ele>
        <time>2024-10-02T12:36:50Z</time>
      </trkpt>
      <trkpt lat="49.27444" lon="0.02088">
        <ele>141.6</ele>
        <time>2024-10-02T12:36:51Z</time>
      </trkpt>
      <trkpt lat="49.27439" lon="0.02098">
        <ele>141.6</ele>
        <time>2024-10-02T12:36:52Z</time>
      </trkpt>
      <trkpt lat="49.27435" lon="0.02108">
        <ele>141.6</ele>
        <time>2024-10-02T12:36:53Z</time>
      </trkpt>
      <trkpt lat="49.27431" lon="0.02118">
        <ele>141.6</ele>
        <time>2024-10-02T12:36:54Z</time>
      </trkpt>
      <trkpt lat="49.27427" lon="0.02128">
        <ele>141.6</ele>
        <time>2024-10-02T12:36:55Z</time>
      </trkpt>
      <trkpt lat="49.27423" lon="0.02139">
        <ele>141.6</ele>
        <time>2024-10-02T12:36:56Z</time>
      </trkpt>
      <trkpt lat="49.27419" lon="0.0215">
        <ele>141.6</ele>
        <time>2024-10-02T12:36:57Z</time>
      </trkpt>
      <trkpt lat="49.27414" lon="0.02161">
        <ele>141.6</ele>
        <time>2024-10-02T12:36:58Z</time>
      </trkpt>
      <trkpt lat="49.2741" lon="0.02172">
        <ele>141.6</ele>
        <time>2024-10-02T12:36:59Z</time>
      </trkpt>
      <trkpt lat="49.27406" lon="0.02183">
        <ele>141.6</ele>
        <time>2024-10-02T12:37:00Z</time>
      </trkpt>
      <trkpt lat="49.27401" lon="0.02194">
        <ele>141.6</ele>
        <time>2024-10-02T12:37:01Z</time>
      </trkpt>
      <trkpt lat="49.27397" lon="0.02205">
        <ele>141.6</ele>
        <time>2024-10-02T12:37:02Z</time>
      </trkpt>
      <trkpt lat="49.27393" lon="0.02216">
        <ele>141.6</ele>
        <time>2024-10-02T12:37:03Z</time>
      </trkpt>
      <trkpt lat="49.27389" lon="0.02227">
        <ele>141.6</ele>
        <time>2024-10-02T12:37:04Z</time>
      </trkpt>
      <trkpt lat="49.27385" lon="0.02238">
        <ele>141.6</ele>
        <time>2024-10-02T12:37:05Z</time>
      </trkpt>
      <trkpt lat="49.2738" lon="0.02248">
        <ele>141.6</ele>
        <time>2024-10-02T12:37:06Z</time>
      </trkpt>
      <trkpt lat="49.27376" lon="0.02258">
        <ele>141.6</ele>
        <time>2024-10-02T12:37:07Z</time>
      </trkpt>
      <trkpt lat="49.27372" lon="0.02268">
        <ele>141.6</ele>
        <time>2024-10-02T12:37:08Z</time>
      </trkpt>
      <trkpt lat="49.27368" lon="0.02278">
        <ele>141.6</ele>
        <time>2024-10-02T12:37:09Z</time>
      </trkpt>
      <trkpt lat="49.27365" lon="0.02288">
        <ele>141.6</ele>
        <time>2024-10-02T12:37:10Z</time>
      </trkpt>
      <trkpt lat="49.27361" lon="0.02297">
        <ele>141.6</ele>
        <time>2024-10-02T12:37:11Z</time>
      </trkpt>
      <trkpt lat="49.27357" lon="0.02306">
        <ele>141.6</ele>
        <time>2024-10-02T12:37:12Z</time>
      </trkpt>
      <trkpt lat="49.27354" lon="0.02315">
        <ele>141.6</ele>
        <time>2024-10-02T12:37:13Z</time>
      </trkpt>
      <trkpt lat="49.2735" lon="0.02323">
        <ele>141.6</ele>
        <time>2024-10-02T12:37:14Z</time>
      </trkpt>
      <trkpt lat="49.27346" lon="0.02332">
        <ele>141.6</ele>
        <time>2024-10-02T12:37:15Z</time>
      </trkpt>
      <trkpt lat="49.27342" lon="0.0234">
        <ele>141.6</ele>
        <time>2024-10-02T12:37:16Z</time>
      </trkpt>
      <trkpt lat="49.27339" lon="0.02349">
        <ele>141.6</ele>
        <time>2024-10-02T12:37:17Z</time>
      </trkpt>
      <trkpt lat="49.27336" lon="0.02358">
        <ele>141.6</ele>
        <time>2024-10-02T12:37:18Z</time>
      </trkpt>
      <trkpt lat="49.27332" lon="0.02366">
        <ele>141.6</ele>
        <time>2024-10-02T12:37:19Z</time>
      </trkpt>
      <trkpt lat="49.2733" lon="0.02374">
        <ele>141.6</ele>
        <time>2024-10-02T12:37:20Z</time>
      </trkpt>
      <trkpt lat="49.27327" lon="0.02381">
        <ele>141.6</ele>
        <time>2024-10-02T12:37:21Z</time>
      </trkpt>
      <trkpt lat="49.27324" lon="0.02389">
        <ele>141.6</ele>
        <time>2024-10-02T12:37:22Z</time>
      </trkpt>
      <trkpt lat="49.27322" lon="0.02395">
        <ele>141.6</ele>
        <time>2024-10-02T12:37:23Z</time>
      </trkpt>
      <trkpt lat="49.2732" lon="0.024">
        <ele>141.6</ele>
        <time>2024-10-02T12:37:24Z</time>
      </trkpt>
      <trkpt lat="49.27318" lon="0.02405">
        <ele>141.6</ele>
        <time>2024-10-02T12:37:25Z</time>
      </trkpt>
      <trkpt lat="49.27318" lon="0.0241">
        <ele>141.6</ele>
        <time>2024-10-02T12:37:26Z</time>
      </trkpt>
      <trkpt lat="49.27318" lon="0.02416">
        <ele>141.6</ele>
        <time>2024-10-02T12:37:27Z</time>
      </trkpt>
      <trkpt lat="49.2732" lon="0.02423">
        <ele>141.6</ele>
        <time>2024-10-02T12:37:28Z</time>
      </trkpt>
      <trkpt lat="49.27322" lon="0.0243">
        <ele>141.6</ele>
        <time>2024-10-02T12:37:29Z</time>
      </trkpt>
      <trkpt lat="49.27325" lon="0.02436">
        <ele>141.6</ele>
        <time>2024-10-02T12:37:30Z</time>
      </trkpt>
      <trkpt lat="49.27329" lon="0.02441">
        <ele>141.6</ele>
        <time>2024-10-02T12:37:31Z</time>
      </trkpt>
      <trkpt lat="49.27335" lon="0.02446">
        <ele>141.6</ele>
        <time>2024-10-02T12:37:32Z</time>
      </trkpt>
      <trkpt lat="49.2734" lon="0.02451">
        <ele>141.6</ele>
        <time>2024-10-02T12:37:33Z</time>
      </trkpt>
      <trkpt lat="49.27346" lon="0.02456">
        <ele>141.6</ele>
        <time>2024-10-02T12:37:34Z</time>
      </trkpt>
      <trkpt lat="49.27351" lon="0.02461">
        <ele>141.6</ele>
        <time>2024-10-02T12:37:35Z</time>
      </trkpt>
      <trkpt lat="49.27357" lon="0.02467">
        <ele>141.6</ele>
        <time>2024-10-02T12:37:36Z</time>
      </trkpt>
      <trkpt lat="49.27363" lon="0.02472">
        <ele>141.6</ele>
        <time>2024-10-02T12:37:37Z</time>
      </trkpt>
      <trkpt lat="49.27369" lon="0.02477">
        <ele>141.4</ele>
        <time>2024-10-02T12:37:38Z</time>
      </trkpt>
      <trkpt lat="49.27374" lon="0.02484">
        <ele>141.4</ele>
        <time>2024-10-02T12:37:39Z</time>
      </trkpt>
      <trkpt lat="49.27379" lon="0.02491">
        <ele>141.4</ele>
        <time>2024-10-02T12:37:40Z</time>
      </trkpt>
      <trkpt lat="49.27385" lon="0.02498">
        <ele>141.4</ele>
        <time>2024-10-02T12:37:41Z</time>
      </trkpt>
      <trkpt lat="49.2739" lon="0.02505">
        <ele>141.4</ele>
        <time>2024-10-02T12:37:42Z</time>
      </trkpt>
      <trkpt lat="49.27394" lon="0.02512">
        <ele>141.4</ele>
        <time>2024-10-02T12:37:43Z</time>
      </trkpt>
      <trkpt lat="49.27399" lon="0.0252">
        <ele>141.4</ele>
        <time>2024-10-02T12:37:44Z</time>
      </trkpt>
      <trkpt lat="49.27403" lon="0.02528">
        <ele>141.4</ele>
        <time>2024-10-02T12:37:45Z</time>
      </trkpt>
      <trkpt lat="49.27408" lon="0.02536">
        <ele>141.4</ele>
        <time>2024-10-02T12:37:46Z</time>
      </trkpt>
      <trkpt lat="49.27413" lon="0.02545">
        <ele>141.4</ele>
        <time>2024-10-02T12:37:47Z</time>
      </trkpt>
      <trkpt lat="49.27418" lon="0.02554">
        <ele>141.4</ele>
        <time>2024-10-02T12:37:48Z</time>
      </trkpt>
      <trkpt lat="49.27421" lon="0.02561">
        <ele>141.6</ele>
        <time>2024-10-02T12:37:49Z</time>
      </trkpt>
      <trkpt lat="49.27427" lon="0.02573">
        <ele>141.8</ele>
        <time>2024-10-02T12:37:50Z</time>
      </trkpt>
      <trkpt lat="49.27431" lon="0.02582">
        <ele>142</ele>
        <time>2024-10-02T12:37:51Z</time>
      </trkpt>
      <trkpt lat="49.27435" lon="0.02591">
        <ele>142</ele>
        <time>2024-10-02T12:37:52Z</time>
      </trkpt>
      <trkpt lat="49.2744" lon="0.02601">
        <ele>142</ele>
        <time>2024-10-02T12:37:53Z</time>
      </trkpt>
      <trkpt lat="49.27444" lon="0.0261">
        <ele>142</ele>
        <time>2024-10-02T12:37:54Z</time>
      </trkpt>
      <trkpt lat="49.27449" lon="0.0262">
        <ele>142</ele>
        <time>2024-10-02T12:37:55Z</time>
      </trkpt>
      <trkpt lat="49.27454" lon="0.02629">
        <ele>142</ele>
        <time>2024-10-02T12:37:56Z</time>
      </trkpt>
      <trkpt lat="49.27459" lon="0.02639">
        <ele>142</ele>
        <time>2024-10-02T12:37:57Z</time>
      </trkpt>
      <trkpt lat="49.27465" lon="0.02649">
        <ele>142</ele>
        <time>2024-10-02T12:37:58Z</time>
      </trkpt>
      <trkpt lat="49.2747" lon="0.02659">
        <ele>142</ele>
        <time>2024-10-02T12:37:59Z</time>
      </trkpt>
      <trkpt lat="49.27476" lon="0.02668">
        <ele>142</ele>
        <time>2024-10-02T12:38:00Z</time>
      </trkpt>
      <trkpt lat="49.27482" lon="0.02678">
        <ele>142</ele>
        <time>2024-10-02T12:38:01Z</time>
      </trkpt>
      <trkpt lat="49.27488" lon="0.02687">
        <ele>142</ele>
        <time>2024-10-02T12:38:02Z</time>
      </trkpt>
      <trkpt lat="49.27494" lon="0.02696">
        <ele>142</ele>
        <time>2024-10-02T12:38:03Z</time>
      </trkpt>
      <trkpt lat="49.275" lon="0.02705">
        <ele>141.8</ele>
        <time>2024-10-02T12:38:04Z</time>
      </trkpt>
      <trkpt lat="49.27506" lon="0.02714">
        <ele>141.8</ele>
        <time>2024-10-02T12:38:05Z</time>
      </trkpt>
      <trkpt lat="49.27512" lon="0.02723">
        <ele>141.6</ele>
        <time>2024-10-02T12:38:06Z</time>
      </trkpt>
      <trkpt lat="49.27517" lon="0.02731">
        <ele>141.2</ele>
        <time>2024-10-02T12:38:07Z</time>
      </trkpt>
      <trkpt lat="49.27523" lon="0.0274">
        <ele>141</ele>
        <time>2024-10-02T12:38:08Z</time>
      </trkpt>
      <trkpt lat="49.27529" lon="0.02748">
        <ele>141</ele>
        <time>2024-10-02T12:38:09Z</time>
      </trkpt>
      <trkpt lat="49.27535" lon="0.02757">
        <ele>140.8</ele>
        <time>2024-10-02T12:38:10Z</time>
      </trkpt>
      <trkpt lat="49.27541" lon="0.02765">
        <ele>140.6</ele>
        <time>2024-10-02T12:38:11Z</time>
      </trkpt>
      <trkpt lat="49.27547" lon="0.02773">
        <ele>140.4</ele>
        <time>2024-10-02T12:38:12Z</time>
      </trkpt>
      <trkpt lat="49.27553" lon="0.02781">
        <ele>140</ele>
        <time>2024-10-02T12:38:13Z</time>
      </trkpt>
      <trkpt lat="49.27559" lon="0.02788">
        <ele>139.4</ele>
        <time>2024-10-02T12:38:14Z</time>
      </trkpt>
      <trkpt lat="49.27566" lon="0.02796">
        <ele>139.2</ele>
        <time>2024-10-02T12:38:15Z</time>
      </trkpt>
      <trkpt lat="49.27572" lon="0.02803">
        <ele>139</ele>
        <time>2024-10-02T12:38:16Z</time>
      </trkpt>
      <trkpt lat="49.27578" lon="0.0281">
        <ele>138.8</ele>
        <time>2024-10-02T12:38:17Z</time>
      </trkpt>
      <trkpt lat="49.27584" lon="0.02817">
        <ele>138.8</ele>
        <time>2024-10-02T12:38:18Z</time>
      </trkpt>
      <trkpt lat="49.2759" lon="0.02824">
        <ele>138.8</ele>
        <time>2024-10-02T12:38:19Z</time>
      </trkpt>
      <trkpt lat="49.27596" lon="0.02831">
        <ele>138.6</ele>
        <time>2024-10-02T12:38:20Z</time>
      </trkpt>
      <trkpt lat="49.27602" lon="0.02838">
        <ele>138.6</ele>
        <time>2024-10-02T12:38:21Z</time>
      </trkpt>
      <trkpt lat="49.27606" lon="0.02843">
        <ele>138.6</ele>
        <time>2024-10-02T12:38:22Z</time>
      </trkpt>
      <trkpt lat="49.27614" lon="0.0285">
        <ele>138.6</ele>
        <time>2024-10-02T12:38:23Z</time>
      </trkpt>
      <trkpt lat="49.27619" lon="0.02857">
        <ele>138.6</ele>
        <time>2024-10-02T12:38:24Z</time>
      </trkpt>
      <trkpt lat="49.27625" lon="0.02863">
        <ele>138.6</ele>
        <time>2024-10-02T12:38:25Z</time>
      </trkpt>
      <trkpt lat="49.27631" lon="0.0287">
        <ele>138.6</ele>
        <time>2024-10-02T12:38:26Z</time>
      </trkpt>
      <trkpt lat="49.27637" lon="0.02876">
        <ele>138.6</ele>
        <time>2024-10-02T12:38:27Z</time>
      </trkpt>
      <trkpt lat="49.27643" lon="0.02883">
        <ele>138.4</ele>
        <time>2024-10-02T12:38:28Z</time>
      </trkpt>
      <trkpt lat="49.27649" lon="0.02889">
        <ele>138.6</ele>
        <time>2024-10-02T12:38:29Z</time>
      </trkpt>
      <trkpt lat="49.27655" lon="0.02895">
        <ele>138.6</ele>
        <time>2024-10-02T12:38:30Z</time>
      </trkpt>
      <trkpt lat="49.2766" lon="0.02902">
        <ele>138.6</ele>
        <time>2024-10-02T12:38:31Z</time>
      </trkpt>
      <trkpt lat="49.27666" lon="0.02908">
        <ele>138.2</ele>
        <time>2024-10-02T12:38:32Z</time>
      </trkpt>
      <trkpt lat="49.27673" lon="0.02915">
        <ele>138.2</ele>
        <time>2024-10-02T12:38:33Z</time>
      </trkpt>
      <trkpt lat="49.27679" lon="0.02922">
        <ele>138</ele>
        <time>2024-10-02T12:38:34Z</time>
      </trkpt>
      <trkpt lat="49.27685" lon="0.02929">
        <ele>138</ele>
        <time>2024-10-02T12:38:35Z</time>
      </trkpt>
      <trkpt lat="49.27691" lon="0.02936">
        <ele>137.6</ele>
        <time>2024-10-02T12:38:36Z</time>
      </trkpt>
      <trkpt lat="49.27697" lon="0.02943">
        <ele>137.4</ele>
        <time>2024-10-02T12:38:37Z</time>
      </trkpt>
      <trkpt lat="49.27703" lon="0.02949">
        <ele>137.2</ele>
        <time>2024-10-02T12:38:38Z</time>
      </trkpt>
      <trkpt lat="49.2771" lon="0.02957">
        <ele>137.2</ele>
        <time>2024-10-02T12:38:39Z</time>
      </trkpt>
      <trkpt lat="49.27716" lon="0.02964">
        <ele>137</ele>
        <time>2024-10-02T12:38:40Z</time>
      </trkpt>
      <trkpt lat="49.27723" lon="0.02971">
        <ele>136.8</ele>
        <time>2024-10-02T12:38:41Z</time>
      </trkpt>
      <trkpt lat="49.27729" lon="0.02979">
        <ele>136.8</ele>
        <time>2024-10-02T12:38:42Z</time>
      </trkpt>
      <trkpt lat="49.27735" lon="0.02987">
        <ele>136.8</ele>
        <time>2024-10-02T12:38:43Z</time>
      </trkpt>
      <trkpt lat="49.27741" lon="0.02995">
        <ele>136.8</ele>
        <time>2024-10-02T12:38:44Z</time>
      </trkpt>
      <trkpt lat="49.27747" lon="0.03002">
        <ele>136.6</ele>
        <time>2024-10-02T12:38:45Z</time>
      </trkpt>
      <trkpt lat="49.27753" lon="0.0301">
        <ele>136.6</ele>
        <time>2024-10-02T12:38:46Z</time>
      </trkpt>
      <trkpt lat="49.27758" lon="0.03018">
        <ele>136.6</ele>
        <time>2024-10-02T12:38:47Z</time>
      </trkpt>
      <trkpt lat="49.27764" lon="0.03027">
        <ele>136.6</ele>
        <time>2024-10-02T12:38:48Z</time>
      </trkpt>
      <trkpt lat="49.27768" lon="0.03034">
        <ele>136.6</ele>
        <time>2024-10-02T12:38:49Z</time>
      </trkpt>
      <trkpt lat="49.27775" lon="0.03044">
        <ele>136.6</ele>
        <time>2024-10-02T12:38:50Z</time>
      </trkpt>
      <trkpt lat="49.2778" lon="0.03053">
        <ele>136.6</ele>
        <time>2024-10-02T12:38:51Z</time>
      </trkpt>
      <trkpt lat="49.27785" lon="0.03062">
        <ele>136.6</ele>
        <time>2024-10-02T12:38:52Z</time>
      </trkpt>
      <trkpt lat="49.2779" lon="0.03071">
        <ele>136.6</ele>
        <time>2024-10-02T12:38:53Z</time>
      </trkpt>
      <trkpt lat="49.27795" lon="0.0308">
        <ele>136.6</ele>
        <time>2024-10-02T12:38:54Z</time>
      </trkpt>
      <trkpt lat="49.278" lon="0.03089">
        <ele>136.6</ele>
        <time>2024-10-02T12:38:55Z</time>
      </trkpt>
      <trkpt lat="49.27805" lon="0.03098">
        <ele>136.6</ele>
        <time>2024-10-02T12:38:56Z</time>
      </trkpt>
      <trkpt lat="49.2781" lon="0.03107">
        <ele>136.6</ele>
        <time>2024-10-02T12:38:57Z</time>
      </trkpt>
      <trkpt lat="49.27816" lon="0.03116">
        <ele>136.6</ele>
        <time>2024-10-02T12:38:58Z</time>
      </trkpt>
      <trkpt lat="49.27821" lon="0.03125">
        <ele>136.6</ele>
        <time>2024-10-02T12:38:59Z</time>
      </trkpt>
      <trkpt lat="49.27826" lon="0.03135">
        <ele>136.6</ele>
        <time>2024-10-02T12:39:00Z</time>
      </trkpt>
      <trkpt lat="49.27832" lon="0.03144">
        <ele>136.6</ele>
        <time>2024-10-02T12:39:01Z</time>
      </trkpt>
      <trkpt lat="49.27837" lon="0.03153">
        <ele>136.6</ele>
        <time>2024-10-02T12:39:02Z</time>
      </trkpt>
      <trkpt lat="49.27842" lon="0.03162">
        <ele>136.6</ele>
        <time>2024-10-02T12:39:03Z</time>
      </trkpt>
      <trkpt lat="49.27846" lon="0.03172">
        <ele>136.6</ele>
        <time>2024-10-02T12:39:04Z</time>
      </trkpt>
      <trkpt lat="49.27851" lon="0.03182">
        <ele>136.4</ele>
        <time>2024-10-02T12:39:05Z</time>
      </trkpt>
      <trkpt lat="49.27855" lon="0.03192">
        <ele>136.4</ele>
        <time>2024-10-02T12:39:06Z</time>
      </trkpt>
      <trkpt lat="49.27859" lon="0.03202">
        <ele>136.4</ele>
        <time>2024-10-02T12:39:07Z</time>
      </trkpt>
      <trkpt lat="49.27864" lon="0.03213">
        <ele>136.4</ele>
        <time>2024-10-02T12:39:08Z</time>
      </trkpt>
      <trkpt lat="49.27868" lon="0.03223">
        <ele>136</ele>
        <time>2024-10-02T12:39:09Z</time>
      </trkpt>
      <trkpt lat="49.27871" lon="0.03235">
        <ele>136</ele>
        <time>2024-10-02T12:39:10Z</time>
      </trkpt>
      <trkpt lat="49.27875" lon="0.03246">
        <ele>135.8</ele>
        <time>2024-10-02T12:39:11Z</time>
      </trkpt>
      <trkpt lat="49.27878" lon="0.03257">
        <ele>135.8</ele>
        <time>2024-10-02T12:39:12Z</time>
      </trkpt>
      <trkpt lat="49.27881" lon="0.03269">
        <ele>135.8</ele>
        <time>2024-10-02T12:39:13Z</time>
      </trkpt>
      <trkpt lat="49.27884" lon="0.0328">
        <ele>135.6</ele>
        <time>2024-10-02T12:39:14Z</time>
      </trkpt>
      <trkpt lat="49.27886" lon="0.03292">
        <ele>135.2</ele>
        <time>2024-10-02T12:39:15Z</time>
      </trkpt>
      <trkpt lat="49.27889" lon="0.03304">
        <ele>135</ele>
        <time>2024-10-02T12:39:16Z</time>
      </trkpt>
      <trkpt lat="49.27891" lon="0.03317">
        <ele>135</ele>
        <time>2024-10-02T12:39:17Z</time>
      </trkpt>
      <trkpt lat="49.27894" lon="0.03328">
        <ele>134.8</ele>
        <time>2024-10-02T12:39:18Z</time>
      </trkpt>
      <trkpt lat="49.27896" lon="0.0334">
        <ele>134.8</ele>
        <time>2024-10-02T12:39:19Z</time>
      </trkpt>
      <trkpt lat="49.27899" lon="0.03352">
        <ele>134.6</ele>
        <time>2024-10-02T12:39:20Z</time>
      </trkpt>
      <trkpt lat="49.27902" lon="0.03365">
        <ele>134.6</ele>
        <time>2024-10-02T12:39:21Z</time>
      </trkpt>
      <trkpt lat="49.27904" lon="0.03377">
        <ele>134.6</ele>
        <time>2024-10-02T12:39:22Z</time>
      </trkpt>
      <trkpt lat="49.27907" lon="0.03389">
        <ele>134.6</ele>
        <time>2024-10-02T12:39:23Z</time>
      </trkpt>
      <trkpt lat="49.27909" lon="0.03402">
        <ele>134.4</ele>
        <time>2024-10-02T12:39:24Z</time>
      </trkpt>
      <trkpt lat="49.27911" lon="0.03414">
        <ele>134.4</ele>
        <time>2024-10-02T12:39:25Z</time>
      </trkpt>
      <trkpt lat="49.27914" lon="0.03426">
        <ele>134.4</ele>
        <time>2024-10-02T12:39:26Z</time>
      </trkpt>
      <trkpt lat="49.27917" lon="0.03439">
        <ele>134.4</ele>
        <time>2024-10-02T12:39:27Z</time>
      </trkpt>
      <trkpt lat="49.27919" lon="0.03451">
        <ele>134.2</ele>
        <time>2024-10-02T12:39:28Z</time>
      </trkpt>
      <trkpt lat="49.27922" lon="0.03463">
        <ele>134.2</ele>
        <time>2024-10-02T12:39:29Z</time>
      </trkpt>
      <trkpt lat="49.27925" lon="0.03475">
        <ele>134.2</ele>
        <time>2024-10-02T12:39:30Z</time>
      </trkpt>
      <trkpt lat="49.27929" lon="0.03486">
        <ele>134</ele>
        <time>2024-10-02T12:39:31Z</time>
      </trkpt>
      <trkpt lat="49.27933" lon="0.03498">
        <ele>134</ele>
        <time>2024-10-02T12:39:32Z</time>
      </trkpt>
      <trkpt lat="49.27938" lon="0.0351">
        <ele>134</ele>
        <time>2024-10-02T12:39:33Z</time>
      </trkpt>
      <trkpt lat="49.27942" lon="0.03521">
        <ele>133.8</ele>
        <time>2024-10-02T12:39:34Z</time>
      </trkpt>
      <trkpt lat="49.27947" lon="0.03532">
        <ele>133.8</ele>
        <time>2024-10-02T12:39:35Z</time>
      </trkpt>
      <trkpt lat="49.27952" lon="0.03543">
        <ele>133.6</ele>
        <time>2024-10-02T12:39:36Z</time>
      </trkpt>
      <trkpt lat="49.27956" lon="0.03555">
        <ele>133.4</ele>
        <time>2024-10-02T12:39:37Z</time>
      </trkpt>
      <trkpt lat="49.2796" lon="0.03566">
        <ele>133.2</ele>
        <time>2024-10-02T12:39:38Z</time>
      </trkpt>
      <trkpt lat="49.27964" lon="0.03578">
        <ele>133.2</ele>
        <time>2024-10-02T12:39:39Z</time>
      </trkpt>
      <trkpt lat="49.27968" lon="0.0359">
        <ele>133</ele>
        <time>2024-10-02T12:39:40Z</time>
      </trkpt>
      <trkpt lat="49.27972" lon="0.03603">
        <ele>132.8</ele>
        <time>2024-10-02T12:39:41Z</time>
      </trkpt>
      <trkpt lat="49.27976" lon="0.03615">
        <ele>132.6</ele>
        <time>2024-10-02T12:39:42Z</time>
      </trkpt>
      <trkpt lat="49.27979" lon="0.03628">
        <ele>132.6</ele>
        <time>2024-10-02T12:39:43Z</time>
      </trkpt>
      <trkpt lat="49.27982" lon="0.0364">
        <ele>132.4</ele>
        <time>2024-10-02T12:39:44Z</time>
      </trkpt>
      <trkpt lat="49.27986" lon="0.03653">
        <ele>132.2</ele>
        <time>2024-10-02T12:39:45Z</time>
      </trkpt>
      <trkpt lat="49.27989" lon="0.03666">
        <ele>132.2</ele>
        <time>2024-10-02T12:39:46Z</time>
      </trkpt>
      <trkpt lat="49.27992" lon="0.03678">
        <ele>132</ele>
        <time>2024-10-02T12:39:47Z</time>
      </trkpt>
      <trkpt lat="49.27995" lon="0.03691">
        <ele>131.8</ele>
        <time>2024-10-02T12:39:48Z</time>
      </trkpt>
      <trkpt lat="49.27998" lon="0.03703">
        <ele>131.6</ele>
        <time>2024-10-02T12:39:49Z</time>
      </trkpt>
      <trkpt lat="49.28001" lon="0.03716">
        <ele>131.6</ele>
        <time>2024-10-02T12:39:50Z</time>
      </trkpt>
      <trkpt lat="49.28004" lon="0.03728">
        <ele>131.6</ele>
        <time>2024-10-02T12:39:51Z</time>
      </trkpt>
      <trkpt lat="49.28007" lon="0.0374">
        <ele>131.4</ele>
        <time>2024-10-02T12:39:52Z</time>
      </trkpt>
      <trkpt lat="49.28009" lon="0.03752">
        <ele>131.4</ele>
        <time>2024-10-02T12:39:53Z</time>
      </trkpt>
      <trkpt lat="49.28011" lon="0.03762">
        <ele>131.2</ele>
        <time>2024-10-02T12:39:54Z</time>
      </trkpt>
      <trkpt lat="49.28014" lon="0.03777">
        <ele>131.2</ele>
        <time>2024-10-02T12:39:55Z</time>
      </trkpt>
      <trkpt lat="49.28017" lon="0.03789">
        <ele>131</ele>
        <time>2024-10-02T12:39:56Z</time>
      </trkpt>
      <trkpt lat="49.28019" lon="0.03801">
        <ele>131</ele>
        <time>2024-10-02T12:39:57Z</time>
      </trkpt>
      <trkpt lat="49.28022" lon="0.03813">
        <ele>131</ele>
        <time>2024-10-02T12:39:58Z</time>
      </trkpt>
      <trkpt lat="49.28024" lon="0.03826">
        <ele>131</ele>
        <time>2024-10-02T12:39:59Z</time>
      </trkpt>
      <trkpt lat="49.28027" lon="0.03838">
        <ele>131</ele>
        <time>2024-10-02T12:40:00Z</time>
      </trkpt>
      <trkpt lat="49.2803" lon="0.03851">
        <ele>130.8</ele>
        <time>2024-10-02T12:40:01Z</time>
      </trkpt>
      <trkpt lat="49.28033" lon="0.03863">
        <ele>130.8</ele>
        <time>2024-10-02T12:40:02Z</time>
      </trkpt>
      <trkpt lat="49.28036" lon="0.03876">
        <ele>130.8</ele>
        <time>2024-10-02T12:40:03Z</time>
      </trkpt>
      <trkpt lat="49.28039" lon="0.03887">
        <ele>130.4</ele>
        <time>2024-10-02T12:40:04Z</time>
      </trkpt>
      <trkpt lat="49.28043" lon="0.03899">
        <ele>130.4</ele>
        <time>2024-10-02T12:40:05Z</time>
      </trkpt>
      <trkpt lat="49.28047" lon="0.03912">
        <ele>130.2</ele>
        <time>2024-10-02T12:40:06Z</time>
      </trkpt>
      <trkpt lat="49.28051" lon="0.03924">
        <ele>130</ele>
        <time>2024-10-02T12:40:07Z</time>
      </trkpt>
      <trkpt lat="49.28054" lon="0.03937">
        <ele>130</ele>
        <time>2024-10-02T12:40:08Z</time>
      </trkpt>
      <trkpt lat="49.28058" lon="0.03949">
        <ele>129.8</ele>
        <time>2024-10-02T12:40:09Z</time>
      </trkpt>
      <trkpt lat="49.28062" lon="0.03961">
        <ele>129.8</ele>
        <time>2024-10-02T12:40:10Z</time>
      </trkpt>
      <trkpt lat="49.28066" lon="0.03973">
        <ele>129.8</ele>
        <time>2024-10-02T12:40:11Z</time>
      </trkpt>
      <trkpt lat="49.28069" lon="0.03985">
        <ele>129.6</ele>
        <time>2024-10-02T12:40:12Z</time>
      </trkpt>
      <trkpt lat="49.28073" lon="0.03997">
        <ele>129.4</ele>
        <time>2024-10-02T12:40:13Z</time>
      </trkpt>
      <trkpt lat="49.28078" lon="0.04009">
        <ele>129.4</ele>
        <time>2024-10-02T12:40:14Z</time>
      </trkpt>
      <trkpt lat="49.28081" lon="0.04021">
        <ele>129.2</ele>
        <time>2024-10-02T12:40:15Z</time>
      </trkpt>
      <trkpt lat="49.28086" lon="0.04033">
        <ele>129.2</ele>
        <time>2024-10-02T12:40:16Z</time>
      </trkpt>
      <trkpt lat="49.2809" lon="0.04045">
        <ele>129</ele>
        <time>2024-10-02T12:40:17Z</time>
      </trkpt>
      <trkpt lat="49.28094" lon="0.04057">
        <ele>128.8</ele>
        <time>2024-10-02T12:40:18Z</time>
      </trkpt>
      <trkpt lat="49.28098" lon="0.04069">
        <ele>128.4</ele>
        <time>2024-10-02T12:40:19Z</time>
      </trkpt>
      <trkpt lat="49.28102" lon="0.04081">
        <ele>128</ele>
        <time>2024-10-02T12:40:20Z</time>
      </trkpt>
      <trkpt lat="49.28106" lon="0.04094">
        <ele>127.8</ele>
        <time>2024-10-02T12:40:21Z</time>
      </trkpt>
      <trkpt lat="49.2811" lon="0.04107">
        <ele>127.6</ele>
        <time>2024-10-02T12:40:22Z</time>
      </trkpt>
      <trkpt lat="49.28114" lon="0.04119">
        <ele>127.6</ele>
        <time>2024-10-02T12:40:23Z</time>
      </trkpt>
      <trkpt lat="49.28118" lon="0.04131">
        <ele>127.4</ele>
        <time>2024-10-02T12:40:24Z</time>
      </trkpt>
      <trkpt lat="49.28122" lon="0.04143">
        <ele>127.4</ele>
        <time>2024-10-02T12:40:25Z</time>
      </trkpt>
      <trkpt lat="49.28126" lon="0.04156">
        <ele>127.4</ele>
        <time>2024-10-02T12:40:26Z</time>
      </trkpt>
      <trkpt lat="49.28129" lon="0.04168">
        <ele>127.2</ele>
        <time>2024-10-02T12:40:27Z</time>
      </trkpt>
      <trkpt lat="49.28133" lon="0.04181">
        <ele>127.2</ele>
        <time>2024-10-02T12:40:28Z</time>
      </trkpt>
      <trkpt lat="49.28138" lon="0.04193">
        <ele>127</ele>
        <time>2024-10-02T12:40:29Z</time>
      </trkpt>
      <trkpt lat="49.28142" lon="0.04205">
        <ele>127</ele>
        <time>2024-10-02T12:40:30Z</time>
      </trkpt>
      <trkpt lat="49.28147" lon="0.04217">
        <ele>127</ele>
        <time>2024-10-02T12:40:31Z</time>
      </trkpt>
      <trkpt lat="49.28151" lon="0.04229">
        <ele>127</ele>
        <time>2024-10-02T12:40:32Z</time>
      </trkpt>
      <trkpt lat="49.28155" lon="0.04241">
        <ele>126.8</ele>
        <time>2024-10-02T12:40:33Z</time>
      </trkpt>
      <trkpt lat="49.2816" lon="0.04254">
        <ele>126.8</ele>
        <time>2024-10-02T12:40:34Z</time>
      </trkpt>
      <trkpt lat="49.28165" lon="0.04266">
        <ele>126.8</ele>
        <time>2024-10-02T12:40:35Z</time>
      </trkpt>
      <trkpt lat="49.28169" lon="0.04279">
        <ele>126.8</ele>
        <time>2024-10-02T12:40:36Z</time>
      </trkpt>
      <trkpt lat="49.28174" lon="0.04292">
        <ele>126.8</ele>
        <time>2024-10-02T12:40:37Z</time>
      </trkpt>
      <trkpt lat="49.28177" lon="0.04303">
        <ele>126.8</ele>
        <time>2024-10-02T12:40:38Z</time>
      </trkpt>
      <trkpt lat="49.28181" lon="0.04316">
        <ele>126.6</ele>
        <time>2024-10-02T12:40:39Z</time>
      </trkpt>
      <trkpt lat="49.28186" lon="0.04329">
        <ele>126.2</ele>
        <time>2024-10-02T12:40:40Z</time>
      </trkpt>
      <trkpt lat="49.28191" lon="0.04345">
        <ele>126</ele>
        <time>2024-10-02T12:40:41Z</time>
      </trkpt>
      <trkpt lat="49.28195" lon="0.04359">
        <ele>125.8</ele>
        <time>2024-10-02T12:40:42Z</time>
      </trkpt>
      <trkpt lat="49.28199" lon="0.04373">
        <ele>125.4</ele>
        <time>2024-10-02T12:40:43Z</time>
      </trkpt>
      <trkpt lat="49.28202" lon="0.04387">
        <ele>125</ele>
        <time>2024-10-02T12:40:44Z</time>
      </trkpt>
      <trkpt lat="49.28206" lon="0.04401">
        <ele>124.6</ele>
        <time>2024-10-02T12:40:45Z</time>
      </trkpt>
      <trkpt lat="49.2821" lon="0.04415">
        <ele>124.4</ele>
        <time>2024-10-02T12:40:46Z</time>
      </trkpt>
      <trkpt lat="49.28214" lon="0.04429">
        <ele>124.4</ele>
        <time>2024-10-02T12:40:47Z</time>
      </trkpt>
      <trkpt lat="49.28218" lon="0.04443">
        <ele>124.2</ele>
        <time>2024-10-02T12:40:48Z</time>
      </trkpt>
      <trkpt lat="49.28222" lon="0.04457">
        <ele>124.2</ele>
        <time>2024-10-02T12:40:49Z</time>
      </trkpt>
      <trkpt lat="49.28226" lon="0.04471">
        <ele>124</ele>
        <time>2024-10-02T12:40:50Z</time>
      </trkpt>
      <trkpt lat="49.2823" lon="0.04485">
        <ele>124</ele>
        <time>2024-10-02T12:40:51Z</time>
      </trkpt>
      <trkpt lat="49.28235" lon="0.04499">
        <ele>123.8</ele>
        <time>2024-10-02T12:40:52Z</time>
      </trkpt>
      <trkpt lat="49.28239" lon="0.04513">
        <ele>123.6</ele>
        <time>2024-10-02T12:40:53Z</time>
      </trkpt>
      <trkpt lat="49.28244" lon="0.04527">
        <ele>123.2</ele>
        <time>2024-10-02T12:40:54Z</time>
      </trkpt>
      <trkpt lat="49.28249" lon="0.0454">
        <ele>123.2</ele>
        <time>2024-10-02T12:40:55Z</time>
      </trkpt>
      <trkpt lat="49.28254" lon="0.04554">
        <ele>122.6</ele>
        <time>2024-10-02T12:40:56Z</time>
      </trkpt>
      <trkpt lat="49.28259" lon="0.04567">
        <ele>122.4</ele>
        <time>2024-10-02T12:40:57Z</time>
      </trkpt>
      <trkpt lat="49.28264" lon="0.04581">
        <ele>122.2</ele>
        <time>2024-10-02T12:40:58Z</time>
      </trkpt>
      <trkpt lat="49.2827" lon="0.04593">
        <ele>122</ele>
        <time>2024-10-02T12:40:59Z</time>
      </trkpt>
      <trkpt lat="49.28276" lon="0.04606">
        <ele>121.6</ele>
        <time>2024-10-02T12:41:00Z</time>
      </trkpt>
      <trkpt lat="49.28281" lon="0.04618">
        <ele>121.2</ele>
        <time>2024-10-02T12:41:01Z</time>
      </trkpt>
      <trkpt lat="49.28287" lon="0.0463">
        <ele>121</ele>
        <time>2024-10-02T12:41:02Z</time>
      </trkpt>
      <trkpt lat="49.28293" lon="0.04642">
        <ele>120.6</ele>
        <time>2024-10-02T12:41:03Z</time>
      </trkpt>
      <trkpt lat="49.28299" lon="0.04654">
        <ele>120.6</ele>
        <time>2024-10-02T12:41:04Z</time>
      </trkpt>
      <trkpt lat="49.28305" lon="0.04666">
        <ele>120.4</ele>
        <time>2024-10-02T12:41:05Z</time>
      </trkpt>
      <trkpt lat="49.28311" lon="0.04679">
        <ele>120.4</ele>
        <time>2024-10-02T12:41:06Z</time>
      </trkpt>
      <trkpt lat="49.28317" lon="0.0469">
        <ele>120.2</ele>
        <time>2024-10-02T12:41:07Z</time>
      </trkpt>
      <trkpt lat="49.28323" lon="0.04702">
        <ele>120.2</ele>
        <time>2024-10-02T12:41:08Z</time>
      </trkpt>
      <trkpt lat="49.28329" lon="0.04713">
        <ele>120.2</ele>
        <time>2024-10-02T12:41:09Z</time>
      </trkpt>
      <trkpt lat="49.28336" lon="0.04724">
        <ele>120</ele>
        <time>2024-10-02T12:41:10Z</time>
      </trkpt>
      <trkpt lat="49.28342" lon="0.04736">
        <ele>119.8</ele>
        <time>2024-10-02T12:41:11Z</time>
      </trkpt>
      <trkpt lat="49.28349" lon="0.04746">
        <ele>119.8</ele>
        <time>2024-10-02T12:41:12Z</time>
      </trkpt>
      <trkpt lat="49.28356" lon="0.04757">
        <ele>119.6</ele>
        <time>2024-10-02T12:41:13Z</time>
      </trkpt>
      <trkpt lat="49.28363" lon="0.04767">
        <ele>119.4</ele>
        <time>2024-10-02T12:41:14Z</time>
      </trkpt>
      <trkpt lat="49.28371" lon="0.04776">
        <ele>119.4</ele>
        <time>2024-10-02T12:41:15Z</time>
      </trkpt>
      <trkpt lat="49.28378" lon="0.04785">
        <ele>119.2</ele>
        <time>2024-10-02T12:41:16Z</time>
      </trkpt>
      <trkpt lat="49.28386" lon="0.04793">
        <ele>119.2</ele>
        <time>2024-10-02T12:41:17Z</time>
      </trkpt>
      <trkpt lat="49.28394" lon="0.04802">
        <ele>119.2</ele>
        <time>2024-10-02T12:41:18Z</time>
      </trkpt>
      <trkpt lat="49.28403" lon="0.0481">
        <ele>119.2</ele>
        <time>2024-10-02T12:41:19Z</time>
      </trkpt>
      <trkpt lat="49.28411" lon="0.04818">
        <ele>119.2</ele>
        <time>2024-10-02T12:41:20Z</time>
      </trkpt>
      <trkpt lat="49.28419" lon="0.04826">
        <ele>119</ele>
        <time>2024-10-02T12:41:21Z</time>
      </trkpt>
      <trkpt lat="49.28425" lon="0.04833">
        <ele>119</ele>
        <time>2024-10-02T12:41:22Z</time>
      </trkpt>
      <trkpt lat="49.28434" lon="0.04841">
        <ele>118.8</ele>
        <time>2024-10-02T12:41:23Z</time>
      </trkpt>
      <trkpt lat="49.28442" lon="0.04848">
        <ele>118.6</ele>
        <time>2024-10-02T12:41:24Z</time>
      </trkpt>
      <trkpt lat="49.2845" lon="0.04856">
        <ele>118.6</ele>
        <time>2024-10-02T12:41:25Z</time>
      </trkpt>
      <trkpt lat="49.2846" lon="0.04864">
        <ele>118.4</ele>
        <time>2024-10-02T12:41:26Z</time>
      </trkpt>
      <trkpt lat="49.28468" lon="0.04871">
        <ele>118.4</ele>
        <time>2024-10-02T12:41:27Z</time>
      </trkpt>
      <trkpt lat="49.28476" lon="0.04878">
        <ele>118.4</ele>
        <time>2024-10-02T12:41:28Z</time>
      </trkpt>
      <trkpt lat="49.28485" lon="0.04884">
        <ele>118.2</ele>
        <time>2024-10-02T12:41:29Z</time>
      </trkpt>
      <trkpt lat="49.28492" lon="0.0489">
        <ele>118.2</ele>
        <time>2024-10-02T12:41:30Z</time>
      </trkpt>
      <trkpt lat="49.28502" lon="0.04898">
        <ele>118.2</ele>
        <time>2024-10-02T12:41:31Z</time>
      </trkpt>
      <trkpt lat="49.28511" lon="0.04905">
        <ele>118.2</ele>
        <time>2024-10-02T12:41:32Z</time>
      </trkpt>
      <trkpt lat="49.28519" lon="0.04912">
        <ele>118.2</ele>
        <time>2024-10-02T12:41:33Z</time>
      </trkpt>
      <trkpt lat="49.28528" lon="0.04919">
        <ele>118</ele>
        <time>2024-10-02T12:41:34Z</time>
      </trkpt>
      <trkpt lat="49.28536" lon="0.04926">
        <ele>118</ele>
        <time>2024-10-02T12:41:35Z</time>
      </trkpt>
      <trkpt lat="49.28544" lon="0.04934">
        <ele>118</ele>
        <time>2024-10-02T12:41:36Z</time>
      </trkpt>
      <trkpt lat="49.28552" lon="0.04941">
        <ele>118</ele>
        <time>2024-10-02T12:41:37Z</time>
      </trkpt>
      <trkpt lat="49.2856" lon="0.04949">
        <ele>118</ele>
        <time>2024-10-02T12:41:38Z</time>
      </trkpt>
      <trkpt lat="49.28567" lon="0.04957">
        <ele>118</ele>
        <time>2024-10-02T12:41:39Z</time>
      </trkpt>
      <trkpt lat="49.28575" lon="0.04965">
        <ele>118</ele>
        <time>2024-10-02T12:41:40Z</time>
      </trkpt>
      <trkpt lat="49.28582" lon="0.04973">
        <ele>118</ele>
        <time>2024-10-02T12:41:41Z</time>
      </trkpt>
      <trkpt lat="49.28587" lon="0.0498">
        <ele>118</ele>
        <time>2024-10-02T12:41:42Z</time>
      </trkpt>
      <trkpt lat="49.28596" lon="0.04991">
        <ele>118</ele>
        <time>2024-10-02T12:41:43Z</time>
      </trkpt>
      <trkpt lat="49.28603" lon="0.05">
        <ele>118.2</ele>
        <time>2024-10-02T12:41:44Z</time>
      </trkpt>
      <trkpt lat="49.2861" lon="0.05008">
        <ele>118.2</ele>
        <time>2024-10-02T12:41:45Z</time>
      </trkpt>
      <trkpt lat="49.28618" lon="0.05017">
        <ele>118.2</ele>
        <time>2024-10-02T12:41:46Z</time>
      </trkpt>
      <trkpt lat="49.28626" lon="0.05024">
        <ele>118.4</ele>
        <time>2024-10-02T12:41:47Z</time>
      </trkpt>
      <trkpt lat="49.28634" lon="0.05031">
        <ele>118.4</ele>
        <time>2024-10-02T12:41:48Z</time>
      </trkpt>
      <trkpt lat="49.28643" lon="0.05036">
        <ele>118.6</ele>
        <time>2024-10-02T12:41:49Z</time>
      </trkpt>
      <trkpt lat="49.28652" lon="0.05041">
        <ele>118.6</ele>
        <time>2024-10-02T12:41:50Z</time>
      </trkpt>
      <trkpt lat="49.28659" lon="0.05044">
        <ele>118.6</ele>
        <time>2024-10-02T12:41:51Z</time>
      </trkpt>
      <trkpt lat="49.28669" lon="0.05048">
        <ele>118.8</ele>
        <time>2024-10-02T12:41:52Z</time>
      </trkpt>
      <trkpt lat="49.28677" lon="0.05052">
        <ele>118.8</ele>
        <time>2024-10-02T12:41:53Z</time>
      </trkpt>
      <trkpt lat="49.28686" lon="0.05057">
        <ele>118.8</ele>
        <time>2024-10-02T12:41:54Z</time>
      </trkpt>
      <trkpt lat="49.28694" lon="0.05061">
        <ele>119</ele>
        <time>2024-10-02T12:41:55Z</time>
      </trkpt>
      <trkpt lat="49.28703" lon="0.05066">
        <ele>119</ele>
        <time>2024-10-02T12:41:56Z</time>
      </trkpt>
      <trkpt lat="49.28711" lon="0.05071">
        <ele>119</ele>
        <time>2024-10-02T12:41:57Z</time>
      </trkpt>
      <trkpt lat="49.2872" lon="0.05076">
        <ele>119</ele>
        <time>2024-10-02T12:41:58Z</time>
      </trkpt>
      <trkpt lat="49.28728" lon="0.05081">
        <ele>119.2</ele>
        <time>2024-10-02T12:41:59Z</time>
      </trkpt>
      <trkpt lat="49.28737" lon="0.05086">
        <ele>119.2</ele>
        <time>2024-10-02T12:42:00Z</time>
      </trkpt>
      <trkpt lat="49.28745" lon="0.05091">
        <ele>119.2</ele>
        <time>2024-10-02T12:42:01Z</time>
      </trkpt>
      <trkpt lat="49.28753" lon="0.05096">
        <ele>119.2</ele>
        <time>2024-10-02T12:42:02Z</time>
      </trkpt>
      <trkpt lat="49.28761" lon="0.051">
        <ele>119.2</ele>
        <time>2024-10-02T12:42:03Z</time>
      </trkpt>
      <trkpt lat="49.2877" lon="0.05104">
        <ele>119.2</ele>
        <time>2024-10-02T12:42:04Z</time>
      </trkpt>
      <trkpt lat="49.28779" lon="0.05107">
        <ele>119.2</ele>
        <time>2024-10-02T12:42:05Z</time>
      </trkpt>
      <trkpt lat="49.28788" lon="0.05109">
        <ele>119.2</ele>
        <time>2024-10-02T12:42:06Z</time>
      </trkpt>
      <trkpt lat="49.28798" lon="0.0511">
        <ele>119.2</ele>
        <time>2024-10-02T12:42:07Z</time>
      </trkpt>
      <trkpt lat="49.28808" lon="0.05111">
        <ele>119.2</ele>
        <time>2024-10-02T12:42:08Z</time>
      </trkpt>
      <trkpt lat="49.28817" lon="0.05112">
        <ele>119.2</ele>
        <time>2024-10-02T12:42:09Z</time>
      </trkpt>
      <trkpt lat="49.28826" lon="0.05115">
        <ele>119.2</ele>
        <time>2024-10-02T12:42:10Z</time>
      </trkpt>
      <trkpt lat="49.28836" lon="0.05118">
        <ele>119.2</ele>
        <time>2024-10-02T12:42:11Z</time>
      </trkpt>
      <trkpt lat="49.28845" lon="0.05122">
        <ele>119.2</ele>
        <time>2024-10-02T12:42:12Z</time>
      </trkpt>
      <trkpt lat="49.28854" lon="0.05127">
        <ele>119.2</ele>
        <time>2024-10-02T12:42:13Z</time>
      </trkpt>
      <trkpt lat="49.28864" lon="0.05131">
        <ele>119.2</ele>
        <time>2024-10-02T12:42:14Z</time>
      </trkpt>
      <trkpt lat="49.28872" lon="0.05135">
        <ele>119</ele>
        <time>2024-10-02T12:42:15Z</time>
      </trkpt>
      <trkpt lat="49.28881" lon="0.0514">
        <ele>118.8</ele>
        <time>2024-10-02T12:42:16Z</time>
      </trkpt>
      <trkpt lat="49.2889" lon="0.05144">
        <ele>118.6</ele>
        <time>2024-10-02T12:42:17Z</time>
      </trkpt>
      <trkpt lat="49.28898" lon="0.05149">
        <ele>118.2</ele>
        <time>2024-10-02T12:42:18Z</time>
      </trkpt>
      <trkpt lat="49.28907" lon="0.05154">
        <ele>117.8</ele>
        <time>2024-10-02T12:42:19Z</time>
      </trkpt>
      <trkpt lat="49.28916" lon="0.0516">
        <ele>117.4</ele>
        <time>2024-10-02T12:42:20Z</time>
      </trkpt>
      <trkpt lat="49.28925" lon="0.05166">
        <ele>117</ele>
        <time>2024-10-02T12:42:21Z</time>
      </trkpt>
      <trkpt lat="49.28934" lon="0.05171">
        <ele>116.8</ele>
        <time>2024-10-02T12:42:22Z</time>
      </trkpt>
      <trkpt lat="49.28943" lon="0.05178">
        <ele>116.6</ele>
        <time>2024-10-02T12:42:23Z</time>
      </trkpt>
      <trkpt lat="49.28952" lon="0.05185">
        <ele>116.4</ele>
        <time>2024-10-02T12:42:24Z</time>
      </trkpt>
      <trkpt lat="49.28961" lon="0.05192">
        <ele>116.2</ele>
        <time>2024-10-02T12:42:25Z</time>
      </trkpt>
      <trkpt lat="49.2897" lon="0.052">
        <ele>116</ele>
        <time>2024-10-02T12:42:26Z</time>
      </trkpt>
      <trkpt lat="49.28979" lon="0.05208">
        <ele>115.6</ele>
        <time>2024-10-02T12:42:27Z</time>
      </trkpt>
      <trkpt lat="49.28988" lon="0.05216">
        <ele>115.4</ele>
        <time>2024-10-02T12:42:28Z</time>
      </trkpt>
      <trkpt lat="49.28997" lon="0.05225">
        <ele>115.4</ele>
        <time>2024-10-02T12:42:29Z</time>
      </trkpt>
      <trkpt lat="49.29006" lon="0.05233">
        <ele>115</ele>
        <time>2024-10-02T12:42:30Z</time>
      </trkpt>
      <trkpt lat="49.29015" lon="0.05242">
        <ele>114.4</ele>
        <time>2024-10-02T12:42:31Z</time>
      </trkpt>
      <trkpt lat="49.29024" lon="0.05251">
        <ele>114</ele>
        <time>2024-10-02T12:42:32Z</time>
      </trkpt>
      <trkpt lat="49.29033" lon="0.05261">
        <ele>113.6</ele>
        <time>2024-10-02T12:42:33Z</time>
      </trkpt>
      <trkpt lat="49.29041" lon="0.05271">
        <ele>113.6</ele>
        <time>2024-10-02T12:42:34Z</time>
      </trkpt>
      <trkpt lat="49.2905" lon="0.05281">
        <ele>113.2</ele>
        <time>2024-10-02T12:42:35Z</time>
      </trkpt>
      <trkpt lat="49.29059" lon="0.05292">
        <ele>112.8</ele>
        <time>2024-10-02T12:42:36Z</time>
      </trkpt>
      <trkpt lat="49.29068" lon="0.05304">
        <ele>112.2</ele>
        <time>2024-10-02T12:42:37Z</time>
      </trkpt>
      <trkpt lat="49.29077" lon="0.05316">
        <ele>111.8</ele>
        <time>2024-10-02T12:42:38Z</time>
      </trkpt>
      <trkpt lat="49.29085" lon="0.05326">
        <ele>111.2</ele>
        <time>2024-10-02T12:42:39Z</time>
      </trkpt>
      <trkpt lat="49.29095" lon="0.05342">
        <ele>110.6</ele>
        <time>2024-10-02T12:42:40Z</time>
      </trkpt>
      <trkpt lat="49.29104" lon="0.05356">
        <ele>109.8</ele>
        <time>2024-10-02T12:42:41Z</time>
      </trkpt>
      <trkpt lat="49.29113" lon="0.05369">
        <ele>108.8</ele>
        <time>2024-10-02T12:42:42Z</time>
      </trkpt>
      <trkpt lat="49.29122" lon="0.05382">
        <ele>108.4</ele>
        <time>2024-10-02T12:42:43Z</time>
      </trkpt>
      <trkpt lat="49.29131" lon="0.05394">
        <ele>108</ele>
        <time>2024-10-02T12:42:44Z</time>
      </trkpt>
      <trkpt lat="49.29141" lon="0.05406">
        <ele>107.6</ele>
        <time>2024-10-02T12:42:45Z</time>
      </trkpt>
      <trkpt lat="49.2915" lon="0.05418">
        <ele>107</ele>
        <time>2024-10-02T12:42:46Z</time>
      </trkpt>
      <trkpt lat="49.2916" lon="0.05428">
        <ele>106.2</ele>
        <time>2024-10-02T12:42:47Z</time>
      </trkpt>
      <trkpt lat="49.29168" lon="0.05436">
        <ele>105.6</ele>
        <time>2024-10-02T12:42:48Z</time>
      </trkpt>
      <trkpt lat="49.29178" lon="0.05445">
        <ele>104.6</ele>
        <time>2024-10-02T12:42:49Z</time>
      </trkpt>
      <trkpt lat="49.29189" lon="0.05457">
        <ele>103.4</ele>
        <time>2024-10-02T12:42:50Z</time>
      </trkpt>
      <trkpt lat="49.29199" lon="0.05467">
        <ele>102</ele>
        <time>2024-10-02T12:42:51Z</time>
      </trkpt>
      <trkpt lat="49.29209" lon="0.05477">
        <ele>101</ele>
        <time>2024-10-02T12:42:52Z</time>
      </trkpt>
      <trkpt lat="49.29219" lon="0.05487">
        <ele>100.4</ele>
        <time>2024-10-02T12:42:53Z</time>
      </trkpt>
      <trkpt lat="49.29228" lon="0.05497">
        <ele>100</ele>
        <time>2024-10-02T12:42:54Z</time>
      </trkpt>
      <trkpt lat="49.29238" lon="0.05507">
        <ele>100</ele>
        <time>2024-10-02T12:42:55Z</time>
      </trkpt>
      <trkpt lat="49.29246" lon="0.05516">
        <ele>99.6</ele>
        <time>2024-10-02T12:42:56Z</time>
      </trkpt>
      <trkpt lat="49.29258" lon="0.05529">
        <ele>99.6</ele>
        <time>2024-10-02T12:42:57Z</time>
      </trkpt>
      <trkpt lat="49.29267" lon="0.0554">
        <ele>99.4</ele>
        <time>2024-10-02T12:42:58Z</time>
      </trkpt>
      <trkpt lat="49.29276" lon="0.05551">
        <ele>98.6</ele>
        <time>2024-10-02T12:42:59Z</time>
      </trkpt>
      <trkpt lat="49.29286" lon="0.05562">
        <ele>97.8</ele>
        <time>2024-10-02T12:43:00Z</time>
      </trkpt>
      <trkpt lat="49.29296" lon="0.05573">
        <ele>97.4</ele>
        <time>2024-10-02T12:43:01Z</time>
      </trkpt>
      <trkpt lat="49.29305" lon="0.05585">
        <ele>96.8</ele>
        <time>2024-10-02T12:43:02Z</time>
      </trkpt>
      <trkpt lat="49.29315" lon="0.05597">
        <ele>96</ele>
        <time>2024-10-02T12:43:03Z</time>
      </trkpt>
      <trkpt lat="49.29324" lon="0.0561">
        <ele>95.2</ele>
        <time>2024-10-02T12:43:04Z</time>
      </trkpt>
      <trkpt lat="49.29334" lon="0.05622">
        <ele>94.2</ele>
        <time>2024-10-02T12:43:05Z</time>
      </trkpt>
      <trkpt lat="49.29343" lon="0.05635">
        <ele>93.2</ele>
        <time>2024-10-02T12:43:06Z</time>
      </trkpt>
      <trkpt lat="49.29352" lon="0.05648">
        <ele>92.4</ele>
        <time>2024-10-02T12:43:07Z</time>
      </trkpt>
      <trkpt lat="49.29361" lon="0.05661">
        <ele>91</ele>
        <time>2024-10-02T12:43:08Z</time>
      </trkpt>
      <trkpt lat="49.29368" lon="0.05671">
        <ele>89.4</ele>
        <time>2024-10-02T12:43:09Z</time>
      </trkpt>
      <trkpt lat="49.29379" lon="0.05685">
        <ele>88</ele>
        <time>2024-10-02T12:43:10Z</time>
      </trkpt>
      <trkpt lat="49.29389" lon="0.05697">
        <ele>87.2</ele>
        <time>2024-10-02T12:43:11Z</time>
      </trkpt>
      <trkpt lat="49.29397" lon="0.05705">
        <ele>86.6</ele>
        <time>2024-10-02T12:43:12Z</time>
      </trkpt>
      <trkpt lat="49.29409" lon="0.05717">
        <ele>86</ele>
        <time>2024-10-02T12:43:13Z</time>
      </trkpt>
      <trkpt lat="49.29419" lon="0.05726">
        <ele>85.6</ele>
        <time>2024-10-02T12:43:14Z</time>
      </trkpt>
      <trkpt lat="49.29429" lon="0.05735">
        <ele>84.8</ele>
        <time>2024-10-02T12:43:15Z</time>
      </trkpt>
      <trkpt lat="49.29437" lon="0.05741">
        <ele>84.8</ele>
        <time>2024-10-02T12:43:16Z</time>
      </trkpt>
      <trkpt lat="49.2945" lon="0.05752">
        <ele>84.2</ele>
        <time>2024-10-02T12:43:17Z</time>
      </trkpt>
      <trkpt lat="49.29458" lon="0.05758">
        <ele>83.6</ele>
        <time>2024-10-02T12:43:18Z</time>
      </trkpt>
      <trkpt lat="49.29471" lon="0.05768">
        <ele>83.4</ele>
        <time>2024-10-02T12:43:19Z</time>
      </trkpt>
      <trkpt lat="49.29481" lon="0.05775">
        <ele>83</ele>
        <time>2024-10-02T12:43:20Z</time>
      </trkpt>
      <trkpt lat="49.2949" lon="0.05782">
        <ele>82.6</ele>
        <time>2024-10-02T12:43:21Z</time>
      </trkpt>
      <trkpt lat="49.29503" lon="0.05791">
        <ele>82.2</ele>
        <time>2024-10-02T12:43:22Z</time>
      </trkpt>
      <trkpt lat="49.29514" lon="0.05798">
        <ele>81.8</ele>
        <time>2024-10-02T12:43:23Z</time>
      </trkpt>
      <trkpt lat="49.29525" lon="0.05805">
        <ele>81.4</ele>
        <time>2024-10-02T12:43:24Z</time>
      </trkpt>
      <trkpt lat="49.29536" lon="0.05812">
        <ele>80.6</ele>
        <time>2024-10-02T12:43:25Z</time>
      </trkpt>
      <trkpt lat="49.29546" lon="0.05819">
        <ele>80</ele>
        <time>2024-10-02T12:43:26Z</time>
      </trkpt>
      <trkpt lat="49.29557" lon="0.05825">
        <ele>79.4</ele>
        <time>2024-10-02T12:43:27Z</time>
      </trkpt>
      <trkpt lat="49.29567" lon="0.0583">
        <ele>79</ele>
        <time>2024-10-02T12:43:28Z</time>
      </trkpt>
      <trkpt lat="49.29577" lon="0.05833">
        <ele>78.8</ele>
        <time>2024-10-02T12:43:29Z</time>
      </trkpt>
      <trkpt lat="49.29588" lon="0.05834">
        <ele>78.4</ele>
        <time>2024-10-02T12:43:30Z</time>
      </trkpt>
      <trkpt lat="49.29596" lon="0.05834">
        <ele>78</ele>
        <time>2024-10-02T12:43:31Z</time>
      </trkpt>
      <trkpt lat="49.29608" lon="0.05832">
        <ele>77.8</ele>
        <time>2024-10-02T12:43:32Z</time>
      </trkpt>
      <trkpt lat="49.29615" lon="0.05829">
        <ele>77.6</ele>
        <time>2024-10-02T12:43:33Z</time>
      </trkpt>
      <trkpt lat="49.29627" lon="0.05825">
        <ele>77.4</ele>
        <time>2024-10-02T12:43:34Z</time>
      </trkpt>
      <trkpt lat="49.29636" lon="0.05821">
        <ele>77</ele>
        <time>2024-10-02T12:43:35Z</time>
      </trkpt>
      <trkpt lat="49.29645" lon="0.05817">
        <ele>77</ele>
        <time>2024-10-02T12:43:36Z</time>
      </trkpt>
      <trkpt lat="49.29655" lon="0.05814">
        <ele>77</ele>
        <time>2024-10-02T12:43:37Z</time>
      </trkpt>
      <trkpt lat="49.29665" lon="0.05813">
        <ele>76.8</ele>
        <time>2024-10-02T12:43:38Z</time>
      </trkpt>
      <trkpt lat="49.29673" lon="0.05813">
        <ele>76.6</ele>
        <time>2024-10-02T12:43:39Z</time>
      </trkpt>
      <trkpt lat="49.29685" lon="0.05816">
        <ele>76.2</ele>
        <time>2024-10-02T12:43:40Z</time>
      </trkpt>
      <trkpt lat="49.29693" lon="0.05819">
        <ele>76</ele>
        <time>2024-10-02T12:43:41Z</time>
      </trkpt>
      <trkpt lat="49.29704" lon="0.05823">
        <ele>75.6</ele>
        <time>2024-10-02T12:43:42Z</time>
      </trkpt>
      <trkpt lat="49.29717" lon="0.05831">
        <ele>75</ele>
        <time>2024-10-02T12:43:43Z</time>
      </trkpt>
      <trkpt lat="49.29727" lon="0.05838">
        <ele>74.4</ele>
        <time>2024-10-02T12:43:44Z</time>
      </trkpt>
      <trkpt lat="49.29734" lon="0.05845">
        <ele>74</ele>
        <time>2024-10-02T12:43:45Z</time>
      </trkpt>
      <trkpt lat="49.29743" lon="0.05853">
        <ele>73.8</ele>
        <time>2024-10-02T12:43:46Z</time>
      </trkpt>
      <trkpt lat="49.29754" lon="0.05864">
        <ele>73.4</ele>
        <time>2024-10-02T12:43:47Z</time>
      </trkpt>
      <trkpt lat="49.29763" lon="0.05872">
        <ele>73</ele>
        <time>2024-10-02T12:43:48Z</time>
      </trkpt>
      <trkpt lat="49.29773" lon="0.0588">
        <ele>72.6</ele>
        <time>2024-10-02T12:43:49Z</time>
      </trkpt>
      <trkpt lat="49.29783" lon="0.05888">
        <ele>71.8</ele>
        <time>2024-10-02T12:43:50Z</time>
      </trkpt>
      <trkpt lat="49.29792" lon="0.05895">
        <ele>71.4</ele>
        <time>2024-10-02T12:43:51Z</time>
      </trkpt>
      <trkpt lat="49.298" lon="0.05901">
        <ele>71.2</ele>
        <time>2024-10-02T12:43:52Z</time>
      </trkpt>
      <trkpt lat="49.2981" lon="0.05909">
        <ele>71</ele>
        <time>2024-10-02T12:43:53Z</time>
      </trkpt>
      <trkpt lat="49.29819" lon="0.05915">
        <ele>71</ele>
        <time>2024-10-02T12:43:54Z</time>
      </trkpt>
      <trkpt lat="49.29831" lon="0.05923">
        <ele>70.8</ele>
        <time>2024-10-02T12:43:55Z</time>
      </trkpt>
      <trkpt lat="49.2984" lon="0.05929">
        <ele>70.8</ele>
        <time>2024-10-02T12:43:56Z</time>
      </trkpt>
      <trkpt lat="49.2985" lon="0.05935">
        <ele>70.6</ele>
        <time>2024-10-02T12:43:57Z</time>
      </trkpt>
      <trkpt lat="49.2986" lon="0.05941">
        <ele>70.6</ele>
        <time>2024-10-02T12:43:58Z</time>
      </trkpt>
      <trkpt lat="49.29867" lon="0.05945">
        <ele>70.6</ele>
        <time>2024-10-02T12:43:59Z</time>
      </trkpt>
      <trkpt lat="49.29876" lon="0.05951">
        <ele>70.4</ele>
        <time>2024-10-02T12:44:00Z</time>
      </trkpt>
      <trkpt lat="49.29884" lon="0.05955">
        <ele>70.2</ele>
        <time>2024-10-02T12:44:01Z</time>
      </trkpt>
      <trkpt lat="49.29891" lon="0.05958">
        <ele>70</ele>
        <time>2024-10-02T12:44:02Z</time>
      </trkpt>
      <trkpt lat="49.29901" lon="0.05963">
        <ele>69.8</ele>
        <time>2024-10-02T12:44:03Z</time>
      </trkpt>
      <trkpt lat="49.2991" lon="0.05967">
        <ele>69.6</ele>
        <time>2024-10-02T12:44:04Z</time>
      </trkpt>
      <trkpt lat="49.29916" lon="0.0597">
        <ele>69.4</ele>
        <time>2024-10-02T12:44:05Z</time>
      </trkpt>
      <trkpt lat="49.29927" lon="0.05975">
        <ele>69.2</ele>
        <time>2024-10-02T12:44:06Z</time>
      </trkpt>
      <trkpt lat="49.29935" lon="0.05979">
        <ele>69</ele>
        <time>2024-10-02T12:44:07Z</time>
      </trkpt>
      <trkpt lat="49.29942" lon="0.05983">
        <ele>68.6</ele>
        <time>2024-10-02T12:44:08Z</time>
      </trkpt>
      <trkpt lat="49.29952" lon="0.05989">
        <ele>68.4</ele>
        <time>2024-10-02T12:44:09Z</time>
      </trkpt>
      <trkpt lat="49.2996" lon="0.05993">
        <ele>68.2</ele>
        <time>2024-10-02T12:44:10Z</time>
      </trkpt>
      <trkpt lat="49.29966" lon="0.05997">
        <ele>68</ele>
        <time>2024-10-02T12:44:11Z</time>
      </trkpt>
      <trkpt lat="49.29974" lon="0.06003">
        <ele>67.6</ele>
        <time>2024-10-02T12:44:12Z</time>
      </trkpt>
      <trkpt lat="49.29979" lon="0.06007">
        <ele>67.4</ele>
        <time>2024-10-02T12:44:13Z</time>
      </trkpt>
      <trkpt lat="49.29986" lon="0.06012">
        <ele>67</ele>
        <time>2024-10-02T12:44:14Z</time>
      </trkpt>
      <trkpt lat="49.29991" lon="0.06017">
        <ele>66.6</ele>
        <time>2024-10-02T12:44:15Z</time>
      </trkpt>
      <trkpt lat="49.29997" lon="0.06022">
        <ele>66.2</ele>
        <time>2024-10-02T12:44:16Z</time>
      </trkpt>
      <trkpt lat="49.29999" lon="0.06025">
        <ele>65.8</ele>
        <time>2024-10-02T12:44:17Z</time>
      </trkpt>
      <trkpt lat="49.30003" lon="0.06029">
        <ele>65.4</ele>
        <time>2024-10-02T12:44:18Z</time>
      </trkpt>
      <trkpt lat="49.30005" lon="0.06032">
        <ele>65.4</ele>
        <time>2024-10-02T12:44:19Z</time>
      </trkpt>
      <trkpt lat="49.30007" lon="0.06034">
        <ele>65.2</ele>
        <time>2024-10-02T12:44:20Z</time>
      </trkpt>
      <trkpt lat="49.30009" lon="0.06038">
        <ele>65</ele>
        <time>2024-10-02T12:44:21Z</time>
      </trkpt>
      <trkpt lat="49.3001" lon="0.0604">
        <ele>64.8</ele>
        <time>2024-10-02T12:44:22Z</time>
      </trkpt>
      <trkpt lat="49.30012" lon="0.06043">
        <ele>64.6</ele>
        <time>2024-10-02T12:44:23Z</time>
      </trkpt>
      <trkpt lat="49.30014" lon="0.06046">
        <ele>64.6</ele>
        <time>2024-10-02T12:44:24Z</time>
      </trkpt>
      <trkpt lat="49.30016" lon="0.06049">
        <ele>64.4</ele>
        <time>2024-10-02T12:44:25Z</time>
      </trkpt>
      <trkpt lat="49.30019" lon="0.06054">
        <ele>64.4</ele>
        <time>2024-10-02T12:44:26Z</time>
      </trkpt>
      <trkpt lat="49.30022" lon="0.06059">
        <ele>64.4</ele>
        <time>2024-10-02T12:44:27Z</time>
      </trkpt>
      <trkpt lat="49.30026" lon="0.06064">
        <ele>64.2</ele>
        <time>2024-10-02T12:44:28Z</time>
      </trkpt>
      <trkpt lat="49.30029" lon="0.0607">
        <ele>64.2</ele>
        <time>2024-10-02T12:44:29Z</time>
      </trkpt>
      <trkpt lat="49.30032" lon="0.06075">
        <ele>64.2</ele>
        <time>2024-10-02T12:44:30Z</time>
      </trkpt>
      <trkpt lat="49.30036" lon="0.06082">
        <ele>64.2</ele>
        <time>2024-10-02T12:44:31Z</time>
      </trkpt>
      <trkpt lat="49.3004" lon="0.0609">
        <ele>64</ele>
        <time>2024-10-02T12:44:32Z</time>
      </trkpt>
      <trkpt lat="49.30044" lon="0.06095">
        <ele>64</ele>
        <time>2024-10-02T12:44:33Z</time>
      </trkpt>
      <trkpt lat="49.3005" lon="0.06103">
        <ele>64</ele>
        <time>2024-10-02T12:44:34Z</time>
      </trkpt>
      <trkpt lat="49.30054" lon="0.06108">
        <ele>63.8</ele>
        <time>2024-10-02T12:44:35Z</time>
      </trkpt>
      <trkpt lat="49.30059" lon="0.06114">
        <ele>63.6</ele>
        <time>2024-10-02T12:44:36Z</time>
      </trkpt>
      <trkpt lat="49.30065" lon="0.06119">
        <ele>63.6</ele>
        <time>2024-10-02T12:44:37Z</time>
      </trkpt>
      <trkpt lat="49.30073" lon="0.06126">
        <ele>63.2</ele>
        <time>2024-10-02T12:44:38Z</time>
      </trkpt>
      <trkpt lat="49.30081" lon="0.0613">
        <ele>63.2</ele>
        <time>2024-10-02T12:44:39Z</time>
      </trkpt>
      <trkpt lat="49.30088" lon="0.06133">
        <ele>62.8</ele>
        <time>2024-10-02T12:44:40Z</time>
      </trkpt>
      <trkpt lat="49.30098" lon="0.06138">
        <ele>62.6</ele>
        <time>2024-10-02T12:44:41Z</time>
      </trkpt>
      <trkpt lat="49.30106" lon="0.06142">
        <ele>62.2</ele>
        <time>2024-10-02T12:44:42Z</time>
      </trkpt>
      <trkpt lat="49.30114" lon="0.06146">
        <ele>62</ele>
        <time>2024-10-02T12:44:43Z</time>
      </trkpt>
      <trkpt lat="49.30123" lon="0.0615">
        <ele>61.8</ele>
        <time>2024-10-02T12:44:44Z</time>
      </trkpt>
      <trkpt lat="49.3013" lon="0.06153">
        <ele>61.4</ele>
        <time>2024-10-02T12:44:45Z</time>
      </trkpt>
      <trkpt lat="49.30141" lon="0.06158">
        <ele>61.2</ele>
        <time>2024-10-02T12:44:46Z</time>
      </trkpt>
      <trkpt lat="49.3015" lon="0.06163">
        <ele>60.6</ele>
        <time>2024-10-02T12:44:47Z</time>
      </trkpt>
      <trkpt lat="49.30157" lon="0.06166">
        <ele>60.4</ele>
        <time>2024-10-02T12:44:48Z</time>
      </trkpt>
      <trkpt lat="49.30166" lon="0.06171">
        <ele>60</ele>
        <time>2024-10-02T12:44:49Z</time>
      </trkpt>
      <trkpt lat="49.30177" lon="0.06177">
        <ele>59.6</ele>
        <time>2024-10-02T12:44:50Z</time>
      </trkpt>
      <trkpt lat="49.30186" lon="0.06182">
        <ele>59.2</ele>
        <time>2024-10-02T12:44:51Z</time>
      </trkpt>
      <trkpt lat="49.30195" lon="0.06188">
        <ele>59</ele>
        <time>2024-10-02T12:44:52Z</time>
      </trkpt>
      <trkpt lat="49.30203" lon="0.06194">
        <ele>58.8</ele>
        <time>2024-10-02T12:44:53Z</time>
      </trkpt>
      <trkpt lat="49.30212" lon="0.06201">
        <ele>58.4</ele>
        <time>2024-10-02T12:44:54Z</time>
      </trkpt>
      <trkpt lat="49.3022" lon="0.06209">
        <ele>58.2</ele>
        <time>2024-10-02T12:44:55Z</time>
      </trkpt>
      <trkpt lat="49.30226" lon="0.06216">
        <ele>57.8</ele>
        <time>2024-10-02T12:44:56Z</time>
      </trkpt>
      <trkpt lat="49.30233" lon="0.06225">
        <ele>57.4</ele>
        <time>2024-10-02T12:44:57Z</time>
      </trkpt>
      <trkpt lat="49.30241" lon="0.06233">
        <ele>57.2</ele>
        <time>2024-10-02T12:44:58Z</time>
      </trkpt>
      <trkpt lat="49.30249" lon="0.06241">
        <ele>57</ele>
        <time>2024-10-02T12:44:59Z</time>
      </trkpt>
      <trkpt lat="49.30258" lon="0.0625">
        <ele>57</ele>
        <time>2024-10-02T12:45:00Z</time>
      </trkpt>
      <trkpt lat="49.30267" lon="0.06255">
        <ele>56.6</ele>
        <time>2024-10-02T12:45:01Z</time>
      </trkpt>
      <trkpt lat="49.30276" lon="0.06258">
        <ele>56.4</ele>
        <time>2024-10-02T12:45:02Z</time>
      </trkpt>
      <trkpt lat="49.30285" lon="0.06258">
        <ele>56</ele>
        <time>2024-10-02T12:45:03Z</time>
      </trkpt>
      <trkpt lat="49.30294" lon="0.06256">
        <ele>55.8</ele>
        <time>2024-10-02T12:45:04Z</time>
      </trkpt>
      <trkpt lat="49.30302" lon="0.06253">
        <ele>55.6</ele>
        <time>2024-10-02T12:45:05Z</time>
      </trkpt>
      <trkpt lat="49.30311" lon="0.0625">
        <ele>55.4</ele>
        <time>2024-10-02T12:45:06Z</time>
      </trkpt>
      <trkpt lat="49.30319" lon="0.06245">
        <ele>55.4</ele>
        <time>2024-10-02T12:45:07Z</time>
      </trkpt>
      <trkpt lat="49.30328" lon="0.0624">
        <ele>55.4</ele>
        <time>2024-10-02T12:45:08Z</time>
      </trkpt>
      <trkpt lat="49.30337" lon="0.06235">
        <ele>55.4</ele>
        <time>2024-10-02T12:45:09Z</time>
      </trkpt>
      <trkpt lat="49.30346" lon="0.06231">
        <ele>55.2</ele>
        <time>2024-10-02T12:45:10Z</time>
      </trkpt>
      <trkpt lat="49.30354" lon="0.06226">
        <ele>55</ele>
        <time>2024-10-02T12:45:11Z</time>
      </trkpt>
      <trkpt lat="49.30363" lon="0.06222">
        <ele>54.6</ele>
        <time>2024-10-02T12:45:12Z</time>
      </trkpt>
      <trkpt lat="49.30373" lon="0.06217">
        <ele>54.4</ele>
        <time>2024-10-02T12:45:13Z</time>
      </trkpt>
      <trkpt lat="49.30383" lon="0.06212">
        <ele>54.2</ele>
        <time>2024-10-02T12:45:14Z</time>
      </trkpt>
      <trkpt lat="49.30392" lon="0.06206">
        <ele>54</ele>
        <time>2024-10-02T12:45:15Z</time>
      </trkpt>
      <trkpt lat="49.30401" lon="0.062">
        <ele>53.8</ele>
        <time>2024-10-02T12:45:16Z</time>
      </trkpt>
      <trkpt lat="49.3041" lon="0.06195">
        <ele>53.6</ele>
        <time>2024-10-02T12:45:17Z</time>
      </trkpt>
      <trkpt lat="49.30419" lon="0.06189">
        <ele>53.4</ele>
        <time>2024-10-02T12:45:18Z</time>
      </trkpt>
      <trkpt lat="49.30428" lon="0.06183">
        <ele>53.2</ele>
        <time>2024-10-02T12:45:19Z</time>
      </trkpt>
      <trkpt lat="49.30437" lon="0.06176">
        <ele>53</ele>
        <time>2024-10-02T12:45:20Z</time>
      </trkpt>
      <trkpt lat="49.30446" lon="0.06169">
        <ele>53</ele>
        <time>2024-10-02T12:45:21Z</time>
      </trkpt>
      <trkpt lat="49.30455" lon="0.06161">
        <ele>52.8</ele>
        <time>2024-10-02T12:45:22Z</time>
      </trkpt>
      <trkpt lat="49.30463" lon="0.06154">
        <ele>52.6</ele>
        <time>2024-10-02T12:45:23Z</time>
      </trkpt>
      <trkpt lat="49.30471" lon="0.06144">
        <ele>52.2</ele>
        <time>2024-10-02T12:45:24Z</time>
      </trkpt>
      <trkpt lat="49.3048" lon="0.06135">
        <ele>52</ele>
        <time>2024-10-02T12:45:25Z</time>
      </trkpt>
      <trkpt lat="49.30488" lon="0.06126">
        <ele>51.8</ele>
        <time>2024-10-02T12:45:26Z</time>
      </trkpt>
      <trkpt lat="49.30497" lon="0.06118">
        <ele>51.6</ele>
        <time>2024-10-02T12:45:27Z</time>
      </trkpt>
      <trkpt lat="49.30505" lon="0.06109">
        <ele>51.2</ele>
        <time>2024-10-02T12:45:28Z</time>
      </trkpt>
      <trkpt lat="49.30515" lon="0.06101">
        <ele>51</ele>
        <time>2024-10-02T12:45:29Z</time>
      </trkpt>
      <trkpt lat="49.30524" lon="0.06095">
        <ele>50.6</ele>
        <time>2024-10-02T12:45:30Z</time>
      </trkpt>
      <trkpt lat="49.30534" lon="0.0609">
        <ele>50</ele>
        <time>2024-10-02T12:45:31Z</time>
      </trkpt>
      <trkpt lat="49.30544" lon="0.06084">
        <ele>49.4</ele>
        <time>2024-10-02T12:45:32Z</time>
      </trkpt>
      <trkpt lat="49.30556" lon="0.0608">
        <ele>49.2</ele>
        <time>2024-10-02T12:45:33Z</time>
      </trkpt>
      <trkpt lat="49.30567" lon="0.06075">
        <ele>48.8</ele>
        <time>2024-10-02T12:45:34Z</time>
      </trkpt>
      <trkpt lat="49.30578" lon="0.06071">
        <ele>48.6</ele>
        <time>2024-10-02T12:45:35Z</time>
      </trkpt>
      <trkpt lat="49.30587" lon="0.06067">
        <ele>48.2</ele>
        <time>2024-10-02T12:45:36Z</time>
      </trkpt>
      <trkpt lat="49.30601" lon="0.06062">
        <ele>47.6</ele>
        <time>2024-10-02T12:45:37Z</time>
      </trkpt>
      <trkpt lat="49.30613" lon="0.06058">
        <ele>47.2</ele>
        <time>2024-10-02T12:45:38Z</time>
      </trkpt>
      <trkpt lat="49.30625" lon="0.06054">
        <ele>46.6</ele>
        <time>2024-10-02T12:45:39Z</time>
      </trkpt>
      <trkpt lat="49.30636" lon="0.06051">
        <ele>46.2</ele>
        <time>2024-10-02T12:45:40Z</time>
      </trkpt>
      <trkpt lat="49.30648" lon="0.06047">
        <ele>45.4</ele>
        <time>2024-10-02T12:45:41Z</time>
      </trkpt>
      <trkpt lat="49.30661" lon="0.06043">
        <ele>45.4</ele>
        <time>2024-10-02T12:45:42Z</time>
      </trkpt>
      <trkpt lat="49.30673" lon="0.06039">
        <ele>44.4</ele>
        <time>2024-10-02T12:45:43Z</time>
      </trkpt>
      <trkpt lat="49.30685" lon="0.06036">
        <ele>43.8</ele>
        <time>2024-10-02T12:45:44Z</time>
      </trkpt>
      <trkpt lat="49.30696" lon="0.06033">
        <ele>43.4</ele>
        <time>2024-10-02T12:45:45Z</time>
      </trkpt>
      <trkpt lat="49.30706" lon="0.06028">
        <ele>43.2</ele>
        <time>2024-10-02T12:45:46Z</time>
      </trkpt>
      <trkpt lat="49.30716" lon="0.06021">
        <ele>42.6</ele>
        <time>2024-10-02T12:45:47Z</time>
      </trkpt>
      <trkpt lat="49.30725" lon="0.06011">
        <ele>41.8</ele>
        <time>2024-10-02T12:45:48Z</time>
      </trkpt>
      <trkpt lat="49.30734" lon="0.06">
        <ele>41</ele>
        <time>2024-10-02T12:45:49Z</time>
      </trkpt>
      <trkpt lat="49.30741" lon="0.05987">
        <ele>40</ele>
        <time>2024-10-02T12:45:50Z</time>
      </trkpt>
      <trkpt lat="49.30746" lon="0.05974">
        <ele>39.2</ele>
        <time>2024-10-02T12:45:51Z</time>
      </trkpt>
      <trkpt lat="49.30751" lon="0.0596">
        <ele>38.4</ele>
        <time>2024-10-02T12:45:52Z</time>
      </trkpt>
      <trkpt lat="49.30756" lon="0.05946">
        <ele>37.6</ele>
        <time>2024-10-02T12:45:53Z</time>
      </trkpt>
      <trkpt lat="49.3076" lon="0.05931">
        <ele>37.2</ele>
        <time>2024-10-02T12:45:54Z</time>
      </trkpt>
      <trkpt lat="49.30764" lon="0.05917">
        <ele>36.6</ele>
        <time>2024-10-02T12:45:55Z</time>
      </trkpt>
      <trkpt lat="49.30768" lon="0.05903">
        <ele>36.2</ele>
        <time>2024-10-02T12:45:56Z</time>
      </trkpt>
      <trkpt lat="49.30771" lon="0.0589">
        <ele>35.8</ele>
        <time>2024-10-02T12:45:57Z</time>
      </trkpt>
      <trkpt lat="49.30774" lon="0.05879">
        <ele>35.2</ele>
        <time>2024-10-02T12:45:58Z</time>
      </trkpt>
      <trkpt lat="49.30776" lon="0.05869">
        <ele>34.6</ele>
        <time>2024-10-02T12:45:59Z</time>
      </trkpt>
      <trkpt lat="49.30778" lon="0.0586">
        <ele>34.2</ele>
        <time>2024-10-02T12:46:00Z</time>
      </trkpt>
      <trkpt lat="49.30781" lon="0.05851">
        <ele>34</ele>
        <time>2024-10-02T12:46:01Z</time>
      </trkpt>
      <trkpt lat="49.30783" lon="0.05843">
        <ele>34</ele>
        <time>2024-10-02T12:46:02Z</time>
      </trkpt>
      <trkpt lat="49.30785" lon="0.05835">
        <ele>33.8</ele>
        <time>2024-10-02T12:46:03Z</time>
      </trkpt>
      <trkpt lat="49.30788" lon="0.05826">
        <ele>33.8</ele>
        <time>2024-10-02T12:46:04Z</time>
      </trkpt>
      <trkpt lat="49.30791" lon="0.05818">
        <ele>33.8</ele>
        <time>2024-10-02T12:46:05Z</time>
      </trkpt>
      <trkpt lat="49.30794" lon="0.05808">
        <ele>33.6</ele>
        <time>2024-10-02T12:46:06Z</time>
      </trkpt>
      <trkpt lat="49.30796" lon="0.05798">
        <ele>33.6</ele>
        <time>2024-10-02T12:46:07Z</time>
      </trkpt>
      <trkpt lat="49.30799" lon="0.05789">
        <ele>33.6</ele>
        <time>2024-10-02T12:46:08Z</time>
      </trkpt>
      <trkpt lat="49.30803" lon="0.05779">
        <ele>33.4</ele>
        <time>2024-10-02T12:46:09Z</time>
      </trkpt>
      <trkpt lat="49.30807" lon="0.0577">
        <ele>33.4</ele>
        <time>2024-10-02T12:46:10Z</time>
      </trkpt>
      <trkpt lat="49.30811" lon="0.05761">
        <ele>33.4</ele>
        <time>2024-10-02T12:46:11Z</time>
      </trkpt>
      <trkpt lat="49.30816" lon="0.05753">
        <ele>33.2</ele>
        <time>2024-10-02T12:46:12Z</time>
      </trkpt>
      <trkpt lat="49.30822" lon="0.05745">
        <ele>33.2</ele>
        <time>2024-10-02T12:46:13Z</time>
      </trkpt>
      <trkpt lat="49.30829" lon="0.05737">
        <ele>33.2</ele>
        <time>2024-10-02T12:46:14Z</time>
      </trkpt>
      <trkpt lat="49.30835" lon="0.0573">
        <ele>33.2</ele>
        <time>2024-10-02T12:46:15Z</time>
      </trkpt>
      <trkpt lat="49.30842" lon="0.05723">
        <ele>33.2</ele>
        <time>2024-10-02T12:46:16Z</time>
      </trkpt>
      <trkpt lat="49.30849" lon="0.05717">
        <ele>33</ele>
        <time>2024-10-02T12:46:17Z</time>
      </trkpt>
      <trkpt lat="49.30856" lon="0.05711">
        <ele>33</ele>
        <time>2024-10-02T12:46:18Z</time>
      </trkpt>
      <trkpt lat="49.30863" lon="0.05704">
        <ele>32.8</ele>
        <time>2024-10-02T12:46:19Z</time>
      </trkpt>
      <trkpt lat="49.30871" lon="0.05698">
        <ele>32.8</ele>
        <time>2024-10-02T12:46:20Z</time>
      </trkpt>
      <trkpt lat="49.30878" lon="0.05691">
        <ele>32.6</ele>
        <time>2024-10-02T12:46:21Z</time>
      </trkpt>
      <trkpt lat="49.30886" lon="0.05684">
        <ele>32.6</ele>
        <time>2024-10-02T12:46:22Z</time>
      </trkpt>
      <trkpt lat="49.30893" lon="0.05676">
        <ele>32.6</ele>
        <time>2024-10-02T12:46:23Z</time>
      </trkpt>
      <trkpt lat="49.309" lon="0.05668">
        <ele>32.4</ele>
        <time>2024-10-02T12:46:24Z</time>
      </trkpt>
      <trkpt lat="49.30908" lon="0.05659">
        <ele>32.4</ele>
        <time>2024-10-02T12:46:25Z</time>
      </trkpt>
      <trkpt lat="49.30915" lon="0.0565">
        <ele>32.2</ele>
        <time>2024-10-02T12:46:26Z</time>
      </trkpt>
      <trkpt lat="49.30922" lon="0.0564">
        <ele>32.2</ele>
        <time>2024-10-02T12:46:27Z</time>
      </trkpt>
      <trkpt lat="49.30929" lon="0.0563">
        <ele>32.2</ele>
        <time>2024-10-02T12:46:28Z</time>
      </trkpt>
      <trkpt lat="49.30936" lon="0.0562">
        <ele>32.2</ele>
        <time>2024-10-02T12:46:29Z</time>
      </trkpt>
      <trkpt lat="49.30943" lon="0.0561">
        <ele>32</ele>
        <time>2024-10-02T12:46:30Z</time>
      </trkpt>
      <trkpt lat="49.3095" lon="0.056">
        <ele>32</ele>
        <time>2024-10-02T12:46:31Z</time>
      </trkpt>
      <trkpt lat="49.30957" lon="0.0559">
        <ele>31.8</ele>
        <time>2024-10-02T12:46:32Z</time>
      </trkpt>
      <trkpt lat="49.30965" lon="0.0558">
        <ele>31.8</ele>
        <time>2024-10-02T12:46:33Z</time>
      </trkpt>
      <trkpt lat="49.30971" lon="0.0557">
        <ele>31.8</ele>
        <time>2024-10-02T12:46:34Z</time>
      </trkpt>
      <trkpt lat="49.30978" lon="0.0556">
        <ele>31.6</ele>
        <time>2024-10-02T12:46:35Z</time>
      </trkpt>
      <trkpt lat="49.30985" lon="0.0555">
        <ele>31.6</ele>
        <time>2024-10-02T12:46:36Z</time>
      </trkpt>
      <trkpt lat="49.30992" lon="0.0554">
        <ele>31.6</ele>
        <time>2024-10-02T12:46:37Z</time>
      </trkpt>
      <trkpt lat="49.30999" lon="0.0553">
        <ele>31.6</ele>
        <time>2024-10-02T12:46:38Z</time>
      </trkpt>
      <trkpt lat="49.31007" lon="0.0552">
        <ele>31.6</ele>
        <time>2024-10-02T12:46:39Z</time>
      </trkpt>
      <trkpt lat="49.31014" lon="0.05511">
        <ele>31.4</ele>
        <time>2024-10-02T12:46:40Z</time>
      </trkpt>
      <trkpt lat="49.31021" lon="0.05502">
        <ele>31.4</ele>
        <time>2024-10-02T12:46:41Z</time>
      </trkpt>
      <trkpt lat="49.31028" lon="0.05493">
        <ele>31.2</ele>
        <time>2024-10-02T12:46:42Z</time>
      </trkpt>
      <trkpt lat="49.31035" lon="0.05484">
        <ele>31.2</ele>
        <time>2024-10-02T12:46:43Z</time>
      </trkpt>
      <trkpt lat="49.31042" lon="0.05477">
        <ele>31.2</ele>
        <time>2024-10-02T12:46:44Z</time>
      </trkpt>
      <trkpt lat="49.3105" lon="0.05469">
        <ele>31</ele>
        <time>2024-10-02T12:46:45Z</time>
      </trkpt>
      <trkpt lat="49.31057" lon="0.05462">
        <ele>31</ele>
        <time>2024-10-02T12:46:46Z</time>
      </trkpt>
      <trkpt lat="49.31066" lon="0.05455">
        <ele>31</ele>
        <time>2024-10-02T12:46:47Z</time>
      </trkpt>
      <trkpt lat="49.31073" lon="0.05448">
        <ele>31</ele>
        <time>2024-10-02T12:46:48Z</time>
      </trkpt>
      <trkpt lat="49.31081" lon="0.0544">
        <ele>31</ele>
        <time>2024-10-02T12:46:49Z</time>
      </trkpt>
      <trkpt lat="49.31089" lon="0.05433">
        <ele>30.8</ele>
        <time>2024-10-02T12:46:50Z</time>
      </trkpt>
      <trkpt lat="49.31096" lon="0.05424">
        <ele>30.8</ele>
        <time>2024-10-02T12:46:51Z</time>
      </trkpt>
      <trkpt lat="49.31102" lon="0.05418">
        <ele>30.8</ele>
        <time>2024-10-02T12:46:52Z</time>
      </trkpt>
      <trkpt lat="49.31111" lon="0.05408">
        <ele>30.8</ele>
        <time>2024-10-02T12:46:53Z</time>
      </trkpt>
      <trkpt lat="49.31118" lon="0.05399">
        <ele>31</ele>
        <time>2024-10-02T12:46:54Z</time>
      </trkpt>
      <trkpt lat="49.31125" lon="0.0539">
        <ele>31</ele>
        <time>2024-10-02T12:46:55Z</time>
      </trkpt>
      <trkpt lat="49.31132" lon="0.05381">
        <ele>31</ele>
        <time>2024-10-02T12:46:56Z</time>
      </trkpt>
      <trkpt lat="49.31139" lon="0.05372">
        <ele>31.2</ele>
        <time>2024-10-02T12:46:57Z</time>
      </trkpt>
      <trkpt lat="49.31146" lon="0.05363">
        <ele>31.2</ele>
        <time>2024-10-02T12:46:58Z</time>
      </trkpt>
      <trkpt lat="49.31152" lon="0.05353">
        <ele>31.2</ele>
        <time>2024-10-02T12:46:59Z</time>
      </trkpt>
      <trkpt lat="49.31158" lon="0.05343">
        <ele>31.2</ele>
        <time>2024-10-02T12:47:00Z</time>
      </trkpt>
      <trkpt lat="49.31165" lon="0.05334">
        <ele>31.2</ele>
        <time>2024-10-02T12:47:01Z</time>
      </trkpt>
      <trkpt lat="49.31171" lon="0.05324">
        <ele>31.2</ele>
        <time>2024-10-02T12:47:02Z</time>
      </trkpt>
      <trkpt lat="49.31178" lon="0.05315">
        <ele>31.2</ele>
        <time>2024-10-02T12:47:03Z</time>
      </trkpt>
      <trkpt lat="49.31185" lon="0.05305">
        <ele>31.2</ele>
        <time>2024-10-02T12:47:04Z</time>
      </trkpt>
      <trkpt lat="49.31191" lon="0.05297">
        <ele>31.2</ele>
        <time>2024-10-02T12:47:05Z</time>
      </trkpt>
      <trkpt lat="49.31198" lon="0.05288">
        <ele>31.2</ele>
        <time>2024-10-02T12:47:06Z</time>
      </trkpt>
      <trkpt lat="49.31204" lon="0.05281">
        <ele>31.2</ele>
        <time>2024-10-02T12:47:07Z</time>
      </trkpt>
      <trkpt lat="49.3121" lon="0.05274">
        <ele>31.2</ele>
        <time>2024-10-02T12:47:08Z</time>
      </trkpt>
      <trkpt lat="49.31216" lon="0.05268">
        <ele>31.2</ele>
        <time>2024-10-02T12:47:09Z</time>
      </trkpt>
      <trkpt lat="49.31221" lon="0.05263">
        <ele>31.2</ele>
        <time>2024-10-02T12:47:10Z</time>
      </trkpt>
      <trkpt lat="49.31227" lon="0.05258">
        <ele>31.2</ele>
        <time>2024-10-02T12:47:11Z</time>
      </trkpt>
      <trkpt lat="49.31232" lon="0.05255">
        <ele>31.2</ele>
        <time>2024-10-02T12:47:12Z</time>
      </trkpt>
      <trkpt lat="49.31238" lon="0.05252">
        <ele>31.2</ele>
        <time>2024-10-02T12:47:13Z</time>
      </trkpt>
      <trkpt lat="49.31243" lon="0.05253">
        <ele>31</ele>
        <time>2024-10-02T12:47:14Z</time>
      </trkpt>
      <trkpt lat="49.31249" lon="0.05256">
        <ele>30.8</ele>
        <time>2024-10-02T12:47:15Z</time>
      </trkpt>
      <trkpt lat="49.31254" lon="0.0526">
        <ele>30.8</ele>
        <time>2024-10-02T12:47:16Z</time>
      </trkpt>
      <trkpt lat="49.3126" lon="0.05265">
        <ele>30.6</ele>
        <time>2024-10-02T12:47:17Z</time>
      </trkpt>
      <trkpt lat="49.31266" lon="0.0527">
        <ele>30.6</ele>
        <time>2024-10-02T12:47:18Z</time>
      </trkpt>
      <trkpt lat="49.31273" lon="0.05278">
        <ele>30.4</ele>
        <time>2024-10-02T12:47:19Z</time>
      </trkpt>
      <trkpt lat="49.3128" lon="0.05284">
        <ele>30.4</ele>
        <time>2024-10-02T12:47:20Z</time>
      </trkpt>
      <trkpt lat="49.31286" lon="0.0529">
        <ele>30.4</ele>
        <time>2024-10-02T12:47:21Z</time>
      </trkpt>
      <trkpt lat="49.31293" lon="0.05296">
        <ele>30.2</ele>
        <time>2024-10-02T12:47:22Z</time>
      </trkpt>
      <trkpt lat="49.31301" lon="0.05301">
        <ele>30.2</ele>
        <time>2024-10-02T12:47:23Z</time>
      </trkpt>
      <trkpt lat="49.31308" lon="0.05307">
        <ele>30</ele>
        <time>2024-10-02T12:47:24Z</time>
      </trkpt>
      <trkpt lat="49.31315" lon="0.05312">
        <ele>30</ele>
        <time>2024-10-02T12:47:25Z</time>
      </trkpt>
      <trkpt lat="49.31322" lon="0.05317">
        <ele>29.8</ele>
        <time>2024-10-02T12:47:26Z</time>
      </trkpt>
      <trkpt lat="49.3133" lon="0.05322">
        <ele>29.8</ele>
        <time>2024-10-02T12:47:27Z</time>
      </trkpt>
      <trkpt lat="49.31338" lon="0.05327">
        <ele>29.8</ele>
        <time>2024-10-02T12:47:28Z</time>
      </trkpt>
      <trkpt lat="49.31345" lon="0.05332">
        <ele>29.6</ele>
        <time>2024-10-02T12:47:29Z</time>
      </trkpt>
      <trkpt lat="49.31353" lon="0.05338">
        <ele>29.8</ele>
        <time>2024-10-02T12:47:30Z</time>
      </trkpt>
      <trkpt lat="49.31361" lon="0.05343">
        <ele>29.6</ele>
        <time>2024-10-02T12:47:31Z</time>
      </trkpt>
      <trkpt lat="49.31369" lon="0.05348">
        <ele>29.6</ele>
        <time>2024-10-02T12:47:32Z</time>
      </trkpt>
      <trkpt lat="49.31377" lon="0.05355">
        <ele>29.6</ele>
        <time>2024-10-02T12:47:33Z</time>
      </trkpt>
      <trkpt lat="49.31384" lon="0.05361">
        <ele>29.6</ele>
        <time>2024-10-02T12:47:34Z</time>
      </trkpt>
      <trkpt lat="49.31391" lon="0.05367">
        <ele>29.6</ele>
        <time>2024-10-02T12:47:35Z</time>
      </trkpt>
      <trkpt lat="49.31398" lon="0.05374">
        <ele>29.6</ele>
        <time>2024-10-02T12:47:36Z</time>
      </trkpt>
      <trkpt lat="49.31405" lon="0.05381">
        <ele>29.4</ele>
        <time>2024-10-02T12:47:37Z</time>
      </trkpt>
      <trkpt lat="49.31413" lon="0.05387">
        <ele>29.6</ele>
        <time>2024-10-02T12:47:38Z</time>
      </trkpt>
      <trkpt lat="49.31421" lon="0.05394">
        <ele>29.4</ele>
        <time>2024-10-02T12:47:39Z</time>
      </trkpt>
      <trkpt lat="49.31428" lon="0.05399">
        <ele>29.2</ele>
        <time>2024-10-02T12:47:40Z</time>
      </trkpt>
      <trkpt lat="49.31437" lon="0.05404">
        <ele>29.4</ele>
        <time>2024-10-02T12:47:41Z</time>
      </trkpt>
      <trkpt lat="49.31445" lon="0.05407">
        <ele>29.2</ele>
        <time>2024-10-02T12:47:42Z</time>
      </trkpt>
      <trkpt lat="49.31453" lon="0.05409">
        <ele>29.2</ele>
        <time>2024-10-02T12:47:43Z</time>
      </trkpt>
      <trkpt lat="49.31462" lon="0.05411">
        <ele>29.4</ele>
        <time>2024-10-02T12:47:44Z</time>
      </trkpt>
      <trkpt lat="49.3147" lon="0.05412">
        <ele>29.4</ele>
        <time>2024-10-02T12:47:45Z</time>
      </trkpt>
      <trkpt lat="49.31479" lon="0.05414">
        <ele>29.2</ele>
        <time>2024-10-02T12:47:46Z</time>
      </trkpt>
      <trkpt lat="49.31487" lon="0.05416">
        <ele>29.2</ele>
        <time>2024-10-02T12:47:47Z</time>
      </trkpt>
      <trkpt lat="49.31495" lon="0.0542">
        <ele>28.8</ele>
        <time>2024-10-02T12:47:48Z</time>
      </trkpt>
      <trkpt lat="49.31503" lon="0.05424">
        <ele>28.8</ele>
        <time>2024-10-02T12:47:49Z</time>
      </trkpt>
      <trkpt lat="49.31509" lon="0.05429">
        <ele>28.6</ele>
        <time>2024-10-02T12:47:50Z</time>
      </trkpt>
      <trkpt lat="49.31518" lon="0.05437">
        <ele>28.8</ele>
        <time>2024-10-02T12:47:51Z</time>
      </trkpt>
      <trkpt lat="49.31525" lon="0.05445">
        <ele>28.4</ele>
        <time>2024-10-02T12:47:52Z</time>
      </trkpt>
      <trkpt lat="49.31532" lon="0.05453">
        <ele>28.4</ele>
        <time>2024-10-02T12:47:53Z</time>
      </trkpt>
      <trkpt lat="49.31539" lon="0.0546">
        <ele>28.2</ele>
        <time>2024-10-02T12:47:54Z</time>
      </trkpt>
      <trkpt lat="49.31547" lon="0.05465">
        <ele>28.2</ele>
        <time>2024-10-02T12:47:55Z</time>
      </trkpt>
      <trkpt lat="49.31554" lon="0.0547">
        <ele>28</ele>
        <time>2024-10-02T12:47:56Z</time>
      </trkpt>
      <trkpt lat="49.31563" lon="0.05473">
        <ele>28</ele>
        <time>2024-10-02T12:47:57Z</time>
      </trkpt>
      <trkpt lat="49.31571" lon="0.05476">
        <ele>28.2</ele>
        <time>2024-10-02T12:47:58Z</time>
      </trkpt>
      <trkpt lat="49.31579" lon="0.05477">
        <ele>28.2</ele>
        <time>2024-10-02T12:47:59Z</time>
      </trkpt>
      <trkpt lat="49.31587" lon="0.05479">
        <ele>28.2</ele>
        <time>2024-10-02T12:48:00Z</time>
      </trkpt>
      <trkpt lat="49.31596" lon="0.05481">
        <ele>28</ele>
        <time>2024-10-02T12:48:01Z</time>
      </trkpt>
      <trkpt lat="49.31604" lon="0.05482">
        <ele>28</ele>
        <time>2024-10-02T12:48:02Z</time>
      </trkpt>
      <trkpt lat="49.31612" lon="0.05484">
        <ele>28</ele>
        <time>2024-10-02T12:48:03Z</time>
      </trkpt>
      <trkpt lat="49.31619" lon="0.05486">
        <ele>28</ele>
        <time>2024-10-02T12:48:04Z</time>
      </trkpt>
      <trkpt lat="49.31626" lon="0.05488">
        <ele>28</ele>
        <time>2024-10-02T12:48:05Z</time>
      </trkpt>
      <trkpt lat="49.31634" lon="0.0549">
        <ele>28</ele>
        <time>2024-10-02T12:48:06Z</time>
      </trkpt>
      <trkpt lat="49.31642" lon="0.05492">
        <ele>28.2</ele>
        <time>2024-10-02T12:48:07Z</time>
      </trkpt>
      <trkpt lat="49.31649" lon="0.05494">
        <ele>28.2</ele>
        <time>2024-10-02T12:48:08Z</time>
      </trkpt>
      <trkpt lat="49.31657" lon="0.05496">
        <ele>28.2</ele>
        <time>2024-10-02T12:48:09Z</time>
      </trkpt>
      <trkpt lat="49.31665" lon="0.05499">
        <ele>28.4</ele>
        <time>2024-10-02T12:48:10Z</time>
      </trkpt>
      <trkpt lat="49.31673" lon="0.05501">
        <ele>28.4</ele>
        <time>2024-10-02T12:48:11Z</time>
      </trkpt>
      <trkpt lat="49.31682" lon="0.05504">
        <ele>28.6</ele>
        <time>2024-10-02T12:48:12Z</time>
      </trkpt>
      <trkpt lat="49.31689" lon="0.05506">
        <ele>28.6</ele>
        <time>2024-10-02T12:48:13Z</time>
      </trkpt>
      <trkpt lat="49.31697" lon="0.05509">
        <ele>28.8</ele>
        <time>2024-10-02T12:48:14Z</time>
      </trkpt>
      <trkpt lat="49.31704" lon="0.05512">
        <ele>28.8</ele>
        <time>2024-10-02T12:48:15Z</time>
      </trkpt>
      <trkpt lat="49.31712" lon="0.05515">
        <ele>28.8</ele>
        <time>2024-10-02T12:48:16Z</time>
      </trkpt>
      <trkpt lat="49.31719" lon="0.05518">
        <ele>28.8</ele>
        <time>2024-10-02T12:48:17Z</time>
      </trkpt>
      <trkpt lat="49.31727" lon="0.05522">
        <ele>28.8</ele>
        <time>2024-10-02T12:48:18Z</time>
      </trkpt>
      <trkpt lat="49.31734" lon="0.05525">
        <ele>28.8</ele>
        <time>2024-10-02T12:48:19Z</time>
      </trkpt>
      <trkpt lat="49.31742" lon="0.05528">
        <ele>28.8</ele>
        <time>2024-10-02T12:48:20Z</time>
      </trkpt>
      <trkpt lat="49.3175" lon="0.05531">
        <ele>28.8</ele>
        <time>2024-10-02T12:48:21Z</time>
      </trkpt>
      <trkpt lat="49.31758" lon="0.05534">
        <ele>28.8</ele>
        <time>2024-10-02T12:48:22Z</time>
      </trkpt>
      <trkpt lat="49.31766" lon="0.05537">
        <ele>28.8</ele>
        <time>2024-10-02T12:48:23Z</time>
      </trkpt>
      <trkpt lat="49.31773" lon="0.0554">
        <ele>28.6</ele>
        <time>2024-10-02T12:48:24Z</time>
      </trkpt>
      <trkpt lat="49.3178" lon="0.05542">
        <ele>28.6</ele>
        <time>2024-10-02T12:48:25Z</time>
      </trkpt>
      <trkpt lat="49.31787" lon="0.05543">
        <ele>28.6</ele>
        <time>2024-10-02T12:48:26Z</time>
      </trkpt>
      <trkpt lat="49.31794" lon="0.05543">
        <ele>28.6</ele>
        <time>2024-10-02T12:48:27Z</time>
      </trkpt>
      <trkpt lat="49.31801" lon="0.05542">
        <ele>28.4</ele>
        <time>2024-10-02T12:48:28Z</time>
      </trkpt>
      <trkpt lat="49.31806" lon="0.05539">
        <ele>28.4</ele>
        <time>2024-10-02T12:48:29Z</time>
      </trkpt>
      <trkpt lat="49.31811" lon="0.05536">
        <ele>28.2</ele>
        <time>2024-10-02T12:48:30Z</time>
      </trkpt>
      <trkpt lat="49.31815" lon="0.05533">
        <ele>28.2</ele>
        <time>2024-10-02T12:48:31Z</time>
      </trkpt>
      <trkpt lat="49.31818" lon="0.0553">
        <ele>28</ele>
        <time>2024-10-02T12:48:32Z</time>
      </trkpt>
      <trkpt lat="49.31822" lon="0.05527">
        <ele>28</ele>
        <time>2024-10-02T12:48:33Z</time>
      </trkpt>
      <trkpt lat="49.31825" lon="0.05524">
        <ele>28</ele>
        <time>2024-10-02T12:48:34Z</time>
      </trkpt>
      <trkpt lat="49.31828" lon="0.05522">
        <ele>28</ele>
        <time>2024-10-02T12:48:35Z</time>
      </trkpt>
      <trkpt lat="49.3183" lon="0.05521">
        <ele>28</ele>
        <time>2024-10-02T12:48:36Z</time>
      </trkpt>
      <trkpt lat="49.31834" lon="0.05521">
        <ele>27.8</ele>
        <time>2024-10-02T12:48:37Z</time>
      </trkpt>
      <trkpt lat="49.31838" lon="0.05522">
        <ele>27.8</ele>
        <time>2024-10-02T12:48:38Z</time>
      </trkpt>
      <trkpt lat="49.31842" lon="0.05527">
        <ele>27.8</ele>
        <time>2024-10-02T12:48:39Z</time>
      </trkpt>
      <trkpt lat="49.31845" lon="0.05532">
        <ele>27.8</ele>
        <time>2024-10-02T12:48:40Z</time>
      </trkpt>
      <trkpt lat="49.31849" lon="0.05539">
        <ele>27.8</ele>
        <time>2024-10-02T12:48:41Z</time>
      </trkpt>
      <trkpt lat="49.31853" lon="0.05547">
        <ele>27.8</ele>
        <time>2024-10-02T12:48:42Z</time>
      </trkpt>
      <trkpt lat="49.31856" lon="0.05555">
        <ele>27.6</ele>
        <time>2024-10-02T12:48:43Z</time>
      </trkpt>
      <trkpt lat="49.3186" lon="0.05564">
        <ele>27.6</ele>
        <time>2024-10-02T12:48:44Z</time>
      </trkpt>
      <trkpt lat="49.31864" lon="0.05573">
        <ele>27.6</ele>
        <time>2024-10-02T12:48:45Z</time>
      </trkpt>
      <trkpt lat="49.31869" lon="0.05582">
        <ele>27.6</ele>
        <time>2024-10-02T12:48:46Z</time>
      </trkpt>
      <trkpt lat="49.31874" lon="0.05592">
        <ele>27.6</ele>
        <time>2024-10-02T12:48:47Z</time>
      </trkpt>
      <trkpt lat="49.31878" lon="0.05602">
        <ele>27.6</ele>
        <time>2024-10-02T12:48:48Z</time>
      </trkpt>
      <trkpt lat="49.31883" lon="0.05613">
        <ele>27.4</ele>
        <time>2024-10-02T12:48:49Z</time>
      </trkpt>
      <trkpt lat="49.31888" lon="0.05624">
        <ele>27.2</ele>
        <time>2024-10-02T12:48:50Z</time>
      </trkpt>
      <trkpt lat="49.31894" lon="0.05636">
        <ele>27.2</ele>
        <time>2024-10-02T12:48:51Z</time>
      </trkpt>
      <trkpt lat="49.31899" lon="0.05647">
        <ele>27.2</ele>
        <time>2024-10-02T12:48:52Z</time>
      </trkpt>
      <trkpt lat="49.31904" lon="0.05659">
        <ele>27.2</ele>
        <time>2024-10-02T12:48:53Z</time>
      </trkpt>
      <trkpt lat="49.3191" lon="0.05671">
        <ele>27</ele>
        <time>2024-10-02T12:48:54Z</time>
      </trkpt>
      <trkpt lat="49.31915" lon="0.05683">
        <ele>26.6</ele>
        <time>2024-10-02T12:48:55Z</time>
      </trkpt>
      <trkpt lat="49.3192" lon="0.05695">
        <ele>26.4</ele>
        <time>2024-10-02T12:48:56Z</time>
      </trkpt>
      <trkpt lat="49.31926" lon="0.05706">
        <ele>26.2</ele>
        <time>2024-10-02T12:48:57Z</time>
      </trkpt>
      <trkpt lat="49.31931" lon="0.05718">
        <ele>26</ele>
        <time>2024-10-02T12:48:58Z</time>
      </trkpt>
      <trkpt lat="49.31937" lon="0.05729">
        <ele>25.8</ele>
        <time>2024-10-02T12:48:59Z</time>
      </trkpt>
      <trkpt lat="49.31942" lon="0.0574">
        <ele>25.6</ele>
        <time>2024-10-02T12:49:00Z</time>
      </trkpt>
      <trkpt lat="49.31948" lon="0.0575">
        <ele>25.2</ele>
        <time>2024-10-02T12:49:01Z</time>
      </trkpt>
      <trkpt lat="49.31954" lon="0.05761">
        <ele>24.8</ele>
        <time>2024-10-02T12:49:02Z</time>
      </trkpt>
      <trkpt lat="49.31959" lon="0.05772">
        <ele>24</ele>
        <time>2024-10-02T12:49:03Z</time>
      </trkpt>
      <trkpt lat="49.31965" lon="0.05782">
        <ele>23.8</ele>
        <time>2024-10-02T12:49:04Z</time>
      </trkpt>
      <trkpt lat="49.31971" lon="0.05791">
        <ele>23.4</ele>
        <time>2024-10-02T12:49:05Z</time>
      </trkpt>
      <trkpt lat="49.31978" lon="0.05801">
        <ele>23</ele>
        <time>2024-10-02T12:49:06Z</time>
      </trkpt>
      <trkpt lat="49.31984" lon="0.05811">
        <ele>22.8</ele>
        <time>2024-10-02T12:49:07Z</time>
      </trkpt>
      <trkpt lat="49.3199" lon="0.05821">
        <ele>22.8</ele>
        <time>2024-10-02T12:49:08Z</time>
      </trkpt>
      <trkpt lat="49.31997" lon="0.05831">
        <ele>22.6</ele>
        <time>2024-10-02T12:49:09Z</time>
      </trkpt>
      <trkpt lat="49.32003" lon="0.0584">
        <ele>22.6</ele>
        <time>2024-10-02T12:49:10Z</time>
      </trkpt>
      <trkpt lat="49.32011" lon="0.05851">
        <ele>22.4</ele>
        <time>2024-10-02T12:49:11Z</time>
      </trkpt>
      <trkpt lat="49.32017" lon="0.0586">
        <ele>22.4</ele>
        <time>2024-10-02T12:49:12Z</time>
      </trkpt>
      <trkpt lat="49.32023" lon="0.0587">
        <ele>22.2</ele>
        <time>2024-10-02T12:49:13Z</time>
      </trkpt>
      <trkpt lat="49.32028" lon="0.05877">
        <ele>22.2</ele>
        <time>2024-10-02T12:49:14Z</time>
      </trkpt>
      <trkpt lat="49.32036" lon="0.05887">
        <ele>22</ele>
        <time>2024-10-02T12:49:15Z</time>
      </trkpt>
      <trkpt lat="49.32042" lon="0.05896">
        <ele>21.8</ele>
        <time>2024-10-02T12:49:16Z</time>
      </trkpt>
      <trkpt lat="49.32047" lon="0.05904">
        <ele>21.4</ele>
        <time>2024-10-02T12:49:17Z</time>
      </trkpt>
      <trkpt lat="49.32052" lon="0.05911">
        <ele>21</ele>
        <time>2024-10-02T12:49:18Z</time>
      </trkpt>
      <trkpt lat="49.32058" lon="0.05919">
        <ele>20.8</ele>
        <time>2024-10-02T12:49:19Z</time>
      </trkpt>
      <trkpt lat="49.32065" lon="0.05928">
        <ele>20.8</ele>
        <time>2024-10-02T12:49:20Z</time>
      </trkpt>
      <trkpt lat="49.32071" lon="0.05937">
        <ele>20.6</ele>
        <time>2024-10-02T12:49:21Z</time>
      </trkpt>
      <trkpt lat="49.32077" lon="0.05946">
        <ele>20.6</ele>
        <time>2024-10-02T12:49:22Z</time>
      </trkpt>
      <trkpt lat="49.32084" lon="0.05955">
        <ele>20.6</ele>
        <time>2024-10-02T12:49:23Z</time>
      </trkpt>
      <trkpt lat="49.3209" lon="0.05964">
        <ele>20.4</ele>
        <time>2024-10-02T12:49:24Z</time>
      </trkpt>
      <trkpt lat="49.32097" lon="0.05973">
        <ele>20.4</ele>
        <time>2024-10-02T12:49:25Z</time>
      </trkpt>
      <trkpt lat="49.32103" lon="0.05982">
        <ele>20.4</ele>
        <time>2024-10-02T12:49:26Z</time>
      </trkpt>
      <trkpt lat="49.32109" lon="0.05991">
        <ele>20.2</ele>
        <time>2024-10-02T12:49:27Z</time>
      </trkpt>
      <trkpt lat="49.32116" lon="0.06">
        <ele>20.2</ele>
        <time>2024-10-02T12:49:28Z</time>
      </trkpt>
      <trkpt lat="49.32122" lon="0.06009">
        <ele>20.2</ele>
        <time>2024-10-02T12:49:29Z</time>
      </trkpt>
      <trkpt lat="49.32128" lon="0.06018">
        <ele>20.2</ele>
        <time>2024-10-02T12:49:30Z</time>
      </trkpt>
      <trkpt lat="49.32134" lon="0.06026">
        <ele>20.2</ele>
        <time>2024-10-02T12:49:31Z</time>
      </trkpt>
      <trkpt lat="49.3214" lon="0.06035">
        <ele>20.2</ele>
        <time>2024-10-02T12:49:32Z</time>
      </trkpt>
      <trkpt lat="49.32146" lon="0.06043">
        <ele>20.2</ele>
        <time>2024-10-02T12:49:33Z</time>
      </trkpt>
      <trkpt lat="49.32152" lon="0.06052">
        <ele>20.2</ele>
        <time>2024-10-02T12:49:34Z</time>
      </trkpt>
      <trkpt lat="49.32158" lon="0.06061">
        <ele>20.2</ele>
        <time>2024-10-02T12:49:35Z</time>
      </trkpt>
      <trkpt lat="49.32163" lon="0.0607">
        <ele>20.2</ele>
        <time>2024-10-02T12:49:36Z</time>
      </trkpt>
      <trkpt lat="49.32169" lon="0.06078">
        <ele>20.2</ele>
        <time>2024-10-02T12:49:37Z</time>
      </trkpt>
      <trkpt lat="49.32175" lon="0.06088">
        <ele>20.2</ele>
        <time>2024-10-02T12:49:38Z</time>
      </trkpt>
      <trkpt lat="49.32181" lon="0.06097">
        <ele>20.2</ele>
        <time>2024-10-02T12:49:39Z</time>
      </trkpt>
      <trkpt lat="49.32187" lon="0.06106">
        <ele>20.2</ele>
        <time>2024-10-02T12:49:40Z</time>
      </trkpt>
      <trkpt lat="49.32193" lon="0.06115">
        <ele>20.2</ele>
        <time>2024-10-02T12:49:41Z</time>
      </trkpt>
      <trkpt lat="49.32198" lon="0.06124">
        <ele>20.2</ele>
        <time>2024-10-02T12:49:42Z</time>
      </trkpt>
      <trkpt lat="49.32204" lon="0.06133">
        <ele>20.2</ele>
        <time>2024-10-02T12:49:43Z</time>
      </trkpt>
      <trkpt lat="49.3221" lon="0.06143">
        <ele>20.2</ele>
        <time>2024-10-02T12:49:44Z</time>
      </trkpt>
      <trkpt lat="49.32215" lon="0.06153">
        <ele>20.2</ele>
        <time>2024-10-02T12:49:45Z</time>
      </trkpt>
      <trkpt lat="49.32221" lon="0.06163">
        <ele>20.2</ele>
        <time>2024-10-02T12:49:46Z</time>
      </trkpt>
      <trkpt lat="49.32226" lon="0.06173">
        <ele>20.2</ele>
        <time>2024-10-02T12:49:47Z</time>
      </trkpt>
      <trkpt lat="49.32232" lon="0.06183">
        <ele>20.2</ele>
        <time>2024-10-02T12:49:48Z</time>
      </trkpt>
      <trkpt lat="49.32237" lon="0.06194">
        <ele>20</ele>
        <time>2024-10-02T12:49:49Z</time>
      </trkpt>
      <trkpt lat="49.32242" lon="0.06205">
        <ele>20</ele>
        <time>2024-10-02T12:49:50Z</time>
      </trkpt>
      <trkpt lat="49.32247" lon="0.06215">
        <ele>20</ele>
        <time>2024-10-02T12:49:51Z</time>
      </trkpt>
      <trkpt lat="49.32252" lon="0.06225">
        <ele>20</ele>
        <time>2024-10-02T12:49:52Z</time>
      </trkpt>
      <trkpt lat="49.32258" lon="0.06237">
        <ele>20</ele>
        <time>2024-10-02T12:49:53Z</time>
      </trkpt>
      <trkpt lat="49.32263" lon="0.06247">
        <ele>20</ele>
        <time>2024-10-02T12:49:54Z</time>
      </trkpt>
      <trkpt lat="49.32266" lon="0.06255">
        <ele>19.8</ele>
        <time>2024-10-02T12:49:55Z</time>
      </trkpt>
      <trkpt lat="49.32271" lon="0.06265">
        <ele>19.8</ele>
        <time>2024-10-02T12:49:56Z</time>
      </trkpt>
      <trkpt lat="49.32275" lon="0.06275">
        <ele>19.8</ele>
        <time>2024-10-02T12:49:57Z</time>
      </trkpt>
      <trkpt lat="49.3228" lon="0.06287">
        <ele>19.8</ele>
        <time>2024-10-02T12:49:58Z</time>
      </trkpt>
      <trkpt lat="49.32284" lon="0.06297">
        <ele>19.8</ele>
        <time>2024-10-02T12:49:59Z</time>
      </trkpt>
      <trkpt lat="49.32288" lon="0.06306">
        <ele>19.8</ele>
        <time>2024-10-02T12:50:00Z</time>
      </trkpt>
      <trkpt lat="49.32292" lon="0.06316">
        <ele>20</ele>
        <time>2024-10-02T12:50:01Z</time>
      </trkpt>
      <trkpt lat="49.32296" lon="0.06326">
        <ele>19.8</ele>
        <time>2024-10-02T12:50:02Z</time>
      </trkpt>
      <trkpt lat="49.32299" lon="0.06335">
        <ele>19.8</ele>
        <time>2024-10-02T12:50:03Z</time>
      </trkpt>
      <trkpt lat="49.32303" lon="0.06348">
        <ele>19.8</ele>
        <time>2024-10-02T12:50:04Z</time>
      </trkpt>
      <trkpt lat="49.32306" lon="0.06359">
        <ele>19.8</ele>
        <time>2024-10-02T12:50:05Z</time>
      </trkpt>
      <trkpt lat="49.3231" lon="0.06371">
        <ele>19.8</ele>
        <time>2024-10-02T12:50:06Z</time>
      </trkpt>
      <trkpt lat="49.32312" lon="0.06383">
        <ele>19.8</ele>
        <time>2024-10-02T12:50:07Z</time>
      </trkpt>
      <trkpt lat="49.32315" lon="0.06394">
        <ele>19.8</ele>
        <time>2024-10-02T12:50:08Z</time>
      </trkpt>
      <trkpt lat="49.32317" lon="0.06404">
        <ele>19.8</ele>
        <time>2024-10-02T12:50:09Z</time>
      </trkpt>
      <trkpt lat="49.32319" lon="0.06415">
        <ele>19.8</ele>
        <time>2024-10-02T12:50:10Z</time>
      </trkpt>
      <trkpt lat="49.3232" lon="0.06425">
        <ele>19.8</ele>
        <time>2024-10-02T12:50:11Z</time>
      </trkpt>
      <trkpt lat="49.32321" lon="0.06435">
        <ele>19.8</ele>
        <time>2024-10-02T12:50:12Z</time>
      </trkpt>
      <trkpt lat="49.32322" lon="0.06444">
        <ele>19.8</ele>
        <time>2024-10-02T12:50:13Z</time>
      </trkpt>
      <trkpt lat="49.32323" lon="0.06451">
        <ele>19.8</ele>
        <time>2024-10-02T12:50:14Z</time>
      </trkpt>
      <trkpt lat="49.32325" lon="0.06461">
        <ele>19.8</ele>
        <time>2024-10-02T12:50:15Z</time>
      </trkpt>
      <trkpt lat="49.32326" lon="0.06469">
        <ele>19.8</ele>
        <time>2024-10-02T12:50:16Z</time>
      </trkpt>
      <trkpt lat="49.32327" lon="0.06478">
        <ele>19.6</ele>
        <time>2024-10-02T12:50:17Z</time>
      </trkpt>
      <trkpt lat="49.32327" lon="0.06488">
        <ele>19.6</ele>
        <time>2024-10-02T12:50:18Z</time>
      </trkpt>
      <trkpt lat="49.32325" lon="0.06497">
        <ele>19.4</ele>
        <time>2024-10-02T12:50:19Z</time>
      </trkpt>
      <trkpt lat="49.32323" lon="0.06507">
        <ele>19.4</ele>
        <time>2024-10-02T12:50:20Z</time>
      </trkpt>
      <trkpt lat="49.3232" lon="0.06516">
        <ele>19.4</ele>
        <time>2024-10-02T12:50:21Z</time>
      </trkpt>
      <trkpt lat="49.32318" lon="0.06526">
        <ele>19.2</ele>
        <time>2024-10-02T12:50:22Z</time>
      </trkpt>
      <trkpt lat="49.32318" lon="0.06537">
        <ele>19.2</ele>
        <time>2024-10-02T12:50:23Z</time>
      </trkpt>
      <trkpt lat="49.32319" lon="0.06548">
        <ele>19.2</ele>
        <time>2024-10-02T12:50:24Z</time>
      </trkpt>
      <trkpt lat="49.32321" lon="0.06558">
        <ele>19</ele>
        <time>2024-10-02T12:50:25Z</time>
      </trkpt>
      <trkpt lat="49.32324" lon="0.06567">
        <ele>19</ele>
        <time>2024-10-02T12:50:26Z</time>
      </trkpt>
      <trkpt lat="49.32328" lon="0.06577">
        <ele>18.6</ele>
        <time>2024-10-02T12:50:27Z</time>
      </trkpt>
      <trkpt lat="49.32331" lon="0.06587">
        <ele>18.4</ele>
        <time>2024-10-02T12:50:28Z</time>
      </trkpt>
      <trkpt lat="49.32334" lon="0.06598">
        <ele>17.8</ele>
        <time>2024-10-02T12:50:29Z</time>
      </trkpt>
      <trkpt lat="49.32336" lon="0.06609">
        <ele>17.6</ele>
        <time>2024-10-02T12:50:30Z</time>
      </trkpt>
      <trkpt lat="49.32338" lon="0.06621">
        <ele>17.4</ele>
        <time>2024-10-02T12:50:31Z</time>
      </trkpt>
      <trkpt lat="49.32339" lon="0.06633">
        <ele>17.4</ele>
        <time>2024-10-02T12:50:32Z</time>
      </trkpt>
      <trkpt lat="49.3234" lon="0.06646">
        <ele>17.2</ele>
        <time>2024-10-02T12:50:33Z</time>
      </trkpt>
      <trkpt lat="49.32341" lon="0.06657">
        <ele>17</ele>
        <time>2024-10-02T12:50:34Z</time>
      </trkpt>
      <trkpt lat="49.32342" lon="0.06668">
        <ele>16.8</ele>
        <time>2024-10-02T12:50:35Z</time>
      </trkpt>
      <trkpt lat="49.32343" lon="0.06679">
        <ele>16.6</ele>
        <time>2024-10-02T12:50:36Z</time>
      </trkpt>
      <trkpt lat="49.32344" lon="0.06689">
        <ele>16.2</ele>
        <time>2024-10-02T12:50:37Z</time>
      </trkpt>
      <trkpt lat="49.32345" lon="0.06697">
        <ele>15.8</ele>
        <time>2024-10-02T12:50:38Z</time>
      </trkpt>
      <trkpt lat="49.32345" lon="0.06705">
        <ele>15.6</ele>
        <time>2024-10-02T12:50:39Z</time>
      </trkpt>
      <trkpt lat="49.32346" lon="0.06712">
        <ele>15.4</ele>
        <time>2024-10-02T12:50:40Z</time>
      </trkpt>
      <trkpt lat="49.32346" lon="0.06718">
        <ele>15</ele>
        <time>2024-10-02T12:50:41Z</time>
      </trkpt>
      <trkpt lat="49.32345" lon="0.06724">
        <ele>15</ele>
        <time>2024-10-02T12:50:42Z</time>
      </trkpt>
      <trkpt lat="49.32343" lon="0.06727">
        <ele>14.8</ele>
        <time>2024-10-02T12:50:43Z</time>
      </trkpt>
      <trkpt lat="49.32338" lon="0.06731">
        <ele>14.8</ele>
        <time>2024-10-02T12:50:44Z</time>
      </trkpt>
      <trkpt lat="49.32333" lon="0.06734">
        <ele>14.8</ele>
        <time>2024-10-02T12:50:45Z</time>
      </trkpt>
      <trkpt lat="49.32329" lon="0.06737">
        <ele>14.8</ele>
        <time>2024-10-02T12:50:46Z</time>
      </trkpt>
      <trkpt lat="49.32323" lon="0.0674">
        <ele>14.8</ele>
        <time>2024-10-02T12:50:47Z</time>
      </trkpt>
      <trkpt lat="49.32318" lon="0.06743">
        <ele>14.6</ele>
        <time>2024-10-02T12:50:48Z</time>
      </trkpt>
      <trkpt lat="49.32312" lon="0.06746">
        <ele>14.6</ele>
        <time>2024-10-02T12:50:49Z</time>
      </trkpt>
      <trkpt lat="49.32307" lon="0.0675">
        <ele>14.6</ele>
        <time>2024-10-02T12:50:50Z</time>
      </trkpt>
      <trkpt lat="49.323" lon="0.06756">
        <ele>14.6</ele>
        <time>2024-10-02T12:50:51Z</time>
      </trkpt>
      <trkpt lat="49.32294" lon="0.06763">
        <ele>14.6</ele>
        <time>2024-10-02T12:50:52Z</time>
      </trkpt>
      <trkpt lat="49.32288" lon="0.0677">
        <ele>14.6</ele>
        <time>2024-10-02T12:50:53Z</time>
      </trkpt>
      <trkpt lat="49.32281" lon="0.06779">
        <ele>14.6</ele>
        <time>2024-10-02T12:50:54Z</time>
      </trkpt>
      <trkpt lat="49.32275" lon="0.06788">
        <ele>14.6</ele>
        <time>2024-10-02T12:50:55Z</time>
      </trkpt>
      <trkpt lat="49.32269" lon="0.06795">
        <ele>14.6</ele>
        <time>2024-10-02T12:50:56Z</time>
      </trkpt>
      <trkpt lat="49.32261" lon="0.06805">
        <ele>14.6</ele>
        <time>2024-10-02T12:50:57Z</time>
      </trkpt>
      <trkpt lat="49.32255" lon="0.06814">
        <ele>14.4</ele>
        <time>2024-10-02T12:50:58Z</time>
      </trkpt>
      <trkpt lat="49.32248" lon="0.06822">
        <ele>14.4</ele>
        <time>2024-10-02T12:50:59Z</time>
      </trkpt>
      <trkpt lat="49.32242" lon="0.06831">
        <ele>14.4</ele>
        <time>2024-10-02T12:51:00Z</time>
      </trkpt>
      <trkpt lat="49.32235" lon="0.0684">
        <ele>14.2</ele>
        <time>2024-10-02T12:51:01Z</time>
      </trkpt>
      <trkpt lat="49.32229" lon="0.06849">
        <ele>14</ele>
        <time>2024-10-02T12:51:02Z</time>
      </trkpt>
      <trkpt lat="49.32222" lon="0.06858">
        <ele>13.6</ele>
        <time>2024-10-02T12:51:03Z</time>
      </trkpt>
      <trkpt lat="49.32215" lon="0.06866">
        <ele>13.4</ele>
        <time>2024-10-02T12:51:04Z</time>
      </trkpt>
      <trkpt lat="49.32208" lon="0.06873">
        <ele>13.2</ele>
        <time>2024-10-02T12:51:05Z</time>
      </trkpt>
      <trkpt lat="49.322" lon="0.06879">
        <ele>13.2</ele>
        <time>2024-10-02T12:51:06Z</time>
      </trkpt>
      <trkpt lat="49.32192" lon="0.06884">
        <ele>13.2</ele>
        <time>2024-10-02T12:51:07Z</time>
      </trkpt>
      <trkpt lat="49.32184" lon="0.06887">
        <ele>13</ele>
        <time>2024-10-02T12:51:08Z</time>
      </trkpt>
      <trkpt lat="49.32176" lon="0.06889">
        <ele>13</ele>
        <time>2024-10-02T12:51:09Z</time>
      </trkpt>
      <trkpt lat="49.32168" lon="0.0689">
        <ele>13</ele>
        <time>2024-10-02T12:51:10Z</time>
      </trkpt>
      <trkpt lat="49.32161" lon="0.06891">
        <ele>13</ele>
        <time>2024-10-02T12:51:11Z</time>
      </trkpt>
      <trkpt lat="49.32153" lon="0.06893">
        <ele>13</ele>
        <time>2024-10-02T12:51:12Z</time>
      </trkpt>
      <trkpt lat="49.32145" lon="0.06898">
        <ele>13</ele>
        <time>2024-10-02T12:51:13Z</time>
      </trkpt>
      <trkpt lat="49.32138" lon="0.06904">
        <ele>13</ele>
        <time>2024-10-02T12:51:14Z</time>
      </trkpt>
      <trkpt lat="49.32131" lon="0.06912">
        <ele>13</ele>
        <time>2024-10-02T12:51:15Z</time>
      </trkpt>
      <trkpt lat="49.32126" lon="0.06921">
        <ele>13</ele>
        <time>2024-10-02T12:51:16Z</time>
      </trkpt>
      <trkpt lat="49.32121" lon="0.06931">
        <ele>13</ele>
        <time>2024-10-02T12:51:17Z</time>
      </trkpt>
      <trkpt lat="49.32116" lon="0.06941">
        <ele>13</ele>
        <time>2024-10-02T12:51:18Z</time>
      </trkpt>
      <trkpt lat="49.32111" lon="0.0695">
        <ele>13</ele>
        <time>2024-10-02T12:51:19Z</time>
      </trkpt>
      <trkpt lat="49.32106" lon="0.06959">
        <ele>13</ele>
        <time>2024-10-02T12:51:20Z</time>
      </trkpt>
      <trkpt lat="49.32101" lon="0.06966">
        <ele>13.2</ele>
        <time>2024-10-02T12:51:21Z</time>
      </trkpt>
      <trkpt lat="49.32096" lon="0.06972">
        <ele>13.2</ele>
        <time>2024-10-02T12:51:22Z</time>
      </trkpt>
      <trkpt lat="49.3209" lon="0.06979">
        <ele>13.2</ele>
        <time>2024-10-02T12:51:23Z</time>
      </trkpt>
      <trkpt lat="49.32084" lon="0.06985">
        <ele>13.2</ele>
        <time>2024-10-02T12:51:24Z</time>
      </trkpt>
      <trkpt lat="49.32078" lon="0.06992">
        <ele>13.2</ele>
        <time>2024-10-02T12:51:25Z</time>
      </trkpt>
      <trkpt lat="49.32073" lon="0.06997">
        <ele>13.4</ele>
        <time>2024-10-02T12:51:26Z</time>
      </trkpt>
      <trkpt lat="49.32067" lon="0.07003">
        <ele>13.4</ele>
        <time>2024-10-02T12:51:27Z</time>
      </trkpt>
      <trkpt lat="49.32062" lon="0.07007">
        <ele>13.4</ele>
        <time>2024-10-02T12:51:28Z</time>
      </trkpt>
      <trkpt lat="49.32055" lon="0.07013">
        <ele>13.4</ele>
        <time>2024-10-02T12:51:29Z</time>
      </trkpt>
      <trkpt lat="49.32049" lon="0.07019">
        <ele>13.4</ele>
        <time>2024-10-02T12:51:30Z</time>
      </trkpt>
      <trkpt lat="49.32044" lon="0.07023">
        <ele>13.4</ele>
        <time>2024-10-02T12:51:31Z</time>
      </trkpt>
      <trkpt lat="49.32038" lon="0.07028">
        <ele>13.6</ele>
        <time>2024-10-02T12:51:32Z</time>
      </trkpt>
      <trkpt lat="49.32033" lon="0.07033">
        <ele>13.8</ele>
        <time>2024-10-02T12:51:33Z</time>
      </trkpt>
      <trkpt lat="49.32028" lon="0.07038">
        <ele>14</ele>
        <time>2024-10-02T12:51:34Z</time>
      </trkpt>
      <trkpt lat="49.32022" lon="0.07043">
        <ele>14</ele>
        <time>2024-10-02T12:51:35Z</time>
      </trkpt>
      <trkpt lat="49.32017" lon="0.07048">
        <ele>14.2</ele>
        <time>2024-10-02T12:51:36Z</time>
      </trkpt>
      <trkpt lat="49.32012" lon="0.07054">
        <ele>14.2</ele>
        <time>2024-10-02T12:51:37Z</time>
      </trkpt>
      <trkpt lat="49.32006" lon="0.07059">
        <ele>14.6</ele>
        <time>2024-10-02T12:51:38Z</time>
      </trkpt>
      <trkpt lat="49.32001" lon="0.07065">
        <ele>14.8</ele>
        <time>2024-10-02T12:51:39Z</time>
      </trkpt>
      <trkpt lat="49.31996" lon="0.07071">
        <ele>15.2</ele>
        <time>2024-10-02T12:51:40Z</time>
      </trkpt>
      <trkpt lat="49.31991" lon="0.07078">
        <ele>15.4</ele>
        <time>2024-10-02T12:51:41Z</time>
      </trkpt>
      <trkpt lat="49.31986" lon="0.07084">
        <ele>15.6</ele>
        <time>2024-10-02T12:51:42Z</time>
      </trkpt>
      <trkpt lat="49.31981" lon="0.07089">
        <ele>15.8</ele>
        <time>2024-10-02T12:51:43Z</time>
      </trkpt>
      <trkpt lat="49.31974" lon="0.07098">
        <ele>16</ele>
        <time>2024-10-02T12:51:44Z</time>
      </trkpt>
      <trkpt lat="49.31969" lon="0.07105">
        <ele>16</ele>
        <time>2024-10-02T12:51:45Z</time>
      </trkpt>
      <trkpt lat="49.31964" lon="0.07111">
        <ele>16</ele>
        <time>2024-10-02T12:51:46Z</time>
      </trkpt>
      <trkpt lat="49.31959" lon="0.07117">
        <ele>16.2</ele>
        <time>2024-10-02T12:51:47Z</time>
      </trkpt>
      <trkpt lat="49.31953" lon="0.07124">
        <ele>16.2</ele>
        <time>2024-10-02T12:51:48Z</time>
      </trkpt>
      <trkpt lat="49.31948" lon="0.0713">
        <ele>16.2</ele>
        <time>2024-10-02T12:51:49Z</time>
      </trkpt>
      <trkpt lat="49.31942" lon="0.07136">
        <ele>16.2</ele>
        <time>2024-10-02T12:51:50Z</time>
      </trkpt>
      <trkpt lat="49.31937" lon="0.07142">
        <ele>16.2</ele>
        <time>2024-10-02T12:51:51Z</time>
      </trkpt>
      <trkpt lat="49.31931" lon="0.07148">
        <ele>16.4</ele>
        <time>2024-10-02T12:51:52Z</time>
      </trkpt>
      <trkpt lat="49.31925" lon="0.07153">
        <ele>16.4</ele>
        <time>2024-10-02T12:51:53Z</time>
      </trkpt>
      <trkpt lat="49.31919" lon="0.07159">
        <ele>16.4</ele>
        <time>2024-10-02T12:51:54Z</time>
      </trkpt>
      <trkpt lat="49.31914" lon="0.07165">
        <ele>16.6</ele>
        <time>2024-10-02T12:51:55Z</time>
      </trkpt>
      <trkpt lat="49.31908" lon="0.07171">
        <ele>16.6</ele>
        <time>2024-10-02T12:51:56Z</time>
      </trkpt>
      <trkpt lat="49.31902" lon="0.07177">
        <ele>16.8</ele>
        <time>2024-10-02T12:51:57Z</time>
      </trkpt>
      <trkpt lat="49.31896" lon="0.07183">
        <ele>16.8</ele>
        <time>2024-10-02T12:51:58Z</time>
      </trkpt>
      <trkpt lat="49.31891" lon="0.07188">
        <ele>16.8</ele>
        <time>2024-10-02T12:51:59Z</time>
      </trkpt>
      <trkpt lat="49.31885" lon="0.07194">
        <ele>17</ele>
        <time>2024-10-02T12:52:00Z</time>
      </trkpt>
      <trkpt lat="49.31878" lon="0.07199">
        <ele>17.2</ele>
        <time>2024-10-02T12:52:01Z</time>
      </trkpt>
      <trkpt lat="49.31872" lon="0.07205">
        <ele>17.2</ele>
        <time>2024-10-02T12:52:02Z</time>
      </trkpt>
      <trkpt lat="49.31867" lon="0.0721">
        <ele>17.4</ele>
        <time>2024-10-02T12:52:03Z</time>
      </trkpt>
      <trkpt lat="49.31862" lon="0.07214">
        <ele>17.4</ele>
        <time>2024-10-02T12:52:04Z</time>
      </trkpt>
      <trkpt lat="49.31857" lon="0.0722">
        <ele>17.4</ele>
        <time>2024-10-02T12:52:05Z</time>
      </trkpt>
      <trkpt lat="49.3185" lon="0.07226">
        <ele>17.6</ele>
        <time>2024-10-02T12:52:06Z</time>
      </trkpt>
      <trkpt lat="49.31844" lon="0.07231">
        <ele>17.6</ele>
        <time>2024-10-02T12:52:07Z</time>
      </trkpt>
      <trkpt lat="49.31838" lon="0.07235">
        <ele>17.8</ele>
        <time>2024-10-02T12:52:08Z</time>
      </trkpt>
      <trkpt lat="49.31832" lon="0.07239">
        <ele>18</ele>
        <time>2024-10-02T12:52:09Z</time>
      </trkpt>
      <trkpt lat="49.31826" lon="0.07244">
        <ele>18</ele>
        <time>2024-10-02T12:52:10Z</time>
      </trkpt>
      <trkpt lat="49.3182" lon="0.07249">
        <ele>18</ele>
        <time>2024-10-02T12:52:11Z</time>
      </trkpt>
      <trkpt lat="49.31813" lon="0.07255">
        <ele>18.2</ele>
        <time>2024-10-02T12:52:12Z</time>
      </trkpt>
      <trkpt lat="49.31807" lon="0.0726">
        <ele>18.4</ele>
        <time>2024-10-02T12:52:13Z</time>
      </trkpt>
      <trkpt lat="49.318" lon="0.07265">
        <ele>18.6</ele>
        <time>2024-10-02T12:52:14Z</time>
      </trkpt>
      <trkpt lat="49.31795" lon="0.07271">
        <ele>18.6</ele>
        <time>2024-10-02T12:52:15Z</time>
      </trkpt>
      <trkpt lat="49.31789" lon="0.07277">
        <ele>18.8</ele>
        <time>2024-10-02T12:52:16Z</time>
      </trkpt>
      <trkpt lat="49.31783" lon="0.07284">
        <ele>18.8</ele>
        <time>2024-10-02T12:52:17Z</time>
      </trkpt>
      <trkpt lat="49.31777" lon="0.0729">
        <ele>18.8</ele>
        <time>2024-10-02T12:52:18Z</time>
      </trkpt>
      <trkpt lat="49.31771" lon="0.07295">
        <ele>18.8</ele>
        <time>2024-10-02T12:52:19Z</time>
      </trkpt>
      <trkpt lat="49.31766" lon="0.073">
        <ele>18.8</ele>
        <time>2024-10-02T12:52:20Z</time>
      </trkpt>
      <trkpt lat="49.3176" lon="0.07305">
        <ele>19</ele>
        <time>2024-10-02T12:52:21Z</time>
      </trkpt>
      <trkpt lat="49.31755" lon="0.07309">
        <ele>19</ele>
        <time>2024-10-02T12:52:22Z</time>
      </trkpt>
      <trkpt lat="49.3175" lon="0.07313">
        <ele>19</ele>
        <time>2024-10-02T12:52:23Z</time>
      </trkpt>
      <trkpt lat="49.31746" lon="0.07317">
        <ele>19</ele>
        <time>2024-10-02T12:52:24Z</time>
      </trkpt>
      <trkpt lat="49.31743" lon="0.0732">
        <ele>19.2</ele>
        <time>2024-10-02T12:52:25Z</time>
      </trkpt>
      <trkpt lat="49.31739" lon="0.07323">
        <ele>19.2</ele>
        <time>2024-10-02T12:52:26Z</time>
      </trkpt>
      <trkpt lat="49.31734" lon="0.07326">
        <ele>19.2</ele>
        <time>2024-10-02T12:52:27Z</time>
      </trkpt>
      <trkpt lat="49.31729" lon="0.0733">
        <ele>19.2</ele>
        <time>2024-10-02T12:52:28Z</time>
      </trkpt>
      <trkpt lat="49.31724" lon="0.07336">
        <ele>19.4</ele>
        <time>2024-10-02T12:52:29Z</time>
      </trkpt>
      <trkpt lat="49.31719" lon="0.07341">
        <ele>19.4</ele>
        <time>2024-10-02T12:52:30Z</time>
      </trkpt>
      <trkpt lat="49.31714" lon="0.07346">
        <ele>19.6</ele>
        <time>2024-10-02T12:52:31Z</time>
      </trkpt>
      <trkpt lat="49.31708" lon="0.0735">
        <ele>19.8</ele>
        <time>2024-10-02T12:52:32Z</time>
      </trkpt>
      <trkpt lat="49.31702" lon="0.07355">
        <ele>19.8</ele>
        <time>2024-10-02T12:52:33Z</time>
      </trkpt>
      <trkpt lat="49.31695" lon="0.07358">
        <ele>19.8</ele>
        <time>2024-10-02T12:52:34Z</time>
      </trkpt>
      <trkpt lat="49.31688" lon="0.07362">
        <ele>19.8</ele>
        <time>2024-10-02T12:52:35Z</time>
      </trkpt>
      <trkpt lat="49.31681" lon="0.07367">
        <ele>20</ele>
        <time>2024-10-02T12:52:36Z</time>
      </trkpt>
      <trkpt lat="49.31675" lon="0.07372">
        <ele>20</ele>
        <time>2024-10-02T12:52:37Z</time>
      </trkpt>
      <trkpt lat="49.31668" lon="0.07377">
        <ele>20</ele>
        <time>2024-10-02T12:52:38Z</time>
      </trkpt>
      <trkpt lat="49.31662" lon="0.07383">
        <ele>20</ele>
        <time>2024-10-02T12:52:39Z</time>
      </trkpt>
      <trkpt lat="49.31656" lon="0.07389">
        <ele>20</ele>
        <time>2024-10-02T12:52:40Z</time>
      </trkpt>
      <trkpt lat="49.3165" lon="0.07394">
        <ele>20</ele>
        <time>2024-10-02T12:52:41Z</time>
      </trkpt>
      <trkpt lat="49.31644" lon="0.07401">
        <ele>20</ele>
        <time>2024-10-02T12:52:42Z</time>
      </trkpt>
      <trkpt lat="49.31638" lon="0.07408">
        <ele>20</ele>
        <time>2024-10-02T12:52:43Z</time>
      </trkpt>
      <trkpt lat="49.31632" lon="0.07415">
        <ele>20</ele>
        <time>2024-10-02T12:52:44Z</time>
      </trkpt>
      <trkpt lat="49.31627" lon="0.07421">
        <ele>20.2</ele>
        <time>2024-10-02T12:52:45Z</time>
      </trkpt>
      <trkpt lat="49.31621" lon="0.07428">
        <ele>20.2</ele>
        <time>2024-10-02T12:52:46Z</time>
      </trkpt>
      <trkpt lat="49.31616" lon="0.07435">
        <ele>20.2</ele>
        <time>2024-10-02T12:52:47Z</time>
      </trkpt>
      <trkpt lat="49.31611" lon="0.07441">
        <ele>20.2</ele>
        <time>2024-10-02T12:52:48Z</time>
      </trkpt>
      <trkpt lat="49.31606" lon="0.07448">
        <ele>20.4</ele>
        <time>2024-10-02T12:52:49Z</time>
      </trkpt>
      <trkpt lat="49.31599" lon="0.07456">
        <ele>20.4</ele>
        <time>2024-10-02T12:52:50Z</time>
      </trkpt>
      <trkpt lat="49.31593" lon="0.07463">
        <ele>20.4</ele>
        <time>2024-10-02T12:52:51Z</time>
      </trkpt>
      <trkpt lat="49.31587" lon="0.0747">
        <ele>20.4</ele>
        <time>2024-10-02T12:52:52Z</time>
      </trkpt>
      <trkpt lat="49.31579" lon="0.07477">
        <ele>20.6</ele>
        <time>2024-10-02T12:52:53Z</time>
      </trkpt>
      <trkpt lat="49.31573" lon="0.07485">
        <ele>21</ele>
        <time>2024-10-02T12:52:54Z</time>
      </trkpt>
      <trkpt lat="49.31566" lon="0.07492">
        <ele>21.2</ele>
        <time>2024-10-02T12:52:55Z</time>
      </trkpt>
      <trkpt lat="49.31561" lon="0.07499">
        <ele>21.6</ele>
        <time>2024-10-02T12:52:56Z</time>
      </trkpt>
      <trkpt lat="49.31555" lon="0.07505">
        <ele>21.6</ele>
        <time>2024-10-02T12:52:57Z</time>
      </trkpt>
      <trkpt lat="49.31549" lon="0.07512">
        <ele>21.8</ele>
        <time>2024-10-02T12:52:58Z</time>
      </trkpt>
      <trkpt lat="49.31542" lon="0.07518">
        <ele>21.8</ele>
        <time>2024-10-02T12:52:59Z</time>
      </trkpt>
      <trkpt lat="49.31535" lon="0.07524">
        <ele>21.8</ele>
        <time>2024-10-02T12:53:00Z</time>
      </trkpt>
      <trkpt lat="49.31529" lon="0.07532">
        <ele>22</ele>
        <time>2024-10-02T12:53:01Z</time>
      </trkpt>
      <trkpt lat="49.31523" lon="0.0754">
        <ele>22</ele>
        <time>2024-10-02T12:53:02Z</time>
      </trkpt>
      <trkpt lat="49.31518" lon="0.07549">
        <ele>22.2</ele>
        <time>2024-10-02T12:53:03Z</time>
      </trkpt>
      <trkpt lat="49.31513" lon="0.07557">
        <ele>22.2</ele>
        <time>2024-10-02T12:53:04Z</time>
      </trkpt>
      <trkpt lat="49.31508" lon="0.07565">
        <ele>22.4</ele>
        <time>2024-10-02T12:53:05Z</time>
      </trkpt>
      <trkpt lat="49.31502" lon="0.07573">
        <ele>22.6</ele>
        <time>2024-10-02T12:53:06Z</time>
      </trkpt>
      <trkpt lat="49.31496" lon="0.07582">
        <ele>22.6</ele>
        <time>2024-10-02T12:53:07Z</time>
      </trkpt>
      <trkpt lat="49.3149" lon="0.07591">
        <ele>22.8</ele>
        <time>2024-10-02T12:53:08Z</time>
      </trkpt>
      <trkpt lat="49.31484" lon="0.076">
        <ele>22.8</ele>
        <time>2024-10-02T12:53:09Z</time>
      </trkpt>
      <trkpt lat="49.31479" lon="0.07608">
        <ele>23</ele>
        <time>2024-10-02T12:53:10Z</time>
      </trkpt>
      <trkpt lat="49.31473" lon="0.07616">
        <ele>23</ele>
        <time>2024-10-02T12:53:11Z</time>
      </trkpt>
      <trkpt lat="49.31467" lon="0.07624">
        <ele>23</ele>
        <time>2024-10-02T12:53:12Z</time>
      </trkpt>
      <trkpt lat="49.31461" lon="0.07632">
        <ele>23</ele>
        <time>2024-10-02T12:53:13Z</time>
      </trkpt>
      <trkpt lat="49.31455" lon="0.0764">
        <ele>23.2</ele>
        <time>2024-10-02T12:53:14Z</time>
      </trkpt>
      <trkpt lat="49.3145" lon="0.07648">
        <ele>23.2</ele>
        <time>2024-10-02T12:53:15Z</time>
      </trkpt>
      <trkpt lat="49.31444" lon="0.07656">
        <ele>23.2</ele>
        <time>2024-10-02T12:53:16Z</time>
      </trkpt>
      <trkpt lat="49.31438" lon="0.07663">
        <ele>23.2</ele>
        <time>2024-10-02T12:53:17Z</time>
      </trkpt>
      <trkpt lat="49.31433" lon="0.07671">
        <ele>23.2</ele>
        <time>2024-10-02T12:53:18Z</time>
      </trkpt>
      <trkpt lat="49.31427" lon="0.07679">
        <ele>23.2</ele>
        <time>2024-10-02T12:53:19Z</time>
      </trkpt>
      <trkpt lat="49.31421" lon="0.07687">
        <ele>23.2</ele>
        <time>2024-10-02T12:53:20Z</time>
      </trkpt>
      <trkpt lat="49.31416" lon="0.07695">
        <ele>23.2</ele>
        <time>2024-10-02T12:53:21Z</time>
      </trkpt>
      <trkpt lat="49.31411" lon="0.07704">
        <ele>23.4</ele>
        <time>2024-10-02T12:53:22Z</time>
      </trkpt>
      <trkpt lat="49.31406" lon="0.07713">
        <ele>23.8</ele>
        <time>2024-10-02T12:53:23Z</time>
      </trkpt>
      <trkpt lat="49.31402" lon="0.07723">
        <ele>24</ele>
        <time>2024-10-02T12:53:24Z</time>
      </trkpt>
      <trkpt lat="49.31398" lon="0.0773">
        <ele>24.2</ele>
        <time>2024-10-02T12:53:25Z</time>
      </trkpt>
      <trkpt lat="49.31393" lon="0.07742">
        <ele>24.4</ele>
        <time>2024-10-02T12:53:26Z</time>
      </trkpt>
      <trkpt lat="49.31389" lon="0.07752">
        <ele>24.4</ele>
        <time>2024-10-02T12:53:27Z</time>
      </trkpt>
      <trkpt lat="49.31385" lon="0.0776">
        <ele>24.6</ele>
        <time>2024-10-02T12:53:28Z</time>
      </trkpt>
      <trkpt lat="49.3138" lon="0.07772">
        <ele>24.6</ele>
        <time>2024-10-02T12:53:29Z</time>
      </trkpt>
      <trkpt lat="49.31376" lon="0.07782">
        <ele>24.6</ele>
        <time>2024-10-02T12:53:30Z</time>
      </trkpt>
      <trkpt lat="49.31373" lon="0.07789">
        <ele>24.8</ele>
        <time>2024-10-02T12:53:31Z</time>
      </trkpt>
      <trkpt lat="49.31369" lon="0.07799">
        <ele>24.8</ele>
        <time>2024-10-02T12:53:32Z</time>
      </trkpt>
      <trkpt lat="49.31364" lon="0.0781">
        <ele>24.8</ele>
        <time>2024-10-02T12:53:33Z</time>
      </trkpt>
      <trkpt lat="49.3136" lon="0.0782">
        <ele>25</ele>
        <time>2024-10-02T12:53:34Z</time>
      </trkpt>
      <trkpt lat="49.31357" lon="0.07828">
        <ele>25</ele>
        <time>2024-10-02T12:53:35Z</time>
      </trkpt>
      <trkpt lat="49.31352" lon="0.07839">
        <ele>25</ele>
        <time>2024-10-02T12:53:36Z</time>
      </trkpt>
      <trkpt lat="49.31348" lon="0.07848">
        <ele>25</ele>
        <time>2024-10-02T12:53:37Z</time>
      </trkpt>
      <trkpt lat="49.31344" lon="0.07858">
        <ele>25.2</ele>
        <time>2024-10-02T12:53:38Z</time>
      </trkpt>
      <trkpt lat="49.31341" lon="0.07867">
        <ele>25.2</ele>
        <time>2024-10-02T12:53:39Z</time>
      </trkpt>
      <trkpt lat="49.31336" lon="0.07876">
        <ele>25.4</ele>
        <time>2024-10-02T12:53:40Z</time>
      </trkpt>
      <trkpt lat="49.31333" lon="0.07886">
        <ele>25.4</ele>
        <time>2024-10-02T12:53:41Z</time>
      </trkpt>
      <trkpt lat="49.31329" lon="0.07895">
        <ele>25.8</ele>
        <time>2024-10-02T12:53:42Z</time>
      </trkpt>
      <trkpt lat="49.31326" lon="0.07905">
        <ele>26</ele>
        <time>2024-10-02T12:53:43Z</time>
      </trkpt>
      <trkpt lat="49.31322" lon="0.07915">
        <ele>26</ele>
        <time>2024-10-02T12:53:44Z</time>
      </trkpt>
      <trkpt lat="49.31319" lon="0.07925">
        <ele>26.2</ele>
        <time>2024-10-02T12:53:45Z</time>
      </trkpt>
      <trkpt lat="49.31315" lon="0.07935">
        <ele>26.2</ele>
        <time>2024-10-02T12:53:46Z</time>
      </trkpt>
      <trkpt lat="49.31311" lon="0.07944">
        <ele>26.2</ele>
        <time>2024-10-02T12:53:47Z</time>
      </trkpt>
      <trkpt lat="49.31307" lon="0.07954">
        <ele>26.4</ele>
        <time>2024-10-02T12:53:48Z</time>
      </trkpt>
      <trkpt lat="49.31304" lon="0.07961">
        <ele>26.6</ele>
        <time>2024-10-02T12:53:49Z</time>
      </trkpt>
      <trkpt lat="49.313" lon="0.07973">
        <ele>26.8</ele>
        <time>2024-10-02T12:53:50Z</time>
      </trkpt>
      <trkpt lat="49.31296" lon="0.07983">
        <ele>27</ele>
        <time>2024-10-02T12:53:51Z</time>
      </trkpt>
      <trkpt lat="49.31293" lon="0.0799">
        <ele>27.2</ele>
        <time>2024-10-02T12:53:52Z</time>
      </trkpt>
      <trkpt lat="49.31289" lon="0.08001">
        <ele>27.2</ele>
        <time>2024-10-02T12:53:53Z</time>
      </trkpt>
      <trkpt lat="49.31284" lon="0.08013">
        <ele>27.2</ele>
        <time>2024-10-02T12:53:54Z</time>
      </trkpt>
      <trkpt lat="49.31282" lon="0.08022">
        <ele>27.4</ele>
        <time>2024-10-02T12:53:55Z</time>
      </trkpt>
      <trkpt lat="49.31278" lon="0.08034">
        <ele>27.4</ele>
        <time>2024-10-02T12:53:56Z</time>
      </trkpt>
      <trkpt lat="49.31275" lon="0.08045">
        <ele>27.4</ele>
        <time>2024-10-02T12:53:57Z</time>
      </trkpt>
      <trkpt lat="49.31272" lon="0.08053">
        <ele>27.4</ele>
        <time>2024-10-02T12:53:58Z</time>
      </trkpt>
      <trkpt lat="49.31269" lon="0.08065">
        <ele>27.4</ele>
        <time>2024-10-02T12:53:59Z</time>
      </trkpt>
      <trkpt lat="49.31265" lon="0.08075">
        <ele>27.4</ele>
        <time>2024-10-02T12:54:00Z</time>
      </trkpt>
      <trkpt lat="49.31262" lon="0.08083">
        <ele>27.4</ele>
        <time>2024-10-02T12:54:01Z</time>
      </trkpt>
      <trkpt lat="49.31257" lon="0.08096">
        <ele>27.4</ele>
        <time>2024-10-02T12:54:02Z</time>
      </trkpt>
      <trkpt lat="49.31252" lon="0.08106">
        <ele>27.4</ele>
        <time>2024-10-02T12:54:03Z</time>
      </trkpt>
      <trkpt lat="49.31248" lon="0.08114">
        <ele>27.4</ele>
        <time>2024-10-02T12:54:04Z</time>
      </trkpt>
      <trkpt lat="49.31243" lon="0.08126">
        <ele>27.2</ele>
        <time>2024-10-02T12:54:05Z</time>
      </trkpt>
      <trkpt lat="49.31238" lon="0.08136">
        <ele>27.2</ele>
        <time>2024-10-02T12:54:06Z</time>
      </trkpt>
      <trkpt lat="49.31234" lon="0.08145">
        <ele>27.2</ele>
        <time>2024-10-02T12:54:07Z</time>
      </trkpt>
      <trkpt lat="49.31229" lon="0.08154">
        <ele>27.2</ele>
        <time>2024-10-02T12:54:08Z</time>
      </trkpt>
      <trkpt lat="49.31224" lon="0.08163">
        <ele>27.2</ele>
        <time>2024-10-02T12:54:09Z</time>
      </trkpt>
      <trkpt lat="49.31219" lon="0.08172">
        <ele>27.2</ele>
        <time>2024-10-02T12:54:10Z</time>
      </trkpt>
      <trkpt lat="49.31214" lon="0.08181">
        <ele>27</ele>
        <time>2024-10-02T12:54:11Z</time>
      </trkpt>
      <trkpt lat="49.31208" lon="0.08191">
        <ele>27</ele>
        <time>2024-10-02T12:54:12Z</time>
      </trkpt>
      <trkpt lat="49.31203" lon="0.08198">
        <ele>27</ele>
        <time>2024-10-02T12:54:13Z</time>
      </trkpt>
      <trkpt lat="49.31198" lon="0.08208">
        <ele>27</ele>
        <time>2024-10-02T12:54:14Z</time>
      </trkpt>
      <trkpt lat="49.31192" lon="0.0822">
        <ele>26.8</ele>
        <time>2024-10-02T12:54:15Z</time>
      </trkpt>
      <trkpt lat="49.31186" lon="0.0823">
        <ele>26.8</ele>
        <time>2024-10-02T12:54:16Z</time>
      </trkpt>
      <trkpt lat="49.3118" lon="0.08241">
        <ele>26.6</ele>
        <time>2024-10-02T12:54:17Z</time>
      </trkpt>
      <trkpt lat="49.31175" lon="0.08251">
        <ele>26.6</ele>
        <time>2024-10-02T12:54:18Z</time>
      </trkpt>
      <trkpt lat="49.3117" lon="0.0826">
        <ele>26.4</ele>
        <time>2024-10-02T12:54:19Z</time>
      </trkpt>
      <trkpt lat="49.31164" lon="0.08273">
        <ele>26.2</ele>
        <time>2024-10-02T12:54:20Z</time>
      </trkpt>
      <trkpt lat="49.3116" lon="0.08284">
        <ele>26</ele>
        <time>2024-10-02T12:54:21Z</time>
      </trkpt>
      <trkpt lat="49.31155" lon="0.08292">
        <ele>26</ele>
        <time>2024-10-02T12:54:22Z</time>
      </trkpt>
      <trkpt lat="49.31149" lon="0.08304">
        <ele>25.8</ele>
        <time>2024-10-02T12:54:23Z</time>
      </trkpt>
      <trkpt lat="49.31144" lon="0.08314">
        <ele>25.2</ele>
        <time>2024-10-02T12:54:24Z</time>
      </trkpt>
      <trkpt lat="49.3114" lon="0.08321">
        <ele>25</ele>
        <time>2024-10-02T12:54:25Z</time>
      </trkpt>
      <trkpt lat="49.31134" lon="0.08331">
        <ele>24.8</ele>
        <time>2024-10-02T12:54:26Z</time>
      </trkpt>
      <trkpt lat="49.3113" lon="0.08338">
        <ele>24.8</ele>
        <time>2024-10-02T12:54:27Z</time>
      </trkpt>
      <trkpt lat="49.31126" lon="0.08344">
        <ele>24.8</ele>
        <time>2024-10-02T12:54:28Z</time>
      </trkpt>
      <trkpt lat="49.31122" lon="0.08351">
        <ele>24.6</ele>
        <time>2024-10-02T12:54:29Z</time>
      </trkpt>
      <trkpt lat="49.31119" lon="0.08357">
        <ele>24.6</ele>
        <time>2024-10-02T12:54:30Z</time>
      </trkpt>
      <trkpt lat="49.31116" lon="0.08362">
        <ele>24.6</ele>
        <time>2024-10-02T12:54:31Z</time>
      </trkpt>
      <trkpt lat="49.31112" lon="0.08369">
        <ele>24.6</ele>
        <time>2024-10-02T12:54:32Z</time>
      </trkpt>
      <trkpt lat="49.31109" lon="0.08374">
        <ele>24.6</ele>
        <time>2024-10-02T12:54:33Z</time>
      </trkpt>
      <trkpt lat="49.31107" lon="0.08377">
        <ele>24.6</ele>
        <time>2024-10-02T12:54:34Z</time>
      </trkpt>
      <trkpt lat="49.31105" lon="0.08381">
        <ele>25</ele>
        <time>2024-10-02T12:54:35Z</time>
      </trkpt>
      <trkpt lat="49.31104" lon="0.08384">
        <ele>25.2</ele>
        <time>2024-10-02T12:54:36Z</time>
      </trkpt>
      <trkpt lat="49.31102" lon="0.08387">
        <ele>25.4</ele>
        <time>2024-10-02T12:54:37Z</time>
      </trkpt>
      <trkpt lat="49.31101" lon="0.08391">
        <ele>25.8</ele>
        <time>2024-10-02T12:54:38Z</time>
      </trkpt>
      <trkpt lat="49.31098" lon="0.08394">
        <ele>26</ele>
        <time>2024-10-02T12:54:39Z</time>
      </trkpt>
      <trkpt lat="49.31096" lon="0.08399">
        <ele>26.4</ele>
        <time>2024-10-02T12:54:40Z</time>
      </trkpt>
      <trkpt lat="49.31093" lon="0.08405">
        <ele>26.6</ele>
        <time>2024-10-02T12:54:41Z</time>
      </trkpt>
      <trkpt lat="49.3109" lon="0.08411">
        <ele>26.8</ele>
        <time>2024-10-02T12:54:42Z</time>
      </trkpt>
      <trkpt lat="49.31088" lon="0.08416">
        <ele>26.8</ele>
        <time>2024-10-02T12:54:43Z</time>
      </trkpt>
      <trkpt lat="49.31085" lon="0.08423">
        <ele>26.8</ele>
        <time>2024-10-02T12:54:44Z</time>
      </trkpt>
      <trkpt lat="49.31082" lon="0.08428">
        <ele>27</ele>
        <time>2024-10-02T12:54:45Z</time>
      </trkpt>
      <trkpt lat="49.31078" lon="0.08434">
        <ele>27</ele>
        <time>2024-10-02T12:54:46Z</time>
      </trkpt>
      <trkpt lat="49.31075" lon="0.08439">
        <ele>27</ele>
        <time>2024-10-02T12:54:47Z</time>
      </trkpt>
      <trkpt lat="49.31071" lon="0.08445">
        <ele>27.2</ele>
        <time>2024-10-02T12:54:48Z</time>
      </trkpt>
      <trkpt lat="49.31067" lon="0.08452">
        <ele>27.2</ele>
        <time>2024-10-02T12:54:49Z</time>
      </trkpt>
      <trkpt lat="49.31063" lon="0.08459">
        <ele>27.2</ele>
        <time>2024-10-02T12:54:50Z</time>
      </trkpt>
      <trkpt lat="49.3106" lon="0.08464">
        <ele>27.2</ele>
        <time>2024-10-02T12:54:51Z</time>
      </trkpt>
      <trkpt lat="49.31055" lon="0.08473">
        <ele>27.4</ele>
        <time>2024-10-02T12:54:52Z</time>
      </trkpt>
      <trkpt lat="49.31052" lon="0.0848">
        <ele>27.4</ele>
        <time>2024-10-02T12:54:53Z</time>
      </trkpt>
      <trkpt lat="49.31049" lon="0.08487">
        <ele>27.4</ele>
        <time>2024-10-02T12:54:54Z</time>
      </trkpt>
      <trkpt lat="49.31045" lon="0.08495">
        <ele>27.4</ele>
        <time>2024-10-02T12:54:55Z</time>
      </trkpt>
      <trkpt lat="49.3104" lon="0.08505">
        <ele>27.4</ele>
        <time>2024-10-02T12:54:56Z</time>
      </trkpt>
      <trkpt lat="49.31037" lon="0.08512">
        <ele>27.4</ele>
        <time>2024-10-02T12:54:57Z</time>
      </trkpt>
      <trkpt lat="49.31032" lon="0.08521">
        <ele>27.4</ele>
        <time>2024-10-02T12:54:58Z</time>
      </trkpt>
      <trkpt lat="49.31027" lon="0.08529">
        <ele>27.4</ele>
        <time>2024-10-02T12:54:59Z</time>
      </trkpt>
      <trkpt lat="49.31024" lon="0.08535">
        <ele>27.4</ele>
        <time>2024-10-02T12:55:00Z</time>
      </trkpt>
      <trkpt lat="49.31019" lon="0.08545">
        <ele>27.4</ele>
        <time>2024-10-02T12:55:01Z</time>
      </trkpt>
      <trkpt lat="49.31015" lon="0.08553">
        <ele>27.4</ele>
        <time>2024-10-02T12:55:02Z</time>
      </trkpt>
      <trkpt lat="49.31011" lon="0.08559">
        <ele>27.6</ele>
        <time>2024-10-02T12:55:03Z</time>
      </trkpt>
      <trkpt lat="49.31006" lon="0.08568">
        <ele>27.6</ele>
        <time>2024-10-02T12:55:04Z</time>
      </trkpt>
      <trkpt lat="49.31002" lon="0.08575">
        <ele>27.6</ele>
        <time>2024-10-02T12:55:05Z</time>
      </trkpt>
      <trkpt lat="49.30999" lon="0.08581">
        <ele>27.6</ele>
        <time>2024-10-02T12:55:06Z</time>
      </trkpt>
      <trkpt lat="49.30994" lon="0.0859">
        <ele>27.6</ele>
        <time>2024-10-02T12:55:07Z</time>
      </trkpt>
      <trkpt lat="49.3099" lon="0.08596">
        <ele>27.8</ele>
        <time>2024-10-02T12:55:08Z</time>
      </trkpt>
      <trkpt lat="49.30986" lon="0.08601">
        <ele>27.8</ele>
        <time>2024-10-02T12:55:09Z</time>
      </trkpt>
      <trkpt lat="49.30981" lon="0.08608">
        <ele>27.8</ele>
        <time>2024-10-02T12:55:10Z</time>
      </trkpt>
      <trkpt lat="49.30977" lon="0.08614">
        <ele>27.8</ele>
        <time>2024-10-02T12:55:11Z</time>
      </trkpt>
      <trkpt lat="49.30974" lon="0.08619">
        <ele>27.8</ele>
        <time>2024-10-02T12:55:12Z</time>
      </trkpt>
      <trkpt lat="49.30969" lon="0.08626">
        <ele>28</ele>
        <time>2024-10-02T12:55:13Z</time>
      </trkpt>
      <trkpt lat="49.30964" lon="0.08632">
        <ele>28.2</ele>
        <time>2024-10-02T12:55:14Z</time>
      </trkpt>
      <trkpt lat="49.30961" lon="0.08637">
        <ele>28.4</ele>
        <time>2024-10-02T12:55:15Z</time>
      </trkpt>
      <trkpt lat="49.30956" lon="0.08643">
        <ele>28.6</ele>
        <time>2024-10-02T12:55:16Z</time>
      </trkpt>
      <trkpt lat="49.30952" lon="0.08649">
        <ele>29</ele>
        <time>2024-10-02T12:55:17Z</time>
      </trkpt>
      <trkpt lat="49.30949" lon="0.08653">
        <ele>29.2</ele>
        <time>2024-10-02T12:55:18Z</time>
      </trkpt>
      <trkpt lat="49.30944" lon="0.08658">
        <ele>29.8</ele>
        <time>2024-10-02T12:55:19Z</time>
      </trkpt>
      <trkpt lat="49.3094" lon="0.08663">
        <ele>30</ele>
        <time>2024-10-02T12:55:20Z</time>
      </trkpt>
      <trkpt lat="49.30936" lon="0.08667">
        <ele>30.4</ele>
        <time>2024-10-02T12:55:21Z</time>
      </trkpt>
      <trkpt lat="49.30932" lon="0.08673">
        <ele>30.4</ele>
        <time>2024-10-02T12:55:22Z</time>
      </trkpt>
      <trkpt lat="49.30929" lon="0.08678">
        <ele>30.6</ele>
        <time>2024-10-02T12:55:23Z</time>
      </trkpt>
      <trkpt lat="49.30925" lon="0.08682">
        <ele>30.8</ele>
        <time>2024-10-02T12:55:24Z</time>
      </trkpt>
      <trkpt lat="49.3092" lon="0.0869">
        <ele>30.8</ele>
        <time>2024-10-02T12:55:25Z</time>
      </trkpt>
      <trkpt lat="49.30916" lon="0.08696">
        <ele>31</ele>
        <time>2024-10-02T12:55:26Z</time>
      </trkpt>
      <trkpt lat="49.30912" lon="0.087">
        <ele>31.4</ele>
        <time>2024-10-02T12:55:27Z</time>
      </trkpt>
      <trkpt lat="49.30907" lon="0.08708">
        <ele>31.8</ele>
        <time>2024-10-02T12:55:28Z</time>
      </trkpt>
      <trkpt lat="49.30904" lon="0.08714">
        <ele>32.4</ele>
        <time>2024-10-02T12:55:29Z</time>
      </trkpt>
      <trkpt lat="49.309" lon="0.08718">
        <ele>32.6</ele>
        <time>2024-10-02T12:55:30Z</time>
      </trkpt>
      <trkpt lat="49.30896" lon="0.08725">
        <ele>33.2</ele>
        <time>2024-10-02T12:55:31Z</time>
      </trkpt>
      <trkpt lat="49.30892" lon="0.08731">
        <ele>33.6</ele>
        <time>2024-10-02T12:55:32Z</time>
      </trkpt>
      <trkpt lat="49.3089" lon="0.08735">
        <ele>34</ele>
        <time>2024-10-02T12:55:33Z</time>
      </trkpt>
      <trkpt lat="49.30885" lon="0.08742">
        <ele>34.2</ele>
        <time>2024-10-02T12:55:34Z</time>
      </trkpt>
      <trkpt lat="49.30881" lon="0.08747">
        <ele>34.6</ele>
        <time>2024-10-02T12:55:35Z</time>
      </trkpt>
      <trkpt lat="49.30878" lon="0.08752">
        <ele>35</ele>
        <time>2024-10-02T12:55:36Z</time>
      </trkpt>
      <trkpt lat="49.30873" lon="0.08758">
        <ele>35.2</ele>
        <time>2024-10-02T12:55:37Z</time>
      </trkpt>
      <trkpt lat="49.30869" lon="0.08763">
        <ele>35.4</ele>
        <time>2024-10-02T12:55:38Z</time>
      </trkpt>
      <trkpt lat="49.30866" lon="0.08766">
        <ele>35.6</ele>
        <time>2024-10-02T12:55:39Z</time>
      </trkpt>
      <trkpt lat="49.30862" lon="0.08771">
        <ele>36</ele>
        <time>2024-10-02T12:55:40Z</time>
      </trkpt>
      <trkpt lat="49.30858" lon="0.08776">
        <ele>36.2</ele>
        <time>2024-10-02T12:55:41Z</time>
      </trkpt>
      <trkpt lat="49.30853" lon="0.08781">
        <ele>36.4</ele>
        <time>2024-10-02T12:55:42Z</time>
      </trkpt>
      <trkpt lat="49.30847" lon="0.08786">
        <ele>36.6</ele>
        <time>2024-10-02T12:55:43Z</time>
      </trkpt>
      <trkpt lat="49.30843" lon="0.08791">
        <ele>37</ele>
        <time>2024-10-02T12:55:44Z</time>
      </trkpt>
      <trkpt lat="49.30839" lon="0.08795">
        <ele>37.4</ele>
        <time>2024-10-02T12:55:45Z</time>
      </trkpt>
      <trkpt lat="49.30833" lon="0.088">
        <ele>37.4</ele>
        <time>2024-10-02T12:55:46Z</time>
      </trkpt>
      <trkpt lat="49.30828" lon="0.08805">
        <ele>37.8</ele>
        <time>2024-10-02T12:55:47Z</time>
      </trkpt>
      <trkpt lat="49.30824" lon="0.08809">
        <ele>38</ele>
        <time>2024-10-02T12:55:48Z</time>
      </trkpt>
      <trkpt lat="49.30818" lon="0.08816">
        <ele>38.4</ele>
        <time>2024-10-02T12:55:49Z</time>
      </trkpt>
      <trkpt lat="49.30813" lon="0.08823">
        <ele>38.8</ele>
        <time>2024-10-02T12:55:50Z</time>
      </trkpt>
      <trkpt lat="49.30809" lon="0.08828">
        <ele>38.8</ele>
        <time>2024-10-02T12:55:51Z</time>
      </trkpt>
      <trkpt lat="49.30804" lon="0.08839">
        <ele>39</ele>
        <time>2024-10-02T12:55:52Z</time>
      </trkpt>
      <trkpt lat="49.30802" lon="0.08847">
        <ele>39</ele>
        <time>2024-10-02T12:55:53Z</time>
      </trkpt>
      <trkpt lat="49.308" lon="0.0886">
        <ele>39</ele>
        <time>2024-10-02T12:55:54Z</time>
      </trkpt>
      <trkpt lat="49.30799" lon="0.08871">
        <ele>39</ele>
        <time>2024-10-02T12:55:55Z</time>
      </trkpt>
      <trkpt lat="49.30798" lon="0.08881">
        <ele>39</ele>
        <time>2024-10-02T12:55:56Z</time>
      </trkpt>
      <trkpt lat="49.30798" lon="0.08895">
        <ele>39</ele>
        <time>2024-10-02T12:55:57Z</time>
      </trkpt>
      <trkpt lat="49.30798" lon="0.08907">
        <ele>39</ele>
        <time>2024-10-02T12:55:58Z</time>
      </trkpt>
      <trkpt lat="49.30799" lon="0.08917">
        <ele>39</ele>
        <time>2024-10-02T12:55:59Z</time>
      </trkpt>
      <trkpt lat="49.30799" lon="0.08932">
        <ele>39</ele>
        <time>2024-10-02T12:56:00Z</time>
      </trkpt>
      <trkpt lat="49.308" lon="0.08942">
        <ele>38.8</ele>
        <time>2024-10-02T12:56:01Z</time>
      </trkpt>
      <trkpt lat="49.308" lon="0.08954">
        <ele>38.4</ele>
        <time>2024-10-02T12:56:02Z</time>
      </trkpt>
      <trkpt lat="49.308" lon="0.08969">
        <ele>38.2</ele>
        <time>2024-10-02T12:56:03Z</time>
      </trkpt>
      <trkpt lat="49.30801" lon="0.08981">
        <ele>38.2</ele>
        <time>2024-10-02T12:56:04Z</time>
      </trkpt>
      <trkpt lat="49.30802" lon="0.08991">
        <ele>37.8</ele>
        <time>2024-10-02T12:56:05Z</time>
      </trkpt>
      <trkpt lat="49.30803" lon="0.09006">
        <ele>37.6</ele>
        <time>2024-10-02T12:56:06Z</time>
      </trkpt>
      <trkpt lat="49.30803" lon="0.09019">
        <ele>37.6</ele>
        <time>2024-10-02T12:56:07Z</time>
      </trkpt>
      <trkpt lat="49.30804" lon="0.09028">
        <ele>37.2</ele>
        <time>2024-10-02T12:56:08Z</time>
      </trkpt>
      <trkpt lat="49.30803" lon="0.09044">
        <ele>36.8</ele>
        <time>2024-10-02T12:56:09Z</time>
      </trkpt>
      <trkpt lat="49.30803" lon="0.09057">
        <ele>36.6</ele>
        <time>2024-10-02T12:56:10Z</time>
      </trkpt>
      <trkpt lat="49.30803" lon="0.09067">
        <ele>36</ele>
        <time>2024-10-02T12:56:11Z</time>
      </trkpt>
      <trkpt lat="49.30802" lon="0.09082">
        <ele>35.8</ele>
        <time>2024-10-02T12:56:12Z</time>
      </trkpt>
      <trkpt lat="49.30802" lon="0.09093">
        <ele>35.6</ele>
        <time>2024-10-02T12:56:13Z</time>
      </trkpt>
      <trkpt lat="49.30801" lon="0.09107">
        <ele>35.6</ele>
        <time>2024-10-02T12:56:14Z</time>
      </trkpt>
      <trkpt lat="49.30801" lon="0.09122">
        <ele>35.2</ele>
        <time>2024-10-02T12:56:15Z</time>
      </trkpt>
      <trkpt lat="49.30799" lon="0.09136">
        <ele>35.2</ele>
        <time>2024-10-02T12:56:16Z</time>
      </trkpt>
      <trkpt lat="49.30798" lon="0.09146">
        <ele>35.2</ele>
        <time>2024-10-02T12:56:17Z</time>
      </trkpt>
      <trkpt lat="49.30796" lon="0.09162">
        <ele>35</ele>
        <time>2024-10-02T12:56:18Z</time>
      </trkpt>
      <trkpt lat="49.30793" lon="0.09176">
        <ele>35</ele>
        <time>2024-10-02T12:56:19Z</time>
      </trkpt>
      <trkpt lat="49.30792" lon="0.09187">
        <ele>35</ele>
        <time>2024-10-02T12:56:20Z</time>
      </trkpt>
      <trkpt lat="49.30789" lon="0.09203">
        <ele>34.8</ele>
        <time>2024-10-02T12:56:21Z</time>
      </trkpt>
      <trkpt lat="49.30786" lon="0.09216">
        <ele>34.6</ele>
        <time>2024-10-02T12:56:22Z</time>
      </trkpt>
      <trkpt lat="49.30783" lon="0.09226">
        <ele>34.4</ele>
        <time>2024-10-02T12:56:23Z</time>
      </trkpt>
      <trkpt lat="49.30779" lon="0.09241">
        <ele>34.2</ele>
        <time>2024-10-02T12:56:24Z</time>
      </trkpt>
      <trkpt lat="49.30775" lon="0.0925">
        <ele>33.8</ele>
        <time>2024-10-02T12:56:25Z</time>
      </trkpt>
      <trkpt lat="49.3077" lon="0.0926">
        <ele>33.6</ele>
        <time>2024-10-02T12:56:26Z</time>
      </trkpt>
      <trkpt lat="49.30764" lon="0.09272">
        <ele>33.2</ele>
        <time>2024-10-02T12:56:27Z</time>
      </trkpt>
      <trkpt lat="49.30759" lon="0.09281">
        <ele>33.2</ele>
        <time>2024-10-02T12:56:28Z</time>
      </trkpt>
      <trkpt lat="49.30755" lon="0.09288">
        <ele>32.8</ele>
        <time>2024-10-02T12:56:29Z</time>
      </trkpt>
      <trkpt lat="49.30749" lon="0.09298">
        <ele>32.6</ele>
        <time>2024-10-02T12:56:30Z</time>
      </trkpt>
      <trkpt lat="49.30743" lon="0.09307">
        <ele>32.6</ele>
        <time>2024-10-02T12:56:31Z</time>
      </trkpt>
      <trkpt lat="49.30739" lon="0.09313">
        <ele>32.6</ele>
        <time>2024-10-02T12:56:32Z</time>
      </trkpt>
      <trkpt lat="49.30732" lon="0.09322">
        <ele>32.8</ele>
        <time>2024-10-02T12:56:33Z</time>
      </trkpt>
      <trkpt lat="49.30728" lon="0.09329">
        <ele>32.8</ele>
        <time>2024-10-02T12:56:34Z</time>
      </trkpt>
      <trkpt lat="49.30723" lon="0.09337">
        <ele>32.6</ele>
        <time>2024-10-02T12:56:35Z</time>
      </trkpt>
      <trkpt lat="49.30717" lon="0.09347">
        <ele>32.6</ele>
        <time>2024-10-02T12:56:36Z</time>
      </trkpt>
      <trkpt lat="49.30713" lon="0.09353">
        <ele>32.6</ele>
        <time>2024-10-02T12:56:37Z</time>
      </trkpt>
      <trkpt lat="49.30707" lon="0.09361">
        <ele>32.6</ele>
        <time>2024-10-02T12:56:38Z</time>
      </trkpt>
      <trkpt lat="49.30701" lon="0.09371">
        <ele>32.8</ele>
        <time>2024-10-02T12:56:39Z</time>
      </trkpt>
      <trkpt lat="49.30696" lon="0.0938">
        <ele>32.8</ele>
        <time>2024-10-02T12:56:40Z</time>
      </trkpt>
      <trkpt lat="49.30692" lon="0.09387">
        <ele>33</ele>
        <time>2024-10-02T12:56:41Z</time>
      </trkpt>
      <trkpt lat="49.30686" lon="0.09398">
        <ele>33.4</ele>
        <time>2024-10-02T12:56:42Z</time>
      </trkpt>
      <trkpt lat="49.30682" lon="0.09406">
        <ele>33.8</ele>
        <time>2024-10-02T12:56:43Z</time>
      </trkpt>
      <trkpt lat="49.30678" lon="0.09415">
        <ele>33.8</ele>
        <time>2024-10-02T12:56:44Z</time>
      </trkpt>
      <trkpt lat="49.30673" lon="0.09425">
        <ele>34</ele>
        <time>2024-10-02T12:56:45Z</time>
      </trkpt>
      <trkpt lat="49.30668" lon="0.09436">
        <ele>34</ele>
        <time>2024-10-02T12:56:46Z</time>
      </trkpt>
      <trkpt lat="49.30663" lon="0.09446">
        <ele>34</ele>
        <time>2024-10-02T12:56:47Z</time>
      </trkpt>
      <trkpt lat="49.30657" lon="0.09458">
        <ele>34</ele>
        <time>2024-10-02T12:56:48Z</time>
      </trkpt>
      <trkpt lat="49.30653" lon="0.09466">
        <ele>34</ele>
        <time>2024-10-02T12:56:49Z</time>
      </trkpt>
      <trkpt lat="49.30648" lon="0.09476">
        <ele>34</ele>
        <time>2024-10-02T12:56:50Z</time>
      </trkpt>
      <trkpt lat="49.30642" lon="0.09487">
        <ele>34</ele>
        <time>2024-10-02T12:56:51Z</time>
      </trkpt>
      <trkpt lat="49.30637" lon="0.09494">
        <ele>34</ele>
        <time>2024-10-02T12:56:52Z</time>
      </trkpt>
      <trkpt lat="49.30631" lon="0.09503">
        <ele>34</ele>
        <time>2024-10-02T12:56:53Z</time>
      </trkpt>
      <trkpt lat="49.30624" lon="0.09513">
        <ele>33.8</ele>
        <time>2024-10-02T12:56:54Z</time>
      </trkpt>
      <trkpt lat="49.30619" lon="0.0952">
        <ele>33.6</ele>
        <time>2024-10-02T12:56:55Z</time>
      </trkpt>
      <trkpt lat="49.30612" lon="0.09528">
        <ele>33.6</ele>
        <time>2024-10-02T12:56:56Z</time>
      </trkpt>
      <trkpt lat="49.30604" lon="0.09536">
        <ele>33.6</ele>
        <time>2024-10-02T12:56:57Z</time>
      </trkpt>
      <trkpt lat="49.30597" lon="0.09542">
        <ele>33.4</ele>
        <time>2024-10-02T12:56:58Z</time>
      </trkpt>
      <trkpt lat="49.30592" lon="0.09547">
        <ele>33.4</ele>
        <time>2024-10-02T12:56:59Z</time>
      </trkpt>
      <trkpt lat="49.30583" lon="0.09553">
        <ele>33.4</ele>
        <time>2024-10-02T12:57:00Z</time>
      </trkpt>
      <trkpt lat="49.30577" lon="0.09557">
        <ele>33.4</ele>
        <time>2024-10-02T12:57:01Z</time>
      </trkpt>
      <trkpt lat="49.3057" lon="0.09562">
        <ele>33.4</ele>
        <time>2024-10-02T12:57:02Z</time>
      </trkpt>
      <trkpt lat="49.30561" lon="0.09568">
        <ele>33.4</ele>
        <time>2024-10-02T12:57:03Z</time>
      </trkpt>
      <trkpt lat="49.30554" lon="0.09573">
        <ele>33.4</ele>
        <time>2024-10-02T12:57:04Z</time>
      </trkpt>
      <trkpt lat="49.30548" lon="0.09577">
        <ele>33.4</ele>
        <time>2024-10-02T12:57:05Z</time>
      </trkpt>
      <trkpt lat="49.3054" lon="0.09582">
        <ele>33.4</ele>
        <time>2024-10-02T12:57:06Z</time>
      </trkpt>
      <trkpt lat="49.30533" lon="0.09587">
        <ele>33.4</ele>
        <time>2024-10-02T12:57:07Z</time>
      </trkpt>
      <trkpt lat="49.30525" lon="0.09592">
        <ele>33.4</ele>
        <time>2024-10-02T12:57:08Z</time>
      </trkpt>
      <trkpt lat="49.30515" lon="0.09598">
        <ele>33.4</ele>
        <time>2024-10-02T12:57:09Z</time>
      </trkpt>
      <trkpt lat="49.30508" lon="0.09604">
        <ele>33.4</ele>
        <time>2024-10-02T12:57:10Z</time>
      </trkpt>
      <trkpt lat="49.30502" lon="0.09608">
        <ele>33.6</ele>
        <time>2024-10-02T12:57:11Z</time>
      </trkpt>
      <trkpt lat="49.30492" lon="0.09614">
        <ele>33.6</ele>
        <time>2024-10-02T12:57:12Z</time>
      </trkpt>
      <trkpt lat="49.30486" lon="0.09618">
        <ele>33.6</ele>
        <time>2024-10-02T12:57:13Z</time>
      </trkpt>
      <trkpt lat="49.30476" lon="0.09624">
        <ele>33.6</ele>
        <time>2024-10-02T12:57:14Z</time>
      </trkpt>
      <trkpt lat="49.3047" lon="0.09628">
        <ele>33.6</ele>
        <time>2024-10-02T12:57:15Z</time>
      </trkpt>
      <trkpt lat="49.3046" lon="0.09634">
        <ele>33.6</ele>
        <time>2024-10-02T12:57:16Z</time>
      </trkpt>
      <trkpt lat="49.30451" lon="0.0964">
        <ele>33.6</ele>
        <time>2024-10-02T12:57:17Z</time>
      </trkpt>
      <trkpt lat="49.30444" lon="0.09644">
        <ele>33.6</ele>
        <time>2024-10-02T12:57:18Z</time>
      </trkpt>
      <trkpt lat="49.30434" lon="0.09651">
        <ele>33.6</ele>
        <time>2024-10-02T12:57:19Z</time>
      </trkpt>
      <trkpt lat="49.30425" lon="0.09656">
        <ele>33.6</ele>
        <time>2024-10-02T12:57:20Z</time>
      </trkpt>
      <trkpt lat="49.30418" lon="0.0966">
        <ele>33.6</ele>
        <time>2024-10-02T12:57:21Z</time>
      </trkpt>
      <trkpt lat="49.30407" lon="0.09666">
        <ele>33.4</ele>
        <time>2024-10-02T12:57:22Z</time>
      </trkpt>
      <trkpt lat="49.30399" lon="0.09672">
        <ele>33.2</ele>
        <time>2024-10-02T12:57:23Z</time>
      </trkpt>
      <trkpt lat="49.30393" lon="0.09677">
        <ele>33</ele>
        <time>2024-10-02T12:57:24Z</time>
      </trkpt>
      <trkpt lat="49.30383" lon="0.09686">
        <ele>32.6</ele>
        <time>2024-10-02T12:57:25Z</time>
      </trkpt>
      <trkpt lat="49.30376" lon="0.09695">
        <ele>32.2</ele>
        <time>2024-10-02T12:57:26Z</time>
      </trkpt>
      <trkpt lat="49.30371" lon="0.09703">
        <ele>31.8</ele>
        <time>2024-10-02T12:57:27Z</time>
      </trkpt>
      <trkpt lat="49.30365" lon="0.09712">
        <ele>31.2</ele>
        <time>2024-10-02T12:57:28Z</time>
      </trkpt>
      <trkpt lat="49.3036" lon="0.09722">
        <ele>31</ele>
        <time>2024-10-02T12:57:29Z</time>
      </trkpt>
      <trkpt lat="49.30357" lon="0.09733">
        <ele>31</ele>
        <time>2024-10-02T12:57:30Z</time>
      </trkpt>
      <trkpt lat="49.30354" lon="0.09746">
        <ele>30.8</ele>
        <time>2024-10-02T12:57:31Z</time>
      </trkpt>
      <trkpt lat="49.30352" lon="0.09757">
        <ele>30.8</ele>
        <time>2024-10-02T12:57:32Z</time>
      </trkpt>
      <trkpt lat="49.30352" lon="0.09765">
        <ele>30.8</ele>
        <time>2024-10-02T12:57:33Z</time>
      </trkpt>
      <trkpt lat="49.30352" lon="0.09778">
        <ele>30.8</ele>
        <time>2024-10-02T12:57:34Z</time>
      </trkpt>
      <trkpt lat="49.30353" lon="0.09789">
        <ele>30.8</ele>
        <time>2024-10-02T12:57:35Z</time>
      </trkpt>
      <trkpt lat="49.30354" lon="0.09798">
        <ele>30.8</ele>
        <time>2024-10-02T12:57:36Z</time>
      </trkpt>
      <trkpt lat="49.30356" lon="0.0981">
        <ele>30.8</ele>
        <time>2024-10-02T12:57:37Z</time>
      </trkpt>
      <trkpt lat="49.30357" lon="0.09821">
        <ele>30.8</ele>
        <time>2024-10-02T12:57:38Z</time>
      </trkpt>
      <trkpt lat="49.30359" lon="0.09829">
        <ele>31</ele>
        <time>2024-10-02T12:57:39Z</time>
      </trkpt>
      <trkpt lat="49.30361" lon="0.09841">
        <ele>31.2</ele>
        <time>2024-10-02T12:57:40Z</time>
      </trkpt>
      <trkpt lat="49.30363" lon="0.09849">
        <ele>31.8</ele>
        <time>2024-10-02T12:57:41Z</time>
      </trkpt>
      <trkpt lat="49.30365" lon="0.09859">
        <ele>32</ele>
        <time>2024-10-02T12:57:42Z</time>
      </trkpt>
      <trkpt lat="49.30366" lon="0.09871">
        <ele>32.2</ele>
        <time>2024-10-02T12:57:43Z</time>
      </trkpt>
      <trkpt lat="49.30368" lon="0.0988">
        <ele>32.6</ele>
        <time>2024-10-02T12:57:44Z</time>
      </trkpt>
      <trkpt lat="49.30369" lon="0.09888">
        <ele>33.2</ele>
        <time>2024-10-02T12:57:45Z</time>
      </trkpt>
      <trkpt lat="49.30371" lon="0.09899">
        <ele>33.8</ele>
        <time>2024-10-02T12:57:46Z</time>
      </trkpt>
      <trkpt lat="49.30372" lon="0.09909">
        <ele>34.2</ele>
        <time>2024-10-02T12:57:47Z</time>
      </trkpt>
      <trkpt lat="49.30373" lon="0.09917">
        <ele>34.4</ele>
        <time>2024-10-02T12:57:48Z</time>
      </trkpt>
      <trkpt lat="49.30375" lon="0.09928">
        <ele>34.6</ele>
        <time>2024-10-02T12:57:49Z</time>
      </trkpt>
      <trkpt lat="49.30376" lon="0.09938">
        <ele>35</ele>
        <time>2024-10-02T12:57:50Z</time>
      </trkpt>
      <trkpt lat="49.30377" lon="0.09948">
        <ele>35</ele>
        <time>2024-10-02T12:57:51Z</time>
      </trkpt>
      <trkpt lat="49.30379" lon="0.0996">
        <ele>35.2</ele>
        <time>2024-10-02T12:57:52Z</time>
      </trkpt>
      <trkpt lat="49.30379" lon="0.09968">
        <ele>35.4</ele>
        <time>2024-10-02T12:57:53Z</time>
      </trkpt>
      <trkpt lat="49.3038" lon="0.09978">
        <ele>35.6</ele>
        <time>2024-10-02T12:57:54Z</time>
      </trkpt>
      <trkpt lat="49.30381" lon="0.0999">
        <ele>35.8</ele>
        <time>2024-10-02T12:57:55Z</time>
      </trkpt>
      <trkpt lat="49.30382" lon="0.09998">
        <ele>36</ele>
        <time>2024-10-02T12:57:56Z</time>
      </trkpt>
      <trkpt lat="49.30383" lon="0.10008">
        <ele>36</ele>
        <time>2024-10-02T12:57:57Z</time>
      </trkpt>
      <trkpt lat="49.30385" lon="0.1002">
        <ele>36.6</ele>
        <time>2024-10-02T12:57:58Z</time>
      </trkpt>
      <trkpt lat="49.30385" lon="0.10028">
        <ele>37.2</ele>
        <time>2024-10-02T12:57:59Z</time>
      </trkpt>
      <trkpt lat="49.30386" lon="0.1004">
        <ele>37.8</ele>
        <time>2024-10-02T12:58:00Z</time>
      </trkpt>
      <trkpt lat="49.30387" lon="0.10051">
        <ele>38</ele>
        <time>2024-10-02T12:58:01Z</time>
      </trkpt>
      <trkpt lat="49.30387" lon="0.10059">
        <ele>38.2</ele>
        <time>2024-10-02T12:58:02Z</time>
      </trkpt>
      <trkpt lat="49.30387" lon="0.1007">
        <ele>38.4</ele>
        <time>2024-10-02T12:58:03Z</time>
      </trkpt>
      <trkpt lat="49.30388" lon="0.10083">
        <ele>38.4</ele>
        <time>2024-10-02T12:58:04Z</time>
      </trkpt>
      <trkpt lat="49.30387" lon="0.10093">
        <ele>38.6</ele>
        <time>2024-10-02T12:58:05Z</time>
      </trkpt>
      <trkpt lat="49.30387" lon="0.10106">
        <ele>39</ele>
        <time>2024-10-02T12:58:06Z</time>
      </trkpt>
      <trkpt lat="49.30386" lon="0.10118">
        <ele>39.2</ele>
        <time>2024-10-02T12:58:07Z</time>
      </trkpt>
      <trkpt lat="49.30386" lon="0.10127">
        <ele>39.4</ele>
        <time>2024-10-02T12:58:08Z</time>
      </trkpt>
      <trkpt lat="49.30385" lon="0.1014">
        <ele>39.4</ele>
        <time>2024-10-02T12:58:09Z</time>
      </trkpt>
      <trkpt lat="49.30383" lon="0.10151">
        <ele>39.6</ele>
        <time>2024-10-02T12:58:10Z</time>
      </trkpt>
      <trkpt lat="49.30382" lon="0.10161">
        <ele>39.6</ele>
        <time>2024-10-02T12:58:11Z</time>
      </trkpt>
      <trkpt lat="49.30381" lon="0.10172">
        <ele>39.6</ele>
        <time>2024-10-02T12:58:12Z</time>
      </trkpt>
      <trkpt lat="49.30379" lon="0.10186">
        <ele>39.8</ele>
        <time>2024-10-02T12:58:13Z</time>
      </trkpt>
      <trkpt lat="49.30377" lon="0.10195">
        <ele>39.8</ele>
        <time>2024-10-02T12:58:14Z</time>
      </trkpt>
      <trkpt lat="49.30376" lon="0.10207">
        <ele>40</ele>
        <time>2024-10-02T12:58:15Z</time>
      </trkpt>
      <trkpt lat="49.30375" lon="0.10221">
        <ele>40</ele>
        <time>2024-10-02T12:58:16Z</time>
      </trkpt>
      <trkpt lat="49.30374" lon="0.1023">
        <ele>40</ele>
        <time>2024-10-02T12:58:17Z</time>
      </trkpt>
      <trkpt lat="49.30374" lon="0.10245">
        <ele>40</ele>
        <time>2024-10-02T12:58:18Z</time>
      </trkpt>
      <trkpt lat="49.30374" lon="0.10257">
        <ele>40</ele>
        <time>2024-10-02T12:58:19Z</time>
      </trkpt>
      <trkpt lat="49.30374" lon="0.10267">
        <ele>40.2</ele>
        <time>2024-10-02T12:58:20Z</time>
      </trkpt>
      <trkpt lat="49.30375" lon="0.10282">
        <ele>40.2</ele>
        <time>2024-10-02T12:58:21Z</time>
      </trkpt>
      <trkpt lat="49.30376" lon="0.10291">
        <ele>40.2</ele>
        <time>2024-10-02T12:58:22Z</time>
      </trkpt>
      <trkpt lat="49.30377" lon="0.10303">
        <ele>40.2</ele>
        <time>2024-10-02T12:58:23Z</time>
      </trkpt>
      <trkpt lat="49.30379" lon="0.10317">
        <ele>40.2</ele>
        <time>2024-10-02T12:58:24Z</time>
      </trkpt>
      <trkpt lat="49.3038" lon="0.10329">
        <ele>40.2</ele>
        <time>2024-10-02T12:58:25Z</time>
      </trkpt>
      <trkpt lat="49.30382" lon="0.10339">
        <ele>40.2</ele>
        <time>2024-10-02T12:58:26Z</time>
      </trkpt>
      <trkpt lat="49.30384" lon="0.10354">
        <ele>40.2</ele>
        <time>2024-10-02T12:58:27Z</time>
      </trkpt>
      <trkpt lat="49.30386" lon="0.10366">
        <ele>40.2</ele>
        <time>2024-10-02T12:58:28Z</time>
      </trkpt>
      <trkpt lat="49.30386" lon="0.10376">
        <ele>40.2</ele>
        <time>2024-10-02T12:58:29Z</time>
      </trkpt>
      <trkpt lat="49.30388" lon="0.10391">
        <ele>40.2</ele>
        <time>2024-10-02T12:58:30Z</time>
      </trkpt>
      <trkpt lat="49.30389" lon="0.10402">
        <ele>40.2</ele>
        <time>2024-10-02T12:58:31Z</time>
      </trkpt>
      <trkpt lat="49.3039" lon="0.10415">
        <ele>40.2</ele>
        <time>2024-10-02T12:58:32Z</time>
      </trkpt>
      <trkpt lat="49.3039" lon="0.10427">
        <ele>40.2</ele>
        <time>2024-10-02T12:58:33Z</time>
      </trkpt>
      <trkpt lat="49.30391" lon="0.10442">
        <ele>40.2</ele>
        <time>2024-10-02T12:58:34Z</time>
      </trkpt>
      <trkpt lat="49.30391" lon="0.10452">
        <ele>40.2</ele>
        <time>2024-10-02T12:58:35Z</time>
      </trkpt>
      <trkpt lat="49.3039" lon="0.10469">
        <ele>40</ele>
        <time>2024-10-02T12:58:36Z</time>
      </trkpt>
      <trkpt lat="49.30389" lon="0.10482">
        <ele>40</ele>
        <time>2024-10-02T12:58:37Z</time>
      </trkpt>
      <trkpt lat="49.30389" lon="0.10492">
        <ele>40</ele>
        <time>2024-10-02T12:58:38Z</time>
      </trkpt>
      <trkpt lat="49.30388" lon="0.10507">
        <ele>39.8</ele>
        <time>2024-10-02T12:58:39Z</time>
      </trkpt>
      <trkpt lat="49.30387" lon="0.10521">
        <ele>39.8</ele>
        <time>2024-10-02T12:58:40Z</time>
      </trkpt>
      <trkpt lat="49.30386" lon="0.10532">
        <ele>39.6</ele>
        <time>2024-10-02T12:58:41Z</time>
      </trkpt>
      <trkpt lat="49.30385" lon="0.10547">
        <ele>39.6</ele>
        <time>2024-10-02T12:58:42Z</time>
      </trkpt>
      <trkpt lat="49.30385" lon="0.1056">
        <ele>39.6</ele>
        <time>2024-10-02T12:58:43Z</time>
      </trkpt>
      <trkpt lat="49.30384" lon="0.1057">
        <ele>39.6</ele>
        <time>2024-10-02T12:58:44Z</time>
      </trkpt>
      <trkpt lat="49.30383" lon="0.10585">
        <ele>39.6</ele>
        <time>2024-10-02T12:58:45Z</time>
      </trkpt>
      <trkpt lat="49.30382" lon="0.10595">
        <ele>39.4</ele>
        <time>2024-10-02T12:58:46Z</time>
      </trkpt>
      <trkpt lat="49.30382" lon="0.10608">
        <ele>39.2</ele>
        <time>2024-10-02T12:58:47Z</time>
      </trkpt>
      <trkpt lat="49.30381" lon="0.10623">
        <ele>39</ele>
        <time>2024-10-02T12:58:48Z</time>
      </trkpt>
      <trkpt lat="49.3038" lon="0.10633">
        <ele>38.8</ele>
        <time>2024-10-02T12:58:49Z</time>
      </trkpt>
      <trkpt lat="49.30379" lon="0.10646">
        <ele>38.6</ele>
        <time>2024-10-02T12:58:50Z</time>
      </trkpt>
      <trkpt lat="49.30378" lon="0.10662">
        <ele>38.4</ele>
        <time>2024-10-02T12:58:51Z</time>
      </trkpt>
      <trkpt lat="49.30377" lon="0.10675">
        <ele>38.4</ele>
        <time>2024-10-02T12:58:52Z</time>
      </trkpt>
      <trkpt lat="49.30376" lon="0.10684">
        <ele>38.4</ele>
        <time>2024-10-02T12:58:53Z</time>
      </trkpt>
      <trkpt lat="49.30374" lon="0.10696">
        <ele>38.4</ele>
        <time>2024-10-02T12:58:54Z</time>
      </trkpt>
      <trkpt lat="49.30373" lon="0.10709">
        <ele>38.2</ele>
        <time>2024-10-02T12:58:55Z</time>
      </trkpt>
      <trkpt lat="49.30371" lon="0.10721">
        <ele>38.2</ele>
        <time>2024-10-02T12:58:56Z</time>
      </trkpt>
      <trkpt lat="49.30368" lon="0.10736">
        <ele>38</ele>
        <time>2024-10-02T12:58:57Z</time>
      </trkpt>
      <trkpt lat="49.30366" lon="0.10748">
        <ele>38</ele>
        <time>2024-10-02T12:58:58Z</time>
      </trkpt>
      <trkpt lat="49.30363" lon="0.10758">
        <ele>37.8</ele>
        <time>2024-10-02T12:58:59Z</time>
      </trkpt>
      <trkpt lat="49.3036" lon="0.10772">
        <ele>37.8</ele>
        <time>2024-10-02T12:59:00Z</time>
      </trkpt>
      <trkpt lat="49.30358" lon="0.10781">
        <ele>37.6</ele>
        <time>2024-10-02T12:59:01Z</time>
      </trkpt>
      <trkpt lat="49.30354" lon="0.10794">
        <ele>37.2</ele>
        <time>2024-10-02T12:59:02Z</time>
      </trkpt>
      <trkpt lat="49.3035" lon="0.10809">
        <ele>37.2</ele>
        <time>2024-10-02T12:59:03Z</time>
      </trkpt>
      <trkpt lat="49.30346" lon="0.10821">
        <ele>37</ele>
        <time>2024-10-02T12:59:04Z</time>
      </trkpt>
      <trkpt lat="49.30343" lon="0.10831">
        <ele>37</ele>
        <time>2024-10-02T12:59:05Z</time>
      </trkpt>
      <trkpt lat="49.30339" lon="0.10847">
        <ele>37</ele>
        <time>2024-10-02T12:59:06Z</time>
      </trkpt>
      <trkpt lat="49.30336" lon="0.10856">
        <ele>36.8</ele>
        <time>2024-10-02T12:59:07Z</time>
      </trkpt>
      <trkpt lat="49.30332" lon="0.10869">
        <ele>36.8</ele>
        <time>2024-10-02T12:59:08Z</time>
      </trkpt>
      <trkpt lat="49.30327" lon="0.10884">
        <ele>36.6</ele>
        <time>2024-10-02T12:59:09Z</time>
      </trkpt>
      <trkpt lat="49.30323" lon="0.10896">
        <ele>36.6</ele>
        <time>2024-10-02T12:59:10Z</time>
      </trkpt>
      <trkpt lat="49.3032" lon="0.10906">
        <ele>36.4</ele>
        <time>2024-10-02T12:59:11Z</time>
      </trkpt>
      <trkpt lat="49.30315" lon="0.1092">
        <ele>36.2</ele>
        <time>2024-10-02T12:59:12Z</time>
      </trkpt>
      <trkpt lat="49.3031" lon="0.10931">
        <ele>36.2</ele>
        <time>2024-10-02T12:59:13Z</time>
      </trkpt>
      <trkpt lat="49.30307" lon="0.10941">
        <ele>36.2</ele>
        <time>2024-10-02T12:59:14Z</time>
      </trkpt>
      <trkpt lat="49.30303" lon="0.10953">
        <ele>36</ele>
        <time>2024-10-02T12:59:15Z</time>
      </trkpt>
      <trkpt lat="49.303" lon="0.10966">
        <ele>36</ele>
        <time>2024-10-02T12:59:16Z</time>
      </trkpt>
      <trkpt lat="49.30296" lon="0.10978">
        <ele>35.8</ele>
        <time>2024-10-02T12:59:17Z</time>
      </trkpt>
      <trkpt lat="49.30291" lon="0.10993">
        <ele>35.6</ele>
        <time>2024-10-02T12:59:18Z</time>
      </trkpt>
      <trkpt lat="49.30288" lon="0.11003">
        <ele>35.4</ele>
        <time>2024-10-02T12:59:19Z</time>
      </trkpt>
      <trkpt lat="49.30284" lon="0.11016">
        <ele>35</ele>
        <time>2024-10-02T12:59:20Z</time>
      </trkpt>
      <trkpt lat="49.3028" lon="0.11031">
        <ele>34.6</ele>
        <time>2024-10-02T12:59:21Z</time>
      </trkpt>
      <trkpt lat="49.30277" lon="0.1104">
        <ele>34.6</ele>
        <time>2024-10-02T12:59:22Z</time>
      </trkpt>
      <trkpt lat="49.30272" lon="0.11052">
        <ele>34.4</ele>
        <time>2024-10-02T12:59:23Z</time>
      </trkpt>
      <trkpt lat="49.30267" lon="0.11067">
        <ele>34.4</ele>
        <time>2024-10-02T12:59:24Z</time>
      </trkpt>
      <trkpt lat="49.30264" lon="0.11077">
        <ele>34.2</ele>
        <time>2024-10-02T12:59:25Z</time>
      </trkpt>
      <trkpt lat="49.3026" lon="0.11089">
        <ele>34.2</ele>
        <time>2024-10-02T12:59:26Z</time>
      </trkpt>
      <trkpt lat="49.30255" lon="0.11104">
        <ele>34</ele>
        <time>2024-10-02T12:59:27Z</time>
      </trkpt>
      <trkpt lat="49.30251" lon="0.11115">
        <ele>33.8</ele>
        <time>2024-10-02T12:59:28Z</time>
      </trkpt>
      <trkpt lat="49.30248" lon="0.11125">
        <ele>33.6</ele>
        <time>2024-10-02T12:59:29Z</time>
      </trkpt>
      <trkpt lat="49.30242" lon="0.11139">
        <ele>33.4</ele>
        <time>2024-10-02T12:59:30Z</time>
      </trkpt>
      <trkpt lat="49.30237" lon="0.11151">
        <ele>33.4</ele>
        <time>2024-10-02T12:59:31Z</time>
      </trkpt>
      <trkpt lat="49.30233" lon="0.11163">
        <ele>33.2</ele>
        <time>2024-10-02T12:59:32Z</time>
      </trkpt>
      <trkpt lat="49.30228" lon="0.11175">
        <ele>33.2</ele>
        <time>2024-10-02T12:59:33Z</time>
      </trkpt>
      <trkpt lat="49.30224" lon="0.11185">
        <ele>33.2</ele>
        <time>2024-10-02T12:59:34Z</time>
      </trkpt>
      <trkpt lat="49.30218" lon="0.11199">
        <ele>33.2</ele>
        <time>2024-10-02T12:59:35Z</time>
      </trkpt>
      <trkpt lat="49.30214" lon="0.11209">
        <ele>33</ele>
        <time>2024-10-02T12:59:36Z</time>
      </trkpt>
      <trkpt lat="49.3021" lon="0.11222">
        <ele>32.6</ele>
        <time>2024-10-02T12:59:37Z</time>
      </trkpt>
      <trkpt lat="49.30205" lon="0.11234">
        <ele>32</ele>
        <time>2024-10-02T12:59:38Z</time>
      </trkpt>
      <trkpt lat="49.30199" lon="0.11249">
        <ele>31.6</ele>
        <time>2024-10-02T12:59:39Z</time>
      </trkpt>
      <trkpt lat="49.30194" lon="0.11259">
        <ele>31.4</ele>
        <time>2024-10-02T12:59:40Z</time>
      </trkpt>
      <trkpt lat="49.3019" lon="0.11272">
        <ele>31.2</ele>
        <time>2024-10-02T12:59:41Z</time>
      </trkpt>
      <trkpt lat="49.30184" lon="0.11287">
        <ele>31</ele>
        <time>2024-10-02T12:59:42Z</time>
      </trkpt>
      <trkpt lat="49.30181" lon="0.11298">
        <ele>30.8</ele>
        <time>2024-10-02T12:59:43Z</time>
      </trkpt>
      <trkpt lat="49.30179" lon="0.11311">
        <ele>30.8</ele>
        <time>2024-10-02T12:59:44Z</time>
      </trkpt>
      <trkpt lat="49.30177" lon="0.11327">
        <ele>30.6</ele>
        <time>2024-10-02T12:59:45Z</time>
      </trkpt>
      <trkpt lat="49.30176" lon="0.11339">
        <ele>30.4</ele>
        <time>2024-10-02T12:59:46Z</time>
      </trkpt>
      <trkpt lat="49.30176" lon="0.11356">
        <ele>30.2</ele>
        <time>2024-10-02T12:59:47Z</time>
      </trkpt>
      <trkpt lat="49.30177" lon="0.1137">
        <ele>29.8</ele>
        <time>2024-10-02T12:59:48Z</time>
      </trkpt>
      <trkpt lat="49.30178" lon="0.11382">
        <ele>29.4</ele>
        <time>2024-10-02T12:59:49Z</time>
      </trkpt>
      <trkpt lat="49.30179" lon="0.114">
        <ele>28.6</ele>
        <time>2024-10-02T12:59:50Z</time>
      </trkpt>
      <trkpt lat="49.30179" lon="0.11414">
        <ele>28.4</ele>
        <time>2024-10-02T12:59:51Z</time>
      </trkpt>
      <trkpt lat="49.3018" lon="0.11426">
        <ele>28.2</ele>
        <time>2024-10-02T12:59:52Z</time>
      </trkpt>
      <trkpt lat="49.3018" lon="0.11441">
        <ele>28</ele>
        <time>2024-10-02T12:59:53Z</time>
      </trkpt>
      <trkpt lat="49.30181" lon="0.11458">
        <ele>27.8</ele>
        <time>2024-10-02T12:59:54Z</time>
      </trkpt>
      <trkpt lat="49.30181" lon="0.1147">
        <ele>27.8</ele>
        <time>2024-10-02T12:59:55Z</time>
      </trkpt>
      <trkpt lat="49.30181" lon="0.11484">
        <ele>27.8</ele>
        <time>2024-10-02T12:59:56Z</time>
      </trkpt>
      <trkpt lat="49.30181" lon="0.11499">
        <ele>27.6</ele>
        <time>2024-10-02T12:59:57Z</time>
      </trkpt>
      <trkpt lat="49.30181" lon="0.11514">
        <ele>27.2</ele>
        <time>2024-10-02T12:59:58Z</time>
      </trkpt>
      <trkpt lat="49.3018" lon="0.11528">
        <ele>26.6</ele>
        <time>2024-10-02T12:59:59Z</time>
      </trkpt>
      <trkpt lat="49.3018" lon="0.11542">
        <ele>26.2</ele>
        <time>2024-10-02T13:00:00Z</time>
      </trkpt>
      <trkpt lat="49.3018" lon="0.11557">
        <ele>25.8</ele>
        <time>2024-10-02T13:00:01Z</time>
      </trkpt>
      <trkpt lat="49.3018" lon="0.11572">
        <ele>25.6</ele>
        <time>2024-10-02T13:00:02Z</time>
      </trkpt>
      <trkpt lat="49.3018" lon="0.11587">
        <ele>25.6</ele>
        <time>2024-10-02T13:00:03Z</time>
      </trkpt>
      <trkpt lat="49.30179" lon="0.11602">
        <ele>25.4</ele>
        <time>2024-10-02T13:00:04Z</time>
      </trkpt>
      <trkpt lat="49.30178" lon="0.11617">
        <ele>25.2</ele>
        <time>2024-10-02T13:00:05Z</time>
      </trkpt>
      <trkpt lat="49.30178" lon="0.11632">
        <ele>25</ele>
        <time>2024-10-02T13:00:06Z</time>
      </trkpt>
      <trkpt lat="49.30177" lon="0.11649">
        <ele>24.8</ele>
        <time>2024-10-02T13:00:07Z</time>
      </trkpt>
      <trkpt lat="49.30176" lon="0.11665">
        <ele>24.6</ele>
        <time>2024-10-02T13:00:08Z</time>
      </trkpt>
      <trkpt lat="49.30175" lon="0.11677">
        <ele>24.4</ele>
        <time>2024-10-02T13:00:09Z</time>
      </trkpt>
      <trkpt lat="49.30173" lon="0.11695">
        <ele>24.2</ele>
        <time>2024-10-02T13:00:10Z</time>
      </trkpt>
      <trkpt lat="49.30171" lon="0.1171">
        <ele>24.2</ele>
        <time>2024-10-02T13:00:11Z</time>
      </trkpt>
      <trkpt lat="49.3017" lon="0.11722">
        <ele>24.2</ele>
        <time>2024-10-02T13:00:12Z</time>
      </trkpt>
      <trkpt lat="49.30168" lon="0.11739">
        <ele>23.8</ele>
        <time>2024-10-02T13:00:13Z</time>
      </trkpt>
      <trkpt lat="49.30166" lon="0.11754">
        <ele>23.4</ele>
        <time>2024-10-02T13:00:14Z</time>
      </trkpt>
      <trkpt lat="49.30164" lon="0.11765">
        <ele>22.6</ele>
        <time>2024-10-02T13:00:15Z</time>
      </trkpt>
      <trkpt lat="49.30161" lon="0.11783">
        <ele>22.6</ele>
        <time>2024-10-02T13:00:16Z</time>
      </trkpt>
      <trkpt lat="49.30158" lon="0.11797">
        <ele>21.8</ele>
        <time>2024-10-02T13:00:17Z</time>
      </trkpt>
      <trkpt lat="49.30156" lon="0.11809">
        <ele>21</ele>
        <time>2024-10-02T13:00:18Z</time>
      </trkpt>
      <trkpt lat="49.30153" lon="0.11823">
        <ele>20.6</ele>
        <time>2024-10-02T13:00:19Z</time>
      </trkpt>
      <trkpt lat="49.3015" lon="0.11838">
        <ele>20.4</ele>
        <time>2024-10-02T13:00:20Z</time>
      </trkpt>
      <trkpt lat="49.30147" lon="0.11852">
        <ele>20.4</ele>
        <time>2024-10-02T13:00:21Z</time>
      </trkpt>
      <trkpt lat="49.30144" lon="0.11869">
        <ele>20</ele>
        <time>2024-10-02T13:00:22Z</time>
      </trkpt>
      <trkpt lat="49.3014" lon="0.11883">
        <ele>20</ele>
        <time>2024-10-02T13:00:23Z</time>
      </trkpt>
      <trkpt lat="49.30138" lon="0.11895">
        <ele>19.8</ele>
        <time>2024-10-02T13:00:24Z</time>
      </trkpt>
      <trkpt lat="49.30134" lon="0.11911">
        <ele>19.8</ele>
        <time>2024-10-02T13:00:25Z</time>
      </trkpt>
      <trkpt lat="49.30131" lon="0.11925">
        <ele>19.6</ele>
        <time>2024-10-02T13:00:26Z</time>
      </trkpt>
      <trkpt lat="49.30129" lon="0.11937">
        <ele>19.6</ele>
        <time>2024-10-02T13:00:27Z</time>
      </trkpt>
      <trkpt lat="49.30125" lon="0.11953">
        <ele>19.6</ele>
        <time>2024-10-02T13:00:28Z</time>
      </trkpt>
      <trkpt lat="49.30122" lon="0.11967">
        <ele>19.6</ele>
        <time>2024-10-02T13:00:29Z</time>
      </trkpt>
      <trkpt lat="49.30119" lon="0.11978">
        <ele>19.4</ele>
        <time>2024-10-02T13:00:30Z</time>
      </trkpt>
      <trkpt lat="49.30114" lon="0.11994">
        <ele>19.4</ele>
        <time>2024-10-02T13:00:31Z</time>
      </trkpt>
      <trkpt lat="49.30111" lon="0.12007">
        <ele>19</ele>
        <time>2024-10-02T13:00:32Z</time>
      </trkpt>
      <trkpt lat="49.30108" lon="0.12017">
        <ele>18.4</ele>
        <time>2024-10-02T13:00:33Z</time>
      </trkpt>
      <trkpt lat="49.30103" lon="0.12033">
        <ele>18.2</ele>
        <time>2024-10-02T13:00:34Z</time>
      </trkpt>
      <trkpt lat="49.301" lon="0.12047">
        <ele>17.8</ele>
        <time>2024-10-02T13:00:35Z</time>
      </trkpt>
      <trkpt lat="49.30097" lon="0.12058">
        <ele>17.6</ele>
        <time>2024-10-02T13:00:36Z</time>
      </trkpt>
      <trkpt lat="49.30093" lon="0.12074">
        <ele>17.6</ele>
        <time>2024-10-02T13:00:37Z</time>
      </trkpt>
      <trkpt lat="49.3009" lon="0.12087">
        <ele>17.4</ele>
        <time>2024-10-02T13:00:38Z</time>
      </trkpt>
      <trkpt lat="49.30087" lon="0.12098">
        <ele>17.2</ele>
        <time>2024-10-02T13:00:39Z</time>
      </trkpt>
      <trkpt lat="49.30083" lon="0.12111">
        <ele>17.2</ele>
        <time>2024-10-02T13:00:40Z</time>
      </trkpt>
      <trkpt lat="49.3008" lon="0.12125">
        <ele>17.2</ele>
        <time>2024-10-02T13:00:41Z</time>
      </trkpt>
      <trkpt lat="49.30076" lon="0.12139">
        <ele>17</ele>
        <time>2024-10-02T13:00:42Z</time>
      </trkpt>
      <trkpt lat="49.30073" lon="0.12152">
        <ele>17</ele>
        <time>2024-10-02T13:00:43Z</time>
      </trkpt>
      <trkpt lat="49.3007" lon="0.12169">
        <ele>17</ele>
        <time>2024-10-02T13:00:44Z</time>
      </trkpt>
      <trkpt lat="49.30068" lon="0.12183">
        <ele>16.8</ele>
        <time>2024-10-02T13:00:45Z</time>
      </trkpt>
      <trkpt lat="49.30067" lon="0.12194">
        <ele>16.6</ele>
        <time>2024-10-02T13:00:46Z</time>
      </trkpt>
      <trkpt lat="49.30066" lon="0.12212">
        <ele>16.4</ele>
        <time>2024-10-02T13:00:47Z</time>
      </trkpt>
      <trkpt lat="49.30067" lon="0.12226">
        <ele>16.4</ele>
        <time>2024-10-02T13:00:48Z</time>
      </trkpt>
      <trkpt lat="49.30067" lon="0.12238">
        <ele>16.2</ele>
        <time>2024-10-02T13:00:49Z</time>
      </trkpt>
      <trkpt lat="49.30068" lon="0.12255">
        <ele>16.2</ele>
        <time>2024-10-02T13:00:50Z</time>
      </trkpt>
      <trkpt lat="49.30069" lon="0.12269">
        <ele>16</ele>
        <time>2024-10-02T13:00:51Z</time>
      </trkpt>
      <trkpt lat="49.30069" lon="0.1228">
        <ele>16</ele>
        <time>2024-10-02T13:00:52Z</time>
      </trkpt>
      <trkpt lat="49.30071" lon="0.12297">
        <ele>16</ele>
        <time>2024-10-02T13:00:53Z</time>
      </trkpt>
      <trkpt lat="49.30071" lon="0.12311">
        <ele>16</ele>
        <time>2024-10-02T13:00:54Z</time>
      </trkpt>
      <trkpt lat="49.30072" lon="0.12322">
        <ele>15.8</ele>
        <time>2024-10-02T13:00:55Z</time>
      </trkpt>
      <trkpt lat="49.30074" lon="0.12338">
        <ele>15.6</ele>
        <time>2024-10-02T13:00:56Z</time>
      </trkpt>
      <trkpt lat="49.30075" lon="0.12351">
        <ele>15.6</ele>
        <time>2024-10-02T13:00:57Z</time>
      </trkpt>
      <trkpt lat="49.30075" lon="0.12362">
        <ele>15.6</ele>
        <time>2024-10-02T13:00:58Z</time>
      </trkpt>
      <trkpt lat="49.30076" lon="0.12377">
        <ele>15.6</ele>
        <time>2024-10-02T13:00:59Z</time>
      </trkpt>
      <trkpt lat="49.30075" lon="0.1239">
        <ele>15.6</ele>
        <time>2024-10-02T13:01:00Z</time>
      </trkpt>
      <trkpt lat="49.30074" lon="0.124">
        <ele>15.4</ele>
        <time>2024-10-02T13:01:01Z</time>
      </trkpt>
      <trkpt lat="49.30072" lon="0.12412">
        <ele>15.4</ele>
        <time>2024-10-02T13:01:02Z</time>
      </trkpt>
      <trkpt lat="49.30071" lon="0.12423">
        <ele>15.4</ele>
        <time>2024-10-02T13:01:03Z</time>
      </trkpt>
      <trkpt lat="49.3007" lon="0.12433">
        <ele>15.2</ele>
        <time>2024-10-02T13:01:04Z</time>
      </trkpt>
      <trkpt lat="49.30069" lon="0.12443">
        <ele>14.8</ele>
        <time>2024-10-02T13:01:05Z</time>
      </trkpt>
      <trkpt lat="49.30067" lon="0.12451">
        <ele>14.6</ele>
        <time>2024-10-02T13:01:06Z</time>
      </trkpt>
      <trkpt lat="49.30066" lon="0.12456">
        <ele>14.4</ele>
        <time>2024-10-02T13:01:07Z</time>
      </trkpt>
      <trkpt lat="49.30065" lon="0.12465">
        <ele>14.4</ele>
        <time>2024-10-02T13:01:08Z</time>
      </trkpt>
      <trkpt lat="49.30064" lon="0.12473">
        <ele>14.4</ele>
        <time>2024-10-02T13:01:09Z</time>
      </trkpt>
      <trkpt lat="49.30063" lon="0.1248">
        <ele>14.4</ele>
        <time>2024-10-02T13:01:10Z</time>
      </trkpt>
      <trkpt lat="49.30061" lon="0.12491">
        <ele>14.4</ele>
        <time>2024-10-02T13:01:11Z</time>
      </trkpt>
      <trkpt lat="49.30059" lon="0.12501">
        <ele>14.4</ele>
        <time>2024-10-02T13:01:12Z</time>
      </trkpt>
      <trkpt lat="49.30058" lon="0.12509">
        <ele>14.2</ele>
        <time>2024-10-02T13:01:13Z</time>
      </trkpt>
      <trkpt lat="49.30055" lon="0.12521">
        <ele>14.2</ele>
        <time>2024-10-02T13:01:14Z</time>
      </trkpt>
      <trkpt lat="49.30053" lon="0.12529">
        <ele>14</ele>
        <time>2024-10-02T13:01:15Z</time>
      </trkpt>
      <trkpt lat="49.30051" lon="0.12539">
        <ele>14</ele>
        <time>2024-10-02T13:01:16Z</time>
      </trkpt>
      <trkpt lat="49.30048" lon="0.12551">
        <ele>14</ele>
        <time>2024-10-02T13:01:17Z</time>
      </trkpt>
      <trkpt lat="49.30046" lon="0.12561">
        <ele>13.8</ele>
        <time>2024-10-02T13:01:18Z</time>
      </trkpt>
      <trkpt lat="49.30044" lon="0.12569">
        <ele>13.8</ele>
        <time>2024-10-02T13:01:19Z</time>
      </trkpt>
      <trkpt lat="49.3004" lon="0.12581">
        <ele>13.6</ele>
        <time>2024-10-02T13:01:20Z</time>
      </trkpt>
      <trkpt lat="49.30036" lon="0.1259">
        <ele>13.4</ele>
        <time>2024-10-02T13:01:21Z</time>
      </trkpt>
      <trkpt lat="49.30033" lon="0.12598">
        <ele>13.4</ele>
        <time>2024-10-02T13:01:22Z</time>
      </trkpt>
      <trkpt lat="49.30028" lon="0.12607">
        <ele>13.4</ele>
        <time>2024-10-02T13:01:23Z</time>
      </trkpt>
      <trkpt lat="49.30024" lon="0.12615">
        <ele>13.2</ele>
        <time>2024-10-02T13:01:24Z</time>
      </trkpt>
      <trkpt lat="49.30019" lon="0.12624">
        <ele>13</ele>
        <time>2024-10-02T13:01:25Z</time>
      </trkpt>
      <trkpt lat="49.30013" lon="0.12634">
        <ele>12.8</ele>
        <time>2024-10-02T13:01:26Z</time>
      </trkpt>
      <trkpt lat="49.30007" lon="0.12642">
        <ele>12.6</ele>
        <time>2024-10-02T13:01:27Z</time>
      </trkpt>
      <trkpt lat="49.30002" lon="0.12648">
        <ele>12.6</ele>
        <time>2024-10-02T13:01:28Z</time>
      </trkpt>
      <trkpt lat="49.29994" lon="0.12656">
        <ele>12.6</ele>
        <time>2024-10-02T13:01:29Z</time>
      </trkpt>
      <trkpt lat="49.29988" lon="0.12663">
        <ele>12.6</ele>
        <time>2024-10-02T13:01:30Z</time>
      </trkpt>
      <trkpt lat="49.29982" lon="0.12668">
        <ele>12.6</ele>
        <time>2024-10-02T13:01:31Z</time>
      </trkpt>
      <trkpt lat="49.29974" lon="0.12675">
        <ele>12.6</ele>
        <time>2024-10-02T13:01:32Z</time>
      </trkpt>
      <trkpt lat="49.29968" lon="0.1268">
        <ele>12.6</ele>
        <time>2024-10-02T13:01:33Z</time>
      </trkpt>
      <trkpt lat="49.29961" lon="0.12686">
        <ele>12.4</ele>
        <time>2024-10-02T13:01:34Z</time>
      </trkpt>
      <trkpt lat="49.29954" lon="0.12691">
        <ele>12.4</ele>
        <time>2024-10-02T13:01:35Z</time>
      </trkpt>
      <trkpt lat="49.29947" lon="0.12696">
        <ele>12.4</ele>
        <time>2024-10-02T13:01:36Z</time>
      </trkpt>
      <trkpt lat="49.2994" lon="0.127">
        <ele>12.4</ele>
        <time>2024-10-02T13:01:37Z</time>
      </trkpt>
      <trkpt lat="49.29932" lon="0.12705">
        <ele>12.4</ele>
        <time>2024-10-02T13:01:38Z</time>
      </trkpt>
      <trkpt lat="49.29925" lon="0.12709">
        <ele>12.4</ele>
        <time>2024-10-02T13:01:39Z</time>
      </trkpt>
      <trkpt lat="49.29918" lon="0.12713">
        <ele>12.4</ele>
        <time>2024-10-02T13:01:40Z</time>
      </trkpt>
      <trkpt lat="49.2991" lon="0.12714">
        <ele>12.4</ele>
        <time>2024-10-02T13:01:41Z</time>
      </trkpt>
      <trkpt lat="49.29902" lon="0.12714">
        <ele>12.2</ele>
        <time>2024-10-02T13:01:42Z</time>
      </trkpt>
      <trkpt lat="49.29894" lon="0.12711">
        <ele>12.2</ele>
        <time>2024-10-02T13:01:43Z</time>
      </trkpt>
      <trkpt lat="49.29887" lon="0.12707">
        <ele>12.2</ele>
        <time>2024-10-02T13:01:44Z</time>
      </trkpt>
      <trkpt lat="49.29879" lon="0.12702">
        <ele>12.2</ele>
        <time>2024-10-02T13:01:45Z</time>
      </trkpt>
      <trkpt lat="49.29872" lon="0.12695">
        <ele>11.8</ele>
        <time>2024-10-02T13:01:46Z</time>
      </trkpt>
      <trkpt lat="49.29865" lon="0.12689">
        <ele>11.4</ele>
        <time>2024-10-02T13:01:47Z</time>
      </trkpt>
      <trkpt lat="49.29857" lon="0.12684">
        <ele>11</ele>
        <time>2024-10-02T13:01:48Z</time>
      </trkpt>
      <trkpt lat="49.29849" lon="0.12681">
        <ele>10.4</ele>
        <time>2024-10-02T13:01:49Z</time>
      </trkpt>
      <trkpt lat="49.29841" lon="0.12679">
        <ele>10</ele>
        <time>2024-10-02T13:01:50Z</time>
      </trkpt>
      <trkpt lat="49.29833" lon="0.12678">
        <ele>9.8</ele>
        <time>2024-10-02T13:01:51Z</time>
      </trkpt>
      <trkpt lat="49.29824" lon="0.12679">
        <ele>9.4</ele>
        <time>2024-10-02T13:01:52Z</time>
      </trkpt>
      <trkpt lat="49.29815" lon="0.12681">
        <ele>9.4</ele>
        <time>2024-10-02T13:01:53Z</time>
      </trkpt>
      <trkpt lat="49.29806" lon="0.12683">
        <ele>9.4</ele>
        <time>2024-10-02T13:01:54Z</time>
      </trkpt>
      <trkpt lat="49.29798" lon="0.12684">
        <ele>9.2</ele>
        <time>2024-10-02T13:01:55Z</time>
      </trkpt>
      <trkpt lat="49.2979" lon="0.12686">
        <ele>9.2</ele>
        <time>2024-10-02T13:01:56Z</time>
      </trkpt>
      <trkpt lat="49.29782" lon="0.12686">
        <ele>9</ele>
        <time>2024-10-02T13:01:57Z</time>
      </trkpt>
      <trkpt lat="49.29774" lon="0.12686">
        <ele>9</ele>
        <time>2024-10-02T13:01:58Z</time>
      </trkpt>
      <trkpt lat="49.29766" lon="0.12686">
        <ele>9</ele>
        <time>2024-10-02T13:01:59Z</time>
      </trkpt>
      <trkpt lat="49.29758" lon="0.12686">
        <ele>9</ele>
        <time>2024-10-02T13:02:00Z</time>
      </trkpt>
      <trkpt lat="49.29751" lon="0.12685">
        <ele>9</ele>
        <time>2024-10-02T13:02:01Z</time>
      </trkpt>
      <trkpt lat="49.29744" lon="0.12685">
        <ele>8.8</ele>
        <time>2024-10-02T13:02:02Z</time>
      </trkpt>
      <trkpt lat="49.29737" lon="0.12685">
        <ele>8.8</ele>
        <time>2024-10-02T13:02:03Z</time>
      </trkpt>
      <trkpt lat="49.2973" lon="0.12684">
        <ele>8.8</ele>
        <time>2024-10-02T13:02:04Z</time>
      </trkpt>
      <trkpt lat="49.29723" lon="0.12684">
        <ele>8.8</ele>
        <time>2024-10-02T13:02:05Z</time>
      </trkpt>
      <trkpt lat="49.29717" lon="0.12684">
        <ele>8.8</ele>
        <time>2024-10-02T13:02:06Z</time>
      </trkpt>
      <trkpt lat="49.2971" lon="0.12683">
        <ele>8.8</ele>
        <time>2024-10-02T13:02:07Z</time>
      </trkpt>
      <trkpt lat="49.29704" lon="0.12684">
        <ele>8.8</ele>
        <time>2024-10-02T13:02:08Z</time>
      </trkpt>
      <trkpt lat="49.29698" lon="0.12684">
        <ele>8.8</ele>
        <time>2024-10-02T13:02:09Z</time>
      </trkpt>
      <trkpt lat="49.29693" lon="0.12685">
        <ele>8.8</ele>
        <time>2024-10-02T13:02:10Z</time>
      </trkpt>
      <trkpt lat="49.29687" lon="0.12687">
        <ele>8.8</ele>
        <time>2024-10-02T13:02:11Z</time>
      </trkpt>
      <trkpt lat="49.29684" lon="0.12689">
        <ele>9.2</ele>
        <time>2024-10-02T13:02:12Z</time>
      </trkpt>
      <trkpt lat="49.29681" lon="0.12692">
        <ele>9.4</ele>
        <time>2024-10-02T13:02:13Z</time>
      </trkpt>
      <trkpt lat="49.2968" lon="0.12695">
        <ele>9.6</ele>
        <time>2024-10-02T13:02:14Z</time>
      </trkpt>
      <trkpt lat="49.29679" lon="0.12697">
        <ele>9.8</ele>
        <time>2024-10-02T13:02:15Z</time>
      </trkpt>
      <trkpt lat="49.29679" lon="0.12699">
        <ele>10</ele>
        <time>2024-10-02T13:02:16Z</time>
      </trkpt>
      <trkpt lat="49.29679" lon="0.12699">
        <ele>10.2</ele>
        <time>2024-10-02T13:02:17Z</time>
      </trkpt>
      <trkpt lat="49.29679" lon="0.12699">
        <ele>10.6</ele>
        <time>2024-10-02T13:02:18Z</time>
      </trkpt>
      <trkpt lat="49.29679" lon="0.12709">
        <ele>11</ele>
        <time>2024-10-02T13:02:22Z</time>
      </trkpt>
      <trkpt lat="49.2968" lon="0.12714">
        <ele>11</ele>
        <time>2024-10-02T13:02:23Z</time>
      </trkpt>
      <trkpt lat="49.29681" lon="0.12719">
        <ele>11.2</ele>
        <time>2024-10-02T13:02:24Z</time>
      </trkpt>
      <trkpt lat="49.29683" lon="0.12725">
        <ele>11.2</ele>
        <time>2024-10-02T13:02:25Z</time>
      </trkpt>
      <trkpt lat="49.29685" lon="0.12732">
        <ele>11.2</ele>
        <time>2024-10-02T13:02:26Z</time>
      </trkpt>
      <trkpt lat="49.29687" lon="0.12738">
        <ele>11.2</ele>
        <time>2024-10-02T13:02:27Z</time>
      </trkpt>
      <trkpt lat="49.29689" lon="0.12746">
        <ele>11.2</ele>
        <time>2024-10-02T13:02:28Z</time>
      </trkpt>
      <trkpt lat="49.29691" lon="0.12754">
        <ele>11.2</ele>
        <time>2024-10-02T13:02:29Z</time>
      </trkpt>
      <trkpt lat="49.29692" lon="0.12762">
        <ele>11.2</ele>
        <time>2024-10-02T13:02:30Z</time>
      </trkpt>
      <trkpt lat="49.29694" lon="0.12771">
        <ele>11.2</ele>
        <time>2024-10-02T13:02:31Z</time>
      </trkpt>
      <trkpt lat="49.29696" lon="0.1278">
        <ele>11</ele>
        <time>2024-10-02T13:02:32Z</time>
      </trkpt>
      <trkpt lat="49.29698" lon="0.12789">
        <ele>10.6</ele>
        <time>2024-10-02T13:02:33Z</time>
      </trkpt>
      <trkpt lat="49.297" lon="0.12799">
        <ele>10.2</ele>
        <time>2024-10-02T13:02:34Z</time>
      </trkpt>
      <trkpt lat="49.29703" lon="0.12809">
        <ele>10</ele>
        <time>2024-10-02T13:02:35Z</time>
      </trkpt>
      <trkpt lat="49.29705" lon="0.1282">
        <ele>9.8</ele>
        <time>2024-10-02T13:02:36Z</time>
      </trkpt>
      <trkpt lat="49.29707" lon="0.1283">
        <ele>9.8</ele>
        <time>2024-10-02T13:02:37Z</time>
      </trkpt>
      <trkpt lat="49.29709" lon="0.12841">
        <ele>9.6</ele>
        <time>2024-10-02T13:02:38Z</time>
      </trkpt>
      <trkpt lat="49.2971" lon="0.12852">
        <ele>9.6</ele>
        <time>2024-10-02T13:02:39Z</time>
      </trkpt>
      <trkpt lat="49.29712" lon="0.12863">
        <ele>9.4</ele>
        <time>2024-10-02T13:02:40Z</time>
      </trkpt>
      <trkpt lat="49.29713" lon="0.12874">
        <ele>9.4</ele>
        <time>2024-10-02T13:02:41Z</time>
      </trkpt>
      <trkpt lat="49.29714" lon="0.12885">
        <ele>9.4</ele>
        <time>2024-10-02T13:02:42Z</time>
      </trkpt>
      <trkpt lat="49.29716" lon="0.12896">
        <ele>9.4</ele>
        <time>2024-10-02T13:02:43Z</time>
      </trkpt>
      <trkpt lat="49.29717" lon="0.12908">
        <ele>9.4</ele>
        <time>2024-10-02T13:02:44Z</time>
      </trkpt>
      <trkpt lat="49.29719" lon="0.12919">
        <ele>9.2</ele>
        <time>2024-10-02T13:02:45Z</time>
      </trkpt>
      <trkpt lat="49.2972" lon="0.12932">
        <ele>9.2</ele>
        <time>2024-10-02T13:02:46Z</time>
      </trkpt>
      <trkpt lat="49.29722" lon="0.12944">
        <ele>9</ele>
        <time>2024-10-02T13:02:47Z</time>
      </trkpt>
      <trkpt lat="49.29723" lon="0.12957">
        <ele>9</ele>
        <time>2024-10-02T13:02:48Z</time>
      </trkpt>
      <trkpt lat="49.29723" lon="0.12969">
        <ele>8.8</ele>
        <time>2024-10-02T13:02:49Z</time>
      </trkpt>
      <trkpt lat="49.29724" lon="0.12982">
        <ele>8.8</ele>
        <time>2024-10-02T13:02:50Z</time>
      </trkpt>
      <trkpt lat="49.29725" lon="0.12994">
        <ele>8.8</ele>
        <time>2024-10-02T13:02:51Z</time>
      </trkpt>
      <trkpt lat="49.29726" lon="0.13007">
        <ele>8.8</ele>
        <time>2024-10-02T13:02:52Z</time>
      </trkpt>
      <trkpt lat="49.29728" lon="0.13019">
        <ele>8.6</ele>
        <time>2024-10-02T13:02:53Z</time>
      </trkpt>
      <trkpt lat="49.29729" lon="0.13031">
        <ele>8.6</ele>
        <time>2024-10-02T13:02:54Z</time>
      </trkpt>
      <trkpt lat="49.2973" lon="0.13043">
        <ele>8.4</ele>
        <time>2024-10-02T13:02:55Z</time>
      </trkpt>
      <trkpt lat="49.29731" lon="0.13055">
        <ele>8.4</ele>
        <time>2024-10-02T13:02:56Z</time>
      </trkpt>
      <trkpt lat="49.29732" lon="0.13068">
        <ele>8.2</ele>
        <time>2024-10-02T13:02:57Z</time>
      </trkpt>
      <trkpt lat="49.29733" lon="0.13081">
        <ele>8.2</ele>
        <time>2024-10-02T13:02:58Z</time>
      </trkpt>
      <trkpt lat="49.29734" lon="0.13094">
        <ele>8</ele>
        <time>2024-10-02T13:02:59Z</time>
      </trkpt>
      <trkpt lat="49.29735" lon="0.13106">
        <ele>8</ele>
        <time>2024-10-02T13:03:00Z</time>
      </trkpt>
      <trkpt lat="49.29737" lon="0.13119">
        <ele>8</ele>
        <time>2024-10-02T13:03:01Z</time>
      </trkpt>
      <trkpt lat="49.29738" lon="0.13132">
        <ele>7.8</ele>
        <time>2024-10-02T13:03:02Z</time>
      </trkpt>
      <trkpt lat="49.29739" lon="0.13145">
        <ele>7.8</ele>
        <time>2024-10-02T13:03:03Z</time>
      </trkpt>
      <trkpt lat="49.2974" lon="0.13158">
        <ele>7.8</ele>
        <time>2024-10-02T13:03:04Z</time>
      </trkpt>
      <trkpt lat="49.29742" lon="0.13171">
        <ele>7.8</ele>
        <time>2024-10-02T13:03:05Z</time>
      </trkpt>
      <trkpt lat="49.29745" lon="0.13183">
        <ele>7.6</ele>
        <time>2024-10-02T13:03:06Z</time>
      </trkpt>
      <trkpt lat="49.29747" lon="0.13196">
        <ele>7.6</ele>
        <time>2024-10-02T13:03:07Z</time>
      </trkpt>
      <trkpt lat="49.29749" lon="0.13209">
        <ele>7.4</ele>
        <time>2024-10-02T13:03:08Z</time>
      </trkpt>
      <trkpt lat="49.29752" lon="0.13222">
        <ele>7.4</ele>
        <time>2024-10-02T13:03:09Z</time>
      </trkpt>
      <trkpt lat="49.29755" lon="0.13235">
        <ele>7.4</ele>
        <time>2024-10-02T13:03:10Z</time>
      </trkpt>
      <trkpt lat="49.29758" lon="0.13247">
        <ele>7.2</ele>
        <time>2024-10-02T13:03:11Z</time>
      </trkpt>
      <trkpt lat="49.29762" lon="0.13259">
        <ele>7.2</ele>
        <time>2024-10-02T13:03:12Z</time>
      </trkpt>
      <trkpt lat="49.29767" lon="0.13271">
        <ele>7.2</ele>
        <time>2024-10-02T13:03:13Z</time>
      </trkpt>
      <trkpt lat="49.2977" lon="0.13284">
        <ele>7.2</ele>
        <time>2024-10-02T13:03:14Z</time>
      </trkpt>
      <trkpt lat="49.29774" lon="0.13296">
        <ele>7.2</ele>
        <time>2024-10-02T13:03:15Z</time>
      </trkpt>
      <trkpt lat="49.2978" lon="0.13307">
        <ele>7</ele>
        <time>2024-10-02T13:03:16Z</time>
      </trkpt>
      <trkpt lat="49.29786" lon="0.13318">
        <ele>7</ele>
        <time>2024-10-02T13:03:17Z</time>
      </trkpt>
      <trkpt lat="49.29793" lon="0.13329">
        <ele>7</ele>
        <time>2024-10-02T13:03:18Z</time>
      </trkpt>
      <trkpt lat="49.29798" lon="0.1334">
        <ele>7</ele>
        <time>2024-10-02T13:03:19Z</time>
      </trkpt>
      <trkpt lat="49.29804" lon="0.13351">
        <ele>6.8</ele>
        <time>2024-10-02T13:03:20Z</time>
      </trkpt>
      <trkpt lat="49.29809" lon="0.13363">
        <ele>6.8</ele>
        <time>2024-10-02T13:03:21Z</time>
      </trkpt>
      <trkpt lat="49.29815" lon="0.13375">
        <ele>6.8</ele>
        <time>2024-10-02T13:03:22Z</time>
      </trkpt>
      <trkpt lat="49.29819" lon="0.13386">
        <ele>6.6</ele>
        <time>2024-10-02T13:03:23Z</time>
      </trkpt>
      <trkpt lat="49.29821" lon="0.13399">
        <ele>6.6</ele>
        <time>2024-10-02T13:03:24Z</time>
      </trkpt>
      <trkpt lat="49.29825" lon="0.13411">
        <ele>6.6</ele>
        <time>2024-10-02T13:03:25Z</time>
      </trkpt>
      <trkpt lat="49.29828" lon="0.13424">
        <ele>6.2</ele>
        <time>2024-10-02T13:03:26Z</time>
      </trkpt>
      <trkpt lat="49.29831" lon="0.13436">
        <ele>6</ele>
        <time>2024-10-02T13:03:27Z</time>
      </trkpt>
      <trkpt lat="49.29834" lon="0.13448">
        <ele>6</ele>
        <time>2024-10-02T13:03:28Z</time>
      </trkpt>
      <trkpt lat="49.29836" lon="0.13461">
        <ele>5.8</ele>
        <time>2024-10-02T13:03:29Z</time>
      </trkpt>
      <trkpt lat="49.29839" lon="0.13473">
        <ele>5.8</ele>
        <time>2024-10-02T13:03:30Z</time>
      </trkpt>
      <trkpt lat="49.29841" lon="0.13486">
        <ele>5.6</ele>
        <time>2024-10-02T13:03:31Z</time>
      </trkpt>
      <trkpt lat="49.29844" lon="0.13498">
        <ele>5.6</ele>
        <time>2024-10-02T13:03:32Z</time>
      </trkpt>
      <trkpt lat="49.29848" lon="0.1351">
        <ele>5.4</ele>
        <time>2024-10-02T13:03:33Z</time>
      </trkpt>
      <trkpt lat="49.29852" lon="0.13521">
        <ele>5.2</ele>
        <time>2024-10-02T13:03:34Z</time>
      </trkpt>
      <trkpt lat="49.29856" lon="0.13533">
        <ele>5</ele>
        <time>2024-10-02T13:03:35Z</time>
      </trkpt>
      <trkpt lat="49.2986" lon="0.13544">
        <ele>5</ele>
        <time>2024-10-02T13:03:36Z</time>
      </trkpt>
      <trkpt lat="49.29865" lon="0.13554">
        <ele>4.8</ele>
        <time>2024-10-02T13:03:37Z</time>
      </trkpt>
      <trkpt lat="49.29869" lon="0.13565">
        <ele>4.8</ele>
        <time>2024-10-02T13:03:38Z</time>
      </trkpt>
      <trkpt lat="49.29873" lon="0.13575">
        <ele>4.8</ele>
        <time>2024-10-02T13:03:39Z</time>
      </trkpt>
      <trkpt lat="49.29878" lon="0.13585">
        <ele>4.6</ele>
        <time>2024-10-02T13:03:40Z</time>
      </trkpt>
      <trkpt lat="49.29882" lon="0.13595">
        <ele>4.6</ele>
        <time>2024-10-02T13:03:41Z</time>
      </trkpt>
      <trkpt lat="49.29886" lon="0.13605">
        <ele>4.6</ele>
        <time>2024-10-02T13:03:42Z</time>
      </trkpt>
      <trkpt lat="49.29891" lon="0.13616">
        <ele>4.6</ele>
        <time>2024-10-02T13:03:43Z</time>
      </trkpt>
      <trkpt lat="49.29895" lon="0.13626">
        <ele>4.6</ele>
        <time>2024-10-02T13:03:44Z</time>
      </trkpt>
      <trkpt lat="49.29899" lon="0.13636">
        <ele>4.6</ele>
        <time>2024-10-02T13:03:45Z</time>
      </trkpt>
      <trkpt lat="49.29903" lon="0.13646">
        <ele>4.6</ele>
        <time>2024-10-02T13:03:46Z</time>
      </trkpt>
      <trkpt lat="49.29908" lon="0.13657">
        <ele>4.6</ele>
        <time>2024-10-02T13:03:47Z</time>
      </trkpt>
      <trkpt lat="49.29912" lon="0.13667">
        <ele>4.6</ele>
        <time>2024-10-02T13:03:48Z</time>
      </trkpt>
      <trkpt lat="49.29917" lon="0.13678">
        <ele>4.4</ele>
        <time>2024-10-02T13:03:49Z</time>
      </trkpt>
      <trkpt lat="49.29921" lon="0.13688">
        <ele>4.4</ele>
        <time>2024-10-02T13:03:50Z</time>
      </trkpt>
      <trkpt lat="49.29926" lon="0.13698">
        <ele>4.4</ele>
        <time>2024-10-02T13:03:51Z</time>
      </trkpt>
      <trkpt lat="49.2993" lon="0.13708">
        <ele>4.4</ele>
        <time>2024-10-02T13:03:52Z</time>
      </trkpt>
      <trkpt lat="49.29935" lon="0.13718">
        <ele>4.4</ele>
        <time>2024-10-02T13:03:53Z</time>
      </trkpt>
      <trkpt lat="49.2994" lon="0.13729">
        <ele>4.4</ele>
        <time>2024-10-02T13:03:54Z</time>
      </trkpt>
      <trkpt lat="49.29944" lon="0.13739">
        <ele>4.4</ele>
        <time>2024-10-02T13:03:55Z</time>
      </trkpt>
      <trkpt lat="49.29949" lon="0.1375">
        <ele>4.2</ele>
        <time>2024-10-02T13:03:56Z</time>
      </trkpt>
      <trkpt lat="49.29953" lon="0.1376">
        <ele>4.2</ele>
        <time>2024-10-02T13:03:57Z</time>
      </trkpt>
      <trkpt lat="49.29958" lon="0.13771">
        <ele>4</ele>
        <time>2024-10-02T13:03:58Z</time>
      </trkpt>
      <trkpt lat="49.29962" lon="0.13781">
        <ele>4</ele>
        <time>2024-10-02T13:03:59Z</time>
      </trkpt>
      <trkpt lat="49.29967" lon="0.13791">
        <ele>4</ele>
        <time>2024-10-02T13:04:00Z</time>
      </trkpt>
      <trkpt lat="49.29971" lon="0.13802">
        <ele>4</ele>
        <time>2024-10-02T13:04:01Z</time>
      </trkpt>
      <trkpt lat="49.29976" lon="0.13812">
        <ele>3.8</ele>
        <time>2024-10-02T13:04:02Z</time>
      </trkpt>
      <trkpt lat="49.2998" lon="0.13822">
        <ele>3.8</ele>
        <time>2024-10-02T13:04:03Z</time>
      </trkpt>
      <trkpt lat="49.29984" lon="0.13832">
        <ele>4</ele>
        <time>2024-10-02T13:04:04Z</time>
      </trkpt>
      <trkpt lat="49.29989" lon="0.13842">
        <ele>3.6</ele>
        <time>2024-10-02T13:04:05Z</time>
      </trkpt>
      <trkpt lat="49.29993" lon="0.13852">
        <ele>3.8</ele>
        <time>2024-10-02T13:04:06Z</time>
      </trkpt>
      <trkpt lat="49.29997" lon="0.13863">
        <ele>3.8</ele>
        <time>2024-10-02T13:04:07Z</time>
      </trkpt>
      <trkpt lat="49.30001" lon="0.13873">
        <ele>3.8</ele>
        <time>2024-10-02T13:04:08Z</time>
      </trkpt>
      <trkpt lat="49.30006" lon="0.13883">
        <ele>3.8</ele>
        <time>2024-10-02T13:04:09Z</time>
      </trkpt>
      <trkpt lat="49.3001" lon="0.13894">
        <ele>3.8</ele>
        <time>2024-10-02T13:04:10Z</time>
      </trkpt>
      <trkpt lat="49.30015" lon="0.13904">
        <ele>3.8</ele>
        <time>2024-10-02T13:04:11Z</time>
      </trkpt>
      <trkpt lat="49.30019" lon="0.13915">
        <ele>3.8</ele>
        <time>2024-10-02T13:04:12Z</time>
      </trkpt>
      <trkpt lat="49.30023" lon="0.13925">
        <ele>3.8</ele>
        <time>2024-10-02T13:04:13Z</time>
      </trkpt>
      <trkpt lat="49.30028" lon="0.13935">
        <ele>3.8</ele>
        <time>2024-10-02T13:04:14Z</time>
      </trkpt>
      <trkpt lat="49.30032" lon="0.13946">
        <ele>3.8</ele>
        <time>2024-10-02T13:04:15Z</time>
      </trkpt>
      <trkpt lat="49.30036" lon="0.13956">
        <ele>3.8</ele>
        <time>2024-10-02T13:04:16Z</time>
      </trkpt>
      <trkpt lat="49.30041" lon="0.13966">
        <ele>3.8</ele>
        <time>2024-10-02T13:04:17Z</time>
      </trkpt>
      <trkpt lat="49.30045" lon="0.13976">
        <ele>3.8</ele>
        <time>2024-10-02T13:04:18Z</time>
      </trkpt>
      <trkpt lat="49.3005" lon="0.13986">
        <ele>3.8</ele>
        <time>2024-10-02T13:04:19Z</time>
      </trkpt>
      <trkpt lat="49.30055" lon="0.13996">
        <ele>3.8</ele>
        <time>2024-10-02T13:04:20Z</time>
      </trkpt>
      <trkpt lat="49.3006" lon="0.14005">
        <ele>3.8</ele>
        <time>2024-10-02T13:04:21Z</time>
      </trkpt>
      <trkpt lat="49.30065" lon="0.14015">
        <ele>3.8</ele>
        <time>2024-10-02T13:04:22Z</time>
      </trkpt>
      <trkpt lat="49.3007" lon="0.14025">
        <ele>3.8</ele>
        <time>2024-10-02T13:04:23Z</time>
      </trkpt>
      <trkpt lat="49.30076" lon="0.14034">
        <ele>3.8</ele>
        <time>2024-10-02T13:04:24Z</time>
      </trkpt>
      <trkpt lat="49.30081" lon="0.14044">
        <ele>3.8</ele>
        <time>2024-10-02T13:04:25Z</time>
      </trkpt>
      <trkpt lat="49.30087" lon="0.14053">
        <ele>3.8</ele>
        <time>2024-10-02T13:04:26Z</time>
      </trkpt>
      <trkpt lat="49.30092" lon="0.14062">
        <ele>3.8</ele>
        <time>2024-10-02T13:04:27Z</time>
      </trkpt>
      <trkpt lat="49.30097" lon="0.14072">
        <ele>3.8</ele>
        <time>2024-10-02T13:04:28Z</time>
      </trkpt>
      <trkpt lat="49.30102" lon="0.14081">
        <ele>3.8</ele>
        <time>2024-10-02T13:04:29Z</time>
      </trkpt>
      <trkpt lat="49.30108" lon="0.14091">
        <ele>3.8</ele>
        <time>2024-10-02T13:04:30Z</time>
      </trkpt>
      <trkpt lat="49.30113" lon="0.14101">
        <ele>3.8</ele>
        <time>2024-10-02T13:04:31Z</time>
      </trkpt>
      <trkpt lat="49.30117" lon="0.14111">
        <ele>3.8</ele>
        <time>2024-10-02T13:04:32Z</time>
      </trkpt>
      <trkpt lat="49.30122" lon="0.14121">
        <ele>3.8</ele>
        <time>2024-10-02T13:04:33Z</time>
      </trkpt>
      <trkpt lat="49.30127" lon="0.14131">
        <ele>3.8</ele>
        <time>2024-10-02T13:04:34Z</time>
      </trkpt>
      <trkpt lat="49.30132" lon="0.14141">
        <ele>3.8</ele>
        <time>2024-10-02T13:04:35Z</time>
      </trkpt>
      <trkpt lat="49.30136" lon="0.14151">
        <ele>3.8</ele>
        <time>2024-10-02T13:04:36Z</time>
      </trkpt>
      <trkpt lat="49.30141" lon="0.14161">
        <ele>3.8</ele>
        <time>2024-10-02T13:04:37Z</time>
      </trkpt>
      <trkpt lat="49.30145" lon="0.14171">
        <ele>3.6</ele>
        <time>2024-10-02T13:04:38Z</time>
      </trkpt>
      <trkpt lat="49.3015" lon="0.14181">
        <ele>3.6</ele>
        <time>2024-10-02T13:04:39Z</time>
      </trkpt>
      <trkpt lat="49.30154" lon="0.14192">
        <ele>3.6</ele>
        <time>2024-10-02T13:04:40Z</time>
      </trkpt>
      <trkpt lat="49.30158" lon="0.14203">
        <ele>3.6</ele>
        <time>2024-10-02T13:04:41Z</time>
      </trkpt>
      <trkpt lat="49.30162" lon="0.14213">
        <ele>3.6</ele>
        <time>2024-10-02T13:04:42Z</time>
      </trkpt>
      <trkpt lat="49.30168" lon="0.14226">
        <ele>3.6</ele>
        <time>2024-10-02T13:04:43Z</time>
      </trkpt>
      <trkpt lat="49.30171" lon="0.14234">
        <ele>3.6</ele>
        <time>2024-10-02T13:04:44Z</time>
      </trkpt>
      <trkpt lat="49.30175" lon="0.14245">
        <ele>3.6</ele>
        <time>2024-10-02T13:04:45Z</time>
      </trkpt>
      <trkpt lat="49.30179" lon="0.14256">
        <ele>3.8</ele>
        <time>2024-10-02T13:04:46Z</time>
      </trkpt>
      <trkpt lat="49.30184" lon="0.14267">
        <ele>3.8</ele>
        <time>2024-10-02T13:04:47Z</time>
      </trkpt>
      <trkpt lat="49.30188" lon="0.14278">
        <ele>3.8</ele>
        <time>2024-10-02T13:04:48Z</time>
      </trkpt>
      <trkpt lat="49.30192" lon="0.14289">
        <ele>3.8</ele>
        <time>2024-10-02T13:04:49Z</time>
      </trkpt>
      <trkpt lat="49.30196" lon="0.143">
        <ele>3.8</ele>
        <time>2024-10-02T13:04:50Z</time>
      </trkpt>
      <trkpt lat="49.30201" lon="0.14312">
        <ele>3.8</ele>
        <time>2024-10-02T13:04:51Z</time>
      </trkpt>
      <trkpt lat="49.30205" lon="0.14323">
        <ele>3.8</ele>
        <time>2024-10-02T13:04:52Z</time>
      </trkpt>
      <trkpt lat="49.30209" lon="0.14334">
        <ele>3.8</ele>
        <time>2024-10-02T13:04:53Z</time>
      </trkpt>
      <trkpt lat="49.30213" lon="0.14345">
        <ele>3.8</ele>
        <time>2024-10-02T13:04:54Z</time>
      </trkpt>
      <trkpt lat="49.30218" lon="0.14356">
        <ele>4</ele>
        <time>2024-10-02T13:04:55Z</time>
      </trkpt>
      <trkpt lat="49.30222" lon="0.14367">
        <ele>4</ele>
        <time>2024-10-02T13:04:56Z</time>
      </trkpt>
      <trkpt lat="49.30226" lon="0.14379">
        <ele>4</ele>
        <time>2024-10-02T13:04:57Z</time>
      </trkpt>
      <trkpt lat="49.3023" lon="0.1439">
        <ele>4.2</ele>
        <time>2024-10-02T13:04:58Z</time>
      </trkpt>
      <trkpt lat="49.30234" lon="0.14401">
        <ele>4.2</ele>
        <time>2024-10-02T13:04:59Z</time>
      </trkpt>
      <trkpt lat="49.30238" lon="0.14412">
        <ele>4.4</ele>
        <time>2024-10-02T13:05:00Z</time>
      </trkpt>
      <trkpt lat="49.30243" lon="0.14423">
        <ele>4.4</ele>
        <time>2024-10-02T13:05:01Z</time>
      </trkpt>
      <trkpt lat="49.30248" lon="0.14433">
        <ele>4.4</ele>
        <time>2024-10-02T13:05:02Z</time>
      </trkpt>
      <trkpt lat="49.30254" lon="0.14444">
        <ele>4.4</ele>
        <time>2024-10-02T13:05:03Z</time>
      </trkpt>
      <trkpt lat="49.30259" lon="0.14454">
        <ele>4.6</ele>
        <time>2024-10-02T13:05:04Z</time>
      </trkpt>
      <trkpt lat="49.30265" lon="0.14463">
        <ele>4.6</ele>
        <time>2024-10-02T13:05:05Z</time>
      </trkpt>
      <trkpt lat="49.30271" lon="0.14473">
        <ele>4.6</ele>
        <time>2024-10-02T13:05:06Z</time>
      </trkpt>
      <trkpt lat="49.30277" lon="0.14482">
        <ele>4.6</ele>
        <time>2024-10-02T13:05:07Z</time>
      </trkpt>
      <trkpt lat="49.30283" lon="0.14491">
        <ele>4.6</ele>
        <time>2024-10-02T13:05:08Z</time>
      </trkpt>
      <trkpt lat="49.30289" lon="0.145">
        <ele>4.6</ele>
        <time>2024-10-02T13:05:09Z</time>
      </trkpt>
      <trkpt lat="49.30295" lon="0.1451">
        <ele>4.6</ele>
        <time>2024-10-02T13:05:10Z</time>
      </trkpt>
      <trkpt lat="49.303" lon="0.14519">
        <ele>4.6</ele>
        <time>2024-10-02T13:05:11Z</time>
      </trkpt>
      <trkpt lat="49.30306" lon="0.14529">
        <ele>4.6</ele>
        <time>2024-10-02T13:05:12Z</time>
      </trkpt>
      <trkpt lat="49.30311" lon="0.1454">
        <ele>4.6</ele>
        <time>2024-10-02T13:05:13Z</time>
      </trkpt>
      <trkpt lat="49.30315" lon="0.14551">
        <ele>4.6</ele>
        <time>2024-10-02T13:05:14Z</time>
      </trkpt>
      <trkpt lat="49.3032" lon="0.14562">
        <ele>4.6</ele>
        <time>2024-10-02T13:05:15Z</time>
      </trkpt>
      <trkpt lat="49.30324" lon="0.14573">
        <ele>4.6</ele>
        <time>2024-10-02T13:05:16Z</time>
      </trkpt>
      <trkpt lat="49.30328" lon="0.14584">
        <ele>4.6</ele>
        <time>2024-10-02T13:05:17Z</time>
      </trkpt>
      <trkpt lat="49.30332" lon="0.14595">
        <ele>4.6</ele>
        <time>2024-10-02T13:05:18Z</time>
      </trkpt>
      <trkpt lat="49.30336" lon="0.14606">
        <ele>4.6</ele>
        <time>2024-10-02T13:05:19Z</time>
      </trkpt>
      <trkpt lat="49.3034" lon="0.14617">
        <ele>4.6</ele>
        <time>2024-10-02T13:05:20Z</time>
      </trkpt>
      <trkpt lat="49.30344" lon="0.14628">
        <ele>4.6</ele>
        <time>2024-10-02T13:05:21Z</time>
      </trkpt>
      <trkpt lat="49.30349" lon="0.14639">
        <ele>4.6</ele>
        <time>2024-10-02T13:05:22Z</time>
      </trkpt>
      <trkpt lat="49.30354" lon="0.1465">
        <ele>4.6</ele>
        <time>2024-10-02T13:05:23Z</time>
      </trkpt>
      <trkpt lat="49.30358" lon="0.14661">
        <ele>4.6</ele>
        <time>2024-10-02T13:05:24Z</time>
      </trkpt>
      <trkpt lat="49.30363" lon="0.14671">
        <ele>4.6</ele>
        <time>2024-10-02T13:05:25Z</time>
      </trkpt>
      <trkpt lat="49.30368" lon="0.14682">
        <ele>4.6</ele>
        <time>2024-10-02T13:05:26Z</time>
      </trkpt>
      <trkpt lat="49.30373" lon="0.14692">
        <ele>4.8</ele>
        <time>2024-10-02T13:05:27Z</time>
      </trkpt>
      <trkpt lat="49.30378" lon="0.14702">
        <ele>4.8</ele>
        <time>2024-10-02T13:05:28Z</time>
      </trkpt>
      <trkpt lat="49.30383" lon="0.14712">
        <ele>5</ele>
        <time>2024-10-02T13:05:29Z</time>
      </trkpt>
      <trkpt lat="49.30388" lon="0.14721">
        <ele>5.2</ele>
        <time>2024-10-02T13:05:30Z</time>
      </trkpt>
      <trkpt lat="49.30393" lon="0.14731">
        <ele>5.4</ele>
        <time>2024-10-02T13:05:31Z</time>
      </trkpt>
      <trkpt lat="49.30398" lon="0.1474">
        <ele>5.4</ele>
        <time>2024-10-02T13:05:32Z</time>
      </trkpt>
      <trkpt lat="49.30404" lon="0.1475">
        <ele>5.6</ele>
        <time>2024-10-02T13:05:33Z</time>
      </trkpt>
      <trkpt lat="49.30409" lon="0.14759">
        <ele>5.8</ele>
        <time>2024-10-02T13:05:34Z</time>
      </trkpt>
      <trkpt lat="49.30414" lon="0.14769">
        <ele>5.8</ele>
        <time>2024-10-02T13:05:35Z</time>
      </trkpt>
      <trkpt lat="49.30419" lon="0.14778">
        <ele>6</ele>
        <time>2024-10-02T13:05:36Z</time>
      </trkpt>
      <trkpt lat="49.30424" lon="0.14789">
        <ele>6</ele>
        <time>2024-10-02T13:05:37Z</time>
      </trkpt>
      <trkpt lat="49.3043" lon="0.14799">
        <ele>6.2</ele>
        <time>2024-10-02T13:05:38Z</time>
      </trkpt>
      <trkpt lat="49.30436" lon="0.14809">
        <ele>6.4</ele>
        <time>2024-10-02T13:05:39Z</time>
      </trkpt>
      <trkpt lat="49.30441" lon="0.14819">
        <ele>6.6</ele>
        <time>2024-10-02T13:05:40Z</time>
      </trkpt>
      <trkpt lat="49.30447" lon="0.14829">
        <ele>6.6</ele>
        <time>2024-10-02T13:05:41Z</time>
      </trkpt>
      <trkpt lat="49.30453" lon="0.14839">
        <ele>6.8</ele>
        <time>2024-10-02T13:05:42Z</time>
      </trkpt>
      <trkpt lat="49.30459" lon="0.14849">
        <ele>6.8</ele>
        <time>2024-10-02T13:05:43Z</time>
      </trkpt>
      <trkpt lat="49.30465" lon="0.14858">
        <ele>6.8</ele>
        <time>2024-10-02T13:05:44Z</time>
      </trkpt>
      <trkpt lat="49.30472" lon="0.14866">
        <ele>6.8</ele>
        <time>2024-10-02T13:05:45Z</time>
      </trkpt>
      <trkpt lat="49.30479" lon="0.14874">
        <ele>6.8</ele>
        <time>2024-10-02T13:05:46Z</time>
      </trkpt>
      <trkpt lat="49.30486" lon="0.14881">
        <ele>6.8</ele>
        <time>2024-10-02T13:05:47Z</time>
      </trkpt>
      <trkpt lat="49.30493" lon="0.14888">
        <ele>6.8</ele>
        <time>2024-10-02T13:05:48Z</time>
      </trkpt>
      <trkpt lat="49.305" lon="0.14895">
        <ele>6.8</ele>
        <time>2024-10-02T13:05:49Z</time>
      </trkpt>
      <trkpt lat="49.30508" lon="0.14901">
        <ele>6.8</ele>
        <time>2024-10-02T13:05:50Z</time>
      </trkpt>
      <trkpt lat="49.30515" lon="0.14908">
        <ele>6.8</ele>
        <time>2024-10-02T13:05:51Z</time>
      </trkpt>
      <trkpt lat="49.30523" lon="0.14915">
        <ele>6.6</ele>
        <time>2024-10-02T13:05:52Z</time>
      </trkpt>
      <trkpt lat="49.3053" lon="0.14922">
        <ele>6.6</ele>
        <time>2024-10-02T13:05:53Z</time>
      </trkpt>
      <trkpt lat="49.30537" lon="0.14929">
        <ele>6.4</ele>
        <time>2024-10-02T13:05:54Z</time>
      </trkpt>
      <trkpt lat="49.30544" lon="0.14937">
        <ele>6.4</ele>
        <time>2024-10-02T13:05:55Z</time>
      </trkpt>
      <trkpt lat="49.30552" lon="0.14944">
        <ele>6.4</ele>
        <time>2024-10-02T13:05:56Z</time>
      </trkpt>
      <trkpt lat="49.30559" lon="0.14951">
        <ele>6.4</ele>
        <time>2024-10-02T13:05:57Z</time>
      </trkpt>
      <trkpt lat="49.30567" lon="0.14958">
        <ele>6.4</ele>
        <time>2024-10-02T13:05:58Z</time>
      </trkpt>
      <trkpt lat="49.30574" lon="0.14965">
        <ele>6.4</ele>
        <time>2024-10-02T13:05:59Z</time>
      </trkpt>
      <trkpt lat="49.30581" lon="0.14972">
        <ele>6.4</ele>
        <time>2024-10-02T13:06:00Z</time>
      </trkpt>
      <trkpt lat="49.30589" lon="0.14979">
        <ele>6.4</ele>
        <time>2024-10-02T13:06:01Z</time>
      </trkpt>
      <trkpt lat="49.30596" lon="0.14987">
        <ele>6.4</ele>
        <time>2024-10-02T13:06:02Z</time>
      </trkpt>
      <trkpt lat="49.30604" lon="0.14994">
        <ele>6.4</ele>
        <time>2024-10-02T13:06:03Z</time>
      </trkpt>
      <trkpt lat="49.30611" lon="0.15002">
        <ele>6.4</ele>
        <time>2024-10-02T13:06:04Z</time>
      </trkpt>
      <trkpt lat="49.30619" lon="0.15009">
        <ele>6.4</ele>
        <time>2024-10-02T13:06:05Z</time>
      </trkpt>
      <trkpt lat="49.30625" lon="0.15018">
        <ele>6.6</ele>
        <time>2024-10-02T13:06:06Z</time>
      </trkpt>
      <trkpt lat="49.30632" lon="0.15027">
        <ele>6.6</ele>
        <time>2024-10-02T13:06:07Z</time>
      </trkpt>
      <trkpt lat="49.30638" lon="0.15036">
        <ele>6.6</ele>
        <time>2024-10-02T13:06:08Z</time>
      </trkpt>
      <trkpt lat="49.30643" lon="0.15046">
        <ele>6.6</ele>
        <time>2024-10-02T13:06:09Z</time>
      </trkpt>
      <trkpt lat="49.30649" lon="0.15056">
        <ele>6.8</ele>
        <time>2024-10-02T13:06:10Z</time>
      </trkpt>
      <trkpt lat="49.30653" lon="0.15067">
        <ele>7</ele>
        <time>2024-10-02T13:06:11Z</time>
      </trkpt>
      <trkpt lat="49.30658" lon="0.15079">
        <ele>7</ele>
        <time>2024-10-02T13:06:12Z</time>
      </trkpt>
      <trkpt lat="49.30662" lon="0.1509">
        <ele>7</ele>
        <time>2024-10-02T13:06:13Z</time>
      </trkpt>
      <trkpt lat="49.30665" lon="0.15102">
        <ele>7</ele>
        <time>2024-10-02T13:06:14Z</time>
      </trkpt>
      <trkpt lat="49.30669" lon="0.15114">
        <ele>7</ele>
        <time>2024-10-02T13:06:15Z</time>
      </trkpt>
      <trkpt lat="49.30673" lon="0.15127">
        <ele>7.2</ele>
        <time>2024-10-02T13:06:16Z</time>
      </trkpt>
      <trkpt lat="49.30677" lon="0.15139">
        <ele>7.2</ele>
        <time>2024-10-02T13:06:17Z</time>
      </trkpt>
      <trkpt lat="49.3068" lon="0.15151">
        <ele>7</ele>
        <time>2024-10-02T13:06:18Z</time>
      </trkpt>
      <trkpt lat="49.30683" lon="0.15163">
        <ele>7</ele>
        <time>2024-10-02T13:06:19Z</time>
      </trkpt>
      <trkpt lat="49.30687" lon="0.15176">
        <ele>7</ele>
        <time>2024-10-02T13:06:20Z</time>
      </trkpt>
      <trkpt lat="49.3069" lon="0.15188">
        <ele>7</ele>
        <time>2024-10-02T13:06:21Z</time>
      </trkpt>
      <trkpt lat="49.30694" lon="0.152">
        <ele>7</ele>
        <time>2024-10-02T13:06:22Z</time>
      </trkpt>
      <trkpt lat="49.30697" lon="0.15211">
        <ele>6.8</ele>
        <time>2024-10-02T13:06:23Z</time>
      </trkpt>
      <trkpt lat="49.30701" lon="0.15223">
        <ele>6.8</ele>
        <time>2024-10-02T13:06:24Z</time>
      </trkpt>
      <trkpt lat="49.30704" lon="0.15235">
        <ele>6.8</ele>
        <time>2024-10-02T13:06:25Z</time>
      </trkpt>
      <trkpt lat="49.30708" lon="0.15247">
        <ele>6.8</ele>
        <time>2024-10-02T13:06:26Z</time>
      </trkpt>
      <trkpt lat="49.30711" lon="0.1526">
        <ele>7</ele>
        <time>2024-10-02T13:06:27Z</time>
      </trkpt>
      <trkpt lat="49.30714" lon="0.15272">
        <ele>7</ele>
        <time>2024-10-02T13:06:28Z</time>
      </trkpt>
      <trkpt lat="49.30717" lon="0.15284">
        <ele>7</ele>
        <time>2024-10-02T13:06:29Z</time>
      </trkpt>
      <trkpt lat="49.3072" lon="0.15295">
        <ele>7</ele>
        <time>2024-10-02T13:06:30Z</time>
      </trkpt>
      <trkpt lat="49.30723" lon="0.15306">
        <ele>7.2</ele>
        <time>2024-10-02T13:06:31Z</time>
      </trkpt>
      <trkpt lat="49.30726" lon="0.15317">
        <ele>7.2</ele>
        <time>2024-10-02T13:06:32Z</time>
      </trkpt>
      <trkpt lat="49.30729" lon="0.15326">
        <ele>7.6</ele>
        <time>2024-10-02T13:06:33Z</time>
      </trkpt>
      <trkpt lat="49.30732" lon="0.15338">
        <ele>7.8</ele>
        <time>2024-10-02T13:06:34Z</time>
      </trkpt>
      <trkpt lat="49.30734" lon="0.15344">
        <ele>7.8</ele>
        <time>2024-10-02T13:06:35Z</time>
      </trkpt>
      <trkpt lat="49.30736" lon="0.15352">
        <ele>8</ele>
        <time>2024-10-02T13:06:36Z</time>
      </trkpt>
      <trkpt lat="49.30739" lon="0.15359">
        <ele>8</ele>
        <time>2024-10-02T13:06:37Z</time>
      </trkpt>
      <trkpt lat="49.30741" lon="0.15364">
        <ele>8.2</ele>
        <time>2024-10-02T13:06:38Z</time>
      </trkpt>
      <trkpt lat="49.30743" lon="0.15369">
        <ele>8.4</ele>
        <time>2024-10-02T13:06:39Z</time>
      </trkpt>
      <trkpt lat="49.30744" lon="0.15373">
        <ele>8.4</ele>
        <time>2024-10-02T13:06:40Z</time>
      </trkpt>
      <trkpt lat="49.30745" lon="0.15376">
        <ele>8.6</ele>
        <time>2024-10-02T13:06:41Z</time>
      </trkpt>
      <trkpt lat="49.30746" lon="0.15378">
        <ele>8.8</ele>
        <time>2024-10-02T13:06:42Z</time>
      </trkpt>
      <trkpt lat="49.30746" lon="0.15379">
        <ele>9</ele>
        <time>2024-10-02T13:06:43Z</time>
      </trkpt>
      <trkpt lat="49.30746" lon="0.15379">
        <ele>9</ele>
        <time>2024-10-02T13:06:44Z</time>
      </trkpt>
      <trkpt lat="49.30747" lon="0.15387">
        <ele>10.2</ele>
        <time>2024-10-02T13:06:52Z</time>
      </trkpt>
      <trkpt lat="49.30748" lon="0.1539">
        <ele>10.4</ele>
        <time>2024-10-02T13:06:53Z</time>
      </trkpt>
      <trkpt lat="49.30749" lon="0.15394">
        <ele>10.4</ele>
        <time>2024-10-02T13:06:54Z</time>
      </trkpt>
      <trkpt lat="49.30749" lon="0.15397">
        <ele>10.4</ele>
        <time>2024-10-02T13:06:55Z</time>
      </trkpt>
      <trkpt lat="49.30751" lon="0.15401">
        <ele>10.4</ele>
        <time>2024-10-02T13:06:56Z</time>
      </trkpt>
      <trkpt lat="49.30753" lon="0.15406">
        <ele>10.4</ele>
        <time>2024-10-02T13:06:57Z</time>
      </trkpt>
      <trkpt lat="49.30756" lon="0.15411">
        <ele>10.4</ele>
        <time>2024-10-02T13:06:58Z</time>
      </trkpt>
      <trkpt lat="49.30757" lon="0.15417">
        <ele>10.4</ele>
        <time>2024-10-02T13:06:59Z</time>
      </trkpt>
      <trkpt lat="49.3076" lon="0.15424">
        <ele>10.4</ele>
        <time>2024-10-02T13:07:00Z</time>
      </trkpt>
      <trkpt lat="49.30762" lon="0.15431">
        <ele>10.4</ele>
        <time>2024-10-02T13:07:01Z</time>
      </trkpt>
      <trkpt lat="49.30765" lon="0.15439">
        <ele>10.4</ele>
        <time>2024-10-02T13:07:02Z</time>
      </trkpt>
      <trkpt lat="49.30768" lon="0.1545">
        <ele>10.4</ele>
        <time>2024-10-02T13:07:03Z</time>
      </trkpt>
      <trkpt lat="49.3077" lon="0.15458">
        <ele>10.4</ele>
        <time>2024-10-02T13:07:04Z</time>
      </trkpt>
      <trkpt lat="49.30773" lon="0.15468">
        <ele>10.2</ele>
        <time>2024-10-02T13:07:05Z</time>
      </trkpt>
      <trkpt lat="49.30776" lon="0.15478">
        <ele>10.2</ele>
        <time>2024-10-02T13:07:06Z</time>
      </trkpt>
      <trkpt lat="49.30778" lon="0.15489">
        <ele>10</ele>
        <time>2024-10-02T13:07:07Z</time>
      </trkpt>
      <trkpt lat="49.30781" lon="0.15499">
        <ele>10</ele>
        <time>2024-10-02T13:07:08Z</time>
      </trkpt>
      <trkpt lat="49.30783" lon="0.1551">
        <ele>9.8</ele>
        <time>2024-10-02T13:07:09Z</time>
      </trkpt>
      <trkpt lat="49.30784" lon="0.1552">
        <ele>9.8</ele>
        <time>2024-10-02T13:07:10Z</time>
      </trkpt>
      <trkpt lat="49.30786" lon="0.15531">
        <ele>9.8</ele>
        <time>2024-10-02T13:07:11Z</time>
      </trkpt>
      <trkpt lat="49.30787" lon="0.15542">
        <ele>9.8</ele>
        <time>2024-10-02T13:07:12Z</time>
      </trkpt>
      <trkpt lat="49.30788" lon="0.15553">
        <ele>9.8</ele>
        <time>2024-10-02T13:07:13Z</time>
      </trkpt>
      <trkpt lat="49.30789" lon="0.15565">
        <ele>9.8</ele>
        <time>2024-10-02T13:07:14Z</time>
      </trkpt>
      <trkpt lat="49.30791" lon="0.15576">
        <ele>9.8</ele>
        <time>2024-10-02T13:07:15Z</time>
      </trkpt>
      <trkpt lat="49.30792" lon="0.15587">
        <ele>9.8</ele>
        <time>2024-10-02T13:07:16Z</time>
      </trkpt>
      <trkpt lat="49.30794" lon="0.15598">
        <ele>9.8</ele>
        <time>2024-10-02T13:07:17Z</time>
      </trkpt>
      <trkpt lat="49.30794" lon="0.15609">
        <ele>9.8</ele>
        <time>2024-10-02T13:07:18Z</time>
      </trkpt>
      <trkpt lat="49.30794" lon="0.15619">
        <ele>9.8</ele>
        <time>2024-10-02T13:07:19Z</time>
      </trkpt>
      <trkpt lat="49.30794" lon="0.1563">
        <ele>9.8</ele>
        <time>2024-10-02T13:07:20Z</time>
      </trkpt>
      <trkpt lat="49.30794" lon="0.1564">
        <ele>10</ele>
        <time>2024-10-02T13:07:21Z</time>
      </trkpt>
      <trkpt lat="49.30794" lon="0.1565">
        <ele>10.2</ele>
        <time>2024-10-02T13:07:22Z</time>
      </trkpt>
      <trkpt lat="49.30794" lon="0.1566">
        <ele>10.2</ele>
        <time>2024-10-02T13:07:23Z</time>
      </trkpt>
      <trkpt lat="49.30794" lon="0.1567">
        <ele>10.2</ele>
        <time>2024-10-02T13:07:24Z</time>
      </trkpt>
      <trkpt lat="49.30794" lon="0.15679">
        <ele>10.4</ele>
        <time>2024-10-02T13:07:25Z</time>
      </trkpt>
      <trkpt lat="49.30794" lon="0.15688">
        <ele>10.6</ele>
        <time>2024-10-02T13:07:26Z</time>
      </trkpt>
      <trkpt lat="49.30794" lon="0.15697">
        <ele>10.6</ele>
        <time>2024-10-02T13:07:27Z</time>
      </trkpt>
      <trkpt lat="49.30793" lon="0.15707">
        <ele>11</ele>
        <time>2024-10-02T13:07:28Z</time>
      </trkpt>
      <trkpt lat="49.30793" lon="0.15716">
        <ele>11.2</ele>
        <time>2024-10-02T13:07:29Z</time>
      </trkpt>
      <trkpt lat="49.30793" lon="0.15725">
        <ele>11.4</ele>
        <time>2024-10-02T13:07:30Z</time>
      </trkpt>
      <trkpt lat="49.30793" lon="0.15734">
        <ele>11.4</ele>
        <time>2024-10-02T13:07:31Z</time>
      </trkpt>
      <trkpt lat="49.30793" lon="0.15743">
        <ele>11.6</ele>
        <time>2024-10-02T13:07:32Z</time>
      </trkpt>
      <trkpt lat="49.30793" lon="0.15752">
        <ele>12</ele>
        <time>2024-10-02T13:07:33Z</time>
      </trkpt>
      <trkpt lat="49.30793" lon="0.15761">
        <ele>12.6</ele>
        <time>2024-10-02T13:07:34Z</time>
      </trkpt>
      <trkpt lat="49.30793" lon="0.1577">
        <ele>12.8</ele>
        <time>2024-10-02T13:07:35Z</time>
      </trkpt>
      <trkpt lat="49.30793" lon="0.15779">
        <ele>13.2</ele>
        <time>2024-10-02T13:07:36Z</time>
      </trkpt>
      <trkpt lat="49.30793" lon="0.1579">
        <ele>13.4</ele>
        <time>2024-10-02T13:07:37Z</time>
      </trkpt>
      <trkpt lat="49.30794" lon="0.15797">
        <ele>13.4</ele>
        <time>2024-10-02T13:07:38Z</time>
      </trkpt>
      <trkpt lat="49.30794" lon="0.15806">
        <ele>13.6</ele>
        <time>2024-10-02T13:07:39Z</time>
      </trkpt>
      <trkpt lat="49.30795" lon="0.15814">
        <ele>13.8</ele>
        <time>2024-10-02T13:07:40Z</time>
      </trkpt>
      <trkpt lat="49.30797" lon="0.15823">
        <ele>14</ele>
        <time>2024-10-02T13:07:41Z</time>
      </trkpt>
      <trkpt lat="49.30799" lon="0.15831">
        <ele>14.2</ele>
        <time>2024-10-02T13:07:42Z</time>
      </trkpt>
      <trkpt lat="49.30801" lon="0.1584">
        <ele>14.4</ele>
        <time>2024-10-02T13:07:43Z</time>
      </trkpt>
      <trkpt lat="49.30803" lon="0.15849">
        <ele>14.8</ele>
        <time>2024-10-02T13:07:44Z</time>
      </trkpt>
      <trkpt lat="49.30806" lon="0.15859">
        <ele>15.2</ele>
        <time>2024-10-02T13:07:45Z</time>
      </trkpt>
      <trkpt lat="49.30809" lon="0.15865">
        <ele>15.2</ele>
        <time>2024-10-02T13:07:46Z</time>
      </trkpt>
      <trkpt lat="49.30812" lon="0.15872">
        <ele>15.4</ele>
        <time>2024-10-02T13:07:47Z</time>
      </trkpt>
      <trkpt lat="49.30815" lon="0.15879">
        <ele>15.4</ele>
        <time>2024-10-02T13:07:48Z</time>
      </trkpt>
      <trkpt lat="49.30818" lon="0.15886">
        <ele>15.8</ele>
        <time>2024-10-02T13:07:49Z</time>
      </trkpt>
      <trkpt lat="49.30822" lon="0.15893">
        <ele>16</ele>
        <time>2024-10-02T13:07:50Z</time>
      </trkpt>
      <trkpt lat="49.30826" lon="0.15899">
        <ele>16.2</ele>
        <time>2024-10-02T13:07:51Z</time>
      </trkpt>
      <trkpt lat="49.3083" lon="0.15905">
        <ele>16.4</ele>
        <time>2024-10-02T13:07:52Z</time>
      </trkpt>
      <trkpt lat="49.30834" lon="0.15911">
        <ele>16.6</ele>
        <time>2024-10-02T13:07:53Z</time>
      </trkpt>
      <trkpt lat="49.30838" lon="0.15916">
        <ele>16.8</ele>
        <time>2024-10-02T13:07:54Z</time>
      </trkpt>
      <trkpt lat="49.30843" lon="0.15922">
        <ele>17</ele>
        <time>2024-10-02T13:07:55Z</time>
      </trkpt>
      <trkpt lat="49.30847" lon="0.15928">
        <ele>17.4</ele>
        <time>2024-10-02T13:07:56Z</time>
      </trkpt>
      <trkpt lat="49.30852" lon="0.15933">
        <ele>17.8</ele>
        <time>2024-10-02T13:07:57Z</time>
      </trkpt>
      <trkpt lat="49.30857" lon="0.15938">
        <ele>18</ele>
        <time>2024-10-02T13:07:58Z</time>
      </trkpt>
      <trkpt lat="49.30862" lon="0.15944">
        <ele>18.2</ele>
        <time>2024-10-02T13:07:59Z</time>
      </trkpt>
      <trkpt lat="49.30866" lon="0.15949">
        <ele>18.2</ele>
        <time>2024-10-02T13:08:00Z</time>
      </trkpt>
      <trkpt lat="49.30871" lon="0.15954">
        <ele>18.2</ele>
        <time>2024-10-02T13:08:01Z</time>
      </trkpt>
      <trkpt lat="49.30876" lon="0.15959">
        <ele>18.4</ele>
        <time>2024-10-02T13:08:02Z</time>
      </trkpt>
      <trkpt lat="49.30881" lon="0.15965">
        <ele>18.6</ele>
        <time>2024-10-02T13:08:03Z</time>
      </trkpt>
      <trkpt lat="49.30886" lon="0.15969">
        <ele>19</ele>
        <time>2024-10-02T13:08:04Z</time>
      </trkpt>
      <trkpt lat="49.30891" lon="0.15974">
        <ele>19.2</ele>
        <time>2024-10-02T13:08:05Z</time>
      </trkpt>
      <trkpt lat="49.30896" lon="0.15979">
        <ele>19.4</ele>
        <time>2024-10-02T13:08:06Z</time>
      </trkpt>
      <trkpt lat="49.30901" lon="0.15984">
        <ele>19.6</ele>
        <time>2024-10-02T13:08:07Z</time>
      </trkpt>
      <trkpt lat="49.30906" lon="0.15989">
        <ele>19.8</ele>
        <time>2024-10-02T13:08:08Z</time>
      </trkpt>
      <trkpt lat="49.30911" lon="0.15994">
        <ele>19.8</ele>
        <time>2024-10-02T13:08:09Z</time>
      </trkpt>
      <trkpt lat="49.30916" lon="0.16">
        <ele>20</ele>
        <time>2024-10-02T13:08:10Z</time>
      </trkpt>
      <trkpt lat="49.30922" lon="0.16005">
        <ele>20.2</ele>
        <time>2024-10-02T13:08:11Z</time>
      </trkpt>
      <trkpt lat="49.30927" lon="0.1601">
        <ele>20</ele>
        <time>2024-10-02T13:08:12Z</time>
      </trkpt>
      <trkpt lat="49.30932" lon="0.16015">
        <ele>20</ele>
        <time>2024-10-02T13:08:13Z</time>
      </trkpt>
      <trkpt lat="49.30936" lon="0.16021">
        <ele>20.2</ele>
        <time>2024-10-02T13:08:14Z</time>
      </trkpt>
      <trkpt lat="49.30941" lon="0.16027">
        <ele>20.4</ele>
        <time>2024-10-02T13:08:15Z</time>
      </trkpt>
      <trkpt lat="49.30946" lon="0.16033">
        <ele>20.4</ele>
        <time>2024-10-02T13:08:16Z</time>
      </trkpt>
      <trkpt lat="49.30951" lon="0.16039">
        <ele>20.4</ele>
        <time>2024-10-02T13:08:17Z</time>
      </trkpt>
      <trkpt lat="49.30956" lon="0.16045">
        <ele>20.4</ele>
        <time>2024-10-02T13:08:18Z</time>
      </trkpt>
      <trkpt lat="49.3096" lon="0.16052">
        <ele>20.6</ele>
        <time>2024-10-02T13:08:19Z</time>
      </trkpt>
      <trkpt lat="49.30964" lon="0.16058">
        <ele>20.6</ele>
        <time>2024-10-02T13:08:20Z</time>
      </trkpt>
      <trkpt lat="49.30969" lon="0.16065">
        <ele>20.6</ele>
        <time>2024-10-02T13:08:21Z</time>
      </trkpt>
      <trkpt lat="49.30973" lon="0.16072">
        <ele>20.8</ele>
        <time>2024-10-02T13:08:22Z</time>
      </trkpt>
      <trkpt lat="49.30977" lon="0.16079">
        <ele>20.8</ele>
        <time>2024-10-02T13:08:23Z</time>
      </trkpt>
      <trkpt lat="49.30981" lon="0.16086">
        <ele>21</ele>
        <time>2024-10-02T13:08:24Z</time>
      </trkpt>
      <trkpt lat="49.30985" lon="0.16093">
        <ele>21</ele>
        <time>2024-10-02T13:08:25Z</time>
      </trkpt>
      <trkpt lat="49.30988" lon="0.16101">
        <ele>21</ele>
        <time>2024-10-02T13:08:26Z</time>
      </trkpt>
      <trkpt lat="49.30992" lon="0.16108">
        <ele>21.2</ele>
        <time>2024-10-02T13:08:27Z</time>
      </trkpt>
      <trkpt lat="49.30995" lon="0.16115">
        <ele>21.2</ele>
        <time>2024-10-02T13:08:28Z</time>
      </trkpt>
      <trkpt lat="49.30999" lon="0.16123">
        <ele>21.4</ele>
        <time>2024-10-02T13:08:29Z</time>
      </trkpt>
      <trkpt lat="49.31002" lon="0.16131">
        <ele>21.4</ele>
        <time>2024-10-02T13:08:30Z</time>
      </trkpt>
      <trkpt lat="49.31005" lon="0.16138">
        <ele>21.4</ele>
        <time>2024-10-02T13:08:31Z</time>
      </trkpt>
      <trkpt lat="49.31008" lon="0.16145">
        <ele>21.6</ele>
        <time>2024-10-02T13:08:32Z</time>
      </trkpt>
      <trkpt lat="49.31011" lon="0.16152">
        <ele>21.6</ele>
        <time>2024-10-02T13:08:33Z</time>
      </trkpt>
      <trkpt lat="49.31014" lon="0.1616">
        <ele>21.6</ele>
        <time>2024-10-02T13:08:34Z</time>
      </trkpt>
      <trkpt lat="49.31016" lon="0.16167">
        <ele>22</ele>
        <time>2024-10-02T13:08:35Z</time>
      </trkpt>
      <trkpt lat="49.31019" lon="0.16174">
        <ele>22</ele>
        <time>2024-10-02T13:08:36Z</time>
      </trkpt>
      <trkpt lat="49.31022" lon="0.16181">
        <ele>22.2</ele>
        <time>2024-10-02T13:08:37Z</time>
      </trkpt>
      <trkpt lat="49.31024" lon="0.16189">
        <ele>22.4</ele>
        <time>2024-10-02T13:08:38Z</time>
      </trkpt>
      <trkpt lat="49.31026" lon="0.16197">
        <ele>22.4</ele>
        <time>2024-10-02T13:08:39Z</time>
      </trkpt>
      <trkpt lat="49.31029" lon="0.16204">
        <ele>22.8</ele>
        <time>2024-10-02T13:08:40Z</time>
      </trkpt>
      <trkpt lat="49.31032" lon="0.16212">
        <ele>23</ele>
        <time>2024-10-02T13:08:41Z</time>
      </trkpt>
      <trkpt lat="49.31034" lon="0.16219">
        <ele>23.2</ele>
        <time>2024-10-02T13:08:42Z</time>
      </trkpt>
      <trkpt lat="49.31037" lon="0.16226">
        <ele>23.4</ele>
        <time>2024-10-02T13:08:43Z</time>
      </trkpt>
      <trkpt lat="49.31039" lon="0.16233">
        <ele>23.4</ele>
        <time>2024-10-02T13:08:44Z</time>
      </trkpt>
      <trkpt lat="49.31042" lon="0.16241">
        <ele>24</ele>
        <time>2024-10-02T13:08:45Z</time>
      </trkpt>
      <trkpt lat="49.31044" lon="0.16248">
        <ele>24.4</ele>
        <time>2024-10-02T13:08:46Z</time>
      </trkpt>
      <trkpt lat="49.31047" lon="0.16254">
        <ele>24.6</ele>
        <time>2024-10-02T13:08:47Z</time>
      </trkpt>
      <trkpt lat="49.3105" lon="0.16261">
        <ele>24.8</ele>
        <time>2024-10-02T13:08:48Z</time>
      </trkpt>
      <trkpt lat="49.31052" lon="0.16269">
        <ele>25.2</ele>
        <time>2024-10-02T13:08:49Z</time>
      </trkpt>
      <trkpt lat="49.31054" lon="0.16276">
        <ele>25.6</ele>
        <time>2024-10-02T13:08:50Z</time>
      </trkpt>
      <trkpt lat="49.31056" lon="0.16284">
        <ele>26.2</ele>
        <time>2024-10-02T13:08:51Z</time>
      </trkpt>
      <trkpt lat="49.31059" lon="0.16291">
        <ele>26.8</ele>
        <time>2024-10-02T13:08:52Z</time>
      </trkpt>
      <trkpt lat="49.31061" lon="0.16298">
        <ele>27</ele>
        <time>2024-10-02T13:08:53Z</time>
      </trkpt>
      <trkpt lat="49.31064" lon="0.16305">
        <ele>27.2</ele>
        <time>2024-10-02T13:08:54Z</time>
      </trkpt>
      <trkpt lat="49.31066" lon="0.16312">
        <ele>27.4</ele>
        <time>2024-10-02T13:08:55Z</time>
      </trkpt>
      <trkpt lat="49.31069" lon="0.16319">
        <ele>27.8</ele>
        <time>2024-10-02T13:08:56Z</time>
      </trkpt>
      <trkpt lat="49.31071" lon="0.16326">
        <ele>28</ele>
        <time>2024-10-02T13:08:57Z</time>
      </trkpt>
      <trkpt lat="49.31074" lon="0.16333">
        <ele>28</ele>
        <time>2024-10-02T13:08:58Z</time>
      </trkpt>
      <trkpt lat="49.31077" lon="0.16341">
        <ele>28.2</ele>
        <time>2024-10-02T13:08:59Z</time>
      </trkpt>
      <trkpt lat="49.31079" lon="0.16347">
        <ele>28.4</ele>
        <time>2024-10-02T13:09:00Z</time>
      </trkpt>
      <trkpt lat="49.31082" lon="0.16354">
        <ele>28.8</ele>
        <time>2024-10-02T13:09:01Z</time>
      </trkpt>
      <trkpt lat="49.31084" lon="0.16361">
        <ele>28.8</ele>
        <time>2024-10-02T13:09:02Z</time>
      </trkpt>
      <trkpt lat="49.31087" lon="0.16368">
        <ele>29</ele>
        <time>2024-10-02T13:09:03Z</time>
      </trkpt>
      <trkpt lat="49.31089" lon="0.16375">
        <ele>29</ele>
        <time>2024-10-02T13:09:04Z</time>
      </trkpt>
      <trkpt lat="49.31091" lon="0.16382">
        <ele>29.6</ele>
        <time>2024-10-02T13:09:05Z</time>
      </trkpt>
      <trkpt lat="49.31094" lon="0.16389">
        <ele>29.6</ele>
        <time>2024-10-02T13:09:06Z</time>
      </trkpt>
      <trkpt lat="49.31096" lon="0.16396">
        <ele>29.8</ele>
        <time>2024-10-02T13:09:07Z</time>
      </trkpt>
      <trkpt lat="49.31099" lon="0.16403">
        <ele>30</ele>
        <time>2024-10-02T13:09:08Z</time>
      </trkpt>
      <trkpt lat="49.31101" lon="0.16412">
        <ele>30</ele>
        <time>2024-10-02T13:09:09Z</time>
      </trkpt>
      <trkpt lat="49.31103" lon="0.16418">
        <ele>30.4</ele>
        <time>2024-10-02T13:09:10Z</time>
      </trkpt>
      <trkpt lat="49.31105" lon="0.16425">
        <ele>30.8</ele>
        <time>2024-10-02T13:09:11Z</time>
      </trkpt>
      <trkpt lat="49.31108" lon="0.16432">
        <ele>31</ele>
        <time>2024-10-02T13:09:12Z</time>
      </trkpt>
      <trkpt lat="49.3111" lon="0.16439">
        <ele>31.4</ele>
        <time>2024-10-02T13:09:13Z</time>
      </trkpt>
      <trkpt lat="49.31112" lon="0.16447">
        <ele>31.6</ele>
        <time>2024-10-02T13:09:14Z</time>
      </trkpt>
      <trkpt lat="49.31115" lon="0.16454">
        <ele>32</ele>
        <time>2024-10-02T13:09:15Z</time>
      </trkpt>
      <trkpt lat="49.31117" lon="0.16461">
        <ele>32.2</ele>
        <time>2024-10-02T13:09:16Z</time>
      </trkpt>
      <trkpt lat="49.3112" lon="0.16469">
        <ele>32.4</ele>
        <time>2024-10-02T13:09:17Z</time>
      </trkpt>
      <trkpt lat="49.31122" lon="0.16476">
        <ele>32.6</ele>
        <time>2024-10-02T13:09:18Z</time>
      </trkpt>
      <trkpt lat="49.31125" lon="0.16483">
        <ele>32.8</ele>
        <time>2024-10-02T13:09:19Z</time>
      </trkpt>
      <trkpt lat="49.31127" lon="0.1649">
        <ele>33</ele>
        <time>2024-10-02T13:09:20Z</time>
      </trkpt>
      <trkpt lat="49.3113" lon="0.16498">
        <ele>33.2</ele>
        <time>2024-10-02T13:09:21Z</time>
      </trkpt>
      <trkpt lat="49.31132" lon="0.16505">
        <ele>33.6</ele>
        <time>2024-10-02T13:09:22Z</time>
      </trkpt>
      <trkpt lat="49.31135" lon="0.16513">
        <ele>33.8</ele>
        <time>2024-10-02T13:09:23Z</time>
      </trkpt>
      <trkpt lat="49.31137" lon="0.1652">
        <ele>34.4</ele>
        <time>2024-10-02T13:09:24Z</time>
      </trkpt>
      <trkpt lat="49.3114" lon="0.16527">
        <ele>34.8</ele>
        <time>2024-10-02T13:09:25Z</time>
      </trkpt>
      <trkpt lat="49.31143" lon="0.16535">
        <ele>35</ele>
        <time>2024-10-02T13:09:26Z</time>
      </trkpt>
      <trkpt lat="49.31146" lon="0.16542">
        <ele>35</ele>
        <time>2024-10-02T13:09:27Z</time>
      </trkpt>
      <trkpt lat="49.31148" lon="0.16549">
        <ele>35.2</ele>
        <time>2024-10-02T13:09:28Z</time>
      </trkpt>
      <trkpt lat="49.31151" lon="0.16556">
        <ele>35.4</ele>
        <time>2024-10-02T13:09:29Z</time>
      </trkpt>
      <trkpt lat="49.31153" lon="0.16563">
        <ele>35.6</ele>
        <time>2024-10-02T13:09:30Z</time>
      </trkpt>
      <trkpt lat="49.31156" lon="0.16572">
        <ele>35.8</ele>
        <time>2024-10-02T13:09:31Z</time>
      </trkpt>
      <trkpt lat="49.31158" lon="0.16578">
        <ele>36</ele>
        <time>2024-10-02T13:09:32Z</time>
      </trkpt>
      <trkpt lat="49.31161" lon="0.16585">
        <ele>36.4</ele>
        <time>2024-10-02T13:09:33Z</time>
      </trkpt>
      <trkpt lat="49.31163" lon="0.16593">
        <ele>36.6</ele>
        <time>2024-10-02T13:09:34Z</time>
      </trkpt>
      <trkpt lat="49.31165" lon="0.166">
        <ele>37.2</ele>
        <time>2024-10-02T13:09:35Z</time>
      </trkpt>
      <trkpt lat="49.31168" lon="0.16606">
        <ele>37.6</ele>
        <time>2024-10-02T13:09:36Z</time>
      </trkpt>
      <trkpt lat="49.3117" lon="0.16613">
        <ele>38</ele>
        <time>2024-10-02T13:09:37Z</time>
      </trkpt>
      <trkpt lat="49.31173" lon="0.1662">
        <ele>38.4</ele>
        <time>2024-10-02T13:09:38Z</time>
      </trkpt>
      <trkpt lat="49.31176" lon="0.16628">
        <ele>38.6</ele>
        <time>2024-10-02T13:09:39Z</time>
      </trkpt>
      <trkpt lat="49.31178" lon="0.16635">
        <ele>38.6</ele>
        <time>2024-10-02T13:09:40Z</time>
      </trkpt>
      <trkpt lat="49.31181" lon="0.16642">
        <ele>38.6</ele>
        <time>2024-10-02T13:09:41Z</time>
      </trkpt>
      <trkpt lat="49.31183" lon="0.1665">
        <ele>38.8</ele>
        <time>2024-10-02T13:09:42Z</time>
      </trkpt>
      <trkpt lat="49.31186" lon="0.16657">
        <ele>39.2</ele>
        <time>2024-10-02T13:09:43Z</time>
      </trkpt>
      <trkpt lat="49.31188" lon="0.16664">
        <ele>39.6</ele>
        <time>2024-10-02T13:09:44Z</time>
      </trkpt>
      <trkpt lat="49.31191" lon="0.16671">
        <ele>40</ele>
        <time>2024-10-02T13:09:45Z</time>
      </trkpt>
      <trkpt lat="49.31193" lon="0.16679">
        <ele>40.4</ele>
        <time>2024-10-02T13:09:46Z</time>
      </trkpt>
      <trkpt lat="49.31195" lon="0.16687">
        <ele>40.4</ele>
        <time>2024-10-02T13:09:47Z</time>
      </trkpt>
      <trkpt lat="49.31198" lon="0.16696">
        <ele>40.8</ele>
        <time>2024-10-02T13:09:48Z</time>
      </trkpt>
      <trkpt lat="49.312" lon="0.16702">
        <ele>40.8</ele>
        <time>2024-10-02T13:09:49Z</time>
      </trkpt>
      <trkpt lat="49.31203" lon="0.1671">
        <ele>41</ele>
        <time>2024-10-02T13:09:50Z</time>
      </trkpt>
      <trkpt lat="49.31206" lon="0.16718">
        <ele>41.2</ele>
        <time>2024-10-02T13:09:51Z</time>
      </trkpt>
      <trkpt lat="49.31209" lon="0.16725">
        <ele>41.4</ele>
        <time>2024-10-02T13:09:52Z</time>
      </trkpt>
      <trkpt lat="49.31211" lon="0.16733">
        <ele>41.8</ele>
        <time>2024-10-02T13:09:53Z</time>
      </trkpt>
      <trkpt lat="49.31214" lon="0.1674">
        <ele>42.2</ele>
        <time>2024-10-02T13:09:54Z</time>
      </trkpt>
      <trkpt lat="49.31217" lon="0.16748">
        <ele>42.4</ele>
        <time>2024-10-02T13:09:55Z</time>
      </trkpt>
      <trkpt lat="49.3122" lon="0.16755">
        <ele>42.4</ele>
        <time>2024-10-02T13:09:56Z</time>
      </trkpt>
      <trkpt lat="49.31223" lon="0.16762">
        <ele>42.6</ele>
        <time>2024-10-02T13:09:57Z</time>
      </trkpt>
      <trkpt lat="49.31225" lon="0.16769">
        <ele>43</ele>
        <time>2024-10-02T13:09:58Z</time>
      </trkpt>
      <trkpt lat="49.31228" lon="0.16777">
        <ele>43.2</ele>
        <time>2024-10-02T13:09:59Z</time>
      </trkpt>
      <trkpt lat="49.3123" lon="0.16784">
        <ele>43.4</ele>
        <time>2024-10-02T13:10:00Z</time>
      </trkpt>
      <trkpt lat="49.31232" lon="0.16792">
        <ele>43.6</ele>
        <time>2024-10-02T13:10:01Z</time>
      </trkpt>
      <trkpt lat="49.31236" lon="0.16801">
        <ele>43.8</ele>
        <time>2024-10-02T13:10:02Z</time>
      </trkpt>
      <trkpt lat="49.31237" lon="0.16807">
        <ele>43.8</ele>
        <time>2024-10-02T13:10:03Z</time>
      </trkpt>
      <trkpt lat="49.3124" lon="0.16815">
        <ele>44</ele>
        <time>2024-10-02T13:10:04Z</time>
      </trkpt>
      <trkpt lat="49.31242" lon="0.16822">
        <ele>44.2</ele>
        <time>2024-10-02T13:10:05Z</time>
      </trkpt>
      <trkpt lat="49.31244" lon="0.1683">
        <ele>44.6</ele>
        <time>2024-10-02T13:10:06Z</time>
      </trkpt>
      <trkpt lat="49.31247" lon="0.16837">
        <ele>44.8</ele>
        <time>2024-10-02T13:10:07Z</time>
      </trkpt>
      <trkpt lat="49.3125" lon="0.16845">
        <ele>45</ele>
        <time>2024-10-02T13:10:08Z</time>
      </trkpt>
      <trkpt lat="49.31252" lon="0.16852">
        <ele>45</ele>
        <time>2024-10-02T13:10:09Z</time>
      </trkpt>
      <trkpt lat="49.31255" lon="0.16859">
        <ele>45.2</ele>
        <time>2024-10-02T13:10:10Z</time>
      </trkpt>
      <trkpt lat="49.31258" lon="0.16867">
        <ele>45.2</ele>
        <time>2024-10-02T13:10:11Z</time>
      </trkpt>
      <trkpt lat="49.31261" lon="0.16874">
        <ele>45.4</ele>
        <time>2024-10-02T13:10:12Z</time>
      </trkpt>
      <trkpt lat="49.31263" lon="0.16882">
        <ele>45.6</ele>
        <time>2024-10-02T13:10:13Z</time>
      </trkpt>
      <trkpt lat="49.31266" lon="0.16889">
        <ele>45.6</ele>
        <time>2024-10-02T13:10:14Z</time>
      </trkpt>
      <trkpt lat="49.31269" lon="0.16897">
        <ele>45.8</ele>
        <time>2024-10-02T13:10:15Z</time>
      </trkpt>
      <trkpt lat="49.31272" lon="0.16905">
        <ele>46</ele>
        <time>2024-10-02T13:10:16Z</time>
      </trkpt>
      <trkpt lat="49.31275" lon="0.16913">
        <ele>46.2</ele>
        <time>2024-10-02T13:10:17Z</time>
      </trkpt>
      <trkpt lat="49.31277" lon="0.16922">
        <ele>46.6</ele>
        <time>2024-10-02T13:10:18Z</time>
      </trkpt>
      <trkpt lat="49.3128" lon="0.1693">
        <ele>46.8</ele>
        <time>2024-10-02T13:10:19Z</time>
      </trkpt>
      <trkpt lat="49.31282" lon="0.16938">
        <ele>47.2</ele>
        <time>2024-10-02T13:10:20Z</time>
      </trkpt>
      <trkpt lat="49.31285" lon="0.16946">
        <ele>47.6</ele>
        <time>2024-10-02T13:10:21Z</time>
      </trkpt>
      <trkpt lat="49.31288" lon="0.16955">
        <ele>48</ele>
        <time>2024-10-02T13:10:22Z</time>
      </trkpt>
      <trkpt lat="49.31291" lon="0.16962">
        <ele>48.2</ele>
        <time>2024-10-02T13:10:23Z</time>
      </trkpt>
      <trkpt lat="49.31294" lon="0.16971">
        <ele>48.6</ele>
        <time>2024-10-02T13:10:24Z</time>
      </trkpt>
      <trkpt lat="49.31297" lon="0.16979">
        <ele>48.6</ele>
        <time>2024-10-02T13:10:25Z</time>
      </trkpt>
      <trkpt lat="49.31299" lon="0.16988">
        <ele>49</ele>
        <time>2024-10-02T13:10:26Z</time>
      </trkpt>
      <trkpt lat="49.31302" lon="0.16997">
        <ele>49.2</ele>
        <time>2024-10-02T13:10:27Z</time>
      </trkpt>
      <trkpt lat="49.31305" lon="0.17005">
        <ele>49.2</ele>
        <time>2024-10-02T13:10:28Z</time>
      </trkpt>
      <trkpt lat="49.31308" lon="0.17013">
        <ele>49.4</ele>
        <time>2024-10-02T13:10:29Z</time>
      </trkpt>
      <trkpt lat="49.31311" lon="0.1702">
        <ele>49.4</ele>
        <time>2024-10-02T13:10:30Z</time>
      </trkpt>
      <trkpt lat="49.31314" lon="0.17028">
        <ele>49.4</ele>
        <time>2024-10-02T13:10:31Z</time>
      </trkpt>
      <trkpt lat="49.31317" lon="0.17036">
        <ele>49.6</ele>
        <time>2024-10-02T13:10:32Z</time>
      </trkpt>
      <trkpt lat="49.3132" lon="0.17044">
        <ele>49.6</ele>
        <time>2024-10-02T13:10:33Z</time>
      </trkpt>
      <trkpt lat="49.31322" lon="0.17053">
        <ele>49.6</ele>
        <time>2024-10-02T13:10:34Z</time>
      </trkpt>
      <trkpt lat="49.31325" lon="0.17062">
        <ele>49.8</ele>
        <time>2024-10-02T13:10:35Z</time>
      </trkpt>
      <trkpt lat="49.31328" lon="0.17072">
        <ele>49.8</ele>
        <time>2024-10-02T13:10:36Z</time>
      </trkpt>
      <trkpt lat="49.3133" lon="0.17079">
        <ele>50</ele>
        <time>2024-10-02T13:10:37Z</time>
      </trkpt>
      <trkpt lat="49.31333" lon="0.17089">
        <ele>50.2</ele>
        <time>2024-10-02T13:10:38Z</time>
      </trkpt>
      <trkpt lat="49.31336" lon="0.17097">
        <ele>50.4</ele>
        <time>2024-10-02T13:10:39Z</time>
      </trkpt>
      <trkpt lat="49.31339" lon="0.17103">
        <ele>50.4</ele>
        <time>2024-10-02T13:10:40Z</time>
      </trkpt>
      <trkpt lat="49.31342" lon="0.17112">
        <ele>50.8</ele>
        <time>2024-10-02T13:10:41Z</time>
      </trkpt>
      <trkpt lat="49.31344" lon="0.1712">
        <ele>50.8</ele>
        <time>2024-10-02T13:10:42Z</time>
      </trkpt>
      <trkpt lat="49.31347" lon="0.17128">
        <ele>50.8</ele>
        <time>2024-10-02T13:10:43Z</time>
      </trkpt>
      <trkpt lat="49.3135" lon="0.17137">
        <ele>50.8</ele>
        <time>2024-10-02T13:10:44Z</time>
      </trkpt>
      <trkpt lat="49.31355" lon="0.17146">
        <ele>51</ele>
        <time>2024-10-02T13:10:45Z</time>
      </trkpt>
      <trkpt lat="49.31357" lon="0.17153">
        <ele>51</ele>
        <time>2024-10-02T13:10:46Z</time>
      </trkpt>
      <trkpt lat="49.31362" lon="0.17163">
        <ele>51.2</ele>
        <time>2024-10-02T13:10:47Z</time>
      </trkpt>
      <trkpt lat="49.31365" lon="0.1717">
        <ele>51.2</ele>
        <time>2024-10-02T13:10:48Z</time>
      </trkpt>
      <trkpt lat="49.31369" lon="0.17179">
        <ele>51</ele>
        <time>2024-10-02T13:10:49Z</time>
      </trkpt>
      <trkpt lat="49.31373" lon="0.17187">
        <ele>51</ele>
        <time>2024-10-02T13:10:50Z</time>
      </trkpt>
      <trkpt lat="49.31378" lon="0.17196">
        <ele>51.2</ele>
        <time>2024-10-02T13:10:51Z</time>
      </trkpt>
      <trkpt lat="49.31382" lon="0.17203">
        <ele>51.2</ele>
        <time>2024-10-02T13:10:52Z</time>
      </trkpt>
      <trkpt lat="49.31387" lon="0.17211">
        <ele>51.2</ele>
        <time>2024-10-02T13:10:53Z</time>
      </trkpt>
      <trkpt lat="49.31391" lon="0.17219">
        <ele>51.2</ele>
        <time>2024-10-02T13:10:54Z</time>
      </trkpt>
      <trkpt lat="49.31397" lon="0.17229">
        <ele>51.2</ele>
        <time>2024-10-02T13:10:55Z</time>
      </trkpt>
      <trkpt lat="49.31401" lon="0.17235">
        <ele>51</ele>
        <time>2024-10-02T13:10:56Z</time>
      </trkpt>
      <trkpt lat="49.31407" lon="0.17243">
        <ele>51</ele>
        <time>2024-10-02T13:10:57Z</time>
      </trkpt>
      <trkpt lat="49.31412" lon="0.1725">
        <ele>50.8</ele>
        <time>2024-10-02T13:10:58Z</time>
      </trkpt>
      <trkpt lat="49.31418" lon="0.17258">
        <ele>50.8</ele>
        <time>2024-10-02T13:10:59Z</time>
      </trkpt>
      <trkpt lat="49.31423" lon="0.17266">
        <ele>50.6</ele>
        <time>2024-10-02T13:11:00Z</time>
      </trkpt>
      <trkpt lat="49.31429" lon="0.17273">
        <ele>50.4</ele>
        <time>2024-10-02T13:11:01Z</time>
      </trkpt>
      <trkpt lat="49.31434" lon="0.17281">
        <ele>50</ele>
        <time>2024-10-02T13:11:02Z</time>
      </trkpt>
      <trkpt lat="49.3144" lon="0.17288">
        <ele>49.6</ele>
        <time>2024-10-02T13:11:03Z</time>
      </trkpt>
      <trkpt lat="49.31446" lon="0.17295">
        <ele>49.2</ele>
        <time>2024-10-02T13:11:04Z</time>
      </trkpt>
      <trkpt lat="49.31452" lon="0.17303">
        <ele>49</ele>
        <time>2024-10-02T13:11:05Z</time>
      </trkpt>
      <trkpt lat="49.31456" lon="0.17309">
        <ele>48.8</ele>
        <time>2024-10-02T13:11:06Z</time>
      </trkpt>
      <trkpt lat="49.31462" lon="0.17315">
        <ele>48.6</ele>
        <time>2024-10-02T13:11:07Z</time>
      </trkpt>
      <trkpt lat="49.31469" lon="0.17324">
        <ele>48.2</ele>
        <time>2024-10-02T13:11:08Z</time>
      </trkpt>
      <trkpt lat="49.31473" lon="0.1733">
        <ele>48</ele>
        <time>2024-10-02T13:11:09Z</time>
      </trkpt>
      <trkpt lat="49.31478" lon="0.17338">
        <ele>47.8</ele>
        <time>2024-10-02T13:11:10Z</time>
      </trkpt>
      <trkpt lat="49.31486" lon="0.17348">
        <ele>47.6</ele>
        <time>2024-10-02T13:11:11Z</time>
      </trkpt>
      <trkpt lat="49.31491" lon="0.17355">
        <ele>47.6</ele>
        <time>2024-10-02T13:11:12Z</time>
      </trkpt>
      <trkpt lat="49.31499" lon="0.17365">
        <ele>47.4</ele>
        <time>2024-10-02T13:11:13Z</time>
      </trkpt>
      <trkpt lat="49.31505" lon="0.17372">
        <ele>47.4</ele>
        <time>2024-10-02T13:11:14Z</time>
      </trkpt>
      <trkpt lat="49.31512" lon="0.17381">
        <ele>46.8</ele>
        <time>2024-10-02T13:11:15Z</time>
      </trkpt>
      <trkpt lat="49.31519" lon="0.1739">
        <ele>46.8</ele>
        <time>2024-10-02T13:11:16Z</time>
      </trkpt>
      <trkpt lat="49.31527" lon="0.17401">
        <ele>46.8</ele>
        <time>2024-10-02T13:11:17Z</time>
      </trkpt>
      <trkpt lat="49.31532" lon="0.17408">
        <ele>46.4</ele>
        <time>2024-10-02T13:11:18Z</time>
      </trkpt>
      <trkpt lat="49.31539" lon="0.17418">
        <ele>46.2</ele>
        <time>2024-10-02T13:11:19Z</time>
      </trkpt>
      <trkpt lat="49.31545" lon="0.17427">
        <ele>46</ele>
        <time>2024-10-02T13:11:20Z</time>
      </trkpt>
      <trkpt lat="49.31552" lon="0.17436">
        <ele>45.6</ele>
        <time>2024-10-02T13:11:21Z</time>
      </trkpt>
      <trkpt lat="49.31558" lon="0.17445">
        <ele>44.8</ele>
        <time>2024-10-02T13:11:22Z</time>
      </trkpt>
      <trkpt lat="49.31564" lon="0.17454">
        <ele>44.4</ele>
        <time>2024-10-02T13:11:23Z</time>
      </trkpt>
      <trkpt lat="49.31569" lon="0.17464">
        <ele>44.2</ele>
        <time>2024-10-02T13:11:24Z</time>
      </trkpt>
      <trkpt lat="49.31575" lon="0.17475">
        <ele>43.8</ele>
        <time>2024-10-02T13:11:25Z</time>
      </trkpt>
      <trkpt lat="49.31582" lon="0.17487">
        <ele>43.4</ele>
        <time>2024-10-02T13:11:26Z</time>
      </trkpt>
      <trkpt lat="49.31587" lon="0.17498">
        <ele>43</ele>
        <time>2024-10-02T13:11:27Z</time>
      </trkpt>
      <trkpt lat="49.31592" lon="0.17507">
        <ele>42.6</ele>
        <time>2024-10-02T13:11:28Z</time>
      </trkpt>
      <trkpt lat="49.31599" lon="0.1752">
        <ele>42.4</ele>
        <time>2024-10-02T13:11:29Z</time>
      </trkpt>
      <trkpt lat="49.31603" lon="0.17529">
        <ele>42</ele>
        <time>2024-10-02T13:11:30Z</time>
      </trkpt>
      <trkpt lat="49.3161" lon="0.17542">
        <ele>41.8</ele>
        <time>2024-10-02T13:11:31Z</time>
      </trkpt>
      <trkpt lat="49.31615" lon="0.17553">
        <ele>41.4</ele>
        <time>2024-10-02T13:11:32Z</time>
      </trkpt>
      <trkpt lat="49.3162" lon="0.17564">
        <ele>40.8</ele>
        <time>2024-10-02T13:11:33Z</time>
      </trkpt>
      <trkpt lat="49.31626" lon="0.17575">
        <ele>39.8</ele>
        <time>2024-10-02T13:11:34Z</time>
      </trkpt>
      <trkpt lat="49.3163" lon="0.17584">
        <ele>39.6</ele>
        <time>2024-10-02T13:11:35Z</time>
      </trkpt>
      <trkpt lat="49.31637" lon="0.17598">
        <ele>39.2</ele>
        <time>2024-10-02T13:11:36Z</time>
      </trkpt>
      <trkpt lat="49.31642" lon="0.17609">
        <ele>39</ele>
        <time>2024-10-02T13:11:37Z</time>
      </trkpt>
      <trkpt lat="49.31646" lon="0.17618">
        <ele>38.6</ele>
        <time>2024-10-02T13:11:38Z</time>
      </trkpt>
      <trkpt lat="49.31652" lon="0.17632">
        <ele>38.6</ele>
        <time>2024-10-02T13:11:39Z</time>
      </trkpt>
      <trkpt lat="49.31656" lon="0.17645">
        <ele>38.6</ele>
        <time>2024-10-02T13:11:40Z</time>
      </trkpt>
      <trkpt lat="49.31659" lon="0.17655">
        <ele>38.2</ele>
        <time>2024-10-02T13:11:41Z</time>
      </trkpt>
      <trkpt lat="49.31664" lon="0.17669">
        <ele>37.8</ele>
        <time>2024-10-02T13:11:42Z</time>
      </trkpt>
      <trkpt lat="49.31668" lon="0.17682">
        <ele>37.4</ele>
        <time>2024-10-02T13:11:43Z</time>
      </trkpt>
      <trkpt lat="49.3167" lon="0.17693">
        <ele>37</ele>
        <time>2024-10-02T13:11:44Z</time>
      </trkpt>
      <trkpt lat="49.31672" lon="0.17706">
        <ele>36.6</ele>
        <time>2024-10-02T13:11:45Z</time>
      </trkpt>
      <trkpt lat="49.31674" lon="0.1772">
        <ele>36.2</ele>
        <time>2024-10-02T13:11:46Z</time>
      </trkpt>
      <trkpt lat="49.31675" lon="0.17734">
        <ele>35.8</ele>
        <time>2024-10-02T13:11:47Z</time>
      </trkpt>
      <trkpt lat="49.31676" lon="0.17752">
        <ele>35.2</ele>
        <time>2024-10-02T13:11:48Z</time>
      </trkpt>
      <trkpt lat="49.31676" lon="0.17763">
        <ele>34.8</ele>
        <time>2024-10-02T13:11:49Z</time>
      </trkpt>
      <trkpt lat="49.31676" lon="0.17778">
        <ele>34.6</ele>
        <time>2024-10-02T13:11:50Z</time>
      </trkpt>
      <trkpt lat="49.31677" lon="0.17796">
        <ele>34</ele>
        <time>2024-10-02T13:11:51Z</time>
      </trkpt>
      <trkpt lat="49.31678" lon="0.17807">
        <ele>33.6</ele>
        <time>2024-10-02T13:11:52Z</time>
      </trkpt>
      <trkpt lat="49.31679" lon="0.17822">
        <ele>33.6</ele>
        <time>2024-10-02T13:11:53Z</time>
      </trkpt>
      <trkpt lat="49.31679" lon="0.17837">
        <ele>33.2</ele>
        <time>2024-10-02T13:11:54Z</time>
      </trkpt>
      <trkpt lat="49.3168" lon="0.17851">
        <ele>32.6</ele>
        <time>2024-10-02T13:11:55Z</time>
      </trkpt>
      <trkpt lat="49.3168" lon="0.17865">
        <ele>32</ele>
        <time>2024-10-02T13:11:56Z</time>
      </trkpt>
      <trkpt lat="49.31681" lon="0.1788">
        <ele>31.6</ele>
        <time>2024-10-02T13:11:57Z</time>
      </trkpt>
      <trkpt lat="49.31681" lon="0.1789">
        <ele>31.4</ele>
        <time>2024-10-02T13:11:58Z</time>
      </trkpt>
      <trkpt lat="49.31681" lon="0.17901">
        <ele>31.2</ele>
        <time>2024-10-02T13:11:59Z</time>
      </trkpt>
      <trkpt lat="49.31681" lon="0.17915">
        <ele>31.2</ele>
        <time>2024-10-02T13:12:00Z</time>
      </trkpt>
      <trkpt lat="49.31682" lon="0.17924">
        <ele>31.2</ele>
        <time>2024-10-02T13:12:01Z</time>
      </trkpt>
      <trkpt lat="49.31682" lon="0.17935">
        <ele>31.2</ele>
        <time>2024-10-02T13:12:02Z</time>
      </trkpt>
      <trkpt lat="49.31683" lon="0.17947">
        <ele>31</ele>
        <time>2024-10-02T13:12:03Z</time>
      </trkpt>
      <trkpt lat="49.31683" lon="0.17955">
        <ele>31</ele>
        <time>2024-10-02T13:12:04Z</time>
      </trkpt>
      <trkpt lat="49.31683" lon="0.17964">
        <ele>31</ele>
        <time>2024-10-02T13:12:05Z</time>
      </trkpt>
      <trkpt lat="49.31684" lon="0.17974">
        <ele>31</ele>
        <time>2024-10-02T13:12:06Z</time>
      </trkpt>
      <trkpt lat="49.31684" lon="0.17983">
        <ele>31</ele>
        <time>2024-10-02T13:12:07Z</time>
      </trkpt>
      <trkpt lat="49.31684" lon="0.17993">
        <ele>31.2</ele>
        <time>2024-10-02T13:12:08Z</time>
      </trkpt>
      <trkpt lat="49.31684" lon="0.18003">
        <ele>31.4</ele>
        <time>2024-10-02T13:12:09Z</time>
      </trkpt>
      <trkpt lat="49.31684" lon="0.1801">
        <ele>31.8</ele>
        <time>2024-10-02T13:12:10Z</time>
      </trkpt>
      <trkpt lat="49.31685" lon="0.18019">
        <ele>32.2</ele>
        <time>2024-10-02T13:12:11Z</time>
      </trkpt>
      <trkpt lat="49.31685" lon="0.18029">
        <ele>32.4</ele>
        <time>2024-10-02T13:12:12Z</time>
      </trkpt>
      <trkpt lat="49.31685" lon="0.18038">
        <ele>32.8</ele>
        <time>2024-10-02T13:12:13Z</time>
      </trkpt>
      <trkpt lat="49.31686" lon="0.18046">
        <ele>33</ele>
        <time>2024-10-02T13:12:14Z</time>
      </trkpt>
      <trkpt lat="49.31687" lon="0.18056">
        <ele>33.6</ele>
        <time>2024-10-02T13:12:15Z</time>
      </trkpt>
      <trkpt lat="49.31689" lon="0.18066">
        <ele>34.4</ele>
        <time>2024-10-02T13:12:16Z</time>
      </trkpt>
      <trkpt lat="49.3169" lon="0.18075">
        <ele>35</ele>
        <time>2024-10-02T13:12:17Z</time>
      </trkpt>
      <trkpt lat="49.31692" lon="0.18084">
        <ele>35.6</ele>
        <time>2024-10-02T13:12:18Z</time>
      </trkpt>
      <trkpt lat="49.31695" lon="0.18092">
        <ele>36.2</ele>
        <time>2024-10-02T13:12:19Z</time>
      </trkpt>
      <trkpt lat="49.31696" lon="0.18099">
        <ele>36.6</ele>
        <time>2024-10-02T13:12:20Z</time>
      </trkpt>
      <trkpt lat="49.31699" lon="0.18109">
        <ele>36.8</ele>
        <time>2024-10-02T13:12:21Z</time>
      </trkpt>
      <trkpt lat="49.31701" lon="0.18116">
        <ele>37</ele>
        <time>2024-10-02T13:12:22Z</time>
      </trkpt>
      <trkpt lat="49.31703" lon="0.18124">
        <ele>37</ele>
        <time>2024-10-02T13:12:23Z</time>
      </trkpt>
      <trkpt lat="49.31707" lon="0.18134">
        <ele>37.4</ele>
        <time>2024-10-02T13:12:24Z</time>
      </trkpt>
      <trkpt lat="49.31709" lon="0.18142">
        <ele>38</ele>
        <time>2024-10-02T13:12:25Z</time>
      </trkpt>
      <trkpt lat="49.31711" lon="0.18148">
        <ele>38.4</ele>
        <time>2024-10-02T13:12:26Z</time>
      </trkpt>
      <trkpt lat="49.31714" lon="0.18156">
        <ele>38.8</ele>
        <time>2024-10-02T13:12:27Z</time>
      </trkpt>
      <trkpt lat="49.31717" lon="0.18163">
        <ele>39.2</ele>
        <time>2024-10-02T13:12:28Z</time>
      </trkpt>
      <trkpt lat="49.3172" lon="0.1817">
        <ele>39.8</ele>
        <time>2024-10-02T13:12:29Z</time>
      </trkpt>
      <trkpt lat="49.31724" lon="0.18178">
        <ele>40.2</ele>
        <time>2024-10-02T13:12:30Z</time>
      </trkpt>
      <trkpt lat="49.31727" lon="0.18184">
        <ele>40.4</ele>
        <time>2024-10-02T13:12:31Z</time>
      </trkpt>
      <trkpt lat="49.3173" lon="0.18191">
        <ele>41</ele>
        <time>2024-10-02T13:12:32Z</time>
      </trkpt>
      <trkpt lat="49.31734" lon="0.182">
        <ele>41.6</ele>
        <time>2024-10-02T13:12:33Z</time>
      </trkpt>
      <trkpt lat="49.31737" lon="0.18207">
        <ele>42</ele>
        <time>2024-10-02T13:12:34Z</time>
      </trkpt>
      <trkpt lat="49.3174" lon="0.18213">
        <ele>42.2</ele>
        <time>2024-10-02T13:12:35Z</time>
      </trkpt>
      <trkpt lat="49.31745" lon="0.18222">
        <ele>42.6</ele>
        <time>2024-10-02T13:12:36Z</time>
      </trkpt>
      <trkpt lat="49.31748" lon="0.18229">
        <ele>43.2</ele>
        <time>2024-10-02T13:12:37Z</time>
      </trkpt>
      <trkpt lat="49.31751" lon="0.18235">
        <ele>43.4</ele>
        <time>2024-10-02T13:12:38Z</time>
      </trkpt>
      <trkpt lat="49.31754" lon="0.18242">
        <ele>43.6</ele>
        <time>2024-10-02T13:12:39Z</time>
      </trkpt>
      <trkpt lat="49.31759" lon="0.18251">
        <ele>43.8</ele>
        <time>2024-10-02T13:12:40Z</time>
      </trkpt>
      <trkpt lat="49.31763" lon="0.18259">
        <ele>44.2</ele>
        <time>2024-10-02T13:12:41Z</time>
      </trkpt>
      <trkpt lat="49.31766" lon="0.18266">
        <ele>44.6</ele>
        <time>2024-10-02T13:12:42Z</time>
      </trkpt>
      <trkpt lat="49.31769" lon="0.18273">
        <ele>45</ele>
        <time>2024-10-02T13:12:43Z</time>
      </trkpt>
      <trkpt lat="49.31772" lon="0.18279">
        <ele>45.4</ele>
        <time>2024-10-02T13:12:44Z</time>
      </trkpt>
      <trkpt lat="49.31777" lon="0.18287">
        <ele>45.8</ele>
        <time>2024-10-02T13:12:45Z</time>
      </trkpt>
      <trkpt lat="49.3178" lon="0.18294">
        <ele>45.8</ele>
        <time>2024-10-02T13:12:46Z</time>
      </trkpt>
      <trkpt lat="49.31783" lon="0.183">
        <ele>45.8</ele>
        <time>2024-10-02T13:12:47Z</time>
      </trkpt>
      <trkpt lat="49.31787" lon="0.18308">
        <ele>46</ele>
        <time>2024-10-02T13:12:48Z</time>
      </trkpt>
      <trkpt lat="49.3179" lon="0.18314">
        <ele>46.2</ele>
        <time>2024-10-02T13:12:49Z</time>
      </trkpt>
      <trkpt lat="49.31793" lon="0.18322">
        <ele>46.4</ele>
        <time>2024-10-02T13:12:50Z</time>
      </trkpt>
      <trkpt lat="49.31798" lon="0.18331">
        <ele>46.4</ele>
        <time>2024-10-02T13:12:51Z</time>
      </trkpt>
      <trkpt lat="49.31802" lon="0.18339">
        <ele>46.4</ele>
        <time>2024-10-02T13:12:52Z</time>
      </trkpt>
      <trkpt lat="49.31805" lon="0.18345">
        <ele>46.6</ele>
        <time>2024-10-02T13:12:53Z</time>
      </trkpt>
      <trkpt lat="49.31809" lon="0.18354">
        <ele>46.6</ele>
        <time>2024-10-02T13:12:54Z</time>
      </trkpt>
      <trkpt lat="49.31813" lon="0.18362">
        <ele>46.6</ele>
        <time>2024-10-02T13:12:55Z</time>
      </trkpt>
      <trkpt lat="49.31816" lon="0.18368">
        <ele>46.8</ele>
        <time>2024-10-02T13:12:56Z</time>
      </trkpt>
      <trkpt lat="49.31821" lon="0.18378">
        <ele>46.8</ele>
        <time>2024-10-02T13:12:57Z</time>
      </trkpt>
      <trkpt lat="49.31824" lon="0.18384">
        <ele>46.8</ele>
        <time>2024-10-02T13:12:58Z</time>
      </trkpt>
      <trkpt lat="49.31828" lon="0.18393">
        <ele>46.8</ele>
        <time>2024-10-02T13:12:59Z</time>
      </trkpt>
      <trkpt lat="49.31833" lon="0.18403">
        <ele>46.8</ele>
        <time>2024-10-02T13:13:00Z</time>
      </trkpt>
      <trkpt lat="49.31836" lon="0.18409">
        <ele>46.8</ele>
        <time>2024-10-02T13:13:01Z</time>
      </trkpt>
      <trkpt lat="49.31841" lon="0.18417">
        <ele>46.8</ele>
        <time>2024-10-02T13:13:02Z</time>
      </trkpt>
      <trkpt lat="49.31846" lon="0.18427">
        <ele>46.6</ele>
        <time>2024-10-02T13:13:03Z</time>
      </trkpt>
      <trkpt lat="49.3185" lon="0.18434">
        <ele>46.6</ele>
        <time>2024-10-02T13:13:04Z</time>
      </trkpt>
      <trkpt lat="49.31853" lon="0.18441">
        <ele>46.6</ele>
        <time>2024-10-02T13:13:05Z</time>
      </trkpt>
      <trkpt lat="49.31857" lon="0.18449">
        <ele>46.6</ele>
        <time>2024-10-02T13:13:06Z</time>
      </trkpt>
      <trkpt lat="49.31862" lon="0.18459">
        <ele>46.6</ele>
        <time>2024-10-02T13:13:07Z</time>
      </trkpt>
      <trkpt lat="49.31865" lon="0.18466">
        <ele>46.6</ele>
        <time>2024-10-02T13:13:08Z</time>
      </trkpt>
      <trkpt lat="49.3187" lon="0.18475">
        <ele>46.6</ele>
        <time>2024-10-02T13:13:09Z</time>
      </trkpt>
      <trkpt lat="49.31873" lon="0.18482">
        <ele>46.4</ele>
        <time>2024-10-02T13:13:10Z</time>
      </trkpt>
      <trkpt lat="49.31878" lon="0.1849">
        <ele>46.2</ele>
        <time>2024-10-02T13:13:11Z</time>
      </trkpt>
      <trkpt lat="49.31882" lon="0.18498">
        <ele>46.2</ele>
        <time>2024-10-02T13:13:12Z</time>
      </trkpt>
      <trkpt lat="49.31887" lon="0.18508">
        <ele>46.2</ele>
        <time>2024-10-02T13:13:13Z</time>
      </trkpt>
      <trkpt lat="49.3189" lon="0.18515">
        <ele>46.2</ele>
        <time>2024-10-02T13:13:14Z</time>
      </trkpt>
      <trkpt lat="49.31894" lon="0.18526">
        <ele>46</ele>
        <time>2024-10-02T13:13:15Z</time>
      </trkpt>
      <trkpt lat="49.31898" lon="0.18535">
        <ele>46</ele>
        <time>2024-10-02T13:13:16Z</time>
      </trkpt>
      <trkpt lat="49.31902" lon="0.18542">
        <ele>46</ele>
        <time>2024-10-02T13:13:17Z</time>
      </trkpt>
      <trkpt lat="49.31906" lon="0.18552">
        <ele>45.8</ele>
        <time>2024-10-02T13:13:18Z</time>
      </trkpt>
      <trkpt lat="49.3191" lon="0.18559">
        <ele>45.8</ele>
        <time>2024-10-02T13:13:19Z</time>
      </trkpt>
      <trkpt lat="49.31913" lon="0.18567">
        <ele>45.8</ele>
        <time>2024-10-02T13:13:20Z</time>
      </trkpt>
      <trkpt lat="49.31917" lon="0.18575">
        <ele>45.6</ele>
        <time>2024-10-02T13:13:21Z</time>
      </trkpt>
      <trkpt lat="49.31919" lon="0.18581">
        <ele>45.4</ele>
        <time>2024-10-02T13:13:22Z</time>
      </trkpt>
      <trkpt lat="49.31922" lon="0.18589">
        <ele>45.2</ele>
        <time>2024-10-02T13:13:23Z</time>
      </trkpt>
      <trkpt lat="49.31926" lon="0.186">
        <ele>45.2</ele>
        <time>2024-10-02T13:13:24Z</time>
      </trkpt>
      <trkpt lat="49.3193" lon="0.18609">
        <ele>45</ele>
        <time>2024-10-02T13:13:25Z</time>
      </trkpt>
      <trkpt lat="49.31933" lon="0.18617">
        <ele>45</ele>
        <time>2024-10-02T13:13:26Z</time>
      </trkpt>
      <trkpt lat="49.31937" lon="0.18629">
        <ele>45</ele>
        <time>2024-10-02T13:13:27Z</time>
      </trkpt>
      <trkpt lat="49.3194" lon="0.1864">
        <ele>44.8</ele>
        <time>2024-10-02T13:13:28Z</time>
      </trkpt>
      <trkpt lat="49.31943" lon="0.18649">
        <ele>44.6</ele>
        <time>2024-10-02T13:13:29Z</time>
      </trkpt>
      <trkpt lat="49.31945" lon="0.1866">
        <ele>44.6</ele>
        <time>2024-10-02T13:13:30Z</time>
      </trkpt>
      <trkpt lat="49.31948" lon="0.18672">
        <ele>44.4</ele>
        <time>2024-10-02T13:13:31Z</time>
      </trkpt>
      <trkpt lat="49.3195" lon="0.18683">
        <ele>44</ele>
        <time>2024-10-02T13:13:32Z</time>
      </trkpt>
      <trkpt lat="49.31953" lon="0.18694">
        <ele>43.8</ele>
        <time>2024-10-02T13:13:33Z</time>
      </trkpt>
      <trkpt lat="49.31955" lon="0.18707">
        <ele>43.6</ele>
        <time>2024-10-02T13:13:34Z</time>
      </trkpt>
      <trkpt lat="49.31958" lon="0.18717">
        <ele>43.6</ele>
        <time>2024-10-02T13:13:35Z</time>
      </trkpt>
      <trkpt lat="49.31959" lon="0.18726">
        <ele>43.6</ele>
        <time>2024-10-02T13:13:36Z</time>
      </trkpt>
      <trkpt lat="49.31962" lon="0.18739">
        <ele>43.4</ele>
        <time>2024-10-02T13:13:37Z</time>
      </trkpt>
      <trkpt lat="49.31963" lon="0.18747">
        <ele>43.4</ele>
        <time>2024-10-02T13:13:38Z</time>
      </trkpt>
      <trkpt lat="49.31966" lon="0.18759">
        <ele>43.4</ele>
        <time>2024-10-02T13:13:39Z</time>
      </trkpt>
      <trkpt lat="49.31968" lon="0.18772">
        <ele>43.4</ele>
        <time>2024-10-02T13:13:40Z</time>
      </trkpt>
      <trkpt lat="49.31971" lon="0.18783">
        <ele>43.4</ele>
        <time>2024-10-02T13:13:41Z</time>
      </trkpt>
      <trkpt lat="49.31972" lon="0.18792">
        <ele>43.4</ele>
        <time>2024-10-02T13:13:42Z</time>
      </trkpt>
      <trkpt lat="49.31975" lon="0.18803">
        <ele>43.4</ele>
        <time>2024-10-02T13:13:43Z</time>
      </trkpt>
      <trkpt lat="49.31977" lon="0.18816">
        <ele>43.4</ele>
        <time>2024-10-02T13:13:44Z</time>
      </trkpt>
      <trkpt lat="49.31979" lon="0.18825">
        <ele>43.4</ele>
        <time>2024-10-02T13:13:45Z</time>
      </trkpt>
      <trkpt lat="49.31982" lon="0.18838">
        <ele>43.4</ele>
        <time>2024-10-02T13:13:46Z</time>
      </trkpt>
      <trkpt lat="49.31983" lon="0.18847">
        <ele>43.4</ele>
        <time>2024-10-02T13:13:47Z</time>
      </trkpt>
      <trkpt lat="49.31986" lon="0.1886">
        <ele>43.4</ele>
        <time>2024-10-02T13:13:48Z</time>
      </trkpt>
      <trkpt lat="49.31988" lon="0.1887">
        <ele>43.4</ele>
        <time>2024-10-02T13:13:49Z</time>
      </trkpt>
      <trkpt lat="49.3199" lon="0.18878">
        <ele>43.4</ele>
        <time>2024-10-02T13:13:50Z</time>
      </trkpt>
      <trkpt lat="49.31992" lon="0.18887">
        <ele>43.4</ele>
        <time>2024-10-02T13:13:51Z</time>
      </trkpt>
      <trkpt lat="49.31994" lon="0.18898">
        <ele>43.4</ele>
        <time>2024-10-02T13:13:52Z</time>
      </trkpt>
      <trkpt lat="49.31995" lon="0.18905">
        <ele>43.4</ele>
        <time>2024-10-02T13:13:53Z</time>
      </trkpt>
      <trkpt lat="49.31997" lon="0.18915">
        <ele>43.4</ele>
        <time>2024-10-02T13:13:54Z</time>
      </trkpt>
      <trkpt lat="49.31999" lon="0.18926">
        <ele>43.4</ele>
        <time>2024-10-02T13:13:55Z</time>
      </trkpt>
      <trkpt lat="49.32" lon="0.18934">
        <ele>43.4</ele>
        <time>2024-10-02T13:13:56Z</time>
      </trkpt>
      <trkpt lat="49.32002" lon="0.18946">
        <ele>43.4</ele>
        <time>2024-10-02T13:13:57Z</time>
      </trkpt>
      <trkpt lat="49.32004" lon="0.18955">
        <ele>43.4</ele>
        <time>2024-10-02T13:13:58Z</time>
      </trkpt>
      <trkpt lat="49.32005" lon="0.18963">
        <ele>43.4</ele>
        <time>2024-10-02T13:13:59Z</time>
      </trkpt>
      <trkpt lat="49.32007" lon="0.18973">
        <ele>43.4</ele>
        <time>2024-10-02T13:14:00Z</time>
      </trkpt>
      <trkpt lat="49.32009" lon="0.18985">
        <ele>43.4</ele>
        <time>2024-10-02T13:14:01Z</time>
      </trkpt>
      <trkpt lat="49.32011" lon="0.18992">
        <ele>43.4</ele>
        <time>2024-10-02T13:14:02Z</time>
      </trkpt>
      <trkpt lat="49.32013" lon="0.19004">
        <ele>43.4</ele>
        <time>2024-10-02T13:14:03Z</time>
      </trkpt>
      <trkpt lat="49.32015" lon="0.19014">
        <ele>43.4</ele>
        <time>2024-10-02T13:14:04Z</time>
      </trkpt>
      <trkpt lat="49.32017" lon="0.19022">
        <ele>43.4</ele>
        <time>2024-10-02T13:14:05Z</time>
      </trkpt>
      <trkpt lat="49.32019" lon="0.19034">
        <ele>43.4</ele>
        <time>2024-10-02T13:14:06Z</time>
      </trkpt>
      <trkpt lat="49.3202" lon="0.19042">
        <ele>43.4</ele>
        <time>2024-10-02T13:14:07Z</time>
      </trkpt>
      <trkpt lat="49.32021" lon="0.19051">
        <ele>43.4</ele>
        <time>2024-10-02T13:14:08Z</time>
      </trkpt>
      <trkpt lat="49.32023" lon="0.19063">
        <ele>43.6</ele>
        <time>2024-10-02T13:14:09Z</time>
      </trkpt>
      <trkpt lat="49.32024" lon="0.19073">
        <ele>43.6</ele>
        <time>2024-10-02T13:14:10Z</time>
      </trkpt>
      <trkpt lat="49.32025" lon="0.19081">
        <ele>43.6</ele>
        <time>2024-10-02T13:14:11Z</time>
      </trkpt>
      <trkpt lat="49.32026" lon="0.19093">
        <ele>43.6</ele>
        <time>2024-10-02T13:14:12Z</time>
      </trkpt>
      <trkpt lat="49.32027" lon="0.19103">
        <ele>43.8</ele>
        <time>2024-10-02T13:14:13Z</time>
      </trkpt>
      <trkpt lat="49.32027" lon="0.19111">
        <ele>43.8</ele>
        <time>2024-10-02T13:14:14Z</time>
      </trkpt>
      <trkpt lat="49.32028" lon="0.19121">
        <ele>44</ele>
        <time>2024-10-02T13:14:15Z</time>
      </trkpt>
      <trkpt lat="49.32028" lon="0.19131">
        <ele>44.4</ele>
        <time>2024-10-02T13:14:16Z</time>
      </trkpt>
      <trkpt lat="49.32028" lon="0.1914">
        <ele>44.6</ele>
        <time>2024-10-02T13:14:17Z</time>
      </trkpt>
      <trkpt lat="49.32029" lon="0.19149">
        <ele>44.6</ele>
        <time>2024-10-02T13:14:18Z</time>
      </trkpt>
      <trkpt lat="49.3203" lon="0.19159">
        <ele>45</ele>
        <time>2024-10-02T13:14:19Z</time>
      </trkpt>
      <trkpt lat="49.3203" lon="0.19166">
        <ele>45.2</ele>
        <time>2024-10-02T13:14:20Z</time>
      </trkpt>
      <trkpt lat="49.3203" lon="0.19172">
        <ele>45.4</ele>
        <time>2024-10-02T13:14:21Z</time>
      </trkpt>
      <trkpt lat="49.3203" lon="0.19179">
        <ele>45.6</ele>
        <time>2024-10-02T13:14:22Z</time>
      </trkpt>
      <trkpt lat="49.32031" lon="0.19184">
        <ele>45.8</ele>
        <time>2024-10-02T13:14:23Z</time>
      </trkpt>
      <trkpt lat="49.32031" lon="0.19189">
        <ele>46</ele>
        <time>2024-10-02T13:14:24Z</time>
      </trkpt>
      <trkpt lat="49.3203" lon="0.19194">
        <ele>46.2</ele>
        <time>2024-10-02T13:14:25Z</time>
      </trkpt>
      <trkpt lat="49.32029" lon="0.19196">
        <ele>46.4</ele>
        <time>2024-10-02T13:14:26Z</time>
      </trkpt>
      <trkpt lat="49.32028" lon="0.19199">
        <ele>46.8</ele>
        <time>2024-10-02T13:14:27Z</time>
      </trkpt>
      <trkpt lat="49.32028" lon="0.19201">
        <ele>47</ele>
        <time>2024-10-02T13:14:28Z</time>
      </trkpt>
      <trkpt lat="49.32027" lon="0.19202">
        <ele>47.2</ele>
        <time>2024-10-02T13:14:29Z</time>
      </trkpt>
      <trkpt lat="49.32027" lon="0.19202">
        <ele>47.4</ele>
        <time>2024-10-02T13:14:30Z</time>
      </trkpt>
      <trkpt lat="49.32026" lon="0.1921">
        <ele>49.2</ele>
        <time>2024-10-02T13:14:45Z</time>
      </trkpt>
      <trkpt lat="49.32026" lon="0.19213">
        <ele>49.4</ele>
        <time>2024-10-02T13:14:46Z</time>
      </trkpt>
      <trkpt lat="49.32027" lon="0.19217">
        <ele>49.4</ele>
        <time>2024-10-02T13:14:47Z</time>
      </trkpt>
      <trkpt lat="49.32029" lon="0.1922">
        <ele>49.4</ele>
        <time>2024-10-02T13:14:48Z</time>
      </trkpt>
      <trkpt lat="49.32031" lon="0.19224">
        <ele>49.4</ele>
        <time>2024-10-02T13:14:49Z</time>
      </trkpt>
      <trkpt lat="49.32034" lon="0.19228">
        <ele>49.4</ele>
        <time>2024-10-02T13:14:50Z</time>
      </trkpt>
      <trkpt lat="49.32036" lon="0.19232">
        <ele>49.4</ele>
        <time>2024-10-02T13:14:51Z</time>
      </trkpt>
      <trkpt lat="49.32039" lon="0.19237">
        <ele>49.2</ele>
        <time>2024-10-02T13:14:52Z</time>
      </trkpt>
      <trkpt lat="49.32044" lon="0.19243">
        <ele>49.2</ele>
        <time>2024-10-02T13:14:53Z</time>
      </trkpt>
      <trkpt lat="49.32048" lon="0.19249">
        <ele>49.2</ele>
        <time>2024-10-02T13:14:54Z</time>
      </trkpt>
      <trkpt lat="49.32051" lon="0.19254">
        <ele>49.2</ele>
        <time>2024-10-02T13:14:55Z</time>
      </trkpt>
      <trkpt lat="49.32056" lon="0.19262">
        <ele>49.2</ele>
        <time>2024-10-02T13:14:56Z</time>
      </trkpt>
      <trkpt lat="49.3206" lon="0.19268">
        <ele>49.2</ele>
        <time>2024-10-02T13:14:57Z</time>
      </trkpt>
      <trkpt lat="49.32065" lon="0.19275">
        <ele>49.2</ele>
        <time>2024-10-02T13:14:58Z</time>
      </trkpt>
      <trkpt lat="49.3207" lon="0.19283">
        <ele>49.2</ele>
        <time>2024-10-02T13:14:59Z</time>
      </trkpt>
      <trkpt lat="49.32075" lon="0.19291">
        <ele>49</ele>
        <time>2024-10-02T13:15:00Z</time>
      </trkpt>
      <trkpt lat="49.3208" lon="0.19299">
        <ele>48.6</ele>
        <time>2024-10-02T13:15:01Z</time>
      </trkpt>
      <trkpt lat="49.32086" lon="0.19309">
        <ele>48.4</ele>
        <time>2024-10-02T13:15:02Z</time>
      </trkpt>
      <trkpt lat="49.32092" lon="0.19318">
        <ele>48</ele>
        <time>2024-10-02T13:15:03Z</time>
      </trkpt>
      <trkpt lat="49.32098" lon="0.19327">
        <ele>47.6</ele>
        <time>2024-10-02T13:15:04Z</time>
      </trkpt>
      <trkpt lat="49.32103" lon="0.19335">
        <ele>47.4</ele>
        <time>2024-10-02T13:15:05Z</time>
      </trkpt>
      <trkpt lat="49.32108" lon="0.19342">
        <ele>47</ele>
        <time>2024-10-02T13:15:06Z</time>
      </trkpt>
      <trkpt lat="49.32114" lon="0.1935">
        <ele>46.6</ele>
        <time>2024-10-02T13:15:07Z</time>
      </trkpt>
      <trkpt lat="49.32119" lon="0.19359">
        <ele>46.2</ele>
        <time>2024-10-02T13:15:08Z</time>
      </trkpt>
      <trkpt lat="49.32126" lon="0.1937">
        <ele>46</ele>
        <time>2024-10-02T13:15:09Z</time>
      </trkpt>
      <trkpt lat="49.32131" lon="0.19377">
        <ele>45.6</ele>
        <time>2024-10-02T13:15:10Z</time>
      </trkpt>
      <trkpt lat="49.32138" lon="0.19388">
        <ele>45.2</ele>
        <time>2024-10-02T13:15:11Z</time>
      </trkpt>
      <trkpt lat="49.32144" lon="0.19397">
        <ele>45</ele>
        <time>2024-10-02T13:15:12Z</time>
      </trkpt>
      <trkpt lat="49.32149" lon="0.19404">
        <ele>44.6</ele>
        <time>2024-10-02T13:15:13Z</time>
      </trkpt>
      <trkpt lat="49.32156" lon="0.19415">
        <ele>44.2</ele>
        <time>2024-10-02T13:15:14Z</time>
      </trkpt>
      <trkpt lat="49.32162" lon="0.19425">
        <ele>43.8</ele>
        <time>2024-10-02T13:15:15Z</time>
      </trkpt>
      <trkpt lat="49.32166" lon="0.19432">
        <ele>43.4</ele>
        <time>2024-10-02T13:15:16Z</time>
      </trkpt>
      <trkpt lat="49.32173" lon="0.19443">
        <ele>43.2</ele>
        <time>2024-10-02T13:15:17Z</time>
      </trkpt>
      <trkpt lat="49.32178" lon="0.19449">
        <ele>42.8</ele>
        <time>2024-10-02T13:15:18Z</time>
      </trkpt>
      <trkpt lat="49.32183" lon="0.19457">
        <ele>42.8</ele>
        <time>2024-10-02T13:15:19Z</time>
      </trkpt>
      <trkpt lat="49.32188" lon="0.19465">
        <ele>42.8</ele>
        <time>2024-10-02T13:15:20Z</time>
      </trkpt>
      <trkpt lat="49.32194" lon="0.19475">
        <ele>42.4</ele>
        <time>2024-10-02T13:15:21Z</time>
      </trkpt>
      <trkpt lat="49.32197" lon="0.19481">
        <ele>42.2</ele>
        <time>2024-10-02T13:15:22Z</time>
      </trkpt>
      <trkpt lat="49.32203" lon="0.19489">
        <ele>42</ele>
        <time>2024-10-02T13:15:23Z</time>
      </trkpt>
      <trkpt lat="49.32206" lon="0.19495">
        <ele>42</ele>
        <time>2024-10-02T13:15:24Z</time>
      </trkpt>
      <trkpt lat="49.3221" lon="0.19501">
        <ele>41.8</ele>
        <time>2024-10-02T13:15:25Z</time>
      </trkpt>
      <trkpt lat="49.32214" lon="0.19507">
        <ele>41.8</ele>
        <time>2024-10-02T13:15:26Z</time>
      </trkpt>
      <trkpt lat="49.32219" lon="0.19514">
        <ele>41.8</ele>
        <time>2024-10-02T13:15:27Z</time>
      </trkpt>
      <trkpt lat="49.32221" lon="0.19518">
        <ele>41.8</ele>
        <time>2024-10-02T13:15:28Z</time>
      </trkpt>
      <trkpt lat="49.32224" lon="0.19522">
        <ele>41.8</ele>
        <time>2024-10-02T13:15:29Z</time>
      </trkpt>
      <trkpt lat="49.32228" lon="0.19528">
        <ele>41.8</ele>
        <time>2024-10-02T13:15:30Z</time>
      </trkpt>
      <trkpt lat="49.3223" lon="0.19532">
        <ele>41.8</ele>
        <time>2024-10-02T13:15:31Z</time>
      </trkpt>
      <trkpt lat="49.32233" lon="0.19537">
        <ele>42.2</ele>
        <time>2024-10-02T13:15:32Z</time>
      </trkpt>
      <trkpt lat="49.32236" lon="0.19541">
        <ele>42.6</ele>
        <time>2024-10-02T13:15:33Z</time>
      </trkpt>
      <trkpt lat="49.32239" lon="0.19545">
        <ele>43</ele>
        <time>2024-10-02T13:15:34Z</time>
      </trkpt>
      <trkpt lat="49.32242" lon="0.1955">
        <ele>43.6</ele>
        <time>2024-10-02T13:15:35Z</time>
      </trkpt>
      <trkpt lat="49.32245" lon="0.19554">
        <ele>44.2</ele>
        <time>2024-10-02T13:15:36Z</time>
      </trkpt>
      <trkpt lat="49.32248" lon="0.19559">
        <ele>44.6</ele>
        <time>2024-10-02T13:15:37Z</time>
      </trkpt>
      <trkpt lat="49.32252" lon="0.19565">
        <ele>45.2</ele>
        <time>2024-10-02T13:15:38Z</time>
      </trkpt>
      <trkpt lat="49.32255" lon="0.1957">
        <ele>45.6</ele>
        <time>2024-10-02T13:15:39Z</time>
      </trkpt>
      <trkpt lat="49.32257" lon="0.19573">
        <ele>46</ele>
        <time>2024-10-02T13:15:40Z</time>
      </trkpt>
      <trkpt lat="49.3226" lon="0.19578">
        <ele>46</ele>
        <time>2024-10-02T13:15:41Z</time>
      </trkpt>
      <trkpt lat="49.32263" lon="0.19583">
        <ele>46.4</ele>
        <time>2024-10-02T13:15:42Z</time>
      </trkpt>
      <trkpt lat="49.32267" lon="0.19587">
        <ele>47</ele>
        <time>2024-10-02T13:15:43Z</time>
      </trkpt>
      <trkpt lat="49.32271" lon="0.19593">
        <ele>47.4</ele>
        <time>2024-10-02T13:15:44Z</time>
      </trkpt>
      <trkpt lat="49.32274" lon="0.19598">
        <ele>47.8</ele>
        <time>2024-10-02T13:15:45Z</time>
      </trkpt>
      <trkpt lat="49.32278" lon="0.19603">
        <ele>48.2</ele>
        <time>2024-10-02T13:15:46Z</time>
      </trkpt>
      <trkpt lat="49.32281" lon="0.19608">
        <ele>48.6</ele>
        <time>2024-10-02T13:15:47Z</time>
      </trkpt>
      <trkpt lat="49.32284" lon="0.19614">
        <ele>48.8</ele>
        <time>2024-10-02T13:15:48Z</time>
      </trkpt>
      <trkpt lat="49.32287" lon="0.19618">
        <ele>49</ele>
        <time>2024-10-02T13:15:49Z</time>
      </trkpt>
      <trkpt lat="49.32291" lon="0.19625">
        <ele>49.2</ele>
        <time>2024-10-02T13:15:50Z</time>
      </trkpt>
      <trkpt lat="49.32295" lon="0.1963">
        <ele>49.4</ele>
        <time>2024-10-02T13:15:51Z</time>
      </trkpt>
      <trkpt lat="49.32297" lon="0.19634">
        <ele>49.8</ele>
        <time>2024-10-02T13:15:52Z</time>
      </trkpt>
      <trkpt lat="49.323" lon="0.19639">
        <ele>50.2</ele>
        <time>2024-10-02T13:15:53Z</time>
      </trkpt>
      <trkpt lat="49.32304" lon="0.19645">
        <ele>50.8</ele>
        <time>2024-10-02T13:15:54Z</time>
      </trkpt>
      <trkpt lat="49.32306" lon="0.19649">
        <ele>51</ele>
        <time>2024-10-02T13:15:55Z</time>
      </trkpt>
      <trkpt lat="49.3231" lon="0.19655">
        <ele>51.4</ele>
        <time>2024-10-02T13:15:56Z</time>
      </trkpt>
      <trkpt lat="49.32313" lon="0.1966">
        <ele>51.8</ele>
        <time>2024-10-02T13:15:57Z</time>
      </trkpt>
      <trkpt lat="49.32315" lon="0.19663">
        <ele>52.2</ele>
        <time>2024-10-02T13:15:58Z</time>
      </trkpt>
      <trkpt lat="49.32319" lon="0.19668">
        <ele>52.6</ele>
        <time>2024-10-02T13:15:59Z</time>
      </trkpt>
      <trkpt lat="49.32321" lon="0.19672">
        <ele>53</ele>
        <time>2024-10-02T13:16:00Z</time>
      </trkpt>
      <trkpt lat="49.32324" lon="0.19677">
        <ele>53.4</ele>
        <time>2024-10-02T13:16:01Z</time>
      </trkpt>
      <trkpt lat="49.32326" lon="0.19682">
        <ele>53.6</ele>
        <time>2024-10-02T13:16:02Z</time>
      </trkpt>
      <trkpt lat="49.32329" lon="0.19687">
        <ele>53.6</ele>
        <time>2024-10-02T13:16:03Z</time>
      </trkpt>
      <trkpt lat="49.32333" lon="0.19694">
        <ele>53.8</ele>
        <time>2024-10-02T13:16:04Z</time>
      </trkpt>
      <trkpt lat="49.32336" lon="0.19698">
        <ele>54</ele>
        <time>2024-10-02T13:16:05Z</time>
      </trkpt>
      <trkpt lat="49.32339" lon="0.19705">
        <ele>54.2</ele>
        <time>2024-10-02T13:16:06Z</time>
      </trkpt>
      <trkpt lat="49.32342" lon="0.19709">
        <ele>54.4</ele>
        <time>2024-10-02T13:16:07Z</time>
      </trkpt>
      <trkpt lat="49.32345" lon="0.19715">
        <ele>54.4</ele>
        <time>2024-10-02T13:16:08Z</time>
      </trkpt>
      <trkpt lat="49.32349" lon="0.19721">
        <ele>54.8</ele>
        <time>2024-10-02T13:16:09Z</time>
      </trkpt>
      <trkpt lat="49.32352" lon="0.19727">
        <ele>55</ele>
        <time>2024-10-02T13:16:10Z</time>
      </trkpt>
      <trkpt lat="49.32355" lon="0.19732">
        <ele>55.2</ele>
        <time>2024-10-02T13:16:11Z</time>
      </trkpt>
      <trkpt lat="49.32359" lon="0.19738">
        <ele>55.4</ele>
        <time>2024-10-02T13:16:12Z</time>
      </trkpt>
      <trkpt lat="49.32361" lon="0.19742">
        <ele>55.4</ele>
        <time>2024-10-02T13:16:13Z</time>
      </trkpt>
      <trkpt lat="49.32366" lon="0.19749">
        <ele>55.6</ele>
        <time>2024-10-02T13:16:14Z</time>
      </trkpt>
      <trkpt lat="49.32369" lon="0.19755">
        <ele>55.8</ele>
        <time>2024-10-02T13:16:15Z</time>
      </trkpt>
      <trkpt lat="49.32372" lon="0.19759">
        <ele>56</ele>
        <time>2024-10-02T13:16:16Z</time>
      </trkpt>
      <trkpt lat="49.32376" lon="0.19766">
        <ele>56.4</ele>
        <time>2024-10-02T13:16:17Z</time>
      </trkpt>
      <trkpt lat="49.32379" lon="0.19771">
        <ele>56.4</ele>
        <time>2024-10-02T13:16:18Z</time>
      </trkpt>
      <trkpt lat="49.32383" lon="0.19777">
        <ele>56.6</ele>
        <time>2024-10-02T13:16:19Z</time>
      </trkpt>
      <trkpt lat="49.32386" lon="0.19782">
        <ele>56.8</ele>
        <time>2024-10-02T13:16:20Z</time>
      </trkpt>
      <trkpt lat="49.32389" lon="0.19787">
        <ele>57.2</ele>
        <time>2024-10-02T13:16:21Z</time>
      </trkpt>
      <trkpt lat="49.32392" lon="0.19792">
        <ele>57.4</ele>
        <time>2024-10-02T13:16:22Z</time>
      </trkpt>
      <trkpt lat="49.32395" lon="0.19797">
        <ele>57.6</ele>
        <time>2024-10-02T13:16:23Z</time>
      </trkpt>
      <trkpt lat="49.32399" lon="0.19802">
        <ele>57.8</ele>
        <time>2024-10-02T13:16:24Z</time>
      </trkpt>
      <trkpt lat="49.32402" lon="0.19807">
        <ele>57.8</ele>
        <time>2024-10-02T13:16:25Z</time>
      </trkpt>
      <trkpt lat="49.32406" lon="0.19813">
        <ele>58.2</ele>
        <time>2024-10-02T13:16:26Z</time>
      </trkpt>
      <trkpt lat="49.3241" lon="0.19819">
        <ele>58.6</ele>
        <time>2024-10-02T13:16:27Z</time>
      </trkpt>
      <trkpt lat="49.32413" lon="0.19823">
        <ele>59</ele>
        <time>2024-10-02T13:16:28Z</time>
      </trkpt>
      <trkpt lat="49.32416" lon="0.19829">
        <ele>59.2</ele>
        <time>2024-10-02T13:16:29Z</time>
      </trkpt>
      <trkpt lat="49.3242" lon="0.19836">
        <ele>59.6</ele>
        <time>2024-10-02T13:16:30Z</time>
      </trkpt>
      <trkpt lat="49.32423" lon="0.1984">
        <ele>59.8</ele>
        <time>2024-10-02T13:16:31Z</time>
      </trkpt>
      <trkpt lat="49.32426" lon="0.19846">
        <ele>60</ele>
        <time>2024-10-02T13:16:32Z</time>
      </trkpt>
      <trkpt lat="49.3243" lon="0.19851">
        <ele>60.4</ele>
        <time>2024-10-02T13:16:33Z</time>
      </trkpt>
      <trkpt lat="49.32434" lon="0.19858">
        <ele>60.6</ele>
        <time>2024-10-02T13:16:34Z</time>
      </trkpt>
      <trkpt lat="49.32437" lon="0.19863">
        <ele>60.8</ele>
        <time>2024-10-02T13:16:35Z</time>
      </trkpt>
      <trkpt lat="49.32442" lon="0.19871">
        <ele>61</ele>
        <time>2024-10-02T13:16:36Z</time>
      </trkpt>
      <trkpt lat="49.32446" lon="0.19877">
        <ele>61.2</ele>
        <time>2024-10-02T13:16:37Z</time>
      </trkpt>
      <trkpt lat="49.32449" lon="0.19882">
        <ele>61.4</ele>
        <time>2024-10-02T13:16:38Z</time>
      </trkpt>
      <trkpt lat="49.32454" lon="0.19889">
        <ele>61.8</ele>
        <time>2024-10-02T13:16:39Z</time>
      </trkpt>
      <trkpt lat="49.32457" lon="0.19896">
        <ele>61.8</ele>
        <time>2024-10-02T13:16:40Z</time>
      </trkpt>
      <trkpt lat="49.32461" lon="0.19901">
        <ele>62</ele>
        <time>2024-10-02T13:16:41Z</time>
      </trkpt>
      <trkpt lat="49.32465" lon="0.19908">
        <ele>62.2</ele>
        <time>2024-10-02T13:16:42Z</time>
      </trkpt>
      <trkpt lat="49.32468" lon="0.19913">
        <ele>62.2</ele>
        <time>2024-10-02T13:16:43Z</time>
      </trkpt>
      <trkpt lat="49.32472" lon="0.1992">
        <ele>62.4</ele>
        <time>2024-10-02T13:16:44Z</time>
      </trkpt>
      <trkpt lat="49.32477" lon="0.19926">
        <ele>62.4</ele>
        <time>2024-10-02T13:16:45Z</time>
      </trkpt>
      <trkpt lat="49.32482" lon="0.19934">
        <ele>62.6</ele>
        <time>2024-10-02T13:16:46Z</time>
      </trkpt>
      <trkpt lat="49.32486" lon="0.1994">
        <ele>62.6</ele>
        <time>2024-10-02T13:16:47Z</time>
      </trkpt>
      <trkpt lat="49.32489" lon="0.19945">
        <ele>62.8</ele>
        <time>2024-10-02T13:16:48Z</time>
      </trkpt>
      <trkpt lat="49.32495" lon="0.19954">
        <ele>62.8</ele>
        <time>2024-10-02T13:16:49Z</time>
      </trkpt>
      <trkpt lat="49.32499" lon="0.19961">
        <ele>62.8</ele>
        <time>2024-10-02T13:16:50Z</time>
      </trkpt>
      <trkpt lat="49.32503" lon="0.19966">
        <ele>63</ele>
        <time>2024-10-02T13:16:51Z</time>
      </trkpt>
      <trkpt lat="49.32509" lon="0.19974">
        <ele>63</ele>
        <time>2024-10-02T13:16:52Z</time>
      </trkpt>
      <trkpt lat="49.32513" lon="0.19981">
        <ele>63.2</ele>
        <time>2024-10-02T13:16:53Z</time>
      </trkpt>
      <trkpt lat="49.32517" lon="0.19987">
        <ele>63.2</ele>
        <time>2024-10-02T13:16:54Z</time>
      </trkpt>
      <trkpt lat="49.32523" lon="0.19995">
        <ele>63.2</ele>
        <time>2024-10-02T13:16:55Z</time>
      </trkpt>
      <trkpt lat="49.32527" lon="0.20002">
        <ele>63.4</ele>
        <time>2024-10-02T13:16:56Z</time>
      </trkpt>
      <trkpt lat="49.32531" lon="0.20007">
        <ele>63.4</ele>
        <time>2024-10-02T13:16:57Z</time>
      </trkpt>
      <trkpt lat="49.32536" lon="0.20014">
        <ele>63.6</ele>
        <time>2024-10-02T13:16:58Z</time>
      </trkpt>
      <trkpt lat="49.32539" lon="0.20019">
        <ele>63.8</ele>
        <time>2024-10-02T13:16:59Z</time>
      </trkpt>
      <trkpt lat="49.32544" lon="0.20024">
        <ele>64</ele>
        <time>2024-10-02T13:17:00Z</time>
      </trkpt>
      <trkpt lat="49.32549" lon="0.2003">
        <ele>64.2</ele>
        <time>2024-10-02T13:17:01Z</time>
      </trkpt>
      <trkpt lat="49.32554" lon="0.20035">
        <ele>64.4</ele>
        <time>2024-10-02T13:17:02Z</time>
      </trkpt>
      <trkpt lat="49.32559" lon="0.20041">
        <ele>64.4</ele>
        <time>2024-10-02T13:17:03Z</time>
      </trkpt>
      <trkpt lat="49.32565" lon="0.20046">
        <ele>64.6</ele>
        <time>2024-10-02T13:17:04Z</time>
      </trkpt>
      <trkpt lat="49.3257" lon="0.20051">
        <ele>64.8</ele>
        <time>2024-10-02T13:17:05Z</time>
      </trkpt>
      <trkpt lat="49.32574" lon="0.20054">
        <ele>65.2</ele>
        <time>2024-10-02T13:17:06Z</time>
      </trkpt>
      <trkpt lat="49.3258" lon="0.20058">
        <ele>65.4</ele>
        <time>2024-10-02T13:17:07Z</time>
      </trkpt>
      <trkpt lat="49.32586" lon="0.20062">
        <ele>65.4</ele>
        <time>2024-10-02T13:17:08Z</time>
      </trkpt>
      <trkpt lat="49.32591" lon="0.20065">
        <ele>65.4</ele>
        <time>2024-10-02T13:17:09Z</time>
      </trkpt>
      <trkpt lat="49.32596" lon="0.20069">
        <ele>65.6</ele>
        <time>2024-10-02T13:17:10Z</time>
      </trkpt>
      <trkpt lat="49.32601" lon="0.20072">
        <ele>65.8</ele>
        <time>2024-10-02T13:17:11Z</time>
      </trkpt>
      <trkpt lat="49.32607" lon="0.20074">
        <ele>66</ele>
        <time>2024-10-02T13:17:12Z</time>
      </trkpt>
      <trkpt lat="49.32612" lon="0.20076">
        <ele>66</ele>
        <time>2024-10-02T13:17:13Z</time>
      </trkpt>
      <trkpt lat="49.32617" lon="0.20079">
        <ele>66.4</ele>
        <time>2024-10-02T13:17:14Z</time>
      </trkpt>
      <trkpt lat="49.32621" lon="0.2008">
        <ele>66.4</ele>
        <time>2024-10-02T13:17:15Z</time>
      </trkpt>
      <trkpt lat="49.32627" lon="0.20083">
        <ele>66.4</ele>
        <time>2024-10-02T13:17:16Z</time>
      </trkpt>
      <trkpt lat="49.32632" lon="0.20085">
        <ele>66.8</ele>
        <time>2024-10-02T13:17:17Z</time>
      </trkpt>
      <trkpt lat="49.32638" lon="0.20086">
        <ele>67.2</ele>
        <time>2024-10-02T13:17:18Z</time>
      </trkpt>
      <trkpt lat="49.32643" lon="0.20088">
        <ele>67.2</ele>
        <time>2024-10-02T13:17:19Z</time>
      </trkpt>
      <trkpt lat="49.32648" lon="0.20089">
        <ele>67.4</ele>
        <time>2024-10-02T13:17:20Z</time>
      </trkpt>
      <trkpt lat="49.32654" lon="0.2009">
        <ele>67.4</ele>
        <time>2024-10-02T13:17:21Z</time>
      </trkpt>
      <trkpt lat="49.32659" lon="0.2009">
        <ele>67.4</ele>
        <time>2024-10-02T13:17:22Z</time>
      </trkpt>
      <trkpt lat="49.32664" lon="0.20091">
        <ele>67.6</ele>
        <time>2024-10-02T13:17:23Z</time>
      </trkpt>
      <trkpt lat="49.32668" lon="0.20092">
        <ele>67.6</ele>
        <time>2024-10-02T13:17:24Z</time>
      </trkpt>
      <trkpt lat="49.32675" lon="0.20093">
        <ele>67.8</ele>
        <time>2024-10-02T13:17:25Z</time>
      </trkpt>
      <trkpt lat="49.3268" lon="0.20094">
        <ele>67.8</ele>
        <time>2024-10-02T13:17:26Z</time>
      </trkpt>
      <trkpt lat="49.32684" lon="0.20095">
        <ele>68</ele>
        <time>2024-10-02T13:17:27Z</time>
      </trkpt>
      <trkpt lat="49.32689" lon="0.20095">
        <ele>68.2</ele>
        <time>2024-10-02T13:17:28Z</time>
      </trkpt>
      <trkpt lat="49.32694" lon="0.20096">
        <ele>68.4</ele>
        <time>2024-10-02T13:17:29Z</time>
      </trkpt>
      <trkpt lat="49.32699" lon="0.20097">
        <ele>68.6</ele>
        <time>2024-10-02T13:17:30Z</time>
      </trkpt>
      <trkpt lat="49.32703" lon="0.20098">
        <ele>68.6</ele>
        <time>2024-10-02T13:17:31Z</time>
      </trkpt>
      <trkpt lat="49.32708" lon="0.20099">
        <ele>68.8</ele>
        <time>2024-10-02T13:17:32Z</time>
      </trkpt>
      <trkpt lat="49.32712" lon="0.20099">
        <ele>69</ele>
        <time>2024-10-02T13:17:33Z</time>
      </trkpt>
      <trkpt lat="49.32717" lon="0.201">
        <ele>69.4</ele>
        <time>2024-10-02T13:17:34Z</time>
      </trkpt>
      <trkpt lat="49.32722" lon="0.201">
        <ele>69.6</ele>
        <time>2024-10-02T13:17:35Z</time>
      </trkpt>
      <trkpt lat="49.32726" lon="0.20101">
        <ele>69.6</ele>
        <time>2024-10-02T13:17:36Z</time>
      </trkpt>
      <trkpt lat="49.32731" lon="0.20101">
        <ele>69.8</ele>
        <time>2024-10-02T13:17:37Z</time>
      </trkpt>
      <trkpt lat="49.32736" lon="0.20102">
        <ele>70</ele>
        <time>2024-10-02T13:17:38Z</time>
      </trkpt>
      <trkpt lat="49.3274" lon="0.20103">
        <ele>70</ele>
        <time>2024-10-02T13:17:39Z</time>
      </trkpt>
      <trkpt lat="49.32745" lon="0.20103">
        <ele>70.2</ele>
        <time>2024-10-02T13:17:40Z</time>
      </trkpt>
      <trkpt lat="49.3275" lon="0.20104">
        <ele>70.2</ele>
        <time>2024-10-02T13:17:41Z</time>
      </trkpt>
      <trkpt lat="49.32754" lon="0.20105">
        <ele>70.2</ele>
        <time>2024-10-02T13:17:42Z</time>
      </trkpt>
      <trkpt lat="49.32759" lon="0.20106">
        <ele>70.8</ele>
        <time>2024-10-02T13:17:43Z</time>
      </trkpt>
      <trkpt lat="49.32763" lon="0.20106">
        <ele>71.2</ele>
        <time>2024-10-02T13:17:44Z</time>
      </trkpt>
      <trkpt lat="49.32768" lon="0.20107">
        <ele>71.6</ele>
        <time>2024-10-02T13:17:45Z</time>
      </trkpt>
      <trkpt lat="49.32773" lon="0.20107">
        <ele>71.8</ele>
        <time>2024-10-02T13:17:46Z</time>
      </trkpt>
      <trkpt lat="49.32777" lon="0.20108">
        <ele>72.4</ele>
        <time>2024-10-02T13:17:47Z</time>
      </trkpt>
      <trkpt lat="49.32782" lon="0.20108">
        <ele>72.6</ele>
        <time>2024-10-02T13:17:48Z</time>
      </trkpt>
      <trkpt lat="49.32786" lon="0.20108">
        <ele>72.8</ele>
        <time>2024-10-02T13:17:49Z</time>
      </trkpt>
      <trkpt lat="49.3279" lon="0.20109">
        <ele>73</ele>
        <time>2024-10-02T13:17:50Z</time>
      </trkpt>
      <trkpt lat="49.32795" lon="0.2011">
        <ele>73.2</ele>
        <time>2024-10-02T13:17:51Z</time>
      </trkpt>
      <trkpt lat="49.32799" lon="0.2011">
        <ele>73.4</ele>
        <time>2024-10-02T13:17:52Z</time>
      </trkpt>
      <trkpt lat="49.32803" lon="0.20111">
        <ele>73.4</ele>
        <time>2024-10-02T13:17:53Z</time>
      </trkpt>
      <trkpt lat="49.32807" lon="0.20112">
        <ele>73.6</ele>
        <time>2024-10-02T13:17:54Z</time>
      </trkpt>
      <trkpt lat="49.32812" lon="0.20113">
        <ele>73.6</ele>
        <time>2024-10-02T13:17:55Z</time>
      </trkpt>
      <trkpt lat="49.32816" lon="0.20114">
        <ele>73.8</ele>
        <time>2024-10-02T13:17:56Z</time>
      </trkpt>
      <trkpt lat="49.3282" lon="0.20115">
        <ele>73.8</ele>
        <time>2024-10-02T13:17:57Z</time>
      </trkpt>
      <trkpt lat="49.32824" lon="0.20115">
        <ele>74.2</ele>
        <time>2024-10-02T13:17:58Z</time>
      </trkpt>
      <trkpt lat="49.32828" lon="0.20115">
        <ele>74.8</ele>
        <time>2024-10-02T13:17:59Z</time>
      </trkpt>
      <trkpt lat="49.32832" lon="0.20116">
        <ele>75.2</ele>
        <time>2024-10-02T13:18:00Z</time>
      </trkpt>
      <trkpt lat="49.32836" lon="0.20116">
        <ele>75.6</ele>
        <time>2024-10-02T13:18:01Z</time>
      </trkpt>
      <trkpt lat="49.3284" lon="0.20117">
        <ele>76</ele>
        <time>2024-10-02T13:18:02Z</time>
      </trkpt>
      <trkpt lat="49.32843" lon="0.20118">
        <ele>76.4</ele>
        <time>2024-10-02T13:18:03Z</time>
      </trkpt>
      <trkpt lat="49.32847" lon="0.20119">
        <ele>76.6</ele>
        <time>2024-10-02T13:18:04Z</time>
      </trkpt>
      <trkpt lat="49.32851" lon="0.2012">
        <ele>76.8</ele>
        <time>2024-10-02T13:18:05Z</time>
      </trkpt>
      <trkpt lat="49.32855" lon="0.20121">
        <ele>77</ele>
        <time>2024-10-02T13:18:06Z</time>
      </trkpt>
      <trkpt lat="49.32859" lon="0.20122">
        <ele>77.2</ele>
        <time>2024-10-02T13:18:07Z</time>
      </trkpt>
      <trkpt lat="49.32862" lon="0.20123">
        <ele>77.4</ele>
        <time>2024-10-02T13:18:08Z</time>
      </trkpt>
      <trkpt lat="49.32866" lon="0.20124">
        <ele>77.8</ele>
        <time>2024-10-02T13:18:09Z</time>
      </trkpt>
      <trkpt lat="49.32869" lon="0.20124">
        <ele>78</ele>
        <time>2024-10-02T13:18:10Z</time>
      </trkpt>
      <trkpt lat="49.32873" lon="0.20125">
        <ele>78.2</ele>
        <time>2024-10-02T13:18:11Z</time>
      </trkpt>
      <trkpt lat="49.32877" lon="0.20125">
        <ele>78.4</ele>
        <time>2024-10-02T13:18:12Z</time>
      </trkpt>
      <trkpt lat="49.32882" lon="0.20126">
        <ele>78.6</ele>
        <time>2024-10-02T13:18:13Z</time>
      </trkpt>
      <trkpt lat="49.32886" lon="0.20127">
        <ele>78.8</ele>
        <time>2024-10-02T13:18:14Z</time>
      </trkpt>
      <trkpt lat="49.3289" lon="0.20128">
        <ele>78.8</ele>
        <time>2024-10-02T13:18:15Z</time>
      </trkpt>
      <trkpt lat="49.32894" lon="0.20128">
        <ele>78.8</ele>
        <time>2024-10-02T13:18:16Z</time>
      </trkpt>
      <trkpt lat="49.32897" lon="0.20129">
        <ele>79</ele>
        <time>2024-10-02T13:18:17Z</time>
      </trkpt>
      <trkpt lat="49.32901" lon="0.2013">
        <ele>79.4</ele>
        <time>2024-10-02T13:18:18Z</time>
      </trkpt>
      <trkpt lat="49.32905" lon="0.2013">
        <ele>79.6</ele>
        <time>2024-10-02T13:18:19Z</time>
      </trkpt>
      <trkpt lat="49.32908" lon="0.20131">
        <ele>79.8</ele>
        <time>2024-10-02T13:18:20Z</time>
      </trkpt>
      <trkpt lat="49.32912" lon="0.20131">
        <ele>80</ele>
        <time>2024-10-02T13:18:21Z</time>
      </trkpt>
      <trkpt lat="49.32915" lon="0.20131">
        <ele>80.2</ele>
        <time>2024-10-02T13:18:22Z</time>
      </trkpt>
      <trkpt lat="49.32919" lon="0.20131">
        <ele>80.4</ele>
        <time>2024-10-02T13:18:23Z</time>
      </trkpt>
      <trkpt lat="49.32922" lon="0.20132">
        <ele>80.6</ele>
        <time>2024-10-02T13:18:24Z</time>
      </trkpt>
      <trkpt lat="49.32926" lon="0.20133">
        <ele>81</ele>
        <time>2024-10-02T13:18:25Z</time>
      </trkpt>
      <trkpt lat="49.3293" lon="0.20133">
        <ele>81.2</ele>
        <time>2024-10-02T13:18:26Z</time>
      </trkpt>
      <trkpt lat="49.32933" lon="0.20134">
        <ele>81.6</ele>
        <time>2024-10-02T13:18:27Z</time>
      </trkpt>
      <trkpt lat="49.32937" lon="0.20134">
        <ele>82</ele>
        <time>2024-10-02T13:18:28Z</time>
      </trkpt>
      <trkpt lat="49.3294" lon="0.20135">
        <ele>82.2</ele>
        <time>2024-10-02T13:18:29Z</time>
      </trkpt>
      <trkpt lat="49.32944" lon="0.20136">
        <ele>82.6</ele>
        <time>2024-10-02T13:18:30Z</time>
      </trkpt>
      <trkpt lat="49.32947" lon="0.20137">
        <ele>82.6</ele>
        <time>2024-10-02T13:18:31Z</time>
      </trkpt>
      <trkpt lat="49.32951" lon="0.20137">
        <ele>82.8</ele>
        <time>2024-10-02T13:18:32Z</time>
      </trkpt>
      <trkpt lat="49.32955" lon="0.20138">
        <ele>83.2</ele>
        <time>2024-10-02T13:18:33Z</time>
      </trkpt>
      <trkpt lat="49.32959" lon="0.20138">
        <ele>83.4</ele>
        <time>2024-10-02T13:18:34Z</time>
      </trkpt>
      <trkpt lat="49.32962" lon="0.20139">
        <ele>83.6</ele>
        <time>2024-10-02T13:18:35Z</time>
      </trkpt>
      <trkpt lat="49.32965" lon="0.2014">
        <ele>83.8</ele>
        <time>2024-10-02T13:18:36Z</time>
      </trkpt>
      <trkpt lat="49.32969" lon="0.20141">
        <ele>83.8</ele>
        <time>2024-10-02T13:18:37Z</time>
      </trkpt>
      <trkpt lat="49.32973" lon="0.20141">
        <ele>84.2</ele>
        <time>2024-10-02T13:18:38Z</time>
      </trkpt>
      <trkpt lat="49.32976" lon="0.20142">
        <ele>84.2</ele>
        <time>2024-10-02T13:18:39Z</time>
      </trkpt>
      <trkpt lat="49.3298" lon="0.20143">
        <ele>84.4</ele>
        <time>2024-10-02T13:18:40Z</time>
      </trkpt>
      <trkpt lat="49.32984" lon="0.20143">
        <ele>84.6</ele>
        <time>2024-10-02T13:18:41Z</time>
      </trkpt>
      <trkpt lat="49.32988" lon="0.20144">
        <ele>85.2</ele>
        <time>2024-10-02T13:18:42Z</time>
      </trkpt>
      <trkpt lat="49.32991" lon="0.20145">
        <ele>85.4</ele>
        <time>2024-10-02T13:18:43Z</time>
      </trkpt>
      <trkpt lat="49.32995" lon="0.20146">
        <ele>85.6</ele>
        <time>2024-10-02T13:18:44Z</time>
      </trkpt>
      <trkpt lat="49.32999" lon="0.20146">
        <ele>85.6</ele>
        <time>2024-10-02T13:18:45Z</time>
      </trkpt>
      <trkpt lat="49.33002" lon="0.20147">
        <ele>85.8</ele>
        <time>2024-10-02T13:18:46Z</time>
      </trkpt>
      <trkpt lat="49.33006" lon="0.20148">
        <ele>86.2</ele>
        <time>2024-10-02T13:18:47Z</time>
      </trkpt>
      <trkpt lat="49.3301" lon="0.20148">
        <ele>86.6</ele>
        <time>2024-10-02T13:18:48Z</time>
      </trkpt>
      <trkpt lat="49.33013" lon="0.20148">
        <ele>87</ele>
        <time>2024-10-02T13:18:49Z</time>
      </trkpt>
      <trkpt lat="49.33017" lon="0.20149">
        <ele>87.2</ele>
        <time>2024-10-02T13:18:50Z</time>
      </trkpt>
      <trkpt lat="49.33021" lon="0.2015">
        <ele>87.4</ele>
        <time>2024-10-02T13:18:51Z</time>
      </trkpt>
      <trkpt lat="49.33024" lon="0.20151">
        <ele>87.4</ele>
        <time>2024-10-02T13:18:52Z</time>
      </trkpt>
      <trkpt lat="49.33028" lon="0.20152">
        <ele>87.8</ele>
        <time>2024-10-02T13:18:53Z</time>
      </trkpt>
      <trkpt lat="49.33031" lon="0.20153">
        <ele>88.2</ele>
        <time>2024-10-02T13:18:54Z</time>
      </trkpt>
      <trkpt lat="49.33035" lon="0.20154">
        <ele>88.4</ele>
        <time>2024-10-02T13:18:55Z</time>
      </trkpt>
      <trkpt lat="49.33038" lon="0.20155">
        <ele>88.6</ele>
        <time>2024-10-02T13:18:56Z</time>
      </trkpt>
      <trkpt lat="49.33042" lon="0.20157">
        <ele>89</ele>
        <time>2024-10-02T13:18:57Z</time>
      </trkpt>
      <trkpt lat="49.33045" lon="0.20158">
        <ele>89.2</ele>
        <time>2024-10-02T13:18:58Z</time>
      </trkpt>
      <trkpt lat="49.33049" lon="0.20158">
        <ele>89.2</ele>
        <time>2024-10-02T13:18:59Z</time>
      </trkpt>
      <trkpt lat="49.33053" lon="0.20159">
        <ele>89.4</ele>
        <time>2024-10-02T13:19:00Z</time>
      </trkpt>
      <trkpt lat="49.33056" lon="0.2016">
        <ele>89.6</ele>
        <time>2024-10-02T13:19:01Z</time>
      </trkpt>
      <trkpt lat="49.3306" lon="0.20162">
        <ele>89.8</ele>
        <time>2024-10-02T13:19:02Z</time>
      </trkpt>
      <trkpt lat="49.33063" lon="0.20164">
        <ele>90</ele>
        <time>2024-10-02T13:19:03Z</time>
      </trkpt>
      <trkpt lat="49.33066" lon="0.20165">
        <ele>90.4</ele>
        <time>2024-10-02T13:19:04Z</time>
      </trkpt>
      <trkpt lat="49.3307" lon="0.20167">
        <ele>90.8</ele>
        <time>2024-10-02T13:19:05Z</time>
      </trkpt>
      <trkpt lat="49.33073" lon="0.20168">
        <ele>91</ele>
        <time>2024-10-02T13:19:06Z</time>
      </trkpt>
      <trkpt lat="49.33076" lon="0.2017">
        <ele>91.4</ele>
        <time>2024-10-02T13:19:07Z</time>
      </trkpt>
      <trkpt lat="49.3308" lon="0.20171">
        <ele>91.8</ele>
        <time>2024-10-02T13:19:08Z</time>
      </trkpt>
      <trkpt lat="49.33083" lon="0.20173">
        <ele>92</ele>
        <time>2024-10-02T13:19:09Z</time>
      </trkpt>
      <trkpt lat="49.33086" lon="0.20174">
        <ele>92</ele>
        <time>2024-10-02T13:19:10Z</time>
      </trkpt>
      <trkpt lat="49.3309" lon="0.20176">
        <ele>92.2</ele>
        <time>2024-10-02T13:19:11Z</time>
      </trkpt>
      <trkpt lat="49.33092" lon="0.20178">
        <ele>92.2</ele>
        <time>2024-10-02T13:19:12Z</time>
      </trkpt>
      <trkpt lat="49.33096" lon="0.2018">
        <ele>92.2</ele>
        <time>2024-10-02T13:19:13Z</time>
      </trkpt>
      <trkpt lat="49.33099" lon="0.20182">
        <ele>92.2</ele>
        <time>2024-10-02T13:19:14Z</time>
      </trkpt>
      <trkpt lat="49.33102" lon="0.20184">
        <ele>92.4</ele>
        <time>2024-10-02T13:19:15Z</time>
      </trkpt>
      <trkpt lat="49.33104" lon="0.20185">
        <ele>92.6</ele>
        <time>2024-10-02T13:19:16Z</time>
      </trkpt>
      <trkpt lat="49.33107" lon="0.20187">
        <ele>92.8</ele>
        <time>2024-10-02T13:19:17Z</time>
      </trkpt>
      <trkpt lat="49.3311" lon="0.20189">
        <ele>93</ele>
        <time>2024-10-02T13:19:18Z</time>
      </trkpt>
      <trkpt lat="49.33113" lon="0.20191">
        <ele>93.2</ele>
        <time>2024-10-02T13:19:19Z</time>
      </trkpt>
      <trkpt lat="49.33116" lon="0.20193">
        <ele>93.4</ele>
        <time>2024-10-02T13:19:20Z</time>
      </trkpt>
      <trkpt lat="49.33119" lon="0.20195">
        <ele>93.4</ele>
        <time>2024-10-02T13:19:21Z</time>
      </trkpt>
      <trkpt lat="49.33122" lon="0.20197">
        <ele>94</ele>
        <time>2024-10-02T13:19:22Z</time>
      </trkpt>
      <trkpt lat="49.33125" lon="0.20198">
        <ele>94.2</ele>
        <time>2024-10-02T13:19:23Z</time>
      </trkpt>
      <trkpt lat="49.33127" lon="0.202">
        <ele>94.4</ele>
        <time>2024-10-02T13:19:24Z</time>
      </trkpt>
      <trkpt lat="49.3313" lon="0.20202">
        <ele>94.8</ele>
        <time>2024-10-02T13:19:25Z</time>
      </trkpt>
      <trkpt lat="49.33133" lon="0.20204">
        <ele>95.2</ele>
        <time>2024-10-02T13:19:26Z</time>
      </trkpt>
      <trkpt lat="49.33136" lon="0.20205">
        <ele>95.6</ele>
        <time>2024-10-02T13:19:27Z</time>
      </trkpt>
      <trkpt lat="49.33139" lon="0.20206">
        <ele>96.2</ele>
        <time>2024-10-02T13:19:28Z</time>
      </trkpt>
      <trkpt lat="49.33142" lon="0.20208">
        <ele>96.4</ele>
        <time>2024-10-02T13:19:29Z</time>
      </trkpt>
      <trkpt lat="49.33145" lon="0.2021">
        <ele>96.8</ele>
        <time>2024-10-02T13:19:30Z</time>
      </trkpt>
      <trkpt lat="49.33148" lon="0.20211">
        <ele>97.2</ele>
        <time>2024-10-02T13:19:31Z</time>
      </trkpt>
      <trkpt lat="49.33151" lon="0.20214">
        <ele>97.4</ele>
        <time>2024-10-02T13:19:32Z</time>
      </trkpt>
      <trkpt lat="49.33154" lon="0.20215">
        <ele>97.6</ele>
        <time>2024-10-02T13:19:33Z</time>
      </trkpt>
      <trkpt lat="49.33157" lon="0.20217">
        <ele>97.8</ele>
        <time>2024-10-02T13:19:34Z</time>
      </trkpt>
      <trkpt lat="49.3316" lon="0.20219">
        <ele>98</ele>
        <time>2024-10-02T13:19:35Z</time>
      </trkpt>
      <trkpt lat="49.33163" lon="0.20221">
        <ele>98.2</ele>
        <time>2024-10-02T13:19:36Z</time>
      </trkpt>
      <trkpt lat="49.33167" lon="0.20223">
        <ele>98.4</ele>
        <time>2024-10-02T13:19:37Z</time>
      </trkpt>
      <trkpt lat="49.3317" lon="0.20225">
        <ele>98.6</ele>
        <time>2024-10-02T13:19:38Z</time>
      </trkpt>
      <trkpt lat="49.33173" lon="0.20227">
        <ele>98.8</ele>
        <time>2024-10-02T13:19:39Z</time>
      </trkpt>
      <trkpt lat="49.33176" lon="0.20228">
        <ele>99.2</ele>
        <time>2024-10-02T13:19:40Z</time>
      </trkpt>
      <trkpt lat="49.33179" lon="0.2023">
        <ele>99.4</ele>
        <time>2024-10-02T13:19:41Z</time>
      </trkpt>
      <trkpt lat="49.33182" lon="0.20232">
        <ele>99.4</ele>
        <time>2024-10-02T13:19:42Z</time>
      </trkpt>
      <trkpt lat="49.33184" lon="0.20234">
        <ele>99.6</ele>
        <time>2024-10-02T13:19:43Z</time>
      </trkpt>
      <trkpt lat="49.33187" lon="0.20236">
        <ele>99.8</ele>
        <time>2024-10-02T13:19:44Z</time>
      </trkpt>
      <trkpt lat="49.3319" lon="0.20238">
        <ele>100</ele>
        <time>2024-10-02T13:19:45Z</time>
      </trkpt>
      <trkpt lat="49.33193" lon="0.2024">
        <ele>100.4</ele>
        <time>2024-10-02T13:19:46Z</time>
      </trkpt>
      <trkpt lat="49.33196" lon="0.20241">
        <ele>100.6</ele>
        <time>2024-10-02T13:19:47Z</time>
      </trkpt>
      <trkpt lat="49.33199" lon="0.20243">
        <ele>101</ele>
        <time>2024-10-02T13:19:48Z</time>
      </trkpt>
      <trkpt lat="49.33201" lon="0.20245">
        <ele>101.4</ele>
        <time>2024-10-02T13:19:49Z</time>
      </trkpt>
      <trkpt lat="49.33204" lon="0.20246">
        <ele>101.6</ele>
        <time>2024-10-02T13:19:50Z</time>
      </trkpt>
      <trkpt lat="49.33207" lon="0.20248">
        <ele>102</ele>
        <time>2024-10-02T13:19:51Z</time>
      </trkpt>
      <trkpt lat="49.3321" lon="0.2025">
        <ele>102.4</ele>
        <time>2024-10-02T13:19:52Z</time>
      </trkpt>
      <trkpt lat="49.33213" lon="0.20252">
        <ele>102.8</ele>
        <time>2024-10-02T13:19:53Z</time>
      </trkpt>
      <trkpt lat="49.33216" lon="0.20253">
        <ele>103.2</ele>
        <time>2024-10-02T13:19:54Z</time>
      </trkpt>
      <trkpt lat="49.33218" lon="0.20255">
        <ele>103.6</ele>
        <time>2024-10-02T13:19:55Z</time>
      </trkpt>
      <trkpt lat="49.33221" lon="0.20257">
        <ele>103.8</ele>
        <time>2024-10-02T13:19:56Z</time>
      </trkpt>
      <trkpt lat="49.33224" lon="0.20259">
        <ele>104.2</ele>
        <time>2024-10-02T13:19:57Z</time>
      </trkpt>
      <trkpt lat="49.33227" lon="0.20261">
        <ele>104.4</ele>
        <time>2024-10-02T13:19:58Z</time>
      </trkpt>
      <trkpt lat="49.3323" lon="0.20264">
        <ele>104.6</ele>
        <time>2024-10-02T13:19:59Z</time>
      </trkpt>
      <trkpt lat="49.33233" lon="0.20265">
        <ele>104.8</ele>
        <time>2024-10-02T13:20:00Z</time>
      </trkpt>
      <trkpt lat="49.33236" lon="0.20267">
        <ele>105.2</ele>
        <time>2024-10-02T13:20:01Z</time>
      </trkpt>
      <trkpt lat="49.33238" lon="0.20269">
        <ele>105.6</ele>
        <time>2024-10-02T13:20:02Z</time>
      </trkpt>
      <trkpt lat="49.33241" lon="0.2027">
        <ele>105.8</ele>
        <time>2024-10-02T13:20:03Z</time>
      </trkpt>
      <trkpt lat="49.33243" lon="0.20272">
        <ele>105.8</ele>
        <time>2024-10-02T13:20:04Z</time>
      </trkpt>
      <trkpt lat="49.33247" lon="0.20274">
        <ele>106.2</ele>
        <time>2024-10-02T13:20:05Z</time>
      </trkpt>
      <trkpt lat="49.3325" lon="0.20276">
        <ele>106.4</ele>
        <time>2024-10-02T13:20:06Z</time>
      </trkpt>
      <trkpt lat="49.33253" lon="0.20278">
        <ele>106.8</ele>
        <time>2024-10-02T13:20:07Z</time>
      </trkpt>
      <trkpt lat="49.33256" lon="0.2028">
        <ele>107</ele>
        <time>2024-10-02T13:20:08Z</time>
      </trkpt>
      <trkpt lat="49.33259" lon="0.20281">
        <ele>107.4</ele>
        <time>2024-10-02T13:20:09Z</time>
      </trkpt>
      <trkpt lat="49.33261" lon="0.20283">
        <ele>107.8</ele>
        <time>2024-10-02T13:20:10Z</time>
      </trkpt>
      <trkpt lat="49.33264" lon="0.20285">
        <ele>108</ele>
        <time>2024-10-02T13:20:11Z</time>
      </trkpt>
      <trkpt lat="49.33267" lon="0.20286">
        <ele>108.2</ele>
        <time>2024-10-02T13:20:12Z</time>
      </trkpt>
      <trkpt lat="49.33269" lon="0.20288">
        <ele>108.2</ele>
        <time>2024-10-02T13:20:13Z</time>
      </trkpt>
      <trkpt lat="49.33272" lon="0.20289">
        <ele>108.4</ele>
        <time>2024-10-02T13:20:14Z</time>
      </trkpt>
      <trkpt lat="49.33275" lon="0.20291">
        <ele>108.6</ele>
        <time>2024-10-02T13:20:15Z</time>
      </trkpt>
      <trkpt lat="49.33278" lon="0.20292">
        <ele>109</ele>
        <time>2024-10-02T13:20:16Z</time>
      </trkpt>
      <trkpt lat="49.33281" lon="0.20294">
        <ele>109.2</ele>
        <time>2024-10-02T13:20:17Z</time>
      </trkpt>
      <trkpt lat="49.33283" lon="0.20295">
        <ele>109.6</ele>
        <time>2024-10-02T13:20:18Z</time>
      </trkpt>
      <trkpt lat="49.33286" lon="0.20297">
        <ele>110</ele>
        <time>2024-10-02T13:20:19Z</time>
      </trkpt>
      <trkpt lat="49.33289" lon="0.20299">
        <ele>110.2</ele>
        <time>2024-10-02T13:20:20Z</time>
      </trkpt>
      <trkpt lat="49.33292" lon="0.20301">
        <ele>110.2</ele>
        <time>2024-10-02T13:20:21Z</time>
      </trkpt>
      <trkpt lat="49.33295" lon="0.20302">
        <ele>110.6</ele>
        <time>2024-10-02T13:20:22Z</time>
      </trkpt>
      <trkpt lat="49.33298" lon="0.20304">
        <ele>110.8</ele>
        <time>2024-10-02T13:20:23Z</time>
      </trkpt>
      <trkpt lat="49.333" lon="0.20306">
        <ele>111.2</ele>
        <time>2024-10-02T13:20:24Z</time>
      </trkpt>
      <trkpt lat="49.33303" lon="0.20307">
        <ele>111.6</ele>
        <time>2024-10-02T13:20:25Z</time>
      </trkpt>
      <trkpt lat="49.33306" lon="0.20309">
        <ele>111.6</ele>
        <time>2024-10-02T13:20:26Z</time>
      </trkpt>
      <trkpt lat="49.33309" lon="0.20311">
        <ele>111.8</ele>
        <time>2024-10-02T13:20:27Z</time>
      </trkpt>
      <trkpt lat="49.33312" lon="0.20313">
        <ele>112</ele>
        <time>2024-10-02T13:20:28Z</time>
      </trkpt>
      <trkpt lat="49.33315" lon="0.20315">
        <ele>112.4</ele>
        <time>2024-10-02T13:20:29Z</time>
      </trkpt>
      <trkpt lat="49.33318" lon="0.20317">
        <ele>112.8</ele>
        <time>2024-10-02T13:20:30Z</time>
      </trkpt>
      <trkpt lat="49.3332" lon="0.20319">
        <ele>113.2</ele>
        <time>2024-10-02T13:20:31Z</time>
      </trkpt>
      <trkpt lat="49.33323" lon="0.20321">
        <ele>113.4</ele>
        <time>2024-10-02T13:20:32Z</time>
      </trkpt>
      <trkpt lat="49.33326" lon="0.20323">
        <ele>113.8</ele>
        <time>2024-10-02T13:20:33Z</time>
      </trkpt>
      <trkpt lat="49.33329" lon="0.20326">
        <ele>114</ele>
        <time>2024-10-02T13:20:34Z</time>
      </trkpt>
      <trkpt lat="49.33332" lon="0.20328">
        <ele>114.4</ele>
        <time>2024-10-02T13:20:35Z</time>
      </trkpt>
      <trkpt lat="49.33335" lon="0.2033">
        <ele>114.8</ele>
        <time>2024-10-02T13:20:36Z</time>
      </trkpt>
      <trkpt lat="49.33338" lon="0.20333">
        <ele>115</ele>
        <time>2024-10-02T13:20:37Z</time>
      </trkpt>
      <trkpt lat="49.33341" lon="0.20336">
        <ele>115.2</ele>
        <time>2024-10-02T13:20:38Z</time>
      </trkpt>
      <trkpt lat="49.33343" lon="0.20339">
        <ele>115.4</ele>
        <time>2024-10-02T13:20:39Z</time>
      </trkpt>
      <trkpt lat="49.33346" lon="0.20341">
        <ele>115.6</ele>
        <time>2024-10-02T13:20:40Z</time>
      </trkpt>
      <trkpt lat="49.33349" lon="0.20344">
        <ele>115.8</ele>
        <time>2024-10-02T13:20:41Z</time>
      </trkpt>
      <trkpt lat="49.33351" lon="0.20346">
        <ele>116</ele>
        <time>2024-10-02T13:20:42Z</time>
      </trkpt>
      <trkpt lat="49.33355" lon="0.20349">
        <ele>116.2</ele>
        <time>2024-10-02T13:20:43Z</time>
      </trkpt>
      <trkpt lat="49.33358" lon="0.20352">
        <ele>116.4</ele>
        <time>2024-10-02T13:20:44Z</time>
      </trkpt>
      <trkpt lat="49.3336" lon="0.20355">
        <ele>116.8</ele>
        <time>2024-10-02T13:20:45Z</time>
      </trkpt>
      <trkpt lat="49.33363" lon="0.20358">
        <ele>117.2</ele>
        <time>2024-10-02T13:20:46Z</time>
      </trkpt>
      <trkpt lat="49.33366" lon="0.20361">
        <ele>117.2</ele>
        <time>2024-10-02T13:20:47Z</time>
      </trkpt>
      <trkpt lat="49.33369" lon="0.20365">
        <ele>117.4</ele>
        <time>2024-10-02T13:20:48Z</time>
      </trkpt>
      <trkpt lat="49.33372" lon="0.20368">
        <ele>117.6</ele>
        <time>2024-10-02T13:20:49Z</time>
      </trkpt>
      <trkpt lat="49.33375" lon="0.20371">
        <ele>117.8</ele>
        <time>2024-10-02T13:20:50Z</time>
      </trkpt>
      <trkpt lat="49.33378" lon="0.20374">
        <ele>118</ele>
        <time>2024-10-02T13:20:51Z</time>
      </trkpt>
      <trkpt lat="49.33381" lon="0.20377">
        <ele>118.2</ele>
        <time>2024-10-02T13:20:52Z</time>
      </trkpt>
      <trkpt lat="49.33383" lon="0.2038">
        <ele>118.6</ele>
        <time>2024-10-02T13:20:53Z</time>
      </trkpt>
      <trkpt lat="49.33386" lon="0.20383">
        <ele>118.8</ele>
        <time>2024-10-02T13:20:54Z</time>
      </trkpt>
      <trkpt lat="49.33389" lon="0.20387">
        <ele>119</ele>
        <time>2024-10-02T13:20:55Z</time>
      </trkpt>
      <trkpt lat="49.33392" lon="0.20391">
        <ele>119.2</ele>
        <time>2024-10-02T13:20:56Z</time>
      </trkpt>
      <trkpt lat="49.33394" lon="0.20394">
        <ele>119.6</ele>
        <time>2024-10-02T13:20:57Z</time>
      </trkpt>
      <trkpt lat="49.33397" lon="0.20398">
        <ele>119.8</ele>
        <time>2024-10-02T13:20:58Z</time>
      </trkpt>
      <trkpt lat="49.33399" lon="0.20402">
        <ele>120</ele>
        <time>2024-10-02T13:20:59Z</time>
      </trkpt>
      <trkpt lat="49.33402" lon="0.20405">
        <ele>120.2</ele>
        <time>2024-10-02T13:21:00Z</time>
      </trkpt>
      <trkpt lat="49.33405" lon="0.20409">
        <ele>120.4</ele>
        <time>2024-10-02T13:21:01Z</time>
      </trkpt>
      <trkpt lat="49.33408" lon="0.20412">
        <ele>120.6</ele>
        <time>2024-10-02T13:21:02Z</time>
      </trkpt>
      <trkpt lat="49.33411" lon="0.20416">
        <ele>121</ele>
        <time>2024-10-02T13:21:03Z</time>
      </trkpt>
      <trkpt lat="49.33413" lon="0.20419">
        <ele>121.2</ele>
        <time>2024-10-02T13:21:04Z</time>
      </trkpt>
      <trkpt lat="49.33416" lon="0.20423">
        <ele>121.6</ele>
        <time>2024-10-02T13:21:05Z</time>
      </trkpt>
      <trkpt lat="49.33418" lon="0.20427">
        <ele>121.8</ele>
        <time>2024-10-02T13:21:06Z</time>
      </trkpt>
      <trkpt lat="49.33421" lon="0.20431">
        <ele>122</ele>
        <time>2024-10-02T13:21:07Z</time>
      </trkpt>
      <trkpt lat="49.33424" lon="0.20435">
        <ele>122.2</ele>
        <time>2024-10-02T13:21:08Z</time>
      </trkpt>
      <trkpt lat="49.33427" lon="0.20438">
        <ele>122.2</ele>
        <time>2024-10-02T13:21:09Z</time>
      </trkpt>
      <trkpt lat="49.33429" lon="0.20442">
        <ele>122.4</ele>
        <time>2024-10-02T13:21:10Z</time>
      </trkpt>
      <trkpt lat="49.33432" lon="0.20446">
        <ele>122.6</ele>
        <time>2024-10-02T13:21:11Z</time>
      </trkpt>
      <trkpt lat="49.33435" lon="0.2045">
        <ele>123</ele>
        <time>2024-10-02T13:21:12Z</time>
      </trkpt>
      <trkpt lat="49.33438" lon="0.20453">
        <ele>123</ele>
        <time>2024-10-02T13:21:13Z</time>
      </trkpt>
      <trkpt lat="49.33441" lon="0.20456">
        <ele>123.4</ele>
        <time>2024-10-02T13:21:14Z</time>
      </trkpt>
      <trkpt lat="49.33444" lon="0.2046">
        <ele>123.6</ele>
        <time>2024-10-02T13:21:15Z</time>
      </trkpt>
      <trkpt lat="49.33447" lon="0.20463">
        <ele>123.8</ele>
        <time>2024-10-02T13:21:16Z</time>
      </trkpt>
      <trkpt lat="49.3345" lon="0.20467">
        <ele>124</ele>
        <time>2024-10-02T13:21:17Z</time>
      </trkpt>
      <trkpt lat="49.33452" lon="0.2047">
        <ele>124</ele>
        <time>2024-10-02T13:21:18Z</time>
      </trkpt>
      <trkpt lat="49.33455" lon="0.20474">
        <ele>124.2</ele>
        <time>2024-10-02T13:21:19Z</time>
      </trkpt>
      <trkpt lat="49.33457" lon="0.20477">
        <ele>124.2</ele>
        <time>2024-10-02T13:21:20Z</time>
      </trkpt>
      <trkpt lat="49.33461" lon="0.20481">
        <ele>124.6</ele>
        <time>2024-10-02T13:21:21Z</time>
      </trkpt>
      <trkpt lat="49.33463" lon="0.20484">
        <ele>124.8</ele>
        <time>2024-10-02T13:21:22Z</time>
      </trkpt>
      <trkpt lat="49.33466" lon="0.20487">
        <ele>125</ele>
        <time>2024-10-02T13:21:23Z</time>
      </trkpt>
      <trkpt lat="49.33469" lon="0.20491">
        <ele>125.4</ele>
        <time>2024-10-02T13:21:24Z</time>
      </trkpt>
      <trkpt lat="49.33472" lon="0.20494">
        <ele>125.6</ele>
        <time>2024-10-02T13:21:25Z</time>
      </trkpt>
      <trkpt lat="49.33475" lon="0.20497">
        <ele>125.8</ele>
        <time>2024-10-02T13:21:26Z</time>
      </trkpt>
      <trkpt lat="49.33478" lon="0.205">
        <ele>126.2</ele>
        <time>2024-10-02T13:21:27Z</time>
      </trkpt>
      <trkpt lat="49.33481" lon="0.20503">
        <ele>126.4</ele>
        <time>2024-10-02T13:21:28Z</time>
      </trkpt>
      <trkpt lat="49.33484" lon="0.20506">
        <ele>126.6</ele>
        <time>2024-10-02T13:21:29Z</time>
      </trkpt>
      <trkpt lat="49.33487" lon="0.20509">
        <ele>126.8</ele>
        <time>2024-10-02T13:21:30Z</time>
      </trkpt>
      <trkpt lat="49.3349" lon="0.20512">
        <ele>126.8</ele>
        <time>2024-10-02T13:21:31Z</time>
      </trkpt>
      <trkpt lat="49.33494" lon="0.20516">
        <ele>127</ele>
        <time>2024-10-02T13:21:32Z</time>
      </trkpt>
      <trkpt lat="49.33497" lon="0.20519">
        <ele>127.2</ele>
        <time>2024-10-02T13:21:33Z</time>
      </trkpt>
      <trkpt lat="49.335" lon="0.20522">
        <ele>127.4</ele>
        <time>2024-10-02T13:21:34Z</time>
      </trkpt>
      <trkpt lat="49.33504" lon="0.20525">
        <ele>127.6</ele>
        <time>2024-10-02T13:21:35Z</time>
      </trkpt>
      <trkpt lat="49.33508" lon="0.20528">
        <ele>127.8</ele>
        <time>2024-10-02T13:21:36Z</time>
      </trkpt>
      <trkpt lat="49.33511" lon="0.20531">
        <ele>127.8</ele>
        <time>2024-10-02T13:21:37Z</time>
      </trkpt>
      <trkpt lat="49.33515" lon="0.20535">
        <ele>128.2</ele>
        <time>2024-10-02T13:21:38Z</time>
      </trkpt>
      <trkpt lat="49.33519" lon="0.20538">
        <ele>128.4</ele>
        <time>2024-10-02T13:21:39Z</time>
      </trkpt>
      <trkpt lat="49.33523" lon="0.20541">
        <ele>128.6</ele>
        <time>2024-10-02T13:21:40Z</time>
      </trkpt>
      <trkpt lat="49.33526" lon="0.20545">
        <ele>128.8</ele>
        <time>2024-10-02T13:21:41Z</time>
      </trkpt>
      <trkpt lat="49.3353" lon="0.20548">
        <ele>129.2</ele>
        <time>2024-10-02T13:21:42Z</time>
      </trkpt>
      <trkpt lat="49.33534" lon="0.20551">
        <ele>129.6</ele>
        <time>2024-10-02T13:21:43Z</time>
      </trkpt>
      <trkpt lat="49.33538" lon="0.20555">
        <ele>129.8</ele>
        <time>2024-10-02T13:21:44Z</time>
      </trkpt>
      <trkpt lat="49.33542" lon="0.20558">
        <ele>129.8</ele>
        <time>2024-10-02T13:21:45Z</time>
      </trkpt>
      <trkpt lat="49.33546" lon="0.20561">
        <ele>130</ele>
        <time>2024-10-02T13:21:46Z</time>
      </trkpt>
      <trkpt lat="49.3355" lon="0.20563">
        <ele>130</ele>
        <time>2024-10-02T13:21:47Z</time>
      </trkpt>
      <trkpt lat="49.33554" lon="0.20567">
        <ele>130.2</ele>
        <time>2024-10-02T13:21:48Z</time>
      </trkpt>
      <trkpt lat="49.33558" lon="0.2057">
        <ele>130.4</ele>
        <time>2024-10-02T13:21:49Z</time>
      </trkpt>
      <trkpt lat="49.33562" lon="0.20573">
        <ele>130.4</ele>
        <time>2024-10-02T13:21:50Z</time>
      </trkpt>
      <trkpt lat="49.33566" lon="0.20576">
        <ele>130.6</ele>
        <time>2024-10-02T13:21:51Z</time>
      </trkpt>
      <trkpt lat="49.33569" lon="0.20579">
        <ele>130.6</ele>
        <time>2024-10-02T13:21:52Z</time>
      </trkpt>
      <trkpt lat="49.33573" lon="0.20582">
        <ele>130.6</ele>
        <time>2024-10-02T13:21:53Z</time>
      </trkpt>
      <trkpt lat="49.33578" lon="0.20585">
        <ele>130.8</ele>
        <time>2024-10-02T13:21:54Z</time>
      </trkpt>
      <trkpt lat="49.33582" lon="0.20588">
        <ele>131.2</ele>
        <time>2024-10-02T13:21:55Z</time>
      </trkpt>
      <trkpt lat="49.33586" lon="0.2059">
        <ele>131.4</ele>
        <time>2024-10-02T13:21:56Z</time>
      </trkpt>
      <trkpt lat="49.3359" lon="0.20593">
        <ele>131.6</ele>
        <time>2024-10-02T13:21:57Z</time>
      </trkpt>
      <trkpt lat="49.33593" lon="0.20595">
        <ele>131.6</ele>
        <time>2024-10-02T13:21:58Z</time>
      </trkpt>
      <trkpt lat="49.33597" lon="0.20598">
        <ele>131.6</ele>
        <time>2024-10-02T13:21:59Z</time>
      </trkpt>
      <trkpt lat="49.33601" lon="0.206">
        <ele>131.8</ele>
        <time>2024-10-02T13:22:00Z</time>
      </trkpt>
      <trkpt lat="49.33605" lon="0.20603">
        <ele>132</ele>
        <time>2024-10-02T13:22:01Z</time>
      </trkpt>
      <trkpt lat="49.33609" lon="0.20605">
        <ele>132.2</ele>
        <time>2024-10-02T13:22:02Z</time>
      </trkpt>
      <trkpt lat="49.33613" lon="0.20608">
        <ele>132.2</ele>
        <time>2024-10-02T13:22:03Z</time>
      </trkpt>
      <trkpt lat="49.33617" lon="0.2061">
        <ele>132.4</ele>
        <time>2024-10-02T13:22:04Z</time>
      </trkpt>
      <trkpt lat="49.33621" lon="0.20612">
        <ele>132.6</ele>
        <time>2024-10-02T13:22:05Z</time>
      </trkpt>
      <trkpt lat="49.33626" lon="0.20614">
        <ele>132.6</ele>
        <time>2024-10-02T13:22:06Z</time>
      </trkpt>
      <trkpt lat="49.3363" lon="0.20616">
        <ele>132.8</ele>
        <time>2024-10-02T13:22:07Z</time>
      </trkpt>
      <trkpt lat="49.33634" lon="0.20618">
        <ele>133</ele>
        <time>2024-10-02T13:22:08Z</time>
      </trkpt>
      <trkpt lat="49.33638" lon="0.2062">
        <ele>133.4</ele>
        <time>2024-10-02T13:22:09Z</time>
      </trkpt>
      <trkpt lat="49.33643" lon="0.20622">
        <ele>133.8</ele>
        <time>2024-10-02T13:22:10Z</time>
      </trkpt>
      <trkpt lat="49.33647" lon="0.20624">
        <ele>134</ele>
        <time>2024-10-02T13:22:11Z</time>
      </trkpt>
      <trkpt lat="49.33652" lon="0.20625">
        <ele>134.4</ele>
        <time>2024-10-02T13:22:12Z</time>
      </trkpt>
      <trkpt lat="49.33655" lon="0.20626">
        <ele>134.4</ele>
        <time>2024-10-02T13:22:13Z</time>
      </trkpt>
      <trkpt lat="49.33661" lon="0.20627">
        <ele>134.8</ele>
        <time>2024-10-02T13:22:14Z</time>
      </trkpt>
      <trkpt lat="49.33666" lon="0.20628">
        <ele>135</ele>
        <time>2024-10-02T13:22:15Z</time>
      </trkpt>
      <trkpt lat="49.33671" lon="0.20629">
        <ele>135</ele>
        <time>2024-10-02T13:22:16Z</time>
      </trkpt>
      <trkpt lat="49.33676" lon="0.20629">
        <ele>135.4</ele>
        <time>2024-10-02T13:22:17Z</time>
      </trkpt>
      <trkpt lat="49.33681" lon="0.20629">
        <ele>135.6</ele>
        <time>2024-10-02T13:22:18Z</time>
      </trkpt>
      <trkpt lat="49.33686" lon="0.20629">
        <ele>135.8</ele>
        <time>2024-10-02T13:22:19Z</time>
      </trkpt>
      <trkpt lat="49.33691" lon="0.2063">
        <ele>136</ele>
        <time>2024-10-02T13:22:20Z</time>
      </trkpt>
      <trkpt lat="49.33696" lon="0.2063">
        <ele>136.2</ele>
        <time>2024-10-02T13:22:21Z</time>
      </trkpt>
      <trkpt lat="49.337" lon="0.20629">
        <ele>136.2</ele>
        <time>2024-10-02T13:22:22Z</time>
      </trkpt>
      <trkpt lat="49.33705" lon="0.20629">
        <ele>136.4</ele>
        <time>2024-10-02T13:22:23Z</time>
      </trkpt>
      <trkpt lat="49.3371" lon="0.20628">
        <ele>136.4</ele>
        <time>2024-10-02T13:22:24Z</time>
      </trkpt>
      <trkpt lat="49.33715" lon="0.20628">
        <ele>136.6</ele>
        <time>2024-10-02T13:22:25Z</time>
      </trkpt>
      <trkpt lat="49.3372" lon="0.20628">
        <ele>136.8</ele>
        <time>2024-10-02T13:22:26Z</time>
      </trkpt>
      <trkpt lat="49.33725" lon="0.20628">
        <ele>136.8</ele>
        <time>2024-10-02T13:22:27Z</time>
      </trkpt>
      <trkpt lat="49.3373" lon="0.20628">
        <ele>137</ele>
        <time>2024-10-02T13:22:28Z</time>
      </trkpt>
      <trkpt lat="49.33735" lon="0.20627">
        <ele>137</ele>
        <time>2024-10-02T13:22:29Z</time>
      </trkpt>
      <trkpt lat="49.33741" lon="0.20627">
        <ele>137.2</ele>
        <time>2024-10-02T13:22:30Z</time>
      </trkpt>
      <trkpt lat="49.33746" lon="0.20626">
        <ele>137.2</ele>
        <time>2024-10-02T13:22:31Z</time>
      </trkpt>
      <trkpt lat="49.33751" lon="0.20625">
        <ele>137.4</ele>
        <time>2024-10-02T13:22:32Z</time>
      </trkpt>
      <trkpt lat="49.33756" lon="0.20625">
        <ele>137.4</ele>
        <time>2024-10-02T13:22:33Z</time>
      </trkpt>
      <trkpt lat="49.33761" lon="0.20625">
        <ele>137.4</ele>
        <time>2024-10-02T13:22:34Z</time>
      </trkpt>
      <trkpt lat="49.33766" lon="0.20624">
        <ele>137.4</ele>
        <time>2024-10-02T13:22:35Z</time>
      </trkpt>
      <trkpt lat="49.33771" lon="0.20624">
        <ele>137.4</ele>
        <time>2024-10-02T13:22:36Z</time>
      </trkpt>
      <trkpt lat="49.33776" lon="0.20623">
        <ele>137.4</ele>
        <time>2024-10-02T13:22:37Z</time>
      </trkpt>
      <trkpt lat="49.33781" lon="0.20623">
        <ele>137.6</ele>
        <time>2024-10-02T13:22:38Z</time>
      </trkpt>
      <trkpt lat="49.33787" lon="0.20622">
        <ele>137.6</ele>
        <time>2024-10-02T13:22:39Z</time>
      </trkpt>
      <trkpt lat="49.33792" lon="0.20622">
        <ele>137.8</ele>
        <time>2024-10-02T13:22:40Z</time>
      </trkpt>
      <trkpt lat="49.33798" lon="0.20622">
        <ele>138.6</ele>
        <time>2024-10-02T13:22:41Z</time>
      </trkpt>
      <trkpt lat="49.33803" lon="0.20622">
        <ele>138.8</ele>
        <time>2024-10-02T13:22:42Z</time>
      </trkpt>
      <trkpt lat="49.33809" lon="0.20621">
        <ele>139</ele>
        <time>2024-10-02T13:22:43Z</time>
      </trkpt>
      <trkpt lat="49.33814" lon="0.20621">
        <ele>139.4</ele>
        <time>2024-10-02T13:22:44Z</time>
      </trkpt>
      <trkpt lat="49.33819" lon="0.2062">
        <ele>139.4</ele>
        <time>2024-10-02T13:22:45Z</time>
      </trkpt>
      <trkpt lat="49.33825" lon="0.2062">
        <ele>139.6</ele>
        <time>2024-10-02T13:22:46Z</time>
      </trkpt>
      <trkpt lat="49.33829" lon="0.20619">
        <ele>139.8</ele>
        <time>2024-10-02T13:22:47Z</time>
      </trkpt>
      <trkpt lat="49.33836" lon="0.20619">
        <ele>140</ele>
        <time>2024-10-02T13:22:48Z</time>
      </trkpt>
      <trkpt lat="49.33841" lon="0.20619">
        <ele>140.2</ele>
        <time>2024-10-02T13:22:49Z</time>
      </trkpt>
      <trkpt lat="49.33846" lon="0.20619">
        <ele>140.2</ele>
        <time>2024-10-02T13:22:50Z</time>
      </trkpt>
      <trkpt lat="49.33851" lon="0.20618">
        <ele>140.2</ele>
        <time>2024-10-02T13:22:51Z</time>
      </trkpt>
      <trkpt lat="49.33856" lon="0.20617">
        <ele>140.4</ele>
        <time>2024-10-02T13:22:52Z</time>
      </trkpt>
      <trkpt lat="49.33861" lon="0.20617">
        <ele>140.6</ele>
        <time>2024-10-02T13:22:53Z</time>
      </trkpt>
      <trkpt lat="49.33866" lon="0.20616">
        <ele>140.6</ele>
        <time>2024-10-02T13:22:54Z</time>
      </trkpt>
      <trkpt lat="49.33871" lon="0.20615">
        <ele>140.8</ele>
        <time>2024-10-02T13:22:55Z</time>
      </trkpt>
      <trkpt lat="49.33876" lon="0.20614">
        <ele>140.8</ele>
        <time>2024-10-02T13:22:56Z</time>
      </trkpt>
      <trkpt lat="49.33881" lon="0.20613">
        <ele>140.8</ele>
        <time>2024-10-02T13:22:57Z</time>
      </trkpt>
      <trkpt lat="49.33887" lon="0.20611">
        <ele>141</ele>
        <time>2024-10-02T13:22:58Z</time>
      </trkpt>
      <trkpt lat="49.33893" lon="0.2061">
        <ele>141</ele>
        <time>2024-10-02T13:22:59Z</time>
      </trkpt>
      <trkpt lat="49.33898" lon="0.20609">
        <ele>141.2</ele>
        <time>2024-10-02T13:23:00Z</time>
      </trkpt>
      <trkpt lat="49.33904" lon="0.20607">
        <ele>141.6</ele>
        <time>2024-10-02T13:23:01Z</time>
      </trkpt>
      <trkpt lat="49.33909" lon="0.20605">
        <ele>141.8</ele>
        <time>2024-10-02T13:23:02Z</time>
      </trkpt>
      <trkpt lat="49.33915" lon="0.20603">
        <ele>142</ele>
        <time>2024-10-02T13:23:03Z</time>
      </trkpt>
      <trkpt lat="49.3392" lon="0.20601">
        <ele>142</ele>
        <time>2024-10-02T13:23:04Z</time>
      </trkpt>
      <trkpt lat="49.33925" lon="0.20598">
        <ele>142.2</ele>
        <time>2024-10-02T13:23:05Z</time>
      </trkpt>
      <trkpt lat="49.3393" lon="0.20594">
        <ele>142.2</ele>
        <time>2024-10-02T13:23:06Z</time>
      </trkpt>
      <trkpt lat="49.33935" lon="0.20591">
        <ele>142.4</ele>
        <time>2024-10-02T13:23:07Z</time>
      </trkpt>
      <trkpt lat="49.3394" lon="0.20588">
        <ele>142.6</ele>
        <time>2024-10-02T13:23:08Z</time>
      </trkpt>
      <trkpt lat="49.33945" lon="0.20584">
        <ele>142.8</ele>
        <time>2024-10-02T13:23:09Z</time>
      </trkpt>
      <trkpt lat="49.33951" lon="0.2058">
        <ele>143</ele>
        <time>2024-10-02T13:23:10Z</time>
      </trkpt>
      <trkpt lat="49.33956" lon="0.20576">
        <ele>143</ele>
        <time>2024-10-02T13:23:11Z</time>
      </trkpt>
      <trkpt lat="49.33962" lon="0.20571">
        <ele>143.2</ele>
        <time>2024-10-02T13:23:12Z</time>
      </trkpt>
      <trkpt lat="49.33968" lon="0.20566">
        <ele>143.2</ele>
        <time>2024-10-02T13:23:13Z</time>
      </trkpt>
      <trkpt lat="49.33974" lon="0.2056">
        <ele>143.2</ele>
        <time>2024-10-02T13:23:14Z</time>
      </trkpt>
      <trkpt lat="49.33979" lon="0.20555">
        <ele>143.4</ele>
        <time>2024-10-02T13:23:15Z</time>
      </trkpt>
      <trkpt lat="49.33985" lon="0.20549">
        <ele>143.6</ele>
        <time>2024-10-02T13:23:16Z</time>
      </trkpt>
      <trkpt lat="49.33991" lon="0.20544">
        <ele>143.6</ele>
        <time>2024-10-02T13:23:17Z</time>
      </trkpt>
      <trkpt lat="49.33996" lon="0.20538">
        <ele>143.6</ele>
        <time>2024-10-02T13:23:18Z</time>
      </trkpt>
      <trkpt lat="49.34001" lon="0.20532">
        <ele>143.6</ele>
        <time>2024-10-02T13:23:19Z</time>
      </trkpt>
      <trkpt lat="49.34006" lon="0.20526">
        <ele>143.6</ele>
        <time>2024-10-02T13:23:20Z</time>
      </trkpt>
      <trkpt lat="49.34012" lon="0.2052">
        <ele>143.8</ele>
        <time>2024-10-02T13:23:21Z</time>
      </trkpt>
      <trkpt lat="49.34018" lon="0.20515">
        <ele>143.8</ele>
        <time>2024-10-02T13:23:22Z</time>
      </trkpt>
      <trkpt lat="49.34023" lon="0.2051">
        <ele>143.8</ele>
        <time>2024-10-02T13:23:23Z</time>
      </trkpt>
      <trkpt lat="49.34029" lon="0.20504">
        <ele>143.8</ele>
        <time>2024-10-02T13:23:24Z</time>
      </trkpt>
      <trkpt lat="49.34034" lon="0.20498">
        <ele>143.8</ele>
        <time>2024-10-02T13:23:25Z</time>
      </trkpt>
      <trkpt lat="49.34039" lon="0.20493">
        <ele>143.8</ele>
        <time>2024-10-02T13:23:26Z</time>
      </trkpt>
      <trkpt lat="49.34045" lon="0.20487">
        <ele>143.8</ele>
        <time>2024-10-02T13:23:27Z</time>
      </trkpt>
      <trkpt lat="49.34051" lon="0.20481">
        <ele>143.8</ele>
        <time>2024-10-02T13:23:28Z</time>
      </trkpt>
      <trkpt lat="49.34057" lon="0.20475">
        <ele>143.8</ele>
        <time>2024-10-02T13:23:29Z</time>
      </trkpt>
      <trkpt lat="49.34062" lon="0.20469">
        <ele>143.8</ele>
        <time>2024-10-02T13:23:30Z</time>
      </trkpt>
      <trkpt lat="49.34068" lon="0.20463">
        <ele>143.8</ele>
        <time>2024-10-02T13:23:31Z</time>
      </trkpt>
      <trkpt lat="49.34074" lon="0.20457">
        <ele>143.8</ele>
        <time>2024-10-02T13:23:32Z</time>
      </trkpt>
      <trkpt lat="49.3408" lon="0.20451">
        <ele>143.6</ele>
        <time>2024-10-02T13:23:33Z</time>
      </trkpt>
      <trkpt lat="49.34087" lon="0.20445">
        <ele>143.6</ele>
        <time>2024-10-02T13:23:34Z</time>
      </trkpt>
      <trkpt lat="49.34093" lon="0.20439">
        <ele>143.6</ele>
        <time>2024-10-02T13:23:35Z</time>
      </trkpt>
      <trkpt lat="49.34099" lon="0.20432">
        <ele>143.6</ele>
        <time>2024-10-02T13:23:36Z</time>
      </trkpt>
      <trkpt lat="49.34105" lon="0.20426">
        <ele>143.4</ele>
        <time>2024-10-02T13:23:37Z</time>
      </trkpt>
      <trkpt lat="49.34111" lon="0.2042">
        <ele>143.4</ele>
        <time>2024-10-02T13:23:38Z</time>
      </trkpt>
      <trkpt lat="49.34118" lon="0.20414">
        <ele>143.4</ele>
        <time>2024-10-02T13:23:39Z</time>
      </trkpt>
      <trkpt lat="49.34124" lon="0.20408">
        <ele>143.4</ele>
        <time>2024-10-02T13:23:40Z</time>
      </trkpt>
      <trkpt lat="49.3413" lon="0.20402">
        <ele>143.2</ele>
        <time>2024-10-02T13:23:41Z</time>
      </trkpt>
      <trkpt lat="49.34136" lon="0.20396">
        <ele>143.2</ele>
        <time>2024-10-02T13:23:42Z</time>
      </trkpt>
      <trkpt lat="49.34142" lon="0.20389">
        <ele>143</ele>
        <time>2024-10-02T13:23:43Z</time>
      </trkpt>
      <trkpt lat="49.34148" lon="0.20382">
        <ele>143</ele>
        <time>2024-10-02T13:23:44Z</time>
      </trkpt>
      <trkpt lat="49.34154" lon="0.20376">
        <ele>142.8</ele>
        <time>2024-10-02T13:23:45Z</time>
      </trkpt>
      <trkpt lat="49.3416" lon="0.2037">
        <ele>142.8</ele>
        <time>2024-10-02T13:23:46Z</time>
      </trkpt>
      <trkpt lat="49.34166" lon="0.20365">
        <ele>142.8</ele>
        <time>2024-10-02T13:23:47Z</time>
      </trkpt>
      <trkpt lat="49.34172" lon="0.20359">
        <ele>142.6</ele>
        <time>2024-10-02T13:23:48Z</time>
      </trkpt>
      <trkpt lat="49.34178" lon="0.20353">
        <ele>142.6</ele>
        <time>2024-10-02T13:23:49Z</time>
      </trkpt>
      <trkpt lat="49.34184" lon="0.20347">
        <ele>142.6</ele>
        <time>2024-10-02T13:23:50Z</time>
      </trkpt>
      <trkpt lat="49.3419" lon="0.20341">
        <ele>142.6</ele>
        <time>2024-10-02T13:23:51Z</time>
      </trkpt>
      <trkpt lat="49.34196" lon="0.20335">
        <ele>142.6</ele>
        <time>2024-10-02T13:23:52Z</time>
      </trkpt>
      <trkpt lat="49.34202" lon="0.20329">
        <ele>142.6</ele>
        <time>2024-10-02T13:23:53Z</time>
      </trkpt>
      <trkpt lat="49.34208" lon="0.20323">
        <ele>142.6</ele>
        <time>2024-10-02T13:23:54Z</time>
      </trkpt>
      <trkpt lat="49.34214" lon="0.20317">
        <ele>142.6</ele>
        <time>2024-10-02T13:23:55Z</time>
      </trkpt>
      <trkpt lat="49.3422" lon="0.20312">
        <ele>142.4</ele>
        <time>2024-10-02T13:23:56Z</time>
      </trkpt>
      <trkpt lat="49.34226" lon="0.20306">
        <ele>142.4</ele>
        <time>2024-10-02T13:23:57Z</time>
      </trkpt>
      <trkpt lat="49.34232" lon="0.203">
        <ele>142.4</ele>
        <time>2024-10-02T13:23:58Z</time>
      </trkpt>
      <trkpt lat="49.34238" lon="0.20294">
        <ele>142.4</ele>
        <time>2024-10-02T13:23:59Z</time>
      </trkpt>
      <trkpt lat="49.34244" lon="0.20288">
        <ele>142.4</ele>
        <time>2024-10-02T13:24:00Z</time>
      </trkpt>
      <trkpt lat="49.3425" lon="0.20283">
        <ele>142.4</ele>
        <time>2024-10-02T13:24:01Z</time>
      </trkpt>
      <trkpt lat="49.34256" lon="0.20276">
        <ele>142.2</ele>
        <time>2024-10-02T13:24:02Z</time>
      </trkpt>
      <trkpt lat="49.34262" lon="0.20271">
        <ele>142</ele>
        <time>2024-10-02T13:24:03Z</time>
      </trkpt>
      <trkpt lat="49.34268" lon="0.20265">
        <ele>142</ele>
        <time>2024-10-02T13:24:04Z</time>
      </trkpt>
      <trkpt lat="49.34275" lon="0.20259">
        <ele>141.8</ele>
        <time>2024-10-02T13:24:05Z</time>
      </trkpt>
      <trkpt lat="49.3428" lon="0.20253">
        <ele>141.8</ele>
        <time>2024-10-02T13:24:06Z</time>
      </trkpt>
      <trkpt lat="49.34286" lon="0.20247">
        <ele>141.8</ele>
        <time>2024-10-02T13:24:07Z</time>
      </trkpt>
      <trkpt lat="49.34292" lon="0.20241">
        <ele>141.8</ele>
        <time>2024-10-02T13:24:08Z</time>
      </trkpt>
      <trkpt lat="49.34298" lon="0.20236">
        <ele>141.8</ele>
        <time>2024-10-02T13:24:09Z</time>
      </trkpt>
      <trkpt lat="49.34304" lon="0.2023">
        <ele>141.8</ele>
        <time>2024-10-02T13:24:10Z</time>
      </trkpt>
      <trkpt lat="49.3431" lon="0.20225">
        <ele>141.8</ele>
        <time>2024-10-02T13:24:11Z</time>
      </trkpt>
      <trkpt lat="49.34316" lon="0.20219">
        <ele>141.8</ele>
        <time>2024-10-02T13:24:12Z</time>
      </trkpt>
      <trkpt lat="49.34321" lon="0.20214">
        <ele>142</ele>
        <time>2024-10-02T13:24:13Z</time>
      </trkpt>
      <trkpt lat="49.34327" lon="0.20208">
        <ele>142.2</ele>
        <time>2024-10-02T13:24:14Z</time>
      </trkpt>
      <trkpt lat="49.34333" lon="0.20202">
        <ele>142.6</ele>
        <time>2024-10-02T13:24:15Z</time>
      </trkpt>
      <trkpt lat="49.34339" lon="0.20196">
        <ele>143</ele>
        <time>2024-10-02T13:24:16Z</time>
      </trkpt>
      <trkpt lat="49.34345" lon="0.20191">
        <ele>143.6</ele>
        <time>2024-10-02T13:24:17Z</time>
      </trkpt>
      <trkpt lat="49.34351" lon="0.20185">
        <ele>144</ele>
        <time>2024-10-02T13:24:18Z</time>
      </trkpt>
      <trkpt lat="49.34357" lon="0.20179">
        <ele>144.2</ele>
        <time>2024-10-02T13:24:19Z</time>
      </trkpt>
      <trkpt lat="49.34364" lon="0.20173">
        <ele>144.4</ele>
        <time>2024-10-02T13:24:20Z</time>
      </trkpt>
      <trkpt lat="49.34369" lon="0.20167">
        <ele>144.6</ele>
        <time>2024-10-02T13:24:21Z</time>
      </trkpt>
      <trkpt lat="49.34375" lon="0.20161">
        <ele>144.6</ele>
        <time>2024-10-02T13:24:22Z</time>
      </trkpt>
      <trkpt lat="49.34381" lon="0.20155">
        <ele>144.6</ele>
        <time>2024-10-02T13:24:23Z</time>
      </trkpt>
      <trkpt lat="49.34387" lon="0.20149">
        <ele>144.8</ele>
        <time>2024-10-02T13:24:24Z</time>
      </trkpt>
      <trkpt lat="49.34393" lon="0.20143">
        <ele>144.8</ele>
        <time>2024-10-02T13:24:25Z</time>
      </trkpt>
      <trkpt lat="49.34399" lon="0.20137">
        <ele>144.8</ele>
        <time>2024-10-02T13:24:26Z</time>
      </trkpt>
      <trkpt lat="49.34405" lon="0.20131">
        <ele>144.8</ele>
        <time>2024-10-02T13:24:27Z</time>
      </trkpt>
      <trkpt lat="49.3441" lon="0.20126">
        <ele>145</ele>
        <time>2024-10-02T13:24:28Z</time>
      </trkpt>
      <trkpt lat="49.34416" lon="0.2012">
        <ele>145</ele>
        <time>2024-10-02T13:24:29Z</time>
      </trkpt>
      <trkpt lat="49.34421" lon="0.20115">
        <ele>145</ele>
        <time>2024-10-02T13:24:30Z</time>
      </trkpt>
      <trkpt lat="49.34427" lon="0.20109">
        <ele>145</ele>
        <time>2024-10-02T13:24:31Z</time>
      </trkpt>
      <trkpt lat="49.34433" lon="0.20104">
        <ele>145</ele>
        <time>2024-10-02T13:24:32Z</time>
      </trkpt>
      <trkpt lat="49.34438" lon="0.20098">
        <ele>145</ele>
        <time>2024-10-02T13:24:33Z</time>
      </trkpt>
      <trkpt lat="49.34444" lon="0.20093">
        <ele>145</ele>
        <time>2024-10-02T13:24:34Z</time>
      </trkpt>
      <trkpt lat="49.3445" lon="0.20088">
        <ele>145.2</ele>
        <time>2024-10-02T13:24:35Z</time>
      </trkpt>
      <trkpt lat="49.34456" lon="0.20082">
        <ele>145.2</ele>
        <time>2024-10-02T13:24:36Z</time>
      </trkpt>
      <trkpt lat="49.34462" lon="0.20077">
        <ele>145.2</ele>
        <time>2024-10-02T13:24:37Z</time>
      </trkpt>
      <trkpt lat="49.34467" lon="0.20071">
        <ele>145.2</ele>
        <time>2024-10-02T13:24:38Z</time>
      </trkpt>
      <trkpt lat="49.34473" lon="0.20065">
        <ele>145.2</ele>
        <time>2024-10-02T13:24:39Z</time>
      </trkpt>
      <trkpt lat="49.34479" lon="0.2006">
        <ele>145.2</ele>
        <time>2024-10-02T13:24:40Z</time>
      </trkpt>
      <trkpt lat="49.34485" lon="0.20054">
        <ele>145.2</ele>
        <time>2024-10-02T13:24:41Z</time>
      </trkpt>
      <trkpt lat="49.34491" lon="0.20048">
        <ele>145.2</ele>
        <time>2024-10-02T13:24:42Z</time>
      </trkpt>
      <trkpt lat="49.34498" lon="0.20042">
        <ele>145.2</ele>
        <time>2024-10-02T13:24:43Z</time>
      </trkpt>
      <trkpt lat="49.34504" lon="0.20036">
        <ele>145.2</ele>
        <time>2024-10-02T13:24:44Z</time>
      </trkpt>
      <trkpt lat="49.3451" lon="0.2003">
        <ele>145.2</ele>
        <time>2024-10-02T13:24:45Z</time>
      </trkpt>
      <trkpt lat="49.34516" lon="0.20024">
        <ele>145.2</ele>
        <time>2024-10-02T13:24:46Z</time>
      </trkpt>
      <trkpt lat="49.34523" lon="0.20017">
        <ele>145.2</ele>
        <time>2024-10-02T13:24:47Z</time>
      </trkpt>
      <trkpt lat="49.34529" lon="0.20012">
        <ele>145.2</ele>
        <time>2024-10-02T13:24:48Z</time>
      </trkpt>
      <trkpt lat="49.34536" lon="0.20006">
        <ele>145.2</ele>
        <time>2024-10-02T13:24:49Z</time>
      </trkpt>
      <trkpt lat="49.34542" lon="0.19999">
        <ele>145.2</ele>
        <time>2024-10-02T13:24:50Z</time>
      </trkpt>
      <trkpt lat="49.34549" lon="0.19993">
        <ele>145</ele>
        <time>2024-10-02T13:24:51Z</time>
      </trkpt>
      <trkpt lat="49.34555" lon="0.19987">
        <ele>144.8</ele>
        <time>2024-10-02T13:24:52Z</time>
      </trkpt>
      <trkpt lat="49.34562" lon="0.19981">
        <ele>144.8</ele>
        <time>2024-10-02T13:24:53Z</time>
      </trkpt>
      <trkpt lat="49.34567" lon="0.19976">
        <ele>144.6</ele>
        <time>2024-10-02T13:24:54Z</time>
      </trkpt>
      <trkpt lat="49.34573" lon="0.19969">
        <ele>144.4</ele>
        <time>2024-10-02T13:24:55Z</time>
      </trkpt>
      <trkpt lat="49.34579" lon="0.19963">
        <ele>144.4</ele>
        <time>2024-10-02T13:24:56Z</time>
      </trkpt>
      <trkpt lat="49.34587" lon="0.19955">
        <ele>144.4</ele>
        <time>2024-10-02T13:24:57Z</time>
      </trkpt>
      <trkpt lat="49.34593" lon="0.19949">
        <ele>144.4</ele>
        <time>2024-10-02T13:24:58Z</time>
      </trkpt>
      <trkpt lat="49.346" lon="0.19942">
        <ele>144.4</ele>
        <time>2024-10-02T13:24:59Z</time>
      </trkpt>
      <trkpt lat="49.34607" lon="0.19936">
        <ele>144.4</ele>
        <time>2024-10-02T13:25:00Z</time>
      </trkpt>
      <trkpt lat="49.34612" lon="0.1993">
        <ele>144.4</ele>
        <time>2024-10-02T13:25:01Z</time>
      </trkpt>
      <trkpt lat="49.3462" lon="0.19922">
        <ele>144.4</ele>
        <time>2024-10-02T13:25:02Z</time>
      </trkpt>
      <trkpt lat="49.34626" lon="0.19916">
        <ele>144.4</ele>
        <time>2024-10-02T13:25:03Z</time>
      </trkpt>
      <trkpt lat="49.34633" lon="0.1991">
        <ele>144.4</ele>
        <time>2024-10-02T13:25:04Z</time>
      </trkpt>
      <trkpt lat="49.3464" lon="0.19904">
        <ele>144.4</ele>
        <time>2024-10-02T13:25:05Z</time>
      </trkpt>
      <trkpt lat="49.34646" lon="0.19898">
        <ele>144.2</ele>
        <time>2024-10-02T13:25:06Z</time>
      </trkpt>
      <trkpt lat="49.34653" lon="0.19891">
        <ele>144.2</ele>
        <time>2024-10-02T13:25:07Z</time>
      </trkpt>
      <trkpt lat="49.3466" lon="0.19885">
        <ele>144.2</ele>
        <time>2024-10-02T13:25:08Z</time>
      </trkpt>
      <trkpt lat="49.34667" lon="0.19878">
        <ele>144</ele>
        <time>2024-10-02T13:25:09Z</time>
      </trkpt>
      <trkpt lat="49.34674" lon="0.19871">
        <ele>144</ele>
        <time>2024-10-02T13:25:10Z</time>
      </trkpt>
      <trkpt lat="49.34681" lon="0.19864">
        <ele>144</ele>
        <time>2024-10-02T13:25:11Z</time>
      </trkpt>
      <trkpt lat="49.34688" lon="0.19857">
        <ele>144</ele>
        <time>2024-10-02T13:25:12Z</time>
      </trkpt>
      <trkpt lat="49.34694" lon="0.1985">
        <ele>143.8</ele>
        <time>2024-10-02T13:25:13Z</time>
      </trkpt>
      <trkpt lat="49.34701" lon="0.19843">
        <ele>143.8</ele>
        <time>2024-10-02T13:25:14Z</time>
      </trkpt>
      <trkpt lat="49.34708" lon="0.19837">
        <ele>143.8</ele>
        <time>2024-10-02T13:25:15Z</time>
      </trkpt>
      <trkpt lat="49.34715" lon="0.1983">
        <ele>143.6</ele>
        <time>2024-10-02T13:25:16Z</time>
      </trkpt>
      <trkpt lat="49.34722" lon="0.19823">
        <ele>143.2</ele>
        <time>2024-10-02T13:25:17Z</time>
      </trkpt>
      <trkpt lat="49.34728" lon="0.19816">
        <ele>143.2</ele>
        <time>2024-10-02T13:25:18Z</time>
      </trkpt>
      <trkpt lat="49.34735" lon="0.19809">
        <ele>143</ele>
        <time>2024-10-02T13:25:19Z</time>
      </trkpt>
      <trkpt lat="49.34741" lon="0.19802">
        <ele>143</ele>
        <time>2024-10-02T13:25:20Z</time>
      </trkpt>
      <trkpt lat="49.34748" lon="0.19796">
        <ele>143</ele>
        <time>2024-10-02T13:25:21Z</time>
      </trkpt>
      <trkpt lat="49.34755" lon="0.19789">
        <ele>143</ele>
        <time>2024-10-02T13:25:22Z</time>
      </trkpt>
      <trkpt lat="49.34761" lon="0.19782">
        <ele>143</ele>
        <time>2024-10-02T13:25:23Z</time>
      </trkpt>
      <trkpt lat="49.34768" lon="0.19776">
        <ele>143</ele>
        <time>2024-10-02T13:25:24Z</time>
      </trkpt>
      <trkpt lat="49.34774" lon="0.19769">
        <ele>142.6</ele>
        <time>2024-10-02T13:25:25Z</time>
      </trkpt>
      <trkpt lat="49.34781" lon="0.19762">
        <ele>142.6</ele>
        <time>2024-10-02T13:25:26Z</time>
      </trkpt>
      <trkpt lat="49.34787" lon="0.19756">
        <ele>142.4</ele>
        <time>2024-10-02T13:25:27Z</time>
      </trkpt>
      <trkpt lat="49.34793" lon="0.19749">
        <ele>142.4</ele>
        <time>2024-10-02T13:25:28Z</time>
      </trkpt>
      <trkpt lat="49.348" lon="0.19743">
        <ele>142.2</ele>
        <time>2024-10-02T13:25:29Z</time>
      </trkpt>
      <trkpt lat="49.34806" lon="0.19736">
        <ele>142.2</ele>
        <time>2024-10-02T13:25:30Z</time>
      </trkpt>
      <trkpt lat="49.34812" lon="0.19729">
        <ele>142</ele>
        <time>2024-10-02T13:25:31Z</time>
      </trkpt>
      <trkpt lat="49.34818" lon="0.19724">
        <ele>142</ele>
        <time>2024-10-02T13:25:32Z</time>
      </trkpt>
      <trkpt lat="49.34825" lon="0.19716">
        <ele>141.8</ele>
        <time>2024-10-02T13:25:33Z</time>
      </trkpt>
      <trkpt lat="49.34832" lon="0.1971">
        <ele>141.8</ele>
        <time>2024-10-02T13:25:34Z</time>
      </trkpt>
      <trkpt lat="49.34837" lon="0.19705">
        <ele>141.6</ele>
        <time>2024-10-02T13:25:35Z</time>
      </trkpt>
      <trkpt lat="49.34843" lon="0.19698">
        <ele>141.4</ele>
        <time>2024-10-02T13:25:36Z</time>
      </trkpt>
      <trkpt lat="49.34851" lon="0.19691">
        <ele>141.4</ele>
        <time>2024-10-02T13:25:37Z</time>
      </trkpt>
      <trkpt lat="49.34857" lon="0.19685">
        <ele>141.4</ele>
        <time>2024-10-02T13:25:38Z</time>
      </trkpt>
      <trkpt lat="49.34863" lon="0.19678">
        <ele>141.4</ele>
        <time>2024-10-02T13:25:39Z</time>
      </trkpt>
      <trkpt lat="49.3487" lon="0.19672">
        <ele>141.4</ele>
        <time>2024-10-02T13:25:40Z</time>
      </trkpt>
      <trkpt lat="49.34876" lon="0.19665">
        <ele>141.4</ele>
        <time>2024-10-02T13:25:41Z</time>
      </trkpt>
      <trkpt lat="49.34882" lon="0.19659">
        <ele>141.4</ele>
        <time>2024-10-02T13:25:42Z</time>
      </trkpt>
      <trkpt lat="49.34889" lon="0.19652">
        <ele>141.4</ele>
        <time>2024-10-02T13:25:43Z</time>
      </trkpt>
      <trkpt lat="49.34895" lon="0.19646">
        <ele>141.4</ele>
        <time>2024-10-02T13:25:44Z</time>
      </trkpt>
      <trkpt lat="49.34902" lon="0.19639">
        <ele>141.6</ele>
        <time>2024-10-02T13:25:45Z</time>
      </trkpt>
      <trkpt lat="49.34908" lon="0.19633">
        <ele>141.8</ele>
        <time>2024-10-02T13:25:46Z</time>
      </trkpt>
      <trkpt lat="49.34914" lon="0.19627">
        <ele>141.8</ele>
        <time>2024-10-02T13:25:47Z</time>
      </trkpt>
      <trkpt lat="49.34921" lon="0.19621">
        <ele>141.8</ele>
        <time>2024-10-02T13:25:48Z</time>
      </trkpt>
      <trkpt lat="49.34927" lon="0.19615">
        <ele>142.2</ele>
        <time>2024-10-02T13:25:49Z</time>
      </trkpt>
      <trkpt lat="49.34934" lon="0.19609">
        <ele>142.6</ele>
        <time>2024-10-02T13:25:50Z</time>
      </trkpt>
      <trkpt lat="49.3494" lon="0.19603">
        <ele>142.8</ele>
        <time>2024-10-02T13:25:51Z</time>
      </trkpt>
      <trkpt lat="49.34946" lon="0.19598">
        <ele>143</ele>
        <time>2024-10-02T13:25:52Z</time>
      </trkpt>
      <trkpt lat="49.34953" lon="0.19592">
        <ele>143.2</ele>
        <time>2024-10-02T13:25:53Z</time>
      </trkpt>
      <trkpt lat="49.34959" lon="0.19587">
        <ele>143.4</ele>
        <time>2024-10-02T13:25:54Z</time>
      </trkpt>
      <trkpt lat="49.34964" lon="0.19583">
        <ele>143.4</ele>
        <time>2024-10-02T13:25:55Z</time>
      </trkpt>
      <trkpt lat="49.34972" lon="0.19577">
        <ele>143.4</ele>
        <time>2024-10-02T13:25:56Z</time>
      </trkpt>
      <trkpt lat="49.34979" lon="0.19572">
        <ele>143.6</ele>
        <time>2024-10-02T13:25:57Z</time>
      </trkpt>
      <trkpt lat="49.34984" lon="0.19569">
        <ele>143.6</ele>
        <time>2024-10-02T13:25:58Z</time>
      </trkpt>
      <trkpt lat="49.34993" lon="0.19563">
        <ele>143.8</ele>
        <time>2024-10-02T13:25:59Z</time>
      </trkpt>
      <trkpt lat="49.35" lon="0.19559">
        <ele>143.8</ele>
        <time>2024-10-02T13:26:00Z</time>
      </trkpt>
      <trkpt lat="49.35007" lon="0.19555">
        <ele>144</ele>
        <time>2024-10-02T13:26:01Z</time>
      </trkpt>
      <trkpt lat="49.35014" lon="0.19552">
        <ele>144.2</ele>
        <time>2024-10-02T13:26:02Z</time>
      </trkpt>
      <trkpt lat="49.35021" lon="0.1955">
        <ele>144.2</ele>
        <time>2024-10-02T13:26:03Z</time>
      </trkpt>
      <trkpt lat="49.35029" lon="0.19548">
        <ele>144.2</ele>
        <time>2024-10-02T13:26:04Z</time>
      </trkpt>
      <trkpt lat="49.35036" lon="0.19546">
        <ele>144.2</ele>
        <time>2024-10-02T13:26:05Z</time>
      </trkpt>
      <trkpt lat="49.35043" lon="0.19544">
        <ele>144.2</ele>
        <time>2024-10-02T13:26:06Z</time>
      </trkpt>
      <trkpt lat="49.35051" lon="0.19542">
        <ele>144.4</ele>
        <time>2024-10-02T13:26:07Z</time>
      </trkpt>
      <trkpt lat="49.35059" lon="0.19542">
        <ele>144.6</ele>
        <time>2024-10-02T13:26:08Z</time>
      </trkpt>
      <trkpt lat="49.35066" lon="0.19541">
        <ele>144.6</ele>
        <time>2024-10-02T13:26:09Z</time>
      </trkpt>
      <trkpt lat="49.35074" lon="0.19541">
        <ele>144.6</ele>
        <time>2024-10-02T13:26:10Z</time>
      </trkpt>
      <trkpt lat="49.35082" lon="0.19541">
        <ele>144.8</ele>
        <time>2024-10-02T13:26:11Z</time>
      </trkpt>
      <trkpt lat="49.3509" lon="0.19541">
        <ele>144.8</ele>
        <time>2024-10-02T13:26:12Z</time>
      </trkpt>
      <trkpt lat="49.35098" lon="0.19542">
        <ele>144.8</ele>
        <time>2024-10-02T13:26:13Z</time>
      </trkpt>
      <trkpt lat="49.35106" lon="0.19543">
        <ele>145</ele>
        <time>2024-10-02T13:26:14Z</time>
      </trkpt>
      <trkpt lat="49.35114" lon="0.19544">
        <ele>145</ele>
        <time>2024-10-02T13:26:15Z</time>
      </trkpt>
      <trkpt lat="49.35121" lon="0.19545">
        <ele>145.2</ele>
        <time>2024-10-02T13:26:16Z</time>
      </trkpt>
      <trkpt lat="49.35129" lon="0.19546">
        <ele>145.2</ele>
        <time>2024-10-02T13:26:17Z</time>
      </trkpt>
      <trkpt lat="49.35137" lon="0.19546">
        <ele>145.4</ele>
        <time>2024-10-02T13:26:18Z</time>
      </trkpt>
      <trkpt lat="49.35145" lon="0.19547">
        <ele>145.4</ele>
        <time>2024-10-02T13:26:19Z</time>
      </trkpt>
      <trkpt lat="49.35153" lon="0.19549">
        <ele>145.4</ele>
        <time>2024-10-02T13:26:20Z</time>
      </trkpt>
      <trkpt lat="49.35161" lon="0.1955">
        <ele>145.6</ele>
        <time>2024-10-02T13:26:21Z</time>
      </trkpt>
      <trkpt lat="49.35169" lon="0.19551">
        <ele>145.6</ele>
        <time>2024-10-02T13:26:22Z</time>
      </trkpt>
      <trkpt lat="49.35177" lon="0.19552">
        <ele>145.6</ele>
        <time>2024-10-02T13:26:23Z</time>
      </trkpt>
      <trkpt lat="49.35185" lon="0.19552">
        <ele>145.6</ele>
        <time>2024-10-02T13:26:24Z</time>
      </trkpt>
      <trkpt lat="49.35193" lon="0.19553">
        <ele>145.6</ele>
        <time>2024-10-02T13:26:25Z</time>
      </trkpt>
      <trkpt lat="49.35201" lon="0.19555">
        <ele>145.6</ele>
        <time>2024-10-02T13:26:26Z</time>
      </trkpt>
      <trkpt lat="49.35209" lon="0.19556">
        <ele>145.6</ele>
        <time>2024-10-02T13:26:27Z</time>
      </trkpt>
      <trkpt lat="49.35217" lon="0.19557">
        <ele>145.6</ele>
        <time>2024-10-02T13:26:28Z</time>
      </trkpt>
      <trkpt lat="49.35225" lon="0.19558">
        <ele>145.6</ele>
        <time>2024-10-02T13:26:29Z</time>
      </trkpt>
      <trkpt lat="49.35234" lon="0.1956">
        <ele>145.6</ele>
        <time>2024-10-02T13:26:30Z</time>
      </trkpt>
      <trkpt lat="49.35242" lon="0.19561">
        <ele>145.6</ele>
        <time>2024-10-02T13:26:31Z</time>
      </trkpt>
      <trkpt lat="49.35251" lon="0.19562">
        <ele>145.6</ele>
        <time>2024-10-02T13:26:32Z</time>
      </trkpt>
      <trkpt lat="49.35259" lon="0.19564">
        <ele>145.6</ele>
        <time>2024-10-02T13:26:33Z</time>
      </trkpt>
      <trkpt lat="49.35268" lon="0.19565">
        <ele>145.6</ele>
        <time>2024-10-02T13:26:34Z</time>
      </trkpt>
      <trkpt lat="49.35276" lon="0.19566">
        <ele>145.6</ele>
        <time>2024-10-02T13:26:35Z</time>
      </trkpt>
      <trkpt lat="49.35285" lon="0.19567">
        <ele>145.4</ele>
        <time>2024-10-02T13:26:36Z</time>
      </trkpt>
      <trkpt lat="49.35293" lon="0.19568">
        <ele>145.4</ele>
        <time>2024-10-02T13:26:37Z</time>
      </trkpt>
      <trkpt lat="49.35302" lon="0.19569">
        <ele>145.4</ele>
        <time>2024-10-02T13:26:38Z</time>
      </trkpt>
      <trkpt lat="49.35311" lon="0.19571">
        <ele>145</ele>
        <time>2024-10-02T13:26:39Z</time>
      </trkpt>
      <trkpt lat="49.3532" lon="0.19572">
        <ele>144.8</ele>
        <time>2024-10-02T13:26:40Z</time>
      </trkpt>
      <trkpt lat="49.35328" lon="0.19573">
        <ele>144.6</ele>
        <time>2024-10-02T13:26:41Z</time>
      </trkpt>
      <trkpt lat="49.35337" lon="0.19574">
        <ele>144.2</ele>
        <time>2024-10-02T13:26:42Z</time>
      </trkpt>
      <trkpt lat="49.35346" lon="0.19575">
        <ele>144</ele>
        <time>2024-10-02T13:26:43Z</time>
      </trkpt>
      <trkpt lat="49.35355" lon="0.19576">
        <ele>143.8</ele>
        <time>2024-10-02T13:26:44Z</time>
      </trkpt>
      <trkpt lat="49.35364" lon="0.19578">
        <ele>143.6</ele>
        <time>2024-10-02T13:26:45Z</time>
      </trkpt>
      <trkpt lat="49.35373" lon="0.19579">
        <ele>143.4</ele>
        <time>2024-10-02T13:26:46Z</time>
      </trkpt>
      <trkpt lat="49.35381" lon="0.1958">
        <ele>143.2</ele>
        <time>2024-10-02T13:26:47Z</time>
      </trkpt>
      <trkpt lat="49.3539" lon="0.19582">
        <ele>143.2</ele>
        <time>2024-10-02T13:26:48Z</time>
      </trkpt>
      <trkpt lat="49.35398" lon="0.19583">
        <ele>143</ele>
        <time>2024-10-02T13:26:49Z</time>
      </trkpt>
      <trkpt lat="49.35407" lon="0.19584">
        <ele>142.8</ele>
        <time>2024-10-02T13:26:50Z</time>
      </trkpt>
      <trkpt lat="49.35415" lon="0.19585">
        <ele>142.8</ele>
        <time>2024-10-02T13:26:51Z</time>
      </trkpt>
      <trkpt lat="49.35423" lon="0.19586">
        <ele>142.6</ele>
        <time>2024-10-02T13:26:52Z</time>
      </trkpt>
      <trkpt lat="49.35432" lon="0.19587">
        <ele>142.6</ele>
        <time>2024-10-02T13:26:53Z</time>
      </trkpt>
      <trkpt lat="49.3544" lon="0.19588">
        <ele>142.6</ele>
        <time>2024-10-02T13:26:54Z</time>
      </trkpt>
      <trkpt lat="49.35448" lon="0.1959">
        <ele>142.6</ele>
        <time>2024-10-02T13:26:55Z</time>
      </trkpt>
      <trkpt lat="49.35457" lon="0.19591">
        <ele>142.6</ele>
        <time>2024-10-02T13:26:56Z</time>
      </trkpt>
      <trkpt lat="49.35465" lon="0.19591">
        <ele>142.4</ele>
        <time>2024-10-02T13:26:57Z</time>
      </trkpt>
      <trkpt lat="49.35473" lon="0.19592">
        <ele>142.4</ele>
        <time>2024-10-02T13:26:58Z</time>
      </trkpt>
      <trkpt lat="49.35482" lon="0.19593">
        <ele>142.4</ele>
        <time>2024-10-02T13:26:59Z</time>
      </trkpt>
      <trkpt lat="49.3549" lon="0.19595">
        <ele>142.4</ele>
        <time>2024-10-02T13:27:00Z</time>
      </trkpt>
      <trkpt lat="49.35497" lon="0.19595">
        <ele>142.4</ele>
        <time>2024-10-02T13:27:01Z</time>
      </trkpt>
      <trkpt lat="49.35505" lon="0.19597">
        <ele>142.4</ele>
        <time>2024-10-02T13:27:02Z</time>
      </trkpt>
      <trkpt lat="49.35515" lon="0.19598">
        <ele>142.2</ele>
        <time>2024-10-02T13:27:03Z</time>
      </trkpt>
      <trkpt lat="49.35523" lon="0.19599">
        <ele>142.2</ele>
        <time>2024-10-02T13:27:04Z</time>
      </trkpt>
      <trkpt lat="49.35531" lon="0.196">
        <ele>142.2</ele>
        <time>2024-10-02T13:27:05Z</time>
      </trkpt>
      <trkpt lat="49.3554" lon="0.19602">
        <ele>142.2</ele>
        <time>2024-10-02T13:27:06Z</time>
      </trkpt>
      <trkpt lat="49.35548" lon="0.19603">
        <ele>142.2</ele>
        <time>2024-10-02T13:27:07Z</time>
      </trkpt>
      <trkpt lat="49.35557" lon="0.19604">
        <ele>142.2</ele>
        <time>2024-10-02T13:27:08Z</time>
      </trkpt>
      <trkpt lat="49.35565" lon="0.19605">
        <ele>142</ele>
        <time>2024-10-02T13:27:09Z</time>
      </trkpt>
      <trkpt lat="49.35571" lon="0.19606">
        <ele>142</ele>
        <time>2024-10-02T13:27:10Z</time>
      </trkpt>
      <trkpt lat="49.35582" lon="0.19607">
        <ele>142</ele>
        <time>2024-10-02T13:27:11Z</time>
      </trkpt>
      <trkpt lat="49.3559" lon="0.19609">
        <ele>142</ele>
        <time>2024-10-02T13:27:12Z</time>
      </trkpt>
      <trkpt lat="49.35599" lon="0.1961">
        <ele>141.8</ele>
        <time>2024-10-02T13:27:13Z</time>
      </trkpt>
      <trkpt lat="49.35607" lon="0.19613">
        <ele>141.6</ele>
        <time>2024-10-02T13:27:14Z</time>
      </trkpt>
      <trkpt lat="49.35616" lon="0.19615">
        <ele>141.6</ele>
        <time>2024-10-02T13:27:15Z</time>
      </trkpt>
      <trkpt lat="49.35624" lon="0.19619">
        <ele>141.4</ele>
        <time>2024-10-02T13:27:16Z</time>
      </trkpt>
      <trkpt lat="49.35633" lon="0.19622">
        <ele>141.4</ele>
        <time>2024-10-02T13:27:17Z</time>
      </trkpt>
      <trkpt lat="49.35639" lon="0.19625">
        <ele>141</ele>
        <time>2024-10-02T13:27:18Z</time>
      </trkpt>
      <trkpt lat="49.35647" lon="0.1963">
        <ele>140.8</ele>
        <time>2024-10-02T13:27:19Z</time>
      </trkpt>
      <trkpt lat="49.35657" lon="0.19635">
        <ele>140.6</ele>
        <time>2024-10-02T13:27:20Z</time>
      </trkpt>
      <trkpt lat="49.35664" lon="0.1964">
        <ele>140.4</ele>
        <time>2024-10-02T13:27:21Z</time>
      </trkpt>
      <trkpt lat="49.3567" lon="0.19644">
        <ele>140.4</ele>
        <time>2024-10-02T13:27:22Z</time>
      </trkpt>
      <trkpt lat="49.35677" lon="0.19648">
        <ele>140.2</ele>
        <time>2024-10-02T13:27:23Z</time>
      </trkpt>
      <trkpt lat="49.35685" lon="0.19653">
        <ele>140.2</ele>
        <time>2024-10-02T13:27:24Z</time>
      </trkpt>
      <trkpt lat="49.35692" lon="0.19657">
        <ele>140.2</ele>
        <time>2024-10-02T13:27:25Z</time>
      </trkpt>
      <trkpt lat="49.35698" lon="0.19661">
        <ele>140.2</ele>
        <time>2024-10-02T13:27:26Z</time>
      </trkpt>
      <trkpt lat="49.35703" lon="0.19665">
        <ele>140.2</ele>
        <time>2024-10-02T13:27:27Z</time>
      </trkpt>
      <trkpt lat="49.35709" lon="0.19669">
        <ele>140.2</ele>
        <time>2024-10-02T13:27:28Z</time>
      </trkpt>
      <trkpt lat="49.35715" lon="0.19674">
        <ele>140.2</ele>
        <time>2024-10-02T13:27:29Z</time>
      </trkpt>
      <trkpt lat="49.35721" lon="0.19678">
        <ele>140.2</ele>
        <time>2024-10-02T13:27:30Z</time>
      </trkpt>
      <trkpt lat="49.35728" lon="0.19682">
        <ele>140</ele>
        <time>2024-10-02T13:27:31Z</time>
      </trkpt>
      <trkpt lat="49.35734" lon="0.19686">
        <ele>140</ele>
        <time>2024-10-02T13:27:32Z</time>
      </trkpt>
      <trkpt lat="49.35741" lon="0.1969">
        <ele>140</ele>
        <time>2024-10-02T13:27:33Z</time>
      </trkpt>
      <trkpt lat="49.35747" lon="0.19695">
        <ele>139.8</ele>
        <time>2024-10-02T13:27:34Z</time>
      </trkpt>
      <trkpt lat="49.35752" lon="0.19698">
        <ele>139.8</ele>
        <time>2024-10-02T13:27:35Z</time>
      </trkpt>
      <trkpt lat="49.3576" lon="0.19703">
        <ele>139.6</ele>
        <time>2024-10-02T13:27:36Z</time>
      </trkpt>
      <trkpt lat="49.35767" lon="0.19707">
        <ele>139.6</ele>
        <time>2024-10-02T13:27:37Z</time>
      </trkpt>
      <trkpt lat="49.35773" lon="0.19712">
        <ele>139.6</ele>
        <time>2024-10-02T13:27:38Z</time>
      </trkpt>
      <trkpt lat="49.3578" lon="0.19716">
        <ele>139.4</ele>
        <time>2024-10-02T13:27:39Z</time>
      </trkpt>
      <trkpt lat="49.35787" lon="0.19721">
        <ele>139.2</ele>
        <time>2024-10-02T13:27:40Z</time>
      </trkpt>
      <trkpt lat="49.35793" lon="0.19725">
        <ele>139.2</ele>
        <time>2024-10-02T13:27:41Z</time>
      </trkpt>
      <trkpt lat="49.358" lon="0.1973">
        <ele>139.2</ele>
        <time>2024-10-02T13:27:42Z</time>
      </trkpt>
      <trkpt lat="49.35805" lon="0.19734">
        <ele>139.2</ele>
        <time>2024-10-02T13:27:43Z</time>
      </trkpt>
      <trkpt lat="49.35812" lon="0.19738">
        <ele>139.2</ele>
        <time>2024-10-02T13:27:44Z</time>
      </trkpt>
      <trkpt lat="49.3582" lon="0.19743">
        <ele>139.2</ele>
        <time>2024-10-02T13:27:45Z</time>
      </trkpt>
      <trkpt lat="49.35828" lon="0.19748">
        <ele>139</ele>
        <time>2024-10-02T13:27:46Z</time>
      </trkpt>
      <trkpt lat="49.35835" lon="0.19752">
        <ele>139</ele>
        <time>2024-10-02T13:27:47Z</time>
      </trkpt>
      <trkpt lat="49.35842" lon="0.19757">
        <ele>139</ele>
        <time>2024-10-02T13:27:48Z</time>
      </trkpt>
      <trkpt lat="49.35849" lon="0.19762">
        <ele>138.8</ele>
        <time>2024-10-02T13:27:49Z</time>
      </trkpt>
      <trkpt lat="49.35856" lon="0.19767">
        <ele>138.8</ele>
        <time>2024-10-02T13:27:50Z</time>
      </trkpt>
      <trkpt lat="49.35864" lon="0.19772">
        <ele>138.8</ele>
        <time>2024-10-02T13:27:51Z</time>
      </trkpt>
      <trkpt lat="49.35871" lon="0.19777">
        <ele>138.8</ele>
        <time>2024-10-02T13:27:52Z</time>
      </trkpt>
      <trkpt lat="49.35879" lon="0.19782">
        <ele>138.8</ele>
        <time>2024-10-02T13:27:53Z</time>
      </trkpt>
      <trkpt lat="49.35885" lon="0.19786">
        <ele>138.8</ele>
        <time>2024-10-02T13:27:54Z</time>
      </trkpt>
      <trkpt lat="49.35892" lon="0.19791">
        <ele>138.8</ele>
        <time>2024-10-02T13:27:55Z</time>
      </trkpt>
      <trkpt lat="49.35901" lon="0.19797">
        <ele>138.8</ele>
        <time>2024-10-02T13:27:56Z</time>
      </trkpt>
      <trkpt lat="49.35908" lon="0.19801">
        <ele>138.8</ele>
        <time>2024-10-02T13:27:57Z</time>
      </trkpt>
      <trkpt lat="49.35915" lon="0.19806">
        <ele>138.6</ele>
        <time>2024-10-02T13:27:58Z</time>
      </trkpt>
      <trkpt lat="49.35921" lon="0.1981">
        <ele>138.6</ele>
        <time>2024-10-02T13:27:59Z</time>
      </trkpt>
      <trkpt lat="49.35928" lon="0.19815">
        <ele>138.6</ele>
        <time>2024-10-02T13:28:00Z</time>
      </trkpt>
      <trkpt lat="49.35936" lon="0.1982">
        <ele>138.8</ele>
        <time>2024-10-02T13:28:01Z</time>
      </trkpt>
      <trkpt lat="49.35943" lon="0.19825">
        <ele>138.6</ele>
        <time>2024-10-02T13:28:02Z</time>
      </trkpt>
      <trkpt lat="49.3595" lon="0.19829">
        <ele>138.8</ele>
        <time>2024-10-02T13:28:03Z</time>
      </trkpt>
      <trkpt lat="49.35957" lon="0.19834">
        <ele>138.8</ele>
        <time>2024-10-02T13:28:04Z</time>
      </trkpt>
      <trkpt lat="49.35963" lon="0.19838">
        <ele>138.8</ele>
        <time>2024-10-02T13:28:05Z</time>
      </trkpt>
      <trkpt lat="49.3597" lon="0.19842">
        <ele>138.8</ele>
        <time>2024-10-02T13:28:06Z</time>
      </trkpt>
      <trkpt lat="49.35977" lon="0.19847">
        <ele>138.8</ele>
        <time>2024-10-02T13:28:07Z</time>
      </trkpt>
      <trkpt lat="49.35986" lon="0.19853">
        <ele>138.8</ele>
        <time>2024-10-02T13:28:08Z</time>
      </trkpt>
      <trkpt lat="49.35993" lon="0.19857">
        <ele>138.8</ele>
        <time>2024-10-02T13:28:09Z</time>
      </trkpt>
      <trkpt lat="49.35998" lon="0.19861">
        <ele>138.6</ele>
        <time>2024-10-02T13:28:10Z</time>
      </trkpt>
      <trkpt lat="49.36006" lon="0.19866">
        <ele>138.6</ele>
        <time>2024-10-02T13:28:11Z</time>
      </trkpt>
      <trkpt lat="49.36014" lon="0.19872">
        <ele>138.6</ele>
        <time>2024-10-02T13:28:12Z</time>
      </trkpt>
      <trkpt lat="49.36021" lon="0.19877">
        <ele>138.6</ele>
        <time>2024-10-02T13:28:13Z</time>
      </trkpt>
      <trkpt lat="49.36027" lon="0.1988">
        <ele>138.4</ele>
        <time>2024-10-02T13:28:14Z</time>
      </trkpt>
      <trkpt lat="49.36036" lon="0.19886">
        <ele>138.4</ele>
        <time>2024-10-02T13:28:15Z</time>
      </trkpt>
      <trkpt lat="49.36044" lon="0.19891">
        <ele>138.2</ele>
        <time>2024-10-02T13:28:16Z</time>
      </trkpt>
      <trkpt lat="49.3605" lon="0.19895">
        <ele>138.2</ele>
        <time>2024-10-02T13:28:17Z</time>
      </trkpt>
      <trkpt lat="49.36059" lon="0.19901">
        <ele>138.2</ele>
        <time>2024-10-02T13:28:18Z</time>
      </trkpt>
      <trkpt lat="49.36065" lon="0.19905">
        <ele>138.2</ele>
        <time>2024-10-02T13:28:19Z</time>
      </trkpt>
      <trkpt lat="49.36073" lon="0.1991">
        <ele>138</ele>
        <time>2024-10-02T13:28:20Z</time>
      </trkpt>
      <trkpt lat="49.36082" lon="0.19916">
        <ele>138</ele>
        <time>2024-10-02T13:28:21Z</time>
      </trkpt>
      <trkpt lat="49.3609" lon="0.19922">
        <ele>138</ele>
        <time>2024-10-02T13:28:22Z</time>
      </trkpt>
      <trkpt lat="49.36097" lon="0.19926">
        <ele>137.8</ele>
        <time>2024-10-02T13:28:23Z</time>
      </trkpt>
      <trkpt lat="49.36106" lon="0.19932">
        <ele>137.8</ele>
        <time>2024-10-02T13:28:24Z</time>
      </trkpt>
      <trkpt lat="49.36114" lon="0.19937">
        <ele>137.6</ele>
        <time>2024-10-02T13:28:25Z</time>
      </trkpt>
      <trkpt lat="49.36121" lon="0.19942">
        <ele>137.4</ele>
        <time>2024-10-02T13:28:26Z</time>
      </trkpt>
      <trkpt lat="49.36129" lon="0.19947">
        <ele>137.2</ele>
        <time>2024-10-02T13:28:27Z</time>
      </trkpt>
      <trkpt lat="49.36137" lon="0.19952">
        <ele>136.6</ele>
        <time>2024-10-02T13:28:28Z</time>
      </trkpt>
      <trkpt lat="49.36146" lon="0.19958">
        <ele>136.2</ele>
        <time>2024-10-02T13:28:29Z</time>
      </trkpt>
      <trkpt lat="49.36154" lon="0.19963">
        <ele>136</ele>
        <time>2024-10-02T13:28:30Z</time>
      </trkpt>
      <trkpt lat="49.36163" lon="0.19969">
        <ele>135.8</ele>
        <time>2024-10-02T13:28:31Z</time>
      </trkpt>
      <trkpt lat="49.36171" lon="0.19974">
        <ele>135.8</ele>
        <time>2024-10-02T13:28:32Z</time>
      </trkpt>
      <trkpt lat="49.36179" lon="0.1998">
        <ele>135.6</ele>
        <time>2024-10-02T13:28:33Z</time>
      </trkpt>
      <trkpt lat="49.36189" lon="0.19986">
        <ele>135.6</ele>
        <time>2024-10-02T13:28:34Z</time>
      </trkpt>
      <trkpt lat="49.36196" lon="0.1999">
        <ele>135.6</ele>
        <time>2024-10-02T13:28:35Z</time>
      </trkpt>
      <trkpt lat="49.36204" lon="0.19995">
        <ele>135.6</ele>
        <time>2024-10-02T13:28:36Z</time>
      </trkpt>
      <trkpt lat="49.36214" lon="0.20002">
        <ele>135.4</ele>
        <time>2024-10-02T13:28:37Z</time>
      </trkpt>
      <trkpt lat="49.36222" lon="0.20008">
        <ele>135</ele>
        <time>2024-10-02T13:28:38Z</time>
      </trkpt>
      <trkpt lat="49.36228" lon="0.20012">
        <ele>134.6</ele>
        <time>2024-10-02T13:28:39Z</time>
      </trkpt>
      <trkpt lat="49.36238" lon="0.20018">
        <ele>134.2</ele>
        <time>2024-10-02T13:28:40Z</time>
      </trkpt>
      <trkpt lat="49.36246" lon="0.20023">
        <ele>134</ele>
        <time>2024-10-02T13:28:41Z</time>
      </trkpt>
      <trkpt lat="49.36252" lon="0.20027">
        <ele>133.6</ele>
        <time>2024-10-02T13:28:42Z</time>
      </trkpt>
      <trkpt lat="49.3626" lon="0.20033">
        <ele>133.6</ele>
        <time>2024-10-02T13:28:43Z</time>
      </trkpt>
      <trkpt lat="49.3627" lon="0.20039">
        <ele>133</ele>
        <time>2024-10-02T13:28:44Z</time>
      </trkpt>
      <trkpt lat="49.36277" lon="0.20044">
        <ele>132.8</ele>
        <time>2024-10-02T13:28:45Z</time>
      </trkpt>
      <trkpt lat="49.36286" lon="0.20051">
        <ele>132.6</ele>
        <time>2024-10-02T13:28:46Z</time>
      </trkpt>
      <trkpt lat="49.36293" lon="0.20055">
        <ele>132.6</ele>
        <time>2024-10-02T13:28:47Z</time>
      </trkpt>
      <trkpt lat="49.36302" lon="0.20061">
        <ele>132.4</ele>
        <time>2024-10-02T13:28:48Z</time>
      </trkpt>
      <trkpt lat="49.3631" lon="0.20067">
        <ele>132.2</ele>
        <time>2024-10-02T13:28:49Z</time>
      </trkpt>
      <trkpt lat="49.3632" lon="0.20073">
        <ele>132</ele>
        <time>2024-10-02T13:28:50Z</time>
      </trkpt>
      <trkpt lat="49.36326" lon="0.20077">
        <ele>131.8</ele>
        <time>2024-10-02T13:28:51Z</time>
      </trkpt>
      <trkpt lat="49.36336" lon="0.20084">
        <ele>131.8</ele>
        <time>2024-10-02T13:28:52Z</time>
      </trkpt>
      <trkpt lat="49.36344" lon="0.2009">
        <ele>131.8</ele>
        <time>2024-10-02T13:28:53Z</time>
      </trkpt>
      <trkpt lat="49.3635" lon="0.20094">
        <ele>131.6</ele>
        <time>2024-10-02T13:28:54Z</time>
      </trkpt>
      <trkpt lat="49.3636" lon="0.20101">
        <ele>131.6</ele>
        <time>2024-10-02T13:28:55Z</time>
      </trkpt>
      <trkpt lat="49.36366" lon="0.20105">
        <ele>131.6</ele>
        <time>2024-10-02T13:28:56Z</time>
      </trkpt>
      <trkpt lat="49.36374" lon="0.2011">
        <ele>131.4</ele>
        <time>2024-10-02T13:28:57Z</time>
      </trkpt>
      <trkpt lat="49.36383" lon="0.20117">
        <ele>131</ele>
        <time>2024-10-02T13:28:58Z</time>
      </trkpt>
      <trkpt lat="49.36391" lon="0.20122">
        <ele>130.8</ele>
        <time>2024-10-02T13:28:59Z</time>
      </trkpt>
      <trkpt lat="49.36399" lon="0.20127">
        <ele>130.6</ele>
        <time>2024-10-02T13:29:00Z</time>
      </trkpt>
      <trkpt lat="49.36407" lon="0.20133">
        <ele>130.4</ele>
        <time>2024-10-02T13:29:01Z</time>
      </trkpt>
      <trkpt lat="49.36414" lon="0.20138">
        <ele>130.2</ele>
        <time>2024-10-02T13:29:02Z</time>
      </trkpt>
      <trkpt lat="49.3642" lon="0.20142">
        <ele>130.2</ele>
        <time>2024-10-02T13:29:03Z</time>
      </trkpt>
      <trkpt lat="49.36428" lon="0.20147">
        <ele>130.2</ele>
        <time>2024-10-02T13:29:04Z</time>
      </trkpt>
      <trkpt lat="49.36435" lon="0.20152">
        <ele>130</ele>
        <time>2024-10-02T13:29:05Z</time>
      </trkpt>
      <trkpt lat="49.36443" lon="0.20157">
        <ele>130</ele>
        <time>2024-10-02T13:29:06Z</time>
      </trkpt>
      <trkpt lat="49.36451" lon="0.20162">
        <ele>129.8</ele>
        <time>2024-10-02T13:29:07Z</time>
      </trkpt>
      <trkpt lat="49.36458" lon="0.20167">
        <ele>129.8</ele>
        <time>2024-10-02T13:29:08Z</time>
      </trkpt>
      <trkpt lat="49.36466" lon="0.20172">
        <ele>129.8</ele>
        <time>2024-10-02T13:29:09Z</time>
      </trkpt>
      <trkpt lat="49.36473" lon="0.20177">
        <ele>129.6</ele>
        <time>2024-10-02T13:29:10Z</time>
      </trkpt>
      <trkpt lat="49.36481" lon="0.20183">
        <ele>129.6</ele>
        <time>2024-10-02T13:29:11Z</time>
      </trkpt>
      <trkpt lat="49.36489" lon="0.20188">
        <ele>129.6</ele>
        <time>2024-10-02T13:29:12Z</time>
      </trkpt>
      <trkpt lat="49.36497" lon="0.20193">
        <ele>129.4</ele>
        <time>2024-10-02T13:29:13Z</time>
      </trkpt>
      <trkpt lat="49.36504" lon="0.20198">
        <ele>129.4</ele>
        <time>2024-10-02T13:29:14Z</time>
      </trkpt>
      <trkpt lat="49.36512" lon="0.20203">
        <ele>129.4</ele>
        <time>2024-10-02T13:29:15Z</time>
      </trkpt>
      <trkpt lat="49.3652" lon="0.20208">
        <ele>129.2</ele>
        <time>2024-10-02T13:29:16Z</time>
      </trkpt>
      <trkpt lat="49.36528" lon="0.20214">
        <ele>129.2</ele>
        <time>2024-10-02T13:29:17Z</time>
      </trkpt>
      <trkpt lat="49.36536" lon="0.20219">
        <ele>129</ele>
        <time>2024-10-02T13:29:18Z</time>
      </trkpt>
      <trkpt lat="49.36543" lon="0.20225">
        <ele>129</ele>
        <time>2024-10-02T13:29:19Z</time>
      </trkpt>
      <trkpt lat="49.36551" lon="0.2023">
        <ele>128.8</ele>
        <time>2024-10-02T13:29:20Z</time>
      </trkpt>
      <trkpt lat="49.36559" lon="0.20235">
        <ele>128.8</ele>
        <time>2024-10-02T13:29:21Z</time>
      </trkpt>
      <trkpt lat="49.36567" lon="0.2024">
        <ele>128.8</ele>
        <time>2024-10-02T13:29:22Z</time>
      </trkpt>
      <trkpt lat="49.36575" lon="0.20245">
        <ele>128.8</ele>
        <time>2024-10-02T13:29:23Z</time>
      </trkpt>
      <trkpt lat="49.36583" lon="0.2025">
        <ele>128.6</ele>
        <time>2024-10-02T13:29:24Z</time>
      </trkpt>
      <trkpt lat="49.36591" lon="0.20255">
        <ele>128.4</ele>
        <time>2024-10-02T13:29:25Z</time>
      </trkpt>
      <trkpt lat="49.366" lon="0.20262">
        <ele>128.4</ele>
        <time>2024-10-02T13:29:26Z</time>
      </trkpt>
      <trkpt lat="49.36606" lon="0.20266">
        <ele>128.2</ele>
        <time>2024-10-02T13:29:27Z</time>
      </trkpt>
      <trkpt lat="49.36614" lon="0.20271">
        <ele>128</ele>
        <time>2024-10-02T13:29:28Z</time>
      </trkpt>
      <trkpt lat="49.36621" lon="0.20276">
        <ele>127.8</ele>
        <time>2024-10-02T13:29:29Z</time>
      </trkpt>
      <trkpt lat="49.36629" lon="0.2028">
        <ele>127.8</ele>
        <time>2024-10-02T13:29:30Z</time>
      </trkpt>
      <trkpt lat="49.36635" lon="0.20285">
        <ele>127.6</ele>
        <time>2024-10-02T13:29:31Z</time>
      </trkpt>
      <trkpt lat="49.36642" lon="0.2029">
        <ele>127.4</ele>
        <time>2024-10-02T13:29:32Z</time>
      </trkpt>
      <trkpt lat="49.3665" lon="0.20295">
        <ele>127.4</ele>
        <time>2024-10-02T13:29:33Z</time>
      </trkpt>
      <trkpt lat="49.36657" lon="0.203">
        <ele>127.2</ele>
        <time>2024-10-02T13:29:34Z</time>
      </trkpt>
      <trkpt lat="49.36664" lon="0.20305">
        <ele>127</ele>
        <time>2024-10-02T13:29:35Z</time>
      </trkpt>
      <trkpt lat="49.36671" lon="0.2031">
        <ele>126.8</ele>
        <time>2024-10-02T13:29:36Z</time>
      </trkpt>
      <trkpt lat="49.36678" lon="0.20315">
        <ele>126.8</ele>
        <time>2024-10-02T13:29:37Z</time>
      </trkpt>
      <trkpt lat="49.36686" lon="0.20319">
        <ele>126.6</ele>
        <time>2024-10-02T13:29:38Z</time>
      </trkpt>
      <trkpt lat="49.36693" lon="0.20324">
        <ele>126.6</ele>
        <time>2024-10-02T13:29:39Z</time>
      </trkpt>
      <trkpt lat="49.367" lon="0.20328">
        <ele>126.6</ele>
        <time>2024-10-02T13:29:40Z</time>
      </trkpt>
      <trkpt lat="49.36707" lon="0.20332">
        <ele>126.4</ele>
        <time>2024-10-02T13:29:41Z</time>
      </trkpt>
      <trkpt lat="49.36714" lon="0.20336">
        <ele>126.4</ele>
        <time>2024-10-02T13:29:42Z</time>
      </trkpt>
      <trkpt lat="49.3672" lon="0.2034">
        <ele>126.4</ele>
        <time>2024-10-02T13:29:43Z</time>
      </trkpt>
      <trkpt lat="49.36727" lon="0.20344">
        <ele>126.4</ele>
        <time>2024-10-02T13:29:44Z</time>
      </trkpt>
      <trkpt lat="49.36733" lon="0.20347">
        <ele>126.4</ele>
        <time>2024-10-02T13:29:45Z</time>
      </trkpt>
      <trkpt lat="49.36739" lon="0.2035">
        <ele>126.2</ele>
        <time>2024-10-02T13:29:46Z</time>
      </trkpt>
      <trkpt lat="49.36746" lon="0.20353">
        <ele>126.2</ele>
        <time>2024-10-02T13:29:47Z</time>
      </trkpt>
      <trkpt lat="49.36752" lon="0.20355">
        <ele>126.2</ele>
        <time>2024-10-02T13:29:48Z</time>
      </trkpt>
      <trkpt lat="49.36758" lon="0.20357">
        <ele>126.2</ele>
        <time>2024-10-02T13:29:49Z</time>
      </trkpt>
      <trkpt lat="49.36765" lon="0.2036">
        <ele>126</ele>
        <time>2024-10-02T13:29:50Z</time>
      </trkpt>
      <trkpt lat="49.36771" lon="0.20363">
        <ele>126</ele>
        <time>2024-10-02T13:29:51Z</time>
      </trkpt>
      <trkpt lat="49.36778" lon="0.20366">
        <ele>126</ele>
        <time>2024-10-02T13:29:52Z</time>
      </trkpt>
      <trkpt lat="49.36785" lon="0.2037">
        <ele>126</ele>
        <time>2024-10-02T13:29:53Z</time>
      </trkpt>
      <trkpt lat="49.36792" lon="0.20373">
        <ele>126</ele>
        <time>2024-10-02T13:29:54Z</time>
      </trkpt>
      <trkpt lat="49.36799" lon="0.20376">
        <ele>126</ele>
        <time>2024-10-02T13:29:55Z</time>
      </trkpt>
      <trkpt lat="49.36806" lon="0.20379">
        <ele>126</ele>
        <time>2024-10-02T13:29:56Z</time>
      </trkpt>
      <trkpt lat="49.36813" lon="0.20381">
        <ele>125.8</ele>
        <time>2024-10-02T13:29:57Z</time>
      </trkpt>
      <trkpt lat="49.3682" lon="0.20384">
        <ele>125.8</ele>
        <time>2024-10-02T13:29:58Z</time>
      </trkpt>
      <trkpt lat="49.36827" lon="0.20387">
        <ele>125.6</ele>
        <time>2024-10-02T13:29:59Z</time>
      </trkpt>
      <trkpt lat="49.36835" lon="0.2039">
        <ele>125.4</ele>
        <time>2024-10-02T13:30:00Z</time>
      </trkpt>
      <trkpt lat="49.36842" lon="0.20394">
        <ele>125.4</ele>
        <time>2024-10-02T13:30:01Z</time>
      </trkpt>
      <trkpt lat="49.36849" lon="0.20398">
        <ele>125.2</ele>
        <time>2024-10-02T13:30:02Z</time>
      </trkpt>
      <trkpt lat="49.36856" lon="0.20402">
        <ele>125</ele>
        <time>2024-10-02T13:30:03Z</time>
      </trkpt>
      <trkpt lat="49.36862" lon="0.20405">
        <ele>125</ele>
        <time>2024-10-02T13:30:04Z</time>
      </trkpt>
      <trkpt lat="49.36869" lon="0.20408">
        <ele>125</ele>
        <time>2024-10-02T13:30:05Z</time>
      </trkpt>
      <trkpt lat="49.36876" lon="0.20411">
        <ele>124.8</ele>
        <time>2024-10-02T13:30:06Z</time>
      </trkpt>
      <trkpt lat="49.36882" lon="0.20415">
        <ele>124.8</ele>
        <time>2024-10-02T13:30:07Z</time>
      </trkpt>
      <trkpt lat="49.3689" lon="0.2042">
        <ele>124.8</ele>
        <time>2024-10-02T13:30:08Z</time>
      </trkpt>
      <trkpt lat="49.36895" lon="0.20424">
        <ele>124.8</ele>
        <time>2024-10-02T13:30:09Z</time>
      </trkpt>
      <trkpt lat="49.36901" lon="0.20429">
        <ele>124.6</ele>
        <time>2024-10-02T13:30:10Z</time>
      </trkpt>
      <trkpt lat="49.36907" lon="0.20434">
        <ele>124.6</ele>
        <time>2024-10-02T13:30:11Z</time>
      </trkpt>
      <trkpt lat="49.36913" lon="0.20439">
        <ele>124.6</ele>
        <time>2024-10-02T13:30:12Z</time>
      </trkpt>
      <trkpt lat="49.36918" lon="0.20445">
        <ele>124.6</ele>
        <time>2024-10-02T13:30:13Z</time>
      </trkpt>
      <trkpt lat="49.36923" lon="0.20451">
        <ele>124.6</ele>
        <time>2024-10-02T13:30:14Z</time>
      </trkpt>
      <trkpt lat="49.36928" lon="0.20456">
        <ele>124.6</ele>
        <time>2024-10-02T13:30:15Z</time>
      </trkpt>
      <trkpt lat="49.36933" lon="0.20463">
        <ele>124.6</ele>
        <time>2024-10-02T13:30:16Z</time>
      </trkpt>
      <trkpt lat="49.36937" lon="0.20466">
        <ele>124.6</ele>
        <time>2024-10-02T13:30:17Z</time>
      </trkpt>
      <trkpt lat="49.3694" lon="0.2047">
        <ele>124.6</ele>
        <time>2024-10-02T13:30:18Z</time>
      </trkpt>
      <trkpt lat="49.36942" lon="0.20473">
        <ele>124.6</ele>
        <time>2024-10-02T13:30:19Z</time>
      </trkpt>
      <trkpt lat="49.36944" lon="0.20475">
        <ele>124.6</ele>
        <time>2024-10-02T13:30:20Z</time>
      </trkpt>
      <trkpt lat="49.36945" lon="0.20478">
        <ele>124.8</ele>
        <time>2024-10-02T13:30:21Z</time>
      </trkpt>
      <trkpt lat="49.36946" lon="0.20479">
        <ele>124.8</ele>
        <time>2024-10-02T13:30:22Z</time>
      </trkpt>
      <trkpt lat="49.36948" lon="0.20481">
        <ele>124.8</ele>
        <time>2024-10-02T13:30:23Z</time>
      </trkpt>
      <trkpt lat="49.36949" lon="0.20481">
        <ele>125</ele>
        <time>2024-10-02T13:30:24Z</time>
      </trkpt>
      <trkpt lat="49.36951" lon="0.20481">
        <ele>125</ele>
        <time>2024-10-02T13:30:25Z</time>
      </trkpt>
      <trkpt lat="49.36954" lon="0.2048">
        <ele>125</ele>
        <time>2024-10-02T13:30:26Z</time>
      </trkpt>
      <trkpt lat="49.36956" lon="0.20478">
        <ele>125</ele>
        <time>2024-10-02T13:30:27Z</time>
      </trkpt>
      <trkpt lat="49.36959" lon="0.20475">
        <ele>125</ele>
        <time>2024-10-02T13:30:28Z</time>
      </trkpt>
      <trkpt lat="49.36961" lon="0.20472">
        <ele>125</ele>
        <time>2024-10-02T13:30:29Z</time>
      </trkpt>
      <trkpt lat="49.36964" lon="0.20468">
        <ele>125</ele>
        <time>2024-10-02T13:30:30Z</time>
      </trkpt>
      <trkpt lat="49.36967" lon="0.20464">
        <ele>125</ele>
        <time>2024-10-02T13:30:31Z</time>
      </trkpt>
      <trkpt lat="49.36971" lon="0.20461">
        <ele>125</ele>
        <time>2024-10-02T13:30:32Z</time>
      </trkpt>
      <trkpt lat="49.36975" lon="0.20459">
        <ele>125</ele>
        <time>2024-10-02T13:30:33Z</time>
      </trkpt>
      <trkpt lat="49.3698" lon="0.20458">
        <ele>125</ele>
        <time>2024-10-02T13:30:34Z</time>
      </trkpt>
      <trkpt lat="49.36986" lon="0.20458">
        <ele>124.8</ele>
        <time>2024-10-02T13:30:35Z</time>
      </trkpt>
      <trkpt lat="49.36991" lon="0.20459">
        <ele>124.8</ele>
        <time>2024-10-02T13:30:36Z</time>
      </trkpt>
      <trkpt lat="49.36997" lon="0.20461">
        <ele>124.8</ele>
        <time>2024-10-02T13:30:37Z</time>
      </trkpt>
      <trkpt lat="49.37002" lon="0.20464">
        <ele>124.8</ele>
        <time>2024-10-02T13:30:38Z</time>
      </trkpt>
      <trkpt lat="49.37008" lon="0.20466">
        <ele>124.8</ele>
        <time>2024-10-02T13:30:39Z</time>
      </trkpt>
      <trkpt lat="49.37016" lon="0.20469">
        <ele>124.6</ele>
        <time>2024-10-02T13:30:40Z</time>
      </trkpt>
      <trkpt lat="49.37021" lon="0.20471">
        <ele>124.6</ele>
        <time>2024-10-02T13:30:41Z</time>
      </trkpt>
      <trkpt lat="49.37028" lon="0.20474">
        <ele>124.6</ele>
        <time>2024-10-02T13:30:42Z</time>
      </trkpt>
      <trkpt lat="49.37034" lon="0.20477">
        <ele>124.6</ele>
        <time>2024-10-02T13:30:43Z</time>
      </trkpt>
      <trkpt lat="49.37041" lon="0.2048">
        <ele>124.6</ele>
        <time>2024-10-02T13:30:44Z</time>
      </trkpt>
      <trkpt lat="49.37048" lon="0.20483">
        <ele>124.4</ele>
        <time>2024-10-02T13:30:45Z</time>
      </trkpt>
      <trkpt lat="49.37057" lon="0.20487">
        <ele>124.4</ele>
        <time>2024-10-02T13:30:46Z</time>
      </trkpt>
      <trkpt lat="49.37062" lon="0.20489">
        <ele>124.4</ele>
        <time>2024-10-02T13:30:47Z</time>
      </trkpt>
      <trkpt lat="49.3707" lon="0.20492">
        <ele>124.4</ele>
        <time>2024-10-02T13:30:48Z</time>
      </trkpt>
      <trkpt lat="49.37077" lon="0.20495">
        <ele>124.2</ele>
        <time>2024-10-02T13:30:49Z</time>
      </trkpt>
      <trkpt lat="49.37084" lon="0.20498">
        <ele>123.8</ele>
        <time>2024-10-02T13:30:50Z</time>
      </trkpt>
      <trkpt lat="49.37091" lon="0.20501">
        <ele>123.8</ele>
        <time>2024-10-02T13:30:51Z</time>
      </trkpt>
      <trkpt lat="49.371" lon="0.20505">
        <ele>123.6</ele>
        <time>2024-10-02T13:30:52Z</time>
      </trkpt>
      <trkpt lat="49.37105" lon="0.20507">
        <ele>123.6</ele>
        <time>2024-10-02T13:30:53Z</time>
      </trkpt>
      <trkpt lat="49.37113" lon="0.2051">
        <ele>123.4</ele>
        <time>2024-10-02T13:30:54Z</time>
      </trkpt>
      <trkpt lat="49.37119" lon="0.20514">
        <ele>123.4</ele>
        <time>2024-10-02T13:30:55Z</time>
      </trkpt>
      <trkpt lat="49.37127" lon="0.20517">
        <ele>123.4</ele>
        <time>2024-10-02T13:30:56Z</time>
      </trkpt>
      <trkpt lat="49.37134" lon="0.20519">
        <ele>123.4</ele>
        <time>2024-10-02T13:30:57Z</time>
      </trkpt>
      <trkpt lat="49.3714" lon="0.20522">
        <ele>123.4</ele>
        <time>2024-10-02T13:30:58Z</time>
      </trkpt>
      <trkpt lat="49.37147" lon="0.20525">
        <ele>123.2</ele>
        <time>2024-10-02T13:30:59Z</time>
      </trkpt>
      <trkpt lat="49.37154" lon="0.20528">
        <ele>123.2</ele>
        <time>2024-10-02T13:31:00Z</time>
      </trkpt>
      <trkpt lat="49.37161" lon="0.20531">
        <ele>123.2</ele>
        <time>2024-10-02T13:31:01Z</time>
      </trkpt>
      <trkpt lat="49.37168" lon="0.20534">
        <ele>123.2</ele>
        <time>2024-10-02T13:31:02Z</time>
      </trkpt>
      <trkpt lat="49.37175" lon="0.20536">
        <ele>123.2</ele>
        <time>2024-10-02T13:31:03Z</time>
      </trkpt>
      <trkpt lat="49.37181" lon="0.20539">
        <ele>123.2</ele>
        <time>2024-10-02T13:31:04Z</time>
      </trkpt>
      <trkpt lat="49.37187" lon="0.20542">
        <ele>123.2</ele>
        <time>2024-10-02T13:31:05Z</time>
      </trkpt>
      <trkpt lat="49.37193" lon="0.20545">
        <ele>123.2</ele>
        <time>2024-10-02T13:31:06Z</time>
      </trkpt>
      <trkpt lat="49.372" lon="0.20548">
        <ele>123.2</ele>
        <time>2024-10-02T13:31:07Z</time>
      </trkpt>
      <trkpt lat="49.37207" lon="0.20551">
        <ele>123.2</ele>
        <time>2024-10-02T13:31:08Z</time>
      </trkpt>
      <trkpt lat="49.37214" lon="0.20554">
        <ele>123.2</ele>
        <time>2024-10-02T13:31:09Z</time>
      </trkpt>
      <trkpt lat="49.3722" lon="0.20557">
        <ele>123.2</ele>
        <time>2024-10-02T13:31:10Z</time>
      </trkpt>
      <trkpt lat="49.37227" lon="0.20559">
        <ele>123.2</ele>
        <time>2024-10-02T13:31:11Z</time>
      </trkpt>
      <trkpt lat="49.37234" lon="0.20562">
        <ele>123.2</ele>
        <time>2024-10-02T13:31:12Z</time>
      </trkpt>
      <trkpt lat="49.37241" lon="0.20565">
        <ele>123.2</ele>
        <time>2024-10-02T13:31:13Z</time>
      </trkpt>
      <trkpt lat="49.37247" lon="0.20568">
        <ele>123.2</ele>
        <time>2024-10-02T13:31:14Z</time>
      </trkpt>
      <trkpt lat="49.37254" lon="0.20571">
        <ele>123.2</ele>
        <time>2024-10-02T13:31:15Z</time>
      </trkpt>
      <trkpt lat="49.37261" lon="0.20574">
        <ele>123.2</ele>
        <time>2024-10-02T13:31:16Z</time>
      </trkpt>
      <trkpt lat="49.37268" lon="0.20577">
        <ele>123.2</ele>
        <time>2024-10-02T13:31:17Z</time>
      </trkpt>
      <trkpt lat="49.37275" lon="0.2058">
        <ele>123.2</ele>
        <time>2024-10-02T13:31:18Z</time>
      </trkpt>
      <trkpt lat="49.37282" lon="0.20582">
        <ele>123.2</ele>
        <time>2024-10-02T13:31:19Z</time>
      </trkpt>
      <trkpt lat="49.37289" lon="0.20585">
        <ele>123.4</ele>
        <time>2024-10-02T13:31:20Z</time>
      </trkpt>
      <trkpt lat="49.37296" lon="0.20588">
        <ele>123.4</ele>
        <time>2024-10-02T13:31:21Z</time>
      </trkpt>
      <trkpt lat="49.37303" lon="0.20591">
        <ele>123.4</ele>
        <time>2024-10-02T13:31:22Z</time>
      </trkpt>
      <trkpt lat="49.37309" lon="0.20594">
        <ele>123.4</ele>
        <time>2024-10-02T13:31:23Z</time>
      </trkpt>
      <trkpt lat="49.37316" lon="0.20597">
        <ele>123.4</ele>
        <time>2024-10-02T13:31:24Z</time>
      </trkpt>
      <trkpt lat="49.37323" lon="0.206">
        <ele>123.6</ele>
        <time>2024-10-02T13:31:25Z</time>
      </trkpt>
      <trkpt lat="49.37331" lon="0.20603">
        <ele>123.6</ele>
        <time>2024-10-02T13:31:26Z</time>
      </trkpt>
      <trkpt lat="49.37338" lon="0.20606">
        <ele>123.6</ele>
        <time>2024-10-02T13:31:27Z</time>
      </trkpt>
      <trkpt lat="49.37345" lon="0.20609">
        <ele>123.6</ele>
        <time>2024-10-02T13:31:28Z</time>
      </trkpt>
      <trkpt lat="49.37352" lon="0.20612">
        <ele>123.6</ele>
        <time>2024-10-02T13:31:29Z</time>
      </trkpt>
      <trkpt lat="49.37359" lon="0.20615">
        <ele>123.6</ele>
        <time>2024-10-02T13:31:30Z</time>
      </trkpt>
      <trkpt lat="49.37366" lon="0.20618">
        <ele>123.6</ele>
        <time>2024-10-02T13:31:31Z</time>
      </trkpt>
      <trkpt lat="49.37373" lon="0.20621">
        <ele>123.6</ele>
        <time>2024-10-02T13:31:32Z</time>
      </trkpt>
      <trkpt lat="49.37381" lon="0.20624">
        <ele>123.4</ele>
        <time>2024-10-02T13:31:33Z</time>
      </trkpt>
      <trkpt lat="49.37388" lon="0.20627">
        <ele>123.4</ele>
        <time>2024-10-02T13:31:34Z</time>
      </trkpt>
      <trkpt lat="49.37395" lon="0.2063">
        <ele>123.4</ele>
        <time>2024-10-02T13:31:35Z</time>
      </trkpt>
      <trkpt lat="49.37402" lon="0.20633">
        <ele>123.4</ele>
        <time>2024-10-02T13:31:36Z</time>
      </trkpt>
      <trkpt lat="49.37409" lon="0.20636">
        <ele>123.4</ele>
        <time>2024-10-02T13:31:37Z</time>
      </trkpt>
      <trkpt lat="49.37416" lon="0.20638">
        <ele>123.4</ele>
        <time>2024-10-02T13:31:38Z</time>
      </trkpt>
      <trkpt lat="49.37424" lon="0.20642">
        <ele>123.4</ele>
        <time>2024-10-02T13:31:39Z</time>
      </trkpt>
      <trkpt lat="49.37431" lon="0.20645">
        <ele>123.4</ele>
        <time>2024-10-02T13:31:40Z</time>
      </trkpt>
      <trkpt lat="49.37438" lon="0.20648">
        <ele>123.4</ele>
        <time>2024-10-02T13:31:41Z</time>
      </trkpt>
      <trkpt lat="49.37445" lon="0.2065">
        <ele>123.4</ele>
        <time>2024-10-02T13:31:42Z</time>
      </trkpt>
      <trkpt lat="49.37452" lon="0.20653">
        <ele>123.2</ele>
        <time>2024-10-02T13:31:43Z</time>
      </trkpt>
      <trkpt lat="49.37459" lon="0.20656">
        <ele>123.2</ele>
        <time>2024-10-02T13:31:44Z</time>
      </trkpt>
      <trkpt lat="49.37466" lon="0.20659">
        <ele>123</ele>
        <time>2024-10-02T13:31:45Z</time>
      </trkpt>
      <trkpt lat="49.37473" lon="0.20662">
        <ele>122.8</ele>
        <time>2024-10-02T13:31:46Z</time>
      </trkpt>
      <trkpt lat="49.3748" lon="0.20664">
        <ele>122.8</ele>
        <time>2024-10-02T13:31:47Z</time>
      </trkpt>
      <trkpt lat="49.37487" lon="0.20666">
        <ele>122.8</ele>
        <time>2024-10-02T13:31:48Z</time>
      </trkpt>
      <trkpt lat="49.37494" lon="0.20669">
        <ele>122.8</ele>
        <time>2024-10-02T13:31:49Z</time>
      </trkpt>
      <trkpt lat="49.37501" lon="0.2067">
        <ele>122.8</ele>
        <time>2024-10-02T13:31:50Z</time>
      </trkpt>
      <trkpt lat="49.37508" lon="0.20672">
        <ele>122.8</ele>
        <time>2024-10-02T13:31:51Z</time>
      </trkpt>
      <trkpt lat="49.37515" lon="0.20673">
        <ele>122.8</ele>
        <time>2024-10-02T13:31:52Z</time>
      </trkpt>
      <trkpt lat="49.37523" lon="0.20674">
        <ele>122.8</ele>
        <time>2024-10-02T13:31:53Z</time>
      </trkpt>
      <trkpt lat="49.3753" lon="0.20674">
        <ele>122.8</ele>
        <time>2024-10-02T13:31:54Z</time>
      </trkpt>
      <trkpt lat="49.37537" lon="0.20675">
        <ele>122.8</ele>
        <time>2024-10-02T13:31:55Z</time>
      </trkpt>
      <trkpt lat="49.37545" lon="0.20675">
        <ele>122.6</ele>
        <time>2024-10-02T13:31:56Z</time>
      </trkpt>
      <trkpt lat="49.37552" lon="0.20675">
        <ele>122.6</ele>
        <time>2024-10-02T13:31:57Z</time>
      </trkpt>
      <trkpt lat="49.3756" lon="0.20675">
        <ele>122.6</ele>
        <time>2024-10-02T13:31:58Z</time>
      </trkpt>
      <trkpt lat="49.37567" lon="0.20674">
        <ele>122.6</ele>
        <time>2024-10-02T13:31:59Z</time>
      </trkpt>
      <trkpt lat="49.37575" lon="0.20673">
        <ele>122.6</ele>
        <time>2024-10-02T13:32:00Z</time>
      </trkpt>
      <trkpt lat="49.37583" lon="0.20672">
        <ele>122.8</ele>
        <time>2024-10-02T13:32:01Z</time>
      </trkpt>
      <trkpt lat="49.3759" lon="0.2067">
        <ele>122.8</ele>
        <time>2024-10-02T13:32:02Z</time>
      </trkpt>
      <trkpt lat="49.37598" lon="0.20669">
        <ele>122.8</ele>
        <time>2024-10-02T13:32:03Z</time>
      </trkpt>
      <trkpt lat="49.37605" lon="0.20667">
        <ele>122.8</ele>
        <time>2024-10-02T13:32:04Z</time>
      </trkpt>
      <trkpt lat="49.37613" lon="0.20666">
        <ele>122.8</ele>
        <time>2024-10-02T13:32:05Z</time>
      </trkpt>
      <trkpt lat="49.37621" lon="0.20664">
        <ele>122.8</ele>
        <time>2024-10-02T13:32:06Z</time>
      </trkpt>
      <trkpt lat="49.37628" lon="0.20662">
        <ele>122.8</ele>
        <time>2024-10-02T13:32:07Z</time>
      </trkpt>
      <trkpt lat="49.37636" lon="0.20661">
        <ele>122.8</ele>
        <time>2024-10-02T13:32:08Z</time>
      </trkpt>
      <trkpt lat="49.37644" lon="0.20659">
        <ele>122.8</ele>
        <time>2024-10-02T13:32:09Z</time>
      </trkpt>
      <trkpt lat="49.37652" lon="0.20658">
        <ele>122.8</ele>
        <time>2024-10-02T13:32:10Z</time>
      </trkpt>
      <trkpt lat="49.3766" lon="0.20656">
        <ele>122.8</ele>
        <time>2024-10-02T13:32:11Z</time>
      </trkpt>
      <trkpt lat="49.37669" lon="0.20654">
        <ele>122.8</ele>
        <time>2024-10-02T13:32:12Z</time>
      </trkpt>
      <trkpt lat="49.37677" lon="0.20652">
        <ele>122.6</ele>
        <time>2024-10-02T13:32:13Z</time>
      </trkpt>
      <trkpt lat="49.37685" lon="0.2065">
        <ele>122.6</ele>
        <time>2024-10-02T13:32:14Z</time>
      </trkpt>
      <trkpt lat="49.37693" lon="0.20649">
        <ele>122.2</ele>
        <time>2024-10-02T13:32:15Z</time>
      </trkpt>
      <trkpt lat="49.37701" lon="0.20647">
        <ele>122.2</ele>
        <time>2024-10-02T13:32:16Z</time>
      </trkpt>
      <trkpt lat="49.37709" lon="0.20645">
        <ele>121.6</ele>
        <time>2024-10-02T13:32:17Z</time>
      </trkpt>
      <trkpt lat="49.37717" lon="0.20643">
        <ele>121.2</ele>
        <time>2024-10-02T13:32:18Z</time>
      </trkpt>
      <trkpt lat="49.37725" lon="0.20641">
        <ele>121</ele>
        <time>2024-10-02T13:32:19Z</time>
      </trkpt>
      <trkpt lat="49.37733" lon="0.20639">
        <ele>120.8</ele>
        <time>2024-10-02T13:32:20Z</time>
      </trkpt>
      <trkpt lat="49.37741" lon="0.20638">
        <ele>120.8</ele>
        <time>2024-10-02T13:32:21Z</time>
      </trkpt>
      <trkpt lat="49.37749" lon="0.20636">
        <ele>120.6</ele>
        <time>2024-10-02T13:32:22Z</time>
      </trkpt>
      <trkpt lat="49.37757" lon="0.20634">
        <ele>120.6</ele>
        <time>2024-10-02T13:32:23Z</time>
      </trkpt>
      <trkpt lat="49.37765" lon="0.20633">
        <ele>120.4</ele>
        <time>2024-10-02T13:32:24Z</time>
      </trkpt>
      <trkpt lat="49.37773" lon="0.20631">
        <ele>120.4</ele>
        <time>2024-10-02T13:32:25Z</time>
      </trkpt>
      <trkpt lat="49.37781" lon="0.20629">
        <ele>120.2</ele>
        <time>2024-10-02T13:32:26Z</time>
      </trkpt>
      <trkpt lat="49.37789" lon="0.20628">
        <ele>120.2</ele>
        <time>2024-10-02T13:32:27Z</time>
      </trkpt>
      <trkpt lat="49.37797" lon="0.20626">
        <ele>120</ele>
        <time>2024-10-02T13:32:28Z</time>
      </trkpt>
      <trkpt lat="49.37805" lon="0.20624">
        <ele>120</ele>
        <time>2024-10-02T13:32:29Z</time>
      </trkpt>
      <trkpt lat="49.37813" lon="0.20623">
        <ele>120</ele>
        <time>2024-10-02T13:32:30Z</time>
      </trkpt>
      <trkpt lat="49.37821" lon="0.20621">
        <ele>120</ele>
        <time>2024-10-02T13:32:31Z</time>
      </trkpt>
      <trkpt lat="49.37829" lon="0.20619">
        <ele>119.8</ele>
        <time>2024-10-02T13:32:32Z</time>
      </trkpt>
      <trkpt lat="49.37837" lon="0.20617">
        <ele>119.8</ele>
        <time>2024-10-02T13:32:33Z</time>
      </trkpt>
      <trkpt lat="49.37845" lon="0.20615">
        <ele>119.8</ele>
        <time>2024-10-02T13:32:34Z</time>
      </trkpt>
      <trkpt lat="49.37853" lon="0.20613">
        <ele>119.8</ele>
        <time>2024-10-02T13:32:35Z</time>
      </trkpt>
      <trkpt lat="49.37861" lon="0.20612">
        <ele>119.8</ele>
        <time>2024-10-02T13:32:36Z</time>
      </trkpt>
      <trkpt lat="49.37869" lon="0.2061">
        <ele>119.8</ele>
        <time>2024-10-02T13:32:37Z</time>
      </trkpt>
      <trkpt lat="49.37877" lon="0.20608">
        <ele>119.8</ele>
        <time>2024-10-02T13:32:38Z</time>
      </trkpt>
      <trkpt lat="49.37885" lon="0.20606">
        <ele>119.6</ele>
        <time>2024-10-02T13:32:39Z</time>
      </trkpt>
      <trkpt lat="49.37893" lon="0.20605">
        <ele>119.6</ele>
        <time>2024-10-02T13:32:40Z</time>
      </trkpt>
      <trkpt lat="49.37901" lon="0.20603">
        <ele>119.6</ele>
        <time>2024-10-02T13:32:41Z</time>
      </trkpt>
      <trkpt lat="49.37908" lon="0.20601">
        <ele>119.6</ele>
        <time>2024-10-02T13:32:42Z</time>
      </trkpt>
      <trkpt lat="49.37915" lon="0.206">
        <ele>119.6</ele>
        <time>2024-10-02T13:32:43Z</time>
      </trkpt>
      <trkpt lat="49.37922" lon="0.20598">
        <ele>119.8</ele>
        <time>2024-10-02T13:32:44Z</time>
      </trkpt>
      <trkpt lat="49.3793" lon="0.20596">
        <ele>119.8</ele>
        <time>2024-10-02T13:32:45Z</time>
      </trkpt>
      <trkpt lat="49.37937" lon="0.20595">
        <ele>119.8</ele>
        <time>2024-10-02T13:32:46Z</time>
      </trkpt>
      <trkpt lat="49.37944" lon="0.20593">
        <ele>119.8</ele>
        <time>2024-10-02T13:32:47Z</time>
      </trkpt>
      <trkpt lat="49.37951" lon="0.20592">
        <ele>119.8</ele>
        <time>2024-10-02T13:32:48Z</time>
      </trkpt>
      <trkpt lat="49.37959" lon="0.2059">
        <ele>119.8</ele>
        <time>2024-10-02T13:32:49Z</time>
      </trkpt>
      <trkpt lat="49.37965" lon="0.20589">
        <ele>119.8</ele>
        <time>2024-10-02T13:32:50Z</time>
      </trkpt>
      <trkpt lat="49.37972" lon="0.20588">
        <ele>119.8</ele>
        <time>2024-10-02T13:32:51Z</time>
      </trkpt>
      <trkpt lat="49.37979" lon="0.20587">
        <ele>119.8</ele>
        <time>2024-10-02T13:32:52Z</time>
      </trkpt>
      <trkpt lat="49.37985" lon="0.20585">
        <ele>119.8</ele>
        <time>2024-10-02T13:32:53Z</time>
      </trkpt>
      <trkpt lat="49.37991" lon="0.20584">
        <ele>119.8</ele>
        <time>2024-10-02T13:32:54Z</time>
      </trkpt>
      <trkpt lat="49.37997" lon="0.20582">
        <ele>119.6</ele>
        <time>2024-10-02T13:32:55Z</time>
      </trkpt>
      <trkpt lat="49.38003" lon="0.20579">
        <ele>119.6</ele>
        <time>2024-10-02T13:32:56Z</time>
      </trkpt>
      <trkpt lat="49.3801" lon="0.20577">
        <ele>119.6</ele>
        <time>2024-10-02T13:32:57Z</time>
      </trkpt>
      <trkpt lat="49.38016" lon="0.20576">
        <ele>119.6</ele>
        <time>2024-10-02T13:32:58Z</time>
      </trkpt>
      <trkpt lat="49.38023" lon="0.20575">
        <ele>119.6</ele>
        <time>2024-10-02T13:32:59Z</time>
      </trkpt>
      <trkpt lat="49.38029" lon="0.20573">
        <ele>119.6</ele>
        <time>2024-10-02T13:33:00Z</time>
      </trkpt>
      <trkpt lat="49.38036" lon="0.20571">
        <ele>119.6</ele>
        <time>2024-10-02T13:33:01Z</time>
      </trkpt>
      <trkpt lat="49.38043" lon="0.2057">
        <ele>119.6</ele>
        <time>2024-10-02T13:33:02Z</time>
      </trkpt>
      <trkpt lat="49.3805" lon="0.20568">
        <ele>119.6</ele>
        <time>2024-10-02T13:33:03Z</time>
      </trkpt>
      <trkpt lat="49.38057" lon="0.20567">
        <ele>119.6</ele>
        <time>2024-10-02T13:33:04Z</time>
      </trkpt>
      <trkpt lat="49.38064" lon="0.20565">
        <ele>119.4</ele>
        <time>2024-10-02T13:33:05Z</time>
      </trkpt>
      <trkpt lat="49.38071" lon="0.20564">
        <ele>119.4</ele>
        <time>2024-10-02T13:33:06Z</time>
      </trkpt>
      <trkpt lat="49.38078" lon="0.20563">
        <ele>119.4</ele>
        <time>2024-10-02T13:33:07Z</time>
      </trkpt>
      <trkpt lat="49.38085" lon="0.20562">
        <ele>119.4</ele>
        <time>2024-10-02T13:33:08Z</time>
      </trkpt>
      <trkpt lat="49.38092" lon="0.20561">
        <ele>119.2</ele>
        <time>2024-10-02T13:33:09Z</time>
      </trkpt>
      <trkpt lat="49.38099" lon="0.20559">
        <ele>119.2</ele>
        <time>2024-10-02T13:33:10Z</time>
      </trkpt>
      <trkpt lat="49.38106" lon="0.20558">
        <ele>119.2</ele>
        <time>2024-10-02T13:33:11Z</time>
      </trkpt>
      <trkpt lat="49.38112" lon="0.20556">
        <ele>119.2</ele>
        <time>2024-10-02T13:33:12Z</time>
      </trkpt>
      <trkpt lat="49.38119" lon="0.20555">
        <ele>119</ele>
        <time>2024-10-02T13:33:13Z</time>
      </trkpt>
      <trkpt lat="49.38126" lon="0.20554">
        <ele>119</ele>
        <time>2024-10-02T13:33:14Z</time>
      </trkpt>
      <trkpt lat="49.38133" lon="0.20553">
        <ele>118.8</ele>
        <time>2024-10-02T13:33:15Z</time>
      </trkpt>
      <trkpt lat="49.3814" lon="0.20552">
        <ele>118.6</ele>
        <time>2024-10-02T13:33:16Z</time>
      </trkpt>
      <trkpt lat="49.38147" lon="0.20551">
        <ele>118.6</ele>
        <time>2024-10-02T13:33:17Z</time>
      </trkpt>
      <trkpt lat="49.38154" lon="0.2055">
        <ele>118.4</ele>
        <time>2024-10-02T13:33:18Z</time>
      </trkpt>
      <trkpt lat="49.38161" lon="0.20548">
        <ele>118.4</ele>
        <time>2024-10-02T13:33:19Z</time>
      </trkpt>
      <trkpt lat="49.38168" lon="0.20547">
        <ele>118.4</ele>
        <time>2024-10-02T13:33:20Z</time>
      </trkpt>
      <trkpt lat="49.38175" lon="0.20546">
        <ele>118</ele>
        <time>2024-10-02T13:33:21Z</time>
      </trkpt>
      <trkpt lat="49.38181" lon="0.20545">
        <ele>117.8</ele>
        <time>2024-10-02T13:33:22Z</time>
      </trkpt>
      <trkpt lat="49.38188" lon="0.20544">
        <ele>117.8</ele>
        <time>2024-10-02T13:33:23Z</time>
      </trkpt>
      <trkpt lat="49.38195" lon="0.20543">
        <ele>117.6</ele>
        <time>2024-10-02T13:33:24Z</time>
      </trkpt>
      <trkpt lat="49.38202" lon="0.20542">
        <ele>117.6</ele>
        <time>2024-10-02T13:33:25Z</time>
      </trkpt>
      <trkpt lat="49.38209" lon="0.2054">
        <ele>117.6</ele>
        <time>2024-10-02T13:33:26Z</time>
      </trkpt>
      <trkpt lat="49.38215" lon="0.20538">
        <ele>117.2</ele>
        <time>2024-10-02T13:33:27Z</time>
      </trkpt>
      <trkpt lat="49.38221" lon="0.20536">
        <ele>117</ele>
        <time>2024-10-02T13:33:28Z</time>
      </trkpt>
      <trkpt lat="49.38226" lon="0.20534">
        <ele>116.6</ele>
        <time>2024-10-02T13:33:29Z</time>
      </trkpt>
      <trkpt lat="49.38232" lon="0.20532">
        <ele>116.4</ele>
        <time>2024-10-02T13:33:30Z</time>
      </trkpt>
      <trkpt lat="49.38238" lon="0.2053">
        <ele>116.2</ele>
        <time>2024-10-02T13:33:31Z</time>
      </trkpt>
      <trkpt lat="49.38244" lon="0.20528">
        <ele>116.2</ele>
        <time>2024-10-02T13:33:32Z</time>
      </trkpt>
      <trkpt lat="49.38251" lon="0.20527">
        <ele>116</ele>
        <time>2024-10-02T13:33:33Z</time>
      </trkpt>
      <trkpt lat="49.38257" lon="0.20525">
        <ele>116</ele>
        <time>2024-10-02T13:33:34Z</time>
      </trkpt>
      <trkpt lat="49.38264" lon="0.20524">
        <ele>115.6</ele>
        <time>2024-10-02T13:33:35Z</time>
      </trkpt>
      <trkpt lat="49.3827" lon="0.20522">
        <ele>115.4</ele>
        <time>2024-10-02T13:33:36Z</time>
      </trkpt>
      <trkpt lat="49.38277" lon="0.20521">
        <ele>115.4</ele>
        <time>2024-10-02T13:33:37Z</time>
      </trkpt>
      <trkpt lat="49.38284" lon="0.2052">
        <ele>115.4</ele>
        <time>2024-10-02T13:33:38Z</time>
      </trkpt>
      <trkpt lat="49.3829" lon="0.20519">
        <ele>115.4</ele>
        <time>2024-10-02T13:33:39Z</time>
      </trkpt>
      <trkpt lat="49.38296" lon="0.20518">
        <ele>115.2</ele>
        <time>2024-10-02T13:33:40Z</time>
      </trkpt>
      <trkpt lat="49.38302" lon="0.20516">
        <ele>115.2</ele>
        <time>2024-10-02T13:33:41Z</time>
      </trkpt>
      <trkpt lat="49.38308" lon="0.20514">
        <ele>115.2</ele>
        <time>2024-10-02T13:33:42Z</time>
      </trkpt>
      <trkpt lat="49.38314" lon="0.20513">
        <ele>115.2</ele>
        <time>2024-10-02T13:33:43Z</time>
      </trkpt>
      <trkpt lat="49.3832" lon="0.20512">
        <ele>115.2</ele>
        <time>2024-10-02T13:33:44Z</time>
      </trkpt>
      <trkpt lat="49.38326" lon="0.20511">
        <ele>115.2</ele>
        <time>2024-10-02T13:33:45Z</time>
      </trkpt>
      <trkpt lat="49.38333" lon="0.20509">
        <ele>115</ele>
        <time>2024-10-02T13:33:46Z</time>
      </trkpt>
      <trkpt lat="49.38339" lon="0.20508">
        <ele>114.8</ele>
        <time>2024-10-02T13:33:47Z</time>
      </trkpt>
      <trkpt lat="49.38345" lon="0.20507">
        <ele>114.6</ele>
        <time>2024-10-02T13:33:48Z</time>
      </trkpt>
      <trkpt lat="49.38351" lon="0.20505">
        <ele>114.4</ele>
        <time>2024-10-02T13:33:49Z</time>
      </trkpt>
      <trkpt lat="49.38357" lon="0.20504">
        <ele>114.4</ele>
        <time>2024-10-02T13:33:50Z</time>
      </trkpt>
      <trkpt lat="49.38363" lon="0.20502">
        <ele>114.2</ele>
        <time>2024-10-02T13:33:51Z</time>
      </trkpt>
      <trkpt lat="49.3837" lon="0.20501">
        <ele>114.2</ele>
        <time>2024-10-02T13:33:52Z</time>
      </trkpt>
      <trkpt lat="49.38376" lon="0.20499">
        <ele>114.2</ele>
        <time>2024-10-02T13:33:53Z</time>
      </trkpt>
      <trkpt lat="49.38383" lon="0.20498">
        <ele>114.2</ele>
        <time>2024-10-02T13:33:54Z</time>
      </trkpt>
      <trkpt lat="49.38389" lon="0.20496">
        <ele>114</ele>
        <time>2024-10-02T13:33:55Z</time>
      </trkpt>
      <trkpt lat="49.38395" lon="0.20495">
        <ele>114</ele>
        <time>2024-10-02T13:33:56Z</time>
      </trkpt>
      <trkpt lat="49.38402" lon="0.20494">
        <ele>114</ele>
        <time>2024-10-02T13:33:57Z</time>
      </trkpt>
      <trkpt lat="49.38408" lon="0.20493">
        <ele>113.8</ele>
        <time>2024-10-02T13:33:58Z</time>
      </trkpt>
      <trkpt lat="49.38415" lon="0.20492">
        <ele>113.6</ele>
        <time>2024-10-02T13:33:59Z</time>
      </trkpt>
      <trkpt lat="49.38422" lon="0.20491">
        <ele>113.6</ele>
        <time>2024-10-02T13:34:00Z</time>
      </trkpt>
      <trkpt lat="49.38428" lon="0.20489">
        <ele>113.6</ele>
        <time>2024-10-02T13:34:01Z</time>
      </trkpt>
      <trkpt lat="49.38435" lon="0.20487">
        <ele>113.6</ele>
        <time>2024-10-02T13:34:02Z</time>
      </trkpt>
      <trkpt lat="49.38441" lon="0.20486">
        <ele>113.4</ele>
        <time>2024-10-02T13:34:03Z</time>
      </trkpt>
      <trkpt lat="49.38447" lon="0.20484">
        <ele>113.2</ele>
        <time>2024-10-02T13:34:04Z</time>
      </trkpt>
      <trkpt lat="49.38454" lon="0.20483">
        <ele>113.2</ele>
        <time>2024-10-02T13:34:05Z</time>
      </trkpt>
      <trkpt lat="49.3846" lon="0.20481">
        <ele>113</ele>
        <time>2024-10-02T13:34:06Z</time>
      </trkpt>
      <trkpt lat="49.38466" lon="0.20479">
        <ele>113</ele>
        <time>2024-10-02T13:34:07Z</time>
      </trkpt>
      <trkpt lat="49.38472" lon="0.20477">
        <ele>113</ele>
        <time>2024-10-02T13:34:08Z</time>
      </trkpt>
      <trkpt lat="49.38478" lon="0.20476">
        <ele>113.2</ele>
        <time>2024-10-02T13:34:09Z</time>
      </trkpt>
      <trkpt lat="49.38484" lon="0.20475">
        <ele>113.2</ele>
        <time>2024-10-02T13:34:10Z</time>
      </trkpt>
      <trkpt lat="49.3849" lon="0.20473">
        <ele>113.4</ele>
        <time>2024-10-02T13:34:11Z</time>
      </trkpt>
      <trkpt lat="49.38497" lon="0.20472">
        <ele>113.4</ele>
        <time>2024-10-02T13:34:12Z</time>
      </trkpt>
      <trkpt lat="49.38503" lon="0.20471">
        <ele>113.4</ele>
        <time>2024-10-02T13:34:13Z</time>
      </trkpt>
      <trkpt lat="49.3851" lon="0.20469">
        <ele>113.2</ele>
        <time>2024-10-02T13:34:14Z</time>
      </trkpt>
      <trkpt lat="49.38516" lon="0.20468">
        <ele>113.2</ele>
        <time>2024-10-02T13:34:15Z</time>
      </trkpt>
      <trkpt lat="49.38522" lon="0.20467">
        <ele>113.2</ele>
        <time>2024-10-02T13:34:16Z</time>
      </trkpt>
      <trkpt lat="49.38528" lon="0.20465">
        <ele>113.2</ele>
        <time>2024-10-02T13:34:17Z</time>
      </trkpt>
      <trkpt lat="49.38535" lon="0.20464">
        <ele>113.2</ele>
        <time>2024-10-02T13:34:18Z</time>
      </trkpt>
      <trkpt lat="49.38541" lon="0.20463">
        <ele>113.2</ele>
        <time>2024-10-02T13:34:19Z</time>
      </trkpt>
      <trkpt lat="49.38548" lon="0.20462">
        <ele>113.2</ele>
        <time>2024-10-02T13:34:20Z</time>
      </trkpt>
      <trkpt lat="49.38554" lon="0.20461">
        <ele>113.2</ele>
        <time>2024-10-02T13:34:21Z</time>
      </trkpt>
      <trkpt lat="49.3856" lon="0.2046">
        <ele>113.4</ele>
        <time>2024-10-02T13:34:22Z</time>
      </trkpt>
      <trkpt lat="49.38567" lon="0.20458">
        <ele>113.4</ele>
        <time>2024-10-02T13:34:23Z</time>
      </trkpt>
      <trkpt lat="49.38573" lon="0.20458">
        <ele>113.4</ele>
        <time>2024-10-02T13:34:24Z</time>
      </trkpt>
      <trkpt lat="49.38579" lon="0.20457">
        <ele>113.4</ele>
        <time>2024-10-02T13:34:25Z</time>
      </trkpt>
      <trkpt lat="49.38585" lon="0.20457">
        <ele>113.4</ele>
        <time>2024-10-02T13:34:26Z</time>
      </trkpt>
      <trkpt lat="49.38591" lon="0.20456">
        <ele>113.4</ele>
        <time>2024-10-02T13:34:27Z</time>
      </trkpt>
      <trkpt lat="49.38597" lon="0.20457">
        <ele>113.4</ele>
        <time>2024-10-02T13:34:28Z</time>
      </trkpt>
      <trkpt lat="49.38604" lon="0.20457">
        <ele>113.4</ele>
        <time>2024-10-02T13:34:29Z</time>
      </trkpt>
      <trkpt lat="49.3861" lon="0.20457">
        <ele>113.4</ele>
        <time>2024-10-02T13:34:30Z</time>
      </trkpt>
      <trkpt lat="49.38617" lon="0.20457">
        <ele>113.4</ele>
        <time>2024-10-02T13:34:31Z</time>
      </trkpt>
      <trkpt lat="49.38624" lon="0.20456">
        <ele>113.6</ele>
        <time>2024-10-02T13:34:32Z</time>
      </trkpt>
      <trkpt lat="49.3863" lon="0.20457">
        <ele>113.6</ele>
        <time>2024-10-02T13:34:33Z</time>
      </trkpt>
      <trkpt lat="49.38637" lon="0.20457">
        <ele>113.6</ele>
        <time>2024-10-02T13:34:34Z</time>
      </trkpt>
      <trkpt lat="49.38643" lon="0.20457">
        <ele>113.6</ele>
        <time>2024-10-02T13:34:35Z</time>
      </trkpt>
      <trkpt lat="49.3865" lon="0.20458">
        <ele>113.6</ele>
        <time>2024-10-02T13:34:36Z</time>
      </trkpt>
      <trkpt lat="49.38656" lon="0.20458">
        <ele>113.8</ele>
        <time>2024-10-02T13:34:37Z</time>
      </trkpt>
      <trkpt lat="49.38663" lon="0.20458">
        <ele>113.8</ele>
        <time>2024-10-02T13:34:38Z</time>
      </trkpt>
      <trkpt lat="49.38669" lon="0.20459">
        <ele>113.8</ele>
        <time>2024-10-02T13:34:39Z</time>
      </trkpt>
      <trkpt lat="49.38676" lon="0.20459">
        <ele>113.8</ele>
        <time>2024-10-02T13:34:40Z</time>
      </trkpt>
      <trkpt lat="49.38682" lon="0.2046">
        <ele>113.8</ele>
        <time>2024-10-02T13:34:41Z</time>
      </trkpt>
      <trkpt lat="49.38689" lon="0.2046">
        <ele>113.8</ele>
        <time>2024-10-02T13:34:42Z</time>
      </trkpt>
      <trkpt lat="49.38696" lon="0.20461">
        <ele>113.8</ele>
        <time>2024-10-02T13:34:43Z</time>
      </trkpt>
      <trkpt lat="49.38703" lon="0.20462">
        <ele>113.8</ele>
        <time>2024-10-02T13:34:44Z</time>
      </trkpt>
      <trkpt lat="49.38709" lon="0.20462">
        <ele>113.8</ele>
        <time>2024-10-02T13:34:45Z</time>
      </trkpt>
      <trkpt lat="49.38716" lon="0.20463">
        <ele>113.8</ele>
        <time>2024-10-02T13:34:46Z</time>
      </trkpt>
      <trkpt lat="49.38723" lon="0.20463">
        <ele>113.8</ele>
        <time>2024-10-02T13:34:47Z</time>
      </trkpt>
      <trkpt lat="49.3873" lon="0.20462">
        <ele>113.8</ele>
        <time>2024-10-02T13:34:48Z</time>
      </trkpt>
      <trkpt lat="49.38737" lon="0.20463">
        <ele>113.8</ele>
        <time>2024-10-02T13:34:49Z</time>
      </trkpt>
      <trkpt lat="49.38744" lon="0.20463">
        <ele>113.8</ele>
        <time>2024-10-02T13:34:50Z</time>
      </trkpt>
      <trkpt lat="49.38751" lon="0.20464">
        <ele>113.6</ele>
        <time>2024-10-02T13:34:51Z</time>
      </trkpt>
      <trkpt lat="49.38758" lon="0.20464">
        <ele>113.6</ele>
        <time>2024-10-02T13:34:52Z</time>
      </trkpt>
      <trkpt lat="49.38765" lon="0.20464">
        <ele>113.6</ele>
        <time>2024-10-02T13:34:53Z</time>
      </trkpt>
      <trkpt lat="49.38773" lon="0.20465">
        <ele>113.6</ele>
        <time>2024-10-02T13:34:54Z</time>
      </trkpt>
      <trkpt lat="49.3878" lon="0.20465">
        <ele>113.6</ele>
        <time>2024-10-02T13:34:55Z</time>
      </trkpt>
      <trkpt lat="49.38787" lon="0.20466">
        <ele>113.6</ele>
        <time>2024-10-02T13:34:56Z</time>
      </trkpt>
      <trkpt lat="49.38794" lon="0.20466">
        <ele>113.4</ele>
        <time>2024-10-02T13:34:57Z</time>
      </trkpt>
      <trkpt lat="49.38802" lon="0.20467">
        <ele>113.4</ele>
        <time>2024-10-02T13:34:58Z</time>
      </trkpt>
      <trkpt lat="49.38809" lon="0.20468">
        <ele>113.4</ele>
        <time>2024-10-02T13:34:59Z</time>
      </trkpt>
      <trkpt lat="49.38816" lon="0.20468">
        <ele>113.2</ele>
        <time>2024-10-02T13:35:00Z</time>
      </trkpt>
      <trkpt lat="49.38822" lon="0.2047">
        <ele>112.8</ele>
        <time>2024-10-02T13:35:01Z</time>
      </trkpt>
      <trkpt lat="49.38829" lon="0.20472">
        <ele>112.8</ele>
        <time>2024-10-02T13:35:02Z</time>
      </trkpt>
      <trkpt lat="49.38836" lon="0.20474">
        <ele>112.6</ele>
        <time>2024-10-02T13:35:03Z</time>
      </trkpt>
      <trkpt lat="49.38842" lon="0.20474">
        <ele>112.4</ele>
        <time>2024-10-02T13:35:04Z</time>
      </trkpt>
      <trkpt lat="49.38849" lon="0.20475">
        <ele>112.4</ele>
        <time>2024-10-02T13:35:05Z</time>
      </trkpt>
      <trkpt lat="49.38856" lon="0.20475">
        <ele>112.2</ele>
        <time>2024-10-02T13:35:06Z</time>
      </trkpt>
      <trkpt lat="49.38862" lon="0.20476">
        <ele>112.2</ele>
        <time>2024-10-02T13:35:07Z</time>
      </trkpt>
      <trkpt lat="49.38869" lon="0.20477">
        <ele>112</ele>
        <time>2024-10-02T13:35:08Z</time>
      </trkpt>
      <trkpt lat="49.38875" lon="0.20477">
        <ele>112</ele>
        <time>2024-10-02T13:35:09Z</time>
      </trkpt>
      <trkpt lat="49.38881" lon="0.20478">
        <ele>112</ele>
        <time>2024-10-02T13:35:10Z</time>
      </trkpt>
      <trkpt lat="49.38887" lon="0.20478">
        <ele>112</ele>
        <time>2024-10-02T13:35:11Z</time>
      </trkpt>
      <trkpt lat="49.38893" lon="0.20478">
        <ele>112</ele>
        <time>2024-10-02T13:35:12Z</time>
      </trkpt>
      <trkpt lat="49.38899" lon="0.20479">
        <ele>112</ele>
        <time>2024-10-02T13:35:13Z</time>
      </trkpt>
      <trkpt lat="49.38904" lon="0.20479">
        <ele>112</ele>
        <time>2024-10-02T13:35:14Z</time>
      </trkpt>
      <trkpt lat="49.3891" lon="0.20479">
        <ele>112</ele>
        <time>2024-10-02T13:35:15Z</time>
      </trkpt>
      <trkpt lat="49.38916" lon="0.2048">
        <ele>112</ele>
        <time>2024-10-02T13:35:16Z</time>
      </trkpt>
      <trkpt lat="49.38923" lon="0.20481">
        <ele>112</ele>
        <time>2024-10-02T13:35:17Z</time>
      </trkpt>
      <trkpt lat="49.38929" lon="0.20481">
        <ele>112</ele>
        <time>2024-10-02T13:35:18Z</time>
      </trkpt>
      <trkpt lat="49.38935" lon="0.20482">
        <ele>111.8</ele>
        <time>2024-10-02T13:35:19Z</time>
      </trkpt>
      <trkpt lat="49.38941" lon="0.20483">
        <ele>111.8</ele>
        <time>2024-10-02T13:35:20Z</time>
      </trkpt>
      <trkpt lat="49.38948" lon="0.20484">
        <ele>111.8</ele>
        <time>2024-10-02T13:35:21Z</time>
      </trkpt>
      <trkpt lat="49.38954" lon="0.20485">
        <ele>111.8</ele>
        <time>2024-10-02T13:35:22Z</time>
      </trkpt>
      <trkpt lat="49.3896" lon="0.20486">
        <ele>111.8</ele>
        <time>2024-10-02T13:35:23Z</time>
      </trkpt>
      <trkpt lat="49.38967" lon="0.20489">
        <ele>111.8</ele>
        <time>2024-10-02T13:35:24Z</time>
      </trkpt>
      <trkpt lat="49.38973" lon="0.20492">
        <ele>111.8</ele>
        <time>2024-10-02T13:35:25Z</time>
      </trkpt>
      <trkpt lat="49.38979" lon="0.20495">
        <ele>111.8</ele>
        <time>2024-10-02T13:35:26Z</time>
      </trkpt>
      <trkpt lat="49.38985" lon="0.20499">
        <ele>112</ele>
        <time>2024-10-02T13:35:27Z</time>
      </trkpt>
      <trkpt lat="49.38992" lon="0.20504">
        <ele>112</ele>
        <time>2024-10-02T13:35:28Z</time>
      </trkpt>
      <trkpt lat="49.38998" lon="0.20509">
        <ele>112</ele>
        <time>2024-10-02T13:35:29Z</time>
      </trkpt>
      <trkpt lat="49.39003" lon="0.20514">
        <ele>112</ele>
        <time>2024-10-02T13:35:30Z</time>
      </trkpt>
      <trkpt lat="49.39009" lon="0.2052">
        <ele>112</ele>
        <time>2024-10-02T13:35:31Z</time>
      </trkpt>
      <trkpt lat="49.39014" lon="0.20525">
        <ele>112</ele>
        <time>2024-10-02T13:35:32Z</time>
      </trkpt>
      <trkpt lat="49.39018" lon="0.2053">
        <ele>112</ele>
        <time>2024-10-02T13:35:33Z</time>
      </trkpt>
      <trkpt lat="49.39022" lon="0.20534">
        <ele>112</ele>
        <time>2024-10-02T13:35:34Z</time>
      </trkpt>
      <trkpt lat="49.39025" lon="0.20538">
        <ele>112</ele>
        <time>2024-10-02T13:35:35Z</time>
      </trkpt>
      <trkpt lat="49.39027" lon="0.20541">
        <ele>112</ele>
        <time>2024-10-02T13:35:36Z</time>
      </trkpt>
      <trkpt lat="49.3903" lon="0.20543">
        <ele>112.2</ele>
        <time>2024-10-02T13:35:37Z</time>
      </trkpt>
      <trkpt lat="49.39032" lon="0.20543">
        <ele>112.2</ele>
        <time>2024-10-02T13:35:38Z</time>
      </trkpt>
      <trkpt lat="49.39033" lon="0.20544">
        <ele>112.2</ele>
        <time>2024-10-02T13:35:39Z</time>
      </trkpt>
      <trkpt lat="49.39034" lon="0.20543">
        <ele>112.2</ele>
        <time>2024-10-02T13:35:40Z</time>
      </trkpt>
      <trkpt lat="49.39034" lon="0.20543">
        <ele>112.4</ele>
        <time>2024-10-02T13:35:41Z</time>
      </trkpt>
      <trkpt lat="49.39034" lon="0.20543">
        <ele>112.4</ele>
        <time>2024-10-02T13:35:42Z</time>
      </trkpt>
      <trkpt lat="49.39038" lon="0.20546">
        <ele>113</ele>
        <time>2024-10-02T13:35:50Z</time>
      </trkpt>
      <trkpt lat="49.3904" lon="0.20548">
        <ele>113.2</ele>
        <time>2024-10-02T13:35:51Z</time>
      </trkpt>
      <trkpt lat="49.39042" lon="0.2055">
        <ele>113.2</ele>
        <time>2024-10-02T13:35:52Z</time>
      </trkpt>
      <trkpt lat="49.39045" lon="0.20553">
        <ele>113.2</ele>
        <time>2024-10-02T13:35:53Z</time>
      </trkpt>
      <trkpt lat="49.39048" lon="0.20557">
        <ele>113.2</ele>
        <time>2024-10-02T13:35:54Z</time>
      </trkpt>
      <trkpt lat="49.39052" lon="0.2056">
        <ele>113.2</ele>
        <time>2024-10-02T13:35:55Z</time>
      </trkpt>
      <trkpt lat="49.39056" lon="0.20564">
        <ele>113.2</ele>
        <time>2024-10-02T13:35:56Z</time>
      </trkpt>
      <trkpt lat="49.39061" lon="0.20568">
        <ele>113.2</ele>
        <time>2024-10-02T13:35:57Z</time>
      </trkpt>
      <trkpt lat="49.39066" lon="0.20573">
        <ele>113.2</ele>
        <time>2024-10-02T13:35:58Z</time>
      </trkpt>
      <trkpt lat="49.39071" lon="0.20578">
        <ele>113.2</ele>
        <time>2024-10-02T13:35:59Z</time>
      </trkpt>
      <trkpt lat="49.39075" lon="0.20584">
        <ele>113.2</ele>
        <time>2024-10-02T13:36:00Z</time>
      </trkpt>
      <trkpt lat="49.3908" lon="0.20589">
        <ele>113</ele>
        <time>2024-10-02T13:36:01Z</time>
      </trkpt>
      <trkpt lat="49.39085" lon="0.20595">
        <ele>112.8</ele>
        <time>2024-10-02T13:36:02Z</time>
      </trkpt>
      <trkpt lat="49.39089" lon="0.206">
        <ele>112.8</ele>
        <time>2024-10-02T13:36:03Z</time>
      </trkpt>
      <trkpt lat="49.39094" lon="0.20605">
        <ele>112.4</ele>
        <time>2024-10-02T13:36:04Z</time>
      </trkpt>
      <trkpt lat="49.391" lon="0.20611">
        <ele>112.2</ele>
        <time>2024-10-02T13:36:05Z</time>
      </trkpt>
      <trkpt lat="49.39105" lon="0.20616">
        <ele>112</ele>
        <time>2024-10-02T13:36:06Z</time>
      </trkpt>
      <trkpt lat="49.3911" lon="0.20621">
        <ele>111.8</ele>
        <time>2024-10-02T13:36:07Z</time>
      </trkpt>
      <trkpt lat="49.39115" lon="0.20626">
        <ele>111.8</ele>
        <time>2024-10-02T13:36:08Z</time>
      </trkpt>
      <trkpt lat="49.39121" lon="0.20632">
        <ele>111.6</ele>
        <time>2024-10-02T13:36:09Z</time>
      </trkpt>
      <trkpt lat="49.39126" lon="0.20638">
        <ele>111.6</ele>
        <time>2024-10-02T13:36:10Z</time>
      </trkpt>
      <trkpt lat="49.39132" lon="0.20643">
        <ele>111.6</ele>
        <time>2024-10-02T13:36:11Z</time>
      </trkpt>
      <trkpt lat="49.39137" lon="0.20649">
        <ele>111.6</ele>
        <time>2024-10-02T13:36:12Z</time>
      </trkpt>
      <trkpt lat="49.39142" lon="0.20655">
        <ele>111.4</ele>
        <time>2024-10-02T13:36:13Z</time>
      </trkpt>
      <trkpt lat="49.39147" lon="0.20661">
        <ele>111.4</ele>
        <time>2024-10-02T13:36:14Z</time>
      </trkpt>
      <trkpt lat="49.39152" lon="0.20668">
        <ele>111.4</ele>
        <time>2024-10-02T13:36:15Z</time>
      </trkpt>
      <trkpt lat="49.39158" lon="0.20675">
        <ele>111.2</ele>
        <time>2024-10-02T13:36:16Z</time>
      </trkpt>
      <trkpt lat="49.39163" lon="0.20681">
        <ele>111</ele>
        <time>2024-10-02T13:36:17Z</time>
      </trkpt>
      <trkpt lat="49.39168" lon="0.20687">
        <ele>111</ele>
        <time>2024-10-02T13:36:18Z</time>
      </trkpt>
      <trkpt lat="49.39174" lon="0.20692">
        <ele>111</ele>
        <time>2024-10-02T13:36:19Z</time>
      </trkpt>
      <trkpt lat="49.39179" lon="0.20697">
        <ele>110.8</ele>
        <time>2024-10-02T13:36:20Z</time>
      </trkpt>
      <trkpt lat="49.39184" lon="0.20702">
        <ele>110.8</ele>
        <time>2024-10-02T13:36:21Z</time>
      </trkpt>
      <trkpt lat="49.39188" lon="0.20707">
        <ele>110.8</ele>
        <time>2024-10-02T13:36:22Z</time>
      </trkpt>
      <trkpt lat="49.39193" lon="0.20712">
        <ele>110.6</ele>
        <time>2024-10-02T13:36:23Z</time>
      </trkpt>
      <trkpt lat="49.39198" lon="0.20717">
        <ele>110.6</ele>
        <time>2024-10-02T13:36:24Z</time>
      </trkpt>
      <trkpt lat="49.39203" lon="0.20722">
        <ele>110.6</ele>
        <time>2024-10-02T13:36:25Z</time>
      </trkpt>
      <trkpt lat="49.39208" lon="0.20727">
        <ele>110.6</ele>
        <time>2024-10-02T13:36:26Z</time>
      </trkpt>
      <trkpt lat="49.39212" lon="0.20731">
        <ele>110.6</ele>
        <time>2024-10-02T13:36:27Z</time>
      </trkpt>
      <trkpt lat="49.39217" lon="0.20736">
        <ele>110.6</ele>
        <time>2024-10-02T13:36:28Z</time>
      </trkpt>
      <trkpt lat="49.39222" lon="0.20741">
        <ele>110.6</ele>
        <time>2024-10-02T13:36:29Z</time>
      </trkpt>
      <trkpt lat="49.39227" lon="0.20746">
        <ele>110.4</ele>
        <time>2024-10-02T13:36:30Z</time>
      </trkpt>
      <trkpt lat="49.39232" lon="0.20751">
        <ele>110.4</ele>
        <time>2024-10-02T13:36:31Z</time>
      </trkpt>
      <trkpt lat="49.39237" lon="0.20756">
        <ele>110.4</ele>
        <time>2024-10-02T13:36:32Z</time>
      </trkpt>
      <trkpt lat="49.39243" lon="0.20762">
        <ele>110.4</ele>
        <time>2024-10-02T13:36:33Z</time>
      </trkpt>
      <trkpt lat="49.39248" lon="0.20767">
        <ele>110.4</ele>
        <time>2024-10-02T13:36:34Z</time>
      </trkpt>
      <trkpt lat="49.39253" lon="0.20772">
        <ele>110.4</ele>
        <time>2024-10-02T13:36:35Z</time>
      </trkpt>
      <trkpt lat="49.39258" lon="0.20777">
        <ele>110.4</ele>
        <time>2024-10-02T13:36:36Z</time>
      </trkpt>
      <trkpt lat="49.39263" lon="0.20783">
        <ele>110.4</ele>
        <time>2024-10-02T13:36:37Z</time>
      </trkpt>
      <trkpt lat="49.39268" lon="0.20788">
        <ele>110.4</ele>
        <time>2024-10-02T13:36:38Z</time>
      </trkpt>
      <trkpt lat="49.39273" lon="0.20793">
        <ele>110.4</ele>
        <time>2024-10-02T13:36:39Z</time>
      </trkpt>
      <trkpt lat="49.39278" lon="0.20798">
        <ele>110.4</ele>
        <time>2024-10-02T13:36:40Z</time>
      </trkpt>
      <trkpt lat="49.39283" lon="0.20803">
        <ele>110.2</ele>
        <time>2024-10-02T13:36:41Z</time>
      </trkpt>
      <trkpt lat="49.39287" lon="0.20808">
        <ele>110.2</ele>
        <time>2024-10-02T13:36:42Z</time>
      </trkpt>
      <trkpt lat="49.39292" lon="0.20813">
        <ele>110.2</ele>
        <time>2024-10-02T13:36:43Z</time>
      </trkpt>
      <trkpt lat="49.39296" lon="0.20819">
        <ele>110</ele>
        <time>2024-10-02T13:36:44Z</time>
      </trkpt>
      <trkpt lat="49.39301" lon="0.20824">
        <ele>110</ele>
        <time>2024-10-02T13:36:45Z</time>
      </trkpt>
      <trkpt lat="49.39306" lon="0.20829">
        <ele>110</ele>
        <time>2024-10-02T13:36:46Z</time>
      </trkpt>
      <trkpt lat="49.39311" lon="0.20835">
        <ele>110</ele>
        <time>2024-10-02T13:36:47Z</time>
      </trkpt>
      <trkpt lat="49.39316" lon="0.2084">
        <ele>110</ele>
        <time>2024-10-02T13:36:48Z</time>
      </trkpt>
      <trkpt lat="49.39322" lon="0.20846">
        <ele>110</ele>
        <time>2024-10-02T13:36:49Z</time>
      </trkpt>
      <trkpt lat="49.39327" lon="0.20852">
        <ele>110</ele>
        <time>2024-10-02T13:36:50Z</time>
      </trkpt>
      <trkpt lat="49.39332" lon="0.20858">
        <ele>110</ele>
        <time>2024-10-02T13:36:51Z</time>
      </trkpt>
      <trkpt lat="49.39338" lon="0.20864">
        <ele>110</ele>
        <time>2024-10-02T13:36:52Z</time>
      </trkpt>
      <trkpt lat="49.39343" lon="0.20869">
        <ele>110</ele>
        <time>2024-10-02T13:36:53Z</time>
      </trkpt>
      <trkpt lat="49.39348" lon="0.20875">
        <ele>110</ele>
        <time>2024-10-02T13:36:54Z</time>
      </trkpt>
      <trkpt lat="49.39354" lon="0.20881">
        <ele>110</ele>
        <time>2024-10-02T13:36:55Z</time>
      </trkpt>
      <trkpt lat="49.39359" lon="0.20887">
        <ele>110</ele>
        <time>2024-10-02T13:36:56Z</time>
      </trkpt>
      <trkpt lat="49.39364" lon="0.20894">
        <ele>110</ele>
        <time>2024-10-02T13:36:57Z</time>
      </trkpt>
      <trkpt lat="49.3937" lon="0.209">
        <ele>110</ele>
        <time>2024-10-02T13:36:58Z</time>
      </trkpt>
      <trkpt lat="49.39376" lon="0.20907">
        <ele>110.2</ele>
        <time>2024-10-02T13:36:59Z</time>
      </trkpt>
      <trkpt lat="49.39382" lon="0.20913">
        <ele>110.2</ele>
        <time>2024-10-02T13:37:00Z</time>
      </trkpt>
      <trkpt lat="49.39388" lon="0.20919">
        <ele>110.2</ele>
        <time>2024-10-02T13:37:01Z</time>
      </trkpt>
      <trkpt lat="49.39394" lon="0.20925">
        <ele>110.2</ele>
        <time>2024-10-02T13:37:02Z</time>
      </trkpt>
      <trkpt lat="49.394" lon="0.20931">
        <ele>110.2</ele>
        <time>2024-10-02T13:37:03Z</time>
      </trkpt>
      <trkpt lat="49.39406" lon="0.20938">
        <ele>110.2</ele>
        <time>2024-10-02T13:37:04Z</time>
      </trkpt>
      <trkpt lat="49.39412" lon="0.20945">
        <ele>110.2</ele>
        <time>2024-10-02T13:37:05Z</time>
      </trkpt>
      <trkpt lat="49.39418" lon="0.20952">
        <ele>110.2</ele>
        <time>2024-10-02T13:37:06Z</time>
      </trkpt>
      <trkpt lat="49.39425" lon="0.20959">
        <ele>110.2</ele>
        <time>2024-10-02T13:37:07Z</time>
      </trkpt>
      <trkpt lat="49.39431" lon="0.20965">
        <ele>110.2</ele>
        <time>2024-10-02T13:37:08Z</time>
      </trkpt>
      <trkpt lat="49.39437" lon="0.20972">
        <ele>110.2</ele>
        <time>2024-10-02T13:37:09Z</time>
      </trkpt>
      <trkpt lat="49.39443" lon="0.20979">
        <ele>110.2</ele>
        <time>2024-10-02T13:37:10Z</time>
      </trkpt>
      <trkpt lat="49.3945" lon="0.20986">
        <ele>110.2</ele>
        <time>2024-10-02T13:37:11Z</time>
      </trkpt>
      <trkpt lat="49.39456" lon="0.20993">
        <ele>110</ele>
        <time>2024-10-02T13:37:12Z</time>
      </trkpt>
      <trkpt lat="49.39462" lon="0.20999">
        <ele>110</ele>
        <time>2024-10-02T13:37:13Z</time>
      </trkpt>
      <trkpt lat="49.39469" lon="0.21006">
        <ele>110</ele>
        <time>2024-10-02T13:37:14Z</time>
      </trkpt>
      <trkpt lat="49.39475" lon="0.21013">
        <ele>110</ele>
        <time>2024-10-02T13:37:15Z</time>
      </trkpt>
      <trkpt lat="49.39482" lon="0.2102">
        <ele>109.8</ele>
        <time>2024-10-02T13:37:16Z</time>
      </trkpt>
      <trkpt lat="49.39488" lon="0.21027">
        <ele>109.8</ele>
        <time>2024-10-02T13:37:17Z</time>
      </trkpt>
      <trkpt lat="49.39495" lon="0.21033">
        <ele>109.6</ele>
        <time>2024-10-02T13:37:18Z</time>
      </trkpt>
      <trkpt lat="49.39501" lon="0.2104">
        <ele>109.4</ele>
        <time>2024-10-02T13:37:19Z</time>
      </trkpt>
      <trkpt lat="49.39507" lon="0.21047">
        <ele>109.4</ele>
        <time>2024-10-02T13:37:20Z</time>
      </trkpt>
      <trkpt lat="49.39514" lon="0.21054">
        <ele>109.2</ele>
        <time>2024-10-02T13:37:21Z</time>
      </trkpt>
      <trkpt lat="49.3952" lon="0.21061">
        <ele>109.2</ele>
        <time>2024-10-02T13:37:22Z</time>
      </trkpt>
      <trkpt lat="49.39527" lon="0.21068">
        <ele>109.2</ele>
        <time>2024-10-02T13:37:23Z</time>
      </trkpt>
      <trkpt lat="49.39534" lon="0.21075">
        <ele>109</ele>
        <time>2024-10-02T13:37:24Z</time>
      </trkpt>
      <trkpt lat="49.3954" lon="0.21081">
        <ele>109</ele>
        <time>2024-10-02T13:37:25Z</time>
      </trkpt>
      <trkpt lat="49.39547" lon="0.21088">
        <ele>109</ele>
        <time>2024-10-02T13:37:26Z</time>
      </trkpt>
      <trkpt lat="49.39554" lon="0.21094">
        <ele>108.8</ele>
        <time>2024-10-02T13:37:27Z</time>
      </trkpt>
      <trkpt lat="49.3956" lon="0.21101">
        <ele>108.6</ele>
        <time>2024-10-02T13:37:28Z</time>
      </trkpt>
      <trkpt lat="49.39567" lon="0.21108">
        <ele>108.6</ele>
        <time>2024-10-02T13:37:29Z</time>
      </trkpt>
      <trkpt lat="49.39573" lon="0.21114">
        <ele>108.4</ele>
        <time>2024-10-02T13:37:30Z</time>
      </trkpt>
      <trkpt lat="49.39579" lon="0.21121">
        <ele>108.4</ele>
        <time>2024-10-02T13:37:31Z</time>
      </trkpt>
      <trkpt lat="49.39585" lon="0.21128">
        <ele>108.2</ele>
        <time>2024-10-02T13:37:32Z</time>
      </trkpt>
      <trkpt lat="49.39591" lon="0.21134">
        <ele>108.2</ele>
        <time>2024-10-02T13:37:33Z</time>
      </trkpt>
      <trkpt lat="49.39598" lon="0.21141">
        <ele>108.2</ele>
        <time>2024-10-02T13:37:34Z</time>
      </trkpt>
      <trkpt lat="49.39604" lon="0.21147">
        <ele>108.2</ele>
        <time>2024-10-02T13:37:35Z</time>
      </trkpt>
      <trkpt lat="49.39611" lon="0.21154">
        <ele>108</ele>
        <time>2024-10-02T13:37:36Z</time>
      </trkpt>
      <trkpt lat="49.39617" lon="0.21161">
        <ele>107.6</ele>
        <time>2024-10-02T13:37:37Z</time>
      </trkpt>
      <trkpt lat="49.39623" lon="0.21168">
        <ele>107.4</ele>
        <time>2024-10-02T13:37:38Z</time>
      </trkpt>
      <trkpt lat="49.39629" lon="0.21174">
        <ele>107.4</ele>
        <time>2024-10-02T13:37:39Z</time>
      </trkpt>
      <trkpt lat="49.39635" lon="0.2118">
        <ele>107.6</ele>
        <time>2024-10-02T13:37:40Z</time>
      </trkpt>
      <trkpt lat="49.39641" lon="0.21187">
        <ele>107.2</ele>
        <time>2024-10-02T13:37:41Z</time>
      </trkpt>
      <trkpt lat="49.39647" lon="0.21193">
        <ele>106.8</ele>
        <time>2024-10-02T13:37:42Z</time>
      </trkpt>
      <trkpt lat="49.39653" lon="0.21199">
        <ele>106.8</ele>
        <time>2024-10-02T13:37:43Z</time>
      </trkpt>
      <trkpt lat="49.39658" lon="0.21206">
        <ele>106.6</ele>
        <time>2024-10-02T13:37:44Z</time>
      </trkpt>
      <trkpt lat="49.39663" lon="0.21212">
        <ele>106.6</ele>
        <time>2024-10-02T13:37:45Z</time>
      </trkpt>
      <trkpt lat="49.39668" lon="0.21218">
        <ele>106.4</ele>
        <time>2024-10-02T13:37:46Z</time>
      </trkpt>
      <trkpt lat="49.39674" lon="0.21225">
        <ele>106.4</ele>
        <time>2024-10-02T13:37:47Z</time>
      </trkpt>
      <trkpt lat="49.39679" lon="0.21231">
        <ele>106.4</ele>
        <time>2024-10-02T13:37:48Z</time>
      </trkpt>
      <trkpt lat="49.39684" lon="0.21236">
        <ele>106.2</ele>
        <time>2024-10-02T13:37:49Z</time>
      </trkpt>
      <trkpt lat="49.39689" lon="0.21242">
        <ele>106.2</ele>
        <time>2024-10-02T13:37:50Z</time>
      </trkpt>
      <trkpt lat="49.39694" lon="0.21247">
        <ele>106</ele>
        <time>2024-10-02T13:37:51Z</time>
      </trkpt>
      <trkpt lat="49.39699" lon="0.21251">
        <ele>106</ele>
        <time>2024-10-02T13:37:52Z</time>
      </trkpt>
      <trkpt lat="49.39703" lon="0.21254">
        <ele>106</ele>
        <time>2024-10-02T13:37:53Z</time>
      </trkpt>
      <trkpt lat="49.39708" lon="0.21257">
        <ele>105.8</ele>
        <time>2024-10-02T13:37:54Z</time>
      </trkpt>
      <trkpt lat="49.39712" lon="0.21259">
        <ele>105.8</ele>
        <time>2024-10-02T13:37:55Z</time>
      </trkpt>
      <trkpt lat="49.39716" lon="0.2126">
        <ele>105.8</ele>
        <time>2024-10-02T13:37:56Z</time>
      </trkpt>
      <trkpt lat="49.3972" lon="0.21258">
        <ele>105.6</ele>
        <time>2024-10-02T13:37:57Z</time>
      </trkpt>
      <trkpt lat="49.39723" lon="0.21253">
        <ele>105.6</ele>
        <time>2024-10-02T13:37:58Z</time>
      </trkpt>
      <trkpt lat="49.39724" lon="0.21247">
        <ele>105.6</ele>
        <time>2024-10-02T13:37:59Z</time>
      </trkpt>
      <trkpt lat="49.39723" lon="0.21241">
        <ele>105.6</ele>
        <time>2024-10-02T13:38:00Z</time>
      </trkpt>
      <trkpt lat="49.39721" lon="0.21235">
        <ele>105.6</ele>
        <time>2024-10-02T13:38:01Z</time>
      </trkpt>
      <trkpt lat="49.39718" lon="0.2123">
        <ele>105.6</ele>
        <time>2024-10-02T13:38:02Z</time>
      </trkpt>
      <trkpt lat="49.39716" lon="0.21224">
        <ele>105.6</ele>
        <time>2024-10-02T13:38:03Z</time>
      </trkpt>
      <trkpt lat="49.39713" lon="0.21218">
        <ele>105.4</ele>
        <time>2024-10-02T13:38:04Z</time>
      </trkpt>
      <trkpt lat="49.39711" lon="0.21211">
        <ele>105.4</ele>
        <time>2024-10-02T13:38:05Z</time>
      </trkpt>
      <trkpt lat="49.39709" lon="0.21204">
        <ele>105.4</ele>
        <time>2024-10-02T13:38:06Z</time>
      </trkpt>
      <trkpt lat="49.39706" lon="0.21198">
        <ele>105.2</ele>
        <time>2024-10-02T13:38:07Z</time>
      </trkpt>
      <trkpt lat="49.39703" lon="0.21192">
        <ele>105.2</ele>
        <time>2024-10-02T13:38:08Z</time>
      </trkpt>
      <trkpt lat="49.397" lon="0.21185">
        <ele>105.4</ele>
        <time>2024-10-02T13:38:09Z</time>
      </trkpt>
      <trkpt lat="49.39697" lon="0.21178">
        <ele>105.4</ele>
        <time>2024-10-02T13:38:10Z</time>
      </trkpt>
      <trkpt lat="49.39695" lon="0.2117">
        <ele>105.4</ele>
        <time>2024-10-02T13:38:11Z</time>
      </trkpt>
      <trkpt lat="49.39692" lon="0.21162">
        <ele>105.6</ele>
        <time>2024-10-02T13:38:12Z</time>
      </trkpt>
      <trkpt lat="49.3969" lon="0.21154">
        <ele>105.6</ele>
        <time>2024-10-02T13:38:13Z</time>
      </trkpt>
      <trkpt lat="49.39688" lon="0.21146">
        <ele>105.6</ele>
        <time>2024-10-02T13:38:14Z</time>
      </trkpt>
      <trkpt lat="49.39687" lon="0.21137">
        <ele>105.6</ele>
        <time>2024-10-02T13:38:15Z</time>
      </trkpt>
      <trkpt lat="49.39685" lon="0.21128">
        <ele>105.6</ele>
        <time>2024-10-02T13:38:16Z</time>
      </trkpt>
      <trkpt lat="49.39683" lon="0.21118">
        <ele>105.6</ele>
        <time>2024-10-02T13:38:17Z</time>
      </trkpt>
      <trkpt lat="49.39681" lon="0.21109">
        <ele>105.8</ele>
        <time>2024-10-02T13:38:18Z</time>
      </trkpt>
      <trkpt lat="49.39679" lon="0.211">
        <ele>105.8</ele>
        <time>2024-10-02T13:38:19Z</time>
      </trkpt>
      <trkpt lat="49.39678" lon="0.2109">
        <ele>105.8</ele>
        <time>2024-10-02T13:38:20Z</time>
      </trkpt>
      <trkpt lat="49.39676" lon="0.2108">
        <ele>106.2</ele>
        <time>2024-10-02T13:38:21Z</time>
      </trkpt>
      <trkpt lat="49.39674" lon="0.2107">
        <ele>106.6</ele>
        <time>2024-10-02T13:38:22Z</time>
      </trkpt>
      <trkpt lat="49.39673" lon="0.2106">
        <ele>106.8</ele>
        <time>2024-10-02T13:38:23Z</time>
      </trkpt>
      <trkpt lat="49.39672" lon="0.2105">
        <ele>107</ele>
        <time>2024-10-02T13:38:24Z</time>
      </trkpt>
      <trkpt lat="49.39671" lon="0.2104">
        <ele>107.2</ele>
        <time>2024-10-02T13:38:25Z</time>
      </trkpt>
      <trkpt lat="49.39671" lon="0.2103">
        <ele>107.2</ele>
        <time>2024-10-02T13:38:26Z</time>
      </trkpt>
      <trkpt lat="49.39671" lon="0.2102">
        <ele>107.4</ele>
        <time>2024-10-02T13:38:27Z</time>
      </trkpt>
      <trkpt lat="49.3967" lon="0.21011">
        <ele>107.4</ele>
        <time>2024-10-02T13:38:28Z</time>
      </trkpt>
      <trkpt lat="49.3967" lon="0.21">
        <ele>107.4</ele>
        <time>2024-10-02T13:38:29Z</time>
      </trkpt>
      <trkpt lat="49.3967" lon="0.2099">
        <ele>107.6</ele>
        <time>2024-10-02T13:38:30Z</time>
      </trkpt>
      <trkpt lat="49.3967" lon="0.20979">
        <ele>107.8</ele>
        <time>2024-10-02T13:38:31Z</time>
      </trkpt>
      <trkpt lat="49.3967" lon="0.20969">
        <ele>107.8</ele>
        <time>2024-10-02T13:38:32Z</time>
      </trkpt>
      <trkpt lat="49.39671" lon="0.20958">
        <ele>108</ele>
        <time>2024-10-02T13:38:33Z</time>
      </trkpt>
      <trkpt lat="49.39672" lon="0.20947">
        <ele>108</ele>
        <time>2024-10-02T13:38:34Z</time>
      </trkpt>
      <trkpt lat="49.39673" lon="0.20936">
        <ele>108</ele>
        <time>2024-10-02T13:38:35Z</time>
      </trkpt>
      <trkpt lat="49.39674" lon="0.20926">
        <ele>108.2</ele>
        <time>2024-10-02T13:38:36Z</time>
      </trkpt>
      <trkpt lat="49.39675" lon="0.20915">
        <ele>108.4</ele>
        <time>2024-10-02T13:38:37Z</time>
      </trkpt>
      <trkpt lat="49.39676" lon="0.20904">
        <ele>108.4</ele>
        <time>2024-10-02T13:38:38Z</time>
      </trkpt>
      <trkpt lat="49.39677" lon="0.20893">
        <ele>108.6</ele>
        <time>2024-10-02T13:38:39Z</time>
      </trkpt>
      <trkpt lat="49.39679" lon="0.20882">
        <ele>108.8</ele>
        <time>2024-10-02T13:38:40Z</time>
      </trkpt>
      <trkpt lat="49.3968" lon="0.20871">
        <ele>108.8</ele>
        <time>2024-10-02T13:38:41Z</time>
      </trkpt>
      <trkpt lat="49.39682" lon="0.2086">
        <ele>108.8</ele>
        <time>2024-10-02T13:38:42Z</time>
      </trkpt>
      <trkpt lat="49.39683" lon="0.20849">
        <ele>109</ele>
        <time>2024-10-02T13:38:43Z</time>
      </trkpt>
      <trkpt lat="49.39685" lon="0.20837">
        <ele>109.2</ele>
        <time>2024-10-02T13:38:44Z</time>
      </trkpt>
      <trkpt lat="49.39686" lon="0.20826">
        <ele>109.2</ele>
        <time>2024-10-02T13:38:45Z</time>
      </trkpt>
      <trkpt lat="49.39688" lon="0.20813">
        <ele>109.4</ele>
        <time>2024-10-02T13:38:46Z</time>
      </trkpt>
      <trkpt lat="49.3969" lon="0.20802">
        <ele>109.6</ele>
        <time>2024-10-02T13:38:47Z</time>
      </trkpt>
      <trkpt lat="49.39691" lon="0.20794">
        <ele>110.2</ele>
        <time>2024-10-02T13:38:48Z</time>
      </trkpt>
      <trkpt lat="49.39692" lon="0.20783">
        <ele>110.6</ele>
        <time>2024-10-02T13:38:49Z</time>
      </trkpt>
      <trkpt lat="49.39694" lon="0.2077">
        <ele>111</ele>
        <time>2024-10-02T13:38:50Z</time>
      </trkpt>
      <trkpt lat="49.39695" lon="0.20761">
        <ele>111.2</ele>
        <time>2024-10-02T13:38:51Z</time>
      </trkpt>
      <trkpt lat="49.39696" lon="0.20749">
        <ele>111.2</ele>
        <time>2024-10-02T13:38:52Z</time>
      </trkpt>
      <trkpt lat="49.39698" lon="0.20741">
        <ele>111.4</ele>
        <time>2024-10-02T13:38:53Z</time>
      </trkpt>
      <trkpt lat="49.39699" lon="0.20731">
        <ele>111.6</ele>
        <time>2024-10-02T13:38:54Z</time>
      </trkpt>
      <trkpt lat="49.39701" lon="0.20719">
        <ele>111.8</ele>
        <time>2024-10-02T13:38:55Z</time>
      </trkpt>
      <trkpt lat="49.39702" lon="0.20709">
        <ele>111.8</ele>
        <time>2024-10-02T13:38:56Z</time>
      </trkpt>
      <trkpt lat="49.39703" lon="0.20701">
        <ele>111.8</ele>
        <time>2024-10-02T13:38:57Z</time>
      </trkpt>
      <trkpt lat="49.39704" lon="0.20689">
        <ele>112</ele>
        <time>2024-10-02T13:38:58Z</time>
      </trkpt>
      <trkpt lat="49.39705" lon="0.20682">
        <ele>112</ele>
        <time>2024-10-02T13:38:59Z</time>
      </trkpt>
      <trkpt lat="49.39706" lon="0.20672">
        <ele>112</ele>
        <time>2024-10-02T13:39:00Z</time>
      </trkpt>
      <trkpt lat="49.39706" lon="0.2066">
        <ele>112</ele>
        <time>2024-10-02T13:39:01Z</time>
      </trkpt>
      <trkpt lat="49.39707" lon="0.20651">
        <ele>112</ele>
        <time>2024-10-02T13:39:02Z</time>
      </trkpt>
      <trkpt lat="49.39708" lon="0.20641">
        <ele>112.2</ele>
        <time>2024-10-02T13:39:03Z</time>
      </trkpt>
      <trkpt lat="49.39709" lon="0.2063">
        <ele>112.2</ele>
        <time>2024-10-02T13:39:04Z</time>
      </trkpt>
      <trkpt lat="49.39709" lon="0.2062">
        <ele>112.2</ele>
        <time>2024-10-02T13:39:05Z</time>
      </trkpt>
      <trkpt lat="49.3971" lon="0.2061">
        <ele>112.2</ele>
        <time>2024-10-02T13:39:06Z</time>
      </trkpt>
      <trkpt lat="49.3971" lon="0.20599">
        <ele>112.2</ele>
        <time>2024-10-02T13:39:07Z</time>
      </trkpt>
      <trkpt lat="49.3971" lon="0.20587">
        <ele>112.4</ele>
        <time>2024-10-02T13:39:08Z</time>
      </trkpt>
      <trkpt lat="49.3971" lon="0.20579">
        <ele>112.4</ele>
        <time>2024-10-02T13:39:09Z</time>
      </trkpt>
      <trkpt lat="49.3971" lon="0.20567">
        <ele>112.4</ele>
        <time>2024-10-02T13:39:10Z</time>
      </trkpt>
      <trkpt lat="49.3971" lon="0.20558">
        <ele>112.4</ele>
        <time>2024-10-02T13:39:11Z</time>
      </trkpt>
      <trkpt lat="49.39709" lon="0.20548">
        <ele>112.4</ele>
        <time>2024-10-02T13:39:12Z</time>
      </trkpt>
      <trkpt lat="49.39709" lon="0.20538">
        <ele>112.4</ele>
        <time>2024-10-02T13:39:13Z</time>
      </trkpt>
      <trkpt lat="49.39708" lon="0.20525">
        <ele>112.4</ele>
        <time>2024-10-02T13:39:14Z</time>
      </trkpt>
      <trkpt lat="49.39708" lon="0.20517">
        <ele>112.4</ele>
        <time>2024-10-02T13:39:15Z</time>
      </trkpt>
      <trkpt lat="49.39707" lon="0.20506">
        <ele>112.6</ele>
        <time>2024-10-02T13:39:16Z</time>
      </trkpt>
      <trkpt lat="49.39706" lon="0.20496">
        <ele>112.6</ele>
        <time>2024-10-02T13:39:17Z</time>
      </trkpt>
      <trkpt lat="49.39705" lon="0.20485">
        <ele>112.6</ele>
        <time>2024-10-02T13:39:18Z</time>
      </trkpt>
      <trkpt lat="49.39704" lon="0.20473">
        <ele>112.6</ele>
        <time>2024-10-02T13:39:19Z</time>
      </trkpt>
      <trkpt lat="49.39703" lon="0.20462">
        <ele>112.6</ele>
        <time>2024-10-02T13:39:20Z</time>
      </trkpt>
      <trkpt lat="49.39703" lon="0.20454">
        <ele>112.6</ele>
        <time>2024-10-02T13:39:21Z</time>
      </trkpt>
      <trkpt lat="49.39702" lon="0.20443">
        <ele>112.8</ele>
        <time>2024-10-02T13:39:22Z</time>
      </trkpt>
      <trkpt lat="49.39701" lon="0.2043">
        <ele>112.8</ele>
        <time>2024-10-02T13:39:23Z</time>
      </trkpt>
      <trkpt lat="49.397" lon="0.20422">
        <ele>112.8</ele>
        <time>2024-10-02T13:39:24Z</time>
      </trkpt>
      <trkpt lat="49.39699" lon="0.20411">
        <ele>112.8</ele>
        <time>2024-10-02T13:39:25Z</time>
      </trkpt>
      <trkpt lat="49.39697" lon="0.204">
        <ele>112.8</ele>
        <time>2024-10-02T13:39:26Z</time>
      </trkpt>
      <trkpt lat="49.39697" lon="0.20389">
        <ele>112.8</ele>
        <time>2024-10-02T13:39:27Z</time>
      </trkpt>
      <trkpt lat="49.39695" lon="0.20376">
        <ele>112.8</ele>
        <time>2024-10-02T13:39:28Z</time>
      </trkpt>
      <trkpt lat="49.39695" lon="0.20367">
        <ele>113</ele>
        <time>2024-10-02T13:39:29Z</time>
      </trkpt>
      <trkpt lat="49.39693" lon="0.20356">
        <ele>113</ele>
        <time>2024-10-02T13:39:30Z</time>
      </trkpt>
      <trkpt lat="49.39692" lon="0.20342">
        <ele>113</ele>
        <time>2024-10-02T13:39:31Z</time>
      </trkpt>
      <trkpt lat="49.39691" lon="0.20331">
        <ele>113.2</ele>
        <time>2024-10-02T13:39:32Z</time>
      </trkpt>
      <trkpt lat="49.3969" lon="0.20321">
        <ele>113.4</ele>
        <time>2024-10-02T13:39:33Z</time>
      </trkpt>
      <trkpt lat="49.3969" lon="0.2031">
        <ele>113.6</ele>
        <time>2024-10-02T13:39:34Z</time>
      </trkpt>
      <trkpt lat="49.39689" lon="0.20296">
        <ele>113.6</ele>
        <time>2024-10-02T13:39:35Z</time>
      </trkpt>
      <trkpt lat="49.39688" lon="0.20284">
        <ele>113.6</ele>
        <time>2024-10-02T13:39:36Z</time>
      </trkpt>
      <trkpt lat="49.39687" lon="0.20272">
        <ele>113.8</ele>
        <time>2024-10-02T13:39:37Z</time>
      </trkpt>
      <trkpt lat="49.39686" lon="0.2026">
        <ele>113.8</ele>
        <time>2024-10-02T13:39:38Z</time>
      </trkpt>
      <trkpt lat="49.39686" lon="0.2025">
        <ele>113.8</ele>
        <time>2024-10-02T13:39:39Z</time>
      </trkpt>
      <trkpt lat="49.39687" lon="0.20235">
        <ele>113.8</ele>
        <time>2024-10-02T13:39:40Z</time>
      </trkpt>
      <trkpt lat="49.39689" lon="0.20223">
        <ele>113.8</ele>
        <time>2024-10-02T13:39:41Z</time>
      </trkpt>
      <trkpt lat="49.3969" lon="0.20213">
        <ele>114</ele>
        <time>2024-10-02T13:39:42Z</time>
      </trkpt>
      <trkpt lat="49.39693" lon="0.202">
        <ele>114</ele>
        <time>2024-10-02T13:39:43Z</time>
      </trkpt>
      <trkpt lat="49.39696" lon="0.20186">
        <ele>114</ele>
        <time>2024-10-02T13:39:44Z</time>
      </trkpt>
      <trkpt lat="49.39699" lon="0.20177">
        <ele>114</ele>
        <time>2024-10-02T13:39:45Z</time>
      </trkpt>
      <trkpt lat="49.39703" lon="0.20165">
        <ele>114</ele>
        <time>2024-10-02T13:39:46Z</time>
      </trkpt>
      <trkpt lat="49.39707" lon="0.20154">
        <ele>114</ele>
        <time>2024-10-02T13:39:47Z</time>
      </trkpt>
      <trkpt lat="49.39711" lon="0.20143">
        <ele>114</ele>
        <time>2024-10-02T13:39:48Z</time>
      </trkpt>
      <trkpt lat="49.39715" lon="0.2013">
        <ele>114</ele>
        <time>2024-10-02T13:39:49Z</time>
      </trkpt>
      <trkpt lat="49.39718" lon="0.20121">
        <ele>114</ele>
        <time>2024-10-02T13:39:50Z</time>
      </trkpt>
      <trkpt lat="49.39722" lon="0.20109">
        <ele>114</ele>
        <time>2024-10-02T13:39:51Z</time>
      </trkpt>
      <trkpt lat="49.39726" lon="0.20097">
        <ele>114</ele>
        <time>2024-10-02T13:39:52Z</time>
      </trkpt>
      <trkpt lat="49.3973" lon="0.20083">
        <ele>114</ele>
        <time>2024-10-02T13:39:53Z</time>
      </trkpt>
      <trkpt lat="49.39732" lon="0.20073">
        <ele>114</ele>
        <time>2024-10-02T13:39:54Z</time>
      </trkpt>
      <trkpt lat="49.39735" lon="0.2006">
        <ele>114</ele>
        <time>2024-10-02T13:39:55Z</time>
      </trkpt>
      <trkpt lat="49.39738" lon="0.20045">
        <ele>114</ele>
        <time>2024-10-02T13:39:56Z</time>
      </trkpt>
      <trkpt lat="49.39739" lon="0.20035">
        <ele>114</ele>
        <time>2024-10-02T13:39:57Z</time>
      </trkpt>
      <trkpt lat="49.39741" lon="0.2002">
        <ele>114</ele>
        <time>2024-10-02T13:39:58Z</time>
      </trkpt>
      <trkpt lat="49.39742" lon="0.20007">
        <ele>114</ele>
        <time>2024-10-02T13:39:59Z</time>
      </trkpt>
      <trkpt lat="49.39743" lon="0.19997">
        <ele>114</ele>
        <time>2024-10-02T13:40:00Z</time>
      </trkpt>
      <trkpt lat="49.39743" lon="0.19981">
        <ele>114</ele>
        <time>2024-10-02T13:40:01Z</time>
      </trkpt>
      <trkpt lat="49.39743" lon="0.19969">
        <ele>114</ele>
        <time>2024-10-02T13:40:02Z</time>
      </trkpt>
      <trkpt lat="49.39743" lon="0.19958">
        <ele>113.8</ele>
        <time>2024-10-02T13:40:03Z</time>
      </trkpt>
      <trkpt lat="49.39743" lon="0.19943">
        <ele>113.8</ele>
        <time>2024-10-02T13:40:04Z</time>
      </trkpt>
      <trkpt lat="49.39743" lon="0.19932">
        <ele>113.6</ele>
        <time>2024-10-02T13:40:05Z</time>
      </trkpt>
      <trkpt lat="49.39742" lon="0.1992">
        <ele>113.2</ele>
        <time>2024-10-02T13:40:06Z</time>
      </trkpt>
      <trkpt lat="49.39741" lon="0.19906">
        <ele>112.8</ele>
        <time>2024-10-02T13:40:07Z</time>
      </trkpt>
      <trkpt lat="49.3974" lon="0.19891">
        <ele>112.6</ele>
        <time>2024-10-02T13:40:08Z</time>
      </trkpt>
      <trkpt lat="49.39739" lon="0.1988">
        <ele>112.6</ele>
        <time>2024-10-02T13:40:09Z</time>
      </trkpt>
      <trkpt lat="49.39736" lon="0.19865">
        <ele>112.4</ele>
        <time>2024-10-02T13:40:10Z</time>
      </trkpt>
      <trkpt lat="49.39734" lon="0.19852">
        <ele>112.4</ele>
        <time>2024-10-02T13:40:11Z</time>
      </trkpt>
      <trkpt lat="49.39732" lon="0.19842">
        <ele>112.4</ele>
        <time>2024-10-02T13:40:12Z</time>
      </trkpt>
      <trkpt lat="49.39728" lon="0.19828">
        <ele>112.2</ele>
        <time>2024-10-02T13:40:13Z</time>
      </trkpt>
      <trkpt lat="49.39725" lon="0.19816">
        <ele>112.2</ele>
        <time>2024-10-02T13:40:14Z</time>
      </trkpt>
      <trkpt lat="49.39723" lon="0.19804">
        <ele>112.2</ele>
        <time>2024-10-02T13:40:15Z</time>
      </trkpt>
      <trkpt lat="49.3972" lon="0.19793">
        <ele>112</ele>
        <time>2024-10-02T13:40:16Z</time>
      </trkpt>
      <trkpt lat="49.39717" lon="0.19781">
        <ele>111.4</ele>
        <time>2024-10-02T13:40:17Z</time>
      </trkpt>
      <trkpt lat="49.39714" lon="0.1977">
        <ele>111</ele>
        <time>2024-10-02T13:40:18Z</time>
      </trkpt>
      <trkpt lat="49.39711" lon="0.1976">
        <ele>110.6</ele>
        <time>2024-10-02T13:40:19Z</time>
      </trkpt>
      <trkpt lat="49.39708" lon="0.19749">
        <ele>110.6</ele>
        <time>2024-10-02T13:40:20Z</time>
      </trkpt>
      <trkpt lat="49.39705" lon="0.19738">
        <ele>110.4</ele>
        <time>2024-10-02T13:40:21Z</time>
      </trkpt>
      <trkpt lat="49.39702" lon="0.19727">
        <ele>110.4</ele>
        <time>2024-10-02T13:40:22Z</time>
      </trkpt>
      <trkpt lat="49.39699" lon="0.19716">
        <ele>110.4</ele>
        <time>2024-10-02T13:40:23Z</time>
      </trkpt>
      <trkpt lat="49.39696" lon="0.19705">
        <ele>110.4</ele>
        <time>2024-10-02T13:40:24Z</time>
      </trkpt>
      <trkpt lat="49.39693" lon="0.19694">
        <ele>110.4</ele>
        <time>2024-10-02T13:40:25Z</time>
      </trkpt>
      <trkpt lat="49.3969" lon="0.19683">
        <ele>110.2</ele>
        <time>2024-10-02T13:40:26Z</time>
      </trkpt>
      <trkpt lat="49.39687" lon="0.19672">
        <ele>110.2</ele>
        <time>2024-10-02T13:40:27Z</time>
      </trkpt>
      <trkpt lat="49.39684" lon="0.19662">
        <ele>110</ele>
        <time>2024-10-02T13:40:28Z</time>
      </trkpt>
      <trkpt lat="49.39682" lon="0.19653">
        <ele>110</ele>
        <time>2024-10-02T13:40:29Z</time>
      </trkpt>
      <trkpt lat="49.39679" lon="0.19644">
        <ele>110</ele>
        <time>2024-10-02T13:40:30Z</time>
      </trkpt>
      <trkpt lat="49.39676" lon="0.19632">
        <ele>109.8</ele>
        <time>2024-10-02T13:40:31Z</time>
      </trkpt>
      <trkpt lat="49.39674" lon="0.19623">
        <ele>109.8</ele>
        <time>2024-10-02T13:40:32Z</time>
      </trkpt>
      <trkpt lat="49.39672" lon="0.19615">
        <ele>109.8</ele>
        <time>2024-10-02T13:40:33Z</time>
      </trkpt>
      <trkpt lat="49.39669" lon="0.19607">
        <ele>109.8</ele>
        <time>2024-10-02T13:40:34Z</time>
      </trkpt>
      <trkpt lat="49.39665" lon="0.19599">
        <ele>109.6</ele>
        <time>2024-10-02T13:40:35Z</time>
      </trkpt>
      <trkpt lat="49.39661" lon="0.19591">
        <ele>109.6</ele>
        <time>2024-10-02T13:40:36Z</time>
      </trkpt>
      <trkpt lat="49.39658" lon="0.19581">
        <ele>109.4</ele>
        <time>2024-10-02T13:40:37Z</time>
      </trkpt>
      <trkpt lat="49.39654" lon="0.1957">
        <ele>109.4</ele>
        <time>2024-10-02T13:40:38Z</time>
      </trkpt>
      <trkpt lat="49.39651" lon="0.19559">
        <ele>109.2</ele>
        <time>2024-10-02T13:40:39Z</time>
      </trkpt>
      <trkpt lat="49.39649" lon="0.19547">
        <ele>109.2</ele>
        <time>2024-10-02T13:40:40Z</time>
      </trkpt>
      <trkpt lat="49.39647" lon="0.19535">
        <ele>109.2</ele>
        <time>2024-10-02T13:40:41Z</time>
      </trkpt>
      <trkpt lat="49.39646" lon="0.19523">
        <ele>109</ele>
        <time>2024-10-02T13:40:42Z</time>
      </trkpt>
      <trkpt lat="49.39645" lon="0.19511">
        <ele>109</ele>
        <time>2024-10-02T13:40:43Z</time>
      </trkpt>
      <trkpt lat="49.39645" lon="0.19498">
        <ele>109</ele>
        <time>2024-10-02T13:40:44Z</time>
      </trkpt>
      <trkpt lat="49.39645" lon="0.19486">
        <ele>108.6</ele>
        <time>2024-10-02T13:40:45Z</time>
      </trkpt>
      <trkpt lat="49.39646" lon="0.19473">
        <ele>108.6</ele>
        <time>2024-10-02T13:40:46Z</time>
      </trkpt>
      <trkpt lat="49.39647" lon="0.19461">
        <ele>108.4</ele>
        <time>2024-10-02T13:40:47Z</time>
      </trkpt>
      <trkpt lat="49.39648" lon="0.1945">
        <ele>108.2</ele>
        <time>2024-10-02T13:40:48Z</time>
      </trkpt>
      <trkpt lat="49.39649" lon="0.1944">
        <ele>107.8</ele>
        <time>2024-10-02T13:40:49Z</time>
      </trkpt>
      <trkpt lat="49.39649" lon="0.19429">
        <ele>107.6</ele>
        <time>2024-10-02T13:40:50Z</time>
      </trkpt>
      <trkpt lat="49.39647" lon="0.19419">
        <ele>107.4</ele>
        <time>2024-10-02T13:40:51Z</time>
      </trkpt>
      <trkpt lat="49.39644" lon="0.19409">
        <ele>107</ele>
        <time>2024-10-02T13:40:52Z</time>
      </trkpt>
      <trkpt lat="49.3964" lon="0.194">
        <ele>106.6</ele>
        <time>2024-10-02T13:40:53Z</time>
      </trkpt>
      <trkpt lat="49.39633" lon="0.19394">
        <ele>106</ele>
        <time>2024-10-02T13:40:54Z</time>
      </trkpt>
      <trkpt lat="49.39625" lon="0.1939">
        <ele>105.6</ele>
        <time>2024-10-02T13:40:55Z</time>
      </trkpt>
      <trkpt lat="49.39616" lon="0.19387">
        <ele>105.2</ele>
        <time>2024-10-02T13:40:56Z</time>
      </trkpt>
      <trkpt lat="49.39607" lon="0.19385">
        <ele>105</ele>
        <time>2024-10-02T13:40:57Z</time>
      </trkpt>
      <trkpt lat="49.39598" lon="0.19385">
        <ele>104.6</ele>
        <time>2024-10-02T13:40:58Z</time>
      </trkpt>
      <trkpt lat="49.39588" lon="0.19385">
        <ele>104.2</ele>
        <time>2024-10-02T13:40:59Z</time>
      </trkpt>
      <trkpt lat="49.39579" lon="0.19387">
        <ele>103.6</ele>
        <time>2024-10-02T13:41:00Z</time>
      </trkpt>
      <trkpt lat="49.39569" lon="0.19391">
        <ele>103.4</ele>
        <time>2024-10-02T13:41:01Z</time>
      </trkpt>
      <trkpt lat="49.3956" lon="0.19396">
        <ele>102.8</ele>
        <time>2024-10-02T13:41:02Z</time>
      </trkpt>
      <trkpt lat="49.39548" lon="0.19403">
        <ele>102.2</ele>
        <time>2024-10-02T13:41:03Z</time>
      </trkpt>
      <trkpt lat="49.39538" lon="0.19409">
        <ele>101.4</ele>
        <time>2024-10-02T13:41:04Z</time>
      </trkpt>
      <trkpt lat="49.3953" lon="0.19415">
        <ele>100.8</ele>
        <time>2024-10-02T13:41:05Z</time>
      </trkpt>
      <trkpt lat="49.39519" lon="0.19422">
        <ele>100.8</ele>
        <time>2024-10-02T13:41:06Z</time>
      </trkpt>
      <trkpt lat="49.3951" lon="0.19426">
        <ele>100.2</ele>
        <time>2024-10-02T13:41:07Z</time>
      </trkpt>
      <trkpt lat="49.39502" lon="0.19429">
        <ele>99.6</ele>
        <time>2024-10-02T13:41:08Z</time>
      </trkpt>
      <trkpt lat="49.39493" lon="0.19429">
        <ele>98.8</ele>
        <time>2024-10-02T13:41:09Z</time>
      </trkpt>
      <trkpt lat="49.39484" lon="0.19427">
        <ele>97.6</ele>
        <time>2024-10-02T13:41:10Z</time>
      </trkpt>
      <trkpt lat="49.39477" lon="0.19423">
        <ele>96.8</ele>
        <time>2024-10-02T13:41:11Z</time>
      </trkpt>
      <trkpt lat="49.39468" lon="0.19416">
        <ele>95.6</ele>
        <time>2024-10-02T13:41:12Z</time>
      </trkpt>
      <trkpt lat="49.39461" lon="0.19409">
        <ele>95</ele>
        <time>2024-10-02T13:41:13Z</time>
      </trkpt>
      <trkpt lat="49.39451" lon="0.19398">
        <ele>94.2</ele>
        <time>2024-10-02T13:41:14Z</time>
      </trkpt>
      <trkpt lat="49.39442" lon="0.19388">
        <ele>93.2</ele>
        <time>2024-10-02T13:41:15Z</time>
      </trkpt>
      <trkpt lat="49.39432" lon="0.19377">
        <ele>92.6</ele>
        <time>2024-10-02T13:41:16Z</time>
      </trkpt>
      <trkpt lat="49.39423" lon="0.19367">
        <ele>91.8</ele>
        <time>2024-10-02T13:41:17Z</time>
      </trkpt>
      <trkpt lat="49.39413" lon="0.19356">
        <ele>90.6</ele>
        <time>2024-10-02T13:41:18Z</time>
      </trkpt>
      <trkpt lat="49.39403" lon="0.19345">
        <ele>89.8</ele>
        <time>2024-10-02T13:41:19Z</time>
      </trkpt>
      <trkpt lat="49.39392" lon="0.19336">
        <ele>88.8</ele>
        <time>2024-10-02T13:41:20Z</time>
      </trkpt>
      <trkpt lat="49.39381" lon="0.19328">
        <ele>87.6</ele>
        <time>2024-10-02T13:41:21Z</time>
      </trkpt>
      <trkpt lat="49.3937" lon="0.19318">
        <ele>86.6</ele>
        <time>2024-10-02T13:41:22Z</time>
      </trkpt>
      <trkpt lat="49.39358" lon="0.19309">
        <ele>85.8</ele>
        <time>2024-10-02T13:41:23Z</time>
      </trkpt>
      <trkpt lat="49.39347" lon="0.193">
        <ele>85</ele>
        <time>2024-10-02T13:41:24Z</time>
      </trkpt>
      <trkpt lat="49.39335" lon="0.1929">
        <ele>84</ele>
        <time>2024-10-02T13:41:25Z</time>
      </trkpt>
      <trkpt lat="49.39324" lon="0.1928">
        <ele>82.6</ele>
        <time>2024-10-02T13:41:26Z</time>
      </trkpt>
      <trkpt lat="49.39314" lon="0.19268">
        <ele>82.6</ele>
        <time>2024-10-02T13:41:27Z</time>
      </trkpt>
      <trkpt lat="49.39303" lon="0.19256">
        <ele>81.8</ele>
        <time>2024-10-02T13:41:28Z</time>
      </trkpt>
      <trkpt lat="49.39294" lon="0.19242">
        <ele>81</ele>
        <time>2024-10-02T13:41:29Z</time>
      </trkpt>
      <trkpt lat="49.39285" lon="0.19229">
        <ele>80</ele>
        <time>2024-10-02T13:41:30Z</time>
      </trkpt>
      <trkpt lat="49.39274" lon="0.19211">
        <ele>79.2</ele>
        <time>2024-10-02T13:41:31Z</time>
      </trkpt>
      <trkpt lat="49.39265" lon="0.19196">
        <ele>78</ele>
        <time>2024-10-02T13:41:32Z</time>
      </trkpt>
      <trkpt lat="49.39258" lon="0.19184">
        <ele>77</ele>
        <time>2024-10-02T13:41:33Z</time>
      </trkpt>
      <trkpt lat="49.39249" lon="0.1917">
        <ele>76</ele>
        <time>2024-10-02T13:41:34Z</time>
      </trkpt>
      <trkpt lat="49.39241" lon="0.19156">
        <ele>74.8</ele>
        <time>2024-10-02T13:41:35Z</time>
      </trkpt>
      <trkpt lat="49.39231" lon="0.19139">
        <ele>73.8</ele>
        <time>2024-10-02T13:41:36Z</time>
      </trkpt>
      <trkpt lat="49.39223" lon="0.19124">
        <ele>72.6</ele>
        <time>2024-10-02T13:41:37Z</time>
      </trkpt>
      <trkpt lat="49.39215" lon="0.1911">
        <ele>71.2</ele>
        <time>2024-10-02T13:41:38Z</time>
      </trkpt>
      <trkpt lat="49.39207" lon="0.19097">
        <ele>69.2</ele>
        <time>2024-10-02T13:41:39Z</time>
      </trkpt>
      <trkpt lat="49.39201" lon="0.19088">
        <ele>67.8</ele>
        <time>2024-10-02T13:41:40Z</time>
      </trkpt>
      <trkpt lat="49.39191" lon="0.19078">
        <ele>66.2</ele>
        <time>2024-10-02T13:41:41Z</time>
      </trkpt>
      <trkpt lat="49.3918" lon="0.19067">
        <ele>65.4</ele>
        <time>2024-10-02T13:41:42Z</time>
      </trkpt>
      <trkpt lat="49.39169" lon="0.19059">
        <ele>64.6</ele>
        <time>2024-10-02T13:41:43Z</time>
      </trkpt>
      <trkpt lat="49.39157" lon="0.19051">
        <ele>63.6</ele>
        <time>2024-10-02T13:41:44Z</time>
      </trkpt>
      <trkpt lat="49.39145" lon="0.19044">
        <ele>62.8</ele>
        <time>2024-10-02T13:41:45Z</time>
      </trkpt>
      <trkpt lat="49.39133" lon="0.19037">
        <ele>61.6</ele>
        <time>2024-10-02T13:41:46Z</time>
      </trkpt>
      <trkpt lat="49.39122" lon="0.1903">
        <ele>60.2</ele>
        <time>2024-10-02T13:41:47Z</time>
      </trkpt>
      <trkpt lat="49.3911" lon="0.19024">
        <ele>60.2</ele>
        <time>2024-10-02T13:41:48Z</time>
      </trkpt>
      <trkpt lat="49.39098" lon="0.19017">
        <ele>59.4</ele>
        <time>2024-10-02T13:41:49Z</time>
      </trkpt>
      <trkpt lat="49.39086" lon="0.1901">
        <ele>59</ele>
        <time>2024-10-02T13:41:50Z</time>
      </trkpt>
      <trkpt lat="49.39074" lon="0.19004">
        <ele>58.2</ele>
        <time>2024-10-02T13:41:51Z</time>
      </trkpt>
      <trkpt lat="49.39062" lon="0.18997">
        <ele>57.6</ele>
        <time>2024-10-02T13:41:52Z</time>
      </trkpt>
      <trkpt lat="49.39051" lon="0.1899">
        <ele>56.6</ele>
        <time>2024-10-02T13:41:53Z</time>
      </trkpt>
      <trkpt lat="49.3904" lon="0.18984">
        <ele>55.2</ele>
        <time>2024-10-02T13:41:54Z</time>
      </trkpt>
      <trkpt lat="49.3903" lon="0.18976">
        <ele>53.8</ele>
        <time>2024-10-02T13:41:55Z</time>
      </trkpt>
      <trkpt lat="49.3902" lon="0.18967">
        <ele>53</ele>
        <time>2024-10-02T13:41:56Z</time>
      </trkpt>
      <trkpt lat="49.39011" lon="0.18958">
        <ele>52</ele>
        <time>2024-10-02T13:41:57Z</time>
      </trkpt>
      <trkpt lat="49.39001" lon="0.18948">
        <ele>50.8</ele>
        <time>2024-10-02T13:41:58Z</time>
      </trkpt>
      <trkpt lat="49.38991" lon="0.18938">
        <ele>49.2</ele>
        <time>2024-10-02T13:41:59Z</time>
      </trkpt>
      <trkpt lat="49.38981" lon="0.1893">
        <ele>47.8</ele>
        <time>2024-10-02T13:42:00Z</time>
      </trkpt>
      <trkpt lat="49.38971" lon="0.18924">
        <ele>46.6</ele>
        <time>2024-10-02T13:42:01Z</time>
      </trkpt>
      <trkpt lat="49.3896" lon="0.1892">
        <ele>45.6</ele>
        <time>2024-10-02T13:42:02Z</time>
      </trkpt>
      <trkpt lat="49.38951" lon="0.18917">
        <ele>44.4</ele>
        <time>2024-10-02T13:42:03Z</time>
      </trkpt>
      <trkpt lat="49.38941" lon="0.18914">
        <ele>43.4</ele>
        <time>2024-10-02T13:42:04Z</time>
      </trkpt>
      <trkpt lat="49.38933" lon="0.18911">
        <ele>42.8</ele>
        <time>2024-10-02T13:42:05Z</time>
      </trkpt>
      <trkpt lat="49.38925" lon="0.18908">
        <ele>42.2</ele>
        <time>2024-10-02T13:42:06Z</time>
      </trkpt>
      <trkpt lat="49.38918" lon="0.18905">
        <ele>42.2</ele>
        <time>2024-10-02T13:42:07Z</time>
      </trkpt>
      <trkpt lat="49.38911" lon="0.18902">
        <ele>42</ele>
        <time>2024-10-02T13:42:08Z</time>
      </trkpt>
      <trkpt lat="49.38905" lon="0.18899">
        <ele>42</ele>
        <time>2024-10-02T13:42:09Z</time>
      </trkpt>
      <trkpt lat="49.38898" lon="0.18895">
        <ele>42</ele>
        <time>2024-10-02T13:42:10Z</time>
      </trkpt>
      <trkpt lat="49.38892" lon="0.18891">
        <ele>42</ele>
        <time>2024-10-02T13:42:11Z</time>
      </trkpt>
      <trkpt lat="49.38886" lon="0.18888">
        <ele>42</ele>
        <time>2024-10-02T13:42:12Z</time>
      </trkpt>
      <trkpt lat="49.38881" lon="0.18885">
        <ele>42</ele>
        <time>2024-10-02T13:42:13Z</time>
      </trkpt>
      <trkpt lat="49.38875" lon="0.18881">
        <ele>42</ele>
        <time>2024-10-02T13:42:14Z</time>
      </trkpt>
      <trkpt lat="49.38869" lon="0.18878">
        <ele>42</ele>
        <time>2024-10-02T13:42:15Z</time>
      </trkpt>
      <trkpt lat="49.38862" lon="0.18875">
        <ele>42.4</ele>
        <time>2024-10-02T13:42:16Z</time>
      </trkpt>
      <trkpt lat="49.38856" lon="0.18872">
        <ele>43.2</ele>
        <time>2024-10-02T13:42:17Z</time>
      </trkpt>
      <trkpt lat="49.38851" lon="0.18869">
        <ele>43.6</ele>
        <time>2024-10-02T13:42:18Z</time>
      </trkpt>
      <trkpt lat="49.38845" lon="0.18865">
        <ele>43.8</ele>
        <time>2024-10-02T13:42:19Z</time>
      </trkpt>
      <trkpt lat="49.38839" lon="0.18861">
        <ele>44.2</ele>
        <time>2024-10-02T13:42:20Z</time>
      </trkpt>
      <trkpt lat="49.38834" lon="0.18857">
        <ele>44.8</ele>
        <time>2024-10-02T13:42:21Z</time>
      </trkpt>
      <trkpt lat="49.38829" lon="0.18852">
        <ele>45.6</ele>
        <time>2024-10-02T13:42:22Z</time>
      </trkpt>
      <trkpt lat="49.38824" lon="0.18847">
        <ele>46.6</ele>
        <time>2024-10-02T13:42:23Z</time>
      </trkpt>
      <trkpt lat="49.3882" lon="0.18842">
        <ele>47.4</ele>
        <time>2024-10-02T13:42:24Z</time>
      </trkpt>
      <trkpt lat="49.38816" lon="0.18836">
        <ele>48</ele>
        <time>2024-10-02T13:42:25Z</time>
      </trkpt>
      <trkpt lat="49.38813" lon="0.18829">
        <ele>48.6</ele>
        <time>2024-10-02T13:42:26Z</time>
      </trkpt>
      <trkpt lat="49.38809" lon="0.18822">
        <ele>49</ele>
        <time>2024-10-02T13:42:27Z</time>
      </trkpt>
      <trkpt lat="49.38807" lon="0.18815">
        <ele>49.8</ele>
        <time>2024-10-02T13:42:28Z</time>
      </trkpt>
      <trkpt lat="49.38805" lon="0.18807">
        <ele>50.2</ele>
        <time>2024-10-02T13:42:29Z</time>
      </trkpt>
      <trkpt lat="49.38803" lon="0.188">
        <ele>50.2</ele>
        <time>2024-10-02T13:42:30Z</time>
      </trkpt>
      <trkpt lat="49.38802" lon="0.18791">
        <ele>50.6</ele>
        <time>2024-10-02T13:42:31Z</time>
      </trkpt>
      <trkpt lat="49.388" lon="0.18783">
        <ele>51</ele>
        <time>2024-10-02T13:42:32Z</time>
      </trkpt>
      <trkpt lat="49.38797" lon="0.18774">
        <ele>51.4</ele>
        <time>2024-10-02T13:42:33Z</time>
      </trkpt>
      <trkpt lat="49.38794" lon="0.18767">
        <ele>51.6</ele>
        <time>2024-10-02T13:42:34Z</time>
      </trkpt>
      <trkpt lat="49.3879" lon="0.18761">
        <ele>51.8</ele>
        <time>2024-10-02T13:42:35Z</time>
      </trkpt>
      <trkpt lat="49.38786" lon="0.18755">
        <ele>52</ele>
        <time>2024-10-02T13:42:36Z</time>
      </trkpt>
      <trkpt lat="49.38781" lon="0.18749">
        <ele>52.2</ele>
        <time>2024-10-02T13:42:37Z</time>
      </trkpt>
      <trkpt lat="49.38776" lon="0.18744">
        <ele>52.4</ele>
        <time>2024-10-02T13:42:38Z</time>
      </trkpt>
      <trkpt lat="49.38771" lon="0.1874">
        <ele>52.6</ele>
        <time>2024-10-02T13:42:39Z</time>
      </trkpt>
      <trkpt lat="49.38766" lon="0.18736">
        <ele>52.8</ele>
        <time>2024-10-02T13:42:40Z</time>
      </trkpt>
      <trkpt lat="49.38761" lon="0.18731">
        <ele>52.8</ele>
        <time>2024-10-02T13:42:41Z</time>
      </trkpt>
      <trkpt lat="49.38756" lon="0.18727">
        <ele>52.8</ele>
        <time>2024-10-02T13:42:42Z</time>
      </trkpt>
      <trkpt lat="49.38751" lon="0.18723">
        <ele>52.8</ele>
        <time>2024-10-02T13:42:43Z</time>
      </trkpt>
      <trkpt lat="49.38746" lon="0.1872">
        <ele>53</ele>
        <time>2024-10-02T13:42:44Z</time>
      </trkpt>
      <trkpt lat="49.38741" lon="0.18716">
        <ele>53</ele>
        <time>2024-10-02T13:42:45Z</time>
      </trkpt>
      <trkpt lat="49.38736" lon="0.18712">
        <ele>53</ele>
        <time>2024-10-02T13:42:46Z</time>
      </trkpt>
      <trkpt lat="49.38731" lon="0.18708">
        <ele>53</ele>
        <time>2024-10-02T13:42:47Z</time>
      </trkpt>
      <trkpt lat="49.38726" lon="0.18704">
        <ele>53.2</ele>
        <time>2024-10-02T13:42:48Z</time>
      </trkpt>
      <trkpt lat="49.38722" lon="0.187">
        <ele>53.2</ele>
        <time>2024-10-02T13:42:49Z</time>
      </trkpt>
      <trkpt lat="49.38717" lon="0.18696">
        <ele>53.4</ele>
        <time>2024-10-02T13:42:50Z</time>
      </trkpt>
      <trkpt lat="49.38712" lon="0.18693">
        <ele>53.4</ele>
        <time>2024-10-02T13:42:51Z</time>
      </trkpt>
      <trkpt lat="49.38708" lon="0.18689">
        <ele>53.6</ele>
        <time>2024-10-02T13:42:52Z</time>
      </trkpt>
      <trkpt lat="49.38703" lon="0.18684">
        <ele>53.6</ele>
        <time>2024-10-02T13:42:53Z</time>
      </trkpt>
      <trkpt lat="49.38699" lon="0.1868">
        <ele>53.8</ele>
        <time>2024-10-02T13:42:54Z</time>
      </trkpt>
      <trkpt lat="49.38694" lon="0.18676">
        <ele>54</ele>
        <time>2024-10-02T13:42:55Z</time>
      </trkpt>
      <trkpt lat="49.38689" lon="0.18672">
        <ele>54.4</ele>
        <time>2024-10-02T13:42:56Z</time>
      </trkpt>
      <trkpt lat="49.38685" lon="0.18668">
        <ele>54.8</ele>
        <time>2024-10-02T13:42:57Z</time>
      </trkpt>
      <trkpt lat="49.3868" lon="0.18663">
        <ele>55.2</ele>
        <time>2024-10-02T13:42:58Z</time>
      </trkpt>
      <trkpt lat="49.38675" lon="0.18659">
        <ele>55.4</ele>
        <time>2024-10-02T13:42:59Z</time>
      </trkpt>
      <trkpt lat="49.38671" lon="0.18654">
        <ele>55.6</ele>
        <time>2024-10-02T13:43:00Z</time>
      </trkpt>
      <trkpt lat="49.38666" lon="0.1865">
        <ele>55.8</ele>
        <time>2024-10-02T13:43:01Z</time>
      </trkpt>
      <trkpt lat="49.38661" lon="0.18645">
        <ele>56</ele>
        <time>2024-10-02T13:43:02Z</time>
      </trkpt>
      <trkpt lat="49.38657" lon="0.18642">
        <ele>56.2</ele>
        <time>2024-10-02T13:43:03Z</time>
      </trkpt>
      <trkpt lat="49.38652" lon="0.18638">
        <ele>56.4</ele>
        <time>2024-10-02T13:43:04Z</time>
      </trkpt>
      <trkpt lat="49.38648" lon="0.18634">
        <ele>56.4</ele>
        <time>2024-10-02T13:43:05Z</time>
      </trkpt>
      <trkpt lat="49.38643" lon="0.1863">
        <ele>56.6</ele>
        <time>2024-10-02T13:43:06Z</time>
      </trkpt>
      <trkpt lat="49.38639" lon="0.18625">
        <ele>56.6</ele>
        <time>2024-10-02T13:43:07Z</time>
      </trkpt>
      <trkpt lat="49.38634" lon="0.18621">
        <ele>56.8</ele>
        <time>2024-10-02T13:43:08Z</time>
      </trkpt>
      <trkpt lat="49.3863" lon="0.18617">
        <ele>57</ele>
        <time>2024-10-02T13:43:09Z</time>
      </trkpt>
      <trkpt lat="49.38625" lon="0.18613">
        <ele>57.2</ele>
        <time>2024-10-02T13:43:10Z</time>
      </trkpt>
      <trkpt lat="49.3862" lon="0.18609">
        <ele>57.6</ele>
        <time>2024-10-02T13:43:11Z</time>
      </trkpt>
      <trkpt lat="49.38615" lon="0.18605">
        <ele>57.6</ele>
        <time>2024-10-02T13:43:12Z</time>
      </trkpt>
      <trkpt lat="49.3861" lon="0.18601">
        <ele>58</ele>
        <time>2024-10-02T13:43:13Z</time>
      </trkpt>
      <trkpt lat="49.38605" lon="0.18597">
        <ele>58.2</ele>
        <time>2024-10-02T13:43:14Z</time>
      </trkpt>
      <trkpt lat="49.386" lon="0.18592">
        <ele>58.4</ele>
        <time>2024-10-02T13:43:15Z</time>
      </trkpt>
      <trkpt lat="49.38595" lon="0.18588">
        <ele>58.8</ele>
        <time>2024-10-02T13:43:16Z</time>
      </trkpt>
      <trkpt lat="49.3859" lon="0.18584">
        <ele>58.8</ele>
        <time>2024-10-02T13:43:17Z</time>
      </trkpt>
      <trkpt lat="49.38584" lon="0.1858">
        <ele>59</ele>
        <time>2024-10-02T13:43:18Z</time>
      </trkpt>
      <trkpt lat="49.38579" lon="0.18577">
        <ele>59.2</ele>
        <time>2024-10-02T13:43:19Z</time>
      </trkpt>
      <trkpt lat="49.38572" lon="0.18573">
        <ele>59.2</ele>
        <time>2024-10-02T13:43:20Z</time>
      </trkpt>
      <trkpt lat="49.38566" lon="0.1857">
        <ele>59.4</ele>
        <time>2024-10-02T13:43:21Z</time>
      </trkpt>
      <trkpt lat="49.3856" lon="0.18567">
        <ele>59.4</ele>
        <time>2024-10-02T13:43:22Z</time>
      </trkpt>
      <trkpt lat="49.38553" lon="0.18564">
        <ele>59.4</ele>
        <time>2024-10-02T13:43:23Z</time>
      </trkpt>
      <trkpt lat="49.38546" lon="0.18561">
        <ele>59.4</ele>
        <time>2024-10-02T13:43:24Z</time>
      </trkpt>
      <trkpt lat="49.38539" lon="0.18558">
        <ele>59.4</ele>
        <time>2024-10-02T13:43:25Z</time>
      </trkpt>
      <trkpt lat="49.38532" lon="0.18555">
        <ele>59.4</ele>
        <time>2024-10-02T13:43:26Z</time>
      </trkpt>
      <trkpt lat="49.38525" lon="0.18551">
        <ele>59.4</ele>
        <time>2024-10-02T13:43:27Z</time>
      </trkpt>
      <trkpt lat="49.38518" lon="0.18546">
        <ele>59.4</ele>
        <time>2024-10-02T13:43:28Z</time>
      </trkpt>
      <trkpt lat="49.38512" lon="0.1854">
        <ele>59.4</ele>
        <time>2024-10-02T13:43:29Z</time>
      </trkpt>
      <trkpt lat="49.38505" lon="0.18534">
        <ele>59.4</ele>
        <time>2024-10-02T13:43:30Z</time>
      </trkpt>
      <trkpt lat="49.38499" lon="0.18526">
        <ele>59.2</ele>
        <time>2024-10-02T13:43:31Z</time>
      </trkpt>
      <trkpt lat="49.38494" lon="0.18519">
        <ele>58.8</ele>
        <time>2024-10-02T13:43:32Z</time>
      </trkpt>
      <trkpt lat="49.38488" lon="0.18511">
        <ele>58.8</ele>
        <time>2024-10-02T13:43:33Z</time>
      </trkpt>
      <trkpt lat="49.38483" lon="0.18503">
        <ele>58.8</ele>
        <time>2024-10-02T13:43:34Z</time>
      </trkpt>
      <trkpt lat="49.38477" lon="0.18496">
        <ele>58.6</ele>
        <time>2024-10-02T13:43:35Z</time>
      </trkpt>
      <trkpt lat="49.38472" lon="0.18489">
        <ele>58.4</ele>
        <time>2024-10-02T13:43:36Z</time>
      </trkpt>
      <trkpt lat="49.38466" lon="0.18484">
        <ele>58.2</ele>
        <time>2024-10-02T13:43:37Z</time>
      </trkpt>
      <trkpt lat="49.3846" lon="0.1848">
        <ele>58</ele>
        <time>2024-10-02T13:43:38Z</time>
      </trkpt>
      <trkpt lat="49.38454" lon="0.18475">
        <ele>57.8</ele>
        <time>2024-10-02T13:43:39Z</time>
      </trkpt>
      <trkpt lat="49.38448" lon="0.18471">
        <ele>57.8</ele>
        <time>2024-10-02T13:43:40Z</time>
      </trkpt>
      <trkpt lat="49.38442" lon="0.18467">
        <ele>57.6</ele>
        <time>2024-10-02T13:43:41Z</time>
      </trkpt>
      <trkpt lat="49.38436" lon="0.18464">
        <ele>57.6</ele>
        <time>2024-10-02T13:43:42Z</time>
      </trkpt>
      <trkpt lat="49.3843" lon="0.18461">
        <ele>57.6</ele>
        <time>2024-10-02T13:43:43Z</time>
      </trkpt>
      <trkpt lat="49.38424" lon="0.18458">
        <ele>57.6</ele>
        <time>2024-10-02T13:43:44Z</time>
      </trkpt>
      <trkpt lat="49.38418" lon="0.18456">
        <ele>57.6</ele>
        <time>2024-10-02T13:43:45Z</time>
      </trkpt>
      <trkpt lat="49.38412" lon="0.18453">
        <ele>57.6</ele>
        <time>2024-10-02T13:43:46Z</time>
      </trkpt>
      <trkpt lat="49.38407" lon="0.1845">
        <ele>57.6</ele>
        <time>2024-10-02T13:43:47Z</time>
      </trkpt>
      <trkpt lat="49.38401" lon="0.18448">
        <ele>57.6</ele>
        <time>2024-10-02T13:43:48Z</time>
      </trkpt>
      <trkpt lat="49.38396" lon="0.18446">
        <ele>57.8</ele>
        <time>2024-10-02T13:43:49Z</time>
      </trkpt>
      <trkpt lat="49.3839" lon="0.18444">
        <ele>58</ele>
        <time>2024-10-02T13:43:50Z</time>
      </trkpt>
      <trkpt lat="49.38385" lon="0.18441">
        <ele>58.2</ele>
        <time>2024-10-02T13:43:51Z</time>
      </trkpt>
      <trkpt lat="49.3838" lon="0.18439">
        <ele>58.4</ele>
        <time>2024-10-02T13:43:52Z</time>
      </trkpt>
      <trkpt lat="49.38375" lon="0.18437">
        <ele>58.8</ele>
        <time>2024-10-02T13:43:53Z</time>
      </trkpt>
      <trkpt lat="49.3837" lon="0.18435">
        <ele>58.8</ele>
        <time>2024-10-02T13:43:54Z</time>
      </trkpt>
      <trkpt lat="49.38365" lon="0.18433">
        <ele>59.2</ele>
        <time>2024-10-02T13:43:55Z</time>
      </trkpt>
      <trkpt lat="49.38361" lon="0.1843">
        <ele>59.4</ele>
        <time>2024-10-02T13:43:56Z</time>
      </trkpt>
      <trkpt lat="49.38356" lon="0.18427">
        <ele>60</ele>
        <time>2024-10-02T13:43:57Z</time>
      </trkpt>
      <trkpt lat="49.38351" lon="0.18425">
        <ele>60.4</ele>
        <time>2024-10-02T13:43:58Z</time>
      </trkpt>
      <trkpt lat="49.38346" lon="0.18423">
        <ele>60.8</ele>
        <time>2024-10-02T13:43:59Z</time>
      </trkpt>
      <trkpt lat="49.38341" lon="0.1842">
        <ele>61.2</ele>
        <time>2024-10-02T13:44:00Z</time>
      </trkpt>
      <trkpt lat="49.38336" lon="0.18419">
        <ele>61.6</ele>
        <time>2024-10-02T13:44:01Z</time>
      </trkpt>
      <trkpt lat="49.38331" lon="0.18417">
        <ele>62</ele>
        <time>2024-10-02T13:44:02Z</time>
      </trkpt>
      <trkpt lat="49.38325" lon="0.18416">
        <ele>62.4</ele>
        <time>2024-10-02T13:44:03Z</time>
      </trkpt>
      <trkpt lat="49.38319" lon="0.18415">
        <ele>62.8</ele>
        <time>2024-10-02T13:44:04Z</time>
      </trkpt>
      <trkpt lat="49.38313" lon="0.18414">
        <ele>63.2</ele>
        <time>2024-10-02T13:44:05Z</time>
      </trkpt>
      <trkpt lat="49.38307" lon="0.18415">
        <ele>63.6</ele>
        <time>2024-10-02T13:44:06Z</time>
      </trkpt>
      <trkpt lat="49.38301" lon="0.18415">
        <ele>63.8</ele>
        <time>2024-10-02T13:44:07Z</time>
      </trkpt>
      <trkpt lat="49.38295" lon="0.18415">
        <ele>64.2</ele>
        <time>2024-10-02T13:44:08Z</time>
      </trkpt>
      <trkpt lat="49.38289" lon="0.18417">
        <ele>64.4</ele>
        <time>2024-10-02T13:44:09Z</time>
      </trkpt>
      <trkpt lat="49.38283" lon="0.18418">
        <ele>64.6</ele>
        <time>2024-10-02T13:44:10Z</time>
      </trkpt>
      <trkpt lat="49.38278" lon="0.1842">
        <ele>64.8</ele>
        <time>2024-10-02T13:44:11Z</time>
      </trkpt>
      <trkpt lat="49.3827" lon="0.18422">
        <ele>64.8</ele>
        <time>2024-10-02T13:44:12Z</time>
      </trkpt>
      <trkpt lat="49.38264" lon="0.18423">
        <ele>64.8</ele>
        <time>2024-10-02T13:44:13Z</time>
      </trkpt>
      <trkpt lat="49.38258" lon="0.18424">
        <ele>64.8</ele>
        <time>2024-10-02T13:44:14Z</time>
      </trkpt>
      <trkpt lat="49.38252" lon="0.18425">
        <ele>64.8</ele>
        <time>2024-10-02T13:44:15Z</time>
      </trkpt>
      <trkpt lat="49.38246" lon="0.18426">
        <ele>64.8</ele>
        <time>2024-10-02T13:44:16Z</time>
      </trkpt>
      <trkpt lat="49.3824" lon="0.18427">
        <ele>64.8</ele>
        <time>2024-10-02T13:44:17Z</time>
      </trkpt>
      <trkpt lat="49.38233" lon="0.18428">
        <ele>64.8</ele>
        <time>2024-10-02T13:44:18Z</time>
      </trkpt>
      <trkpt lat="49.38227" lon="0.1843">
        <ele>64.8</ele>
        <time>2024-10-02T13:44:19Z</time>
      </trkpt>
      <trkpt lat="49.3822" lon="0.18431">
        <ele>64.8</ele>
        <time>2024-10-02T13:44:20Z</time>
      </trkpt>
      <trkpt lat="49.38214" lon="0.18433">
        <ele>64.8</ele>
        <time>2024-10-02T13:44:21Z</time>
      </trkpt>
      <trkpt lat="49.38207" lon="0.18435">
        <ele>64.8</ele>
        <time>2024-10-02T13:44:22Z</time>
      </trkpt>
      <trkpt lat="49.38201" lon="0.18436">
        <ele>64.8</ele>
        <time>2024-10-02T13:44:23Z</time>
      </trkpt>
      <trkpt lat="49.38194" lon="0.18439">
        <ele>64.8</ele>
        <time>2024-10-02T13:44:24Z</time>
      </trkpt>
      <trkpt lat="49.38187" lon="0.18441">
        <ele>64.8</ele>
        <time>2024-10-02T13:44:25Z</time>
      </trkpt>
      <trkpt lat="49.3818" lon="0.18444">
        <ele>64.8</ele>
        <time>2024-10-02T13:44:26Z</time>
      </trkpt>
      <trkpt lat="49.38174" lon="0.18446">
        <ele>64.8</ele>
        <time>2024-10-02T13:44:27Z</time>
      </trkpt>
      <trkpt lat="49.38167" lon="0.18449">
        <ele>64.8</ele>
        <time>2024-10-02T13:44:28Z</time>
      </trkpt>
      <trkpt lat="49.38161" lon="0.18452">
        <ele>64.8</ele>
        <time>2024-10-02T13:44:29Z</time>
      </trkpt>
      <trkpt lat="49.38155" lon="0.18455">
        <ele>64.8</ele>
        <time>2024-10-02T13:44:30Z</time>
      </trkpt>
      <trkpt lat="49.38148" lon="0.18458">
        <ele>64.8</ele>
        <time>2024-10-02T13:44:31Z</time>
      </trkpt>
      <trkpt lat="49.38142" lon="0.18461">
        <ele>64.8</ele>
        <time>2024-10-02T13:44:32Z</time>
      </trkpt>
      <trkpt lat="49.38135" lon="0.18464">
        <ele>65</ele>
        <time>2024-10-02T13:44:33Z</time>
      </trkpt>
      <trkpt lat="49.38129" lon="0.18467">
        <ele>65</ele>
        <time>2024-10-02T13:44:34Z</time>
      </trkpt>
      <trkpt lat="49.38122" lon="0.1847">
        <ele>65</ele>
        <time>2024-10-02T13:44:35Z</time>
      </trkpt>
      <trkpt lat="49.38117" lon="0.18472">
        <ele>65</ele>
        <time>2024-10-02T13:44:36Z</time>
      </trkpt>
      <trkpt lat="49.38108" lon="0.18475">
        <ele>65</ele>
        <time>2024-10-02T13:44:37Z</time>
      </trkpt>
      <trkpt lat="49.38102" lon="0.18477">
        <ele>65</ele>
        <time>2024-10-02T13:44:38Z</time>
      </trkpt>
      <trkpt lat="49.38096" lon="0.18477">
        <ele>65</ele>
        <time>2024-10-02T13:44:39Z</time>
      </trkpt>
      <trkpt lat="49.3809" lon="0.18478">
        <ele>65</ele>
        <time>2024-10-02T13:44:40Z</time>
      </trkpt>
      <trkpt lat="49.38083" lon="0.18479">
        <ele>65.2</ele>
        <time>2024-10-02T13:44:41Z</time>
      </trkpt>
      <trkpt lat="49.38077" lon="0.18479">
        <ele>65</ele>
        <time>2024-10-02T13:44:42Z</time>
      </trkpt>
      <trkpt lat="49.38071" lon="0.1848">
        <ele>65.2</ele>
        <time>2024-10-02T13:44:43Z</time>
      </trkpt>
      <trkpt lat="49.38065" lon="0.18481">
        <ele>65.2</ele>
        <time>2024-10-02T13:44:44Z</time>
      </trkpt>
      <trkpt lat="49.3806" lon="0.18483">
        <ele>65.2</ele>
        <time>2024-10-02T13:44:45Z</time>
      </trkpt>
      <trkpt lat="49.38053" lon="0.18485">
        <ele>65.2</ele>
        <time>2024-10-02T13:44:46Z</time>
      </trkpt>
      <trkpt lat="49.38046" lon="0.18487">
        <ele>65.4</ele>
        <time>2024-10-02T13:44:47Z</time>
      </trkpt>
      <trkpt lat="49.38037" lon="0.1849">
        <ele>65.4</ele>
        <time>2024-10-02T13:44:48Z</time>
      </trkpt>
      <trkpt lat="49.38029" lon="0.18493">
        <ele>65.4</ele>
        <time>2024-10-02T13:44:49Z</time>
      </trkpt>
      <trkpt lat="49.38021" lon="0.18495">
        <ele>65.4</ele>
        <time>2024-10-02T13:44:50Z</time>
      </trkpt>
      <trkpt lat="49.38015" lon="0.18497">
        <ele>65.4</ele>
        <time>2024-10-02T13:44:51Z</time>
      </trkpt>
      <trkpt lat="49.38005" lon="0.18499">
        <ele>65.4</ele>
        <time>2024-10-02T13:44:52Z</time>
      </trkpt>
      <trkpt lat="49.37998" lon="0.18501">
        <ele>65.4</ele>
        <time>2024-10-02T13:44:53Z</time>
      </trkpt>
      <trkpt lat="49.37989" lon="0.18504">
        <ele>65.4</ele>
        <time>2024-10-02T13:44:54Z</time>
      </trkpt>
      <trkpt lat="49.3798" lon="0.18507">
        <ele>65.4</ele>
        <time>2024-10-02T13:44:55Z</time>
      </trkpt>
      <trkpt lat="49.37972" lon="0.18509">
        <ele>65.4</ele>
        <time>2024-10-02T13:44:56Z</time>
      </trkpt>
      <trkpt lat="49.37964" lon="0.18511">
        <ele>65.4</ele>
        <time>2024-10-02T13:44:57Z</time>
      </trkpt>
      <trkpt lat="49.37956" lon="0.18513">
        <ele>65.4</ele>
        <time>2024-10-02T13:44:58Z</time>
      </trkpt>
      <trkpt lat="49.37948" lon="0.18515">
        <ele>65.4</ele>
        <time>2024-10-02T13:44:59Z</time>
      </trkpt>
      <trkpt lat="49.3794" lon="0.18517">
        <ele>65.4</ele>
        <time>2024-10-02T13:45:00Z</time>
      </trkpt>
      <trkpt lat="49.37933" lon="0.18519">
        <ele>65.4</ele>
        <time>2024-10-02T13:45:01Z</time>
      </trkpt>
      <trkpt lat="49.37926" lon="0.18522">
        <ele>65.4</ele>
        <time>2024-10-02T13:45:02Z</time>
      </trkpt>
      <trkpt lat="49.37919" lon="0.18523">
        <ele>65</ele>
        <time>2024-10-02T13:45:03Z</time>
      </trkpt>
      <trkpt lat="49.37912" lon="0.18524">
        <ele>64.8</ele>
        <time>2024-10-02T13:45:04Z</time>
      </trkpt>
      <trkpt lat="49.37905" lon="0.18525">
        <ele>64.8</ele>
        <time>2024-10-02T13:45:05Z</time>
      </trkpt>
      <trkpt lat="49.37899" lon="0.18526">
        <ele>64.8</ele>
        <time>2024-10-02T13:45:06Z</time>
      </trkpt>
      <trkpt lat="49.37893" lon="0.18527">
        <ele>64.8</ele>
        <time>2024-10-02T13:45:07Z</time>
      </trkpt>
      <trkpt lat="49.37887" lon="0.18527">
        <ele>64.8</ele>
        <time>2024-10-02T13:45:08Z</time>
      </trkpt>
      <trkpt lat="49.37881" lon="0.18528">
        <ele>64.6</ele>
        <time>2024-10-02T13:45:09Z</time>
      </trkpt>
      <trkpt lat="49.37875" lon="0.18529">
        <ele>64.6</ele>
        <time>2024-10-02T13:45:10Z</time>
      </trkpt>
      <trkpt lat="49.37868" lon="0.1853">
        <ele>64.6</ele>
        <time>2024-10-02T13:45:11Z</time>
      </trkpt>
      <trkpt lat="49.37862" lon="0.1853">
        <ele>64.6</ele>
        <time>2024-10-02T13:45:12Z</time>
      </trkpt>
      <trkpt lat="49.37856" lon="0.1853">
        <ele>64.8</ele>
        <time>2024-10-02T13:45:13Z</time>
      </trkpt>
      <trkpt lat="49.37849" lon="0.1853">
        <ele>65.2</ele>
        <time>2024-10-02T13:45:14Z</time>
      </trkpt>
      <trkpt lat="49.37842" lon="0.1853">
        <ele>65.6</ele>
        <time>2024-10-02T13:45:15Z</time>
      </trkpt>
      <trkpt lat="49.37837" lon="0.1853">
        <ele>66</ele>
        <time>2024-10-02T13:45:16Z</time>
      </trkpt>
      <trkpt lat="49.37831" lon="0.1853">
        <ele>66.4</ele>
        <time>2024-10-02T13:45:17Z</time>
      </trkpt>
      <trkpt lat="49.37825" lon="0.1853">
        <ele>67</ele>
        <time>2024-10-02T13:45:18Z</time>
      </trkpt>
      <trkpt lat="49.37819" lon="0.1853">
        <ele>67.2</ele>
        <time>2024-10-02T13:45:19Z</time>
      </trkpt>
      <trkpt lat="49.37813" lon="0.18529">
        <ele>67.2</ele>
        <time>2024-10-02T13:45:20Z</time>
      </trkpt>
      <trkpt lat="49.37806" lon="0.18528">
        <ele>67.6</ele>
        <time>2024-10-02T13:45:21Z</time>
      </trkpt>
      <trkpt lat="49.37801" lon="0.18527">
        <ele>67.6</ele>
        <time>2024-10-02T13:45:22Z</time>
      </trkpt>
      <trkpt lat="49.37794" lon="0.18526">
        <ele>68</ele>
        <time>2024-10-02T13:45:23Z</time>
      </trkpt>
      <trkpt lat="49.37788" lon="0.18525">
        <ele>68</ele>
        <time>2024-10-02T13:45:24Z</time>
      </trkpt>
      <trkpt lat="49.37782" lon="0.18524">
        <ele>68.4</ele>
        <time>2024-10-02T13:45:25Z</time>
      </trkpt>
      <trkpt lat="49.37777" lon="0.18522">
        <ele>68.6</ele>
        <time>2024-10-02T13:45:26Z</time>
      </trkpt>
      <trkpt lat="49.37771" lon="0.1852">
        <ele>68.8</ele>
        <time>2024-10-02T13:45:27Z</time>
      </trkpt>
      <trkpt lat="49.37765" lon="0.18519">
        <ele>69</ele>
        <time>2024-10-02T13:45:28Z</time>
      </trkpt>
      <trkpt lat="49.37759" lon="0.18518">
        <ele>69.4</ele>
        <time>2024-10-02T13:45:29Z</time>
      </trkpt>
      <trkpt lat="49.37753" lon="0.18517">
        <ele>69.6</ele>
        <time>2024-10-02T13:45:30Z</time>
      </trkpt>
      <trkpt lat="49.37747" lon="0.18515">
        <ele>69.8</ele>
        <time>2024-10-02T13:45:31Z</time>
      </trkpt>
      <trkpt lat="49.37741" lon="0.18514">
        <ele>70.2</ele>
        <time>2024-10-02T13:45:32Z</time>
      </trkpt>
      <trkpt lat="49.37736" lon="0.18512">
        <ele>70.4</ele>
        <time>2024-10-02T13:45:33Z</time>
      </trkpt>
      <trkpt lat="49.37728" lon="0.18509">
        <ele>70.8</ele>
        <time>2024-10-02T13:45:34Z</time>
      </trkpt>
      <trkpt lat="49.37724" lon="0.18507">
        <ele>71</ele>
        <time>2024-10-02T13:45:35Z</time>
      </trkpt>
      <trkpt lat="49.37716" lon="0.18505">
        <ele>71.2</ele>
        <time>2024-10-02T13:45:36Z</time>
      </trkpt>
      <trkpt lat="49.37711" lon="0.18502">
        <ele>71.4</ele>
        <time>2024-10-02T13:45:37Z</time>
      </trkpt>
      <trkpt lat="49.37706" lon="0.185">
        <ele>71.8</ele>
        <time>2024-10-02T13:45:38Z</time>
      </trkpt>
      <trkpt lat="49.377" lon="0.18495">
        <ele>72.2</ele>
        <time>2024-10-02T13:45:39Z</time>
      </trkpt>
      <trkpt lat="49.37696" lon="0.18492">
        <ele>72.6</ele>
        <time>2024-10-02T13:45:40Z</time>
      </trkpt>
      <trkpt lat="49.37691" lon="0.18488">
        <ele>72.6</ele>
        <time>2024-10-02T13:45:41Z</time>
      </trkpt>
      <trkpt lat="49.37686" lon="0.18483">
        <ele>73</ele>
        <time>2024-10-02T13:45:42Z</time>
      </trkpt>
      <trkpt lat="49.37682" lon="0.18478">
        <ele>73.2</ele>
        <time>2024-10-02T13:45:43Z</time>
      </trkpt>
      <trkpt lat="49.37677" lon="0.18473">
        <ele>73.6</ele>
        <time>2024-10-02T13:45:44Z</time>
      </trkpt>
      <trkpt lat="49.37673" lon="0.18469">
        <ele>73.6</ele>
        <time>2024-10-02T13:45:45Z</time>
      </trkpt>
      <trkpt lat="49.3767" lon="0.18464">
        <ele>73.8</ele>
        <time>2024-10-02T13:45:46Z</time>
      </trkpt>
      <trkpt lat="49.37665" lon="0.18457">
        <ele>74.4</ele>
        <time>2024-10-02T13:45:47Z</time>
      </trkpt>
      <trkpt lat="49.37661" lon="0.18452">
        <ele>74.6</ele>
        <time>2024-10-02T13:45:48Z</time>
      </trkpt>
      <trkpt lat="49.37657" lon="0.18447">
        <ele>75</ele>
        <time>2024-10-02T13:45:49Z</time>
      </trkpt>
      <trkpt lat="49.37653" lon="0.18442">
        <ele>75</ele>
        <time>2024-10-02T13:45:50Z</time>
      </trkpt>
      <trkpt lat="49.37648" lon="0.18437">
        <ele>75.2</ele>
        <time>2024-10-02T13:45:51Z</time>
      </trkpt>
      <trkpt lat="49.37643" lon="0.18432">
        <ele>75.4</ele>
        <time>2024-10-02T13:45:52Z</time>
      </trkpt>
      <trkpt lat="49.37639" lon="0.18427">
        <ele>75.8</ele>
        <time>2024-10-02T13:45:53Z</time>
      </trkpt>
      <trkpt lat="49.37636" lon="0.18422">
        <ele>76.2</ele>
        <time>2024-10-02T13:45:54Z</time>
      </trkpt>
      <trkpt lat="49.37632" lon="0.18416">
        <ele>76.4</ele>
        <time>2024-10-02T13:45:55Z</time>
      </trkpt>
      <trkpt lat="49.37627" lon="0.1841">
        <ele>76.6</ele>
        <time>2024-10-02T13:45:56Z</time>
      </trkpt>
      <trkpt lat="49.37623" lon="0.18405">
        <ele>76.8</ele>
        <time>2024-10-02T13:45:57Z</time>
      </trkpt>
      <trkpt lat="49.37619" lon="0.18399">
        <ele>77</ele>
        <time>2024-10-02T13:45:58Z</time>
      </trkpt>
      <trkpt lat="49.37614" lon="0.18391">
        <ele>77.2</ele>
        <time>2024-10-02T13:45:59Z</time>
      </trkpt>
      <trkpt lat="49.3761" lon="0.18387">
        <ele>77.4</ele>
        <time>2024-10-02T13:46:00Z</time>
      </trkpt>
      <trkpt lat="49.37606" lon="0.18381">
        <ele>77.6</ele>
        <time>2024-10-02T13:46:01Z</time>
      </trkpt>
      <trkpt lat="49.37601" lon="0.18375">
        <ele>77.6</ele>
        <time>2024-10-02T13:46:02Z</time>
      </trkpt>
      <trkpt lat="49.37598" lon="0.18369">
        <ele>77.8</ele>
        <time>2024-10-02T13:46:03Z</time>
      </trkpt>
      <trkpt lat="49.37593" lon="0.18363">
        <ele>77.6</ele>
        <time>2024-10-02T13:46:04Z</time>
      </trkpt>
      <trkpt lat="49.37589" lon="0.18356">
        <ele>77.8</ele>
        <time>2024-10-02T13:46:05Z</time>
      </trkpt>
      <trkpt lat="49.37585" lon="0.18349">
        <ele>78</ele>
        <time>2024-10-02T13:46:06Z</time>
      </trkpt>
      <trkpt lat="49.3758" lon="0.18343">
        <ele>78.2</ele>
        <time>2024-10-02T13:46:07Z</time>
      </trkpt>
      <trkpt lat="49.37575" lon="0.18337">
        <ele>78.4</ele>
        <time>2024-10-02T13:46:08Z</time>
      </trkpt>
      <trkpt lat="49.3757" lon="0.18332">
        <ele>78.6</ele>
        <time>2024-10-02T13:46:09Z</time>
      </trkpt>
      <trkpt lat="49.37565" lon="0.18327">
        <ele>78.8</ele>
        <time>2024-10-02T13:46:10Z</time>
      </trkpt>
      <trkpt lat="49.3756" lon="0.18321">
        <ele>79</ele>
        <time>2024-10-02T13:46:11Z</time>
      </trkpt>
      <trkpt lat="49.37556" lon="0.18315">
        <ele>79.2</ele>
        <time>2024-10-02T13:46:12Z</time>
      </trkpt>
      <trkpt lat="49.37552" lon="0.1831">
        <ele>79.4</ele>
        <time>2024-10-02T13:46:13Z</time>
      </trkpt>
      <trkpt lat="49.37547" lon="0.18304">
        <ele>79.6</ele>
        <time>2024-10-02T13:46:14Z</time>
      </trkpt>
      <trkpt lat="49.37543" lon="0.18299">
        <ele>79.6</ele>
        <time>2024-10-02T13:46:15Z</time>
      </trkpt>
      <trkpt lat="49.37537" lon="0.18292">
        <ele>79.6</ele>
        <time>2024-10-02T13:46:16Z</time>
      </trkpt>
      <trkpt lat="49.37531" lon="0.18287">
        <ele>79.8</ele>
        <time>2024-10-02T13:46:17Z</time>
      </trkpt>
      <trkpt lat="49.37526" lon="0.18282">
        <ele>79.8</ele>
        <time>2024-10-02T13:46:18Z</time>
      </trkpt>
      <trkpt lat="49.3752" lon="0.18277">
        <ele>79.6</ele>
        <time>2024-10-02T13:46:19Z</time>
      </trkpt>
      <trkpt lat="49.37513" lon="0.18272">
        <ele>79.6</ele>
        <time>2024-10-02T13:46:20Z</time>
      </trkpt>
      <trkpt lat="49.37505" lon="0.18268">
        <ele>79.8</ele>
        <time>2024-10-02T13:46:21Z</time>
      </trkpt>
      <trkpt lat="49.37499" lon="0.18266">
        <ele>79.8</ele>
        <time>2024-10-02T13:46:22Z</time>
      </trkpt>
      <trkpt lat="49.37494" lon="0.18266">
        <ele>79.8</ele>
        <time>2024-10-02T13:46:23Z</time>
      </trkpt>
      <trkpt lat="49.37488" lon="0.18264">
        <ele>79.8</ele>
        <time>2024-10-02T13:46:24Z</time>
      </trkpt>
      <trkpt lat="49.37482" lon="0.18263">
        <ele>79.8</ele>
        <time>2024-10-02T13:46:25Z</time>
      </trkpt>
      <trkpt lat="49.37476" lon="0.18262">
        <ele>79.8</ele>
        <time>2024-10-02T13:46:26Z</time>
      </trkpt>
      <trkpt lat="49.37471" lon="0.18262">
        <ele>79.8</ele>
        <time>2024-10-02T13:46:27Z</time>
      </trkpt>
      <trkpt lat="49.37465" lon="0.18261">
        <ele>80</ele>
        <time>2024-10-02T13:46:28Z</time>
      </trkpt>
      <trkpt lat="49.37459" lon="0.18259">
        <ele>80</ele>
        <time>2024-10-02T13:46:29Z</time>
      </trkpt>
      <trkpt lat="49.37455" lon="0.18258">
        <ele>80</ele>
        <time>2024-10-02T13:46:30Z</time>
      </trkpt>
      <trkpt lat="49.3745" lon="0.18256">
        <ele>80.2</ele>
        <time>2024-10-02T13:46:31Z</time>
      </trkpt>
      <trkpt lat="49.37445" lon="0.18254">
        <ele>80.2</ele>
        <time>2024-10-02T13:46:32Z</time>
      </trkpt>
      <trkpt lat="49.3744" lon="0.18253">
        <ele>80.4</ele>
        <time>2024-10-02T13:46:33Z</time>
      </trkpt>
      <trkpt lat="49.37435" lon="0.1825">
        <ele>80.6</ele>
        <time>2024-10-02T13:46:34Z</time>
      </trkpt>
      <trkpt lat="49.37429" lon="0.18248">
        <ele>80.8</ele>
        <time>2024-10-02T13:46:35Z</time>
      </trkpt>
      <trkpt lat="49.37424" lon="0.18246">
        <ele>81</ele>
        <time>2024-10-02T13:46:36Z</time>
      </trkpt>
      <trkpt lat="49.37419" lon="0.18244">
        <ele>81</ele>
        <time>2024-10-02T13:46:37Z</time>
      </trkpt>
      <trkpt lat="49.37414" lon="0.18242">
        <ele>81.2</ele>
        <time>2024-10-02T13:46:38Z</time>
      </trkpt>
      <trkpt lat="49.37409" lon="0.1824">
        <ele>81.4</ele>
        <time>2024-10-02T13:46:39Z</time>
      </trkpt>
      <trkpt lat="49.37404" lon="0.18239">
        <ele>81.8</ele>
        <time>2024-10-02T13:46:40Z</time>
      </trkpt>
      <trkpt lat="49.37399" lon="0.18239">
        <ele>81.8</ele>
        <time>2024-10-02T13:46:41Z</time>
      </trkpt>
      <trkpt lat="49.37393" lon="0.18237">
        <ele>82</ele>
        <time>2024-10-02T13:46:42Z</time>
      </trkpt>
      <trkpt lat="49.37389" lon="0.18237">
        <ele>82.2</ele>
        <time>2024-10-02T13:46:43Z</time>
      </trkpt>
      <trkpt lat="49.37383" lon="0.18237">
        <ele>82.2</ele>
        <time>2024-10-02T13:46:44Z</time>
      </trkpt>
      <trkpt lat="49.37377" lon="0.18237">
        <ele>82.2</ele>
        <time>2024-10-02T13:46:45Z</time>
      </trkpt>
      <trkpt lat="49.37372" lon="0.18238">
        <ele>82.4</ele>
        <time>2024-10-02T13:46:46Z</time>
      </trkpt>
      <trkpt lat="49.37367" lon="0.18239">
        <ele>82.6</ele>
        <time>2024-10-02T13:46:47Z</time>
      </trkpt>
      <trkpt lat="49.37362" lon="0.18239">
        <ele>83</ele>
        <time>2024-10-02T13:46:48Z</time>
      </trkpt>
      <trkpt lat="49.37356" lon="0.1824">
        <ele>83.2</ele>
        <time>2024-10-02T13:46:49Z</time>
      </trkpt>
      <trkpt lat="49.37351" lon="0.18241">
        <ele>83.4</ele>
        <time>2024-10-02T13:46:50Z</time>
      </trkpt>
      <trkpt lat="49.37346" lon="0.18243">
        <ele>83.8</ele>
        <time>2024-10-02T13:46:51Z</time>
      </trkpt>
      <trkpt lat="49.37341" lon="0.18245">
        <ele>84</ele>
        <time>2024-10-02T13:46:52Z</time>
      </trkpt>
      <trkpt lat="49.37335" lon="0.18247">
        <ele>84.4</ele>
        <time>2024-10-02T13:46:53Z</time>
      </trkpt>
      <trkpt lat="49.37331" lon="0.18248">
        <ele>84.6</ele>
        <time>2024-10-02T13:46:54Z</time>
      </trkpt>
      <trkpt lat="49.37326" lon="0.18249">
        <ele>84.6</ele>
        <time>2024-10-02T13:46:55Z</time>
      </trkpt>
      <trkpt lat="49.3732" lon="0.1825">
        <ele>84.8</ele>
        <time>2024-10-02T13:46:56Z</time>
      </trkpt>
      <trkpt lat="49.37314" lon="0.18249">
        <ele>85</ele>
        <time>2024-10-02T13:46:57Z</time>
      </trkpt>
      <trkpt lat="49.3731" lon="0.18249">
        <ele>85.2</ele>
        <time>2024-10-02T13:46:58Z</time>
      </trkpt>
      <trkpt lat="49.37303" lon="0.18248">
        <ele>85.4</ele>
        <time>2024-10-02T13:46:59Z</time>
      </trkpt>
      <trkpt lat="49.37297" lon="0.18246">
        <ele>85.8</ele>
        <time>2024-10-02T13:47:00Z</time>
      </trkpt>
      <trkpt lat="49.37291" lon="0.18245">
        <ele>86</ele>
        <time>2024-10-02T13:47:01Z</time>
      </trkpt>
      <trkpt lat="49.37287" lon="0.18244">
        <ele>86.2</ele>
        <time>2024-10-02T13:47:02Z</time>
      </trkpt>
      <trkpt lat="49.37279" lon="0.18241">
        <ele>86.4</ele>
        <time>2024-10-02T13:47:03Z</time>
      </trkpt>
      <trkpt lat="49.37273" lon="0.18239">
        <ele>86.4</ele>
        <time>2024-10-02T13:47:04Z</time>
      </trkpt>
      <trkpt lat="49.37266" lon="0.18237">
        <ele>86.4</ele>
        <time>2024-10-02T13:47:05Z</time>
      </trkpt>
      <trkpt lat="49.37261" lon="0.18235">
        <ele>86.6</ele>
        <time>2024-10-02T13:47:06Z</time>
      </trkpt>
      <trkpt lat="49.37256" lon="0.18233">
        <ele>86.8</ele>
        <time>2024-10-02T13:47:07Z</time>
      </trkpt>
      <trkpt lat="49.37249" lon="0.18231">
        <ele>86.8</ele>
        <time>2024-10-02T13:47:08Z</time>
      </trkpt>
      <trkpt lat="49.37243" lon="0.18229">
        <ele>87</ele>
        <time>2024-10-02T13:47:09Z</time>
      </trkpt>
      <trkpt lat="49.37238" lon="0.18227">
        <ele>87</ele>
        <time>2024-10-02T13:47:10Z</time>
      </trkpt>
      <trkpt lat="49.37233" lon="0.18225">
        <ele>87</ele>
        <time>2024-10-02T13:47:11Z</time>
      </trkpt>
      <trkpt lat="49.37226" lon="0.18222">
        <ele>87</ele>
        <time>2024-10-02T13:47:12Z</time>
      </trkpt>
      <trkpt lat="49.37221" lon="0.1822">
        <ele>87.2</ele>
        <time>2024-10-02T13:47:13Z</time>
      </trkpt>
      <trkpt lat="49.37216" lon="0.18218">
        <ele>87.4</ele>
        <time>2024-10-02T13:47:14Z</time>
      </trkpt>
      <trkpt lat="49.37209" lon="0.18214">
        <ele>87.6</ele>
        <time>2024-10-02T13:47:15Z</time>
      </trkpt>
      <trkpt lat="49.37204" lon="0.18212">
        <ele>87.6</ele>
        <time>2024-10-02T13:47:16Z</time>
      </trkpt>
      <trkpt lat="49.37199" lon="0.18208">
        <ele>87.8</ele>
        <time>2024-10-02T13:47:17Z</time>
      </trkpt>
      <trkpt lat="49.37194" lon="0.18206">
        <ele>87.8</ele>
        <time>2024-10-02T13:47:18Z</time>
      </trkpt>
      <trkpt lat="49.37189" lon="0.18203">
        <ele>88</ele>
        <time>2024-10-02T13:47:19Z</time>
      </trkpt>
      <trkpt lat="49.37184" lon="0.182">
        <ele>88</ele>
        <time>2024-10-02T13:47:20Z</time>
      </trkpt>
      <trkpt lat="49.37179" lon="0.18197">
        <ele>88.2</ele>
        <time>2024-10-02T13:47:21Z</time>
      </trkpt>
      <trkpt lat="49.37174" lon="0.18194">
        <ele>88.4</ele>
        <time>2024-10-02T13:47:22Z</time>
      </trkpt>
      <trkpt lat="49.37168" lon="0.18188">
        <ele>88.6</ele>
        <time>2024-10-02T13:47:23Z</time>
      </trkpt>
      <trkpt lat="49.37163" lon="0.18184">
        <ele>88.6</ele>
        <time>2024-10-02T13:47:24Z</time>
      </trkpt>
      <trkpt lat="49.37159" lon="0.18181">
        <ele>88.6</ele>
        <time>2024-10-02T13:47:25Z</time>
      </trkpt>
      <trkpt lat="49.37153" lon="0.18177">
        <ele>88.8</ele>
        <time>2024-10-02T13:47:26Z</time>
      </trkpt>
      <trkpt lat="49.37149" lon="0.18173">
        <ele>89</ele>
        <time>2024-10-02T13:47:27Z</time>
      </trkpt>
      <trkpt lat="49.37145" lon="0.1817">
        <ele>89</ele>
        <time>2024-10-02T13:47:28Z</time>
      </trkpt>
      <trkpt lat="49.37141" lon="0.18167">
        <ele>89.2</ele>
        <time>2024-10-02T13:47:29Z</time>
      </trkpt>
      <trkpt lat="49.37137" lon="0.18164">
        <ele>89.2</ele>
        <time>2024-10-02T13:47:30Z</time>
      </trkpt>
      <trkpt lat="49.37131" lon="0.1816">
        <ele>89.4</ele>
        <time>2024-10-02T13:47:31Z</time>
      </trkpt>
      <trkpt lat="49.37128" lon="0.18156">
        <ele>89.6</ele>
        <time>2024-10-02T13:47:32Z</time>
      </trkpt>
      <trkpt lat="49.37124" lon="0.18152">
        <ele>89.8</ele>
        <time>2024-10-02T13:47:33Z</time>
      </trkpt>
      <trkpt lat="49.37119" lon="0.18148">
        <ele>89.8</ele>
        <time>2024-10-02T13:47:34Z</time>
      </trkpt>
      <trkpt lat="49.37114" lon="0.18145">
        <ele>90.2</ele>
        <time>2024-10-02T13:47:35Z</time>
      </trkpt>
      <trkpt lat="49.37109" lon="0.18141">
        <ele>90.8</ele>
        <time>2024-10-02T13:47:36Z</time>
      </trkpt>
      <trkpt lat="49.37105" lon="0.18137">
        <ele>91</ele>
        <time>2024-10-02T13:47:37Z</time>
      </trkpt>
      <trkpt lat="49.37101" lon="0.18134">
        <ele>91.4</ele>
        <time>2024-10-02T13:47:38Z</time>
      </trkpt>
      <trkpt lat="49.37096" lon="0.1813">
        <ele>91.8</ele>
        <time>2024-10-02T13:47:39Z</time>
      </trkpt>
      <trkpt lat="49.37091" lon="0.18126">
        <ele>92</ele>
        <time>2024-10-02T13:47:40Z</time>
      </trkpt>
      <trkpt lat="49.37087" lon="0.18123">
        <ele>92.4</ele>
        <time>2024-10-02T13:47:41Z</time>
      </trkpt>
      <trkpt lat="49.37082" lon="0.1812">
        <ele>92.6</ele>
        <time>2024-10-02T13:47:42Z</time>
      </trkpt>
      <trkpt lat="49.37077" lon="0.18116">
        <ele>93</ele>
        <time>2024-10-02T13:47:43Z</time>
      </trkpt>
      <trkpt lat="49.37073" lon="0.18113">
        <ele>93.2</ele>
        <time>2024-10-02T13:47:44Z</time>
      </trkpt>
      <trkpt lat="49.37068" lon="0.18109">
        <ele>93.4</ele>
        <time>2024-10-02T13:47:45Z</time>
      </trkpt>
      <trkpt lat="49.37063" lon="0.18105">
        <ele>93.4</ele>
        <time>2024-10-02T13:47:46Z</time>
      </trkpt>
      <trkpt lat="49.37057" lon="0.18101">
        <ele>93.8</ele>
        <time>2024-10-02T13:47:47Z</time>
      </trkpt>
      <trkpt lat="49.37052" lon="0.18097">
        <ele>94.2</ele>
        <time>2024-10-02T13:47:48Z</time>
      </trkpt>
      <trkpt lat="49.37047" lon="0.18092">
        <ele>94.4</ele>
        <time>2024-10-02T13:47:49Z</time>
      </trkpt>
      <trkpt lat="49.37041" lon="0.18087">
        <ele>94.6</ele>
        <time>2024-10-02T13:47:50Z</time>
      </trkpt>
      <trkpt lat="49.37037" lon="0.18084">
        <ele>94.8</ele>
        <time>2024-10-02T13:47:51Z</time>
      </trkpt>
      <trkpt lat="49.37031" lon="0.1808">
        <ele>95.2</ele>
        <time>2024-10-02T13:47:52Z</time>
      </trkpt>
      <trkpt lat="49.37025" lon="0.18075">
        <ele>95.4</ele>
        <time>2024-10-02T13:47:53Z</time>
      </trkpt>
      <trkpt lat="49.3702" lon="0.18072">
        <ele>95.6</ele>
        <time>2024-10-02T13:47:54Z</time>
      </trkpt>
      <trkpt lat="49.37014" lon="0.18068">
        <ele>95.8</ele>
        <time>2024-10-02T13:47:55Z</time>
      </trkpt>
      <trkpt lat="49.37009" lon="0.18065">
        <ele>96</ele>
        <time>2024-10-02T13:47:56Z</time>
      </trkpt>
      <trkpt lat="49.37004" lon="0.18061">
        <ele>96</ele>
        <time>2024-10-02T13:47:57Z</time>
      </trkpt>
      <trkpt lat="49.36999" lon="0.18057">
        <ele>96.2</ele>
        <time>2024-10-02T13:47:58Z</time>
      </trkpt>
      <trkpt lat="49.36994" lon="0.18052">
        <ele>96.2</ele>
        <time>2024-10-02T13:47:59Z</time>
      </trkpt>
      <trkpt lat="49.36989" lon="0.18046">
        <ele>96.4</ele>
        <time>2024-10-02T13:48:00Z</time>
      </trkpt>
      <trkpt lat="49.36984" lon="0.18041">
        <ele>96.6</ele>
        <time>2024-10-02T13:48:01Z</time>
      </trkpt>
      <trkpt lat="49.36978" lon="0.18036">
        <ele>96.8</ele>
        <time>2024-10-02T13:48:02Z</time>
      </trkpt>
      <trkpt lat="49.36974" lon="0.1803">
        <ele>96.8</ele>
        <time>2024-10-02T13:48:03Z</time>
      </trkpt>
      <trkpt lat="49.3697" lon="0.18024">
        <ele>97</ele>
        <time>2024-10-02T13:48:04Z</time>
      </trkpt>
      <trkpt lat="49.36965" lon="0.18017">
        <ele>97</ele>
        <time>2024-10-02T13:48:05Z</time>
      </trkpt>
      <trkpt lat="49.3696" lon="0.18011">
        <ele>97</ele>
        <time>2024-10-02T13:48:06Z</time>
      </trkpt>
      <trkpt lat="49.36956" lon="0.18005">
        <ele>97.4</ele>
        <time>2024-10-02T13:48:07Z</time>
      </trkpt>
      <trkpt lat="49.36951" lon="0.17998">
        <ele>97.6</ele>
        <time>2024-10-02T13:48:08Z</time>
      </trkpt>
      <trkpt lat="49.36946" lon="0.17992">
        <ele>97.8</ele>
        <time>2024-10-02T13:48:09Z</time>
      </trkpt>
      <trkpt lat="49.36943" lon="0.17988">
        <ele>98</ele>
        <time>2024-10-02T13:48:10Z</time>
      </trkpt>
      <trkpt lat="49.36938" lon="0.17984">
        <ele>98.2</ele>
        <time>2024-10-02T13:48:11Z</time>
      </trkpt>
      <trkpt lat="49.36933" lon="0.17982">
        <ele>98.4</ele>
        <time>2024-10-02T13:48:12Z</time>
      </trkpt>
      <trkpt lat="49.36928" lon="0.17976">
        <ele>98.6</ele>
        <time>2024-10-02T13:48:13Z</time>
      </trkpt>
      <trkpt lat="49.36924" lon="0.17971">
        <ele>98.8</ele>
        <time>2024-10-02T13:48:14Z</time>
      </trkpt>
      <trkpt lat="49.36919" lon="0.17968">
        <ele>98.8</ele>
        <time>2024-10-02T13:48:15Z</time>
      </trkpt>
      <trkpt lat="49.36916" lon="0.17964">
        <ele>99</ele>
        <time>2024-10-02T13:48:16Z</time>
      </trkpt>
      <trkpt lat="49.3691" lon="0.1796">
        <ele>99.2</ele>
        <time>2024-10-02T13:48:17Z</time>
      </trkpt>
      <trkpt lat="49.36905" lon="0.17958">
        <ele>99.2</ele>
        <time>2024-10-02T13:48:18Z</time>
      </trkpt>
      <trkpt lat="49.369" lon="0.17954">
        <ele>99.4</ele>
        <time>2024-10-02T13:48:19Z</time>
      </trkpt>
      <trkpt lat="49.36895" lon="0.17951">
        <ele>99.6</ele>
        <time>2024-10-02T13:48:20Z</time>
      </trkpt>
      <trkpt lat="49.36889" lon="0.17948">
        <ele>99.8</ele>
        <time>2024-10-02T13:48:21Z</time>
      </trkpt>
      <trkpt lat="49.36884" lon="0.17945">
        <ele>99.8</ele>
        <time>2024-10-02T13:48:22Z</time>
      </trkpt>
      <trkpt lat="49.36879" lon="0.17943">
        <ele>100</ele>
        <time>2024-10-02T13:48:23Z</time>
      </trkpt>
      <trkpt lat="49.36873" lon="0.17941">
        <ele>100.4</ele>
        <time>2024-10-02T13:48:24Z</time>
      </trkpt>
      <trkpt lat="49.36867" lon="0.17939">
        <ele>100.8</ele>
        <time>2024-10-02T13:48:25Z</time>
      </trkpt>
      <trkpt lat="49.36861" lon="0.17937">
        <ele>101</ele>
        <time>2024-10-02T13:48:26Z</time>
      </trkpt>
      <trkpt lat="49.36855" lon="0.17936">
        <ele>101</ele>
        <time>2024-10-02T13:48:27Z</time>
      </trkpt>
      <trkpt lat="49.3685" lon="0.17934">
        <ele>101.2</ele>
        <time>2024-10-02T13:48:28Z</time>
      </trkpt>
      <trkpt lat="49.36844" lon="0.17932">
        <ele>101.6</ele>
        <time>2024-10-02T13:48:29Z</time>
      </trkpt>
      <trkpt lat="49.36839" lon="0.17931">
        <ele>101.8</ele>
        <time>2024-10-02T13:48:30Z</time>
      </trkpt>
      <trkpt lat="49.36833" lon="0.17932">
        <ele>102</ele>
        <time>2024-10-02T13:48:31Z</time>
      </trkpt>
      <trkpt lat="49.36828" lon="0.17932">
        <ele>102</ele>
        <time>2024-10-02T13:48:32Z</time>
      </trkpt>
      <trkpt lat="49.36824" lon="0.17933">
        <ele>102.4</ele>
        <time>2024-10-02T13:48:33Z</time>
      </trkpt>
      <trkpt lat="49.36817" lon="0.17935">
        <ele>102.4</ele>
        <time>2024-10-02T13:48:34Z</time>
      </trkpt>
      <trkpt lat="49.36811" lon="0.17936">
        <ele>102.6</ele>
        <time>2024-10-02T13:48:35Z</time>
      </trkpt>
      <trkpt lat="49.36806" lon="0.17936">
        <ele>102.6</ele>
        <time>2024-10-02T13:48:36Z</time>
      </trkpt>
      <trkpt lat="49.36801" lon="0.17938">
        <ele>102.8</ele>
        <time>2024-10-02T13:48:37Z</time>
      </trkpt>
      <trkpt lat="49.36796" lon="0.17939">
        <ele>102.6</ele>
        <time>2024-10-02T13:48:38Z</time>
      </trkpt>
      <trkpt lat="49.3679" lon="0.1794">
        <ele>102.6</ele>
        <time>2024-10-02T13:48:39Z</time>
      </trkpt>
      <trkpt lat="49.36785" lon="0.17943">
        <ele>102.8</ele>
        <time>2024-10-02T13:48:40Z</time>
      </trkpt>
      <trkpt lat="49.3678" lon="0.17945">
        <ele>102.8</ele>
        <time>2024-10-02T13:48:41Z</time>
      </trkpt>
      <trkpt lat="49.36776" lon="0.17946">
        <ele>103</ele>
        <time>2024-10-02T13:48:42Z</time>
      </trkpt>
      <trkpt lat="49.3677" lon="0.17947">
        <ele>103.2</ele>
        <time>2024-10-02T13:48:43Z</time>
      </trkpt>
      <trkpt lat="49.36766" lon="0.17948">
        <ele>103.4</ele>
        <time>2024-10-02T13:48:44Z</time>
      </trkpt>
      <trkpt lat="49.36761" lon="0.17949">
        <ele>103.6</ele>
        <time>2024-10-02T13:48:45Z</time>
      </trkpt>
      <trkpt lat="49.36755" lon="0.1795">
        <ele>103.8</ele>
        <time>2024-10-02T13:48:46Z</time>
      </trkpt>
      <trkpt lat="49.36749" lon="0.1795">
        <ele>103.8</ele>
        <time>2024-10-02T13:48:47Z</time>
      </trkpt>
      <trkpt lat="49.36744" lon="0.17951">
        <ele>104</ele>
        <time>2024-10-02T13:48:48Z</time>
      </trkpt>
      <trkpt lat="49.36739" lon="0.17952">
        <ele>104.2</ele>
        <time>2024-10-02T13:48:49Z</time>
      </trkpt>
      <trkpt lat="49.36735" lon="0.17954">
        <ele>104.4</ele>
        <time>2024-10-02T13:48:50Z</time>
      </trkpt>
      <trkpt lat="49.36731" lon="0.17955">
        <ele>104.6</ele>
        <time>2024-10-02T13:48:51Z</time>
      </trkpt>
      <trkpt lat="49.36726" lon="0.17955">
        <ele>105</ele>
        <time>2024-10-02T13:48:52Z</time>
      </trkpt>
      <trkpt lat="49.36721" lon="0.17954">
        <ele>105.4</ele>
        <time>2024-10-02T13:48:53Z</time>
      </trkpt>
      <trkpt lat="49.36716" lon="0.17954">
        <ele>105.8</ele>
        <time>2024-10-02T13:48:54Z</time>
      </trkpt>
      <trkpt lat="49.36711" lon="0.17953">
        <ele>106</ele>
        <time>2024-10-02T13:48:55Z</time>
      </trkpt>
      <trkpt lat="49.36707" lon="0.17953">
        <ele>106.4</ele>
        <time>2024-10-02T13:48:56Z</time>
      </trkpt>
      <trkpt lat="49.36702" lon="0.17952">
        <ele>106.6</ele>
        <time>2024-10-02T13:48:57Z</time>
      </trkpt>
      <trkpt lat="49.36698" lon="0.17951">
        <ele>106.8</ele>
        <time>2024-10-02T13:48:58Z</time>
      </trkpt>
      <trkpt lat="49.36693" lon="0.1795">
        <ele>107</ele>
        <time>2024-10-02T13:48:59Z</time>
      </trkpt>
      <trkpt lat="49.36688" lon="0.17948">
        <ele>107.2</ele>
        <time>2024-10-02T13:49:00Z</time>
      </trkpt>
      <trkpt lat="49.36682" lon="0.17947">
        <ele>107.4</ele>
        <time>2024-10-02T13:49:01Z</time>
      </trkpt>
      <trkpt lat="49.36678" lon="0.17945">
        <ele>108</ele>
        <time>2024-10-02T13:49:02Z</time>
      </trkpt>
      <trkpt lat="49.36674" lon="0.17944">
        <ele>108.2</ele>
        <time>2024-10-02T13:49:03Z</time>
      </trkpt>
      <trkpt lat="49.36668" lon="0.17942">
        <ele>108.4</ele>
        <time>2024-10-02T13:49:04Z</time>
      </trkpt>
      <trkpt lat="49.36664" lon="0.17941">
        <ele>108.6</ele>
        <time>2024-10-02T13:49:05Z</time>
      </trkpt>
      <trkpt lat="49.36659" lon="0.17939">
        <ele>109</ele>
        <time>2024-10-02T13:49:06Z</time>
      </trkpt>
      <trkpt lat="49.36655" lon="0.17937">
        <ele>109</ele>
        <time>2024-10-02T13:49:07Z</time>
      </trkpt>
      <trkpt lat="49.36651" lon="0.17936">
        <ele>109.2</ele>
        <time>2024-10-02T13:49:08Z</time>
      </trkpt>
      <trkpt lat="49.36646" lon="0.17934">
        <ele>109.2</ele>
        <time>2024-10-02T13:49:09Z</time>
      </trkpt>
      <trkpt lat="49.36641" lon="0.17931">
        <ele>109.4</ele>
        <time>2024-10-02T13:49:10Z</time>
      </trkpt>
      <trkpt lat="49.36637" lon="0.1793">
        <ele>109.6</ele>
        <time>2024-10-02T13:49:11Z</time>
      </trkpt>
      <trkpt lat="49.36633" lon="0.17928">
        <ele>110</ele>
        <time>2024-10-02T13:49:12Z</time>
      </trkpt>
      <trkpt lat="49.36628" lon="0.17926">
        <ele>110.4</ele>
        <time>2024-10-02T13:49:13Z</time>
      </trkpt>
      <trkpt lat="49.36624" lon="0.17924">
        <ele>110.8</ele>
        <time>2024-10-02T13:49:14Z</time>
      </trkpt>
      <trkpt lat="49.36619" lon="0.17922">
        <ele>111</ele>
        <time>2024-10-02T13:49:15Z</time>
      </trkpt>
      <trkpt lat="49.36615" lon="0.1792">
        <ele>111.4</ele>
        <time>2024-10-02T13:49:16Z</time>
      </trkpt>
      <trkpt lat="49.3661" lon="0.17917">
        <ele>111.8</ele>
        <time>2024-10-02T13:49:17Z</time>
      </trkpt>
      <trkpt lat="49.36606" lon="0.17915">
        <ele>112</ele>
        <time>2024-10-02T13:49:18Z</time>
      </trkpt>
      <trkpt lat="49.36601" lon="0.17913">
        <ele>112</ele>
        <time>2024-10-02T13:49:19Z</time>
      </trkpt>
      <trkpt lat="49.36597" lon="0.1791">
        <ele>112.2</ele>
        <time>2024-10-02T13:49:20Z</time>
      </trkpt>
      <trkpt lat="49.36593" lon="0.17907">
        <ele>112.4</ele>
        <time>2024-10-02T13:49:21Z</time>
      </trkpt>
      <trkpt lat="49.36589" lon="0.17903">
        <ele>112.6</ele>
        <time>2024-10-02T13:49:22Z</time>
      </trkpt>
      <trkpt lat="49.36584" lon="0.179">
        <ele>113.2</ele>
        <time>2024-10-02T13:49:23Z</time>
      </trkpt>
      <trkpt lat="49.3658" lon="0.17897">
        <ele>113.4</ele>
        <time>2024-10-02T13:49:24Z</time>
      </trkpt>
      <trkpt lat="49.36576" lon="0.17892">
        <ele>113.6</ele>
        <time>2024-10-02T13:49:25Z</time>
      </trkpt>
      <trkpt lat="49.36571" lon="0.17888">
        <ele>113.8</ele>
        <time>2024-10-02T13:49:26Z</time>
      </trkpt>
      <trkpt lat="49.36566" lon="0.17881">
        <ele>113.8</ele>
        <time>2024-10-02T13:49:27Z</time>
      </trkpt>
      <trkpt lat="49.3656" lon="0.17874">
        <ele>114</ele>
        <time>2024-10-02T13:49:28Z</time>
      </trkpt>
      <trkpt lat="49.36555" lon="0.17867">
        <ele>114.4</ele>
        <time>2024-10-02T13:49:29Z</time>
      </trkpt>
      <trkpt lat="49.3655" lon="0.17861">
        <ele>114.6</ele>
        <time>2024-10-02T13:49:30Z</time>
      </trkpt>
      <trkpt lat="49.36547" lon="0.17857">
        <ele>114.8</ele>
        <time>2024-10-02T13:49:31Z</time>
      </trkpt>
      <trkpt lat="49.36543" lon="0.17852">
        <ele>115</ele>
        <time>2024-10-02T13:49:32Z</time>
      </trkpt>
      <trkpt lat="49.36539" lon="0.17846">
        <ele>115.4</ele>
        <time>2024-10-02T13:49:33Z</time>
      </trkpt>
      <trkpt lat="49.36535" lon="0.17843">
        <ele>115.6</ele>
        <time>2024-10-02T13:49:34Z</time>
      </trkpt>
      <trkpt lat="49.36531" lon="0.17838">
        <ele>115.6</ele>
        <time>2024-10-02T13:49:35Z</time>
      </trkpt>
      <trkpt lat="49.36526" lon="0.17835">
        <ele>115.8</ele>
        <time>2024-10-02T13:49:36Z</time>
      </trkpt>
      <trkpt lat="49.36522" lon="0.17832">
        <ele>115.8</ele>
        <time>2024-10-02T13:49:37Z</time>
      </trkpt>
      <trkpt lat="49.36518" lon="0.17829">
        <ele>115.8</ele>
        <time>2024-10-02T13:49:38Z</time>
      </trkpt>
      <trkpt lat="49.36513" lon="0.17826">
        <ele>115.8</ele>
        <time>2024-10-02T13:49:39Z</time>
      </trkpt>
      <trkpt lat="49.36509" lon="0.17823">
        <ele>116</ele>
        <time>2024-10-02T13:49:40Z</time>
      </trkpt>
      <trkpt lat="49.36504" lon="0.1782">
        <ele>115.8</ele>
        <time>2024-10-02T13:49:41Z</time>
      </trkpt>
      <trkpt lat="49.36499" lon="0.17818">
        <ele>115.8</ele>
        <time>2024-10-02T13:49:42Z</time>
      </trkpt>
      <trkpt lat="49.36494" lon="0.17815">
        <ele>115.8</ele>
        <time>2024-10-02T13:49:43Z</time>
      </trkpt>
      <trkpt lat="49.3649" lon="0.17814">
        <ele>116.2</ele>
        <time>2024-10-02T13:49:44Z</time>
      </trkpt>
      <trkpt lat="49.36486" lon="0.17812">
        <ele>116.2</ele>
        <time>2024-10-02T13:49:45Z</time>
      </trkpt>
      <trkpt lat="49.36481" lon="0.1781">
        <ele>116.6</ele>
        <time>2024-10-02T13:49:46Z</time>
      </trkpt>
      <trkpt lat="49.36477" lon="0.17807">
        <ele>116.8</ele>
        <time>2024-10-02T13:49:47Z</time>
      </trkpt>
      <trkpt lat="49.36474" lon="0.17804">
        <ele>116.8</ele>
        <time>2024-10-02T13:49:48Z</time>
      </trkpt>
      <trkpt lat="49.36469" lon="0.17802">
        <ele>117.2</ele>
        <time>2024-10-02T13:49:49Z</time>
      </trkpt>
      <trkpt lat="49.36466" lon="0.178">
        <ele>117.4</ele>
        <time>2024-10-02T13:49:50Z</time>
      </trkpt>
      <trkpt lat="49.36462" lon="0.17799">
        <ele>117.6</ele>
        <time>2024-10-02T13:49:51Z</time>
      </trkpt>
      <trkpt lat="49.36459" lon="0.17797">
        <ele>117.8</ele>
        <time>2024-10-02T13:49:52Z</time>
      </trkpt>
      <trkpt lat="49.36455" lon="0.17796">
        <ele>118.2</ele>
        <time>2024-10-02T13:49:53Z</time>
      </trkpt>
      <trkpt lat="49.3645" lon="0.17794">
        <ele>118.4</ele>
        <time>2024-10-02T13:49:54Z</time>
      </trkpt>
      <trkpt lat="49.36447" lon="0.17793">
        <ele>118.8</ele>
        <time>2024-10-02T13:49:55Z</time>
      </trkpt>
      <trkpt lat="49.36442" lon="0.17793">
        <ele>119</ele>
        <time>2024-10-02T13:49:56Z</time>
      </trkpt>
      <trkpt lat="49.36437" lon="0.17792">
        <ele>119.2</ele>
        <time>2024-10-02T13:49:57Z</time>
      </trkpt>
      <trkpt lat="49.36433" lon="0.17792">
        <ele>119.4</ele>
        <time>2024-10-02T13:49:58Z</time>
      </trkpt>
      <trkpt lat="49.36429" lon="0.17792">
        <ele>119.6</ele>
        <time>2024-10-02T13:49:59Z</time>
      </trkpt>
      <trkpt lat="49.36425" lon="0.17792">
        <ele>120</ele>
        <time>2024-10-02T13:50:00Z</time>
      </trkpt>
      <trkpt lat="49.3642" lon="0.17792">
        <ele>120.2</ele>
        <time>2024-10-02T13:50:01Z</time>
      </trkpt>
      <trkpt lat="49.36416" lon="0.17793">
        <ele>120.4</ele>
        <time>2024-10-02T13:50:02Z</time>
      </trkpt>
      <trkpt lat="49.36412" lon="0.17793">
        <ele>120.8</ele>
        <time>2024-10-02T13:50:03Z</time>
      </trkpt>
      <trkpt lat="49.36406" lon="0.17793">
        <ele>121.2</ele>
        <time>2024-10-02T13:50:04Z</time>
      </trkpt>
      <trkpt lat="49.36402" lon="0.17793">
        <ele>121.4</ele>
        <time>2024-10-02T13:50:05Z</time>
      </trkpt>
      <trkpt lat="49.36397" lon="0.17793">
        <ele>121.6</ele>
        <time>2024-10-02T13:50:06Z</time>
      </trkpt>
      <trkpt lat="49.36392" lon="0.17792">
        <ele>122</ele>
        <time>2024-10-02T13:50:07Z</time>
      </trkpt>
      <trkpt lat="49.36387" lon="0.17791">
        <ele>122</ele>
        <time>2024-10-02T13:50:08Z</time>
      </trkpt>
      <trkpt lat="49.36383" lon="0.1779">
        <ele>122.2</ele>
        <time>2024-10-02T13:50:09Z</time>
      </trkpt>
      <trkpt lat="49.36378" lon="0.17789">
        <ele>122.6</ele>
        <time>2024-10-02T13:50:10Z</time>
      </trkpt>
      <trkpt lat="49.36374" lon="0.17787">
        <ele>123</ele>
        <time>2024-10-02T13:50:11Z</time>
      </trkpt>
      <trkpt lat="49.36369" lon="0.17785">
        <ele>123.2</ele>
        <time>2024-10-02T13:50:12Z</time>
      </trkpt>
      <trkpt lat="49.36365" lon="0.17785">
        <ele>123.4</ele>
        <time>2024-10-02T13:50:13Z</time>
      </trkpt>
      <trkpt lat="49.3636" lon="0.17785">
        <ele>123.6</ele>
        <time>2024-10-02T13:50:14Z</time>
      </trkpt>
      <trkpt lat="49.36355" lon="0.17783">
        <ele>124</ele>
        <time>2024-10-02T13:50:15Z</time>
      </trkpt>
      <trkpt lat="49.36351" lon="0.17782">
        <ele>124.2</ele>
        <time>2024-10-02T13:50:16Z</time>
      </trkpt>
      <trkpt lat="49.36347" lon="0.1778">
        <ele>124.4</ele>
        <time>2024-10-02T13:50:17Z</time>
      </trkpt>
      <trkpt lat="49.36341" lon="0.17778">
        <ele>124.8</ele>
        <time>2024-10-02T13:50:18Z</time>
      </trkpt>
      <trkpt lat="49.36337" lon="0.17776">
        <ele>125.2</ele>
        <time>2024-10-02T13:50:19Z</time>
      </trkpt>
      <trkpt lat="49.36333" lon="0.17775">
        <ele>125.4</ele>
        <time>2024-10-02T13:50:20Z</time>
      </trkpt>
      <trkpt lat="49.36328" lon="0.17773">
        <ele>125.8</ele>
        <time>2024-10-02T13:50:21Z</time>
      </trkpt>
      <trkpt lat="49.36325" lon="0.17772">
        <ele>126</ele>
        <time>2024-10-02T13:50:22Z</time>
      </trkpt>
      <trkpt lat="49.3632" lon="0.17771">
        <ele>126.2</ele>
        <time>2024-10-02T13:50:23Z</time>
      </trkpt>
      <trkpt lat="49.36316" lon="0.1777">
        <ele>126.4</ele>
        <time>2024-10-02T13:50:24Z</time>
      </trkpt>
      <trkpt lat="49.36312" lon="0.17768">
        <ele>126.4</ele>
        <time>2024-10-02T13:50:25Z</time>
      </trkpt>
      <trkpt lat="49.36308" lon="0.17767">
        <ele>126.6</ele>
        <time>2024-10-02T13:50:26Z</time>
      </trkpt>
      <trkpt lat="49.36304" lon="0.17767">
        <ele>127</ele>
        <time>2024-10-02T13:50:27Z</time>
      </trkpt>
      <trkpt lat="49.36301" lon="0.17766">
        <ele>127</ele>
        <time>2024-10-02T13:50:28Z</time>
      </trkpt>
      <trkpt lat="49.36297" lon="0.17765">
        <ele>127</ele>
        <time>2024-10-02T13:50:29Z</time>
      </trkpt>
      <trkpt lat="49.36294" lon="0.17764">
        <ele>127.2</ele>
        <time>2024-10-02T13:50:30Z</time>
      </trkpt>
      <trkpt lat="49.36291" lon="0.17763">
        <ele>127.6</ele>
        <time>2024-10-02T13:50:31Z</time>
      </trkpt>
      <trkpt lat="49.36287" lon="0.17763">
        <ele>127.8</ele>
        <time>2024-10-02T13:50:32Z</time>
      </trkpt>
      <trkpt lat="49.36284" lon="0.17762">
        <ele>128</ele>
        <time>2024-10-02T13:50:33Z</time>
      </trkpt>
      <trkpt lat="49.36281" lon="0.17761">
        <ele>128.2</ele>
        <time>2024-10-02T13:50:34Z</time>
      </trkpt>
      <trkpt lat="49.36279" lon="0.1776">
        <ele>128.4</ele>
        <time>2024-10-02T13:50:35Z</time>
      </trkpt>
      <trkpt lat="49.36277" lon="0.1776">
        <ele>128.8</ele>
        <time>2024-10-02T13:50:36Z</time>
      </trkpt>
      <trkpt lat="49.36274" lon="0.1776">
        <ele>129.2</ele>
        <time>2024-10-02T13:50:37Z</time>
      </trkpt>
      <trkpt lat="49.36273" lon="0.1776">
        <ele>129.4</ele>
        <time>2024-10-02T13:50:38Z</time>
      </trkpt>
      <trkpt lat="49.3627" lon="0.1776">
        <ele>129.6</ele>
        <time>2024-10-02T13:50:39Z</time>
      </trkpt>
      <trkpt lat="49.36269" lon="0.1776">
        <ele>129.8</ele>
        <time>2024-10-02T13:50:40Z</time>
      </trkpt>
      <trkpt lat="49.36267" lon="0.17759">
        <ele>130</ele>
        <time>2024-10-02T13:50:41Z</time>
      </trkpt>
      <trkpt lat="49.36264" lon="0.17759">
        <ele>130.2</ele>
        <time>2024-10-02T13:50:42Z</time>
      </trkpt>
      <trkpt lat="49.36263" lon="0.17759">
        <ele>130.4</ele>
        <time>2024-10-02T13:50:43Z</time>
      </trkpt>
      <trkpt lat="49.36261" lon="0.17759">
        <ele>130.6</ele>
        <time>2024-10-02T13:50:44Z</time>
      </trkpt>
      <trkpt lat="49.3626" lon="0.17759">
        <ele>130.6</ele>
        <time>2024-10-02T13:50:45Z</time>
      </trkpt>
      <trkpt lat="49.3626" lon="0.17759">
        <ele>130.8</ele>
        <time>2024-10-02T13:50:46Z</time>
      </trkpt>
      <trkpt lat="49.3626" lon="0.17759">
        <ele>130.8</ele>
        <time>2024-10-02T13:50:47Z</time>
      </trkpt>
      <trkpt lat="49.36256" lon="0.17762">
        <ele>132.2</ele>
        <time>2024-10-02T13:54:56Z</time>
      </trkpt>
      <trkpt lat="49.36256" lon="0.17764">
        <ele>132.2</ele>
        <time>2024-10-02T13:54:57Z</time>
      </trkpt>
      <trkpt lat="49.36255" lon="0.17767">
        <ele>132.2</ele>
        <time>2024-10-02T13:54:58Z</time>
      </trkpt>
      <trkpt lat="49.36254" lon="0.17769">
        <ele>132.2</ele>
        <time>2024-10-02T13:54:59Z</time>
      </trkpt>
      <trkpt lat="49.36253" lon="0.17772">
        <ele>132.2</ele>
        <time>2024-10-02T13:55:00Z</time>
      </trkpt>
      <trkpt lat="49.36251" lon="0.17774">
        <ele>132.2</ele>
        <time>2024-10-02T13:55:01Z</time>
      </trkpt>
      <trkpt lat="49.3625" lon="0.17777">
        <ele>132.2</ele>
        <time>2024-10-02T13:55:02Z</time>
      </trkpt>
      <trkpt lat="49.36248" lon="0.1778">
        <ele>132.2</ele>
        <time>2024-10-02T13:55:03Z</time>
      </trkpt>
      <trkpt lat="49.36247" lon="0.17782">
        <ele>132.2</ele>
        <time>2024-10-02T13:55:04Z</time>
      </trkpt>
      <trkpt lat="49.36246" lon="0.17786">
        <ele>132.2</ele>
        <time>2024-10-02T13:55:05Z</time>
      </trkpt>
      <trkpt lat="49.36244" lon="0.17789">
        <ele>132.2</ele>
        <time>2024-10-02T13:55:06Z</time>
      </trkpt>
      <trkpt lat="49.36242" lon="0.17792">
        <ele>132.2</ele>
        <time>2024-10-02T13:55:07Z</time>
      </trkpt>
      <trkpt lat="49.36239" lon="0.17795">
        <ele>132.2</ele>
        <time>2024-10-02T13:55:08Z</time>
      </trkpt>
      <trkpt lat="49.36236" lon="0.17798">
        <ele>132.2</ele>
        <time>2024-10-02T13:55:09Z</time>
      </trkpt>
      <trkpt lat="49.36233" lon="0.17802">
        <ele>132.2</ele>
        <time>2024-10-02T13:55:10Z</time>
      </trkpt>
      <trkpt lat="49.36231" lon="0.17806">
        <ele>132.2</ele>
        <time>2024-10-02T13:55:11Z</time>
      </trkpt>
      <trkpt lat="49.36229" lon="0.17811">
        <ele>132.2</ele>
        <time>2024-10-02T13:55:12Z</time>
      </trkpt>
      <trkpt lat="49.36226" lon="0.17816">
        <ele>132.2</ele>
        <time>2024-10-02T13:55:13Z</time>
      </trkpt>
      <trkpt lat="49.36224" lon="0.17821">
        <ele>132.2</ele>
        <time>2024-10-02T13:55:14Z</time>
      </trkpt>
      <trkpt lat="49.36221" lon="0.17827">
        <ele>132.2</ele>
        <time>2024-10-02T13:55:15Z</time>
      </trkpt>
      <trkpt lat="49.36218" lon="0.17832">
        <ele>132.4</ele>
        <time>2024-10-02T13:55:16Z</time>
      </trkpt>
      <trkpt lat="49.36215" lon="0.17838">
        <ele>132.4</ele>
        <time>2024-10-02T13:55:17Z</time>
      </trkpt>
      <trkpt lat="49.36213" lon="0.17844">
        <ele>132.6</ele>
        <time>2024-10-02T13:55:18Z</time>
      </trkpt>
      <trkpt lat="49.36209" lon="0.17851">
        <ele>132.6</ele>
        <time>2024-10-02T13:55:19Z</time>
      </trkpt>
      <trkpt lat="49.36206" lon="0.17857">
        <ele>132.6</ele>
        <time>2024-10-02T13:55:20Z</time>
      </trkpt>
      <trkpt lat="49.36204" lon="0.17864">
        <ele>132.8</ele>
        <time>2024-10-02T13:55:21Z</time>
      </trkpt>
      <trkpt lat="49.36201" lon="0.17871">
        <ele>132.8</ele>
        <time>2024-10-02T13:55:22Z</time>
      </trkpt>
      <trkpt lat="49.36198" lon="0.17878">
        <ele>133</ele>
        <time>2024-10-02T13:55:23Z</time>
      </trkpt>
      <trkpt lat="49.36195" lon="0.17885">
        <ele>133</ele>
        <time>2024-10-02T13:55:24Z</time>
      </trkpt>
      <trkpt lat="49.36192" lon="0.17893">
        <ele>133.2</ele>
        <time>2024-10-02T13:55:25Z</time>
      </trkpt>
      <trkpt lat="49.36189" lon="0.179">
        <ele>133.2</ele>
        <time>2024-10-02T13:55:26Z</time>
      </trkpt>
      <trkpt lat="49.36187" lon="0.17907">
        <ele>133.2</ele>
        <time>2024-10-02T13:55:27Z</time>
      </trkpt>
      <trkpt lat="49.36185" lon="0.17915">
        <ele>133.4</ele>
        <time>2024-10-02T13:55:28Z</time>
      </trkpt>
      <trkpt lat="49.36182" lon="0.17921">
        <ele>133.4</ele>
        <time>2024-10-02T13:55:29Z</time>
      </trkpt>
      <trkpt lat="49.3618" lon="0.17928">
        <ele>133.4</ele>
        <time>2024-10-02T13:55:30Z</time>
      </trkpt>
      <trkpt lat="49.36178" lon="0.17936">
        <ele>133.6</ele>
        <time>2024-10-02T13:55:31Z</time>
      </trkpt>
      <trkpt lat="49.36176" lon="0.17944">
        <ele>133.6</ele>
        <time>2024-10-02T13:55:32Z</time>
      </trkpt>
      <trkpt lat="49.36175" lon="0.17953">
        <ele>133.6</ele>
        <time>2024-10-02T13:55:33Z</time>
      </trkpt>
      <trkpt lat="49.36173" lon="0.17962">
        <ele>133.6</ele>
        <time>2024-10-02T13:55:34Z</time>
      </trkpt>
      <trkpt lat="49.36171" lon="0.1797">
        <ele>133.8</ele>
        <time>2024-10-02T13:55:35Z</time>
      </trkpt>
      <trkpt lat="49.36169" lon="0.1798">
        <ele>134</ele>
        <time>2024-10-02T13:55:36Z</time>
      </trkpt>
      <trkpt lat="49.36168" lon="0.17988">
        <ele>134.2</ele>
        <time>2024-10-02T13:55:37Z</time>
      </trkpt>
      <trkpt lat="49.36166" lon="0.17998">
        <ele>134.2</ele>
        <time>2024-10-02T13:55:38Z</time>
      </trkpt>
      <trkpt lat="49.36164" lon="0.18006">
        <ele>134.4</ele>
        <time>2024-10-02T13:55:39Z</time>
      </trkpt>
      <trkpt lat="49.36163" lon="0.18016">
        <ele>134.6</ele>
        <time>2024-10-02T13:55:40Z</time>
      </trkpt>
      <trkpt lat="49.36161" lon="0.18025">
        <ele>134.8</ele>
        <time>2024-10-02T13:55:41Z</time>
      </trkpt>
      <trkpt lat="49.3616" lon="0.18034">
        <ele>134.8</ele>
        <time>2024-10-02T13:55:42Z</time>
      </trkpt>
      <trkpt lat="49.36158" lon="0.18044">
        <ele>135</ele>
        <time>2024-10-02T13:55:43Z</time>
      </trkpt>
      <trkpt lat="49.36157" lon="0.18053">
        <ele>135</ele>
        <time>2024-10-02T13:55:44Z</time>
      </trkpt>
      <trkpt lat="49.36156" lon="0.18062">
        <ele>135.2</ele>
        <time>2024-10-02T13:55:45Z</time>
      </trkpt>
      <trkpt lat="49.36154" lon="0.18072">
        <ele>135.2</ele>
        <time>2024-10-02T13:55:46Z</time>
      </trkpt>
      <trkpt lat="49.36154" lon="0.18082">
        <ele>135.4</ele>
        <time>2024-10-02T13:55:47Z</time>
      </trkpt>
      <trkpt lat="49.36153" lon="0.18091">
        <ele>135.4</ele>
        <time>2024-10-02T13:55:48Z</time>
      </trkpt>
      <trkpt lat="49.36153" lon="0.18101">
        <ele>135.4</ele>
        <time>2024-10-02T13:55:49Z</time>
      </trkpt>
      <trkpt lat="49.36153" lon="0.1811">
        <ele>135.6</ele>
        <time>2024-10-02T13:55:50Z</time>
      </trkpt>
      <trkpt lat="49.36152" lon="0.1812">
        <ele>135.6</ele>
        <time>2024-10-02T13:55:51Z</time>
      </trkpt>
      <trkpt lat="49.36152" lon="0.18129">
        <ele>135.6</ele>
        <time>2024-10-02T13:55:52Z</time>
      </trkpt>
      <trkpt lat="49.36152" lon="0.18139">
        <ele>135.8</ele>
        <time>2024-10-02T13:55:53Z</time>
      </trkpt>
      <trkpt lat="49.36151" lon="0.18149">
        <ele>135.8</ele>
        <time>2024-10-02T13:55:54Z</time>
      </trkpt>
      <trkpt lat="49.36151" lon="0.18159">
        <ele>135.8</ele>
        <time>2024-10-02T13:55:55Z</time>
      </trkpt>
      <trkpt lat="49.3615" lon="0.18169">
        <ele>136</ele>
        <time>2024-10-02T13:55:56Z</time>
      </trkpt>
      <trkpt lat="49.36149" lon="0.18179">
        <ele>136</ele>
        <time>2024-10-02T13:55:57Z</time>
      </trkpt>
      <trkpt lat="49.36149" lon="0.18189">
        <ele>136.2</ele>
        <time>2024-10-02T13:55:58Z</time>
      </trkpt>
      <trkpt lat="49.36148" lon="0.18199">
        <ele>136.4</ele>
        <time>2024-10-02T13:55:59Z</time>
      </trkpt>
      <trkpt lat="49.36148" lon="0.18209">
        <ele>136.4</ele>
        <time>2024-10-02T13:56:00Z</time>
      </trkpt>
      <trkpt lat="49.36147" lon="0.18219">
        <ele>136.6</ele>
        <time>2024-10-02T13:56:01Z</time>
      </trkpt>
      <trkpt lat="49.36146" lon="0.18228">
        <ele>136.6</ele>
        <time>2024-10-02T13:56:02Z</time>
      </trkpt>
      <trkpt lat="49.36146" lon="0.18237">
        <ele>136.6</ele>
        <time>2024-10-02T13:56:03Z</time>
      </trkpt>
      <trkpt lat="49.36145" lon="0.18246">
        <ele>136.6</ele>
        <time>2024-10-02T13:56:04Z</time>
      </trkpt>
      <trkpt lat="49.36144" lon="0.18254">
        <ele>136.8</ele>
        <time>2024-10-02T13:56:05Z</time>
      </trkpt>
      <trkpt lat="49.36143" lon="0.18264">
        <ele>136.8</ele>
        <time>2024-10-02T13:56:06Z</time>
      </trkpt>
      <trkpt lat="49.36143" lon="0.18273">
        <ele>136.8</ele>
        <time>2024-10-02T13:56:07Z</time>
      </trkpt>
      <trkpt lat="49.36142" lon="0.18282">
        <ele>136.8</ele>
        <time>2024-10-02T13:56:08Z</time>
      </trkpt>
      <trkpt lat="49.36142" lon="0.18291">
        <ele>136.8</ele>
        <time>2024-10-02T13:56:09Z</time>
      </trkpt>
      <trkpt lat="49.36141" lon="0.183">
        <ele>136.8</ele>
        <time>2024-10-02T13:56:10Z</time>
      </trkpt>
      <trkpt lat="49.3614" lon="0.18308">
        <ele>137</ele>
        <time>2024-10-02T13:56:11Z</time>
      </trkpt>
      <trkpt lat="49.36139" lon="0.18317">
        <ele>137</ele>
        <time>2024-10-02T13:56:12Z</time>
      </trkpt>
      <trkpt lat="49.36138" lon="0.18325">
        <ele>137</ele>
        <time>2024-10-02T13:56:13Z</time>
      </trkpt>
      <trkpt lat="49.36138" lon="0.18332">
        <ele>137.2</ele>
        <time>2024-10-02T13:56:14Z</time>
      </trkpt>
      <trkpt lat="49.36137" lon="0.1834">
        <ele>137.4</ele>
        <time>2024-10-02T13:56:15Z</time>
      </trkpt>
      <trkpt lat="49.36136" lon="0.18347">
        <ele>137.8</ele>
        <time>2024-10-02T13:56:16Z</time>
      </trkpt>
      <trkpt lat="49.36135" lon="0.18355">
        <ele>138</ele>
        <time>2024-10-02T13:56:17Z</time>
      </trkpt>
      <trkpt lat="49.36134" lon="0.18362">
        <ele>138</ele>
        <time>2024-10-02T13:56:18Z</time>
      </trkpt>
      <trkpt lat="49.36132" lon="0.18368">
        <ele>138.2</ele>
        <time>2024-10-02T13:56:19Z</time>
      </trkpt>
      <trkpt lat="49.3613" lon="0.18373">
        <ele>138.2</ele>
        <time>2024-10-02T13:56:20Z</time>
      </trkpt>
      <trkpt lat="49.36125" lon="0.18375">
        <ele>138.2</ele>
        <time>2024-10-02T13:56:21Z</time>
      </trkpt>
      <trkpt lat="49.36121" lon="0.18375">
        <ele>138.2</ele>
        <time>2024-10-02T13:56:22Z</time>
      </trkpt>
      <trkpt lat="49.36116" lon="0.18373">
        <ele>138.4</ele>
        <time>2024-10-02T13:56:23Z</time>
      </trkpt>
      <trkpt lat="49.3611" lon="0.18368">
        <ele>138.4</ele>
        <time>2024-10-02T13:56:24Z</time>
      </trkpt>
      <trkpt lat="49.36107" lon="0.18363">
        <ele>138.6</ele>
        <time>2024-10-02T13:56:25Z</time>
      </trkpt>
      <trkpt lat="49.36102" lon="0.18358">
        <ele>138.8</ele>
        <time>2024-10-02T13:56:26Z</time>
      </trkpt>
      <trkpt lat="49.36095" lon="0.18352">
        <ele>139.2</ele>
        <time>2024-10-02T13:56:27Z</time>
      </trkpt>
      <trkpt lat="49.3609" lon="0.18348">
        <ele>139.4</ele>
        <time>2024-10-02T13:56:28Z</time>
      </trkpt>
      <trkpt lat="49.36084" lon="0.18344">
        <ele>139.6</ele>
        <time>2024-10-02T13:56:29Z</time>
      </trkpt>
      <trkpt lat="49.36079" lon="0.1834">
        <ele>139.8</ele>
        <time>2024-10-02T13:56:30Z</time>
      </trkpt>
      <trkpt lat="49.36073" lon="0.18336">
        <ele>140</ele>
        <time>2024-10-02T13:56:31Z</time>
      </trkpt>
      <trkpt lat="49.36068" lon="0.18332">
        <ele>140.2</ele>
        <time>2024-10-02T13:56:32Z</time>
      </trkpt>
      <trkpt lat="49.36064" lon="0.18328">
        <ele>140.2</ele>
        <time>2024-10-02T13:56:33Z</time>
      </trkpt>
      <trkpt lat="49.36057" lon="0.18323">
        <ele>140.2</ele>
        <time>2024-10-02T13:56:34Z</time>
      </trkpt>
      <trkpt lat="49.36053" lon="0.1832">
        <ele>140.2</ele>
        <time>2024-10-02T13:56:35Z</time>
      </trkpt>
      <trkpt lat="49.36048" lon="0.18316">
        <ele>140.2</ele>
        <time>2024-10-02T13:56:36Z</time>
      </trkpt>
      <trkpt lat="49.36043" lon="0.18312">
        <ele>140.4</ele>
        <time>2024-10-02T13:56:37Z</time>
      </trkpt>
      <trkpt lat="49.36037" lon="0.18309">
        <ele>140.4</ele>
        <time>2024-10-02T13:56:38Z</time>
      </trkpt>
      <trkpt lat="49.36031" lon="0.18305">
        <ele>140.4</ele>
        <time>2024-10-02T13:56:39Z</time>
      </trkpt>
      <trkpt lat="49.36025" lon="0.18302">
        <ele>140.4</ele>
        <time>2024-10-02T13:56:40Z</time>
      </trkpt>
      <trkpt lat="49.36019" lon="0.18299">
        <ele>140.4</ele>
        <time>2024-10-02T13:56:41Z</time>
      </trkpt>
      <trkpt lat="49.36013" lon="0.18296">
        <ele>140.4</ele>
        <time>2024-10-02T13:56:42Z</time>
      </trkpt>
      <trkpt lat="49.36007" lon="0.18293">
        <ele>140.4</ele>
        <time>2024-10-02T13:56:43Z</time>
      </trkpt>
      <trkpt lat="49.36" lon="0.1829">
        <ele>140.4</ele>
        <time>2024-10-02T13:56:44Z</time>
      </trkpt>
      <trkpt lat="49.35994" lon="0.18287">
        <ele>140.4</ele>
        <time>2024-10-02T13:56:45Z</time>
      </trkpt>
      <trkpt lat="49.35988" lon="0.18285">
        <ele>140.4</ele>
        <time>2024-10-02T13:56:46Z</time>
      </trkpt>
      <trkpt lat="49.35981" lon="0.18282">
        <ele>140.4</ele>
        <time>2024-10-02T13:56:47Z</time>
      </trkpt>
      <trkpt lat="49.35975" lon="0.18279">
        <ele>140.4</ele>
        <time>2024-10-02T13:56:48Z</time>
      </trkpt>
      <trkpt lat="49.35969" lon="0.18274">
        <ele>140.4</ele>
        <time>2024-10-02T13:56:49Z</time>
      </trkpt>
      <trkpt lat="49.35964" lon="0.18268">
        <ele>140.4</ele>
        <time>2024-10-02T13:56:50Z</time>
      </trkpt>
      <trkpt lat="49.35959" lon="0.18259">
        <ele>140.4</ele>
        <time>2024-10-02T13:56:51Z</time>
      </trkpt>
      <trkpt lat="49.35954" lon="0.1825">
        <ele>140.4</ele>
        <time>2024-10-02T13:56:52Z</time>
      </trkpt>
      <trkpt lat="49.35951" lon="0.18243">
        <ele>140.4</ele>
        <time>2024-10-02T13:56:53Z</time>
      </trkpt>
      <trkpt lat="49.35948" lon="0.18233">
        <ele>140.4</ele>
        <time>2024-10-02T13:56:54Z</time>
      </trkpt>
      <trkpt lat="49.35944" lon="0.18222">
        <ele>140.4</ele>
        <time>2024-10-02T13:56:55Z</time>
      </trkpt>
      <trkpt lat="49.35941" lon="0.1821">
        <ele>140.4</ele>
        <time>2024-10-02T13:56:56Z</time>
      </trkpt>
      <trkpt lat="49.35939" lon="0.18202">
        <ele>140.4</ele>
        <time>2024-10-02T13:56:57Z</time>
      </trkpt>
      <trkpt lat="49.35935" lon="0.18191">
        <ele>140.4</ele>
        <time>2024-10-02T13:56:58Z</time>
      </trkpt>
      <trkpt lat="49.35932" lon="0.18181">
        <ele>140.4</ele>
        <time>2024-10-02T13:56:59Z</time>
      </trkpt>
      <trkpt lat="49.35928" lon="0.18171">
        <ele>140.4</ele>
        <time>2024-10-02T13:57:00Z</time>
      </trkpt>
      <trkpt lat="49.35924" lon="0.18161">
        <ele>140.4</ele>
        <time>2024-10-02T13:57:01Z</time>
      </trkpt>
      <trkpt lat="49.3592" lon="0.18151">
        <ele>140.6</ele>
        <time>2024-10-02T13:57:02Z</time>
      </trkpt>
      <trkpt lat="49.35914" lon="0.1814">
        <ele>140.6</ele>
        <time>2024-10-02T13:57:03Z</time>
      </trkpt>
      <trkpt lat="49.35911" lon="0.18132">
        <ele>140.6</ele>
        <time>2024-10-02T13:57:04Z</time>
      </trkpt>
      <trkpt lat="49.35906" lon="0.18121">
        <ele>140.6</ele>
        <time>2024-10-02T13:57:05Z</time>
      </trkpt>
      <trkpt lat="49.35903" lon="0.18114">
        <ele>140.6</ele>
        <time>2024-10-02T13:57:06Z</time>
      </trkpt>
      <trkpt lat="49.359" lon="0.18104">
        <ele>140.8</ele>
        <time>2024-10-02T13:57:07Z</time>
      </trkpt>
      <trkpt lat="49.35895" lon="0.18095">
        <ele>140.8</ele>
        <time>2024-10-02T13:57:08Z</time>
      </trkpt>
      <trkpt lat="49.35891" lon="0.18083">
        <ele>140.8</ele>
        <time>2024-10-02T13:57:09Z</time>
      </trkpt>
      <trkpt lat="49.35888" lon="0.18075">
        <ele>140.8</ele>
        <time>2024-10-02T13:57:10Z</time>
      </trkpt>
      <trkpt lat="49.35883" lon="0.18063">
        <ele>140.8</ele>
        <time>2024-10-02T13:57:11Z</time>
      </trkpt>
      <trkpt lat="49.3588" lon="0.18055">
        <ele>140.8</ele>
        <time>2024-10-02T13:57:12Z</time>
      </trkpt>
      <trkpt lat="49.35876" lon="0.18046">
        <ele>140.8</ele>
        <time>2024-10-02T13:57:13Z</time>
      </trkpt>
      <trkpt lat="49.35872" lon="0.18037">
        <ele>140.8</ele>
        <time>2024-10-02T13:57:14Z</time>
      </trkpt>
      <trkpt lat="49.35867" lon="0.18027">
        <ele>140.8</ele>
        <time>2024-10-02T13:57:15Z</time>
      </trkpt>
      <trkpt lat="49.35862" lon="0.18017">
        <ele>140.8</ele>
        <time>2024-10-02T13:57:16Z</time>
      </trkpt>
      <trkpt lat="49.35858" lon="0.18007">
        <ele>140.6</ele>
        <time>2024-10-02T13:57:17Z</time>
      </trkpt>
      <trkpt lat="49.35853" lon="0.17998">
        <ele>140.6</ele>
        <time>2024-10-02T13:57:18Z</time>
      </trkpt>
      <trkpt lat="49.35849" lon="0.17988">
        <ele>140.6</ele>
        <time>2024-10-02T13:57:19Z</time>
      </trkpt>
      <trkpt lat="49.35844" lon="0.17978">
        <ele>140.6</ele>
        <time>2024-10-02T13:57:20Z</time>
      </trkpt>
      <trkpt lat="49.3584" lon="0.17968">
        <ele>140.6</ele>
        <time>2024-10-02T13:57:21Z</time>
      </trkpt>
      <trkpt lat="49.35836" lon="0.17958">
        <ele>140.4</ele>
        <time>2024-10-02T13:57:22Z</time>
      </trkpt>
      <trkpt lat="49.35832" lon="0.17947">
        <ele>140.4</ele>
        <time>2024-10-02T13:57:23Z</time>
      </trkpt>
      <trkpt lat="49.35827" lon="0.17937">
        <ele>140.4</ele>
        <time>2024-10-02T13:57:24Z</time>
      </trkpt>
      <trkpt lat="49.35822" lon="0.17924">
        <ele>140.4</ele>
        <time>2024-10-02T13:57:25Z</time>
      </trkpt>
      <trkpt lat="49.35819" lon="0.17916">
        <ele>140.4</ele>
        <time>2024-10-02T13:57:26Z</time>
      </trkpt>
      <trkpt lat="49.35814" lon="0.17905">
        <ele>140.4</ele>
        <time>2024-10-02T13:57:27Z</time>
      </trkpt>
      <trkpt lat="49.3581" lon="0.17895">
        <ele>140.4</ele>
        <time>2024-10-02T13:57:28Z</time>
      </trkpt>
      <trkpt lat="49.35806" lon="0.17884">
        <ele>140.4</ele>
        <time>2024-10-02T13:57:29Z</time>
      </trkpt>
      <trkpt lat="49.35802" lon="0.17874">
        <ele>140.4</ele>
        <time>2024-10-02T13:57:30Z</time>
      </trkpt>
      <trkpt lat="49.35797" lon="0.17864">
        <ele>140.4</ele>
        <time>2024-10-02T13:57:31Z</time>
      </trkpt>
      <trkpt lat="49.35793" lon="0.17853">
        <ele>140.4</ele>
        <time>2024-10-02T13:57:32Z</time>
      </trkpt>
      <trkpt lat="49.35789" lon="0.17843">
        <ele>140.4</ele>
        <time>2024-10-02T13:57:33Z</time>
      </trkpt>
      <trkpt lat="49.35784" lon="0.17833">
        <ele>140.6</ele>
        <time>2024-10-02T13:57:34Z</time>
      </trkpt>
      <trkpt lat="49.3578" lon="0.17822">
        <ele>140.6</ele>
        <time>2024-10-02T13:57:35Z</time>
      </trkpt>
      <trkpt lat="49.35776" lon="0.17812">
        <ele>140.6</ele>
        <time>2024-10-02T13:57:36Z</time>
      </trkpt>
      <trkpt lat="49.35771" lon="0.17801">
        <ele>140.6</ele>
        <time>2024-10-02T13:57:37Z</time>
      </trkpt>
      <trkpt lat="49.35767" lon="0.1779">
        <ele>140.6</ele>
        <time>2024-10-02T13:57:38Z</time>
      </trkpt>
      <trkpt lat="49.35763" lon="0.1778">
        <ele>140.6</ele>
        <time>2024-10-02T13:57:39Z</time>
      </trkpt>
      <trkpt lat="49.35758" lon="0.17769">
        <ele>140.6</ele>
        <time>2024-10-02T13:57:40Z</time>
      </trkpt>
      <trkpt lat="49.35753" lon="0.17756">
        <ele>140.6</ele>
        <time>2024-10-02T13:57:41Z</time>
      </trkpt>
      <trkpt lat="49.3575" lon="0.17747">
        <ele>140.8</ele>
        <time>2024-10-02T13:57:42Z</time>
      </trkpt>
      <trkpt lat="49.35746" lon="0.17736">
        <ele>140.8</ele>
        <time>2024-10-02T13:57:43Z</time>
      </trkpt>
      <trkpt lat="49.35742" lon="0.17725">
        <ele>140.8</ele>
        <time>2024-10-02T13:57:44Z</time>
      </trkpt>
      <trkpt lat="49.35739" lon="0.17713">
        <ele>140.8</ele>
        <time>2024-10-02T13:57:45Z</time>
      </trkpt>
      <trkpt lat="49.35736" lon="0.17702">
        <ele>140.8</ele>
        <time>2024-10-02T13:57:46Z</time>
      </trkpt>
      <trkpt lat="49.35733" lon="0.17689">
        <ele>140.8</ele>
        <time>2024-10-02T13:57:47Z</time>
      </trkpt>
      <trkpt lat="49.3573" lon="0.17677">
        <ele>141</ele>
        <time>2024-10-02T13:57:48Z</time>
      </trkpt>
      <trkpt lat="49.35727" lon="0.17665">
        <ele>141</ele>
        <time>2024-10-02T13:57:49Z</time>
      </trkpt>
      <trkpt lat="49.35724" lon="0.17652">
        <ele>141</ele>
        <time>2024-10-02T13:57:50Z</time>
      </trkpt>
      <trkpt lat="49.35722" lon="0.1764">
        <ele>141</ele>
        <time>2024-10-02T13:57:51Z</time>
      </trkpt>
      <trkpt lat="49.35719" lon="0.17627">
        <ele>141.2</ele>
        <time>2024-10-02T13:57:52Z</time>
      </trkpt>
      <trkpt lat="49.35717" lon="0.17615">
        <ele>141.4</ele>
        <time>2024-10-02T13:57:53Z</time>
      </trkpt>
      <trkpt lat="49.35714" lon="0.17603">
        <ele>141.4</ele>
        <time>2024-10-02T13:57:54Z</time>
      </trkpt>
      <trkpt lat="49.35712" lon="0.17591">
        <ele>141.4</ele>
        <time>2024-10-02T13:57:55Z</time>
      </trkpt>
      <trkpt lat="49.3571" lon="0.17579">
        <ele>141.4</ele>
        <time>2024-10-02T13:57:56Z</time>
      </trkpt>
      <trkpt lat="49.35707" lon="0.17567">
        <ele>141.6</ele>
        <time>2024-10-02T13:57:57Z</time>
      </trkpt>
      <trkpt lat="49.35705" lon="0.17555">
        <ele>141.6</ele>
        <time>2024-10-02T13:57:58Z</time>
      </trkpt>
      <trkpt lat="49.35702" lon="0.17543">
        <ele>141.8</ele>
        <time>2024-10-02T13:57:59Z</time>
      </trkpt>
      <trkpt lat="49.35699" lon="0.17532">
        <ele>141.8</ele>
        <time>2024-10-02T13:58:00Z</time>
      </trkpt>
      <trkpt lat="49.35697" lon="0.1752">
        <ele>141.8</ele>
        <time>2024-10-02T13:58:01Z</time>
      </trkpt>
      <trkpt lat="49.35694" lon="0.17508">
        <ele>141.8</ele>
        <time>2024-10-02T13:58:02Z</time>
      </trkpt>
      <trkpt lat="49.35691" lon="0.17497">
        <ele>141.8</ele>
        <time>2024-10-02T13:58:03Z</time>
      </trkpt>
      <trkpt lat="49.35688" lon="0.17485">
        <ele>141.8</ele>
        <time>2024-10-02T13:58:04Z</time>
      </trkpt>
      <trkpt lat="49.35685" lon="0.17473">
        <ele>142</ele>
        <time>2024-10-02T13:58:05Z</time>
      </trkpt>
      <trkpt lat="49.35682" lon="0.17461">
        <ele>142</ele>
        <time>2024-10-02T13:58:06Z</time>
      </trkpt>
      <trkpt lat="49.35679" lon="0.17449">
        <ele>142</ele>
        <time>2024-10-02T13:58:07Z</time>
      </trkpt>
      <trkpt lat="49.35676" lon="0.17437">
        <ele>142</ele>
        <time>2024-10-02T13:58:08Z</time>
      </trkpt>
      <trkpt lat="49.35674" lon="0.17426">
        <ele>142</ele>
        <time>2024-10-02T13:58:09Z</time>
      </trkpt>
      <trkpt lat="49.35671" lon="0.17414">
        <ele>142</ele>
        <time>2024-10-02T13:58:10Z</time>
      </trkpt>
      <trkpt lat="49.35668" lon="0.17402">
        <ele>142.2</ele>
        <time>2024-10-02T13:58:11Z</time>
      </trkpt>
      <trkpt lat="49.35665" lon="0.1739">
        <ele>142.2</ele>
        <time>2024-10-02T13:58:12Z</time>
      </trkpt>
      <trkpt lat="49.35663" lon="0.17378">
        <ele>142.2</ele>
        <time>2024-10-02T13:58:13Z</time>
      </trkpt>
      <trkpt lat="49.3566" lon="0.17366">
        <ele>142.2</ele>
        <time>2024-10-02T13:58:14Z</time>
      </trkpt>
      <trkpt lat="49.35658" lon="0.17355">
        <ele>142.2</ele>
        <time>2024-10-02T13:58:15Z</time>
      </trkpt>
      <trkpt lat="49.35654" lon="0.17343">
        <ele>142.4</ele>
        <time>2024-10-02T13:58:16Z</time>
      </trkpt>
      <trkpt lat="49.35651" lon="0.17332">
        <ele>142.4</ele>
        <time>2024-10-02T13:58:17Z</time>
      </trkpt>
      <trkpt lat="49.35647" lon="0.17321">
        <ele>142.4</ele>
        <time>2024-10-02T13:58:18Z</time>
      </trkpt>
      <trkpt lat="49.35643" lon="0.17311">
        <ele>142.4</ele>
        <time>2024-10-02T13:58:19Z</time>
      </trkpt>
      <trkpt lat="49.3564" lon="0.17301">
        <ele>142.4</ele>
        <time>2024-10-02T13:58:20Z</time>
      </trkpt>
      <trkpt lat="49.35636" lon="0.17291">
        <ele>142.4</ele>
        <time>2024-10-02T13:58:21Z</time>
      </trkpt>
      <trkpt lat="49.35633" lon="0.1728">
        <ele>142.4</ele>
        <time>2024-10-02T13:58:22Z</time>
      </trkpt>
      <trkpt lat="49.3563" lon="0.1727">
        <ele>142.4</ele>
        <time>2024-10-02T13:58:23Z</time>
      </trkpt>
      <trkpt lat="49.35627" lon="0.17259">
        <ele>142.4</ele>
        <time>2024-10-02T13:58:24Z</time>
      </trkpt>
      <trkpt lat="49.35623" lon="0.17249">
        <ele>142.6</ele>
        <time>2024-10-02T13:58:25Z</time>
      </trkpt>
      <trkpt lat="49.35619" lon="0.17239">
        <ele>142.6</ele>
        <time>2024-10-02T13:58:26Z</time>
      </trkpt>
      <trkpt lat="49.35616" lon="0.17229">
        <ele>142.6</ele>
        <time>2024-10-02T13:58:27Z</time>
      </trkpt>
      <trkpt lat="49.35611" lon="0.17217">
        <ele>142.8</ele>
        <time>2024-10-02T13:58:28Z</time>
      </trkpt>
      <trkpt lat="49.35607" lon="0.1721">
        <ele>142.8</ele>
        <time>2024-10-02T13:58:29Z</time>
      </trkpt>
      <trkpt lat="49.35602" lon="0.17202">
        <ele>142.8</ele>
        <time>2024-10-02T13:58:30Z</time>
      </trkpt>
      <trkpt lat="49.35596" lon="0.17195">
        <ele>142.8</ele>
        <time>2024-10-02T13:58:31Z</time>
      </trkpt>
      <trkpt lat="49.3559" lon="0.17189">
        <ele>142.8</ele>
        <time>2024-10-02T13:58:32Z</time>
      </trkpt>
      <trkpt lat="49.35585" lon="0.17183">
        <ele>143</ele>
        <time>2024-10-02T13:58:33Z</time>
      </trkpt>
      <trkpt lat="49.3558" lon="0.17178">
        <ele>143</ele>
        <time>2024-10-02T13:58:34Z</time>
      </trkpt>
      <trkpt lat="49.35575" lon="0.17173">
        <ele>143</ele>
        <time>2024-10-02T13:58:35Z</time>
      </trkpt>
      <trkpt lat="49.3557" lon="0.17168">
        <ele>143.2</ele>
        <time>2024-10-02T13:58:36Z</time>
      </trkpt>
      <trkpt lat="49.35566" lon="0.17163">
        <ele>143.2</ele>
        <time>2024-10-02T13:58:37Z</time>
      </trkpt>
      <trkpt lat="49.35562" lon="0.17158">
        <ele>143.4</ele>
        <time>2024-10-02T13:58:38Z</time>
      </trkpt>
      <trkpt lat="49.35559" lon="0.17152">
        <ele>143.4</ele>
        <time>2024-10-02T13:58:39Z</time>
      </trkpt>
      <trkpt lat="49.35556" lon="0.17146">
        <ele>143.4</ele>
        <time>2024-10-02T13:58:40Z</time>
      </trkpt>
      <trkpt lat="49.35553" lon="0.17139">
        <ele>143.6</ele>
        <time>2024-10-02T13:58:41Z</time>
      </trkpt>
      <trkpt lat="49.35551" lon="0.17133">
        <ele>143.8</ele>
        <time>2024-10-02T13:58:42Z</time>
      </trkpt>
      <trkpt lat="49.3555" lon="0.17126">
        <ele>143.8</ele>
        <time>2024-10-02T13:58:43Z</time>
      </trkpt>
      <trkpt lat="49.35549" lon="0.17119">
        <ele>143.8</ele>
        <time>2024-10-02T13:58:44Z</time>
      </trkpt>
      <trkpt lat="49.35548" lon="0.17113">
        <ele>144</ele>
        <time>2024-10-02T13:58:45Z</time>
      </trkpt>
      <trkpt lat="49.35547" lon="0.17108">
        <ele>144</ele>
        <time>2024-10-02T13:58:46Z</time>
      </trkpt>
      <trkpt lat="49.35547" lon="0.17103">
        <ele>144</ele>
        <time>2024-10-02T13:58:47Z</time>
      </trkpt>
      <trkpt lat="49.35546" lon="0.171">
        <ele>144.2</ele>
        <time>2024-10-02T13:58:48Z</time>
      </trkpt>
      <trkpt lat="49.35546" lon="0.17098">
        <ele>144.2</ele>
        <time>2024-10-02T13:58:49Z</time>
      </trkpt>
      <trkpt lat="49.35545" lon="0.17096">
        <ele>144.2</ele>
        <time>2024-10-02T13:58:50Z</time>
      </trkpt>
      <trkpt lat="49.35545" lon="0.17096">
        <ele>144.4</ele>
        <time>2024-10-02T13:58:51Z</time>
      </trkpt>
      <trkpt lat="49.35544" lon="0.17095">
        <ele>144.4</ele>
        <time>2024-10-02T13:58:52Z</time>
      </trkpt>
      <trkpt lat="49.35544" lon="0.17085">
        <ele>144.8</ele>
        <time>2024-10-02T13:59:04Z</time>
      </trkpt>
      <trkpt lat="49.35544" lon="0.17082">
        <ele>144.8</ele>
        <time>2024-10-02T13:59:05Z</time>
      </trkpt>
      <trkpt lat="49.35543" lon="0.17078">
        <ele>144.8</ele>
        <time>2024-10-02T13:59:06Z</time>
      </trkpt>
      <trkpt lat="49.35542" lon="0.17073">
        <ele>144.6</ele>
        <time>2024-10-02T13:59:07Z</time>
      </trkpt>
      <trkpt lat="49.3554" lon="0.17068">
        <ele>144.6</ele>
        <time>2024-10-02T13:59:08Z</time>
      </trkpt>
      <trkpt lat="49.35537" lon="0.17063">
        <ele>144.6</ele>
        <time>2024-10-02T13:59:09Z</time>
      </trkpt>
      <trkpt lat="49.35534" lon="0.17057">
        <ele>144.6</ele>
        <time>2024-10-02T13:59:10Z</time>
      </trkpt>
      <trkpt lat="49.35531" lon="0.17051">
        <ele>144.6</ele>
        <time>2024-10-02T13:59:11Z</time>
      </trkpt>
      <trkpt lat="49.35528" lon="0.17045">
        <ele>144.6</ele>
        <time>2024-10-02T13:59:12Z</time>
      </trkpt>
      <trkpt lat="49.35525" lon="0.17038">
        <ele>144.4</ele>
        <time>2024-10-02T13:59:13Z</time>
      </trkpt>
      <trkpt lat="49.35522" lon="0.17031">
        <ele>144.4</ele>
        <time>2024-10-02T13:59:14Z</time>
      </trkpt>
      <trkpt lat="49.35519" lon="0.17023">
        <ele>144.4</ele>
        <time>2024-10-02T13:59:15Z</time>
      </trkpt>
      <trkpt lat="49.35515" lon="0.17015">
        <ele>144.4</ele>
        <time>2024-10-02T13:59:16Z</time>
      </trkpt>
      <trkpt lat="49.35512" lon="0.17007">
        <ele>144.4</ele>
        <time>2024-10-02T13:59:17Z</time>
      </trkpt>
      <trkpt lat="49.35508" lon="0.16999">
        <ele>144.4</ele>
        <time>2024-10-02T13:59:18Z</time>
      </trkpt>
      <trkpt lat="49.35504" lon="0.1699">
        <ele>144.2</ele>
        <time>2024-10-02T13:59:19Z</time>
      </trkpt>
      <trkpt lat="49.35501" lon="0.1698">
        <ele>144.2</ele>
        <time>2024-10-02T13:59:20Z</time>
      </trkpt>
      <trkpt lat="49.35497" lon="0.16971">
        <ele>144.2</ele>
        <time>2024-10-02T13:59:21Z</time>
      </trkpt>
      <trkpt lat="49.35493" lon="0.16962">
        <ele>144.2</ele>
        <time>2024-10-02T13:59:22Z</time>
      </trkpt>
      <trkpt lat="49.35488" lon="0.16953">
        <ele>144.2</ele>
        <time>2024-10-02T13:59:23Z</time>
      </trkpt>
      <trkpt lat="49.35484" lon="0.16944">
        <ele>144.2</ele>
        <time>2024-10-02T13:59:24Z</time>
      </trkpt>
      <trkpt lat="49.3548" lon="0.16935">
        <ele>144</ele>
        <time>2024-10-02T13:59:25Z</time>
      </trkpt>
      <trkpt lat="49.35476" lon="0.16926">
        <ele>144</ele>
        <time>2024-10-02T13:59:26Z</time>
      </trkpt>
      <trkpt lat="49.35472" lon="0.16916">
        <ele>144</ele>
        <time>2024-10-02T13:59:27Z</time>
      </trkpt>
      <trkpt lat="49.35468" lon="0.16907">
        <ele>144</ele>
        <time>2024-10-02T13:59:28Z</time>
      </trkpt>
      <trkpt lat="49.35464" lon="0.16899">
        <ele>144</ele>
        <time>2024-10-02T13:59:29Z</time>
      </trkpt>
      <trkpt lat="49.3546" lon="0.1689">
        <ele>144</ele>
        <time>2024-10-02T13:59:30Z</time>
      </trkpt>
      <trkpt lat="49.35457" lon="0.16882">
        <ele>144</ele>
        <time>2024-10-02T13:59:31Z</time>
      </trkpt>
      <trkpt lat="49.35454" lon="0.16873">
        <ele>144</ele>
        <time>2024-10-02T13:59:32Z</time>
      </trkpt>
      <trkpt lat="49.3545" lon="0.16865">
        <ele>144</ele>
        <time>2024-10-02T13:59:33Z</time>
      </trkpt>
      <trkpt lat="49.35446" lon="0.16856">
        <ele>143.8</ele>
        <time>2024-10-02T13:59:34Z</time>
      </trkpt>
      <trkpt lat="49.35443" lon="0.16846">
        <ele>143.8</ele>
        <time>2024-10-02T13:59:35Z</time>
      </trkpt>
      <trkpt lat="49.35439" lon="0.16837">
        <ele>143.8</ele>
        <time>2024-10-02T13:59:36Z</time>
      </trkpt>
      <trkpt lat="49.35435" lon="0.16828">
        <ele>143.8</ele>
        <time>2024-10-02T13:59:37Z</time>
      </trkpt>
      <trkpt lat="49.35431" lon="0.16819">
        <ele>143.8</ele>
        <time>2024-10-02T13:59:38Z</time>
      </trkpt>
      <trkpt lat="49.35427" lon="0.16809">
        <ele>143.8</ele>
        <time>2024-10-02T13:59:39Z</time>
      </trkpt>
      <trkpt lat="49.35423" lon="0.168">
        <ele>143.8</ele>
        <time>2024-10-02T13:59:40Z</time>
      </trkpt>
      <trkpt lat="49.35419" lon="0.16791">
        <ele>143.8</ele>
        <time>2024-10-02T13:59:41Z</time>
      </trkpt>
      <trkpt lat="49.35415" lon="0.16782">
        <ele>143.8</ele>
        <time>2024-10-02T13:59:42Z</time>
      </trkpt>
      <trkpt lat="49.3541" lon="0.16772">
        <ele>143.8</ele>
        <time>2024-10-02T13:59:43Z</time>
      </trkpt>
      <trkpt lat="49.35406" lon="0.16762">
        <ele>143.8</ele>
        <time>2024-10-02T13:59:44Z</time>
      </trkpt>
      <trkpt lat="49.35401" lon="0.16752">
        <ele>143.8</ele>
        <time>2024-10-02T13:59:45Z</time>
      </trkpt>
      <trkpt lat="49.35396" lon="0.16741">
        <ele>144</ele>
        <time>2024-10-02T13:59:46Z</time>
      </trkpt>
      <trkpt lat="49.35391" lon="0.16731">
        <ele>144</ele>
        <time>2024-10-02T13:59:47Z</time>
      </trkpt>
      <trkpt lat="49.35386" lon="0.1672">
        <ele>144.2</ele>
        <time>2024-10-02T13:59:48Z</time>
      </trkpt>
      <trkpt lat="49.35382" lon="0.16709">
        <ele>144.2</ele>
        <time>2024-10-02T13:59:49Z</time>
      </trkpt>
      <trkpt lat="49.35377" lon="0.16698">
        <ele>144.2</ele>
        <time>2024-10-02T13:59:50Z</time>
      </trkpt>
      <trkpt lat="49.35372" lon="0.16687">
        <ele>144.2</ele>
        <time>2024-10-02T13:59:51Z</time>
      </trkpt>
      <trkpt lat="49.35368" lon="0.16676">
        <ele>144.2</ele>
        <time>2024-10-02T13:59:52Z</time>
      </trkpt>
      <trkpt lat="49.35363" lon="0.16664">
        <ele>144.2</ele>
        <time>2024-10-02T13:59:53Z</time>
      </trkpt>
      <trkpt lat="49.35358" lon="0.16653">
        <ele>144.2</ele>
        <time>2024-10-02T13:59:54Z</time>
      </trkpt>
      <trkpt lat="49.35354" lon="0.16642">
        <ele>144.2</ele>
        <time>2024-10-02T13:59:55Z</time>
      </trkpt>
      <trkpt lat="49.35349" lon="0.1663">
        <ele>144.2</ele>
        <time>2024-10-02T13:59:56Z</time>
      </trkpt>
      <trkpt lat="49.35344" lon="0.1662">
        <ele>144.2</ele>
        <time>2024-10-02T13:59:57Z</time>
      </trkpt>
      <trkpt lat="49.3534" lon="0.16609">
        <ele>144.2</ele>
        <time>2024-10-02T13:59:58Z</time>
      </trkpt>
      <trkpt lat="49.35335" lon="0.16598">
        <ele>144.2</ele>
        <time>2024-10-02T13:59:59Z</time>
      </trkpt>
      <trkpt lat="49.35331" lon="0.16588">
        <ele>144.2</ele>
        <time>2024-10-02T14:00:00Z</time>
      </trkpt>
      <trkpt lat="49.35326" lon="0.16577">
        <ele>144</ele>
        <time>2024-10-02T14:00:01Z</time>
      </trkpt>
      <trkpt lat="49.35322" lon="0.16566">
        <ele>143.8</ele>
        <time>2024-10-02T14:00:02Z</time>
      </trkpt>
      <trkpt lat="49.35317" lon="0.16555">
        <ele>143.8</ele>
        <time>2024-10-02T14:00:03Z</time>
      </trkpt>
      <trkpt lat="49.35312" lon="0.16544">
        <ele>143.6</ele>
        <time>2024-10-02T14:00:04Z</time>
      </trkpt>
      <trkpt lat="49.35308" lon="0.16533">
        <ele>143.4</ele>
        <time>2024-10-02T14:00:05Z</time>
      </trkpt>
      <trkpt lat="49.35303" lon="0.16522">
        <ele>143.2</ele>
        <time>2024-10-02T14:00:06Z</time>
      </trkpt>
      <trkpt lat="49.35299" lon="0.16512">
        <ele>143</ele>
        <time>2024-10-02T14:00:07Z</time>
      </trkpt>
      <trkpt lat="49.35294" lon="0.16501">
        <ele>143</ele>
        <time>2024-10-02T14:00:08Z</time>
      </trkpt>
      <trkpt lat="49.35289" lon="0.16489">
        <ele>143</ele>
        <time>2024-10-02T14:00:09Z</time>
      </trkpt>
      <trkpt lat="49.35285" lon="0.16478">
        <ele>142.8</ele>
        <time>2024-10-02T14:00:10Z</time>
      </trkpt>
      <trkpt lat="49.3528" lon="0.16466">
        <ele>142.8</ele>
        <time>2024-10-02T14:00:11Z</time>
      </trkpt>
      <trkpt lat="49.35275" lon="0.16454">
        <ele>142.8</ele>
        <time>2024-10-02T14:00:12Z</time>
      </trkpt>
      <trkpt lat="49.3527" lon="0.16442">
        <ele>142.6</ele>
        <time>2024-10-02T14:00:13Z</time>
      </trkpt>
      <trkpt lat="49.35264" lon="0.1643">
        <ele>142.2</ele>
        <time>2024-10-02T14:00:14Z</time>
      </trkpt>
      <trkpt lat="49.35259" lon="0.16418">
        <ele>141.8</ele>
        <time>2024-10-02T14:00:15Z</time>
      </trkpt>
      <trkpt lat="49.35254" lon="0.16406">
        <ele>141.6</ele>
        <time>2024-10-02T14:00:16Z</time>
      </trkpt>
      <trkpt lat="49.35248" lon="0.16393">
        <ele>141.6</ele>
        <time>2024-10-02T14:00:17Z</time>
      </trkpt>
      <trkpt lat="49.35242" lon="0.16381">
        <ele>141.4</ele>
        <time>2024-10-02T14:00:18Z</time>
      </trkpt>
      <trkpt lat="49.35237" lon="0.16369">
        <ele>141.4</ele>
        <time>2024-10-02T14:00:19Z</time>
      </trkpt>
      <trkpt lat="49.35231" lon="0.16356">
        <ele>141.2</ele>
        <time>2024-10-02T14:00:20Z</time>
      </trkpt>
      <trkpt lat="49.35226" lon="0.16343">
        <ele>141.2</ele>
        <time>2024-10-02T14:00:21Z</time>
      </trkpt>
      <trkpt lat="49.3522" lon="0.1633">
        <ele>141</ele>
        <time>2024-10-02T14:00:22Z</time>
      </trkpt>
      <trkpt lat="49.35215" lon="0.16317">
        <ele>140.6</ele>
        <time>2024-10-02T14:00:23Z</time>
      </trkpt>
      <trkpt lat="49.3521" lon="0.16304">
        <ele>140.4</ele>
        <time>2024-10-02T14:00:24Z</time>
      </trkpt>
      <trkpt lat="49.35206" lon="0.16291">
        <ele>140.2</ele>
        <time>2024-10-02T14:00:25Z</time>
      </trkpt>
      <trkpt lat="49.35201" lon="0.16279">
        <ele>139.8</ele>
        <time>2024-10-02T14:00:26Z</time>
      </trkpt>
      <trkpt lat="49.35196" lon="0.16267">
        <ele>139.4</ele>
        <time>2024-10-02T14:00:27Z</time>
      </trkpt>
      <trkpt lat="49.35191" lon="0.16254">
        <ele>139</ele>
        <time>2024-10-02T14:00:28Z</time>
      </trkpt>
      <trkpt lat="49.35186" lon="0.16243">
        <ele>138.6</ele>
        <time>2024-10-02T14:00:29Z</time>
      </trkpt>
      <trkpt lat="49.35181" lon="0.16231">
        <ele>138.4</ele>
        <time>2024-10-02T14:00:30Z</time>
      </trkpt>
      <trkpt lat="49.35176" lon="0.16219">
        <ele>138</ele>
        <time>2024-10-02T14:00:31Z</time>
      </trkpt>
      <trkpt lat="49.35171" lon="0.16207">
        <ele>138</ele>
        <time>2024-10-02T14:00:32Z</time>
      </trkpt>
      <trkpt lat="49.35165" lon="0.16195">
        <ele>138</ele>
        <time>2024-10-02T14:00:33Z</time>
      </trkpt>
      <trkpt lat="49.35159" lon="0.16181">
        <ele>137.8</ele>
        <time>2024-10-02T14:00:34Z</time>
      </trkpt>
      <trkpt lat="49.35154" lon="0.16171">
        <ele>137.8</ele>
        <time>2024-10-02T14:00:35Z</time>
      </trkpt>
      <trkpt lat="49.35149" lon="0.16158">
        <ele>137.8</ele>
        <time>2024-10-02T14:00:36Z</time>
      </trkpt>
      <trkpt lat="49.35143" lon="0.16146">
        <ele>137.6</ele>
        <time>2024-10-02T14:00:37Z</time>
      </trkpt>
      <trkpt lat="49.35138" lon="0.16134">
        <ele>137.6</ele>
        <time>2024-10-02T14:00:38Z</time>
      </trkpt>
      <trkpt lat="49.35133" lon="0.16121">
        <ele>137.6</ele>
        <time>2024-10-02T14:00:39Z</time>
      </trkpt>
      <trkpt lat="49.35127" lon="0.16109">
        <ele>137.6</ele>
        <time>2024-10-02T14:00:40Z</time>
      </trkpt>
      <trkpt lat="49.35123" lon="0.16097">
        <ele>137.4</ele>
        <time>2024-10-02T14:00:41Z</time>
      </trkpt>
      <trkpt lat="49.35118" lon="0.16085">
        <ele>137.4</ele>
        <time>2024-10-02T14:00:42Z</time>
      </trkpt>
      <trkpt lat="49.35113" lon="0.16073">
        <ele>137.4</ele>
        <time>2024-10-02T14:00:43Z</time>
      </trkpt>
      <trkpt lat="49.35108" lon="0.16061">
        <ele>137.4</ele>
        <time>2024-10-02T14:00:44Z</time>
      </trkpt>
      <trkpt lat="49.35103" lon="0.1605">
        <ele>137.4</ele>
        <time>2024-10-02T14:00:45Z</time>
      </trkpt>
      <trkpt lat="49.35098" lon="0.16039">
        <ele>137.4</ele>
        <time>2024-10-02T14:00:46Z</time>
      </trkpt>
      <trkpt lat="49.35094" lon="0.16027">
        <ele>137.4</ele>
        <time>2024-10-02T14:00:47Z</time>
      </trkpt>
      <trkpt lat="49.35089" lon="0.16016">
        <ele>137.4</ele>
        <time>2024-10-02T14:00:48Z</time>
      </trkpt>
      <trkpt lat="49.35085" lon="0.16005">
        <ele>137.4</ele>
        <time>2024-10-02T14:00:49Z</time>
      </trkpt>
      <trkpt lat="49.3508" lon="0.15994">
        <ele>137.6</ele>
        <time>2024-10-02T14:00:50Z</time>
      </trkpt>
      <trkpt lat="49.35075" lon="0.15982">
        <ele>137.6</ele>
        <time>2024-10-02T14:00:51Z</time>
      </trkpt>
      <trkpt lat="49.35069" lon="0.15971">
        <ele>137.6</ele>
        <time>2024-10-02T14:00:52Z</time>
      </trkpt>
      <trkpt lat="49.35064" lon="0.1596">
        <ele>137.6</ele>
        <time>2024-10-02T14:00:53Z</time>
      </trkpt>
      <trkpt lat="49.35058" lon="0.15948">
        <ele>137.8</ele>
        <time>2024-10-02T14:00:54Z</time>
      </trkpt>
      <trkpt lat="49.35053" lon="0.15937">
        <ele>137.8</ele>
        <time>2024-10-02T14:00:55Z</time>
      </trkpt>
      <trkpt lat="49.35048" lon="0.15925">
        <ele>137.8</ele>
        <time>2024-10-02T14:00:56Z</time>
      </trkpt>
      <trkpt lat="49.35044" lon="0.15914">
        <ele>137.8</ele>
        <time>2024-10-02T14:00:57Z</time>
      </trkpt>
      <trkpt lat="49.35039" lon="0.15903">
        <ele>137.8</ele>
        <time>2024-10-02T14:00:58Z</time>
      </trkpt>
      <trkpt lat="49.35034" lon="0.15891">
        <ele>137.8</ele>
        <time>2024-10-02T14:00:59Z</time>
      </trkpt>
      <trkpt lat="49.35029" lon="0.15879">
        <ele>137.8</ele>
        <time>2024-10-02T14:01:00Z</time>
      </trkpt>
      <trkpt lat="49.35024" lon="0.15867">
        <ele>137.8</ele>
        <time>2024-10-02T14:01:01Z</time>
      </trkpt>
      <trkpt lat="49.35019" lon="0.15855">
        <ele>137.8</ele>
        <time>2024-10-02T14:01:02Z</time>
      </trkpt>
      <trkpt lat="49.35014" lon="0.15844">
        <ele>137.8</ele>
        <time>2024-10-02T14:01:03Z</time>
      </trkpt>
      <trkpt lat="49.35008" lon="0.15832">
        <ele>137.8</ele>
        <time>2024-10-02T14:01:04Z</time>
      </trkpt>
      <trkpt lat="49.35003" lon="0.1582">
        <ele>137.8</ele>
        <time>2024-10-02T14:01:05Z</time>
      </trkpt>
      <trkpt lat="49.34998" lon="0.15808">
        <ele>137.8</ele>
        <time>2024-10-02T14:01:06Z</time>
      </trkpt>
      <trkpt lat="49.34993" lon="0.15797">
        <ele>137.8</ele>
        <time>2024-10-02T14:01:07Z</time>
      </trkpt>
      <trkpt lat="49.34988" lon="0.15786">
        <ele>137.8</ele>
        <time>2024-10-02T14:01:08Z</time>
      </trkpt>
      <trkpt lat="49.34983" lon="0.15774">
        <ele>137.8</ele>
        <time>2024-10-02T14:01:09Z</time>
      </trkpt>
      <trkpt lat="49.34978" lon="0.15762">
        <ele>137.6</ele>
        <time>2024-10-02T14:01:10Z</time>
      </trkpt>
      <trkpt lat="49.34973" lon="0.1575">
        <ele>137.6</ele>
        <time>2024-10-02T14:01:11Z</time>
      </trkpt>
      <trkpt lat="49.34968" lon="0.15739">
        <ele>137.4</ele>
        <time>2024-10-02T14:01:12Z</time>
      </trkpt>
      <trkpt lat="49.34963" lon="0.15728">
        <ele>137.4</ele>
        <time>2024-10-02T14:01:13Z</time>
      </trkpt>
      <trkpt lat="49.34959" lon="0.15716">
        <ele>137.2</ele>
        <time>2024-10-02T14:01:14Z</time>
      </trkpt>
      <trkpt lat="49.34954" lon="0.15704">
        <ele>137.2</ele>
        <time>2024-10-02T14:01:15Z</time>
      </trkpt>
      <trkpt lat="49.34949" lon="0.15693">
        <ele>137.2</ele>
        <time>2024-10-02T14:01:16Z</time>
      </trkpt>
      <trkpt lat="49.34944" lon="0.15681">
        <ele>137.2</ele>
        <time>2024-10-02T14:01:17Z</time>
      </trkpt>
      <trkpt lat="49.34939" lon="0.15669">
        <ele>137.2</ele>
        <time>2024-10-02T14:01:18Z</time>
      </trkpt>
      <trkpt lat="49.34933" lon="0.15658">
        <ele>137.2</ele>
        <time>2024-10-02T14:01:19Z</time>
      </trkpt>
      <trkpt lat="49.34927" lon="0.15646">
        <ele>137.2</ele>
        <time>2024-10-02T14:01:20Z</time>
      </trkpt>
      <trkpt lat="49.34922" lon="0.15635">
        <ele>137.2</ele>
        <time>2024-10-02T14:01:21Z</time>
      </trkpt>
      <trkpt lat="49.34917" lon="0.15623">
        <ele>137</ele>
        <time>2024-10-02T14:01:22Z</time>
      </trkpt>
      <trkpt lat="49.34912" lon="0.15612">
        <ele>137</ele>
        <time>2024-10-02T14:01:23Z</time>
      </trkpt>
      <trkpt lat="49.34907" lon="0.156">
        <ele>137</ele>
        <time>2024-10-02T14:01:24Z</time>
      </trkpt>
      <trkpt lat="49.34902" lon="0.15588">
        <ele>137</ele>
        <time>2024-10-02T14:01:25Z</time>
      </trkpt>
      <trkpt lat="49.34898" lon="0.15579">
        <ele>137</ele>
        <time>2024-10-02T14:01:26Z</time>
      </trkpt>
      <trkpt lat="49.34892" lon="0.15565">
        <ele>136.8</ele>
        <time>2024-10-02T14:01:27Z</time>
      </trkpt>
      <trkpt lat="49.34887" lon="0.15553">
        <ele>136.8</ele>
        <time>2024-10-02T14:01:28Z</time>
      </trkpt>
      <trkpt lat="49.34882" lon="0.15541">
        <ele>136.6</ele>
        <time>2024-10-02T14:01:29Z</time>
      </trkpt>
      <trkpt lat="49.34877" lon="0.15529">
        <ele>136.6</ele>
        <time>2024-10-02T14:01:30Z</time>
      </trkpt>
      <trkpt lat="49.34871" lon="0.15517">
        <ele>136.6</ele>
        <time>2024-10-02T14:01:31Z</time>
      </trkpt>
      <trkpt lat="49.34866" lon="0.15505">
        <ele>136.4</ele>
        <time>2024-10-02T14:01:32Z</time>
      </trkpt>
      <trkpt lat="49.34861" lon="0.15494">
        <ele>136.4</ele>
        <time>2024-10-02T14:01:33Z</time>
      </trkpt>
      <trkpt lat="49.34856" lon="0.15481">
        <ele>136.4</ele>
        <time>2024-10-02T14:01:34Z</time>
      </trkpt>
      <trkpt lat="49.3485" lon="0.15469">
        <ele>136.4</ele>
        <time>2024-10-02T14:01:35Z</time>
      </trkpt>
      <trkpt lat="49.34845" lon="0.15456">
        <ele>136.4</ele>
        <time>2024-10-02T14:01:36Z</time>
      </trkpt>
      <trkpt lat="49.34839" lon="0.15443">
        <ele>136.2</ele>
        <time>2024-10-02T14:01:37Z</time>
      </trkpt>
      <trkpt lat="49.34833" lon="0.1543">
        <ele>136.2</ele>
        <time>2024-10-02T14:01:38Z</time>
      </trkpt>
      <trkpt lat="49.34827" lon="0.15417">
        <ele>136.2</ele>
        <time>2024-10-02T14:01:39Z</time>
      </trkpt>
      <trkpt lat="49.34822" lon="0.15404">
        <ele>136.2</ele>
        <time>2024-10-02T14:01:40Z</time>
      </trkpt>
      <trkpt lat="49.34816" lon="0.15392">
        <ele>136.2</ele>
        <time>2024-10-02T14:01:41Z</time>
      </trkpt>
      <trkpt lat="49.34811" lon="0.1538">
        <ele>136.2</ele>
        <time>2024-10-02T14:01:42Z</time>
      </trkpt>
      <trkpt lat="49.34806" lon="0.15367">
        <ele>136.2</ele>
        <time>2024-10-02T14:01:43Z</time>
      </trkpt>
      <trkpt lat="49.34801" lon="0.15355">
        <ele>136.2</ele>
        <time>2024-10-02T14:01:44Z</time>
      </trkpt>
      <trkpt lat="49.34795" lon="0.15343">
        <ele>136.2</ele>
        <time>2024-10-02T14:01:45Z</time>
      </trkpt>
      <trkpt lat="49.3479" lon="0.15331">
        <ele>136.2</ele>
        <time>2024-10-02T14:01:46Z</time>
      </trkpt>
      <trkpt lat="49.34784" lon="0.1532">
        <ele>136.2</ele>
        <time>2024-10-02T14:01:47Z</time>
      </trkpt>
      <trkpt lat="49.34779" lon="0.15308">
        <ele>136.2</ele>
        <time>2024-10-02T14:01:48Z</time>
      </trkpt>
      <trkpt lat="49.34774" lon="0.15296">
        <ele>136.2</ele>
        <time>2024-10-02T14:01:49Z</time>
      </trkpt>
      <trkpt lat="49.34769" lon="0.15284">
        <ele>136.2</ele>
        <time>2024-10-02T14:01:50Z</time>
      </trkpt>
      <trkpt lat="49.34764" lon="0.15273">
        <ele>136.2</ele>
        <time>2024-10-02T14:01:51Z</time>
      </trkpt>
      <trkpt lat="49.34759" lon="0.15261">
        <ele>136.2</ele>
        <time>2024-10-02T14:01:52Z</time>
      </trkpt>
      <trkpt lat="49.34754" lon="0.15249">
        <ele>136.2</ele>
        <time>2024-10-02T14:01:53Z</time>
      </trkpt>
      <trkpt lat="49.34749" lon="0.15235">
        <ele>136.2</ele>
        <time>2024-10-02T14:01:54Z</time>
      </trkpt>
      <trkpt lat="49.34745" lon="0.15225">
        <ele>136.2</ele>
        <time>2024-10-02T14:01:55Z</time>
      </trkpt>
      <trkpt lat="49.3474" lon="0.15213">
        <ele>136.4</ele>
        <time>2024-10-02T14:01:56Z</time>
      </trkpt>
      <trkpt lat="49.34735" lon="0.15202">
        <ele>136.4</ele>
        <time>2024-10-02T14:01:57Z</time>
      </trkpt>
      <trkpt lat="49.3473" lon="0.1519">
        <ele>136.6</ele>
        <time>2024-10-02T14:01:58Z</time>
      </trkpt>
      <trkpt lat="49.34724" lon="0.15178">
        <ele>136.6</ele>
        <time>2024-10-02T14:01:59Z</time>
      </trkpt>
      <trkpt lat="49.34719" lon="0.15166">
        <ele>136.6</ele>
        <time>2024-10-02T14:02:00Z</time>
      </trkpt>
      <trkpt lat="49.34713" lon="0.15155">
        <ele>136.6</ele>
        <time>2024-10-02T14:02:01Z</time>
      </trkpt>
      <trkpt lat="49.34708" lon="0.15143">
        <ele>136.6</ele>
        <time>2024-10-02T14:02:02Z</time>
      </trkpt>
      <trkpt lat="49.34703" lon="0.15132">
        <ele>136.8</ele>
        <time>2024-10-02T14:02:03Z</time>
      </trkpt>
      <trkpt lat="49.34698" lon="0.1512">
        <ele>137</ele>
        <time>2024-10-02T14:02:04Z</time>
      </trkpt>
      <trkpt lat="49.34693" lon="0.15108">
        <ele>137.2</ele>
        <time>2024-10-02T14:02:05Z</time>
      </trkpt>
      <trkpt lat="49.34687" lon="0.15096">
        <ele>137.4</ele>
        <time>2024-10-02T14:02:06Z</time>
      </trkpt>
      <trkpt lat="49.34682" lon="0.15085">
        <ele>137.4</ele>
        <time>2024-10-02T14:02:07Z</time>
      </trkpt>
      <trkpt lat="49.34677" lon="0.15073">
        <ele>137.6</ele>
        <time>2024-10-02T14:02:08Z</time>
      </trkpt>
      <trkpt lat="49.34672" lon="0.15062">
        <ele>137.6</ele>
        <time>2024-10-02T14:02:09Z</time>
      </trkpt>
      <trkpt lat="49.34668" lon="0.1505">
        <ele>137.6</ele>
        <time>2024-10-02T14:02:10Z</time>
      </trkpt>
      <trkpt lat="49.34663" lon="0.15039">
        <ele>137.8</ele>
        <time>2024-10-02T14:02:11Z</time>
      </trkpt>
      <trkpt lat="49.34658" lon="0.15027">
        <ele>137.8</ele>
        <time>2024-10-02T14:02:12Z</time>
      </trkpt>
      <trkpt lat="49.34653" lon="0.15015">
        <ele>138</ele>
        <time>2024-10-02T14:02:13Z</time>
      </trkpt>
      <trkpt lat="49.34648" lon="0.15004">
        <ele>138</ele>
        <time>2024-10-02T14:02:14Z</time>
      </trkpt>
      <trkpt lat="49.34643" lon="0.14993">
        <ele>138</ele>
        <time>2024-10-02T14:02:15Z</time>
      </trkpt>
      <trkpt lat="49.34638" lon="0.14981">
        <ele>138</ele>
        <time>2024-10-02T14:02:16Z</time>
      </trkpt>
      <trkpt lat="49.34634" lon="0.14972">
        <ele>138.2</ele>
        <time>2024-10-02T14:02:17Z</time>
      </trkpt>
      <trkpt lat="49.34628" lon="0.14959">
        <ele>138.2</ele>
        <time>2024-10-02T14:02:18Z</time>
      </trkpt>
      <trkpt lat="49.34624" lon="0.14948">
        <ele>138.2</ele>
        <time>2024-10-02T14:02:19Z</time>
      </trkpt>
      <trkpt lat="49.34619" lon="0.14937">
        <ele>138.4</ele>
        <time>2024-10-02T14:02:20Z</time>
      </trkpt>
      <trkpt lat="49.34614" lon="0.14925">
        <ele>138.4</ele>
        <time>2024-10-02T14:02:21Z</time>
      </trkpt>
      <trkpt lat="49.34609" lon="0.14914">
        <ele>138.4</ele>
        <time>2024-10-02T14:02:22Z</time>
      </trkpt>
      <trkpt lat="49.34604" lon="0.14902">
        <ele>138.6</ele>
        <time>2024-10-02T14:02:23Z</time>
      </trkpt>
      <trkpt lat="49.34599" lon="0.14891">
        <ele>138.6</ele>
        <time>2024-10-02T14:02:24Z</time>
      </trkpt>
      <trkpt lat="49.34594" lon="0.14879">
        <ele>138.6</ele>
        <time>2024-10-02T14:02:25Z</time>
      </trkpt>
      <trkpt lat="49.3459" lon="0.14867">
        <ele>138.8</ele>
        <time>2024-10-02T14:02:26Z</time>
      </trkpt>
      <trkpt lat="49.34585" lon="0.14856">
        <ele>139</ele>
        <time>2024-10-02T14:02:27Z</time>
      </trkpt>
      <trkpt lat="49.3458" lon="0.14844">
        <ele>139.2</ele>
        <time>2024-10-02T14:02:28Z</time>
      </trkpt>
      <trkpt lat="49.34575" lon="0.14832">
        <ele>139.2</ele>
        <time>2024-10-02T14:02:29Z</time>
      </trkpt>
      <trkpt lat="49.3457" lon="0.14821">
        <ele>139.4</ele>
        <time>2024-10-02T14:02:30Z</time>
      </trkpt>
      <trkpt lat="49.34565" lon="0.1481">
        <ele>139.4</ele>
        <time>2024-10-02T14:02:31Z</time>
      </trkpt>
      <trkpt lat="49.3456" lon="0.14798">
        <ele>139.4</ele>
        <time>2024-10-02T14:02:32Z</time>
      </trkpt>
      <trkpt lat="49.34555" lon="0.14786">
        <ele>139.4</ele>
        <time>2024-10-02T14:02:33Z</time>
      </trkpt>
      <trkpt lat="49.34551" lon="0.14774">
        <ele>139.6</ele>
        <time>2024-10-02T14:02:34Z</time>
      </trkpt>
      <trkpt lat="49.34545" lon="0.14763">
        <ele>139.6</ele>
        <time>2024-10-02T14:02:35Z</time>
      </trkpt>
      <trkpt lat="49.3454" lon="0.14751">
        <ele>139.6</ele>
        <time>2024-10-02T14:02:36Z</time>
      </trkpt>
      <trkpt lat="49.34535" lon="0.14739">
        <ele>139.6</ele>
        <time>2024-10-02T14:02:37Z</time>
      </trkpt>
      <trkpt lat="49.3453" lon="0.14727">
        <ele>139.8</ele>
        <time>2024-10-02T14:02:38Z</time>
      </trkpt>
      <trkpt lat="49.34525" lon="0.14715">
        <ele>139.8</ele>
        <time>2024-10-02T14:02:39Z</time>
      </trkpt>
      <trkpt lat="49.3452" lon="0.14704">
        <ele>139.8</ele>
        <time>2024-10-02T14:02:40Z</time>
      </trkpt>
      <trkpt lat="49.34515" lon="0.14692">
        <ele>139.8</ele>
        <time>2024-10-02T14:02:41Z</time>
      </trkpt>
      <trkpt lat="49.3451" lon="0.14681">
        <ele>139.8</ele>
        <time>2024-10-02T14:02:42Z</time>
      </trkpt>
      <trkpt lat="49.34506" lon="0.14669">
        <ele>139.8</ele>
        <time>2024-10-02T14:02:43Z</time>
      </trkpt>
      <trkpt lat="49.34501" lon="0.14657">
        <ele>139.8</ele>
        <time>2024-10-02T14:02:44Z</time>
      </trkpt>
      <trkpt lat="49.34496" lon="0.14646">
        <ele>140</ele>
        <time>2024-10-02T14:02:45Z</time>
      </trkpt>
      <trkpt lat="49.34491" lon="0.14634">
        <ele>140</ele>
        <time>2024-10-02T14:02:46Z</time>
      </trkpt>
      <trkpt lat="49.34487" lon="0.14625">
        <ele>140</ele>
        <time>2024-10-02T14:02:47Z</time>
      </trkpt>
      <trkpt lat="49.34481" lon="0.14611">
        <ele>140</ele>
        <time>2024-10-02T14:02:48Z</time>
      </trkpt>
      <trkpt lat="49.34476" lon="0.146">
        <ele>140</ele>
        <time>2024-10-02T14:02:49Z</time>
      </trkpt>
      <trkpt lat="49.34471" lon="0.14589">
        <ele>140</ele>
        <time>2024-10-02T14:02:50Z</time>
      </trkpt>
      <trkpt lat="49.34466" lon="0.14578">
        <ele>140</ele>
        <time>2024-10-02T14:02:51Z</time>
      </trkpt>
      <trkpt lat="49.34461" lon="0.14566">
        <ele>140</ele>
        <time>2024-10-02T14:02:52Z</time>
      </trkpt>
      <trkpt lat="49.34456" lon="0.14555">
        <ele>140</ele>
        <time>2024-10-02T14:02:53Z</time>
      </trkpt>
      <trkpt lat="49.34451" lon="0.14543">
        <ele>140</ele>
        <time>2024-10-02T14:02:54Z</time>
      </trkpt>
      <trkpt lat="49.34446" lon="0.14532">
        <ele>140</ele>
        <time>2024-10-02T14:02:55Z</time>
      </trkpt>
      <trkpt lat="49.34441" lon="0.14521">
        <ele>140</ele>
        <time>2024-10-02T14:02:56Z</time>
      </trkpt>
      <trkpt lat="49.34435" lon="0.14509">
        <ele>140</ele>
        <time>2024-10-02T14:02:57Z</time>
      </trkpt>
      <trkpt lat="49.3443" lon="0.14497">
        <ele>140</ele>
        <time>2024-10-02T14:02:58Z</time>
      </trkpt>
      <trkpt lat="49.34425" lon="0.14484">
        <ele>140</ele>
        <time>2024-10-02T14:02:59Z</time>
      </trkpt>
      <trkpt lat="49.3442" lon="0.14472">
        <ele>139.8</ele>
        <time>2024-10-02T14:03:00Z</time>
      </trkpt>
      <trkpt lat="49.34414" lon="0.14459">
        <ele>139.8</ele>
        <time>2024-10-02T14:03:01Z</time>
      </trkpt>
      <trkpt lat="49.34409" lon="0.14446">
        <ele>139.8</ele>
        <time>2024-10-02T14:03:02Z</time>
      </trkpt>
      <trkpt lat="49.34403" lon="0.14433">
        <ele>139.8</ele>
        <time>2024-10-02T14:03:03Z</time>
      </trkpt>
      <trkpt lat="49.34397" lon="0.1442">
        <ele>139.6</ele>
        <time>2024-10-02T14:03:04Z</time>
      </trkpt>
      <trkpt lat="49.34391" lon="0.14406">
        <ele>139.6</ele>
        <time>2024-10-02T14:03:05Z</time>
      </trkpt>
      <trkpt lat="49.34386" lon="0.14393">
        <ele>139.6</ele>
        <time>2024-10-02T14:03:06Z</time>
      </trkpt>
      <trkpt lat="49.34381" lon="0.1438">
        <ele>139.4</ele>
        <time>2024-10-02T14:03:07Z</time>
      </trkpt>
      <trkpt lat="49.34375" lon="0.14367">
        <ele>139.4</ele>
        <time>2024-10-02T14:03:08Z</time>
      </trkpt>
      <trkpt lat="49.34369" lon="0.14354">
        <ele>139.2</ele>
        <time>2024-10-02T14:03:09Z</time>
      </trkpt>
      <trkpt lat="49.34363" lon="0.14342">
        <ele>139.2</ele>
        <time>2024-10-02T14:03:10Z</time>
      </trkpt>
      <trkpt lat="49.34359" lon="0.14332">
        <ele>139</ele>
        <time>2024-10-02T14:03:11Z</time>
      </trkpt>
      <trkpt lat="49.34353" lon="0.14317">
        <ele>138.8</ele>
        <time>2024-10-02T14:03:12Z</time>
      </trkpt>
      <trkpt lat="49.34347" lon="0.14304">
        <ele>138.4</ele>
        <time>2024-10-02T14:03:13Z</time>
      </trkpt>
      <trkpt lat="49.34341" lon="0.14291">
        <ele>138</ele>
        <time>2024-10-02T14:03:14Z</time>
      </trkpt>
      <trkpt lat="49.34336" lon="0.14278">
        <ele>137.8</ele>
        <time>2024-10-02T14:03:15Z</time>
      </trkpt>
      <trkpt lat="49.3433" lon="0.14265">
        <ele>137.6</ele>
        <time>2024-10-02T14:03:16Z</time>
      </trkpt>
      <trkpt lat="49.34324" lon="0.14251">
        <ele>137.6</ele>
        <time>2024-10-02T14:03:17Z</time>
      </trkpt>
      <trkpt lat="49.34319" lon="0.14238">
        <ele>137.4</ele>
        <time>2024-10-02T14:03:18Z</time>
      </trkpt>
      <trkpt lat="49.34313" lon="0.14225">
        <ele>137.2</ele>
        <time>2024-10-02T14:03:19Z</time>
      </trkpt>
      <trkpt lat="49.34307" lon="0.14212">
        <ele>137</ele>
        <time>2024-10-02T14:03:20Z</time>
      </trkpt>
      <trkpt lat="49.34302" lon="0.14199">
        <ele>137</ele>
        <time>2024-10-02T14:03:21Z</time>
      </trkpt>
      <trkpt lat="49.34296" lon="0.14186">
        <ele>137</ele>
        <time>2024-10-02T14:03:22Z</time>
      </trkpt>
      <trkpt lat="49.3429" lon="0.14172">
        <ele>137</ele>
        <time>2024-10-02T14:03:23Z</time>
      </trkpt>
      <trkpt lat="49.34284" lon="0.14159">
        <ele>136.8</ele>
        <time>2024-10-02T14:03:24Z</time>
      </trkpt>
      <trkpt lat="49.34279" lon="0.14145">
        <ele>136.6</ele>
        <time>2024-10-02T14:03:25Z</time>
      </trkpt>
      <trkpt lat="49.34275" lon="0.14135">
        <ele>136.4</ele>
        <time>2024-10-02T14:03:26Z</time>
      </trkpt>
      <trkpt lat="49.34269" lon="0.14122">
        <ele>136.2</ele>
        <time>2024-10-02T14:03:27Z</time>
      </trkpt>
      <trkpt lat="49.34263" lon="0.14109">
        <ele>136.2</ele>
        <time>2024-10-02T14:03:28Z</time>
      </trkpt>
      <trkpt lat="49.34256" lon="0.14094">
        <ele>136</ele>
        <time>2024-10-02T14:03:29Z</time>
      </trkpt>
      <trkpt lat="49.3425" lon="0.14081">
        <ele>136</ele>
        <time>2024-10-02T14:03:30Z</time>
      </trkpt>
      <trkpt lat="49.34245" lon="0.14067">
        <ele>135.8</ele>
        <time>2024-10-02T14:03:31Z</time>
      </trkpt>
      <trkpt lat="49.34239" lon="0.14054">
        <ele>135.8</ele>
        <time>2024-10-02T14:03:32Z</time>
      </trkpt>
      <trkpt lat="49.34234" lon="0.14043">
        <ele>135.6</ele>
        <time>2024-10-02T14:03:33Z</time>
      </trkpt>
      <trkpt lat="49.34229" lon="0.1403">
        <ele>135.4</ele>
        <time>2024-10-02T14:03:34Z</time>
      </trkpt>
      <trkpt lat="49.34223" lon="0.14016">
        <ele>135.2</ele>
        <time>2024-10-02T14:03:35Z</time>
      </trkpt>
      <trkpt lat="49.34218" lon="0.14003">
        <ele>135</ele>
        <time>2024-10-02T14:03:36Z</time>
      </trkpt>
      <trkpt lat="49.34212" lon="0.1399">
        <ele>134.8</ele>
        <time>2024-10-02T14:03:37Z</time>
      </trkpt>
      <trkpt lat="49.34206" lon="0.13977">
        <ele>134.8</ele>
        <time>2024-10-02T14:03:38Z</time>
      </trkpt>
      <trkpt lat="49.34201" lon="0.13963">
        <ele>134.6</ele>
        <time>2024-10-02T14:03:39Z</time>
      </trkpt>
      <trkpt lat="49.34195" lon="0.1395">
        <ele>134.6</ele>
        <time>2024-10-02T14:03:40Z</time>
      </trkpt>
      <trkpt lat="49.34189" lon="0.13936">
        <ele>134.4</ele>
        <time>2024-10-02T14:03:41Z</time>
      </trkpt>
      <trkpt lat="49.34183" lon="0.13923">
        <ele>134.4</ele>
        <time>2024-10-02T14:03:42Z</time>
      </trkpt>
      <trkpt lat="49.34176" lon="0.13906">
        <ele>134.4</ele>
        <time>2024-10-02T14:03:43Z</time>
      </trkpt>
      <trkpt lat="49.34171" lon="0.13895">
        <ele>134.4</ele>
        <time>2024-10-02T14:03:44Z</time>
      </trkpt>
      <trkpt lat="49.34166" lon="0.13882">
        <ele>134.2</ele>
        <time>2024-10-02T14:03:45Z</time>
      </trkpt>
      <trkpt lat="49.34158" lon="0.13865">
        <ele>134.2</ele>
        <time>2024-10-02T14:03:46Z</time>
      </trkpt>
      <trkpt lat="49.34153" lon="0.13854">
        <ele>134.2</ele>
        <time>2024-10-02T14:03:47Z</time>
      </trkpt>
      <trkpt lat="49.34147" lon="0.1384">
        <ele>134.2</ele>
        <time>2024-10-02T14:03:48Z</time>
      </trkpt>
      <trkpt lat="49.34141" lon="0.13826">
        <ele>134</ele>
        <time>2024-10-02T14:03:49Z</time>
      </trkpt>
      <trkpt lat="49.34134" lon="0.13809">
        <ele>133.8</ele>
        <time>2024-10-02T14:03:50Z</time>
      </trkpt>
      <trkpt lat="49.34129" lon="0.13797">
        <ele>133.6</ele>
        <time>2024-10-02T14:03:51Z</time>
      </trkpt>
      <trkpt lat="49.34122" lon="0.13783">
        <ele>133.4</ele>
        <time>2024-10-02T14:03:52Z</time>
      </trkpt>
      <trkpt lat="49.34116" lon="0.13769">
        <ele>133.4</ele>
        <time>2024-10-02T14:03:53Z</time>
      </trkpt>
      <trkpt lat="49.3411" lon="0.13754">
        <ele>133.2</ele>
        <time>2024-10-02T14:03:54Z</time>
      </trkpt>
      <trkpt lat="49.34104" lon="0.1374">
        <ele>133.2</ele>
        <time>2024-10-02T14:03:55Z</time>
      </trkpt>
      <trkpt lat="49.34096" lon="0.13723">
        <ele>133.2</ele>
        <time>2024-10-02T14:03:56Z</time>
      </trkpt>
      <trkpt lat="49.3409" lon="0.13709">
        <ele>133</ele>
        <time>2024-10-02T14:03:57Z</time>
      </trkpt>
      <trkpt lat="49.34084" lon="0.13695">
        <ele>133</ele>
        <time>2024-10-02T14:03:58Z</time>
      </trkpt>
      <trkpt lat="49.34079" lon="0.13683">
        <ele>133</ele>
        <time>2024-10-02T14:03:59Z</time>
      </trkpt>
      <trkpt lat="49.34072" lon="0.13666">
        <ele>132.6</ele>
        <time>2024-10-02T14:04:00Z</time>
      </trkpt>
      <trkpt lat="49.34066" lon="0.13652">
        <ele>132.8</ele>
        <time>2024-10-02T14:04:01Z</time>
      </trkpt>
      <trkpt lat="49.3406" lon="0.13637">
        <ele>132.8</ele>
        <time>2024-10-02T14:04:02Z</time>
      </trkpt>
      <trkpt lat="49.34055" lon="0.13626">
        <ele>132.6</ele>
        <time>2024-10-02T14:04:03Z</time>
      </trkpt>
      <trkpt lat="49.34048" lon="0.13609">
        <ele>132.6</ele>
        <time>2024-10-02T14:04:04Z</time>
      </trkpt>
      <trkpt lat="49.34041" lon="0.13595">
        <ele>132.6</ele>
        <time>2024-10-02T14:04:05Z</time>
      </trkpt>
      <trkpt lat="49.34034" lon="0.1358">
        <ele>132.6</ele>
        <time>2024-10-02T14:04:06Z</time>
      </trkpt>
      <trkpt lat="49.34027" lon="0.13567">
        <ele>132.6</ele>
        <time>2024-10-02T14:04:07Z</time>
      </trkpt>
      <trkpt lat="49.34019" lon="0.13554">
        <ele>132.2</ele>
        <time>2024-10-02T14:04:08Z</time>
      </trkpt>
      <trkpt lat="49.3401" lon="0.13542">
        <ele>132</ele>
        <time>2024-10-02T14:04:09Z</time>
      </trkpt>
      <trkpt lat="49.34002" lon="0.13529">
        <ele>132</ele>
        <time>2024-10-02T14:04:10Z</time>
      </trkpt>
      <trkpt lat="49.33993" lon="0.13517">
        <ele>131.8</ele>
        <time>2024-10-02T14:04:11Z</time>
      </trkpt>
      <trkpt lat="49.33985" lon="0.13505">
        <ele>131.6</ele>
        <time>2024-10-02T14:04:12Z</time>
      </trkpt>
      <trkpt lat="49.33977" lon="0.13493">
        <ele>131.4</ele>
        <time>2024-10-02T14:04:13Z</time>
      </trkpt>
      <trkpt lat="49.33968" lon="0.13481">
        <ele>131</ele>
        <time>2024-10-02T14:04:14Z</time>
      </trkpt>
      <trkpt lat="49.3396" lon="0.13468">
        <ele>130.8</ele>
        <time>2024-10-02T14:04:15Z</time>
      </trkpt>
      <trkpt lat="49.33952" lon="0.13456">
        <ele>130.4</ele>
        <time>2024-10-02T14:04:16Z</time>
      </trkpt>
      <trkpt lat="49.33944" lon="0.13444">
        <ele>130.4</ele>
        <time>2024-10-02T14:04:17Z</time>
      </trkpt>
      <trkpt lat="49.33936" lon="0.13433">
        <ele>130</ele>
        <time>2024-10-02T14:04:18Z</time>
      </trkpt>
      <trkpt lat="49.33928" lon="0.13421">
        <ele>129.8</ele>
        <time>2024-10-02T14:04:19Z</time>
      </trkpt>
      <trkpt lat="49.33921" lon="0.1341">
        <ele>129</ele>
        <time>2024-10-02T14:04:20Z</time>
      </trkpt>
      <trkpt lat="49.33913" lon="0.13398">
        <ele>128.4</ele>
        <time>2024-10-02T14:04:21Z</time>
      </trkpt>
      <trkpt lat="49.33906" lon="0.13386">
        <ele>128</ele>
        <time>2024-10-02T14:04:22Z</time>
      </trkpt>
      <trkpt lat="49.33898" lon="0.13374">
        <ele>127.8</ele>
        <time>2024-10-02T14:04:23Z</time>
      </trkpt>
      <trkpt lat="49.33891" lon="0.13362">
        <ele>127.8</ele>
        <time>2024-10-02T14:04:24Z</time>
      </trkpt>
      <trkpt lat="49.33884" lon="0.13349">
        <ele>127.8</ele>
        <time>2024-10-02T14:04:25Z</time>
      </trkpt>
      <trkpt lat="49.33878" lon="0.13335">
        <ele>127.6</ele>
        <time>2024-10-02T14:04:26Z</time>
      </trkpt>
      <trkpt lat="49.33873" lon="0.13321">
        <ele>127.6</ele>
        <time>2024-10-02T14:04:27Z</time>
      </trkpt>
      <trkpt lat="49.3387" lon="0.13308">
        <ele>127.6</ele>
        <time>2024-10-02T14:04:28Z</time>
      </trkpt>
      <trkpt lat="49.33864" lon="0.13288">
        <ele>127.4</ele>
        <time>2024-10-02T14:04:29Z</time>
      </trkpt>
      <trkpt lat="49.3386" lon="0.13272">
        <ele>127.4</ele>
        <time>2024-10-02T14:04:30Z</time>
      </trkpt>
      <trkpt lat="49.33856" lon="0.13255">
        <ele>127.2</ele>
        <time>2024-10-02T14:04:31Z</time>
      </trkpt>
      <trkpt lat="49.33852" lon="0.13238">
        <ele>127</ele>
        <time>2024-10-02T14:04:32Z</time>
      </trkpt>
      <trkpt lat="49.33848" lon="0.13221">
        <ele>127</ele>
        <time>2024-10-02T14:04:33Z</time>
      </trkpt>
      <trkpt lat="49.33844" lon="0.13204">
        <ele>127</ele>
        <time>2024-10-02T14:04:34Z</time>
      </trkpt>
      <trkpt lat="49.33841" lon="0.13186">
        <ele>127</ele>
        <time>2024-10-02T14:04:35Z</time>
      </trkpt>
      <trkpt lat="49.33837" lon="0.13169">
        <ele>126.6</ele>
        <time>2024-10-02T14:04:36Z</time>
      </trkpt>
      <trkpt lat="49.33833" lon="0.13151">
        <ele>126.2</ele>
        <time>2024-10-02T14:04:37Z</time>
      </trkpt>
      <trkpt lat="49.33829" lon="0.13133">
        <ele>125.4</ele>
        <time>2024-10-02T14:04:38Z</time>
      </trkpt>
      <trkpt lat="49.33825" lon="0.13115">
        <ele>124.4</ele>
        <time>2024-10-02T14:04:39Z</time>
      </trkpt>
      <trkpt lat="49.33821" lon="0.13097">
        <ele>123.8</ele>
        <time>2024-10-02T14:04:40Z</time>
      </trkpt>
      <trkpt lat="49.33817" lon="0.13079">
        <ele>123.4</ele>
        <time>2024-10-02T14:04:41Z</time>
      </trkpt>
      <trkpt lat="49.33812" lon="0.13061">
        <ele>123</ele>
        <time>2024-10-02T14:04:42Z</time>
      </trkpt>
      <trkpt lat="49.33808" lon="0.13044">
        <ele>122.4</ele>
        <time>2024-10-02T14:04:43Z</time>
      </trkpt>
      <trkpt lat="49.33804" lon="0.13026">
        <ele>122</ele>
        <time>2024-10-02T14:04:44Z</time>
      </trkpt>
      <trkpt lat="49.338" lon="0.13009">
        <ele>122</ele>
        <time>2024-10-02T14:04:45Z</time>
      </trkpt>
      <trkpt lat="49.33797" lon="0.12991">
        <ele>121.2</ele>
        <time>2024-10-02T14:04:46Z</time>
      </trkpt>
      <trkpt lat="49.33795" lon="0.12973">
        <ele>120.8</ele>
        <time>2024-10-02T14:04:47Z</time>
      </trkpt>
      <trkpt lat="49.33794" lon="0.12955">
        <ele>120.2</ele>
        <time>2024-10-02T14:04:48Z</time>
      </trkpt>
      <trkpt lat="49.33794" lon="0.12938">
        <ele>119.6</ele>
        <time>2024-10-02T14:04:49Z</time>
      </trkpt>
      <trkpt lat="49.33796" lon="0.1292">
        <ele>119</ele>
        <time>2024-10-02T14:04:50Z</time>
      </trkpt>
      <trkpt lat="49.33798" lon="0.12902">
        <ele>118.4</ele>
        <time>2024-10-02T14:04:51Z</time>
      </trkpt>
      <trkpt lat="49.33801" lon="0.12884">
        <ele>118</ele>
        <time>2024-10-02T14:04:52Z</time>
      </trkpt>
      <trkpt lat="49.33804" lon="0.12866">
        <ele>117.6</ele>
        <time>2024-10-02T14:04:53Z</time>
      </trkpt>
      <trkpt lat="49.33807" lon="0.12848">
        <ele>117.4</ele>
        <time>2024-10-02T14:04:54Z</time>
      </trkpt>
      <trkpt lat="49.33811" lon="0.12829">
        <ele>117.4</ele>
        <time>2024-10-02T14:04:55Z</time>
      </trkpt>
      <trkpt lat="49.33814" lon="0.1281">
        <ele>117.2</ele>
        <time>2024-10-02T14:04:56Z</time>
      </trkpt>
      <trkpt lat="49.33818" lon="0.12792">
        <ele>117</ele>
        <time>2024-10-02T14:04:57Z</time>
      </trkpt>
      <trkpt lat="49.3382" lon="0.12775">
        <ele>116.6</ele>
        <time>2024-10-02T14:04:58Z</time>
      </trkpt>
      <trkpt lat="49.33824" lon="0.12758">
        <ele>116.2</ele>
        <time>2024-10-02T14:04:59Z</time>
      </trkpt>
      <trkpt lat="49.3383" lon="0.12742">
        <ele>115.2</ele>
        <time>2024-10-02T14:05:00Z</time>
      </trkpt>
      <trkpt lat="49.33836" lon="0.12726">
        <ele>114.4</ele>
        <time>2024-10-02T14:05:01Z</time>
      </trkpt>
      <trkpt lat="49.33844" lon="0.1271">
        <ele>113.2</ele>
        <time>2024-10-02T14:05:02Z</time>
      </trkpt>
      <trkpt lat="49.3385" lon="0.12694">
        <ele>112.2</ele>
        <time>2024-10-02T14:05:03Z</time>
      </trkpt>
      <trkpt lat="49.33856" lon="0.12676">
        <ele>111</ele>
        <time>2024-10-02T14:05:04Z</time>
      </trkpt>
      <trkpt lat="49.33861" lon="0.12658">
        <ele>110</ele>
        <time>2024-10-02T14:05:05Z</time>
      </trkpt>
      <trkpt lat="49.33864" lon="0.12641">
        <ele>110</ele>
        <time>2024-10-02T14:05:06Z</time>
      </trkpt>
      <trkpt lat="49.33867" lon="0.12625">
        <ele>108.8</ele>
        <time>2024-10-02T14:05:07Z</time>
      </trkpt>
      <trkpt lat="49.33869" lon="0.12611">
        <ele>107.8</ele>
        <time>2024-10-02T14:05:08Z</time>
      </trkpt>
      <trkpt lat="49.33872" lon="0.12598">
        <ele>107</ele>
        <time>2024-10-02T14:05:09Z</time>
      </trkpt>
      <trkpt lat="49.33876" lon="0.12588">
        <ele>105.2</ele>
        <time>2024-10-02T14:05:10Z</time>
      </trkpt>
      <trkpt lat="49.33881" lon="0.12578">
        <ele>103.8</ele>
        <time>2024-10-02T14:05:11Z</time>
      </trkpt>
      <trkpt lat="49.33886" lon="0.12567">
        <ele>102</ele>
        <time>2024-10-02T14:05:12Z</time>
      </trkpt>
      <trkpt lat="49.33892" lon="0.12556">
        <ele>100.2</ele>
        <time>2024-10-02T14:05:13Z</time>
      </trkpt>
      <trkpt lat="49.33898" lon="0.12546">
        <ele>98.4</ele>
        <time>2024-10-02T14:05:14Z</time>
      </trkpt>
      <trkpt lat="49.33905" lon="0.12538">
        <ele>96.8</ele>
        <time>2024-10-02T14:05:15Z</time>
      </trkpt>
      <trkpt lat="49.33912" lon="0.12531">
        <ele>95.8</ele>
        <time>2024-10-02T14:05:16Z</time>
      </trkpt>
      <trkpt lat="49.33919" lon="0.12525">
        <ele>95</ele>
        <time>2024-10-02T14:05:17Z</time>
      </trkpt>
      <trkpt lat="49.33926" lon="0.12519">
        <ele>94.4</ele>
        <time>2024-10-02T14:05:18Z</time>
      </trkpt>
      <trkpt lat="49.33933" lon="0.12512">
        <ele>93.8</ele>
        <time>2024-10-02T14:05:19Z</time>
      </trkpt>
      <trkpt lat="49.33939" lon="0.12506">
        <ele>93.2</ele>
        <time>2024-10-02T14:05:20Z</time>
      </trkpt>
      <trkpt lat="49.33944" lon="0.12499">
        <ele>92.2</ele>
        <time>2024-10-02T14:05:21Z</time>
      </trkpt>
      <trkpt lat="49.33949" lon="0.1249">
        <ele>91</ele>
        <time>2024-10-02T14:05:22Z</time>
      </trkpt>
      <trkpt lat="49.33952" lon="0.12481">
        <ele>89.6</ele>
        <time>2024-10-02T14:05:23Z</time>
      </trkpt>
      <trkpt lat="49.33955" lon="0.12471">
        <ele>88.4</ele>
        <time>2024-10-02T14:05:24Z</time>
      </trkpt>
      <trkpt lat="49.33956" lon="0.12461">
        <ele>87</ele>
        <time>2024-10-02T14:05:25Z</time>
      </trkpt>
      <trkpt lat="49.33957" lon="0.12451">
        <ele>87</ele>
        <time>2024-10-02T14:05:26Z</time>
      </trkpt>
      <trkpt lat="49.33957" lon="0.12442">
        <ele>85.8</ele>
        <time>2024-10-02T14:05:27Z</time>
      </trkpt>
      <trkpt lat="49.33956" lon="0.12432">
        <ele>84.8</ele>
        <time>2024-10-02T14:05:28Z</time>
      </trkpt>
      <trkpt lat="49.33954" lon="0.1242">
        <ele>83.8</ele>
        <time>2024-10-02T14:05:29Z</time>
      </trkpt>
      <trkpt lat="49.33952" lon="0.1241">
        <ele>82.8</ele>
        <time>2024-10-02T14:05:30Z</time>
      </trkpt>
      <trkpt lat="49.3395" lon="0.12402">
        <ele>82.4</ele>
        <time>2024-10-02T14:05:31Z</time>
      </trkpt>
      <trkpt lat="49.33948" lon="0.12389">
        <ele>81.8</ele>
        <time>2024-10-02T14:05:32Z</time>
      </trkpt>
      <trkpt lat="49.33946" lon="0.12379">
        <ele>81.4</ele>
        <time>2024-10-02T14:05:33Z</time>
      </trkpt>
      <trkpt lat="49.33944" lon="0.12368">
        <ele>81</ele>
        <time>2024-10-02T14:05:34Z</time>
      </trkpt>
      <trkpt lat="49.33942" lon="0.12356">
        <ele>80.8</ele>
        <time>2024-10-02T14:05:35Z</time>
      </trkpt>
      <trkpt lat="49.33939" lon="0.12345">
        <ele>80.4</ele>
        <time>2024-10-02T14:05:36Z</time>
      </trkpt>
      <trkpt lat="49.33936" lon="0.12333">
        <ele>80.2</ele>
        <time>2024-10-02T14:05:37Z</time>
      </trkpt>
      <trkpt lat="49.33933" lon="0.12321">
        <ele>80</ele>
        <time>2024-10-02T14:05:38Z</time>
      </trkpt>
      <trkpt lat="49.3393" lon="0.12309">
        <ele>79.8</ele>
        <time>2024-10-02T14:05:39Z</time>
      </trkpt>
      <trkpt lat="49.33928" lon="0.12297">
        <ele>79.6</ele>
        <time>2024-10-02T14:05:40Z</time>
      </trkpt>
      <trkpt lat="49.33925" lon="0.12285">
        <ele>79.2</ele>
        <time>2024-10-02T14:05:41Z</time>
      </trkpt>
      <trkpt lat="49.33922" lon="0.12273">
        <ele>78.8</ele>
        <time>2024-10-02T14:05:42Z</time>
      </trkpt>
      <trkpt lat="49.33919" lon="0.1226">
        <ele>78.4</ele>
        <time>2024-10-02T14:05:43Z</time>
      </trkpt>
      <trkpt lat="49.33916" lon="0.12247">
        <ele>78</ele>
        <time>2024-10-02T14:05:44Z</time>
      </trkpt>
      <trkpt lat="49.33913" lon="0.12234">
        <ele>77.8</ele>
        <time>2024-10-02T14:05:45Z</time>
      </trkpt>
      <trkpt lat="49.3391" lon="0.12221">
        <ele>77.6</ele>
        <time>2024-10-02T14:05:46Z</time>
      </trkpt>
      <trkpt lat="49.33906" lon="0.12208">
        <ele>77.6</ele>
        <time>2024-10-02T14:05:47Z</time>
      </trkpt>
      <trkpt lat="49.33903" lon="0.12194">
        <ele>77.2</ele>
        <time>2024-10-02T14:05:48Z</time>
      </trkpt>
      <trkpt lat="49.33901" lon="0.1218">
        <ele>76.8</ele>
        <time>2024-10-02T14:05:49Z</time>
      </trkpt>
      <trkpt lat="49.33898" lon="0.12167">
        <ele>76.6</ele>
        <time>2024-10-02T14:05:50Z</time>
      </trkpt>
      <trkpt lat="49.33895" lon="0.12154">
        <ele>76.2</ele>
        <time>2024-10-02T14:05:51Z</time>
      </trkpt>
      <trkpt lat="49.33891" lon="0.12141">
        <ele>75.4</ele>
        <time>2024-10-02T14:05:52Z</time>
      </trkpt>
      <trkpt lat="49.33887" lon="0.12129">
        <ele>74.8</ele>
        <time>2024-10-02T14:05:53Z</time>
      </trkpt>
      <trkpt lat="49.33884" lon="0.12117">
        <ele>74</ele>
        <time>2024-10-02T14:05:54Z</time>
      </trkpt>
      <trkpt lat="49.3388" lon="0.12106">
        <ele>73.2</ele>
        <time>2024-10-02T14:05:55Z</time>
      </trkpt>
      <trkpt lat="49.33875" lon="0.12094">
        <ele>72.4</ele>
        <time>2024-10-02T14:05:56Z</time>
      </trkpt>
      <trkpt lat="49.33871" lon="0.12083">
        <ele>71.4</ele>
        <time>2024-10-02T14:05:57Z</time>
      </trkpt>
      <trkpt lat="49.33866" lon="0.12072">
        <ele>70.6</ele>
        <time>2024-10-02T14:05:58Z</time>
      </trkpt>
      <trkpt lat="49.33862" lon="0.12062">
        <ele>69.8</ele>
        <time>2024-10-02T14:05:59Z</time>
      </trkpt>
      <trkpt lat="49.33858" lon="0.12053">
        <ele>68.8</ele>
        <time>2024-10-02T14:06:00Z</time>
      </trkpt>
      <trkpt lat="49.33855" lon="0.12046">
        <ele>67.6</ele>
        <time>2024-10-02T14:06:01Z</time>
      </trkpt>
      <trkpt lat="49.33851" lon="0.1204">
        <ele>66.8</ele>
        <time>2024-10-02T14:06:02Z</time>
      </trkpt>
      <trkpt lat="49.33848" lon="0.12033">
        <ele>66</ele>
        <time>2024-10-02T14:06:03Z</time>
      </trkpt>
      <trkpt lat="49.33845" lon="0.12026">
        <ele>65.4</ele>
        <time>2024-10-02T14:06:04Z</time>
      </trkpt>
      <trkpt lat="49.33842" lon="0.12018">
        <ele>64.8</ele>
        <time>2024-10-02T14:06:05Z</time>
      </trkpt>
      <trkpt lat="49.33839" lon="0.1201">
        <ele>64.4</ele>
        <time>2024-10-02T14:06:06Z</time>
      </trkpt>
      <trkpt lat="49.33835" lon="0.12003">
        <ele>64.2</ele>
        <time>2024-10-02T14:06:07Z</time>
      </trkpt>
      <trkpt lat="49.33831" lon="0.11995">
        <ele>64.2</ele>
        <time>2024-10-02T14:06:08Z</time>
      </trkpt>
      <trkpt lat="49.33827" lon="0.11987">
        <ele>64</ele>
        <time>2024-10-02T14:06:09Z</time>
      </trkpt>
      <trkpt lat="49.33822" lon="0.1198">
        <ele>64</ele>
        <time>2024-10-02T14:06:10Z</time>
      </trkpt>
      <trkpt lat="49.33818" lon="0.11973">
        <ele>63.8</ele>
        <time>2024-10-02T14:06:11Z</time>
      </trkpt>
      <trkpt lat="49.33814" lon="0.11966">
        <ele>63.8</ele>
        <time>2024-10-02T14:06:12Z</time>
      </trkpt>
      <trkpt lat="49.3381" lon="0.11959">
        <ele>63.6</ele>
        <time>2024-10-02T14:06:13Z</time>
      </trkpt>
      <trkpt lat="49.33806" lon="0.11952">
        <ele>63.2</ele>
        <time>2024-10-02T14:06:14Z</time>
      </trkpt>
      <trkpt lat="49.33802" lon="0.11945">
        <ele>63</ele>
        <time>2024-10-02T14:06:15Z</time>
      </trkpt>
      <trkpt lat="49.33798" lon="0.11937">
        <ele>62.8</ele>
        <time>2024-10-02T14:06:16Z</time>
      </trkpt>
      <trkpt lat="49.33795" lon="0.11928">
        <ele>62.4</ele>
        <time>2024-10-02T14:06:17Z</time>
      </trkpt>
      <trkpt lat="49.33793" lon="0.11919">
        <ele>62.2</ele>
        <time>2024-10-02T14:06:18Z</time>
      </trkpt>
      <trkpt lat="49.33791" lon="0.11909">
        <ele>62</ele>
        <time>2024-10-02T14:06:19Z</time>
      </trkpt>
      <trkpt lat="49.3379" lon="0.11899">
        <ele>61.8</ele>
        <time>2024-10-02T14:06:20Z</time>
      </trkpt>
      <trkpt lat="49.33788" lon="0.1189">
        <ele>61.8</ele>
        <time>2024-10-02T14:06:21Z</time>
      </trkpt>
      <trkpt lat="49.33786" lon="0.1188">
        <ele>61.4</ele>
        <time>2024-10-02T14:06:22Z</time>
      </trkpt>
      <trkpt lat="49.33785" lon="0.11871">
        <ele>61.4</ele>
        <time>2024-10-02T14:06:23Z</time>
      </trkpt>
      <trkpt lat="49.33784" lon="0.11862">
        <ele>61</ele>
        <time>2024-10-02T14:06:24Z</time>
      </trkpt>
      <trkpt lat="49.33783" lon="0.11854">
        <ele>60.6</ele>
        <time>2024-10-02T14:06:25Z</time>
      </trkpt>
      <trkpt lat="49.33783" lon="0.11845">
        <ele>60.2</ele>
        <time>2024-10-02T14:06:26Z</time>
      </trkpt>
      <trkpt lat="49.33784" lon="0.11837">
        <ele>59.6</ele>
        <time>2024-10-02T14:06:27Z</time>
      </trkpt>
      <trkpt lat="49.33787" lon="0.1183">
        <ele>59.6</ele>
        <time>2024-10-02T14:06:28Z</time>
      </trkpt>
      <trkpt lat="49.33791" lon="0.11823">
        <ele>59.2</ele>
        <time>2024-10-02T14:06:29Z</time>
      </trkpt>
      <trkpt lat="49.33795" lon="0.11817">
        <ele>58.8</ele>
        <time>2024-10-02T14:06:30Z</time>
      </trkpt>
      <trkpt lat="49.338" lon="0.1181">
        <ele>58.4</ele>
        <time>2024-10-02T14:06:31Z</time>
      </trkpt>
      <trkpt lat="49.33804" lon="0.11804">
        <ele>58.2</ele>
        <time>2024-10-02T14:06:32Z</time>
      </trkpt>
      <trkpt lat="49.33809" lon="0.11798">
        <ele>57.4</ele>
        <time>2024-10-02T14:06:33Z</time>
      </trkpt>
      <trkpt lat="49.33814" lon="0.11791">
        <ele>56.6</ele>
        <time>2024-10-02T14:06:34Z</time>
      </trkpt>
      <trkpt lat="49.33819" lon="0.11784">
        <ele>56.2</ele>
        <time>2024-10-02T14:06:35Z</time>
      </trkpt>
      <trkpt lat="49.33824" lon="0.11776">
        <ele>55.8</ele>
        <time>2024-10-02T14:06:36Z</time>
      </trkpt>
      <trkpt lat="49.33828" lon="0.11768">
        <ele>55.6</ele>
        <time>2024-10-02T14:06:37Z</time>
      </trkpt>
      <trkpt lat="49.33832" lon="0.11759">
        <ele>55.4</ele>
        <time>2024-10-02T14:06:38Z</time>
      </trkpt>
      <trkpt lat="49.33835" lon="0.11749">
        <ele>55</ele>
        <time>2024-10-02T14:06:39Z</time>
      </trkpt>
      <trkpt lat="49.33839" lon="0.11739">
        <ele>54.6</ele>
        <time>2024-10-02T14:06:40Z</time>
      </trkpt>
      <trkpt lat="49.33842" lon="0.11729">
        <ele>54.2</ele>
        <time>2024-10-02T14:06:41Z</time>
      </trkpt>
      <trkpt lat="49.33844" lon="0.1172">
        <ele>53.6</ele>
        <time>2024-10-02T14:06:42Z</time>
      </trkpt>
      <trkpt lat="49.33846" lon="0.11711">
        <ele>53.2</ele>
        <time>2024-10-02T14:06:43Z</time>
      </trkpt>
      <trkpt lat="49.33847" lon="0.11703">
        <ele>52.8</ele>
        <time>2024-10-02T14:06:44Z</time>
      </trkpt>
      <trkpt lat="49.33847" lon="0.11695">
        <ele>52.2</ele>
        <time>2024-10-02T14:06:45Z</time>
      </trkpt>
      <trkpt lat="49.33847" lon="0.11686">
        <ele>51.2</ele>
        <time>2024-10-02T14:06:46Z</time>
      </trkpt>
      <trkpt lat="49.33847" lon="0.11678">
        <ele>50.4</ele>
        <time>2024-10-02T14:06:47Z</time>
      </trkpt>
      <trkpt lat="49.33846" lon="0.11668">
        <ele>49.6</ele>
        <time>2024-10-02T14:06:48Z</time>
      </trkpt>
      <trkpt lat="49.33845" lon="0.11659">
        <ele>49.6</ele>
        <time>2024-10-02T14:06:49Z</time>
      </trkpt>
      <trkpt lat="49.33842" lon="0.11651">
        <ele>49</ele>
        <time>2024-10-02T14:06:50Z</time>
      </trkpt>
      <trkpt lat="49.3384" lon="0.11643">
        <ele>48.4</ele>
        <time>2024-10-02T14:06:51Z</time>
      </trkpt>
      <trkpt lat="49.33837" lon="0.11636">
        <ele>48</ele>
        <time>2024-10-02T14:06:52Z</time>
      </trkpt>
      <trkpt lat="49.33834" lon="0.11628">
        <ele>47.6</ele>
        <time>2024-10-02T14:06:53Z</time>
      </trkpt>
      <trkpt lat="49.33831" lon="0.11622">
        <ele>47.2</ele>
        <time>2024-10-02T14:06:54Z</time>
      </trkpt>
      <trkpt lat="49.33827" lon="0.11615">
        <ele>46.6</ele>
        <time>2024-10-02T14:06:55Z</time>
      </trkpt>
      <trkpt lat="49.33824" lon="0.11609">
        <ele>46</ele>
        <time>2024-10-02T14:06:56Z</time>
      </trkpt>
      <trkpt lat="49.33821" lon="0.11603">
        <ele>45.4</ele>
        <time>2024-10-02T14:06:57Z</time>
      </trkpt>
      <trkpt lat="49.33817" lon="0.11597">
        <ele>44.8</ele>
        <time>2024-10-02T14:06:58Z</time>
      </trkpt>
      <trkpt lat="49.33813" lon="0.1159">
        <ele>44.2</ele>
        <time>2024-10-02T14:06:59Z</time>
      </trkpt>
      <trkpt lat="49.3381" lon="0.11583">
        <ele>43.6</ele>
        <time>2024-10-02T14:07:00Z</time>
      </trkpt>
      <trkpt lat="49.33808" lon="0.11574">
        <ele>43.2</ele>
        <time>2024-10-02T14:07:01Z</time>
      </trkpt>
      <trkpt lat="49.33807" lon="0.11565">
        <ele>42.6</ele>
        <time>2024-10-02T14:07:02Z</time>
      </trkpt>
      <trkpt lat="49.33808" lon="0.11555">
        <ele>42</ele>
        <time>2024-10-02T14:07:03Z</time>
      </trkpt>
      <trkpt lat="49.3381" lon="0.11545">
        <ele>41.6</ele>
        <time>2024-10-02T14:07:04Z</time>
      </trkpt>
      <trkpt lat="49.33813" lon="0.11535">
        <ele>41</ele>
        <time>2024-10-02T14:07:05Z</time>
      </trkpt>
      <trkpt lat="49.33818" lon="0.11525">
        <ele>40.6</ele>
        <time>2024-10-02T14:07:06Z</time>
      </trkpt>
      <trkpt lat="49.33824" lon="0.11516">
        <ele>40.2</ele>
        <time>2024-10-02T14:07:07Z</time>
      </trkpt>
      <trkpt lat="49.3383" lon="0.11507">
        <ele>39.6</ele>
        <time>2024-10-02T14:07:08Z</time>
      </trkpt>
      <trkpt lat="49.33837" lon="0.11497">
        <ele>38.8</ele>
        <time>2024-10-02T14:07:09Z</time>
      </trkpt>
      <trkpt lat="49.33844" lon="0.11488">
        <ele>38.8</ele>
        <time>2024-10-02T14:07:10Z</time>
      </trkpt>
      <trkpt lat="49.3385" lon="0.11478">
        <ele>38.2</ele>
        <time>2024-10-02T14:07:11Z</time>
      </trkpt>
      <trkpt lat="49.33855" lon="0.11468">
        <ele>37.2</ele>
        <time>2024-10-02T14:07:12Z</time>
      </trkpt>
      <trkpt lat="49.33861" lon="0.11458">
        <ele>36</ele>
        <time>2024-10-02T14:07:13Z</time>
      </trkpt>
      <trkpt lat="49.33866" lon="0.11446">
        <ele>34.8</ele>
        <time>2024-10-02T14:07:14Z</time>
      </trkpt>
      <trkpt lat="49.33871" lon="0.11434">
        <ele>34.2</ele>
        <time>2024-10-02T14:07:15Z</time>
      </trkpt>
      <trkpt lat="49.33876" lon="0.11421">
        <ele>33.2</ele>
        <time>2024-10-02T14:07:16Z</time>
      </trkpt>
      <trkpt lat="49.3388" lon="0.11407">
        <ele>32.2</ele>
        <time>2024-10-02T14:07:17Z</time>
      </trkpt>
      <trkpt lat="49.33884" lon="0.11393">
        <ele>31.2</ele>
        <time>2024-10-02T14:07:18Z</time>
      </trkpt>
      <trkpt lat="49.33889" lon="0.11378">
        <ele>30.2</ele>
        <time>2024-10-02T14:07:19Z</time>
      </trkpt>
      <trkpt lat="49.33893" lon="0.11364">
        <ele>29.6</ele>
        <time>2024-10-02T14:07:20Z</time>
      </trkpt>
      <trkpt lat="49.33898" lon="0.11349">
        <ele>29.4</ele>
        <time>2024-10-02T14:07:21Z</time>
      </trkpt>
      <trkpt lat="49.33902" lon="0.11335">
        <ele>28.8</ele>
        <time>2024-10-02T14:07:22Z</time>
      </trkpt>
      <trkpt lat="49.33906" lon="0.11321">
        <ele>28.4</ele>
        <time>2024-10-02T14:07:23Z</time>
      </trkpt>
      <trkpt lat="49.3391" lon="0.11307">
        <ele>27.8</ele>
        <time>2024-10-02T14:07:24Z</time>
      </trkpt>
      <trkpt lat="49.33914" lon="0.11293">
        <ele>27.2</ele>
        <time>2024-10-02T14:07:25Z</time>
      </trkpt>
      <trkpt lat="49.33918" lon="0.11279">
        <ele>26.8</ele>
        <time>2024-10-02T14:07:26Z</time>
      </trkpt>
      <trkpt lat="49.33922" lon="0.11266">
        <ele>26</ele>
        <time>2024-10-02T14:07:27Z</time>
      </trkpt>
      <trkpt lat="49.33926" lon="0.11252">
        <ele>25.2</ele>
        <time>2024-10-02T14:07:28Z</time>
      </trkpt>
      <trkpt lat="49.33929" lon="0.1124">
        <ele>24.6</ele>
        <time>2024-10-02T14:07:29Z</time>
      </trkpt>
      <trkpt lat="49.33932" lon="0.11227">
        <ele>24</ele>
        <time>2024-10-02T14:07:30Z</time>
      </trkpt>
      <trkpt lat="49.33935" lon="0.11215">
        <ele>24</ele>
        <time>2024-10-02T14:07:31Z</time>
      </trkpt>
      <trkpt lat="49.33938" lon="0.11202">
        <ele>23.6</ele>
        <time>2024-10-02T14:07:32Z</time>
      </trkpt>
      <trkpt lat="49.3394" lon="0.11188">
        <ele>23.2</ele>
        <time>2024-10-02T14:07:33Z</time>
      </trkpt>
      <trkpt lat="49.33942" lon="0.11175">
        <ele>22.6</ele>
        <time>2024-10-02T14:07:34Z</time>
      </trkpt>
      <trkpt lat="49.33943" lon="0.11162">
        <ele>21.8</ele>
        <time>2024-10-02T14:07:35Z</time>
      </trkpt>
      <trkpt lat="49.33942" lon="0.11148">
        <ele>21</ele>
        <time>2024-10-02T14:07:36Z</time>
      </trkpt>
      <trkpt lat="49.3394" lon="0.11135">
        <ele>20.2</ele>
        <time>2024-10-02T14:07:37Z</time>
      </trkpt>
      <trkpt lat="49.33936" lon="0.11122">
        <ele>19.4</ele>
        <time>2024-10-02T14:07:38Z</time>
      </trkpt>
      <trkpt lat="49.33932" lon="0.11109">
        <ele>18.4</ele>
        <time>2024-10-02T14:07:39Z</time>
      </trkpt>
      <trkpt lat="49.33927" lon="0.11097">
        <ele>18</ele>
        <time>2024-10-02T14:07:40Z</time>
      </trkpt>
      <trkpt lat="49.33922" lon="0.11084">
        <ele>17.4</ele>
        <time>2024-10-02T14:07:41Z</time>
      </trkpt>
      <trkpt lat="49.33917" lon="0.1107">
        <ele>16.8</ele>
        <time>2024-10-02T14:07:42Z</time>
      </trkpt>
      <trkpt lat="49.33913" lon="0.11056">
        <ele>16</ele>
        <time>2024-10-02T14:07:43Z</time>
      </trkpt>
      <trkpt lat="49.33908" lon="0.11043">
        <ele>15.4</ele>
        <time>2024-10-02T14:07:44Z</time>
      </trkpt>
      <trkpt lat="49.33903" lon="0.11029">
        <ele>14.4</ele>
        <time>2024-10-02T14:07:45Z</time>
      </trkpt>
      <trkpt lat="49.33899" lon="0.11015">
        <ele>14</ele>
        <time>2024-10-02T14:07:46Z</time>
      </trkpt>
      <trkpt lat="49.33894" lon="0.11001">
        <ele>13.2</ele>
        <time>2024-10-02T14:07:47Z</time>
      </trkpt>
      <trkpt lat="49.3389" lon="0.10986">
        <ele>12.8</ele>
        <time>2024-10-02T14:07:48Z</time>
      </trkpt>
      <trkpt lat="49.33885" lon="0.10972">
        <ele>12.4</ele>
        <time>2024-10-02T14:07:49Z</time>
      </trkpt>
      <trkpt lat="49.33881" lon="0.10957">
        <ele>11.6</ele>
        <time>2024-10-02T14:07:50Z</time>
      </trkpt>
      <trkpt lat="49.33876" lon="0.10943">
        <ele>11.6</ele>
        <time>2024-10-02T14:07:51Z</time>
      </trkpt>
      <trkpt lat="49.33872" lon="0.10929">
        <ele>11.2</ele>
        <time>2024-10-02T14:07:52Z</time>
      </trkpt>
      <trkpt lat="49.33868" lon="0.10915">
        <ele>10.8</ele>
        <time>2024-10-02T14:07:53Z</time>
      </trkpt>
      <trkpt lat="49.33865" lon="0.10902">
        <ele>10.2</ele>
        <time>2024-10-02T14:07:54Z</time>
      </trkpt>
      <trkpt lat="49.33862" lon="0.10889">
        <ele>9.2</ele>
        <time>2024-10-02T14:07:55Z</time>
      </trkpt>
      <trkpt lat="49.33859" lon="0.10878">
        <ele>8.6</ele>
        <time>2024-10-02T14:07:56Z</time>
      </trkpt>
      <trkpt lat="49.33856" lon="0.10868">
        <ele>8.2</ele>
        <time>2024-10-02T14:07:57Z</time>
      </trkpt>
      <trkpt lat="49.33853" lon="0.10859">
        <ele>7.6</ele>
        <time>2024-10-02T14:07:58Z</time>
      </trkpt>
      <trkpt lat="49.33851" lon="0.10851">
        <ele>7.4</ele>
        <time>2024-10-02T14:07:59Z</time>
      </trkpt>
      <trkpt lat="49.33849" lon="0.10843">
        <ele>7</ele>
        <time>2024-10-02T14:08:00Z</time>
      </trkpt>
      <trkpt lat="49.33847" lon="0.10836">
        <ele>6.6</ele>
        <time>2024-10-02T14:08:01Z</time>
      </trkpt>
      <trkpt lat="49.33845" lon="0.10831">
        <ele>6.6</ele>
        <time>2024-10-02T14:08:02Z</time>
      </trkpt>
      <trkpt lat="49.33844" lon="0.10828">
        <ele>6.4</ele>
        <time>2024-10-02T14:08:03Z</time>
      </trkpt>
      <trkpt lat="49.33843" lon="0.10826">
        <ele>6.4</ele>
        <time>2024-10-02T14:08:04Z</time>
      </trkpt>
      <trkpt lat="49.33843" lon="0.10825">
        <ele>6.4</ele>
        <time>2024-10-02T14:08:05Z</time>
      </trkpt>
      <trkpt lat="49.33843" lon="0.10825">
        <ele>6.2</ele>
        <time>2024-10-02T14:08:06Z</time>
      </trkpt>
      <trkpt lat="49.33841" lon="0.10817">
        <ele>6</ele>
        <time>2024-10-02T14:08:26Z</time>
      </trkpt>
      <trkpt lat="49.3384" lon="0.10814">
        <ele>6</ele>
        <time>2024-10-02T14:08:27Z</time>
      </trkpt>
      <trkpt lat="49.33839" lon="0.10812">
        <ele>6</ele>
        <time>2024-10-02T14:08:28Z</time>
      </trkpt>
      <trkpt lat="49.33838" lon="0.10809">
        <ele>6</ele>
        <time>2024-10-02T14:08:29Z</time>
      </trkpt>
      <trkpt lat="49.33837" lon="0.10807">
        <ele>6</ele>
        <time>2024-10-02T14:08:30Z</time>
      </trkpt>
      <trkpt lat="49.33836" lon="0.10806">
        <ele>6</ele>
        <time>2024-10-02T14:08:31Z</time>
      </trkpt>
      <trkpt lat="49.33835" lon="0.10805">
        <ele>6</ele>
        <time>2024-10-02T14:08:32Z</time>
      </trkpt>
      <trkpt lat="49.33835" lon="0.10805">
        <ele>6</ele>
        <time>2024-10-02T14:08:33Z</time>
      </trkpt>
      <trkpt lat="49.33834" lon="0.10803">
        <ele>6</ele>
        <time>2024-10-02T14:08:34Z</time>
      </trkpt>
      <trkpt lat="49.33836" lon="0.10794">
        <ele>5.8</ele>
        <time>2024-10-02T14:08:40Z</time>
      </trkpt>
      <trkpt lat="49.33837" lon="0.10792">
        <ele>5.8</ele>
        <time>2024-10-02T14:08:41Z</time>
      </trkpt>
      <trkpt lat="49.33839" lon="0.10789">
        <ele>5.8</ele>
        <time>2024-10-02T14:08:42Z</time>
      </trkpt>
      <trkpt lat="49.3384" lon="0.10787">
        <ele>5.8</ele>
        <time>2024-10-02T14:08:43Z</time>
      </trkpt>
      <trkpt lat="49.33842" lon="0.10783">
        <ele>5.8</ele>
        <time>2024-10-02T14:08:44Z</time>
      </trkpt>
      <trkpt lat="49.33844" lon="0.1078">
        <ele>5.8</ele>
        <time>2024-10-02T14:08:45Z</time>
      </trkpt>
      <trkpt lat="49.33846" lon="0.10777">
        <ele>5.8</ele>
        <time>2024-10-02T14:08:46Z</time>
      </trkpt>
      <trkpt lat="49.33849" lon="0.10774">
        <ele>5.8</ele>
        <time>2024-10-02T14:08:47Z</time>
      </trkpt>
      <trkpt lat="49.33851" lon="0.1077">
        <ele>5.8</ele>
        <time>2024-10-02T14:08:48Z</time>
      </trkpt>
      <trkpt lat="49.33854" lon="0.10766">
        <ele>5.8</ele>
        <time>2024-10-02T14:08:49Z</time>
      </trkpt>
      <trkpt lat="49.33857" lon="0.10762">
        <ele>5.8</ele>
        <time>2024-10-02T14:08:50Z</time>
      </trkpt>
      <trkpt lat="49.3386" lon="0.10757">
        <ele>5.6</ele>
        <time>2024-10-02T14:08:51Z</time>
      </trkpt>
      <trkpt lat="49.33864" lon="0.10753">
        <ele>5.6</ele>
        <time>2024-10-02T14:08:52Z</time>
      </trkpt>
      <trkpt lat="49.33867" lon="0.10748">
        <ele>5.6</ele>
        <time>2024-10-02T14:08:53Z</time>
      </trkpt>
      <trkpt lat="49.33871" lon="0.10744">
        <ele>5.6</ele>
        <time>2024-10-02T14:08:54Z</time>
      </trkpt>
      <trkpt lat="49.33874" lon="0.10738">
        <ele>5.6</ele>
        <time>2024-10-02T14:08:55Z</time>
      </trkpt>
      <trkpt lat="49.33878" lon="0.10733">
        <ele>5.6</ele>
        <time>2024-10-02T14:08:56Z</time>
      </trkpt>
      <trkpt lat="49.33881" lon="0.10727">
        <ele>5.6</ele>
        <time>2024-10-02T14:08:57Z</time>
      </trkpt>
      <trkpt lat="49.33885" lon="0.10722">
        <ele>5.6</ele>
        <time>2024-10-02T14:08:58Z</time>
      </trkpt>
      <trkpt lat="49.33889" lon="0.10716">
        <ele>5.6</ele>
        <time>2024-10-02T14:08:59Z</time>
      </trkpt>
      <trkpt lat="49.33893" lon="0.1071">
        <ele>5.4</ele>
        <time>2024-10-02T14:09:00Z</time>
      </trkpt>
      <trkpt lat="49.33897" lon="0.10704">
        <ele>5.4</ele>
        <time>2024-10-02T14:09:01Z</time>
      </trkpt>
      <trkpt lat="49.33902" lon="0.10698">
        <ele>5.4</ele>
        <time>2024-10-02T14:09:02Z</time>
      </trkpt>
      <trkpt lat="49.33907" lon="0.1069">
        <ele>5.2</ele>
        <time>2024-10-02T14:09:03Z</time>
      </trkpt>
      <trkpt lat="49.33912" lon="0.10683">
        <ele>5.2</ele>
        <time>2024-10-02T14:09:04Z</time>
      </trkpt>
      <trkpt lat="49.33917" lon="0.10676">
        <ele>5.2</ele>
        <time>2024-10-02T14:09:05Z</time>
      </trkpt>
      <trkpt lat="49.33921" lon="0.10669">
        <ele>5.2</ele>
        <time>2024-10-02T14:09:06Z</time>
      </trkpt>
      <trkpt lat="49.33926" lon="0.10663">
        <ele>5.2</ele>
        <time>2024-10-02T14:09:07Z</time>
      </trkpt>
      <trkpt lat="49.3393" lon="0.10656">
        <ele>5.2</ele>
        <time>2024-10-02T14:09:08Z</time>
      </trkpt>
      <trkpt lat="49.33935" lon="0.1065">
        <ele>5</ele>
        <time>2024-10-02T14:09:09Z</time>
      </trkpt>
      <trkpt lat="49.33939" lon="0.10643">
        <ele>5</ele>
        <time>2024-10-02T14:09:10Z</time>
      </trkpt>
      <trkpt lat="49.33944" lon="0.10636">
        <ele>5</ele>
        <time>2024-10-02T14:09:11Z</time>
      </trkpt>
      <trkpt lat="49.33948" lon="0.10629">
        <ele>4.8</ele>
        <time>2024-10-02T14:09:12Z</time>
      </trkpt>
      <trkpt lat="49.33953" lon="0.10622">
        <ele>4.6</ele>
        <time>2024-10-02T14:09:13Z</time>
      </trkpt>
      <trkpt lat="49.33958" lon="0.10616">
        <ele>4.4</ele>
        <time>2024-10-02T14:09:14Z</time>
      </trkpt>
      <trkpt lat="49.33962" lon="0.10609">
        <ele>4.4</ele>
        <time>2024-10-02T14:09:15Z</time>
      </trkpt>
      <trkpt lat="49.33967" lon="0.10602">
        <ele>4.4</ele>
        <time>2024-10-02T14:09:16Z</time>
      </trkpt>
      <trkpt lat="49.33971" lon="0.10595">
        <ele>4.4</ele>
        <time>2024-10-02T14:09:17Z</time>
      </trkpt>
      <trkpt lat="49.33976" lon="0.10588">
        <ele>4.4</ele>
        <time>2024-10-02T14:09:18Z</time>
      </trkpt>
      <trkpt lat="49.33981" lon="0.10581">
        <ele>4.4</ele>
        <time>2024-10-02T14:09:19Z</time>
      </trkpt>
      <trkpt lat="49.33986" lon="0.10573">
        <ele>4.4</ele>
        <time>2024-10-02T14:09:20Z</time>
      </trkpt>
      <trkpt lat="49.33991" lon="0.10566">
        <ele>4.4</ele>
        <time>2024-10-02T14:09:21Z</time>
      </trkpt>
      <trkpt lat="49.33996" lon="0.10558">
        <ele>4.4</ele>
        <time>2024-10-02T14:09:22Z</time>
      </trkpt>
      <trkpt lat="49.34001" lon="0.10551">
        <ele>4.4</ele>
        <time>2024-10-02T14:09:23Z</time>
      </trkpt>
      <trkpt lat="49.34006" lon="0.10543">
        <ele>4.4</ele>
        <time>2024-10-02T14:09:24Z</time>
      </trkpt>
      <trkpt lat="49.34011" lon="0.10536">
        <ele>4.4</ele>
        <time>2024-10-02T14:09:25Z</time>
      </trkpt>
      <trkpt lat="49.34016" lon="0.10529">
        <ele>4.4</ele>
        <time>2024-10-02T14:09:26Z</time>
      </trkpt>
      <trkpt lat="49.34021" lon="0.10522">
        <ele>4.4</ele>
        <time>2024-10-02T14:09:27Z</time>
      </trkpt>
      <trkpt lat="49.34026" lon="0.10515">
        <ele>4.4</ele>
        <time>2024-10-02T14:09:28Z</time>
      </trkpt>
      <trkpt lat="49.34031" lon="0.10509">
        <ele>4.4</ele>
        <time>2024-10-02T14:09:29Z</time>
      </trkpt>
      <trkpt lat="49.34035" lon="0.10502">
        <ele>4.4</ele>
        <time>2024-10-02T14:09:30Z</time>
      </trkpt>
      <trkpt lat="49.3404" lon="0.10496">
        <ele>4.4</ele>
        <time>2024-10-02T14:09:31Z</time>
      </trkpt>
      <trkpt lat="49.34044" lon="0.10489">
        <ele>4.2</ele>
        <time>2024-10-02T14:09:32Z</time>
      </trkpt>
      <trkpt lat="49.34048" lon="0.10483">
        <ele>4.2</ele>
        <time>2024-10-02T14:09:33Z</time>
      </trkpt>
      <trkpt lat="49.34052" lon="0.10477">
        <ele>4.2</ele>
        <time>2024-10-02T14:09:34Z</time>
      </trkpt>
      <trkpt lat="49.34056" lon="0.10471">
        <ele>4.2</ele>
        <time>2024-10-02T14:09:35Z</time>
      </trkpt>
      <trkpt lat="49.3406" lon="0.10465">
        <ele>4</ele>
        <time>2024-10-02T14:09:36Z</time>
      </trkpt>
      <trkpt lat="49.34063" lon="0.1046">
        <ele>4</ele>
        <time>2024-10-02T14:09:37Z</time>
      </trkpt>
      <trkpt lat="49.34066" lon="0.10455">
        <ele>4</ele>
        <time>2024-10-02T14:09:38Z</time>
      </trkpt>
      <trkpt lat="49.3407" lon="0.1045">
        <ele>4</ele>
        <time>2024-10-02T14:09:39Z</time>
      </trkpt>
      <trkpt lat="49.34073" lon="0.10446">
        <ele>4</ele>
        <time>2024-10-02T14:09:40Z</time>
      </trkpt>
      <trkpt lat="49.34077" lon="0.10441">
        <ele>4</ele>
        <time>2024-10-02T14:09:41Z</time>
      </trkpt>
      <trkpt lat="49.3408" lon="0.10436">
        <ele>4</ele>
        <time>2024-10-02T14:09:42Z</time>
      </trkpt>
      <trkpt lat="49.34082" lon="0.10431">
        <ele>4</ele>
        <time>2024-10-02T14:09:43Z</time>
      </trkpt>
      <trkpt lat="49.34083" lon="0.10425">
        <ele>4</ele>
        <time>2024-10-02T14:09:44Z</time>
      </trkpt>
      <trkpt lat="49.34081" lon="0.1042">
        <ele>4</ele>
        <time>2024-10-02T14:09:45Z</time>
      </trkpt>
      <trkpt lat="49.34078" lon="0.10413">
        <ele>4</ele>
        <time>2024-10-02T14:09:46Z</time>
      </trkpt>
      <trkpt lat="49.34074" lon="0.10407">
        <ele>4</ele>
        <time>2024-10-02T14:09:47Z</time>
      </trkpt>
      <trkpt lat="49.3407" lon="0.10401">
        <ele>4</ele>
        <time>2024-10-02T14:09:48Z</time>
      </trkpt>
      <trkpt lat="49.34066" lon="0.10395">
        <ele>4</ele>
        <time>2024-10-02T14:09:49Z</time>
      </trkpt>
      <trkpt lat="49.34062" lon="0.10389">
        <ele>4</ele>
        <time>2024-10-02T14:09:50Z</time>
      </trkpt>
      <trkpt lat="49.34058" lon="0.10382">
        <ele>4</ele>
        <time>2024-10-02T14:09:51Z</time>
      </trkpt>
      <trkpt lat="49.34055" lon="0.10376">
        <ele>4</ele>
        <time>2024-10-02T14:09:52Z</time>
      </trkpt>
      <trkpt lat="49.34051" lon="0.10369">
        <ele>4</ele>
        <time>2024-10-02T14:09:53Z</time>
      </trkpt>
      <trkpt lat="49.34048" lon="0.10363">
        <ele>4</ele>
        <time>2024-10-02T14:09:54Z</time>
      </trkpt>
      <trkpt lat="49.34044" lon="0.10357">
        <ele>4</ele>
        <time>2024-10-02T14:09:55Z</time>
      </trkpt>
      <trkpt lat="49.34041" lon="0.1035">
        <ele>4</ele>
        <time>2024-10-02T14:09:56Z</time>
      </trkpt>
      <trkpt lat="49.34038" lon="0.10344">
        <ele>4</ele>
        <time>2024-10-02T14:09:57Z</time>
      </trkpt>
      <trkpt lat="49.34035" lon="0.10339">
        <ele>4</ele>
        <time>2024-10-02T14:09:58Z</time>
      </trkpt>
      <trkpt lat="49.34033" lon="0.10334">
        <ele>4</ele>
        <time>2024-10-02T14:09:59Z</time>
      </trkpt>
      <trkpt lat="49.34031" lon="0.1033">
        <ele>4</ele>
        <time>2024-10-02T14:10:00Z</time>
      </trkpt>
      <trkpt lat="49.3403" lon="0.10327">
        <ele>4</ele>
        <time>2024-10-02T14:10:01Z</time>
      </trkpt>
      <trkpt lat="49.34029" lon="0.10324">
        <ele>4</ele>
        <time>2024-10-02T14:10:02Z</time>
      </trkpt>
      <trkpt lat="49.34029" lon="0.10324">
        <ele>4</ele>
        <time>2024-10-02T14:10:03Z</time>
      </trkpt>
      <trkpt lat="49.34029" lon="0.10324">
        <ele>4</ele>
        <time>2024-10-02T14:10:04Z</time>
      </trkpt>
      <trkpt lat="49.34026" lon="0.10314">
        <ele>4.8</ele>
        <time>2024-10-02T14:10:42Z</time>
      </trkpt>
      <trkpt lat="49.34026" lon="0.10311">
        <ele>4.8</ele>
        <time>2024-10-02T14:10:43Z</time>
      </trkpt>
      <trkpt lat="49.34025" lon="0.10308">
        <ele>4.6</ele>
        <time>2024-10-02T14:10:44Z</time>
      </trkpt>
      <trkpt lat="49.34024" lon="0.10304">
        <ele>4.6</ele>
        <time>2024-10-02T14:10:45Z</time>
      </trkpt>
      <trkpt lat="49.34022" lon="0.103">
        <ele>4.6</ele>
        <time>2024-10-02T14:10:46Z</time>
      </trkpt>
      <trkpt lat="49.3402" lon="0.10296">
        <ele>4.6</ele>
        <time>2024-10-02T14:10:47Z</time>
      </trkpt>
      <trkpt lat="49.34017" lon="0.10292">
        <ele>4.6</ele>
        <time>2024-10-02T14:10:48Z</time>
      </trkpt>
      <trkpt lat="49.34014" lon="0.10288">
        <ele>4.6</ele>
        <time>2024-10-02T14:10:49Z</time>
      </trkpt>
      <trkpt lat="49.34012" lon="0.10283">
        <ele>4.6</ele>
        <time>2024-10-02T14:10:50Z</time>
      </trkpt>
      <trkpt lat="49.3401" lon="0.10277">
        <ele>4.6</ele>
        <time>2024-10-02T14:10:51Z</time>
      </trkpt>
      <trkpt lat="49.34008" lon="0.10271">
        <ele>4.6</ele>
        <time>2024-10-02T14:10:52Z</time>
      </trkpt>
      <trkpt lat="49.34006" lon="0.10265">
        <ele>4.6</ele>
        <time>2024-10-02T14:10:53Z</time>
      </trkpt>
      <trkpt lat="49.34005" lon="0.10258">
        <ele>4.6</ele>
        <time>2024-10-02T14:10:54Z</time>
      </trkpt>
      <trkpt lat="49.34003" lon="0.10252">
        <ele>4.6</ele>
        <time>2024-10-02T14:10:55Z</time>
      </trkpt>
      <trkpt lat="49.34001" lon="0.10246">
        <ele>4.8</ele>
        <time>2024-10-02T14:10:56Z</time>
      </trkpt>
      <trkpt lat="49.33999" lon="0.10239">
        <ele>5</ele>
        <time>2024-10-02T14:10:57Z</time>
      </trkpt>
      <trkpt lat="49.33996" lon="0.10232">
        <ele>5</ele>
        <time>2024-10-02T14:10:58Z</time>
      </trkpt>
      <trkpt lat="49.33994" lon="0.10225">
        <ele>5</ele>
        <time>2024-10-02T14:10:59Z</time>
      </trkpt>
      <trkpt lat="49.33992" lon="0.10218">
        <ele>5</ele>
        <time>2024-10-02T14:11:00Z</time>
      </trkpt>
      <trkpt lat="49.3399" lon="0.10211">
        <ele>5</ele>
        <time>2024-10-02T14:11:01Z</time>
      </trkpt>
      <trkpt lat="49.33988" lon="0.10203">
        <ele>5</ele>
        <time>2024-10-02T14:11:02Z</time>
      </trkpt>
      <trkpt lat="49.33986" lon="0.10195">
        <ele>5</ele>
        <time>2024-10-02T14:11:03Z</time>
      </trkpt>
      <trkpt lat="49.33984" lon="0.10187">
        <ele>5</ele>
        <time>2024-10-02T14:11:04Z</time>
      </trkpt>
      <trkpt lat="49.33981" lon="0.10176">
        <ele>5</ele>
        <time>2024-10-02T14:11:05Z</time>
      </trkpt>
      <trkpt lat="49.33979" lon="0.10167">
        <ele>5</ele>
        <time>2024-10-02T14:11:06Z</time>
      </trkpt>
      <trkpt lat="49.33977" lon="0.10159">
        <ele>5</ele>
        <time>2024-10-02T14:11:07Z</time>
      </trkpt>
      <trkpt lat="49.33974" lon="0.1015">
        <ele>5</ele>
        <time>2024-10-02T14:11:08Z</time>
      </trkpt>
      <trkpt lat="49.33972" lon="0.10142">
        <ele>5</ele>
        <time>2024-10-02T14:11:09Z</time>
      </trkpt>
      <trkpt lat="49.33969" lon="0.10131">
        <ele>5</ele>
        <time>2024-10-02T14:11:10Z</time>
      </trkpt>
      <trkpt lat="49.33966" lon="0.10121">
        <ele>4.8</ele>
        <time>2024-10-02T14:11:11Z</time>
      </trkpt>
      <trkpt lat="49.33964" lon="0.10113">
        <ele>4.8</ele>
        <time>2024-10-02T14:11:12Z</time>
      </trkpt>
      <trkpt lat="49.33961" lon="0.10101">
        <ele>4.8</ele>
        <time>2024-10-02T14:11:13Z</time>
      </trkpt>
      <trkpt lat="49.33959" lon="0.10092">
        <ele>4.8</ele>
        <time>2024-10-02T14:11:14Z</time>
      </trkpt>
      <trkpt lat="49.33956" lon="0.10082">
        <ele>4.8</ele>
        <time>2024-10-02T14:11:15Z</time>
      </trkpt>
      <trkpt lat="49.33954" lon="0.10073">
        <ele>4.8</ele>
        <time>2024-10-02T14:11:16Z</time>
      </trkpt>
      <trkpt lat="49.33951" lon="0.10063">
        <ele>4.6</ele>
        <time>2024-10-02T14:11:17Z</time>
      </trkpt>
      <trkpt lat="49.33949" lon="0.10054">
        <ele>4.4</ele>
        <time>2024-10-02T14:11:18Z</time>
      </trkpt>
      <trkpt lat="49.33946" lon="0.10044">
        <ele>4.4</ele>
        <time>2024-10-02T14:11:19Z</time>
      </trkpt>
      <trkpt lat="49.33943" lon="0.10035">
        <ele>4</ele>
        <time>2024-10-02T14:11:20Z</time>
      </trkpt>
      <trkpt lat="49.33941" lon="0.10025">
        <ele>4</ele>
        <time>2024-10-02T14:11:21Z</time>
      </trkpt>
      <trkpt lat="49.33938" lon="0.10016">
        <ele>3.6</ele>
        <time>2024-10-02T14:11:22Z</time>
      </trkpt>
      <trkpt lat="49.33936" lon="0.10006">
        <ele>3.6</ele>
        <time>2024-10-02T14:11:23Z</time>
      </trkpt>
      <trkpt lat="49.33934" lon="0.09999">
        <ele>3.4</ele>
        <time>2024-10-02T14:11:24Z</time>
      </trkpt>
      <trkpt lat="49.33931" lon="0.09989">
        <ele>3.4</ele>
        <time>2024-10-02T14:11:25Z</time>
      </trkpt>
      <trkpt lat="49.33929" lon="0.0998">
        <ele>3.4</ele>
        <time>2024-10-02T14:11:26Z</time>
      </trkpt>
      <trkpt lat="49.33927" lon="0.09971">
        <ele>3.4</ele>
        <time>2024-10-02T14:11:27Z</time>
      </trkpt>
      <trkpt lat="49.33925" lon="0.09963">
        <ele>3.4</ele>
        <time>2024-10-02T14:11:28Z</time>
      </trkpt>
      <trkpt lat="49.33922" lon="0.09952">
        <ele>3.4</ele>
        <time>2024-10-02T14:11:29Z</time>
      </trkpt>
      <trkpt lat="49.3392" lon="0.09942">
        <ele>3.2</ele>
        <time>2024-10-02T14:11:30Z</time>
      </trkpt>
      <trkpt lat="49.33919" lon="0.09932">
        <ele>3.2</ele>
        <time>2024-10-02T14:11:31Z</time>
      </trkpt>
      <trkpt lat="49.33919" lon="0.09922">
        <ele>3.2</ele>
        <time>2024-10-02T14:11:32Z</time>
      </trkpt>
      <trkpt lat="49.33921" lon="0.09912">
        <ele>3.2</ele>
        <time>2024-10-02T14:11:33Z</time>
      </trkpt>
      <trkpt lat="49.33924" lon="0.09902">
        <ele>3.2</ele>
        <time>2024-10-02T14:11:34Z</time>
      </trkpt>
      <trkpt lat="49.33925" lon="0.09894">
        <ele>3.2</ele>
        <time>2024-10-02T14:11:35Z</time>
      </trkpt>
      <trkpt lat="49.33926" lon="0.09887">
        <ele>3.2</ele>
        <time>2024-10-02T14:11:36Z</time>
      </trkpt>
      <trkpt lat="49.33925" lon="0.09882">
        <ele>3.2</ele>
        <time>2024-10-02T14:11:37Z</time>
      </trkpt>
      <trkpt lat="49.33924" lon="0.09874">
        <ele>3.2</ele>
        <time>2024-10-02T14:11:38Z</time>
      </trkpt>
      <trkpt lat="49.33923" lon="0.09869">
        <ele>3.2</ele>
        <time>2024-10-02T14:11:39Z</time>
      </trkpt>
      <trkpt lat="49.33921" lon="0.09866">
        <ele>3.4</ele>
        <time>2024-10-02T14:11:40Z</time>
      </trkpt>
      <trkpt lat="49.33918" lon="0.09861">
        <ele>3.4</ele>
        <time>2024-10-02T14:11:41Z</time>
      </trkpt>
      <trkpt lat="49.33915" lon="0.09859">
        <ele>3.4</ele>
        <time>2024-10-02T14:11:42Z</time>
      </trkpt>
      <trkpt lat="49.33913" lon="0.09858">
        <ele>3.6</ele>
        <time>2024-10-02T14:11:43Z</time>
      </trkpt>
      <trkpt lat="49.33909" lon="0.09856">
        <ele>3.6</ele>
        <time>2024-10-02T14:11:44Z</time>
      </trkpt>
      <trkpt lat="49.33905" lon="0.09854">
        <ele>3.6</ele>
        <time>2024-10-02T14:11:45Z</time>
      </trkpt>
      <trkpt lat="49.33902" lon="0.09851">
        <ele>3.6</ele>
        <time>2024-10-02T14:11:46Z</time>
      </trkpt>
      <trkpt lat="49.33897" lon="0.09846">
        <ele>3.6</ele>
        <time>2024-10-02T14:11:47Z</time>
      </trkpt>
      <trkpt lat="49.33894" lon="0.0984">
        <ele>3.6</ele>
        <time>2024-10-02T14:11:48Z</time>
      </trkpt>
      <trkpt lat="49.33892" lon="0.09834">
        <ele>3.6</ele>
        <time>2024-10-02T14:11:49Z</time>
      </trkpt>
      <trkpt lat="49.33889" lon="0.09827">
        <ele>3.6</ele>
        <time>2024-10-02T14:11:50Z</time>
      </trkpt>
      <trkpt lat="49.33887" lon="0.09817">
        <ele>3.6</ele>
        <time>2024-10-02T14:11:51Z</time>
      </trkpt>
      <trkpt lat="49.33884" lon="0.0981">
        <ele>3.6</ele>
        <time>2024-10-02T14:11:52Z</time>
      </trkpt>
      <trkpt lat="49.33882" lon="0.09799">
        <ele>3.6</ele>
        <time>2024-10-02T14:11:53Z</time>
      </trkpt>
      <trkpt lat="49.33879" lon="0.0979">
        <ele>3.6</ele>
        <time>2024-10-02T14:11:54Z</time>
      </trkpt>
      <trkpt lat="49.33878" lon="0.09783">
        <ele>3.6</ele>
        <time>2024-10-02T14:11:55Z</time>
      </trkpt>
      <trkpt lat="49.33875" lon="0.09772">
        <ele>3.6</ele>
        <time>2024-10-02T14:11:56Z</time>
      </trkpt>
      <trkpt lat="49.33874" lon="0.09763">
        <ele>3.6</ele>
        <time>2024-10-02T14:11:57Z</time>
      </trkpt>
      <trkpt lat="49.33872" lon="0.09756">
        <ele>3.4</ele>
        <time>2024-10-02T14:11:58Z</time>
      </trkpt>
      <trkpt lat="49.33869" lon="0.09746">
        <ele>3.4</ele>
        <time>2024-10-02T14:11:59Z</time>
      </trkpt>
      <trkpt lat="49.33868" lon="0.0974">
        <ele>3.4</ele>
        <time>2024-10-02T14:12:00Z</time>
      </trkpt>
      <trkpt lat="49.33866" lon="0.09732">
        <ele>3.2</ele>
        <time>2024-10-02T14:12:01Z</time>
      </trkpt>
      <trkpt lat="49.33864" lon="0.09723">
        <ele>3.2</ele>
        <time>2024-10-02T14:12:02Z</time>
      </trkpt>
      <trkpt lat="49.33862" lon="0.09714">
        <ele>3.2</ele>
        <time>2024-10-02T14:12:03Z</time>
      </trkpt>
      <trkpt lat="49.33861" lon="0.09707">
        <ele>3.2</ele>
        <time>2024-10-02T14:12:04Z</time>
      </trkpt>
      <trkpt lat="49.33858" lon="0.09697">
        <ele>3.2</ele>
        <time>2024-10-02T14:12:05Z</time>
      </trkpt>
      <trkpt lat="49.33856" lon="0.09688">
        <ele>3</ele>
        <time>2024-10-02T14:12:06Z</time>
      </trkpt>
      <trkpt lat="49.33855" lon="0.09681">
        <ele>3</ele>
        <time>2024-10-02T14:12:07Z</time>
      </trkpt>
      <trkpt lat="49.33853" lon="0.09671">
        <ele>3</ele>
        <time>2024-10-02T14:12:08Z</time>
      </trkpt>
      <trkpt lat="49.3385" lon="0.09661">
        <ele>3</ele>
        <time>2024-10-02T14:12:09Z</time>
      </trkpt>
      <trkpt lat="49.33849" lon="0.09655">
        <ele>3</ele>
        <time>2024-10-02T14:12:10Z</time>
      </trkpt>
      <trkpt lat="49.33847" lon="0.09645">
        <ele>3</ele>
        <time>2024-10-02T14:12:11Z</time>
      </trkpt>
      <trkpt lat="49.33845" lon="0.09636">
        <ele>3</ele>
        <time>2024-10-02T14:12:12Z</time>
      </trkpt>
      <trkpt lat="49.33842" lon="0.09624">
        <ele>3</ele>
        <time>2024-10-02T14:12:13Z</time>
      </trkpt>
      <trkpt lat="49.3384" lon="0.09614">
        <ele>3</ele>
        <time>2024-10-02T14:12:14Z</time>
      </trkpt>
      <trkpt lat="49.33838" lon="0.09603">
        <ele>3</ele>
        <time>2024-10-02T14:12:15Z</time>
      </trkpt>
      <trkpt lat="49.33837" lon="0.09594">
        <ele>3</ele>
        <time>2024-10-02T14:12:16Z</time>
      </trkpt>
      <trkpt lat="49.33834" lon="0.09582">
        <ele>3</ele>
        <time>2024-10-02T14:12:17Z</time>
      </trkpt>
      <trkpt lat="49.33832" lon="0.09571">
        <ele>3</ele>
        <time>2024-10-02T14:12:18Z</time>
      </trkpt>
      <trkpt lat="49.3383" lon="0.09563">
        <ele>3</ele>
        <time>2024-10-02T14:12:19Z</time>
      </trkpt>
      <trkpt lat="49.33828" lon="0.09552">
        <ele>3</ele>
        <time>2024-10-02T14:12:20Z</time>
      </trkpt>
      <trkpt lat="49.33826" lon="0.09543">
        <ele>3</ele>
        <time>2024-10-02T14:12:21Z</time>
      </trkpt>
      <trkpt lat="49.33824" lon="0.09537">
        <ele>3</ele>
        <time>2024-10-02T14:12:22Z</time>
      </trkpt>
      <trkpt lat="49.33822" lon="0.09528">
        <ele>3</ele>
        <time>2024-10-02T14:12:23Z</time>
      </trkpt>
      <trkpt lat="49.33821" lon="0.09521">
        <ele>3</ele>
        <time>2024-10-02T14:12:24Z</time>
      </trkpt>
      <trkpt lat="49.3382" lon="0.09515">
        <ele>3</ele>
        <time>2024-10-02T14:12:25Z</time>
      </trkpt>
      <trkpt lat="49.33818" lon="0.09507">
        <ele>3</ele>
        <time>2024-10-02T14:12:26Z</time>
      </trkpt>
      <trkpt lat="49.33817" lon="0.09502">
        <ele>3.2</ele>
        <time>2024-10-02T14:12:27Z</time>
      </trkpt>
      <trkpt lat="49.33816" lon="0.09496">
        <ele>3.2</ele>
        <time>2024-10-02T14:12:28Z</time>
      </trkpt>
      <trkpt lat="49.33815" lon="0.0949">
        <ele>3.2</ele>
        <time>2024-10-02T14:12:29Z</time>
      </trkpt>
      <trkpt lat="49.33814" lon="0.09485">
        <ele>3.2</ele>
        <time>2024-10-02T14:12:30Z</time>
      </trkpt>
      <trkpt lat="49.33813" lon="0.09482">
        <ele>3.2</ele>
        <time>2024-10-02T14:12:31Z</time>
      </trkpt>
      <trkpt lat="49.33813" lon="0.09479">
        <ele>3.6</ele>
        <time>2024-10-02T14:12:32Z</time>
      </trkpt>
      <trkpt lat="49.33812" lon="0.09476">
        <ele>3.6</ele>
        <time>2024-10-02T14:12:33Z</time>
      </trkpt>
      <trkpt lat="49.33811" lon="0.09473">
        <ele>3.4</ele>
        <time>2024-10-02T14:12:34Z</time>
      </trkpt>
      <trkpt lat="49.3381" lon="0.09469">
        <ele>3.8</ele>
        <time>2024-10-02T14:12:35Z</time>
      </trkpt>
      <trkpt lat="49.33809" lon="0.09465">
        <ele>3.8</ele>
        <time>2024-10-02T14:12:36Z</time>
      </trkpt>
      <trkpt lat="49.33808" lon="0.09461">
        <ele>4</ele>
        <time>2024-10-02T14:12:37Z</time>
      </trkpt>
      <trkpt lat="49.33806" lon="0.09456">
        <ele>4</ele>
        <time>2024-10-02T14:12:38Z</time>
      </trkpt>
      <trkpt lat="49.33805" lon="0.09451">
        <ele>4.2</ele>
        <time>2024-10-02T14:12:39Z</time>
      </trkpt>
      <trkpt lat="49.33804" lon="0.09446">
        <ele>4.4</ele>
        <time>2024-10-02T14:12:40Z</time>
      </trkpt>
      <trkpt lat="49.33803" lon="0.09438">
        <ele>4.4</ele>
        <time>2024-10-02T14:12:41Z</time>
      </trkpt>
      <trkpt lat="49.33801" lon="0.0943">
        <ele>4.4</ele>
        <time>2024-10-02T14:12:42Z</time>
      </trkpt>
      <trkpt lat="49.338" lon="0.09424">
        <ele>4.4</ele>
        <time>2024-10-02T14:12:43Z</time>
      </trkpt>
      <trkpt lat="49.33798" lon="0.09415">
        <ele>4.4</ele>
        <time>2024-10-02T14:12:44Z</time>
      </trkpt>
      <trkpt lat="49.33796" lon="0.09406">
        <ele>4.4</ele>
        <time>2024-10-02T14:12:45Z</time>
      </trkpt>
      <trkpt lat="49.33795" lon="0.094">
        <ele>4.4</ele>
        <time>2024-10-02T14:12:46Z</time>
      </trkpt>
      <trkpt lat="49.33793" lon="0.0939">
        <ele>4.4</ele>
        <time>2024-10-02T14:12:47Z</time>
      </trkpt>
      <trkpt lat="49.33792" lon="0.09383">
        <ele>4.4</ele>
        <time>2024-10-02T14:12:48Z</time>
      </trkpt>
      <trkpt lat="49.3379" lon="0.09374">
        <ele>4.6</ele>
        <time>2024-10-02T14:12:49Z</time>
      </trkpt>
      <trkpt lat="49.33787" lon="0.09364">
        <ele>4.6</ele>
        <time>2024-10-02T14:12:50Z</time>
      </trkpt>
      <trkpt lat="49.33785" lon="0.09356">
        <ele>4.6</ele>
        <time>2024-10-02T14:12:51Z</time>
      </trkpt>
      <trkpt lat="49.33783" lon="0.09349">
        <ele>4.6</ele>
        <time>2024-10-02T14:12:52Z</time>
      </trkpt>
      <trkpt lat="49.33781" lon="0.0934">
        <ele>4.6</ele>
        <time>2024-10-02T14:12:53Z</time>
      </trkpt>
      <trkpt lat="49.33779" lon="0.09332">
        <ele>4.6</ele>
        <time>2024-10-02T14:12:54Z</time>
      </trkpt>
      <trkpt lat="49.33777" lon="0.09323">
        <ele>4.4</ele>
        <time>2024-10-02T14:12:55Z</time>
      </trkpt>
      <trkpt lat="49.33775" lon="0.09314">
        <ele>4.4</ele>
        <time>2024-10-02T14:12:56Z</time>
      </trkpt>
      <trkpt lat="49.33773" lon="0.09307">
        <ele>4.4</ele>
        <time>2024-10-02T14:12:57Z</time>
      </trkpt>
      <trkpt lat="49.33771" lon="0.09299">
        <ele>4.4</ele>
        <time>2024-10-02T14:12:58Z</time>
      </trkpt>
      <trkpt lat="49.33769" lon="0.09289">
        <ele>4.6</ele>
        <time>2024-10-02T14:12:59Z</time>
      </trkpt>
      <trkpt lat="49.33768" lon="0.09283">
        <ele>4.6</ele>
        <time>2024-10-02T14:13:00Z</time>
      </trkpt>
      <trkpt lat="49.33766" lon="0.09274">
        <ele>4.6</ele>
        <time>2024-10-02T14:13:01Z</time>
      </trkpt>
      <trkpt lat="49.33764" lon="0.09264">
        <ele>4.4</ele>
        <time>2024-10-02T14:13:02Z</time>
      </trkpt>
      <trkpt lat="49.33763" lon="0.09255">
        <ele>4.4</ele>
        <time>2024-10-02T14:13:03Z</time>
      </trkpt>
      <trkpt lat="49.33763" lon="0.09247">
        <ele>4.4</ele>
        <time>2024-10-02T14:13:04Z</time>
      </trkpt>
      <trkpt lat="49.33762" lon="0.09237">
        <ele>4.4</ele>
        <time>2024-10-02T14:13:05Z</time>
      </trkpt>
      <trkpt lat="49.3376" lon="0.09231">
        <ele>4.4</ele>
        <time>2024-10-02T14:13:06Z</time>
      </trkpt>
      <trkpt lat="49.33756" lon="0.09226">
        <ele>4.4</ele>
        <time>2024-10-02T14:13:07Z</time>
      </trkpt>
      <trkpt lat="49.3375" lon="0.09222">
        <ele>4.4</ele>
        <time>2024-10-02T14:13:08Z</time>
      </trkpt>
      <trkpt lat="49.33744" lon="0.09223">
        <ele>4.4</ele>
        <time>2024-10-02T14:13:09Z</time>
      </trkpt>
      <trkpt lat="49.3374" lon="0.09225">
        <ele>4.2</ele>
        <time>2024-10-02T14:13:10Z</time>
      </trkpt>
      <trkpt lat="49.33734" lon="0.09227">
        <ele>4.2</ele>
        <time>2024-10-02T14:13:11Z</time>
      </trkpt>
      <trkpt lat="49.33726" lon="0.09227">
        <ele>4</ele>
        <time>2024-10-02T14:13:12Z</time>
      </trkpt>
      <trkpt lat="49.3372" lon="0.09226">
        <ele>4</ele>
        <time>2024-10-02T14:13:13Z</time>
      </trkpt>
      <trkpt lat="49.33712" lon="0.09225">
        <ele>4</ele>
        <time>2024-10-02T14:13:14Z</time>
      </trkpt>
      <trkpt lat="49.33705" lon="0.09223">
        <ele>4</ele>
        <time>2024-10-02T14:13:15Z</time>
      </trkpt>
      <trkpt lat="49.337" lon="0.09221">
        <ele>4</ele>
        <time>2024-10-02T14:13:16Z</time>
      </trkpt>
      <trkpt lat="49.33694" lon="0.09219">
        <ele>3.8</ele>
        <time>2024-10-02T14:13:17Z</time>
      </trkpt>
      <trkpt lat="49.33688" lon="0.09217">
        <ele>3.8</ele>
        <time>2024-10-02T14:13:18Z</time>
      </trkpt>
      <trkpt lat="49.33681" lon="0.09216">
        <ele>3.8</ele>
        <time>2024-10-02T14:13:19Z</time>
      </trkpt>
      <trkpt lat="49.33674" lon="0.09214">
        <ele>3.8</ele>
        <time>2024-10-02T14:13:20Z</time>
      </trkpt>
      <trkpt lat="49.33667" lon="0.09212">
        <ele>3.8</ele>
        <time>2024-10-02T14:13:21Z</time>
      </trkpt>
      <trkpt lat="49.33662" lon="0.09212">
        <ele>3.6</ele>
        <time>2024-10-02T14:13:22Z</time>
      </trkpt>
      <trkpt lat="49.33655" lon="0.09211">
        <ele>3.6</ele>
        <time>2024-10-02T14:13:23Z</time>
      </trkpt>
      <trkpt lat="49.33647" lon="0.09209">
        <ele>3.6</ele>
        <time>2024-10-02T14:13:24Z</time>
      </trkpt>
      <trkpt lat="49.33642" lon="0.09208">
        <ele>3.6</ele>
        <time>2024-10-02T14:13:25Z</time>
      </trkpt>
      <trkpt lat="49.33634" lon="0.09206">
        <ele>3.6</ele>
        <time>2024-10-02T14:13:26Z</time>
      </trkpt>
      <trkpt lat="49.33628" lon="0.09204">
        <ele>3.6</ele>
        <time>2024-10-02T14:13:27Z</time>
      </trkpt>
      <trkpt lat="49.33621" lon="0.09203">
        <ele>3.6</ele>
        <time>2024-10-02T14:13:28Z</time>
      </trkpt>
      <trkpt lat="49.33614" lon="0.092">
        <ele>3.6</ele>
        <time>2024-10-02T14:13:29Z</time>
      </trkpt>
      <trkpt lat="49.33606" lon="0.09197">
        <ele>3.6</ele>
        <time>2024-10-02T14:13:30Z</time>
      </trkpt>
      <trkpt lat="49.336" lon="0.09195">
        <ele>3.6</ele>
        <time>2024-10-02T14:13:31Z</time>
      </trkpt>
      <trkpt lat="49.33592" lon="0.09192">
        <ele>3.6</ele>
        <time>2024-10-02T14:13:32Z</time>
      </trkpt>
      <trkpt lat="49.33585" lon="0.09188">
        <ele>3.6</ele>
        <time>2024-10-02T14:13:33Z</time>
      </trkpt>
      <trkpt lat="49.33579" lon="0.09186">
        <ele>3.6</ele>
        <time>2024-10-02T14:13:34Z</time>
      </trkpt>
      <trkpt lat="49.33571" lon="0.09182">
        <ele>3.6</ele>
        <time>2024-10-02T14:13:35Z</time>
      </trkpt>
      <trkpt lat="49.33564" lon="0.09178">
        <ele>3.6</ele>
        <time>2024-10-02T14:13:36Z</time>
      </trkpt>
      <trkpt lat="49.33557" lon="0.09174">
        <ele>3.6</ele>
        <time>2024-10-02T14:13:37Z</time>
      </trkpt>
      <trkpt lat="49.3355" lon="0.0917">
        <ele>3.6</ele>
        <time>2024-10-02T14:13:38Z</time>
      </trkpt>
      <trkpt lat="49.33543" lon="0.09166">
        <ele>3.6</ele>
        <time>2024-10-02T14:13:39Z</time>
      </trkpt>
      <trkpt lat="49.33535" lon="0.09162">
        <ele>3.6</ele>
        <time>2024-10-02T14:13:40Z</time>
      </trkpt>
      <trkpt lat="49.33527" lon="0.09157">
        <ele>3.6</ele>
        <time>2024-10-02T14:13:41Z</time>
      </trkpt>
      <trkpt lat="49.33519" lon="0.09153">
        <ele>3.6</ele>
        <time>2024-10-02T14:13:42Z</time>
      </trkpt>
      <trkpt lat="49.33513" lon="0.0915">
        <ele>3.6</ele>
        <time>2024-10-02T14:13:43Z</time>
      </trkpt>
      <trkpt lat="49.33506" lon="0.09144">
        <ele>3.6</ele>
        <time>2024-10-02T14:13:44Z</time>
      </trkpt>
      <trkpt lat="49.33498" lon="0.09138">
        <ele>3.6</ele>
        <time>2024-10-02T14:13:45Z</time>
      </trkpt>
      <trkpt lat="49.33492" lon="0.09133">
        <ele>3.6</ele>
        <time>2024-10-02T14:13:46Z</time>
      </trkpt>
      <trkpt lat="49.33483" lon="0.09126">
        <ele>3.6</ele>
        <time>2024-10-02T14:13:47Z</time>
      </trkpt>
      <trkpt lat="49.33476" lon="0.09119">
        <ele>3.6</ele>
        <time>2024-10-02T14:13:48Z</time>
      </trkpt>
      <trkpt lat="49.3347" lon="0.09115">
        <ele>3.6</ele>
        <time>2024-10-02T14:13:49Z</time>
      </trkpt>
      <trkpt lat="49.3346" lon="0.09107">
        <ele>3.6</ele>
        <time>2024-10-02T14:13:50Z</time>
      </trkpt>
      <trkpt lat="49.33453" lon="0.091">
        <ele>3.6</ele>
        <time>2024-10-02T14:13:51Z</time>
      </trkpt>
      <trkpt lat="49.33446" lon="0.09095">
        <ele>3.6</ele>
        <time>2024-10-02T14:13:52Z</time>
      </trkpt>
      <trkpt lat="49.33437" lon="0.09086">
        <ele>3.6</ele>
        <time>2024-10-02T14:13:53Z</time>
      </trkpt>
      <trkpt lat="49.33431" lon="0.09081">
        <ele>3.6</ele>
        <time>2024-10-02T14:13:54Z</time>
      </trkpt>
      <trkpt lat="49.33423" lon="0.09074">
        <ele>3.6</ele>
        <time>2024-10-02T14:13:55Z</time>
      </trkpt>
      <trkpt lat="49.33414" lon="0.09066">
        <ele>3.6</ele>
        <time>2024-10-02T14:13:56Z</time>
      </trkpt>
      <trkpt lat="49.33408" lon="0.09062">
        <ele>3.6</ele>
        <time>2024-10-02T14:13:57Z</time>
      </trkpt>
      <trkpt lat="49.334" lon="0.09057">
        <ele>3.6</ele>
        <time>2024-10-02T14:13:58Z</time>
      </trkpt>
      <trkpt lat="49.33392" lon="0.09053">
        <ele>3.6</ele>
        <time>2024-10-02T14:13:59Z</time>
      </trkpt>
      <trkpt lat="49.33383" lon="0.09049">
        <ele>3.6</ele>
        <time>2024-10-02T14:14:00Z</time>
      </trkpt>
      <trkpt lat="49.33375" lon="0.09046">
        <ele>3.6</ele>
        <time>2024-10-02T14:14:01Z</time>
      </trkpt>
      <trkpt lat="49.33365" lon="0.09042">
        <ele>3.6</ele>
        <time>2024-10-02T14:14:02Z</time>
      </trkpt>
      <trkpt lat="49.33357" lon="0.09039">
        <ele>3.4</ele>
        <time>2024-10-02T14:14:03Z</time>
      </trkpt>
      <trkpt lat="49.33351" lon="0.09037">
        <ele>3.4</ele>
        <time>2024-10-02T14:14:04Z</time>
      </trkpt>
      <trkpt lat="49.33342" lon="0.09033">
        <ele>3.4</ele>
        <time>2024-10-02T14:14:05Z</time>
      </trkpt>
      <trkpt lat="49.33334" lon="0.09029">
        <ele>3.4</ele>
        <time>2024-10-02T14:14:06Z</time>
      </trkpt>
      <trkpt lat="49.33329" lon="0.09026">
        <ele>3.4</ele>
        <time>2024-10-02T14:14:07Z</time>
      </trkpt>
      <trkpt lat="49.3332" lon="0.09021">
        <ele>3.4</ele>
        <time>2024-10-02T14:14:08Z</time>
      </trkpt>
      <trkpt lat="49.33314" lon="0.09017">
        <ele>3.4</ele>
        <time>2024-10-02T14:14:09Z</time>
      </trkpt>
      <trkpt lat="49.33309" lon="0.09014">
        <ele>3.4</ele>
        <time>2024-10-02T14:14:10Z</time>
      </trkpt>
      <trkpt lat="49.33301" lon="0.09008">
        <ele>3.4</ele>
        <time>2024-10-02T14:14:11Z</time>
      </trkpt>
      <trkpt lat="49.33296" lon="0.09005">
        <ele>3.4</ele>
        <time>2024-10-02T14:14:12Z</time>
      </trkpt>
      <trkpt lat="49.33291" lon="0.09001">
        <ele>3.4</ele>
        <time>2024-10-02T14:14:13Z</time>
      </trkpt>
      <trkpt lat="49.33284" lon="0.08997">
        <ele>3.6</ele>
        <time>2024-10-02T14:14:14Z</time>
      </trkpt>
      <trkpt lat="49.33278" lon="0.08993">
        <ele>3.6</ele>
        <time>2024-10-02T14:14:15Z</time>
      </trkpt>
      <trkpt lat="49.33274" lon="0.08989">
        <ele>3.6</ele>
        <time>2024-10-02T14:14:16Z</time>
      </trkpt>
      <trkpt lat="49.33269" lon="0.08985">
        <ele>4</ele>
        <time>2024-10-02T14:14:17Z</time>
      </trkpt>
      <trkpt lat="49.33263" lon="0.0898">
        <ele>4.2</ele>
        <time>2024-10-02T14:14:18Z</time>
      </trkpt>
      <trkpt lat="49.33258" lon="0.08977">
        <ele>4.6</ele>
        <time>2024-10-02T14:14:19Z</time>
      </trkpt>
      <trkpt lat="49.33253" lon="0.08972">
        <ele>4.6</ele>
        <time>2024-10-02T14:14:20Z</time>
      </trkpt>
      <trkpt lat="49.33248" lon="0.08967">
        <ele>4.8</ele>
        <time>2024-10-02T14:14:21Z</time>
      </trkpt>
      <trkpt lat="49.33243" lon="0.08961">
        <ele>5</ele>
        <time>2024-10-02T14:14:22Z</time>
      </trkpt>
      <trkpt lat="49.33238" lon="0.08956">
        <ele>5.2</ele>
        <time>2024-10-02T14:14:23Z</time>
      </trkpt>
      <trkpt lat="49.33233" lon="0.08949">
        <ele>5.4</ele>
        <time>2024-10-02T14:14:24Z</time>
      </trkpt>
      <trkpt lat="49.3323" lon="0.08944">
        <ele>6</ele>
        <time>2024-10-02T14:14:25Z</time>
      </trkpt>
      <trkpt lat="49.33225" lon="0.08937">
        <ele>6.2</ele>
        <time>2024-10-02T14:14:26Z</time>
      </trkpt>
      <trkpt lat="49.3322" lon="0.08931">
        <ele>6.4</ele>
        <time>2024-10-02T14:14:27Z</time>
      </trkpt>
      <trkpt lat="49.33216" lon="0.08925">
        <ele>6.6</ele>
        <time>2024-10-02T14:14:28Z</time>
      </trkpt>
      <trkpt lat="49.33211" lon="0.08919">
        <ele>6.8</ele>
        <time>2024-10-02T14:14:29Z</time>
      </trkpt>
      <trkpt lat="49.33205" lon="0.08911">
        <ele>7</ele>
        <time>2024-10-02T14:14:30Z</time>
      </trkpt>
      <trkpt lat="49.33201" lon="0.08906">
        <ele>7.2</ele>
        <time>2024-10-02T14:14:31Z</time>
      </trkpt>
      <trkpt lat="49.33194" lon="0.08899">
        <ele>7.4</ele>
        <time>2024-10-02T14:14:32Z</time>
      </trkpt>
      <trkpt lat="49.33188" lon="0.08894">
        <ele>7.6</ele>
        <time>2024-10-02T14:14:33Z</time>
      </trkpt>
      <trkpt lat="49.33184" lon="0.0889">
        <ele>8</ele>
        <time>2024-10-02T14:14:34Z</time>
      </trkpt>
      <trkpt lat="49.33176" lon="0.08885">
        <ele>8.2</ele>
        <time>2024-10-02T14:14:35Z</time>
      </trkpt>
      <trkpt lat="49.33169" lon="0.08879">
        <ele>8.6</ele>
        <time>2024-10-02T14:14:36Z</time>
      </trkpt>
      <trkpt lat="49.33164" lon="0.08874">
        <ele>9</ele>
        <time>2024-10-02T14:14:37Z</time>
      </trkpt>
      <trkpt lat="49.33156" lon="0.08867">
        <ele>9.2</ele>
        <time>2024-10-02T14:14:38Z</time>
      </trkpt>
      <trkpt lat="49.33149" lon="0.0886">
        <ele>9.4</ele>
        <time>2024-10-02T14:14:39Z</time>
      </trkpt>
      <trkpt lat="49.33143" lon="0.08854">
        <ele>9.4</ele>
        <time>2024-10-02T14:14:40Z</time>
      </trkpt>
      <trkpt lat="49.33135" lon="0.08846">
        <ele>9.4</ele>
        <time>2024-10-02T14:14:41Z</time>
      </trkpt>
      <trkpt lat="49.33128" lon="0.08837">
        <ele>9.6</ele>
        <time>2024-10-02T14:14:42Z</time>
      </trkpt>
      <trkpt lat="49.33119" lon="0.08825">
        <ele>9.6</ele>
        <time>2024-10-02T14:14:43Z</time>
      </trkpt>
      <trkpt lat="49.33112" lon="0.08815">
        <ele>9.6</ele>
        <time>2024-10-02T14:14:44Z</time>
      </trkpt>
      <trkpt lat="49.33105" lon="0.08804">
        <ele>9.6</ele>
        <time>2024-10-02T14:14:45Z</time>
      </trkpt>
      <trkpt lat="49.33099" lon="0.08796">
        <ele>9.6</ele>
        <time>2024-10-02T14:14:46Z</time>
      </trkpt>
      <trkpt lat="49.3309" lon="0.08783">
        <ele>9.6</ele>
        <time>2024-10-02T14:14:47Z</time>
      </trkpt>
      <trkpt lat="49.33083" lon="0.08772">
        <ele>9.6</ele>
        <time>2024-10-02T14:14:48Z</time>
      </trkpt>
      <trkpt lat="49.33078" lon="0.08763">
        <ele>9.4</ele>
        <time>2024-10-02T14:14:49Z</time>
      </trkpt>
      <trkpt lat="49.3307" lon="0.0875">
        <ele>9</ele>
        <time>2024-10-02T14:14:50Z</time>
      </trkpt>
      <trkpt lat="49.33064" lon="0.08739">
        <ele>8.2</ele>
        <time>2024-10-02T14:14:51Z</time>
      </trkpt>
      <trkpt lat="49.33058" lon="0.08731">
        <ele>7.6</ele>
        <time>2024-10-02T14:14:52Z</time>
      </trkpt>
      <trkpt lat="49.33051" lon="0.08718">
        <ele>7.2</ele>
        <time>2024-10-02T14:14:53Z</time>
      </trkpt>
      <trkpt lat="49.33045" lon="0.08708">
        <ele>6.4</ele>
        <time>2024-10-02T14:14:54Z</time>
      </trkpt>
      <trkpt lat="49.3304" lon="0.08698">
        <ele>5.8</ele>
        <time>2024-10-02T14:14:55Z</time>
      </trkpt>
      <trkpt lat="49.33035" lon="0.08689">
        <ele>5.4</ele>
        <time>2024-10-02T14:14:56Z</time>
      </trkpt>
      <trkpt lat="49.3303" lon="0.08679">
        <ele>5</ele>
        <time>2024-10-02T14:14:57Z</time>
      </trkpt>
      <trkpt lat="49.33026" lon="0.08671">
        <ele>4.8</ele>
        <time>2024-10-02T14:14:58Z</time>
      </trkpt>
      <trkpt lat="49.33021" lon="0.08659">
        <ele>4.8</ele>
        <time>2024-10-02T14:14:59Z</time>
      </trkpt>
      <trkpt lat="49.33016" lon="0.08648">
        <ele>4.8</ele>
        <time>2024-10-02T14:15:00Z</time>
      </trkpt>
      <trkpt lat="49.33013" lon="0.0864">
        <ele>4.6</ele>
        <time>2024-10-02T14:15:01Z</time>
      </trkpt>
      <trkpt lat="49.3301" lon="0.0863">
        <ele>4.6</ele>
        <time>2024-10-02T14:15:02Z</time>
      </trkpt>
      <trkpt lat="49.33006" lon="0.0862">
        <ele>4.6</ele>
        <time>2024-10-02T14:15:03Z</time>
      </trkpt>
      <trkpt lat="49.33003" lon="0.08611">
        <ele>4.6</ele>
        <time>2024-10-02T14:15:04Z</time>
      </trkpt>
      <trkpt lat="49.32999" lon="0.08601">
        <ele>4.6</ele>
        <time>2024-10-02T14:15:05Z</time>
      </trkpt>
      <trkpt lat="49.32996" lon="0.08592">
        <ele>4.6</ele>
        <time>2024-10-02T14:15:06Z</time>
      </trkpt>
      <trkpt lat="49.32994" lon="0.08584">
        <ele>4.6</ele>
        <time>2024-10-02T14:15:07Z</time>
      </trkpt>
      <trkpt lat="49.32991" lon="0.08576">
        <ele>4.6</ele>
        <time>2024-10-02T14:15:08Z</time>
      </trkpt>
      <trkpt lat="49.3299" lon="0.08568">
        <ele>4.6</ele>
        <time>2024-10-02T14:15:09Z</time>
      </trkpt>
      <trkpt lat="49.32989" lon="0.08558">
        <ele>4.8</ele>
        <time>2024-10-02T14:15:10Z</time>
      </trkpt>
      <trkpt lat="49.32987" lon="0.08549">
        <ele>4.8</ele>
        <time>2024-10-02T14:15:11Z</time>
      </trkpt>
      <trkpt lat="49.32985" lon="0.0854">
        <ele>4.8</ele>
        <time>2024-10-02T14:15:12Z</time>
      </trkpt>
      <trkpt lat="49.32982" lon="0.08531">
        <ele>4.8</ele>
        <time>2024-10-02T14:15:13Z</time>
      </trkpt>
      <trkpt lat="49.3298" lon="0.08522">
        <ele>5</ele>
        <time>2024-10-02T14:15:14Z</time>
      </trkpt>
      <trkpt lat="49.32977" lon="0.08512">
        <ele>5.2</ele>
        <time>2024-10-02T14:15:15Z</time>
      </trkpt>
      <trkpt lat="49.32974" lon="0.08503">
        <ele>5.4</ele>
        <time>2024-10-02T14:15:16Z</time>
      </trkpt>
      <trkpt lat="49.32971" lon="0.08492">
        <ele>5.6</ele>
        <time>2024-10-02T14:15:17Z</time>
      </trkpt>
      <trkpt lat="49.32968" lon="0.08482">
        <ele>5.8</ele>
        <time>2024-10-02T14:15:18Z</time>
      </trkpt>
      <trkpt lat="49.32966" lon="0.08472">
        <ele>5.8</ele>
        <time>2024-10-02T14:15:19Z</time>
      </trkpt>
      <trkpt lat="49.32963" lon="0.08461">
        <ele>5.8</ele>
        <time>2024-10-02T14:15:20Z</time>
      </trkpt>
      <trkpt lat="49.32961" lon="0.0845">
        <ele>6</ele>
        <time>2024-10-02T14:15:21Z</time>
      </trkpt>
      <trkpt lat="49.32958" lon="0.0844">
        <ele>6</ele>
        <time>2024-10-02T14:15:22Z</time>
      </trkpt>
      <trkpt lat="49.32955" lon="0.08429">
        <ele>6.2</ele>
        <time>2024-10-02T14:15:23Z</time>
      </trkpt>
      <trkpt lat="49.32953" lon="0.08418">
        <ele>6.2</ele>
        <time>2024-10-02T14:15:24Z</time>
      </trkpt>
      <trkpt lat="49.32951" lon="0.08407">
        <ele>6.2</ele>
        <time>2024-10-02T14:15:25Z</time>
      </trkpt>
      <trkpt lat="49.32948" lon="0.08396">
        <ele>6.2</ele>
        <time>2024-10-02T14:15:26Z</time>
      </trkpt>
      <trkpt lat="49.32946" lon="0.08385">
        <ele>6.4</ele>
        <time>2024-10-02T14:15:27Z</time>
      </trkpt>
      <trkpt lat="49.32943" lon="0.08373">
        <ele>6.4</ele>
        <time>2024-10-02T14:15:28Z</time>
      </trkpt>
      <trkpt lat="49.32941" lon="0.08361">
        <ele>6.6</ele>
        <time>2024-10-02T14:15:29Z</time>
      </trkpt>
      <trkpt lat="49.32939" lon="0.0835">
        <ele>6.8</ele>
        <time>2024-10-02T14:15:30Z</time>
      </trkpt>
      <trkpt lat="49.32937" lon="0.08338">
        <ele>7</ele>
        <time>2024-10-02T14:15:31Z</time>
      </trkpt>
      <trkpt lat="49.32936" lon="0.08327">
        <ele>7.2</ele>
        <time>2024-10-02T14:15:32Z</time>
      </trkpt>
      <trkpt lat="49.32935" lon="0.08315">
        <ele>7.2</ele>
        <time>2024-10-02T14:15:33Z</time>
      </trkpt>
      <trkpt lat="49.32934" lon="0.08303">
        <ele>7.4</ele>
        <time>2024-10-02T14:15:34Z</time>
      </trkpt>
      <trkpt lat="49.32933" lon="0.08294">
        <ele>7.4</ele>
        <time>2024-10-02T14:15:35Z</time>
      </trkpt>
      <trkpt lat="49.32932" lon="0.08282">
        <ele>7.4</ele>
        <time>2024-10-02T14:15:36Z</time>
      </trkpt>
      <trkpt lat="49.32932" lon="0.0827">
        <ele>7.4</ele>
        <time>2024-10-02T14:15:37Z</time>
      </trkpt>
      <trkpt lat="49.32931" lon="0.08257">
        <ele>7.4</ele>
        <time>2024-10-02T14:15:38Z</time>
      </trkpt>
      <trkpt lat="49.3293" lon="0.08245">
        <ele>7.4</ele>
        <time>2024-10-02T14:15:39Z</time>
      </trkpt>
      <trkpt lat="49.3293" lon="0.08234">
        <ele>7.6</ele>
        <time>2024-10-02T14:15:40Z</time>
      </trkpt>
      <trkpt lat="49.32929" lon="0.08223">
        <ele>7.6</ele>
        <time>2024-10-02T14:15:41Z</time>
      </trkpt>
      <trkpt lat="49.32929" lon="0.08211">
        <ele>7.8</ele>
        <time>2024-10-02T14:15:42Z</time>
      </trkpt>
      <trkpt lat="49.32929" lon="0.082">
        <ele>7.8</ele>
        <time>2024-10-02T14:15:43Z</time>
      </trkpt>
      <trkpt lat="49.32928" lon="0.08189">
        <ele>7.8</ele>
        <time>2024-10-02T14:15:44Z</time>
      </trkpt>
      <trkpt lat="49.32928" lon="0.08177">
        <ele>8</ele>
        <time>2024-10-02T14:15:45Z</time>
      </trkpt>
      <trkpt lat="49.32929" lon="0.08166">
        <ele>8</ele>
        <time>2024-10-02T14:15:46Z</time>
      </trkpt>
      <trkpt lat="49.32929" lon="0.08156">
        <ele>8</ele>
        <time>2024-10-02T14:15:47Z</time>
      </trkpt>
      <trkpt lat="49.3293" lon="0.08145">
        <ele>8</ele>
        <time>2024-10-02T14:15:48Z</time>
      </trkpt>
      <trkpt lat="49.3293" lon="0.08134">
        <ele>8</ele>
        <time>2024-10-02T14:15:49Z</time>
      </trkpt>
      <trkpt lat="49.32931" lon="0.08123">
        <ele>8</ele>
        <time>2024-10-02T14:15:50Z</time>
      </trkpt>
      <trkpt lat="49.32932" lon="0.08112">
        <ele>8</ele>
        <time>2024-10-02T14:15:51Z</time>
      </trkpt>
      <trkpt lat="49.32933" lon="0.08101">
        <ele>8</ele>
        <time>2024-10-02T14:15:52Z</time>
      </trkpt>
      <trkpt lat="49.32934" lon="0.0809">
        <ele>8</ele>
        <time>2024-10-02T14:15:53Z</time>
      </trkpt>
      <trkpt lat="49.32934" lon="0.0808">
        <ele>8</ele>
        <time>2024-10-02T14:15:54Z</time>
      </trkpt>
      <trkpt lat="49.32934" lon="0.08069">
        <ele>8</ele>
        <time>2024-10-02T14:15:55Z</time>
      </trkpt>
      <trkpt lat="49.32934" lon="0.08058">
        <ele>8</ele>
        <time>2024-10-02T14:15:56Z</time>
      </trkpt>
      <trkpt lat="49.32934" lon="0.08047">
        <ele>8.2</ele>
        <time>2024-10-02T14:15:57Z</time>
      </trkpt>
      <trkpt lat="49.32934" lon="0.08037">
        <ele>8.2</ele>
        <time>2024-10-02T14:15:58Z</time>
      </trkpt>
      <trkpt lat="49.32933" lon="0.08026">
        <ele>8.4</ele>
        <time>2024-10-02T14:15:59Z</time>
      </trkpt>
      <trkpt lat="49.32932" lon="0.08015">
        <ele>8.4</ele>
        <time>2024-10-02T14:16:00Z</time>
      </trkpt>
      <trkpt lat="49.32931" lon="0.08004">
        <ele>8.6</ele>
        <time>2024-10-02T14:16:01Z</time>
      </trkpt>
      <trkpt lat="49.3293" lon="0.07994">
        <ele>8.6</ele>
        <time>2024-10-02T14:16:02Z</time>
      </trkpt>
      <trkpt lat="49.32929" lon="0.07983">
        <ele>8.8</ele>
        <time>2024-10-02T14:16:03Z</time>
      </trkpt>
      <trkpt lat="49.32927" lon="0.07973">
        <ele>9</ele>
        <time>2024-10-02T14:16:04Z</time>
      </trkpt>
      <trkpt lat="49.32926" lon="0.07963">
        <ele>9.2</ele>
        <time>2024-10-02T14:16:05Z</time>
      </trkpt>
      <trkpt lat="49.32924" lon="0.07953">
        <ele>9.4</ele>
        <time>2024-10-02T14:16:06Z</time>
      </trkpt>
      <trkpt lat="49.32923" lon="0.07943">
        <ele>9.6</ele>
        <time>2024-10-02T14:16:07Z</time>
      </trkpt>
      <trkpt lat="49.32921" lon="0.07933">
        <ele>9.6</ele>
        <time>2024-10-02T14:16:08Z</time>
      </trkpt>
      <trkpt lat="49.3292" lon="0.07924">
        <ele>9.6</ele>
        <time>2024-10-02T14:16:09Z</time>
      </trkpt>
      <trkpt lat="49.32918" lon="0.07916">
        <ele>9.8</ele>
        <time>2024-10-02T14:16:10Z</time>
      </trkpt>
      <trkpt lat="49.32916" lon="0.07904">
        <ele>9.8</ele>
        <time>2024-10-02T14:16:11Z</time>
      </trkpt>
      <trkpt lat="49.32915" lon="0.07896">
        <ele>10</ele>
        <time>2024-10-02T14:16:12Z</time>
      </trkpt>
      <trkpt lat="49.32914" lon="0.07887">
        <ele>10</ele>
        <time>2024-10-02T14:16:13Z</time>
      </trkpt>
      <trkpt lat="49.32912" lon="0.07875">
        <ele>10</ele>
        <time>2024-10-02T14:16:14Z</time>
      </trkpt>
      <trkpt lat="49.3291" lon="0.07865">
        <ele>10.2</ele>
        <time>2024-10-02T14:16:15Z</time>
      </trkpt>
      <trkpt lat="49.32909" lon="0.07855">
        <ele>10.2</ele>
        <time>2024-10-02T14:16:16Z</time>
      </trkpt>
      <trkpt lat="49.32907" lon="0.07845">
        <ele>10.4</ele>
        <time>2024-10-02T14:16:17Z</time>
      </trkpt>
      <trkpt lat="49.32906" lon="0.07836">
        <ele>10.4</ele>
        <time>2024-10-02T14:16:18Z</time>
      </trkpt>
      <trkpt lat="49.32904" lon="0.07826">
        <ele>10.6</ele>
        <time>2024-10-02T14:16:19Z</time>
      </trkpt>
      <trkpt lat="49.32903" lon="0.07816">
        <ele>10.8</ele>
        <time>2024-10-02T14:16:20Z</time>
      </trkpt>
      <trkpt lat="49.32901" lon="0.07807">
        <ele>11</ele>
        <time>2024-10-02T14:16:21Z</time>
      </trkpt>
      <trkpt lat="49.329" lon="0.07797">
        <ele>11.4</ele>
        <time>2024-10-02T14:16:22Z</time>
      </trkpt>
      <trkpt lat="49.32898" lon="0.07788">
        <ele>11.4</ele>
        <time>2024-10-02T14:16:23Z</time>
      </trkpt>
      <trkpt lat="49.32896" lon="0.07779">
        <ele>11.6</ele>
        <time>2024-10-02T14:16:24Z</time>
      </trkpt>
      <trkpt lat="49.32895" lon="0.07771">
        <ele>11.6</ele>
        <time>2024-10-02T14:16:25Z</time>
      </trkpt>
      <trkpt lat="49.32894" lon="0.07764">
        <ele>11.8</ele>
        <time>2024-10-02T14:16:26Z</time>
      </trkpt>
      <trkpt lat="49.32894" lon="0.07758">
        <ele>11.8</ele>
        <time>2024-10-02T14:16:27Z</time>
      </trkpt>
      <trkpt lat="49.32894" lon="0.07752">
        <ele>12</ele>
        <time>2024-10-02T14:16:28Z</time>
      </trkpt>
      <trkpt lat="49.32893" lon="0.07746">
        <ele>12</ele>
        <time>2024-10-02T14:16:29Z</time>
      </trkpt>
      <trkpt lat="49.32892" lon="0.07739">
        <ele>12.2</ele>
        <time>2024-10-02T14:16:30Z</time>
      </trkpt>
      <trkpt lat="49.32891" lon="0.07733">
        <ele>12.2</ele>
        <time>2024-10-02T14:16:31Z</time>
      </trkpt>
      <trkpt lat="49.3289" lon="0.07725">
        <ele>12.4</ele>
        <time>2024-10-02T14:16:32Z</time>
      </trkpt>
      <trkpt lat="49.32889" lon="0.07717">
        <ele>12.6</ele>
        <time>2024-10-02T14:16:33Z</time>
      </trkpt>
      <trkpt lat="49.32888" lon="0.07708">
        <ele>13</ele>
        <time>2024-10-02T14:16:34Z</time>
      </trkpt>
      <trkpt lat="49.32886" lon="0.07698">
        <ele>13.2</ele>
        <time>2024-10-02T14:16:35Z</time>
      </trkpt>
      <trkpt lat="49.32885" lon="0.07689">
        <ele>13.4</ele>
        <time>2024-10-02T14:16:36Z</time>
      </trkpt>
      <trkpt lat="49.32883" lon="0.07679">
        <ele>13.6</ele>
        <time>2024-10-02T14:16:37Z</time>
      </trkpt>
      <trkpt lat="49.32881" lon="0.07669">
        <ele>13.8</ele>
        <time>2024-10-02T14:16:38Z</time>
      </trkpt>
      <trkpt lat="49.32879" lon="0.0766">
        <ele>13.8</ele>
        <time>2024-10-02T14:16:39Z</time>
      </trkpt>
      <trkpt lat="49.32876" lon="0.0765">
        <ele>14</ele>
        <time>2024-10-02T14:16:40Z</time>
      </trkpt>
      <trkpt lat="49.32873" lon="0.0764">
        <ele>14</ele>
        <time>2024-10-02T14:16:41Z</time>
      </trkpt>
      <trkpt lat="49.32871" lon="0.0763">
        <ele>14</ele>
        <time>2024-10-02T14:16:42Z</time>
      </trkpt>
      <trkpt lat="49.32869" lon="0.0762">
        <ele>14.4</ele>
        <time>2024-10-02T14:16:43Z</time>
      </trkpt>
      <trkpt lat="49.32866" lon="0.0761">
        <ele>14.4</ele>
        <time>2024-10-02T14:16:44Z</time>
      </trkpt>
      <trkpt lat="49.32864" lon="0.076">
        <ele>14.6</ele>
        <time>2024-10-02T14:16:45Z</time>
      </trkpt>
      <trkpt lat="49.32861" lon="0.07589">
        <ele>14.8</ele>
        <time>2024-10-02T14:16:46Z</time>
      </trkpt>
      <trkpt lat="49.32858" lon="0.07579">
        <ele>14.8</ele>
        <time>2024-10-02T14:16:47Z</time>
      </trkpt>
      <trkpt lat="49.32855" lon="0.0757">
        <ele>15</ele>
        <time>2024-10-02T14:16:48Z</time>
      </trkpt>
      <trkpt lat="49.32851" lon="0.0756">
        <ele>15.2</ele>
        <time>2024-10-02T14:16:49Z</time>
      </trkpt>
      <trkpt lat="49.32849" lon="0.07552">
        <ele>15.2</ele>
        <time>2024-10-02T14:16:50Z</time>
      </trkpt>
      <trkpt lat="49.32846" lon="0.07542">
        <ele>15.2</ele>
        <time>2024-10-02T14:16:51Z</time>
      </trkpt>
      <trkpt lat="49.32843" lon="0.07533">
        <ele>15.2</ele>
        <time>2024-10-02T14:16:52Z</time>
      </trkpt>
      <trkpt lat="49.3284" lon="0.07525">
        <ele>15.2</ele>
        <time>2024-10-02T14:16:53Z</time>
      </trkpt>
      <trkpt lat="49.32838" lon="0.07517">
        <ele>15.4</ele>
        <time>2024-10-02T14:16:54Z</time>
      </trkpt>
      <trkpt lat="49.32835" lon="0.07509">
        <ele>15.4</ele>
        <time>2024-10-02T14:16:55Z</time>
      </trkpt>
      <trkpt lat="49.32833" lon="0.07501">
        <ele>15.4</ele>
        <time>2024-10-02T14:16:56Z</time>
      </trkpt>
      <trkpt lat="49.3283" lon="0.07493">
        <ele>15.4</ele>
        <time>2024-10-02T14:16:57Z</time>
      </trkpt>
      <trkpt lat="49.32828" lon="0.07484">
        <ele>15.6</ele>
        <time>2024-10-02T14:16:58Z</time>
      </trkpt>
      <trkpt lat="49.32825" lon="0.07475">
        <ele>15.6</ele>
        <time>2024-10-02T14:16:59Z</time>
      </trkpt>
      <trkpt lat="49.32822" lon="0.07466">
        <ele>15.6</ele>
        <time>2024-10-02T14:17:00Z</time>
      </trkpt>
      <trkpt lat="49.32819" lon="0.07456">
        <ele>15.6</ele>
        <time>2024-10-02T14:17:01Z</time>
      </trkpt>
      <trkpt lat="49.32816" lon="0.07446">
        <ele>15.6</ele>
        <time>2024-10-02T14:17:02Z</time>
      </trkpt>
      <trkpt lat="49.32813" lon="0.07436">
        <ele>15.6</ele>
        <time>2024-10-02T14:17:03Z</time>
      </trkpt>
      <trkpt lat="49.32809" lon="0.07426">
        <ele>15.6</ele>
        <time>2024-10-02T14:17:04Z</time>
      </trkpt>
      <trkpt lat="49.32806" lon="0.07416">
        <ele>15.6</ele>
        <time>2024-10-02T14:17:05Z</time>
      </trkpt>
      <trkpt lat="49.32803" lon="0.07406">
        <ele>15.6</ele>
        <time>2024-10-02T14:17:06Z</time>
      </trkpt>
      <trkpt lat="49.328" lon="0.07396">
        <ele>15.6</ele>
        <time>2024-10-02T14:17:07Z</time>
      </trkpt>
      <trkpt lat="49.32797" lon="0.07387">
        <ele>15.6</ele>
        <time>2024-10-02T14:17:08Z</time>
      </trkpt>
      <trkpt lat="49.32793" lon="0.07378">
        <ele>15.6</ele>
        <time>2024-10-02T14:17:09Z</time>
      </trkpt>
      <trkpt lat="49.3279" lon="0.07371">
        <ele>15.6</ele>
        <time>2024-10-02T14:17:10Z</time>
      </trkpt>
      <trkpt lat="49.32785" lon="0.07365">
        <ele>15.6</ele>
        <time>2024-10-02T14:17:11Z</time>
      </trkpt>
      <trkpt lat="49.32781" lon="0.07359">
        <ele>15.4</ele>
        <time>2024-10-02T14:17:12Z</time>
      </trkpt>
      <trkpt lat="49.32777" lon="0.07354">
        <ele>15.2</ele>
        <time>2024-10-02T14:17:13Z</time>
      </trkpt>
      <trkpt lat="49.32773" lon="0.0735">
        <ele>15.2</ele>
        <time>2024-10-02T14:17:14Z</time>
      </trkpt>
      <trkpt lat="49.32768" lon="0.07345">
        <ele>15.2</ele>
        <time>2024-10-02T14:17:15Z</time>
      </trkpt>
      <trkpt lat="49.32764" lon="0.07342">
        <ele>15</ele>
        <time>2024-10-02T14:17:16Z</time>
      </trkpt>
      <trkpt lat="49.32761" lon="0.07339">
        <ele>15</ele>
        <time>2024-10-02T14:17:17Z</time>
      </trkpt>
      <trkpt lat="49.32757" lon="0.07336">
        <ele>15</ele>
        <time>2024-10-02T14:17:18Z</time>
      </trkpt>
      <trkpt lat="49.32754" lon="0.07332">
        <ele>15</ele>
        <time>2024-10-02T14:17:19Z</time>
      </trkpt>
      <trkpt lat="49.32752" lon="0.07326">
        <ele>15</ele>
        <time>2024-10-02T14:17:20Z</time>
      </trkpt>
      <trkpt lat="49.32749" lon="0.07318">
        <ele>15</ele>
        <time>2024-10-02T14:17:21Z</time>
      </trkpt>
      <trkpt lat="49.32748" lon="0.07309">
        <ele>15</ele>
        <time>2024-10-02T14:17:22Z</time>
      </trkpt>
      <trkpt lat="49.32746" lon="0.073">
        <ele>15</ele>
        <time>2024-10-02T14:17:23Z</time>
      </trkpt>
      <trkpt lat="49.32745" lon="0.07291">
        <ele>15</ele>
        <time>2024-10-02T14:17:24Z</time>
      </trkpt>
      <trkpt lat="49.32742" lon="0.07279">
        <ele>15</ele>
        <time>2024-10-02T14:17:25Z</time>
      </trkpt>
      <trkpt lat="49.32739" lon="0.07268">
        <ele>15</ele>
        <time>2024-10-02T14:17:26Z</time>
      </trkpt>
      <trkpt lat="49.32736" lon="0.07257">
        <ele>15</ele>
        <time>2024-10-02T14:17:27Z</time>
      </trkpt>
      <trkpt lat="49.32733" lon="0.07245">
        <ele>14.8</ele>
        <time>2024-10-02T14:17:28Z</time>
      </trkpt>
      <trkpt lat="49.32729" lon="0.07233">
        <ele>14.8</ele>
        <time>2024-10-02T14:17:29Z</time>
      </trkpt>
      <trkpt lat="49.32726" lon="0.07221">
        <ele>14.6</ele>
        <time>2024-10-02T14:17:30Z</time>
      </trkpt>
      <trkpt lat="49.32722" lon="0.07209">
        <ele>14.6</ele>
        <time>2024-10-02T14:17:31Z</time>
      </trkpt>
      <trkpt lat="49.32718" lon="0.07198">
        <ele>14.6</ele>
        <time>2024-10-02T14:17:32Z</time>
      </trkpt>
      <trkpt lat="49.32714" lon="0.07189">
        <ele>14.6</ele>
        <time>2024-10-02T14:17:33Z</time>
      </trkpt>
      <trkpt lat="49.32709" lon="0.07176">
        <ele>14.4</ele>
        <time>2024-10-02T14:17:34Z</time>
      </trkpt>
      <trkpt lat="49.32704" lon="0.07165">
        <ele>14</ele>
        <time>2024-10-02T14:17:35Z</time>
      </trkpt>
      <trkpt lat="49.32699" lon="0.07155">
        <ele>14</ele>
        <time>2024-10-02T14:17:36Z</time>
      </trkpt>
      <trkpt lat="49.32695" lon="0.07146">
        <ele>13.4</ele>
        <time>2024-10-02T14:17:37Z</time>
      </trkpt>
      <trkpt lat="49.3269" lon="0.07136">
        <ele>12.8</ele>
        <time>2024-10-02T14:17:38Z</time>
      </trkpt>
      <trkpt lat="49.32685" lon="0.07127">
        <ele>12.4</ele>
        <time>2024-10-02T14:17:39Z</time>
      </trkpt>
      <trkpt lat="49.3268" lon="0.07118">
        <ele>12</ele>
        <time>2024-10-02T14:17:40Z</time>
      </trkpt>
      <trkpt lat="49.32675" lon="0.0711">
        <ele>11.6</ele>
        <time>2024-10-02T14:17:41Z</time>
      </trkpt>
      <trkpt lat="49.32669" lon="0.07103">
        <ele>11.4</ele>
        <time>2024-10-02T14:17:42Z</time>
      </trkpt>
      <trkpt lat="49.32664" lon="0.07096">
        <ele>11.2</ele>
        <time>2024-10-02T14:17:43Z</time>
      </trkpt>
      <trkpt lat="49.32658" lon="0.07089">
        <ele>11</ele>
        <time>2024-10-02T14:17:44Z</time>
      </trkpt>
      <trkpt lat="49.32652" lon="0.07083">
        <ele>11</ele>
        <time>2024-10-02T14:17:45Z</time>
      </trkpt>
      <trkpt lat="49.32646" lon="0.07077">
        <ele>10.8</ele>
        <time>2024-10-02T14:17:46Z</time>
      </trkpt>
      <trkpt lat="49.3264" lon="0.0707">
        <ele>10.6</ele>
        <time>2024-10-02T14:17:47Z</time>
      </trkpt>
      <trkpt lat="49.32634" lon="0.07064">
        <ele>10.4</ele>
        <time>2024-10-02T14:17:48Z</time>
      </trkpt>
      <trkpt lat="49.32628" lon="0.07058">
        <ele>10.2</ele>
        <time>2024-10-02T14:17:49Z</time>
      </trkpt>
      <trkpt lat="49.32622" lon="0.07052">
        <ele>10.2</ele>
        <time>2024-10-02T14:17:50Z</time>
      </trkpt>
      <trkpt lat="49.32617" lon="0.07045">
        <ele>10.2</ele>
        <time>2024-10-02T14:17:51Z</time>
      </trkpt>
      <trkpt lat="49.32611" lon="0.07038">
        <ele>10.2</ele>
        <time>2024-10-02T14:17:52Z</time>
      </trkpt>
      <trkpt lat="49.32605" lon="0.0703">
        <ele>10</ele>
        <time>2024-10-02T14:17:53Z</time>
      </trkpt>
      <trkpt lat="49.326" lon="0.07023">
        <ele>10</ele>
        <time>2024-10-02T14:17:54Z</time>
      </trkpt>
      <trkpt lat="49.32595" lon="0.07016">
        <ele>10</ele>
        <time>2024-10-02T14:17:55Z</time>
      </trkpt>
      <trkpt lat="49.3259" lon="0.07009">
        <ele>10.2</ele>
        <time>2024-10-02T14:17:56Z</time>
      </trkpt>
      <trkpt lat="49.32585" lon="0.07002">
        <ele>10.2</ele>
        <time>2024-10-02T14:17:57Z</time>
      </trkpt>
      <trkpt lat="49.3258" lon="0.06994">
        <ele>10.2</ele>
        <time>2024-10-02T14:17:58Z</time>
      </trkpt>
      <trkpt lat="49.32575" lon="0.06987">
        <ele>10.2</ele>
        <time>2024-10-02T14:17:59Z</time>
      </trkpt>
      <trkpt lat="49.32571" lon="0.06979">
        <ele>10.4</ele>
        <time>2024-10-02T14:18:00Z</time>
      </trkpt>
      <trkpt lat="49.32566" lon="0.06971">
        <ele>10.4</ele>
        <time>2024-10-02T14:18:01Z</time>
      </trkpt>
      <trkpt lat="49.32561" lon="0.06963">
        <ele>10.6</ele>
        <time>2024-10-02T14:18:02Z</time>
      </trkpt>
      <trkpt lat="49.32557" lon="0.06954">
        <ele>10.8</ele>
        <time>2024-10-02T14:18:03Z</time>
      </trkpt>
      <trkpt lat="49.32552" lon="0.06946">
        <ele>11.2</ele>
        <time>2024-10-02T14:18:04Z</time>
      </trkpt>
      <trkpt lat="49.32548" lon="0.06937">
        <ele>11.4</ele>
        <time>2024-10-02T14:18:05Z</time>
      </trkpt>
      <trkpt lat="49.32544" lon="0.06929">
        <ele>11.6</ele>
        <time>2024-10-02T14:18:06Z</time>
      </trkpt>
      <trkpt lat="49.32539" lon="0.06921">
        <ele>11.6</ele>
        <time>2024-10-02T14:18:07Z</time>
      </trkpt>
      <trkpt lat="49.32535" lon="0.06913">
        <ele>12</ele>
        <time>2024-10-02T14:18:08Z</time>
      </trkpt>
      <trkpt lat="49.32531" lon="0.06905">
        <ele>12.2</ele>
        <time>2024-10-02T14:18:09Z</time>
      </trkpt>
      <trkpt lat="49.32528" lon="0.06896">
        <ele>12.4</ele>
        <time>2024-10-02T14:18:10Z</time>
      </trkpt>
      <trkpt lat="49.32525" lon="0.06887">
        <ele>12.8</ele>
        <time>2024-10-02T14:18:11Z</time>
      </trkpt>
      <trkpt lat="49.32522" lon="0.06877">
        <ele>13</ele>
        <time>2024-10-02T14:18:12Z</time>
      </trkpt>
      <trkpt lat="49.32519" lon="0.06867">
        <ele>13</ele>
        <time>2024-10-02T14:18:13Z</time>
      </trkpt>
      <trkpt lat="49.32516" lon="0.06857">
        <ele>13.2</ele>
        <time>2024-10-02T14:18:14Z</time>
      </trkpt>
      <trkpt lat="49.32514" lon="0.06847">
        <ele>13.2</ele>
        <time>2024-10-02T14:18:15Z</time>
      </trkpt>
      <trkpt lat="49.32511" lon="0.06837">
        <ele>13.2</ele>
        <time>2024-10-02T14:18:16Z</time>
      </trkpt>
      <trkpt lat="49.32508" lon="0.06826">
        <ele>13.2</ele>
        <time>2024-10-02T14:18:17Z</time>
      </trkpt>
      <trkpt lat="49.32504" lon="0.06816">
        <ele>13.4</ele>
        <time>2024-10-02T14:18:18Z</time>
      </trkpt>
      <trkpt lat="49.32501" lon="0.06806">
        <ele>13.4</ele>
        <time>2024-10-02T14:18:19Z</time>
      </trkpt>
      <trkpt lat="49.32497" lon="0.06795">
        <ele>13.4</ele>
        <time>2024-10-02T14:18:20Z</time>
      </trkpt>
      <trkpt lat="49.32494" lon="0.06785">
        <ele>13.4</ele>
        <time>2024-10-02T14:18:21Z</time>
      </trkpt>
      <trkpt lat="49.3249" lon="0.06775">
        <ele>13.4</ele>
        <time>2024-10-02T14:18:22Z</time>
      </trkpt>
      <trkpt lat="49.32486" lon="0.06765">
        <ele>13.4</ele>
        <time>2024-10-02T14:18:23Z</time>
      </trkpt>
      <trkpt lat="49.32482" lon="0.06756">
        <ele>13.4</ele>
        <time>2024-10-02T14:18:24Z</time>
      </trkpt>
      <trkpt lat="49.32478" lon="0.06746">
        <ele>13.6</ele>
        <time>2024-10-02T14:18:25Z</time>
      </trkpt>
      <trkpt lat="49.32474" lon="0.06737">
        <ele>13.6</ele>
        <time>2024-10-02T14:18:26Z</time>
      </trkpt>
      <trkpt lat="49.32469" lon="0.06728">
        <ele>13.6</ele>
        <time>2024-10-02T14:18:27Z</time>
      </trkpt>
      <trkpt lat="49.32465" lon="0.06718">
        <ele>13.6</ele>
        <time>2024-10-02T14:18:28Z</time>
      </trkpt>
      <trkpt lat="49.3246" lon="0.06709">
        <ele>13.8</ele>
        <time>2024-10-02T14:18:29Z</time>
      </trkpt>
      <trkpt lat="49.32455" lon="0.067">
        <ele>13.8</ele>
        <time>2024-10-02T14:18:30Z</time>
      </trkpt>
      <trkpt lat="49.3245" lon="0.06691">
        <ele>13.8</ele>
        <time>2024-10-02T14:18:31Z</time>
      </trkpt>
      <trkpt lat="49.32446" lon="0.06682">
        <ele>13.8</ele>
        <time>2024-10-02T14:18:32Z</time>
      </trkpt>
      <trkpt lat="49.32441" lon="0.06673">
        <ele>13.8</ele>
        <time>2024-10-02T14:18:33Z</time>
      </trkpt>
      <trkpt lat="49.32437" lon="0.06664">
        <ele>14</ele>
        <time>2024-10-02T14:18:34Z</time>
      </trkpt>
      <trkpt lat="49.32432" lon="0.06656">
        <ele>14</ele>
        <time>2024-10-02T14:18:35Z</time>
      </trkpt>
      <trkpt lat="49.32428" lon="0.06647">
        <ele>14</ele>
        <time>2024-10-02T14:18:36Z</time>
      </trkpt>
      <trkpt lat="49.32424" lon="0.06638">
        <ele>14</ele>
        <time>2024-10-02T14:18:37Z</time>
      </trkpt>
      <trkpt lat="49.3242" lon="0.06629">
        <ele>14</ele>
        <time>2024-10-02T14:18:38Z</time>
      </trkpt>
      <trkpt lat="49.32416" lon="0.0662">
        <ele>14</ele>
        <time>2024-10-02T14:18:39Z</time>
      </trkpt>
      <trkpt lat="49.32411" lon="0.06611">
        <ele>14</ele>
        <time>2024-10-02T14:18:40Z</time>
      </trkpt>
      <trkpt lat="49.32407" lon="0.06602">
        <ele>14</ele>
        <time>2024-10-02T14:18:41Z</time>
      </trkpt>
      <trkpt lat="49.32402" lon="0.06594">
        <ele>14</ele>
        <time>2024-10-02T14:18:42Z</time>
      </trkpt>
      <trkpt lat="49.32398" lon="0.06586">
        <ele>14</ele>
        <time>2024-10-02T14:18:43Z</time>
      </trkpt>
      <trkpt lat="49.32393" lon="0.06579">
        <ele>14</ele>
        <time>2024-10-02T14:18:44Z</time>
      </trkpt>
      <trkpt lat="49.32388" lon="0.06571">
        <ele>14</ele>
        <time>2024-10-02T14:18:45Z</time>
      </trkpt>
      <trkpt lat="49.32384" lon="0.06564">
        <ele>14</ele>
        <time>2024-10-02T14:18:46Z</time>
      </trkpt>
      <trkpt lat="49.32379" lon="0.06557">
        <ele>14.2</ele>
        <time>2024-10-02T14:18:47Z</time>
      </trkpt>
      <trkpt lat="49.32374" lon="0.0655">
        <ele>14.2</ele>
        <time>2024-10-02T14:18:48Z</time>
      </trkpt>
      <trkpt lat="49.3237" lon="0.06543">
        <ele>14.2</ele>
        <time>2024-10-02T14:18:49Z</time>
      </trkpt>
      <trkpt lat="49.32365" lon="0.06536">
        <ele>14.4</ele>
        <time>2024-10-02T14:18:50Z</time>
      </trkpt>
      <trkpt lat="49.3236" lon="0.06528">
        <ele>14.4</ele>
        <time>2024-10-02T14:18:51Z</time>
      </trkpt>
      <trkpt lat="49.32355" lon="0.06522">
        <ele>14.6</ele>
        <time>2024-10-02T14:18:52Z</time>
      </trkpt>
      <trkpt lat="49.3235" lon="0.06515">
        <ele>14.6</ele>
        <time>2024-10-02T14:18:53Z</time>
      </trkpt>
      <trkpt lat="49.32345" lon="0.06508">
        <ele>14.8</ele>
        <time>2024-10-02T14:18:54Z</time>
      </trkpt>
      <trkpt lat="49.3234" lon="0.06502">
        <ele>14.8</ele>
        <time>2024-10-02T14:18:55Z</time>
      </trkpt>
      <trkpt lat="49.32336" lon="0.06495">
        <ele>15</ele>
        <time>2024-10-02T14:18:56Z</time>
      </trkpt>
      <trkpt lat="49.32331" lon="0.06488">
        <ele>15</ele>
        <time>2024-10-02T14:18:57Z</time>
      </trkpt>
      <trkpt lat="49.32328" lon="0.0648">
        <ele>15.2</ele>
        <time>2024-10-02T14:18:58Z</time>
      </trkpt>
      <trkpt lat="49.32326" lon="0.0647">
        <ele>15.2</ele>
        <time>2024-10-02T14:18:59Z</time>
      </trkpt>
      <trkpt lat="49.32324" lon="0.06461">
        <ele>15.2</ele>
        <time>2024-10-02T14:19:00Z</time>
      </trkpt>
      <trkpt lat="49.32323" lon="0.06451">
        <ele>15.4</ele>
        <time>2024-10-02T14:19:01Z</time>
      </trkpt>
      <trkpt lat="49.32322" lon="0.06441">
        <ele>15.6</ele>
        <time>2024-10-02T14:19:02Z</time>
      </trkpt>
      <trkpt lat="49.32321" lon="0.06431">
        <ele>16</ele>
        <time>2024-10-02T14:19:03Z</time>
      </trkpt>
      <trkpt lat="49.32319" lon="0.06421">
        <ele>16</ele>
        <time>2024-10-02T14:19:04Z</time>
      </trkpt>
      <trkpt lat="49.32317" lon="0.0641">
        <ele>16.2</ele>
        <time>2024-10-02T14:19:05Z</time>
      </trkpt>
      <trkpt lat="49.32315" lon="0.064">
        <ele>16.4</ele>
        <time>2024-10-02T14:19:06Z</time>
      </trkpt>
      <trkpt lat="49.32314" lon="0.0639">
        <ele>16.4</ele>
        <time>2024-10-02T14:19:07Z</time>
      </trkpt>
      <trkpt lat="49.32312" lon="0.06379">
        <ele>16.6</ele>
        <time>2024-10-02T14:19:08Z</time>
      </trkpt>
      <trkpt lat="49.3231" lon="0.0637">
        <ele>17</ele>
        <time>2024-10-02T14:19:09Z</time>
      </trkpt>
      <trkpt lat="49.32308" lon="0.0636">
        <ele>17.2</ele>
        <time>2024-10-02T14:19:10Z</time>
      </trkpt>
      <trkpt lat="49.32305" lon="0.06351">
        <ele>17.4</ele>
        <time>2024-10-02T14:19:11Z</time>
      </trkpt>
      <trkpt lat="49.32303" lon="0.06343">
        <ele>17.6</ele>
        <time>2024-10-02T14:19:12Z</time>
      </trkpt>
      <trkpt lat="49.323" lon="0.06335">
        <ele>17.8</ele>
        <time>2024-10-02T14:19:13Z</time>
      </trkpt>
      <trkpt lat="49.32298" lon="0.06327">
        <ele>18</ele>
        <time>2024-10-02T14:19:14Z</time>
      </trkpt>
      <trkpt lat="49.32296" lon="0.06319">
        <ele>18.2</ele>
        <time>2024-10-02T14:19:15Z</time>
      </trkpt>
      <trkpt lat="49.32295" lon="0.0631">
        <ele>18.4</ele>
        <time>2024-10-02T14:19:16Z</time>
      </trkpt>
      <trkpt lat="49.32296" lon="0.06301">
        <ele>18.4</ele>
        <time>2024-10-02T14:19:17Z</time>
      </trkpt>
      <trkpt lat="49.32297" lon="0.06292">
        <ele>18.4</ele>
        <time>2024-10-02T14:19:18Z</time>
      </trkpt>
      <trkpt lat="49.32298" lon="0.06282">
        <ele>18.4</ele>
        <time>2024-10-02T14:19:19Z</time>
      </trkpt>
      <trkpt lat="49.323" lon="0.06272">
        <ele>18.4</ele>
        <time>2024-10-02T14:19:20Z</time>
      </trkpt>
      <trkpt lat="49.32301" lon="0.06261">
        <ele>18.6</ele>
        <time>2024-10-02T14:19:21Z</time>
      </trkpt>
      <trkpt lat="49.32302" lon="0.06251">
        <ele>18.6</ele>
        <time>2024-10-02T14:19:22Z</time>
      </trkpt>
      <trkpt lat="49.32303" lon="0.0624">
        <ele>18.8</ele>
        <time>2024-10-02T14:19:23Z</time>
      </trkpt>
      <trkpt lat="49.32304" lon="0.0623">
        <ele>19</ele>
        <time>2024-10-02T14:19:24Z</time>
      </trkpt>
      <trkpt lat="49.32306" lon="0.0622">
        <ele>19</ele>
        <time>2024-10-02T14:19:25Z</time>
      </trkpt>
      <trkpt lat="49.32307" lon="0.06209">
        <ele>19</ele>
        <time>2024-10-02T14:19:26Z</time>
      </trkpt>
      <trkpt lat="49.32308" lon="0.06199">
        <ele>19</ele>
        <time>2024-10-02T14:19:27Z</time>
      </trkpt>
      <trkpt lat="49.3231" lon="0.06189">
        <ele>19.2</ele>
        <time>2024-10-02T14:19:28Z</time>
      </trkpt>
      <trkpt lat="49.32311" lon="0.0618">
        <ele>19.2</ele>
        <time>2024-10-02T14:19:29Z</time>
      </trkpt>
      <trkpt lat="49.32312" lon="0.0617">
        <ele>19.2</ele>
        <time>2024-10-02T14:19:30Z</time>
      </trkpt>
      <trkpt lat="49.32313" lon="0.06161">
        <ele>19.2</ele>
        <time>2024-10-02T14:19:31Z</time>
      </trkpt>
      <trkpt lat="49.32314" lon="0.06152">
        <ele>19.2</ele>
        <time>2024-10-02T14:19:32Z</time>
      </trkpt>
      <trkpt lat="49.32315" lon="0.06143">
        <ele>19.2</ele>
        <time>2024-10-02T14:19:33Z</time>
      </trkpt>
      <trkpt lat="49.32316" lon="0.06133">
        <ele>19.2</ele>
        <time>2024-10-02T14:19:34Z</time>
      </trkpt>
      <trkpt lat="49.32318" lon="0.06124">
        <ele>19.4</ele>
        <time>2024-10-02T14:19:35Z</time>
      </trkpt>
      <trkpt lat="49.32319" lon="0.06115">
        <ele>19.4</ele>
        <time>2024-10-02T14:19:36Z</time>
      </trkpt>
      <trkpt lat="49.32321" lon="0.06106">
        <ele>19.4</ele>
        <time>2024-10-02T14:19:37Z</time>
      </trkpt>
      <trkpt lat="49.32323" lon="0.06097">
        <ele>19.4</ele>
        <time>2024-10-02T14:19:38Z</time>
      </trkpt>
      <trkpt lat="49.32324" lon="0.06087">
        <ele>19.4</ele>
        <time>2024-10-02T14:19:39Z</time>
      </trkpt>
      <trkpt lat="49.32325" lon="0.06078">
        <ele>19.4</ele>
        <time>2024-10-02T14:19:40Z</time>
      </trkpt>
      <trkpt lat="49.32326" lon="0.06068">
        <ele>19.4</ele>
        <time>2024-10-02T14:19:41Z</time>
      </trkpt>
      <trkpt lat="49.32327" lon="0.06058">
        <ele>19.4</ele>
        <time>2024-10-02T14:19:42Z</time>
      </trkpt>
      <trkpt lat="49.32328" lon="0.06049">
        <ele>19.4</ele>
        <time>2024-10-02T14:19:43Z</time>
      </trkpt>
      <trkpt lat="49.32329" lon="0.06039">
        <ele>19.6</ele>
        <time>2024-10-02T14:19:44Z</time>
      </trkpt>
      <trkpt lat="49.3233" lon="0.06029">
        <ele>19.6</ele>
        <time>2024-10-02T14:19:45Z</time>
      </trkpt>
      <trkpt lat="49.32331" lon="0.0602">
        <ele>19.6</ele>
        <time>2024-10-02T14:19:46Z</time>
      </trkpt>
      <trkpt lat="49.32332" lon="0.06012">
        <ele>19.6</ele>
        <time>2024-10-02T14:19:47Z</time>
      </trkpt>
      <trkpt lat="49.32334" lon="0.06">
        <ele>19.6</ele>
        <time>2024-10-02T14:19:48Z</time>
      </trkpt>
      <trkpt lat="49.32334" lon="0.05991">
        <ele>19.8</ele>
        <time>2024-10-02T14:19:49Z</time>
      </trkpt>
      <trkpt lat="49.32335" lon="0.0598">
        <ele>19.8</ele>
        <time>2024-10-02T14:19:50Z</time>
      </trkpt>
      <trkpt lat="49.32335" lon="0.0597">
        <ele>20</ele>
        <time>2024-10-02T14:19:51Z</time>
      </trkpt>
      <trkpt lat="49.32336" lon="0.0596">
        <ele>20.2</ele>
        <time>2024-10-02T14:19:52Z</time>
      </trkpt>
      <trkpt lat="49.32336" lon="0.0595">
        <ele>20.4</ele>
        <time>2024-10-02T14:19:53Z</time>
      </trkpt>
      <trkpt lat="49.32336" lon="0.0594">
        <ele>20.6</ele>
        <time>2024-10-02T14:19:54Z</time>
      </trkpt>
      <trkpt lat="49.32337" lon="0.0593">
        <ele>20.8</ele>
        <time>2024-10-02T14:19:55Z</time>
      </trkpt>
      <trkpt lat="49.32337" lon="0.05919">
        <ele>20.8</ele>
        <time>2024-10-02T14:19:56Z</time>
      </trkpt>
      <trkpt lat="49.32338" lon="0.05909">
        <ele>20.8</ele>
        <time>2024-10-02T14:19:57Z</time>
      </trkpt>
      <trkpt lat="49.32339" lon="0.05899">
        <ele>20.8</ele>
        <time>2024-10-02T14:19:58Z</time>
      </trkpt>
      <trkpt lat="49.32339" lon="0.05889">
        <ele>21</ele>
        <time>2024-10-02T14:19:59Z</time>
      </trkpt>
      <trkpt lat="49.3234" lon="0.05878">
        <ele>21</ele>
        <time>2024-10-02T14:20:00Z</time>
      </trkpt>
      <trkpt lat="49.3234" lon="0.05868">
        <ele>21</ele>
        <time>2024-10-02T14:20:01Z</time>
      </trkpt>
      <trkpt lat="49.32341" lon="0.05858">
        <ele>21.2</ele>
        <time>2024-10-02T14:20:02Z</time>
      </trkpt>
      <trkpt lat="49.32342" lon="0.05848">
        <ele>21.4</ele>
        <time>2024-10-02T14:20:03Z</time>
      </trkpt>
      <trkpt lat="49.32343" lon="0.05838">
        <ele>21.4</ele>
        <time>2024-10-02T14:20:04Z</time>
      </trkpt>
      <trkpt lat="49.32343" lon="0.05828">
        <ele>21.6</ele>
        <time>2024-10-02T14:20:05Z</time>
      </trkpt>
      <trkpt lat="49.32344" lon="0.05817">
        <ele>21.8</ele>
        <time>2024-10-02T14:20:06Z</time>
      </trkpt>
      <trkpt lat="49.32345" lon="0.05807">
        <ele>21.8</ele>
        <time>2024-10-02T14:20:07Z</time>
      </trkpt>
      <trkpt lat="49.32345" lon="0.05797">
        <ele>21.8</ele>
        <time>2024-10-02T14:20:08Z</time>
      </trkpt>
      <trkpt lat="49.32346" lon="0.05786">
        <ele>21.8</ele>
        <time>2024-10-02T14:20:09Z</time>
      </trkpt>
      <trkpt lat="49.32348" lon="0.05776">
        <ele>22</ele>
        <time>2024-10-02T14:20:10Z</time>
      </trkpt>
      <trkpt lat="49.32349" lon="0.05766">
        <ele>22</ele>
        <time>2024-10-02T14:20:11Z</time>
      </trkpt>
      <trkpt lat="49.3235" lon="0.05755">
        <ele>22</ele>
        <time>2024-10-02T14:20:12Z</time>
      </trkpt>
      <trkpt lat="49.32352" lon="0.05745">
        <ele>22.2</ele>
        <time>2024-10-02T14:20:13Z</time>
      </trkpt>
      <trkpt lat="49.32353" lon="0.05734">
        <ele>22.2</ele>
        <time>2024-10-02T14:20:14Z</time>
      </trkpt>
      <trkpt lat="49.32354" lon="0.05723">
        <ele>22.2</ele>
        <time>2024-10-02T14:20:15Z</time>
      </trkpt>
      <trkpt lat="49.32355" lon="0.05712">
        <ele>22.6</ele>
        <time>2024-10-02T14:20:16Z</time>
      </trkpt>
      <trkpt lat="49.32357" lon="0.05701">
        <ele>22.8</ele>
        <time>2024-10-02T14:20:17Z</time>
      </trkpt>
      <trkpt lat="49.32358" lon="0.05691">
        <ele>23</ele>
        <time>2024-10-02T14:20:18Z</time>
      </trkpt>
      <trkpt lat="49.3236" lon="0.0568">
        <ele>23.2</ele>
        <time>2024-10-02T14:20:19Z</time>
      </trkpt>
      <trkpt lat="49.32361" lon="0.05669">
        <ele>23.4</ele>
        <time>2024-10-02T14:20:20Z</time>
      </trkpt>
      <trkpt lat="49.32363" lon="0.05658">
        <ele>23.4</ele>
        <time>2024-10-02T14:20:21Z</time>
      </trkpt>
      <trkpt lat="49.32364" lon="0.05647">
        <ele>23.4</ele>
        <time>2024-10-02T14:20:22Z</time>
      </trkpt>
      <trkpt lat="49.32366" lon="0.05635">
        <ele>23.4</ele>
        <time>2024-10-02T14:20:23Z</time>
      </trkpt>
      <trkpt lat="49.32367" lon="0.05624">
        <ele>23.4</ele>
        <time>2024-10-02T14:20:24Z</time>
      </trkpt>
      <trkpt lat="49.32369" lon="0.05612">
        <ele>23.4</ele>
        <time>2024-10-02T14:20:25Z</time>
      </trkpt>
      <trkpt lat="49.3237" lon="0.056">
        <ele>23.4</ele>
        <time>2024-10-02T14:20:26Z</time>
      </trkpt>
      <trkpt lat="49.32372" lon="0.05587">
        <ele>23.4</ele>
        <time>2024-10-02T14:20:27Z</time>
      </trkpt>
      <trkpt lat="49.32372" lon="0.05574">
        <ele>23.4</ele>
        <time>2024-10-02T14:20:28Z</time>
      </trkpt>
      <trkpt lat="49.32373" lon="0.05562">
        <ele>23.4</ele>
        <time>2024-10-02T14:20:29Z</time>
      </trkpt>
      <trkpt lat="49.32374" lon="0.05549">
        <ele>23.4</ele>
        <time>2024-10-02T14:20:30Z</time>
      </trkpt>
      <trkpt lat="49.32375" lon="0.05536">
        <ele>23.4</ele>
        <time>2024-10-02T14:20:31Z</time>
      </trkpt>
      <trkpt lat="49.32376" lon="0.05523">
        <ele>23.4</ele>
        <time>2024-10-02T14:20:32Z</time>
      </trkpt>
      <trkpt lat="49.32377" lon="0.05511">
        <ele>23.4</ele>
        <time>2024-10-02T14:20:33Z</time>
      </trkpt>
      <trkpt lat="49.32378" lon="0.05498">
        <ele>23.4</ele>
        <time>2024-10-02T14:20:34Z</time>
      </trkpt>
      <trkpt lat="49.32379" lon="0.05485">
        <ele>23.2</ele>
        <time>2024-10-02T14:20:35Z</time>
      </trkpt>
      <trkpt lat="49.32379" lon="0.05472">
        <ele>23</ele>
        <time>2024-10-02T14:20:36Z</time>
      </trkpt>
      <trkpt lat="49.3238" lon="0.05459">
        <ele>22.8</ele>
        <time>2024-10-02T14:20:37Z</time>
      </trkpt>
      <trkpt lat="49.32381" lon="0.05445">
        <ele>22.6</ele>
        <time>2024-10-02T14:20:38Z</time>
      </trkpt>
      <trkpt lat="49.32382" lon="0.05432">
        <ele>22.6</ele>
        <time>2024-10-02T14:20:39Z</time>
      </trkpt>
      <trkpt lat="49.32384" lon="0.05419">
        <ele>22.4</ele>
        <time>2024-10-02T14:20:40Z</time>
      </trkpt>
      <trkpt lat="49.32385" lon="0.05405">
        <ele>22.4</ele>
        <time>2024-10-02T14:20:41Z</time>
      </trkpt>
      <trkpt lat="49.32387" lon="0.05394">
        <ele>22.4</ele>
        <time>2024-10-02T14:20:42Z</time>
      </trkpt>
      <trkpt lat="49.32389" lon="0.05378">
        <ele>22.4</ele>
        <time>2024-10-02T14:20:43Z</time>
      </trkpt>
      <trkpt lat="49.32391" lon="0.05365">
        <ele>22.4</ele>
        <time>2024-10-02T14:20:44Z</time>
      </trkpt>
      <trkpt lat="49.32393" lon="0.05351">
        <ele>22.2</ele>
        <time>2024-10-02T14:20:45Z</time>
      </trkpt>
      <trkpt lat="49.32396" lon="0.05338">
        <ele>22.2</ele>
        <time>2024-10-02T14:20:46Z</time>
      </trkpt>
      <trkpt lat="49.32398" lon="0.05326">
        <ele>22.2</ele>
        <time>2024-10-02T14:20:47Z</time>
      </trkpt>
      <trkpt lat="49.32401" lon="0.05312">
        <ele>22.2</ele>
        <time>2024-10-02T14:20:48Z</time>
      </trkpt>
      <trkpt lat="49.32404" lon="0.05299">
        <ele>22</ele>
        <time>2024-10-02T14:20:49Z</time>
      </trkpt>
      <trkpt lat="49.32406" lon="0.05285">
        <ele>22</ele>
        <time>2024-10-02T14:20:50Z</time>
      </trkpt>
      <trkpt lat="49.32409" lon="0.05272">
        <ele>21.6</ele>
        <time>2024-10-02T14:20:51Z</time>
      </trkpt>
      <trkpt lat="49.32411" lon="0.05257">
        <ele>21.4</ele>
        <time>2024-10-02T14:20:52Z</time>
      </trkpt>
      <trkpt lat="49.32413" lon="0.05243">
        <ele>21.4</ele>
        <time>2024-10-02T14:20:53Z</time>
      </trkpt>
      <trkpt lat="49.32415" lon="0.05229">
        <ele>21.4</ele>
        <time>2024-10-02T14:20:54Z</time>
      </trkpt>
      <trkpt lat="49.32418" lon="0.05214">
        <ele>21.2</ele>
        <time>2024-10-02T14:20:55Z</time>
      </trkpt>
      <trkpt lat="49.3242" lon="0.052">
        <ele>21.2</ele>
        <time>2024-10-02T14:20:56Z</time>
      </trkpt>
      <trkpt lat="49.32423" lon="0.05185">
        <ele>21</ele>
        <time>2024-10-02T14:20:57Z</time>
      </trkpt>
      <trkpt lat="49.32425" lon="0.0517">
        <ele>21</ele>
        <time>2024-10-02T14:20:58Z</time>
      </trkpt>
      <trkpt lat="49.32427" lon="0.05155">
        <ele>20.8</ele>
        <time>2024-10-02T14:20:59Z</time>
      </trkpt>
      <trkpt lat="49.32429" lon="0.05141">
        <ele>20.4</ele>
        <time>2024-10-02T14:21:00Z</time>
      </trkpt>
      <trkpt lat="49.32432" lon="0.05126">
        <ele>20.2</ele>
        <time>2024-10-02T14:21:01Z</time>
      </trkpt>
      <trkpt lat="49.32434" lon="0.05111">
        <ele>20</ele>
        <time>2024-10-02T14:21:02Z</time>
      </trkpt>
      <trkpt lat="49.32436" lon="0.05096">
        <ele>19.8</ele>
        <time>2024-10-02T14:21:03Z</time>
      </trkpt>
      <trkpt lat="49.32438" lon="0.05081">
        <ele>19.6</ele>
        <time>2024-10-02T14:21:04Z</time>
      </trkpt>
      <trkpt lat="49.32441" lon="0.05066">
        <ele>19.4</ele>
        <time>2024-10-02T14:21:05Z</time>
      </trkpt>
      <trkpt lat="49.32443" lon="0.05051">
        <ele>18.8</ele>
        <time>2024-10-02T14:21:06Z</time>
      </trkpt>
      <trkpt lat="49.32446" lon="0.05037">
        <ele>18.2</ele>
        <time>2024-10-02T14:21:07Z</time>
      </trkpt>
      <trkpt lat="49.32448" lon="0.05023">
        <ele>18</ele>
        <time>2024-10-02T14:21:08Z</time>
      </trkpt>
      <trkpt lat="49.32451" lon="0.05009">
        <ele>17.6</ele>
        <time>2024-10-02T14:21:09Z</time>
      </trkpt>
      <trkpt lat="49.32454" lon="0.04995">
        <ele>17.4</ele>
        <time>2024-10-02T14:21:10Z</time>
      </trkpt>
      <trkpt lat="49.32456" lon="0.04981">
        <ele>17.2</ele>
        <time>2024-10-02T14:21:11Z</time>
      </trkpt>
      <trkpt lat="49.32459" lon="0.04966">
        <ele>16.8</ele>
        <time>2024-10-02T14:21:12Z</time>
      </trkpt>
      <trkpt lat="49.32462" lon="0.04952">
        <ele>16.6</ele>
        <time>2024-10-02T14:21:13Z</time>
      </trkpt>
      <trkpt lat="49.32465" lon="0.04936">
        <ele>16.6</ele>
        <time>2024-10-02T14:21:14Z</time>
      </trkpt>
      <trkpt lat="49.32468" lon="0.04921">
        <ele>16.2</ele>
        <time>2024-10-02T14:21:15Z</time>
      </trkpt>
      <trkpt lat="49.32471" lon="0.04906">
        <ele>15.8</ele>
        <time>2024-10-02T14:21:16Z</time>
      </trkpt>
      <trkpt lat="49.32475" lon="0.04891">
        <ele>15.8</ele>
        <time>2024-10-02T14:21:17Z</time>
      </trkpt>
      <trkpt lat="49.32478" lon="0.04877">
        <ele>15.2</ele>
        <time>2024-10-02T14:21:18Z</time>
      </trkpt>
      <trkpt lat="49.32481" lon="0.04862">
        <ele>14.8</ele>
        <time>2024-10-02T14:21:19Z</time>
      </trkpt>
      <trkpt lat="49.32485" lon="0.04847">
        <ele>14.8</ele>
        <time>2024-10-02T14:21:20Z</time>
      </trkpt>
      <trkpt lat="49.32488" lon="0.04832">
        <ele>14.6</ele>
        <time>2024-10-02T14:21:21Z</time>
      </trkpt>
      <trkpt lat="49.32491" lon="0.04817">
        <ele>14.4</ele>
        <time>2024-10-02T14:21:22Z</time>
      </trkpt>
      <trkpt lat="49.32495" lon="0.04802">
        <ele>13.8</ele>
        <time>2024-10-02T14:21:23Z</time>
      </trkpt>
      <trkpt lat="49.32498" lon="0.04787">
        <ele>13.4</ele>
        <time>2024-10-02T14:21:24Z</time>
      </trkpt>
      <trkpt lat="49.32502" lon="0.04772">
        <ele>12.8</ele>
        <time>2024-10-02T14:21:25Z</time>
      </trkpt>
      <trkpt lat="49.32505" lon="0.04757">
        <ele>12.4</ele>
        <time>2024-10-02T14:21:26Z</time>
      </trkpt>
      <trkpt lat="49.32509" lon="0.04741">
        <ele>12</ele>
        <time>2024-10-02T14:21:27Z</time>
      </trkpt>
      <trkpt lat="49.32512" lon="0.04726">
        <ele>11.8</ele>
        <time>2024-10-02T14:21:28Z</time>
      </trkpt>
      <trkpt lat="49.32515" lon="0.04711">
        <ele>11.6</ele>
        <time>2024-10-02T14:21:29Z</time>
      </trkpt>
      <trkpt lat="49.32518" lon="0.04699">
        <ele>11.6</ele>
        <time>2024-10-02T14:21:30Z</time>
      </trkpt>
      <trkpt lat="49.32522" lon="0.04681">
        <ele>11.2</ele>
        <time>2024-10-02T14:21:31Z</time>
      </trkpt>
      <trkpt lat="49.32525" lon="0.04666">
        <ele>10.8</ele>
        <time>2024-10-02T14:21:32Z</time>
      </trkpt>
      <trkpt lat="49.32528" lon="0.04651">
        <ele>10</ele>
        <time>2024-10-02T14:21:33Z</time>
      </trkpt>
      <trkpt lat="49.32531" lon="0.04636">
        <ele>9.6</ele>
        <time>2024-10-02T14:21:34Z</time>
      </trkpt>
      <trkpt lat="49.32533" lon="0.04621">
        <ele>9.4</ele>
        <time>2024-10-02T14:21:35Z</time>
      </trkpt>
      <trkpt lat="49.32535" lon="0.04607">
        <ele>9.4</ele>
        <time>2024-10-02T14:21:36Z</time>
      </trkpt>
      <trkpt lat="49.32537" lon="0.04591">
        <ele>9.2</ele>
        <time>2024-10-02T14:21:37Z</time>
      </trkpt>
      <trkpt lat="49.32538" lon="0.04576">
        <ele>9</ele>
        <time>2024-10-02T14:21:38Z</time>
      </trkpt>
      <trkpt lat="49.32539" lon="0.04561">
        <ele>8.6</ele>
        <time>2024-10-02T14:21:39Z</time>
      </trkpt>
      <trkpt lat="49.3254" lon="0.04547">
        <ele>8.6</ele>
        <time>2024-10-02T14:21:40Z</time>
      </trkpt>
      <trkpt lat="49.3254" lon="0.04532">
        <ele>8.4</ele>
        <time>2024-10-02T14:21:41Z</time>
      </trkpt>
      <trkpt lat="49.32541" lon="0.04519">
        <ele>8.2</ele>
        <time>2024-10-02T14:21:42Z</time>
      </trkpt>
      <trkpt lat="49.32541" lon="0.04504">
        <ele>8.2</ele>
        <time>2024-10-02T14:21:43Z</time>
      </trkpt>
      <trkpt lat="49.32541" lon="0.0449">
        <ele>8</ele>
        <time>2024-10-02T14:21:44Z</time>
      </trkpt>
      <trkpt lat="49.3254" lon="0.04476">
        <ele>8</ele>
        <time>2024-10-02T14:21:45Z</time>
      </trkpt>
      <trkpt lat="49.32537" lon="0.04463">
        <ele>7.8</ele>
        <time>2024-10-02T14:21:46Z</time>
      </trkpt>
      <trkpt lat="49.32533" lon="0.0445">
        <ele>7.6</ele>
        <time>2024-10-02T14:21:47Z</time>
      </trkpt>
      <trkpt lat="49.32528" lon="0.04438">
        <ele>7.6</ele>
        <time>2024-10-02T14:21:48Z</time>
      </trkpt>
      <trkpt lat="49.32522" lon="0.04427">
        <ele>7.4</ele>
        <time>2024-10-02T14:21:49Z</time>
      </trkpt>
      <trkpt lat="49.32516" lon="0.04416">
        <ele>7.2</ele>
        <time>2024-10-02T14:21:50Z</time>
      </trkpt>
      <trkpt lat="49.3251" lon="0.04405">
        <ele>7.2</ele>
        <time>2024-10-02T14:21:51Z</time>
      </trkpt>
      <trkpt lat="49.32505" lon="0.04396">
        <ele>7</ele>
        <time>2024-10-02T14:21:52Z</time>
      </trkpt>
      <trkpt lat="49.32498" lon="0.04383">
        <ele>7</ele>
        <time>2024-10-02T14:21:53Z</time>
      </trkpt>
      <trkpt lat="49.32493" lon="0.04373">
        <ele>7</ele>
        <time>2024-10-02T14:21:54Z</time>
      </trkpt>
      <trkpt lat="49.32487" lon="0.04362">
        <ele>7</ele>
        <time>2024-10-02T14:21:55Z</time>
      </trkpt>
      <trkpt lat="49.3248" lon="0.04352">
        <ele>6.8</ele>
        <time>2024-10-02T14:21:56Z</time>
      </trkpt>
      <trkpt lat="49.32475" lon="0.04342">
        <ele>6.6</ele>
        <time>2024-10-02T14:21:57Z</time>
      </trkpt>
      <trkpt lat="49.32469" lon="0.04332">
        <ele>6.6</ele>
        <time>2024-10-02T14:21:58Z</time>
      </trkpt>
      <trkpt lat="49.32463" lon="0.04322">
        <ele>6.4</ele>
        <time>2024-10-02T14:21:59Z</time>
      </trkpt>
      <trkpt lat="49.32457" lon="0.04312">
        <ele>6.2</ele>
        <time>2024-10-02T14:22:00Z</time>
      </trkpt>
      <trkpt lat="49.32452" lon="0.04301">
        <ele>6</ele>
        <time>2024-10-02T14:22:01Z</time>
      </trkpt>
      <trkpt lat="49.32446" lon="0.04291">
        <ele>5.8</ele>
        <time>2024-10-02T14:22:02Z</time>
      </trkpt>
      <trkpt lat="49.32441" lon="0.04281">
        <ele>5.6</ele>
        <time>2024-10-02T14:22:03Z</time>
      </trkpt>
      <trkpt lat="49.32435" lon="0.0427">
        <ele>5.6</ele>
        <time>2024-10-02T14:22:04Z</time>
      </trkpt>
      <trkpt lat="49.32429" lon="0.0426">
        <ele>5.4</ele>
        <time>2024-10-02T14:22:05Z</time>
      </trkpt>
      <trkpt lat="49.32423" lon="0.04251">
        <ele>5.4</ele>
        <time>2024-10-02T14:22:06Z</time>
      </trkpt>
      <trkpt lat="49.32418" lon="0.04241">
        <ele>5.4</ele>
        <time>2024-10-02T14:22:07Z</time>
      </trkpt>
      <trkpt lat="49.32412" lon="0.04231">
        <ele>5.4</ele>
        <time>2024-10-02T14:22:08Z</time>
      </trkpt>
      <trkpt lat="49.32407" lon="0.0422">
        <ele>5.4</ele>
        <time>2024-10-02T14:22:09Z</time>
      </trkpt>
      <trkpt lat="49.32403" lon="0.04209">
        <ele>5.4</ele>
        <time>2024-10-02T14:22:10Z</time>
      </trkpt>
      <trkpt lat="49.324" lon="0.04197">
        <ele>5.4</ele>
        <time>2024-10-02T14:22:11Z</time>
      </trkpt>
      <trkpt lat="49.32399" lon="0.04184">
        <ele>5.4</ele>
        <time>2024-10-02T14:22:12Z</time>
      </trkpt>
      <trkpt lat="49.32399" lon="0.04171">
        <ele>5.4</ele>
        <time>2024-10-02T14:22:13Z</time>
      </trkpt>
      <trkpt lat="49.324" lon="0.0416">
        <ele>5.6</ele>
        <time>2024-10-02T14:22:14Z</time>
      </trkpt>
      <trkpt lat="49.32402" lon="0.04144">
        <ele>5.6</ele>
        <time>2024-10-02T14:22:15Z</time>
      </trkpt>
      <trkpt lat="49.32405" lon="0.04131">
        <ele>5.8</ele>
        <time>2024-10-02T14:22:16Z</time>
      </trkpt>
      <trkpt lat="49.32407" lon="0.04118">
        <ele>5.8</ele>
        <time>2024-10-02T14:22:17Z</time>
      </trkpt>
      <trkpt lat="49.3241" lon="0.04105">
        <ele>6</ele>
        <time>2024-10-02T14:22:18Z</time>
      </trkpt>
      <trkpt lat="49.32413" lon="0.04092">
        <ele>6</ele>
        <time>2024-10-02T14:22:19Z</time>
      </trkpt>
      <trkpt lat="49.32415" lon="0.04081">
        <ele>6</ele>
        <time>2024-10-02T14:22:20Z</time>
      </trkpt>
      <trkpt lat="49.32417" lon="0.04066">
        <ele>6</ele>
        <time>2024-10-02T14:22:21Z</time>
      </trkpt>
      <trkpt lat="49.32418" lon="0.04053">
        <ele>6</ele>
        <time>2024-10-02T14:22:22Z</time>
      </trkpt>
      <trkpt lat="49.32418" lon="0.0404">
        <ele>6</ele>
        <time>2024-10-02T14:22:23Z</time>
      </trkpt>
      <trkpt lat="49.32418" lon="0.04027">
        <ele>6</ele>
        <time>2024-10-02T14:22:24Z</time>
      </trkpt>
      <trkpt lat="49.32418" lon="0.04014">
        <ele>6</ele>
        <time>2024-10-02T14:22:25Z</time>
      </trkpt>
      <trkpt lat="49.32418" lon="0.04004">
        <ele>6</ele>
        <time>2024-10-02T14:22:26Z</time>
      </trkpt>
      <trkpt lat="49.32418" lon="0.03988">
        <ele>6</ele>
        <time>2024-10-02T14:22:27Z</time>
      </trkpt>
      <trkpt lat="49.32419" lon="0.03975">
        <ele>6</ele>
        <time>2024-10-02T14:22:28Z</time>
      </trkpt>
      <trkpt lat="49.32419" lon="0.03963">
        <ele>5.8</ele>
        <time>2024-10-02T14:22:29Z</time>
      </trkpt>
      <trkpt lat="49.3242" lon="0.0395">
        <ele>5.6</ele>
        <time>2024-10-02T14:22:30Z</time>
      </trkpt>
      <trkpt lat="49.32421" lon="0.03938">
        <ele>5.4</ele>
        <time>2024-10-02T14:22:31Z</time>
      </trkpt>
      <trkpt lat="49.32423" lon="0.03926">
        <ele>5.2</ele>
        <time>2024-10-02T14:22:32Z</time>
      </trkpt>
      <trkpt lat="49.32425" lon="0.03914">
        <ele>5.2</ele>
        <time>2024-10-02T14:22:33Z</time>
      </trkpt>
      <trkpt lat="49.32427" lon="0.03904">
        <ele>5.2</ele>
        <time>2024-10-02T14:22:34Z</time>
      </trkpt>
      <trkpt lat="49.32431" lon="0.0389">
        <ele>5</ele>
        <time>2024-10-02T14:22:35Z</time>
      </trkpt>
      <trkpt lat="49.32434" lon="0.03879">
        <ele>5</ele>
        <time>2024-10-02T14:22:36Z</time>
      </trkpt>
      <trkpt lat="49.32438" lon="0.03867">
        <ele>5</ele>
        <time>2024-10-02T14:22:37Z</time>
      </trkpt>
      <trkpt lat="49.32441" lon="0.03856">
        <ele>5</ele>
        <time>2024-10-02T14:22:38Z</time>
      </trkpt>
      <trkpt lat="49.32444" lon="0.03844">
        <ele>5</ele>
        <time>2024-10-02T14:22:39Z</time>
      </trkpt>
      <trkpt lat="49.32446" lon="0.03832">
        <ele>5</ele>
        <time>2024-10-02T14:22:40Z</time>
      </trkpt>
      <trkpt lat="49.32447" lon="0.03819">
        <ele>4.8</ele>
        <time>2024-10-02T14:22:41Z</time>
      </trkpt>
      <trkpt lat="49.32447" lon="0.03807">
        <ele>4.8</ele>
        <time>2024-10-02T14:22:42Z</time>
      </trkpt>
      <trkpt lat="49.32446" lon="0.03795">
        <ele>4.6</ele>
        <time>2024-10-02T14:22:43Z</time>
      </trkpt>
      <trkpt lat="49.32445" lon="0.03783">
        <ele>4.6</ele>
        <time>2024-10-02T14:22:44Z</time>
      </trkpt>
      <trkpt lat="49.32443" lon="0.03771">
        <ele>4.6</ele>
        <time>2024-10-02T14:22:45Z</time>
      </trkpt>
      <trkpt lat="49.32442" lon="0.0376">
        <ele>4.6</ele>
        <time>2024-10-02T14:22:46Z</time>
      </trkpt>
      <trkpt lat="49.32441" lon="0.03748">
        <ele>4.6</ele>
        <time>2024-10-02T14:22:47Z</time>
      </trkpt>
      <trkpt lat="49.32439" lon="0.03738">
        <ele>4.6</ele>
        <time>2024-10-02T14:22:48Z</time>
      </trkpt>
      <trkpt lat="49.32437" lon="0.03727">
        <ele>4.8</ele>
        <time>2024-10-02T14:22:49Z</time>
      </trkpt>
      <trkpt lat="49.32436" lon="0.03719">
        <ele>4.8</ele>
        <time>2024-10-02T14:22:50Z</time>
      </trkpt>
      <trkpt lat="49.32432" lon="0.03708">
        <ele>5</ele>
        <time>2024-10-02T14:22:51Z</time>
      </trkpt>
      <trkpt lat="49.32429" lon="0.03699">
        <ele>5</ele>
        <time>2024-10-02T14:22:52Z</time>
      </trkpt>
      <trkpt lat="49.32426" lon="0.03691">
        <ele>5</ele>
        <time>2024-10-02T14:22:53Z</time>
      </trkpt>
      <trkpt lat="49.32423" lon="0.03683">
        <ele>5</ele>
        <time>2024-10-02T14:22:54Z</time>
      </trkpt>
      <trkpt lat="49.3242" lon="0.03676">
        <ele>5</ele>
        <time>2024-10-02T14:22:55Z</time>
      </trkpt>
      <trkpt lat="49.32418" lon="0.03671">
        <ele>5</ele>
        <time>2024-10-02T14:22:56Z</time>
      </trkpt>
      <trkpt lat="49.32415" lon="0.03665">
        <ele>5.2</ele>
        <time>2024-10-02T14:22:57Z</time>
      </trkpt>
      <trkpt lat="49.32413" lon="0.03659">
        <ele>5.2</ele>
        <time>2024-10-02T14:22:58Z</time>
      </trkpt>
      <trkpt lat="49.32412" lon="0.03655">
        <ele>5.2</ele>
        <time>2024-10-02T14:22:59Z</time>
      </trkpt>
      <trkpt lat="49.32411" lon="0.03652">
        <ele>5.2</ele>
        <time>2024-10-02T14:23:00Z</time>
      </trkpt>
      <trkpt lat="49.3241" lon="0.03649">
        <ele>5.4</ele>
        <time>2024-10-02T14:23:01Z</time>
      </trkpt>
      <trkpt lat="49.32409" lon="0.03646">
        <ele>5.4</ele>
        <time>2024-10-02T14:23:02Z</time>
      </trkpt>
      <trkpt lat="49.32408" lon="0.03643">
        <ele>5.4</ele>
        <time>2024-10-02T14:23:03Z</time>
      </trkpt>
      <trkpt lat="49.32407" lon="0.0364">
        <ele>5.6</ele>
        <time>2024-10-02T14:23:04Z</time>
      </trkpt>
      <trkpt lat="49.32405" lon="0.03636">
        <ele>5.8</ele>
        <time>2024-10-02T14:23:05Z</time>
      </trkpt>
      <trkpt lat="49.32404" lon="0.03631">
        <ele>5.8</ele>
        <time>2024-10-02T14:23:06Z</time>
      </trkpt>
      <trkpt lat="49.32403" lon="0.03624">
        <ele>6</ele>
        <time>2024-10-02T14:23:07Z</time>
      </trkpt>
      <trkpt lat="49.32403" lon="0.03617">
        <ele>6</ele>
        <time>2024-10-02T14:23:08Z</time>
      </trkpt>
      <trkpt lat="49.32403" lon="0.03609">
        <ele>6</ele>
        <time>2024-10-02T14:23:09Z</time>
      </trkpt>
      <trkpt lat="49.32403" lon="0.03601">
        <ele>6</ele>
        <time>2024-10-02T14:23:10Z</time>
      </trkpt>
      <trkpt lat="49.32403" lon="0.03593">
        <ele>6</ele>
        <time>2024-10-02T14:23:11Z</time>
      </trkpt>
      <trkpt lat="49.32403" lon="0.03584">
        <ele>6</ele>
        <time>2024-10-02T14:23:12Z</time>
      </trkpt>
      <trkpt lat="49.32404" lon="0.03576">
        <ele>6</ele>
        <time>2024-10-02T14:23:13Z</time>
      </trkpt>
      <trkpt lat="49.32404" lon="0.03567">
        <ele>6</ele>
        <time>2024-10-02T14:23:14Z</time>
      </trkpt>
      <trkpt lat="49.32405" lon="0.03558">
        <ele>6</ele>
        <time>2024-10-02T14:23:15Z</time>
      </trkpt>
      <trkpt lat="49.32406" lon="0.03549">
        <ele>6</ele>
        <time>2024-10-02T14:23:16Z</time>
      </trkpt>
      <trkpt lat="49.32408" lon="0.03539">
        <ele>5.8</ele>
        <time>2024-10-02T14:23:17Z</time>
      </trkpt>
      <trkpt lat="49.32409" lon="0.0353">
        <ele>5.6</ele>
        <time>2024-10-02T14:23:18Z</time>
      </trkpt>
      <trkpt lat="49.32411" lon="0.0352">
        <ele>5.6</ele>
        <time>2024-10-02T14:23:19Z</time>
      </trkpt>
      <trkpt lat="49.32413" lon="0.0351">
        <ele>5.4</ele>
        <time>2024-10-02T14:23:20Z</time>
      </trkpt>
      <trkpt lat="49.32415" lon="0.035">
        <ele>5.4</ele>
        <time>2024-10-02T14:23:21Z</time>
      </trkpt>
      <trkpt lat="49.32418" lon="0.0349">
        <ele>5.2</ele>
        <time>2024-10-02T14:23:22Z</time>
      </trkpt>
      <trkpt lat="49.3242" lon="0.03479">
        <ele>5</ele>
        <time>2024-10-02T14:23:23Z</time>
      </trkpt>
      <trkpt lat="49.32423" lon="0.03469">
        <ele>5</ele>
        <time>2024-10-02T14:23:24Z</time>
      </trkpt>
      <trkpt lat="49.32426" lon="0.03459">
        <ele>5</ele>
        <time>2024-10-02T14:23:25Z</time>
      </trkpt>
      <trkpt lat="49.3243" lon="0.03449">
        <ele>4.8</ele>
        <time>2024-10-02T14:23:26Z</time>
      </trkpt>
      <trkpt lat="49.32433" lon="0.03438">
        <ele>4.8</ele>
        <time>2024-10-02T14:23:27Z</time>
      </trkpt>
      <trkpt lat="49.32435" lon="0.03428">
        <ele>4.8</ele>
        <time>2024-10-02T14:23:28Z</time>
      </trkpt>
      <trkpt lat="49.32438" lon="0.03417">
        <ele>4.6</ele>
        <time>2024-10-02T14:23:29Z</time>
      </trkpt>
      <trkpt lat="49.32441" lon="0.03407">
        <ele>4.6</ele>
        <time>2024-10-02T14:23:30Z</time>
      </trkpt>
      <trkpt lat="49.32444" lon="0.03397">
        <ele>4.6</ele>
        <time>2024-10-02T14:23:31Z</time>
      </trkpt>
      <trkpt lat="49.32446" lon="0.03386">
        <ele>4.4</ele>
        <time>2024-10-02T14:23:32Z</time>
      </trkpt>
      <trkpt lat="49.32449" lon="0.03376">
        <ele>4.4</ele>
        <time>2024-10-02T14:23:33Z</time>
      </trkpt>
      <trkpt lat="49.32451" lon="0.03365">
        <ele>4.4</ele>
        <time>2024-10-02T14:23:34Z</time>
      </trkpt>
      <trkpt lat="49.32453" lon="0.03354">
        <ele>4.4</ele>
        <time>2024-10-02T14:23:35Z</time>
      </trkpt>
      <trkpt lat="49.32455" lon="0.03343">
        <ele>4.4</ele>
        <time>2024-10-02T14:23:36Z</time>
      </trkpt>
      <trkpt lat="49.32456" lon="0.03331">
        <ele>4.4</ele>
        <time>2024-10-02T14:23:37Z</time>
      </trkpt>
      <trkpt lat="49.32456" lon="0.0332">
        <ele>4.4</ele>
        <time>2024-10-02T14:23:38Z</time>
      </trkpt>
      <trkpt lat="49.32456" lon="0.03308">
        <ele>4.4</ele>
        <time>2024-10-02T14:23:39Z</time>
      </trkpt>
      <trkpt lat="49.32457" lon="0.03297">
        <ele>4.4</ele>
        <time>2024-10-02T14:23:40Z</time>
      </trkpt>
      <trkpt lat="49.32457" lon="0.03285">
        <ele>4.4</ele>
        <time>2024-10-02T14:23:41Z</time>
      </trkpt>
      <trkpt lat="49.32457" lon="0.03274">
        <ele>4.4</ele>
        <time>2024-10-02T14:23:42Z</time>
      </trkpt>
      <trkpt lat="49.32457" lon="0.0326">
        <ele>4.4</ele>
        <time>2024-10-02T14:23:43Z</time>
      </trkpt>
      <trkpt lat="49.32458" lon="0.03249">
        <ele>4.6</ele>
        <time>2024-10-02T14:23:44Z</time>
      </trkpt>
      <trkpt lat="49.32458" lon="0.0324">
        <ele>4.6</ele>
        <time>2024-10-02T14:23:45Z</time>
      </trkpt>
      <trkpt lat="49.32458" lon="0.03227">
        <ele>4.8</ele>
        <time>2024-10-02T14:23:46Z</time>
      </trkpt>
      <trkpt lat="49.32458" lon="0.03217">
        <ele>4.8</ele>
        <time>2024-10-02T14:23:47Z</time>
      </trkpt>
      <trkpt lat="49.32459" lon="0.03208">
        <ele>5</ele>
        <time>2024-10-02T14:23:48Z</time>
      </trkpt>
      <trkpt lat="49.32459" lon="0.03196">
        <ele>5.2</ele>
        <time>2024-10-02T14:23:49Z</time>
      </trkpt>
      <trkpt lat="49.32459" lon="0.03186">
        <ele>5.4</ele>
        <time>2024-10-02T14:23:50Z</time>
      </trkpt>
      <trkpt lat="49.3246" lon="0.03176">
        <ele>5.6</ele>
        <time>2024-10-02T14:23:51Z</time>
      </trkpt>
      <trkpt lat="49.3246" lon="0.03166">
        <ele>5.6</ele>
        <time>2024-10-02T14:23:52Z</time>
      </trkpt>
      <trkpt lat="49.32461" lon="0.03157">
        <ele>5.8</ele>
        <time>2024-10-02T14:23:53Z</time>
      </trkpt>
      <trkpt lat="49.32461" lon="0.03147">
        <ele>5.8</ele>
        <time>2024-10-02T14:23:54Z</time>
      </trkpt>
      <trkpt lat="49.32461" lon="0.03138">
        <ele>6</ele>
        <time>2024-10-02T14:23:55Z</time>
      </trkpt>
      <trkpt lat="49.3246" lon="0.03129">
        <ele>6</ele>
        <time>2024-10-02T14:23:56Z</time>
      </trkpt>
      <trkpt lat="49.32459" lon="0.03122">
        <ele>6</ele>
        <time>2024-10-02T14:23:57Z</time>
      </trkpt>
      <trkpt lat="49.32457" lon="0.03114">
        <ele>6.2</ele>
        <time>2024-10-02T14:23:58Z</time>
      </trkpt>
      <trkpt lat="49.32455" lon="0.03106">
        <ele>6.2</ele>
        <time>2024-10-02T14:23:59Z</time>
      </trkpt>
      <trkpt lat="49.32453" lon="0.03099">
        <ele>6.2</ele>
        <time>2024-10-02T14:24:00Z</time>
      </trkpt>
      <trkpt lat="49.3245" lon="0.03091">
        <ele>6.4</ele>
        <time>2024-10-02T14:24:01Z</time>
      </trkpt>
      <trkpt lat="49.32448" lon="0.03085">
        <ele>6.8</ele>
        <time>2024-10-02T14:24:02Z</time>
      </trkpt>
      <trkpt lat="49.32446" lon="0.03081">
        <ele>7</ele>
        <time>2024-10-02T14:24:03Z</time>
      </trkpt>
      <trkpt lat="49.32443" lon="0.03075">
        <ele>7.6</ele>
        <time>2024-10-02T14:24:04Z</time>
      </trkpt>
      <trkpt lat="49.32441" lon="0.03071">
        <ele>8.2</ele>
        <time>2024-10-02T14:24:05Z</time>
      </trkpt>
      <trkpt lat="49.32439" lon="0.03066">
        <ele>8.6</ele>
        <time>2024-10-02T14:24:06Z</time>
      </trkpt>
      <trkpt lat="49.32436" lon="0.0306">
        <ele>9</ele>
        <time>2024-10-02T14:24:07Z</time>
      </trkpt>
      <trkpt lat="49.32434" lon="0.03055">
        <ele>9.4</ele>
        <time>2024-10-02T14:24:08Z</time>
      </trkpt>
      <trkpt lat="49.32432" lon="0.03052">
        <ele>9.4</ele>
        <time>2024-10-02T14:24:09Z</time>
      </trkpt>
      <trkpt lat="49.3243" lon="0.03046">
        <ele>10</ele>
        <time>2024-10-02T14:24:10Z</time>
      </trkpt>
      <trkpt lat="49.32428" lon="0.03041">
        <ele>10.4</ele>
        <time>2024-10-02T14:24:11Z</time>
      </trkpt>
      <trkpt lat="49.32427" lon="0.03037">
        <ele>10.8</ele>
        <time>2024-10-02T14:24:12Z</time>
      </trkpt>
      <trkpt lat="49.32425" lon="0.03031">
        <ele>11.4</ele>
        <time>2024-10-02T14:24:13Z</time>
      </trkpt>
      <trkpt lat="49.32424" lon="0.03026">
        <ele>11.8</ele>
        <time>2024-10-02T14:24:14Z</time>
      </trkpt>
      <trkpt lat="49.32423" lon="0.03021">
        <ele>12.2</ele>
        <time>2024-10-02T14:24:15Z</time>
      </trkpt>
      <trkpt lat="49.32422" lon="0.03015">
        <ele>12.4</ele>
        <time>2024-10-02T14:24:16Z</time>
      </trkpt>
      <trkpt lat="49.32421" lon="0.0301">
        <ele>12.6</ele>
        <time>2024-10-02T14:24:17Z</time>
      </trkpt>
      <trkpt lat="49.32421" lon="0.03005">
        <ele>13</ele>
        <time>2024-10-02T14:24:18Z</time>
      </trkpt>
      <trkpt lat="49.32421" lon="0.02999">
        <ele>13.2</ele>
        <time>2024-10-02T14:24:19Z</time>
      </trkpt>
      <trkpt lat="49.32422" lon="0.02994">
        <ele>13.6</ele>
        <time>2024-10-02T14:24:20Z</time>
      </trkpt>
      <trkpt lat="49.32422" lon="0.02989">
        <ele>14</ele>
        <time>2024-10-02T14:24:21Z</time>
      </trkpt>
      <trkpt lat="49.32423" lon="0.02982">
        <ele>14.2</ele>
        <time>2024-10-02T14:24:22Z</time>
      </trkpt>
      <trkpt lat="49.32423" lon="0.02976">
        <ele>14.6</ele>
        <time>2024-10-02T14:24:23Z</time>
      </trkpt>
      <trkpt lat="49.32424" lon="0.0297">
        <ele>14.8</ele>
        <time>2024-10-02T14:24:24Z</time>
      </trkpt>
      <trkpt lat="49.32424" lon="0.02965">
        <ele>15.2</ele>
        <time>2024-10-02T14:24:25Z</time>
      </trkpt>
      <trkpt lat="49.32425" lon="0.02959">
        <ele>15.4</ele>
        <time>2024-10-02T14:24:26Z</time>
      </trkpt>
      <trkpt lat="49.32425" lon="0.02954">
        <ele>15.6</ele>
        <time>2024-10-02T14:24:27Z</time>
      </trkpt>
      <trkpt lat="49.32426" lon="0.02948">
        <ele>16</ele>
        <time>2024-10-02T14:24:28Z</time>
      </trkpt>
      <trkpt lat="49.32426" lon="0.02943">
        <ele>16.2</ele>
        <time>2024-10-02T14:24:29Z</time>
      </trkpt>
      <trkpt lat="49.32426" lon="0.02937">
        <ele>16.2</ele>
        <time>2024-10-02T14:24:30Z</time>
      </trkpt>
      <trkpt lat="49.32426" lon="0.02931">
        <ele>16.4</ele>
        <time>2024-10-02T14:24:31Z</time>
      </trkpt>
      <trkpt lat="49.32427" lon="0.02927">
        <ele>16.8</ele>
        <time>2024-10-02T14:24:32Z</time>
      </trkpt>
      <trkpt lat="49.32427" lon="0.02921">
        <ele>17</ele>
        <time>2024-10-02T14:24:33Z</time>
      </trkpt>
      <trkpt lat="49.32427" lon="0.02915">
        <ele>17.4</ele>
        <time>2024-10-02T14:24:34Z</time>
      </trkpt>
      <trkpt lat="49.32427" lon="0.02911">
        <ele>17.6</ele>
        <time>2024-10-02T14:24:35Z</time>
      </trkpt>
      <trkpt lat="49.32428" lon="0.02906">
        <ele>18</ele>
        <time>2024-10-02T14:24:36Z</time>
      </trkpt>
      <trkpt lat="49.32428" lon="0.029">
        <ele>18.2</ele>
        <time>2024-10-02T14:24:37Z</time>
      </trkpt>
      <trkpt lat="49.32429" lon="0.02895">
        <ele>18.6</ele>
        <time>2024-10-02T14:24:38Z</time>
      </trkpt>
      <trkpt lat="49.32429" lon="0.02889">
        <ele>18.8</ele>
        <time>2024-10-02T14:24:39Z</time>
      </trkpt>
      <trkpt lat="49.32429" lon="0.02883">
        <ele>19</ele>
        <time>2024-10-02T14:24:40Z</time>
      </trkpt>
      <trkpt lat="49.3243" lon="0.02878">
        <ele>19.4</ele>
        <time>2024-10-02T14:24:41Z</time>
      </trkpt>
      <trkpt lat="49.3243" lon="0.02872">
        <ele>19.8</ele>
        <time>2024-10-02T14:24:42Z</time>
      </trkpt>
      <trkpt lat="49.3243" lon="0.02867">
        <ele>20</ele>
        <time>2024-10-02T14:24:43Z</time>
      </trkpt>
      <trkpt lat="49.32431" lon="0.02861">
        <ele>20.2</ele>
        <time>2024-10-02T14:24:44Z</time>
      </trkpt>
      <trkpt lat="49.32432" lon="0.02856">
        <ele>20.6</ele>
        <time>2024-10-02T14:24:45Z</time>
      </trkpt>
      <trkpt lat="49.32432" lon="0.02851">
        <ele>20.8</ele>
        <time>2024-10-02T14:24:46Z</time>
      </trkpt>
      <trkpt lat="49.32431" lon="0.02846">
        <ele>21.2</ele>
        <time>2024-10-02T14:24:47Z</time>
      </trkpt>
      <trkpt lat="49.32431" lon="0.02841">
        <ele>21.4</ele>
        <time>2024-10-02T14:24:48Z</time>
      </trkpt>
      <trkpt lat="49.32431" lon="0.02835">
        <ele>21.8</ele>
        <time>2024-10-02T14:24:49Z</time>
      </trkpt>
      <trkpt lat="49.32431" lon="0.02831">
        <ele>22</ele>
        <time>2024-10-02T14:24:50Z</time>
      </trkpt>
      <trkpt lat="49.3243" lon="0.02826">
        <ele>22.2</ele>
        <time>2024-10-02T14:24:51Z</time>
      </trkpt>
      <trkpt lat="49.32429" lon="0.02821">
        <ele>22.2</ele>
        <time>2024-10-02T14:24:52Z</time>
      </trkpt>
      <trkpt lat="49.32428" lon="0.02817">
        <ele>22.4</ele>
        <time>2024-10-02T14:24:53Z</time>
      </trkpt>
      <trkpt lat="49.32427" lon="0.02812">
        <ele>22.8</ele>
        <time>2024-10-02T14:24:54Z</time>
      </trkpt>
      <trkpt lat="49.32425" lon="0.02808">
        <ele>23.2</ele>
        <time>2024-10-02T14:24:55Z</time>
      </trkpt>
      <trkpt lat="49.32423" lon="0.02804">
        <ele>23.6</ele>
        <time>2024-10-02T14:24:56Z</time>
      </trkpt>
      <trkpt lat="49.32422" lon="0.028">
        <ele>23.8</ele>
        <time>2024-10-02T14:24:57Z</time>
      </trkpt>
      <trkpt lat="49.32419" lon="0.02796">
        <ele>24</ele>
        <time>2024-10-02T14:24:58Z</time>
      </trkpt>
      <trkpt lat="49.32417" lon="0.02793">
        <ele>24.2</ele>
        <time>2024-10-02T14:24:59Z</time>
      </trkpt>
      <trkpt lat="49.32415" lon="0.0279">
        <ele>24.6</ele>
        <time>2024-10-02T14:25:00Z</time>
      </trkpt>
      <trkpt lat="49.32412" lon="0.02787">
        <ele>25</ele>
        <time>2024-10-02T14:25:01Z</time>
      </trkpt>
      <trkpt lat="49.3241" lon="0.02784">
        <ele>25.2</ele>
        <time>2024-10-02T14:25:02Z</time>
      </trkpt>
      <trkpt lat="49.32407" lon="0.02782">
        <ele>25.4</ele>
        <time>2024-10-02T14:25:03Z</time>
      </trkpt>
      <trkpt lat="49.32405" lon="0.02779">
        <ele>25.8</ele>
        <time>2024-10-02T14:25:04Z</time>
      </trkpt>
      <trkpt lat="49.32402" lon="0.02776">
        <ele>26</ele>
        <time>2024-10-02T14:25:05Z</time>
      </trkpt>
      <trkpt lat="49.32399" lon="0.02774">
        <ele>26.4</ele>
        <time>2024-10-02T14:25:06Z</time>
      </trkpt>
      <trkpt lat="49.32395" lon="0.02771">
        <ele>26.8</ele>
        <time>2024-10-02T14:25:07Z</time>
      </trkpt>
      <trkpt lat="49.32392" lon="0.02769">
        <ele>27.2</ele>
        <time>2024-10-02T14:25:08Z</time>
      </trkpt>
      <trkpt lat="49.32389" lon="0.02767">
        <ele>27.6</ele>
        <time>2024-10-02T14:25:09Z</time>
      </trkpt>
      <trkpt lat="49.32386" lon="0.02765">
        <ele>27.8</ele>
        <time>2024-10-02T14:25:10Z</time>
      </trkpt>
      <trkpt lat="49.32383" lon="0.02763">
        <ele>28</ele>
        <time>2024-10-02T14:25:11Z</time>
      </trkpt>
      <trkpt lat="49.32381" lon="0.02761">
        <ele>28.2</ele>
        <time>2024-10-02T14:25:12Z</time>
      </trkpt>
      <trkpt lat="49.32377" lon="0.02759">
        <ele>28.6</ele>
        <time>2024-10-02T14:25:13Z</time>
      </trkpt>
      <trkpt lat="49.32375" lon="0.02757">
        <ele>28.6</ele>
        <time>2024-10-02T14:25:14Z</time>
      </trkpt>
      <trkpt lat="49.32372" lon="0.02755">
        <ele>29</ele>
        <time>2024-10-02T14:25:15Z</time>
      </trkpt>
      <trkpt lat="49.32368" lon="0.02753">
        <ele>29</ele>
        <time>2024-10-02T14:25:16Z</time>
      </trkpt>
      <trkpt lat="49.32366" lon="0.02752">
        <ele>29.4</ele>
        <time>2024-10-02T14:25:17Z</time>
      </trkpt>
      <trkpt lat="49.32363" lon="0.0275">
        <ele>29.8</ele>
        <time>2024-10-02T14:25:18Z</time>
      </trkpt>
      <trkpt lat="49.3236" lon="0.02747">
        <ele>30</ele>
        <time>2024-10-02T14:25:19Z</time>
      </trkpt>
      <trkpt lat="49.32358" lon="0.02745">
        <ele>30.4</ele>
        <time>2024-10-02T14:25:20Z</time>
      </trkpt>
      <trkpt lat="49.32354" lon="0.02742">
        <ele>30.8</ele>
        <time>2024-10-02T14:25:21Z</time>
      </trkpt>
      <trkpt lat="49.32352" lon="0.02739">
        <ele>31</ele>
        <time>2024-10-02T14:25:22Z</time>
      </trkpt>
      <trkpt lat="49.32349" lon="0.02736">
        <ele>31.2</ele>
        <time>2024-10-02T14:25:23Z</time>
      </trkpt>
      <trkpt lat="49.32346" lon="0.02733">
        <ele>31.6</ele>
        <time>2024-10-02T14:25:24Z</time>
      </trkpt>
      <trkpt lat="49.32344" lon="0.02729">
        <ele>31.8</ele>
        <time>2024-10-02T14:25:25Z</time>
      </trkpt>
      <trkpt lat="49.32342" lon="0.02725">
        <ele>31.8</ele>
        <time>2024-10-02T14:25:26Z</time>
      </trkpt>
      <trkpt lat="49.32339" lon="0.02721">
        <ele>32.2</ele>
        <time>2024-10-02T14:25:27Z</time>
      </trkpt>
      <trkpt lat="49.32337" lon="0.02718">
        <ele>32.4</ele>
        <time>2024-10-02T14:25:28Z</time>
      </trkpt>
      <trkpt lat="49.32335" lon="0.02714">
        <ele>32.8</ele>
        <time>2024-10-02T14:25:29Z</time>
      </trkpt>
      <trkpt lat="49.32332" lon="0.02709">
        <ele>33.2</ele>
        <time>2024-10-02T14:25:30Z</time>
      </trkpt>
      <trkpt lat="49.3233" lon="0.02705">
        <ele>33.4</ele>
        <time>2024-10-02T14:25:31Z</time>
      </trkpt>
      <trkpt lat="49.32328" lon="0.02702">
        <ele>33.6</ele>
        <time>2024-10-02T14:25:32Z</time>
      </trkpt>
      <trkpt lat="49.32325" lon="0.02697">
        <ele>33.8</ele>
        <time>2024-10-02T14:25:33Z</time>
      </trkpt>
      <trkpt lat="49.32323" lon="0.02692">
        <ele>33.8</ele>
        <time>2024-10-02T14:25:34Z</time>
      </trkpt>
      <trkpt lat="49.32321" lon="0.02687">
        <ele>33.8</ele>
        <time>2024-10-02T14:25:35Z</time>
      </trkpt>
      <trkpt lat="49.32319" lon="0.02682">
        <ele>34.4</ele>
        <time>2024-10-02T14:25:36Z</time>
      </trkpt>
      <trkpt lat="49.32316" lon="0.02677">
        <ele>34.6</ele>
        <time>2024-10-02T14:25:37Z</time>
      </trkpt>
      <trkpt lat="49.32314" lon="0.02672">
        <ele>34.8</ele>
        <time>2024-10-02T14:25:38Z</time>
      </trkpt>
      <trkpt lat="49.32311" lon="0.02667">
        <ele>35</ele>
        <time>2024-10-02T14:25:39Z</time>
      </trkpt>
      <trkpt lat="49.32309" lon="0.02661">
        <ele>35.2</ele>
        <time>2024-10-02T14:25:40Z</time>
      </trkpt>
      <trkpt lat="49.32306" lon="0.02656">
        <ele>35.4</ele>
        <time>2024-10-02T14:25:41Z</time>
      </trkpt>
      <trkpt lat="49.32303" lon="0.0265">
        <ele>35.8</ele>
        <time>2024-10-02T14:25:42Z</time>
      </trkpt>
      <trkpt lat="49.32301" lon="0.02644">
        <ele>36</ele>
        <time>2024-10-02T14:25:43Z</time>
      </trkpt>
      <trkpt lat="49.32298" lon="0.0264">
        <ele>36.2</ele>
        <time>2024-10-02T14:25:44Z</time>
      </trkpt>
      <trkpt lat="49.32295" lon="0.02632">
        <ele>36.4</ele>
        <time>2024-10-02T14:25:45Z</time>
      </trkpt>
      <trkpt lat="49.32293" lon="0.02626">
        <ele>36.6</ele>
        <time>2024-10-02T14:25:46Z</time>
      </trkpt>
      <trkpt lat="49.32291" lon="0.0262">
        <ele>36.8</ele>
        <time>2024-10-02T14:25:47Z</time>
      </trkpt>
      <trkpt lat="49.32288" lon="0.02614">
        <ele>37</ele>
        <time>2024-10-02T14:25:48Z</time>
      </trkpt>
      <trkpt lat="49.32285" lon="0.02609">
        <ele>37.2</ele>
        <time>2024-10-02T14:25:49Z</time>
      </trkpt>
      <trkpt lat="49.32282" lon="0.02603">
        <ele>37.2</ele>
        <time>2024-10-02T14:25:50Z</time>
      </trkpt>
      <trkpt lat="49.32278" lon="0.02596">
        <ele>37.4</ele>
        <time>2024-10-02T14:25:51Z</time>
      </trkpt>
      <trkpt lat="49.32275" lon="0.0259">
        <ele>37.6</ele>
        <time>2024-10-02T14:25:52Z</time>
      </trkpt>
      <trkpt lat="49.32272" lon="0.02583">
        <ele>37.8</ele>
        <time>2024-10-02T14:25:53Z</time>
      </trkpt>
      <trkpt lat="49.32269" lon="0.02577">
        <ele>37.8</ele>
        <time>2024-10-02T14:25:54Z</time>
      </trkpt>
      <trkpt lat="49.32266" lon="0.0257">
        <ele>38</ele>
        <time>2024-10-02T14:25:55Z</time>
      </trkpt>
      <trkpt lat="49.32263" lon="0.02563">
        <ele>38</ele>
        <time>2024-10-02T14:25:56Z</time>
      </trkpt>
      <trkpt lat="49.3226" lon="0.02556">
        <ele>38</ele>
        <time>2024-10-02T14:25:57Z</time>
      </trkpt>
      <trkpt lat="49.32257" lon="0.02549">
        <ele>38.2</ele>
        <time>2024-10-02T14:25:58Z</time>
      </trkpt>
      <trkpt lat="49.32253" lon="0.02541">
        <ele>38.2</ele>
        <time>2024-10-02T14:25:59Z</time>
      </trkpt>
      <trkpt lat="49.3225" lon="0.02533">
        <ele>38.2</ele>
        <time>2024-10-02T14:26:00Z</time>
      </trkpt>
      <trkpt lat="49.32246" lon="0.02526">
        <ele>38.4</ele>
        <time>2024-10-02T14:26:01Z</time>
      </trkpt>
      <trkpt lat="49.32242" lon="0.02518">
        <ele>38.4</ele>
        <time>2024-10-02T14:26:02Z</time>
      </trkpt>
      <trkpt lat="49.32239" lon="0.02511">
        <ele>38.4</ele>
        <time>2024-10-02T14:26:03Z</time>
      </trkpt>
      <trkpt lat="49.32235" lon="0.02503">
        <ele>38.6</ele>
        <time>2024-10-02T14:26:04Z</time>
      </trkpt>
      <trkpt lat="49.32232" lon="0.02496">
        <ele>38.6</ele>
        <time>2024-10-02T14:26:05Z</time>
      </trkpt>
      <trkpt lat="49.32227" lon="0.02487">
        <ele>38.6</ele>
        <time>2024-10-02T14:26:06Z</time>
      </trkpt>
      <trkpt lat="49.32224" lon="0.02478">
        <ele>38.8</ele>
        <time>2024-10-02T14:26:07Z</time>
      </trkpt>
      <trkpt lat="49.3222" lon="0.0247">
        <ele>38.8</ele>
        <time>2024-10-02T14:26:08Z</time>
      </trkpt>
      <trkpt lat="49.32216" lon="0.02462">
        <ele>39</ele>
        <time>2024-10-02T14:26:09Z</time>
      </trkpt>
      <trkpt lat="49.32212" lon="0.02454">
        <ele>39</ele>
        <time>2024-10-02T14:26:10Z</time>
      </trkpt>
      <trkpt lat="49.32208" lon="0.02446">
        <ele>39</ele>
        <time>2024-10-02T14:26:11Z</time>
      </trkpt>
      <trkpt lat="49.32204" lon="0.02437">
        <ele>39.2</ele>
        <time>2024-10-02T14:26:12Z</time>
      </trkpt>
      <trkpt lat="49.322" lon="0.02429">
        <ele>39.2</ele>
        <time>2024-10-02T14:26:13Z</time>
      </trkpt>
      <trkpt lat="49.32196" lon="0.0242">
        <ele>39.4</ele>
        <time>2024-10-02T14:26:14Z</time>
      </trkpt>
      <trkpt lat="49.32192" lon="0.02412">
        <ele>39.4</ele>
        <time>2024-10-02T14:26:15Z</time>
      </trkpt>
      <trkpt lat="49.32188" lon="0.02403">
        <ele>39.6</ele>
        <time>2024-10-02T14:26:16Z</time>
      </trkpt>
      <trkpt lat="49.32184" lon="0.02394">
        <ele>39.6</ele>
        <time>2024-10-02T14:26:17Z</time>
      </trkpt>
      <trkpt lat="49.32179" lon="0.02385">
        <ele>39.6</ele>
        <time>2024-10-02T14:26:18Z</time>
      </trkpt>
      <trkpt lat="49.32174" lon="0.02376">
        <ele>39.6</ele>
        <time>2024-10-02T14:26:19Z</time>
      </trkpt>
      <trkpt lat="49.3217" lon="0.02368">
        <ele>39.6</ele>
        <time>2024-10-02T14:26:20Z</time>
      </trkpt>
      <trkpt lat="49.32165" lon="0.02359">
        <ele>39.6</ele>
        <time>2024-10-02T14:26:21Z</time>
      </trkpt>
      <trkpt lat="49.3216" lon="0.0235">
        <ele>39.8</ele>
        <time>2024-10-02T14:26:22Z</time>
      </trkpt>
      <trkpt lat="49.32156" lon="0.02342">
        <ele>39.8</ele>
        <time>2024-10-02T14:26:23Z</time>
      </trkpt>
      <trkpt lat="49.32151" lon="0.02333">
        <ele>39.8</ele>
        <time>2024-10-02T14:26:24Z</time>
      </trkpt>
      <trkpt lat="49.32147" lon="0.02324">
        <ele>39.8</ele>
        <time>2024-10-02T14:26:25Z</time>
      </trkpt>
      <trkpt lat="49.32142" lon="0.02316">
        <ele>39.8</ele>
        <time>2024-10-02T14:26:26Z</time>
      </trkpt>
      <trkpt lat="49.32139" lon="0.02308">
        <ele>40</ele>
        <time>2024-10-02T14:26:27Z</time>
      </trkpt>
      <trkpt lat="49.32133" lon="0.02298">
        <ele>40</ele>
        <time>2024-10-02T14:26:28Z</time>
      </trkpt>
      <trkpt lat="49.32129" lon="0.02289">
        <ele>40</ele>
        <time>2024-10-02T14:26:29Z</time>
      </trkpt>
      <trkpt lat="49.32124" lon="0.0228">
        <ele>40.2</ele>
        <time>2024-10-02T14:26:30Z</time>
      </trkpt>
      <trkpt lat="49.32119" lon="0.02271">
        <ele>40.2</ele>
        <time>2024-10-02T14:26:31Z</time>
      </trkpt>
      <trkpt lat="49.32114" lon="0.02263">
        <ele>40.2</ele>
        <time>2024-10-02T14:26:32Z</time>
      </trkpt>
      <trkpt lat="49.32109" lon="0.02254">
        <ele>40.4</ele>
        <time>2024-10-02T14:26:33Z</time>
      </trkpt>
      <trkpt lat="49.32105" lon="0.02245">
        <ele>40.4</ele>
        <time>2024-10-02T14:26:34Z</time>
      </trkpt>
      <trkpt lat="49.321" lon="0.02236">
        <ele>40.4</ele>
        <time>2024-10-02T14:26:35Z</time>
      </trkpt>
      <trkpt lat="49.32097" lon="0.02229">
        <ele>40.6</ele>
        <time>2024-10-02T14:26:36Z</time>
      </trkpt>
      <trkpt lat="49.32091" lon="0.02218">
        <ele>40.6</ele>
        <time>2024-10-02T14:26:37Z</time>
      </trkpt>
      <trkpt lat="49.32087" lon="0.02209">
        <ele>40.8</ele>
        <time>2024-10-02T14:26:38Z</time>
      </trkpt>
      <trkpt lat="49.32083" lon="0.02199">
        <ele>41</ele>
        <time>2024-10-02T14:26:39Z</time>
      </trkpt>
      <trkpt lat="49.32079" lon="0.0219">
        <ele>41</ele>
        <time>2024-10-02T14:26:40Z</time>
      </trkpt>
      <trkpt lat="49.32075" lon="0.0218">
        <ele>41</ele>
        <time>2024-10-02T14:26:41Z</time>
      </trkpt>
      <trkpt lat="49.3207" lon="0.0217">
        <ele>41</ele>
        <time>2024-10-02T14:26:42Z</time>
      </trkpt>
      <trkpt lat="49.32066" lon="0.02161">
        <ele>41.4</ele>
        <time>2024-10-02T14:26:43Z</time>
      </trkpt>
      <trkpt lat="49.32063" lon="0.02153">
        <ele>41.6</ele>
        <time>2024-10-02T14:26:44Z</time>
      </trkpt>
      <trkpt lat="49.32058" lon="0.02141">
        <ele>41.6</ele>
        <time>2024-10-02T14:26:45Z</time>
      </trkpt>
      <trkpt lat="49.32054" lon="0.02131">
        <ele>41.6</ele>
        <time>2024-10-02T14:26:46Z</time>
      </trkpt>
      <trkpt lat="49.3205" lon="0.02121">
        <ele>41.8</ele>
        <time>2024-10-02T14:26:47Z</time>
      </trkpt>
      <trkpt lat="49.32045" lon="0.02111">
        <ele>41.8</ele>
        <time>2024-10-02T14:26:48Z</time>
      </trkpt>
      <trkpt lat="49.32042" lon="0.02103">
        <ele>41.8</ele>
        <time>2024-10-02T14:26:49Z</time>
      </trkpt>
      <trkpt lat="49.32037" lon="0.02092">
        <ele>41.8</ele>
        <time>2024-10-02T14:26:50Z</time>
      </trkpt>
      <trkpt lat="49.32033" lon="0.02081">
        <ele>41.8</ele>
        <time>2024-10-02T14:26:51Z</time>
      </trkpt>
      <trkpt lat="49.32029" lon="0.02071">
        <ele>42</ele>
        <time>2024-10-02T14:26:52Z</time>
      </trkpt>
      <trkpt lat="49.32025" lon="0.02061">
        <ele>42</ele>
        <time>2024-10-02T14:26:53Z</time>
      </trkpt>
      <trkpt lat="49.32021" lon="0.02051">
        <ele>42</ele>
        <time>2024-10-02T14:26:54Z</time>
      </trkpt>
      <trkpt lat="49.32017" lon="0.02041">
        <ele>42.2</ele>
        <time>2024-10-02T14:26:55Z</time>
      </trkpt>
      <trkpt lat="49.32013" lon="0.02031">
        <ele>42.4</ele>
        <time>2024-10-02T14:26:56Z</time>
      </trkpt>
      <trkpt lat="49.3201" lon="0.0202">
        <ele>42.4</ele>
        <time>2024-10-02T14:26:57Z</time>
      </trkpt>
      <trkpt lat="49.32006" lon="0.0201">
        <ele>42.4</ele>
        <time>2024-10-02T14:26:58Z</time>
      </trkpt>
      <trkpt lat="49.32003" lon="0.02">
        <ele>42.4</ele>
        <time>2024-10-02T14:26:59Z</time>
      </trkpt>
      <trkpt lat="49.31999" lon="0.01989">
        <ele>42.6</ele>
        <time>2024-10-02T14:27:00Z</time>
      </trkpt>
      <trkpt lat="49.31995" lon="0.01979">
        <ele>42.6</ele>
        <time>2024-10-02T14:27:01Z</time>
      </trkpt>
      <trkpt lat="49.31992" lon="0.01969">
        <ele>42.6</ele>
        <time>2024-10-02T14:27:02Z</time>
      </trkpt>
      <trkpt lat="49.31988" lon="0.01959">
        <ele>42.6</ele>
        <time>2024-10-02T14:27:03Z</time>
      </trkpt>
      <trkpt lat="49.31984" lon="0.01948">
        <ele>42.8</ele>
        <time>2024-10-02T14:27:04Z</time>
      </trkpt>
      <trkpt lat="49.31981" lon="0.01938">
        <ele>42.8</ele>
        <time>2024-10-02T14:27:05Z</time>
      </trkpt>
      <trkpt lat="49.31977" lon="0.01928">
        <ele>43</ele>
        <time>2024-10-02T14:27:06Z</time>
      </trkpt>
      <trkpt lat="49.31973" lon="0.01918">
        <ele>43</ele>
        <time>2024-10-02T14:27:07Z</time>
      </trkpt>
      <trkpt lat="49.31969" lon="0.01909">
        <ele>43.2</ele>
        <time>2024-10-02T14:27:08Z</time>
      </trkpt>
      <trkpt lat="49.31965" lon="0.019">
        <ele>43.2</ele>
        <time>2024-10-02T14:27:09Z</time>
      </trkpt>
      <trkpt lat="49.31962" lon="0.01892">
        <ele>43.2</ele>
        <time>2024-10-02T14:27:10Z</time>
      </trkpt>
      <trkpt lat="49.31958" lon="0.01883">
        <ele>43.4</ele>
        <time>2024-10-02T14:27:11Z</time>
      </trkpt>
      <trkpt lat="49.31953" lon="0.01872">
        <ele>43.6</ele>
        <time>2024-10-02T14:27:12Z</time>
      </trkpt>
      <trkpt lat="49.31949" lon="0.01863">
        <ele>43.6</ele>
        <time>2024-10-02T14:27:13Z</time>
      </trkpt>
      <trkpt lat="49.31945" lon="0.01854">
        <ele>43.8</ele>
        <time>2024-10-02T14:27:14Z</time>
      </trkpt>
      <trkpt lat="49.31941" lon="0.01845">
        <ele>43.8</ele>
        <time>2024-10-02T14:27:15Z</time>
      </trkpt>
      <trkpt lat="49.31937" lon="0.01837">
        <ele>43.8</ele>
        <time>2024-10-02T14:27:16Z</time>
      </trkpt>
      <trkpt lat="49.31933" lon="0.0183">
        <ele>44</ele>
        <time>2024-10-02T14:27:17Z</time>
      </trkpt>
      <trkpt lat="49.31929" lon="0.01823">
        <ele>44</ele>
        <time>2024-10-02T14:27:18Z</time>
      </trkpt>
      <trkpt lat="49.31925" lon="0.01816">
        <ele>44</ele>
        <time>2024-10-02T14:27:19Z</time>
      </trkpt>
      <trkpt lat="49.3192" lon="0.0181">
        <ele>44.2</ele>
        <time>2024-10-02T14:27:20Z</time>
      </trkpt>
      <trkpt lat="49.31916" lon="0.01805">
        <ele>44.2</ele>
        <time>2024-10-02T14:27:21Z</time>
      </trkpt>
      <trkpt lat="49.31911" lon="0.01799">
        <ele>44.2</ele>
        <time>2024-10-02T14:27:22Z</time>
      </trkpt>
      <trkpt lat="49.31906" lon="0.01793">
        <ele>44.2</ele>
        <time>2024-10-02T14:27:23Z</time>
      </trkpt>
      <trkpt lat="49.31901" lon="0.01788">
        <ele>44.4</ele>
        <time>2024-10-02T14:27:24Z</time>
      </trkpt>
      <trkpt lat="49.31896" lon="0.01784">
        <ele>44.4</ele>
        <time>2024-10-02T14:27:25Z</time>
      </trkpt>
      <trkpt lat="49.31891" lon="0.01779">
        <ele>44.6</ele>
        <time>2024-10-02T14:27:26Z</time>
      </trkpt>
      <trkpt lat="49.31885" lon="0.01775">
        <ele>44.6</ele>
        <time>2024-10-02T14:27:27Z</time>
      </trkpt>
      <trkpt lat="49.3188" lon="0.0177">
        <ele>44.8</ele>
        <time>2024-10-02T14:27:28Z</time>
      </trkpt>
      <trkpt lat="49.31874" lon="0.01766">
        <ele>45</ele>
        <time>2024-10-02T14:27:29Z</time>
      </trkpt>
      <trkpt lat="49.31868" lon="0.01761">
        <ele>45</ele>
        <time>2024-10-02T14:27:30Z</time>
      </trkpt>
      <trkpt lat="49.31862" lon="0.01757">
        <ele>45.2</ele>
        <time>2024-10-02T14:27:31Z</time>
      </trkpt>
      <trkpt lat="49.31856" lon="0.01753">
        <ele>45.2</ele>
        <time>2024-10-02T14:27:32Z</time>
      </trkpt>
      <trkpt lat="49.3185" lon="0.01749">
        <ele>45.2</ele>
        <time>2024-10-02T14:27:33Z</time>
      </trkpt>
      <trkpt lat="49.31845" lon="0.01745">
        <ele>45.2</ele>
        <time>2024-10-02T14:27:34Z</time>
      </trkpt>
      <trkpt lat="49.31839" lon="0.01741">
        <ele>45.4</ele>
        <time>2024-10-02T14:27:35Z</time>
      </trkpt>
      <trkpt lat="49.31834" lon="0.01736">
        <ele>45.6</ele>
        <time>2024-10-02T14:27:36Z</time>
      </trkpt>
      <trkpt lat="49.31829" lon="0.01732">
        <ele>45.6</ele>
        <time>2024-10-02T14:27:37Z</time>
      </trkpt>
      <trkpt lat="49.31823" lon="0.01727">
        <ele>45.8</ele>
        <time>2024-10-02T14:27:38Z</time>
      </trkpt>
      <trkpt lat="49.31818" lon="0.01723">
        <ele>46</ele>
        <time>2024-10-02T14:27:39Z</time>
      </trkpt>
      <trkpt lat="49.31812" lon="0.01718">
        <ele>46.2</ele>
        <time>2024-10-02T14:27:40Z</time>
      </trkpt>
      <trkpt lat="49.31807" lon="0.01714">
        <ele>46.2</ele>
        <time>2024-10-02T14:27:41Z</time>
      </trkpt>
      <trkpt lat="49.31802" lon="0.0171">
        <ele>46.4</ele>
        <time>2024-10-02T14:27:42Z</time>
      </trkpt>
      <trkpt lat="49.31795" lon="0.01705">
        <ele>46.6</ele>
        <time>2024-10-02T14:27:43Z</time>
      </trkpt>
      <trkpt lat="49.31789" lon="0.017">
        <ele>46.6</ele>
        <time>2024-10-02T14:27:44Z</time>
      </trkpt>
      <trkpt lat="49.31784" lon="0.01695">
        <ele>46.6</ele>
        <time>2024-10-02T14:27:45Z</time>
      </trkpt>
      <trkpt lat="49.31778" lon="0.01691">
        <ele>46.8</ele>
        <time>2024-10-02T14:27:46Z</time>
      </trkpt>
      <trkpt lat="49.31772" lon="0.01687">
        <ele>47</ele>
        <time>2024-10-02T14:27:47Z</time>
      </trkpt>
      <trkpt lat="49.31767" lon="0.01682">
        <ele>47</ele>
        <time>2024-10-02T14:27:48Z</time>
      </trkpt>
      <trkpt lat="49.31762" lon="0.01678">
        <ele>47</ele>
        <time>2024-10-02T14:27:49Z</time>
      </trkpt>
      <trkpt lat="49.31756" lon="0.01673">
        <ele>47.2</ele>
        <time>2024-10-02T14:27:50Z</time>
      </trkpt>
      <trkpt lat="49.31751" lon="0.01669">
        <ele>47.4</ele>
        <time>2024-10-02T14:27:51Z</time>
      </trkpt>
      <trkpt lat="49.31745" lon="0.01664">
        <ele>47.4</ele>
        <time>2024-10-02T14:27:52Z</time>
      </trkpt>
      <trkpt lat="49.31741" lon="0.0166">
        <ele>47.4</ele>
        <time>2024-10-02T14:27:53Z</time>
      </trkpt>
      <trkpt lat="49.31736" lon="0.01656">
        <ele>47.6</ele>
        <time>2024-10-02T14:27:54Z</time>
      </trkpt>
      <trkpt lat="49.31731" lon="0.01651">
        <ele>47.6</ele>
        <time>2024-10-02T14:27:55Z</time>
      </trkpt>
      <trkpt lat="49.31725" lon="0.01646">
        <ele>47.6</ele>
        <time>2024-10-02T14:27:56Z</time>
      </trkpt>
      <trkpt lat="49.31722" lon="0.0164">
        <ele>47.6</ele>
        <time>2024-10-02T14:27:57Z</time>
      </trkpt>
      <trkpt lat="49.31719" lon="0.01633">
        <ele>47.6</ele>
        <time>2024-10-02T14:27:58Z</time>
      </trkpt>
      <trkpt lat="49.31717" lon="0.01626">
        <ele>47.6</ele>
        <time>2024-10-02T14:27:59Z</time>
      </trkpt>
      <trkpt lat="49.31716" lon="0.01619">
        <ele>47.6</ele>
        <time>2024-10-02T14:28:00Z</time>
      </trkpt>
      <trkpt lat="49.31717" lon="0.01613">
        <ele>47.6</ele>
        <time>2024-10-02T14:28:01Z</time>
      </trkpt>
      <trkpt lat="49.31718" lon="0.01603">
        <ele>47.8</ele>
        <time>2024-10-02T14:28:02Z</time>
      </trkpt>
      <trkpt lat="49.31719" lon="0.01596">
        <ele>47.8</ele>
        <time>2024-10-02T14:28:03Z</time>
      </trkpt>
      <trkpt lat="49.31721" lon="0.01588">
        <ele>47.8</ele>
        <time>2024-10-02T14:28:04Z</time>
      </trkpt>
      <trkpt lat="49.31723" lon="0.0158">
        <ele>47.8</ele>
        <time>2024-10-02T14:28:05Z</time>
      </trkpt>
      <trkpt lat="49.31725" lon="0.01571">
        <ele>47.8</ele>
        <time>2024-10-02T14:28:06Z</time>
      </trkpt>
      <trkpt lat="49.31727" lon="0.01563">
        <ele>47.8</ele>
        <time>2024-10-02T14:28:07Z</time>
      </trkpt>
      <trkpt lat="49.3173" lon="0.01555">
        <ele>47.8</ele>
        <time>2024-10-02T14:28:08Z</time>
      </trkpt>
      <trkpt lat="49.31733" lon="0.01547">
        <ele>47.8</ele>
        <time>2024-10-02T14:28:09Z</time>
      </trkpt>
      <trkpt lat="49.31735" lon="0.01539">
        <ele>47.8</ele>
        <time>2024-10-02T14:28:10Z</time>
      </trkpt>
      <trkpt lat="49.31738" lon="0.01531">
        <ele>47.8</ele>
        <time>2024-10-02T14:28:11Z</time>
      </trkpt>
      <trkpt lat="49.31741" lon="0.01523">
        <ele>47.8</ele>
        <time>2024-10-02T14:28:12Z</time>
      </trkpt>
      <trkpt lat="49.31743" lon="0.01514">
        <ele>47.8</ele>
        <time>2024-10-02T14:28:13Z</time>
      </trkpt>
      <trkpt lat="49.31745" lon="0.01508">
        <ele>47.8</ele>
        <time>2024-10-02T14:28:14Z</time>
      </trkpt>
      <trkpt lat="49.31747" lon="0.01499">
        <ele>47.8</ele>
        <time>2024-10-02T14:28:15Z</time>
      </trkpt>
      <trkpt lat="49.31751" lon="0.01489">
        <ele>47.8</ele>
        <time>2024-10-02T14:28:16Z</time>
      </trkpt>
      <trkpt lat="49.31753" lon="0.0148">
        <ele>47.8</ele>
        <time>2024-10-02T14:28:17Z</time>
      </trkpt>
      <trkpt lat="49.31757" lon="0.0147">
        <ele>47.8</ele>
        <time>2024-10-02T14:28:18Z</time>
      </trkpt>
      <trkpt lat="49.31759" lon="0.0146">
        <ele>47.8</ele>
        <time>2024-10-02T14:28:19Z</time>
      </trkpt>
      <trkpt lat="49.31762" lon="0.01449">
        <ele>47.6</ele>
        <time>2024-10-02T14:28:20Z</time>
      </trkpt>
      <trkpt lat="49.31763" lon="0.01438">
        <ele>47.4</ele>
        <time>2024-10-02T14:28:21Z</time>
      </trkpt>
      <trkpt lat="49.31763" lon="0.01427">
        <ele>47.4</ele>
        <time>2024-10-02T14:28:22Z</time>
      </trkpt>
      <trkpt lat="49.31762" lon="0.01417">
        <ele>47.4</ele>
        <time>2024-10-02T14:28:23Z</time>
      </trkpt>
      <trkpt lat="49.3176" lon="0.01406">
        <ele>47</ele>
        <time>2024-10-02T14:28:24Z</time>
      </trkpt>
      <trkpt lat="49.31758" lon="0.01391">
        <ele>47</ele>
        <time>2024-10-02T14:28:25Z</time>
      </trkpt>
      <trkpt lat="49.31757" lon="0.01381">
        <ele>46.6</ele>
        <time>2024-10-02T14:28:26Z</time>
      </trkpt>
      <trkpt lat="49.31754" lon="0.01366">
        <ele>46.2</ele>
        <time>2024-10-02T14:28:27Z</time>
      </trkpt>
      <trkpt lat="49.31752" lon="0.01354">
        <ele>46.2</ele>
        <time>2024-10-02T14:28:28Z</time>
      </trkpt>
      <trkpt lat="49.3175" lon="0.01341">
        <ele>45.8</ele>
        <time>2024-10-02T14:28:29Z</time>
      </trkpt>
      <trkpt lat="49.31747" lon="0.01329">
        <ele>45.4</ele>
        <time>2024-10-02T14:28:30Z</time>
      </trkpt>
      <trkpt lat="49.31745" lon="0.01317">
        <ele>45</ele>
        <time>2024-10-02T14:28:31Z</time>
      </trkpt>
      <trkpt lat="49.31743" lon="0.01304">
        <ele>44.4</ele>
        <time>2024-10-02T14:28:32Z</time>
      </trkpt>
      <trkpt lat="49.31741" lon="0.01291">
        <ele>44</ele>
        <time>2024-10-02T14:28:33Z</time>
      </trkpt>
      <trkpt lat="49.3174" lon="0.01278">
        <ele>43.2</ele>
        <time>2024-10-02T14:28:34Z</time>
      </trkpt>
      <trkpt lat="49.31738" lon="0.01264">
        <ele>42.4</ele>
        <time>2024-10-02T14:28:35Z</time>
      </trkpt>
      <trkpt lat="49.31737" lon="0.01252">
        <ele>42</ele>
        <time>2024-10-02T14:28:36Z</time>
      </trkpt>
      <trkpt lat="49.31736" lon="0.01238">
        <ele>41.4</ele>
        <time>2024-10-02T14:28:37Z</time>
      </trkpt>
      <trkpt lat="49.31736" lon="0.01224">
        <ele>41.2</ele>
        <time>2024-10-02T14:28:38Z</time>
      </trkpt>
      <trkpt lat="49.31735" lon="0.01207">
        <ele>41</ele>
        <time>2024-10-02T14:28:39Z</time>
      </trkpt>
      <trkpt lat="49.31735" lon="0.01194">
        <ele>40.8</ele>
        <time>2024-10-02T14:28:40Z</time>
      </trkpt>
      <trkpt lat="49.31734" lon="0.01182">
        <ele>40.8</ele>
        <time>2024-10-02T14:28:41Z</time>
      </trkpt>
      <trkpt lat="49.31734" lon="0.01171">
        <ele>40.6</ele>
        <time>2024-10-02T14:28:42Z</time>
      </trkpt>
      <trkpt lat="49.31733" lon="0.0116">
        <ele>40.2</ele>
        <time>2024-10-02T14:28:43Z</time>
      </trkpt>
      <trkpt lat="49.31732" lon="0.0115">
        <ele>40</ele>
        <time>2024-10-02T14:28:44Z</time>
      </trkpt>
      <trkpt lat="49.3173" lon="0.01141">
        <ele>39.2</ele>
        <time>2024-10-02T14:28:45Z</time>
      </trkpt>
      <trkpt lat="49.31728" lon="0.01132">
        <ele>38.6</ele>
        <time>2024-10-02T14:28:46Z</time>
      </trkpt>
      <trkpt lat="49.31724" lon="0.01123">
        <ele>37.8</ele>
        <time>2024-10-02T14:28:47Z</time>
      </trkpt>
      <trkpt lat="49.3172" lon="0.01116">
        <ele>36.8</ele>
        <time>2024-10-02T14:28:48Z</time>
      </trkpt>
      <trkpt lat="49.31716" lon="0.01108">
        <ele>36.2</ele>
        <time>2024-10-02T14:28:49Z</time>
      </trkpt>
      <trkpt lat="49.31712" lon="0.01103">
        <ele>36.2</ele>
        <time>2024-10-02T14:28:50Z</time>
      </trkpt>
      <trkpt lat="49.31706" lon="0.01096">
        <ele>35.8</ele>
        <time>2024-10-02T14:28:51Z</time>
      </trkpt>
      <trkpt lat="49.31702" lon="0.0109">
        <ele>35.6</ele>
        <time>2024-10-02T14:28:52Z</time>
      </trkpt>
      <trkpt lat="49.31697" lon="0.01084">
        <ele>35.6</ele>
        <time>2024-10-02T14:28:53Z</time>
      </trkpt>
      <trkpt lat="49.31693" lon="0.01077">
        <ele>35.6</ele>
        <time>2024-10-02T14:28:54Z</time>
      </trkpt>
      <trkpt lat="49.31688" lon="0.0107">
        <ele>35.6</ele>
        <time>2024-10-02T14:28:55Z</time>
      </trkpt>
      <trkpt lat="49.31684" lon="0.01064">
        <ele>35.6</ele>
        <time>2024-10-02T14:28:56Z</time>
      </trkpt>
      <trkpt lat="49.31679" lon="0.01057">
        <ele>35.6</ele>
        <time>2024-10-02T14:28:57Z</time>
      </trkpt>
      <trkpt lat="49.31676" lon="0.01053">
        <ele>35.6</ele>
        <time>2024-10-02T14:28:58Z</time>
      </trkpt>
      <trkpt lat="49.31671" lon="0.01046">
        <ele>35.6</ele>
        <time>2024-10-02T14:28:59Z</time>
      </trkpt>
      <trkpt lat="49.31666" lon="0.0104">
        <ele>35.6</ele>
        <time>2024-10-02T14:29:00Z</time>
      </trkpt>
      <trkpt lat="49.31662" lon="0.01033">
        <ele>35.6</ele>
        <time>2024-10-02T14:29:01Z</time>
      </trkpt>
      <trkpt lat="49.31657" lon="0.01026">
        <ele>35.8</ele>
        <time>2024-10-02T14:29:02Z</time>
      </trkpt>
      <trkpt lat="49.31652" lon="0.01019">
        <ele>36</ele>
        <time>2024-10-02T14:29:03Z</time>
      </trkpt>
      <trkpt lat="49.31648" lon="0.01012">
        <ele>36</ele>
        <time>2024-10-02T14:29:04Z</time>
      </trkpt>
      <trkpt lat="49.31643" lon="0.01005">
        <ele>36</ele>
        <time>2024-10-02T14:29:05Z</time>
      </trkpt>
      <trkpt lat="49.31637" lon="0.00997">
        <ele>36</ele>
        <time>2024-10-02T14:29:06Z</time>
      </trkpt>
      <trkpt lat="49.31632" lon="0.00991">
        <ele>36.2</ele>
        <time>2024-10-02T14:29:07Z</time>
      </trkpt>
      <trkpt lat="49.31626" lon="0.00984">
        <ele>36.2</ele>
        <time>2024-10-02T14:29:08Z</time>
      </trkpt>
      <trkpt lat="49.31621" lon="0.00977">
        <ele>36.2</ele>
        <time>2024-10-02T14:29:09Z</time>
      </trkpt>
      <trkpt lat="49.31616" lon="0.00972">
        <ele>36.2</ele>
        <time>2024-10-02T14:29:10Z</time>
      </trkpt>
      <trkpt lat="49.31609" lon="0.00965">
        <ele>36.2</ele>
        <time>2024-10-02T14:29:11Z</time>
      </trkpt>
      <trkpt lat="49.31603" lon="0.00959">
        <ele>36.2</ele>
        <time>2024-10-02T14:29:12Z</time>
      </trkpt>
      <trkpt lat="49.31598" lon="0.00954">
        <ele>36.2</ele>
        <time>2024-10-02T14:29:13Z</time>
      </trkpt>
      <trkpt lat="49.31592" lon="0.00949">
        <ele>36.2</ele>
        <time>2024-10-02T14:29:14Z</time>
      </trkpt>
      <trkpt lat="49.31585" lon="0.00944">
        <ele>36.2</ele>
        <time>2024-10-02T14:29:15Z</time>
      </trkpt>
      <trkpt lat="49.3158" lon="0.00941">
        <ele>36.2</ele>
        <time>2024-10-02T14:29:16Z</time>
      </trkpt>
      <trkpt lat="49.31572" lon="0.00935">
        <ele>36.2</ele>
        <time>2024-10-02T14:29:17Z</time>
      </trkpt>
      <trkpt lat="49.31565" lon="0.00929">
        <ele>36</ele>
        <time>2024-10-02T14:29:18Z</time>
      </trkpt>
      <trkpt lat="49.3156" lon="0.00924">
        <ele>36</ele>
        <time>2024-10-02T14:29:19Z</time>
      </trkpt>
      <trkpt lat="49.31553" lon="0.00917">
        <ele>36</ele>
        <time>2024-10-02T14:29:20Z</time>
      </trkpt>
      <trkpt lat="49.31546" lon="0.0091">
        <ele>36</ele>
        <time>2024-10-02T14:29:21Z</time>
      </trkpt>
      <trkpt lat="49.3154" lon="0.00903">
        <ele>35.8</ele>
        <time>2024-10-02T14:29:22Z</time>
      </trkpt>
      <trkpt lat="49.31531" lon="0.00894">
        <ele>35.6</ele>
        <time>2024-10-02T14:29:23Z</time>
      </trkpt>
      <trkpt lat="49.31524" lon="0.00886">
        <ele>35.2</ele>
        <time>2024-10-02T14:29:24Z</time>
      </trkpt>
      <trkpt lat="49.31518" lon="0.00876">
        <ele>34.8</ele>
        <time>2024-10-02T14:29:25Z</time>
      </trkpt>
      <trkpt lat="49.31512" lon="0.00866">
        <ele>34.4</ele>
        <time>2024-10-02T14:29:26Z</time>
      </trkpt>
      <trkpt lat="49.31506" lon="0.00854">
        <ele>34.2</ele>
        <time>2024-10-02T14:29:27Z</time>
      </trkpt>
      <trkpt lat="49.31502" lon="0.0084">
        <ele>33.6</ele>
        <time>2024-10-02T14:29:28Z</time>
      </trkpt>
      <trkpt lat="49.31498" lon="0.00826">
        <ele>33.2</ele>
        <time>2024-10-02T14:29:29Z</time>
      </trkpt>
      <trkpt lat="49.31496" lon="0.00815">
        <ele>33</ele>
        <time>2024-10-02T14:29:30Z</time>
      </trkpt>
      <trkpt lat="49.31494" lon="0.00797">
        <ele>32.8</ele>
        <time>2024-10-02T14:29:31Z</time>
      </trkpt>
      <trkpt lat="49.31493" lon="0.00782">
        <ele>32.6</ele>
        <time>2024-10-02T14:29:32Z</time>
      </trkpt>
      <trkpt lat="49.31494" lon="0.00769">
        <ele>32.6</ele>
        <time>2024-10-02T14:29:33Z</time>
      </trkpt>
      <trkpt lat="49.31494" lon="0.00749">
        <ele>32.4</ele>
        <time>2024-10-02T14:29:34Z</time>
      </trkpt>
      <trkpt lat="49.31496" lon="0.00733">
        <ele>32</ele>
        <time>2024-10-02T14:29:35Z</time>
      </trkpt>
      <trkpt lat="49.31497" lon="0.00716">
        <ele>31.8</ele>
        <time>2024-10-02T14:29:36Z</time>
      </trkpt>
      <trkpt lat="49.31499" lon="0.00699">
        <ele>31</ele>
        <time>2024-10-02T14:29:37Z</time>
      </trkpt>
      <trkpt lat="49.31501" lon="0.00683">
        <ele>30</ele>
        <time>2024-10-02T14:29:38Z</time>
      </trkpt>
      <trkpt lat="49.31502" lon="0.00667">
        <ele>29.2</ele>
        <time>2024-10-02T14:29:39Z</time>
      </trkpt>
      <trkpt lat="49.31504" lon="0.00652">
        <ele>28.4</ele>
        <time>2024-10-02T14:29:40Z</time>
      </trkpt>
      <trkpt lat="49.31506" lon="0.00637">
        <ele>27.8</ele>
        <time>2024-10-02T14:29:41Z</time>
      </trkpt>
      <trkpt lat="49.31508" lon="0.00621">
        <ele>27.4</ele>
        <time>2024-10-02T14:29:42Z</time>
      </trkpt>
      <trkpt lat="49.31511" lon="0.00605">
        <ele>27.2</ele>
        <time>2024-10-02T14:29:43Z</time>
      </trkpt>
      <trkpt lat="49.31515" lon="0.0059">
        <ele>26.6</ele>
        <time>2024-10-02T14:29:44Z</time>
      </trkpt>
      <trkpt lat="49.3152" lon="0.00575">
        <ele>26</ele>
        <time>2024-10-02T14:29:45Z</time>
      </trkpt>
      <trkpt lat="49.31526" lon="0.00561">
        <ele>25.2</ele>
        <time>2024-10-02T14:29:46Z</time>
      </trkpt>
      <trkpt lat="49.31532" lon="0.00547">
        <ele>24.4</ele>
        <time>2024-10-02T14:29:47Z</time>
      </trkpt>
      <trkpt lat="49.31539" lon="0.00535">
        <ele>23</ele>
        <time>2024-10-02T14:29:48Z</time>
      </trkpt>
      <trkpt lat="49.31546" lon="0.00524">
        <ele>22</ele>
        <time>2024-10-02T14:29:49Z</time>
      </trkpt>
      <trkpt lat="49.31555" lon="0.00514">
        <ele>21.2</ele>
        <time>2024-10-02T14:29:50Z</time>
      </trkpt>
      <trkpt lat="49.31563" lon="0.00506">
        <ele>20.4</ele>
        <time>2024-10-02T14:29:51Z</time>
      </trkpt>
      <trkpt lat="49.31572" lon="0.005">
        <ele>19.6</ele>
        <time>2024-10-02T14:29:52Z</time>
      </trkpt>
      <trkpt lat="49.31582" lon="0.00496">
        <ele>18.8</ele>
        <time>2024-10-02T14:29:53Z</time>
      </trkpt>
      <trkpt lat="49.31591" lon="0.00492">
        <ele>17.8</ele>
        <time>2024-10-02T14:29:54Z</time>
      </trkpt>
      <trkpt lat="49.316" lon="0.00487">
        <ele>17.8</ele>
        <time>2024-10-02T14:29:55Z</time>
      </trkpt>
      <trkpt lat="49.31608" lon="0.00483">
        <ele>16.8</ele>
        <time>2024-10-02T14:29:56Z</time>
      </trkpt>
      <trkpt lat="49.31616" lon="0.0048">
        <ele>16.4</ele>
        <time>2024-10-02T14:29:57Z</time>
      </trkpt>
      <trkpt lat="49.31624" lon="0.00476">
        <ele>16</ele>
        <time>2024-10-02T14:29:58Z</time>
      </trkpt>
      <trkpt lat="49.3163" lon="0.00472">
        <ele>15.6</ele>
        <time>2024-10-02T14:29:59Z</time>
      </trkpt>
      <trkpt lat="49.31639" lon="0.00465">
        <ele>15.6</ele>
        <time>2024-10-02T14:30:00Z</time>
      </trkpt>
      <trkpt lat="49.31645" lon="0.00459">
        <ele>15.4</ele>
        <time>2024-10-02T14:30:01Z</time>
      </trkpt>
      <trkpt lat="49.3165" lon="0.00454">
        <ele>15.4</ele>
        <time>2024-10-02T14:30:02Z</time>
      </trkpt>
      <trkpt lat="49.31656" lon="0.00448">
        <ele>15.2</ele>
        <time>2024-10-02T14:30:03Z</time>
      </trkpt>
      <trkpt lat="49.31663" lon="0.0044">
        <ele>15.2</ele>
        <time>2024-10-02T14:30:04Z</time>
      </trkpt>
      <trkpt lat="49.31668" lon="0.00435">
        <ele>15.2</ele>
        <time>2024-10-02T14:30:05Z</time>
      </trkpt>
      <trkpt lat="49.31674" lon="0.00429">
        <ele>15</ele>
        <time>2024-10-02T14:30:06Z</time>
      </trkpt>
      <trkpt lat="49.31679" lon="0.00423">
        <ele>15</ele>
        <time>2024-10-02T14:30:07Z</time>
      </trkpt>
      <trkpt lat="49.31685" lon="0.00418">
        <ele>15</ele>
        <time>2024-10-02T14:30:08Z</time>
      </trkpt>
      <trkpt lat="49.31691" lon="0.00413">
        <ele>14.8</ele>
        <time>2024-10-02T14:30:09Z</time>
      </trkpt>
      <trkpt lat="49.31696" lon="0.00409">
        <ele>14.6</ele>
        <time>2024-10-02T14:30:10Z</time>
      </trkpt>
      <trkpt lat="49.31701" lon="0.00405">
        <ele>14.4</ele>
        <time>2024-10-02T14:30:11Z</time>
      </trkpt>
      <trkpt lat="49.31707" lon="0.00399">
        <ele>14.2</ele>
        <time>2024-10-02T14:30:12Z</time>
      </trkpt>
      <trkpt lat="49.31711" lon="0.00396">
        <ele>14.2</ele>
        <time>2024-10-02T14:30:13Z</time>
      </trkpt>
      <trkpt lat="49.31716" lon="0.00392">
        <ele>14.2</ele>
        <time>2024-10-02T14:30:14Z</time>
      </trkpt>
      <trkpt lat="49.31723" lon="0.00387">
        <ele>14.2</ele>
        <time>2024-10-02T14:30:15Z</time>
      </trkpt>
      <trkpt lat="49.31729" lon="0.00383">
        <ele>14.2</ele>
        <time>2024-10-02T14:30:16Z</time>
      </trkpt>
      <trkpt lat="49.31733" lon="0.0038">
        <ele>14.2</ele>
        <time>2024-10-02T14:30:17Z</time>
      </trkpt>
      <trkpt lat="49.31741" lon="0.00374">
        <ele>14.4</ele>
        <time>2024-10-02T14:30:18Z</time>
      </trkpt>
      <trkpt lat="49.31747" lon="0.0037">
        <ele>14.4</ele>
        <time>2024-10-02T14:30:19Z</time>
      </trkpt>
      <trkpt lat="49.31752" lon="0.00367">
        <ele>14.6</ele>
        <time>2024-10-02T14:30:20Z</time>
      </trkpt>
      <trkpt lat="49.31759" lon="0.00362">
        <ele>14.6</ele>
        <time>2024-10-02T14:30:21Z</time>
      </trkpt>
      <trkpt lat="49.31765" lon="0.00358">
        <ele>14.6</ele>
        <time>2024-10-02T14:30:22Z</time>
      </trkpt>
      <trkpt lat="49.3177" lon="0.00355">
        <ele>14.6</ele>
        <time>2024-10-02T14:30:23Z</time>
      </trkpt>
      <trkpt lat="49.31776" lon="0.00351">
        <ele>14.6</ele>
        <time>2024-10-02T14:30:24Z</time>
      </trkpt>
      <trkpt lat="49.31782" lon="0.00347">
        <ele>14.4</ele>
        <time>2024-10-02T14:30:25Z</time>
      </trkpt>
      <trkpt lat="49.31788" lon="0.00342">
        <ele>14.4</ele>
        <time>2024-10-02T14:30:26Z</time>
      </trkpt>
      <trkpt lat="49.31795" lon="0.00337">
        <ele>14.4</ele>
        <time>2024-10-02T14:30:27Z</time>
      </trkpt>
      <trkpt lat="49.318" lon="0.00333">
        <ele>14.4</ele>
        <time>2024-10-02T14:30:28Z</time>
      </trkpt>
      <trkpt lat="49.31805" lon="0.0033">
        <ele>14.4</ele>
        <time>2024-10-02T14:30:29Z</time>
      </trkpt>
      <trkpt lat="49.31811" lon="0.00325">
        <ele>14.6</ele>
        <time>2024-10-02T14:30:30Z</time>
      </trkpt>
      <trkpt lat="49.31816" lon="0.00321">
        <ele>14.6</ele>
        <time>2024-10-02T14:30:31Z</time>
      </trkpt>
      <trkpt lat="49.3182" lon="0.00318">
        <ele>14.6</ele>
        <time>2024-10-02T14:30:32Z</time>
      </trkpt>
      <trkpt lat="49.31826" lon="0.00314">
        <ele>14.6</ele>
        <time>2024-10-02T14:30:33Z</time>
      </trkpt>
      <trkpt lat="49.3183" lon="0.00311">
        <ele>14.6</ele>
        <time>2024-10-02T14:30:34Z</time>
      </trkpt>
      <trkpt lat="49.31835" lon="0.00307">
        <ele>14.6</ele>
        <time>2024-10-02T14:30:35Z</time>
      </trkpt>
      <trkpt lat="49.3184" lon="0.00303">
        <ele>14.6</ele>
        <time>2024-10-02T14:30:36Z</time>
      </trkpt>
      <trkpt lat="49.31844" lon="0.00299">
        <ele>14.6</ele>
        <time>2024-10-02T14:30:37Z</time>
      </trkpt>
      <trkpt lat="49.31847" lon="0.00296">
        <ele>14.6</ele>
        <time>2024-10-02T14:30:38Z</time>
      </trkpt>
      <trkpt lat="49.31851" lon="0.00291">
        <ele>14.6</ele>
        <time>2024-10-02T14:30:39Z</time>
      </trkpt>
      <trkpt lat="49.31853" lon="0.00287">
        <ele>14.6</ele>
        <time>2024-10-02T14:30:40Z</time>
      </trkpt>
      <trkpt lat="49.31854" lon="0.00283">
        <ele>15</ele>
        <time>2024-10-02T14:30:41Z</time>
      </trkpt>
      <trkpt lat="49.31854" lon="0.00276">
        <ele>15</ele>
        <time>2024-10-02T14:30:42Z</time>
      </trkpt>
      <trkpt lat="49.31854" lon="0.00272">
        <ele>15</ele>
        <time>2024-10-02T14:30:43Z</time>
      </trkpt>
      <trkpt lat="49.31853" lon="0.00268">
        <ele>15.2</ele>
        <time>2024-10-02T14:30:44Z</time>
      </trkpt>
      <trkpt lat="49.31852" lon="0.00263">
        <ele>15.2</ele>
        <time>2024-10-02T14:30:45Z</time>
      </trkpt>
      <trkpt lat="49.31851" lon="0.0026">
        <ele>15.4</ele>
        <time>2024-10-02T14:30:46Z</time>
      </trkpt>
      <trkpt lat="49.31849" lon="0.00256">
        <ele>15.4</ele>
        <time>2024-10-02T14:30:47Z</time>
      </trkpt>
      <trkpt lat="49.31848" lon="0.00251">
        <ele>15.6</ele>
        <time>2024-10-02T14:30:48Z</time>
      </trkpt>
      <trkpt lat="49.31847" lon="0.00247">
        <ele>15.6</ele>
        <time>2024-10-02T14:30:49Z</time>
      </trkpt>
      <trkpt lat="49.31845" lon="0.00244">
        <ele>15.6</ele>
        <time>2024-10-02T14:30:50Z</time>
      </trkpt>
      <trkpt lat="49.31844" lon="0.00239">
        <ele>15.6</ele>
        <time>2024-10-02T14:30:51Z</time>
      </trkpt>
      <trkpt lat="49.31842" lon="0.00235">
        <ele>15.8</ele>
        <time>2024-10-02T14:30:52Z</time>
      </trkpt>
      <trkpt lat="49.31841" lon="0.00232">
        <ele>16</ele>
        <time>2024-10-02T14:30:53Z</time>
      </trkpt>
      <trkpt lat="49.31839" lon="0.00227">
        <ele>16.4</ele>
        <time>2024-10-02T14:30:54Z</time>
      </trkpt>
      <trkpt lat="49.31838" lon="0.00223">
        <ele>16.8</ele>
        <time>2024-10-02T14:30:55Z</time>
      </trkpt>
      <trkpt lat="49.31837" lon="0.0022">
        <ele>17</ele>
        <time>2024-10-02T14:30:56Z</time>
      </trkpt>
      <trkpt lat="49.31835" lon="0.00216">
        <ele>17.4</ele>
        <time>2024-10-02T14:30:57Z</time>
      </trkpt>
      <trkpt lat="49.31834" lon="0.00212">
        <ele>17.8</ele>
        <time>2024-10-02T14:30:58Z</time>
      </trkpt>
      <trkpt lat="49.31833" lon="0.00208">
        <ele>17.8</ele>
        <time>2024-10-02T14:30:59Z</time>
      </trkpt>
      <trkpt lat="49.31831" lon="0.00204">
        <ele>18</ele>
        <time>2024-10-02T14:31:00Z</time>
      </trkpt>
      <trkpt lat="49.3183" lon="0.002">
        <ele>18.4</ele>
        <time>2024-10-02T14:31:01Z</time>
      </trkpt>
      <trkpt lat="49.31829" lon="0.00197">
        <ele>18.8</ele>
        <time>2024-10-02T14:31:02Z</time>
      </trkpt>
      <trkpt lat="49.31827" lon="0.00192">
        <ele>19</ele>
        <time>2024-10-02T14:31:03Z</time>
      </trkpt>
      <trkpt lat="49.31826" lon="0.00189">
        <ele>19.4</ele>
        <time>2024-10-02T14:31:04Z</time>
      </trkpt>
      <trkpt lat="49.31825" lon="0.00186">
        <ele>19.4</ele>
        <time>2024-10-02T14:31:05Z</time>
      </trkpt>
      <trkpt lat="49.31824" lon="0.00182">
        <ele>19.8</ele>
        <time>2024-10-02T14:31:06Z</time>
      </trkpt>
      <trkpt lat="49.31823" lon="0.00179">
        <ele>19.8</ele>
        <time>2024-10-02T14:31:07Z</time>
      </trkpt>
      <trkpt lat="49.31822" lon="0.00175">
        <ele>20</ele>
        <time>2024-10-02T14:31:08Z</time>
      </trkpt>
      <trkpt lat="49.31821" lon="0.0017">
        <ele>20.2</ele>
        <time>2024-10-02T14:31:09Z</time>
      </trkpt>
      <trkpt lat="49.3182" lon="0.00166">
        <ele>20.6</ele>
        <time>2024-10-02T14:31:10Z</time>
      </trkpt>
      <trkpt lat="49.31819" lon="0.00163">
        <ele>20.8</ele>
        <time>2024-10-02T14:31:11Z</time>
      </trkpt>
      <trkpt lat="49.31818" lon="0.00159">
        <ele>21.2</ele>
        <time>2024-10-02T14:31:12Z</time>
      </trkpt>
      <trkpt lat="49.31817" lon="0.00156">
        <ele>21.4</ele>
        <time>2024-10-02T14:31:13Z</time>
      </trkpt>
      <trkpt lat="49.31816" lon="0.00152">
        <ele>21.8</ele>
        <time>2024-10-02T14:31:14Z</time>
      </trkpt>
      <trkpt lat="49.31815" lon="0.00148">
        <ele>22</ele>
        <time>2024-10-02T14:31:15Z</time>
      </trkpt>
      <trkpt lat="49.31814" lon="0.00145">
        <ele>22.2</ele>
        <time>2024-10-02T14:31:16Z</time>
      </trkpt>
      <trkpt lat="49.31813" lon="0.00142">
        <ele>22.4</ele>
        <time>2024-10-02T14:31:17Z</time>
      </trkpt>
      <trkpt lat="49.31812" lon="0.00137">
        <ele>22.6</ele>
        <time>2024-10-02T14:31:18Z</time>
      </trkpt>
      <trkpt lat="49.31811" lon="0.00134">
        <ele>23</ele>
        <time>2024-10-02T14:31:19Z</time>
      </trkpt>
      <trkpt lat="49.3181" lon="0.00131">
        <ele>23.2</ele>
        <time>2024-10-02T14:31:20Z</time>
      </trkpt>
      <trkpt lat="49.31809" lon="0.00126">
        <ele>23.2</ele>
        <time>2024-10-02T14:31:21Z</time>
      </trkpt>
      <trkpt lat="49.31808" lon="0.00123">
        <ele>23.6</ele>
        <time>2024-10-02T14:31:22Z</time>
      </trkpt>
      <trkpt lat="49.31807" lon="0.0012">
        <ele>24</ele>
        <time>2024-10-02T14:31:23Z</time>
      </trkpt>
      <trkpt lat="49.31806" lon="0.00115">
        <ele>24.6</ele>
        <time>2024-10-02T14:31:24Z</time>
      </trkpt>
      <trkpt lat="49.31804" lon="0.00112">
        <ele>24.8</ele>
        <time>2024-10-02T14:31:25Z</time>
      </trkpt>
      <trkpt lat="49.31803" lon="0.00109">
        <ele>25.2</ele>
        <time>2024-10-02T14:31:26Z</time>
      </trkpt>
      <trkpt lat="49.31802" lon="0.00106">
        <ele>25.6</ele>
        <time>2024-10-02T14:31:27Z</time>
      </trkpt>
      <trkpt lat="49.31801" lon="0.00103">
        <ele>25.8</ele>
        <time>2024-10-02T14:31:28Z</time>
      </trkpt>
      <trkpt lat="49.318" lon="0.001">
        <ele>26</ele>
        <time>2024-10-02T14:31:29Z</time>
      </trkpt>
      <trkpt lat="49.31798" lon="0.00096">
        <ele>26.2</ele>
        <time>2024-10-02T14:31:30Z</time>
      </trkpt>
      <trkpt lat="49.31797" lon="0.00093">
        <ele>26.4</ele>
        <time>2024-10-02T14:31:31Z</time>
      </trkpt>
      <trkpt lat="49.31796" lon="0.00091">
        <ele>26.8</ele>
        <time>2024-10-02T14:31:32Z</time>
      </trkpt>
      <trkpt lat="49.31795" lon="0.00088">
        <ele>27</ele>
        <time>2024-10-02T14:31:33Z</time>
      </trkpt>
      <trkpt lat="49.31793" lon="0.00086">
        <ele>27.4</ele>
        <time>2024-10-02T14:31:34Z</time>
      </trkpt>
      <trkpt lat="49.31792" lon="0.00083">
        <ele>27.8</ele>
        <time>2024-10-02T14:31:35Z</time>
      </trkpt>
      <trkpt lat="49.31791" lon="0.0008">
        <ele>27.8</ele>
        <time>2024-10-02T14:31:36Z</time>
      </trkpt>
      <trkpt lat="49.31789" lon="0.00078">
        <ele>28.2</ele>
        <time>2024-10-02T14:31:37Z</time>
      </trkpt>
      <trkpt lat="49.31788" lon="0.00076">
        <ele>28.6</ele>
        <time>2024-10-02T14:31:38Z</time>
      </trkpt>
      <trkpt lat="49.31787" lon="0.00074">
        <ele>29</ele>
        <time>2024-10-02T14:31:39Z</time>
      </trkpt>
      <trkpt lat="49.31785" lon="0.00071">
        <ele>29.2</ele>
        <time>2024-10-02T14:31:40Z</time>
      </trkpt>
      <trkpt lat="49.31784" lon="0.00069">
        <ele>29.6</ele>
        <time>2024-10-02T14:31:41Z</time>
      </trkpt>
      <trkpt lat="49.31782" lon="0.00066">
        <ele>30</ele>
        <time>2024-10-02T14:31:42Z</time>
      </trkpt>
      <trkpt lat="49.31781" lon="0.00064">
        <ele>30</ele>
        <time>2024-10-02T14:31:43Z</time>
      </trkpt>
      <trkpt lat="49.3178" lon="0.00062">
        <ele>30.2</ele>
        <time>2024-10-02T14:31:44Z</time>
      </trkpt>
      <trkpt lat="49.31779" lon="0.0006">
        <ele>30.6</ele>
        <time>2024-10-02T14:31:45Z</time>
      </trkpt>
      <trkpt lat="49.31778" lon="0.00058">
        <ele>30.8</ele>
        <time>2024-10-02T14:31:46Z</time>
      </trkpt>
      <trkpt lat="49.31777" lon="0.00056">
        <ele>31.2</ele>
        <time>2024-10-02T14:31:47Z</time>
      </trkpt>
      <trkpt lat="49.31775" lon="0.00052">
        <ele>31.4</ele>
        <time>2024-10-02T14:31:48Z</time>
      </trkpt>
      <trkpt lat="49.31775" lon="0.00049">
        <ele>31.6</ele>
        <time>2024-10-02T14:31:49Z</time>
      </trkpt>
      <trkpt lat="49.31774" lon="0.00047">
        <ele>32</ele>
        <time>2024-10-02T14:31:50Z</time>
      </trkpt>
      <trkpt lat="49.31773" lon="0.00044">
        <ele>32.2</ele>
        <time>2024-10-02T14:31:51Z</time>
      </trkpt>
      <trkpt lat="49.31772" lon="0.00041">
        <ele>32.6</ele>
        <time>2024-10-02T14:31:52Z</time>
      </trkpt>
      <trkpt lat="49.31771" lon="0.00039">
        <ele>32.8</ele>
        <time>2024-10-02T14:31:53Z</time>
      </trkpt>
      <trkpt lat="49.31769" lon="0.00036">
        <ele>33.2</ele>
        <time>2024-10-02T14:31:54Z</time>
      </trkpt>
      <trkpt lat="49.31767" lon="0.00034">
        <ele>33.6</ele>
        <time>2024-10-02T14:31:55Z</time>
      </trkpt>
      <trkpt lat="49.31766" lon="0.00032">
        <ele>34</ele>
        <time>2024-10-02T14:31:56Z</time>
      </trkpt>
      <trkpt lat="49.31764" lon="0.0003">
        <ele>34.4</ele>
        <time>2024-10-02T14:31:57Z</time>
      </trkpt>
      <trkpt lat="49.31762" lon="0.00029">
        <ele>34.8</ele>
        <time>2024-10-02T14:31:58Z</time>
      </trkpt>
      <trkpt lat="49.3176" lon="0.00028">
        <ele>35</ele>
        <time>2024-10-02T14:31:59Z</time>
      </trkpt>
      <trkpt lat="49.31758" lon="0.00027">
        <ele>35.4</ele>
        <time>2024-10-02T14:32:00Z</time>
      </trkpt>
      <trkpt lat="49.31755" lon="0.00026">
        <ele>35.8</ele>
        <time>2024-10-02T14:32:01Z</time>
      </trkpt>
      <trkpt lat="49.31754" lon="0.00026">
        <ele>36</ele>
        <time>2024-10-02T14:32:02Z</time>
      </trkpt>
      <trkpt lat="49.31751" lon="0.00025">
        <ele>36.4</ele>
        <time>2024-10-02T14:32:03Z</time>
      </trkpt>
      <trkpt lat="49.31749" lon="0.00025">
        <ele>36.8</ele>
        <time>2024-10-02T14:32:04Z</time>
      </trkpt>
      <trkpt lat="49.31747" lon="0.00026">
        <ele>36.8</ele>
        <time>2024-10-02T14:32:05Z</time>
      </trkpt>
      <trkpt lat="49.31744" lon="0.00026">
        <ele>37.2</ele>
        <time>2024-10-02T14:32:06Z</time>
      </trkpt>
      <trkpt lat="49.31742" lon="0.00026">
        <ele>37.6</ele>
        <time>2024-10-02T14:32:07Z</time>
      </trkpt>
      <trkpt lat="49.3174" lon="0.00026">
        <ele>38</ele>
        <time>2024-10-02T14:32:08Z</time>
      </trkpt>
      <trkpt lat="49.31737" lon="0.00027">
        <ele>38.4</ele>
        <time>2024-10-02T14:32:09Z</time>
      </trkpt>
      <trkpt lat="49.31735" lon="0.00027">
        <ele>38.8</ele>
        <time>2024-10-02T14:32:10Z</time>
      </trkpt>
      <trkpt lat="49.31733" lon="0.00028">
        <ele>39.2</ele>
        <time>2024-10-02T14:32:11Z</time>
      </trkpt>
      <trkpt lat="49.31731" lon="0.00028">
        <ele>39.4</ele>
        <time>2024-10-02T14:32:12Z</time>
      </trkpt>
      <trkpt lat="49.31729" lon="0.00029">
        <ele>39.8</ele>
        <time>2024-10-02T14:32:13Z</time>
      </trkpt>
      <trkpt lat="49.31727" lon="0.0003">
        <ele>40.2</ele>
        <time>2024-10-02T14:32:14Z</time>
      </trkpt>
      <trkpt lat="49.31725" lon="0.0003">
        <ele>40.4</ele>
        <time>2024-10-02T14:32:15Z</time>
      </trkpt>
      <trkpt lat="49.31723" lon="0.00031">
        <ele>40.8</ele>
        <time>2024-10-02T14:32:16Z</time>
      </trkpt>
      <trkpt lat="49.31721" lon="0.00031">
        <ele>41</ele>
        <time>2024-10-02T14:32:17Z</time>
      </trkpt>
      <trkpt lat="49.31718" lon="0.00032">
        <ele>41.4</ele>
        <time>2024-10-02T14:32:18Z</time>
      </trkpt>
      <trkpt lat="49.31716" lon="0.00033">
        <ele>41.6</ele>
        <time>2024-10-02T14:32:19Z</time>
      </trkpt>
      <trkpt lat="49.31714" lon="0.00033">
        <ele>42</ele>
        <time>2024-10-02T14:32:20Z</time>
      </trkpt>
      <trkpt lat="49.31712" lon="0.00034">
        <ele>42.2</ele>
        <time>2024-10-02T14:32:21Z</time>
      </trkpt>
      <trkpt lat="49.31709" lon="0.00034">
        <ele>42.4</ele>
        <time>2024-10-02T14:32:22Z</time>
      </trkpt>
      <trkpt lat="49.31708" lon="0.00035">
        <ele>42.8</ele>
        <time>2024-10-02T14:32:23Z</time>
      </trkpt>
      <trkpt lat="49.31706" lon="0.00035">
        <ele>43</ele>
        <time>2024-10-02T14:32:24Z</time>
      </trkpt>
      <trkpt lat="49.31703" lon="0.00036">
        <ele>43.2</ele>
        <time>2024-10-02T14:32:25Z</time>
      </trkpt>
      <trkpt lat="49.31701" lon="0.00037">
        <ele>43.2</ele>
        <time>2024-10-02T14:32:26Z</time>
      </trkpt>
      <trkpt lat="49.31699" lon="0.00038">
        <ele>43.6</ele>
        <time>2024-10-02T14:32:27Z</time>
      </trkpt>
      <trkpt lat="49.31696" lon="0.00039">
        <ele>43.8</ele>
        <time>2024-10-02T14:32:28Z</time>
      </trkpt>
      <trkpt lat="49.31695" lon="0.0004">
        <ele>44</ele>
        <time>2024-10-02T14:32:29Z</time>
      </trkpt>
      <trkpt lat="49.31693" lon="0.00041">
        <ele>44.2</ele>
        <time>2024-10-02T14:32:30Z</time>
      </trkpt>
      <trkpt lat="49.3169" lon="0.00042">
        <ele>44.4</ele>
        <time>2024-10-02T14:32:31Z</time>
      </trkpt>
      <trkpt lat="49.31688" lon="0.00043">
        <ele>44.6</ele>
        <time>2024-10-02T14:32:32Z</time>
      </trkpt>
      <trkpt lat="49.31686" lon="0.00044">
        <ele>44.8</ele>
        <time>2024-10-02T14:32:33Z</time>
      </trkpt>
      <trkpt lat="49.31683" lon="0.00045">
        <ele>45</ele>
        <time>2024-10-02T14:32:34Z</time>
      </trkpt>
      <trkpt lat="49.3168" lon="0.00046">
        <ele>45.2</ele>
        <time>2024-10-02T14:32:35Z</time>
      </trkpt>
      <trkpt lat="49.31678" lon="0.00048">
        <ele>45.6</ele>
        <time>2024-10-02T14:32:36Z</time>
      </trkpt>
      <trkpt lat="49.31675" lon="0.00049">
        <ele>45.8</ele>
        <time>2024-10-02T14:32:37Z</time>
      </trkpt>
      <trkpt lat="49.31673" lon="0.0005">
        <ele>46</ele>
        <time>2024-10-02T14:32:38Z</time>
      </trkpt>
      <trkpt lat="49.3167" lon="0.00052">
        <ele>46.2</ele>
        <time>2024-10-02T14:32:39Z</time>
      </trkpt>
      <trkpt lat="49.31668" lon="0.00053">
        <ele>46.4</ele>
        <time>2024-10-02T14:32:40Z</time>
      </trkpt>
      <trkpt lat="49.31666" lon="0.00054">
        <ele>46.4</ele>
        <time>2024-10-02T14:32:41Z</time>
      </trkpt>
      <trkpt lat="49.31662" lon="0.00055">
        <ele>46.6</ele>
        <time>2024-10-02T14:32:42Z</time>
      </trkpt>
      <trkpt lat="49.31659" lon="0.00056">
        <ele>46.8</ele>
        <time>2024-10-02T14:32:43Z</time>
      </trkpt>
      <trkpt lat="49.31657" lon="0.00056">
        <ele>47</ele>
        <time>2024-10-02T14:32:44Z</time>
      </trkpt>
      <trkpt lat="49.31653" lon="0.00057">
        <ele>47.2</ele>
        <time>2024-10-02T14:32:45Z</time>
      </trkpt>
      <trkpt lat="49.3165" lon="0.00059">
        <ele>47.4</ele>
        <time>2024-10-02T14:32:46Z</time>
      </trkpt>
      <trkpt lat="49.31648" lon="0.0006">
        <ele>47.6</ele>
        <time>2024-10-02T14:32:47Z</time>
      </trkpt>
      <trkpt lat="49.31645" lon="0.00061">
        <ele>47.6</ele>
        <time>2024-10-02T14:32:48Z</time>
      </trkpt>
      <trkpt lat="49.31642" lon="0.00062">
        <ele>47.6</ele>
        <time>2024-10-02T14:32:49Z</time>
      </trkpt>
      <trkpt lat="49.31639" lon="0.00062">
        <ele>47.8</ele>
        <time>2024-10-02T14:32:50Z</time>
      </trkpt>
      <trkpt lat="49.31635" lon="0.00063">
        <ele>47.8</ele>
        <time>2024-10-02T14:32:51Z</time>
      </trkpt>
      <trkpt lat="49.31632" lon="0.00063">
        <ele>48</ele>
        <time>2024-10-02T14:32:52Z</time>
      </trkpt>
      <trkpt lat="49.3163" lon="0.00064">
        <ele>48</ele>
        <time>2024-10-02T14:32:53Z</time>
      </trkpt>
      <trkpt lat="49.31627" lon="0.00064">
        <ele>48.2</ele>
        <time>2024-10-02T14:32:54Z</time>
      </trkpt>
      <trkpt lat="49.31624" lon="0.00064">
        <ele>48.2</ele>
        <time>2024-10-02T14:32:55Z</time>
      </trkpt>
      <trkpt lat="49.31621" lon="0.00064">
        <ele>48.4</ele>
        <time>2024-10-02T14:32:56Z</time>
      </trkpt>
      <trkpt lat="49.31617" lon="0.00065">
        <ele>48.4</ele>
        <time>2024-10-02T14:32:57Z</time>
      </trkpt>
      <trkpt lat="49.31614" lon="0.00064">
        <ele>48.4</ele>
        <time>2024-10-02T14:32:58Z</time>
      </trkpt>
      <trkpt lat="49.31612" lon="0.00064">
        <ele>48.6</ele>
        <time>2024-10-02T14:32:59Z</time>
      </trkpt>
      <trkpt lat="49.31608" lon="0.00064">
        <ele>48.6</ele>
        <time>2024-10-02T14:33:00Z</time>
      </trkpt>
      <trkpt lat="49.31605" lon="0.00064">
        <ele>48.6</ele>
        <time>2024-10-02T14:33:01Z</time>
      </trkpt>
      <trkpt lat="49.31603" lon="0.00063">
        <ele>48.8</ele>
        <time>2024-10-02T14:33:02Z</time>
      </trkpt>
      <trkpt lat="49.31599" lon="0.00063">
        <ele>48.8</ele>
        <time>2024-10-02T14:33:03Z</time>
      </trkpt>
      <trkpt lat="49.31596" lon="0.00062">
        <ele>49</ele>
        <time>2024-10-02T14:33:04Z</time>
      </trkpt>
      <trkpt lat="49.31594" lon="0.00062">
        <ele>49</ele>
        <time>2024-10-02T14:33:05Z</time>
      </trkpt>
      <trkpt lat="49.31591" lon="0.0006">
        <ele>49</ele>
        <time>2024-10-02T14:33:06Z</time>
      </trkpt>
      <trkpt lat="49.31588" lon="0.00058">
        <ele>49.2</ele>
        <time>2024-10-02T14:33:07Z</time>
      </trkpt>
      <trkpt lat="49.31586" lon="0.00057">
        <ele>49.2</ele>
        <time>2024-10-02T14:33:08Z</time>
      </trkpt>
      <trkpt lat="49.31583" lon="0.00054">
        <ele>49.4</ele>
        <time>2024-10-02T14:33:09Z</time>
      </trkpt>
      <trkpt lat="49.3158" lon="0.00053">
        <ele>49.4</ele>
        <time>2024-10-02T14:33:10Z</time>
      </trkpt>
      <trkpt lat="49.31578" lon="0.00052">
        <ele>49.4</ele>
        <time>2024-10-02T14:33:11Z</time>
      </trkpt>
      <trkpt lat="49.31576" lon="0.00049">
        <ele>49.8</ele>
        <time>2024-10-02T14:33:12Z</time>
      </trkpt>
      <trkpt lat="49.31575" lon="0.00047">
        <ele>50</ele>
        <time>2024-10-02T14:33:13Z</time>
      </trkpt>
      <trkpt lat="49.31573" lon="0.00046">
        <ele>50</ele>
        <time>2024-10-02T14:33:14Z</time>
      </trkpt>
      <trkpt lat="49.31572" lon="0.00043">
        <ele>50.2</ele>
        <time>2024-10-02T14:33:15Z</time>
      </trkpt>
      <trkpt lat="49.3157" lon="0.00039">
        <ele>50.4</ele>
        <time>2024-10-02T14:33:16Z</time>
      </trkpt>
      <trkpt lat="49.31569" lon="0.00037">
        <ele>50.8</ele>
        <time>2024-10-02T14:33:17Z</time>
      </trkpt>
      <trkpt lat="49.31567" lon="0.00034">
        <ele>51</ele>
        <time>2024-10-02T14:33:18Z</time>
      </trkpt>
      <trkpt lat="49.31566" lon="0.00031">
        <ele>51.2</ele>
        <time>2024-10-02T14:33:19Z</time>
      </trkpt>
      <trkpt lat="49.31564" lon="0.00028">
        <ele>51.4</ele>
        <time>2024-10-02T14:33:20Z</time>
      </trkpt>
      <trkpt lat="49.31564" lon="0.00024">
        <ele>51.6</ele>
        <time>2024-10-02T14:33:21Z</time>
      </trkpt>
      <trkpt lat="49.31563" lon="0.00021">
        <ele>52.2</ele>
        <time>2024-10-02T14:33:22Z</time>
      </trkpt>
      <trkpt lat="49.31563" lon="0.00017">
        <ele>52.6</ele>
        <time>2024-10-02T14:33:23Z</time>
      </trkpt>
      <trkpt lat="49.31563" lon="0.00013">
        <ele>52.8</ele>
        <time>2024-10-02T14:33:24Z</time>
      </trkpt>
      <trkpt lat="49.31562" lon="9.0E-5">
        <ele>53.4</ele>
        <time>2024-10-02T14:33:25Z</time>
      </trkpt>
      <trkpt lat="49.31563" lon="6.0E-5">
        <ele>53.6</ele>
        <time>2024-10-02T14:33:26Z</time>
      </trkpt>
      <trkpt lat="49.31563" lon="2.0E-5">
        <ele>54.2</ele>
        <time>2024-10-02T14:33:27Z</time>
      </trkpt>
      <trkpt lat="49.31563" lon="-2.0E-5">
        <ele>54.4</ele>
        <time>2024-10-02T14:33:28Z</time>
      </trkpt>
      <trkpt lat="49.31563" lon="-6.0E-5">
        <ele>54.8</ele>
        <time>2024-10-02T14:33:29Z</time>
      </trkpt>
      <trkpt lat="49.31564" lon="-0.0001">
        <ele>55.2</ele>
        <time>2024-10-02T14:33:30Z</time>
      </trkpt>
      <trkpt lat="49.31565" lon="-0.00014">
        <ele>55.4</ele>
        <time>2024-10-02T14:33:31Z</time>
      </trkpt>
      <trkpt lat="49.31566" lon="-0.00018">
        <ele>55.4</ele>
        <time>2024-10-02T14:33:32Z</time>
      </trkpt>
      <trkpt lat="49.31567" lon="-0.00021">
        <ele>55.8</ele>
        <time>2024-10-02T14:33:33Z</time>
      </trkpt>
      <trkpt lat="49.31568" lon="-0.00024">
        <ele>56.2</ele>
        <time>2024-10-02T14:33:34Z</time>
      </trkpt>
      <trkpt lat="49.3157" lon="-0.00027">
        <ele>56.6</ele>
        <time>2024-10-02T14:33:35Z</time>
      </trkpt>
      <trkpt lat="49.31571" lon="-0.0003">
        <ele>57</ele>
        <time>2024-10-02T14:33:36Z</time>
      </trkpt>
      <trkpt lat="49.31572" lon="-0.00033">
        <ele>57.2</ele>
        <time>2024-10-02T14:33:37Z</time>
      </trkpt>
      <trkpt lat="49.31573" lon="-0.00036">
        <ele>57.6</ele>
        <time>2024-10-02T14:33:38Z</time>
      </trkpt>
      <trkpt lat="49.31574" lon="-0.00039">
        <ele>58</ele>
        <time>2024-10-02T14:33:39Z</time>
      </trkpt>
      <trkpt lat="49.31575" lon="-0.00042">
        <ele>58.4</ele>
        <time>2024-10-02T14:33:40Z</time>
      </trkpt>
      <trkpt lat="49.31577" lon="-0.00045">
        <ele>58.8</ele>
        <time>2024-10-02T14:33:41Z</time>
      </trkpt>
      <trkpt lat="49.31578" lon="-0.00048">
        <ele>59.2</ele>
        <time>2024-10-02T14:33:42Z</time>
      </trkpt>
      <trkpt lat="49.31579" lon="-0.00051">
        <ele>59.6</ele>
        <time>2024-10-02T14:33:43Z</time>
      </trkpt>
      <trkpt lat="49.3158" lon="-0.00054">
        <ele>60</ele>
        <time>2024-10-02T14:33:44Z</time>
      </trkpt>
      <trkpt lat="49.31581" lon="-0.00057">
        <ele>60.6</ele>
        <time>2024-10-02T14:33:45Z</time>
      </trkpt>
      <trkpt lat="49.31582" lon="-0.0006">
        <ele>60.8</ele>
        <time>2024-10-02T14:33:46Z</time>
      </trkpt>
      <trkpt lat="49.31583" lon="-0.00062">
        <ele>61.2</ele>
        <time>2024-10-02T14:33:47Z</time>
      </trkpt>
      <trkpt lat="49.31585" lon="-0.00066">
        <ele>61.4</ele>
        <time>2024-10-02T14:33:48Z</time>
      </trkpt>
      <trkpt lat="49.31586" lon="-0.00068">
        <ele>61.4</ele>
        <time>2024-10-02T14:33:49Z</time>
      </trkpt>
      <trkpt lat="49.31587" lon="-0.00071">
        <ele>61.6</ele>
        <time>2024-10-02T14:33:50Z</time>
      </trkpt>
      <trkpt lat="49.31588" lon="-0.00074">
        <ele>62</ele>
        <time>2024-10-02T14:33:51Z</time>
      </trkpt>
      <trkpt lat="49.3159" lon="-0.00078">
        <ele>62.2</ele>
        <time>2024-10-02T14:33:52Z</time>
      </trkpt>
      <trkpt lat="49.31591" lon="-0.00081">
        <ele>62.4</ele>
        <time>2024-10-02T14:33:53Z</time>
      </trkpt>
      <trkpt lat="49.31592" lon="-0.00084">
        <ele>62.4</ele>
        <time>2024-10-02T14:33:54Z</time>
      </trkpt>
      <trkpt lat="49.31593" lon="-0.00088">
        <ele>62.8</ele>
        <time>2024-10-02T14:33:55Z</time>
      </trkpt>
      <trkpt lat="49.31595" lon="-0.00091">
        <ele>63</ele>
        <time>2024-10-02T14:33:56Z</time>
      </trkpt>
      <trkpt lat="49.31596" lon="-0.00094">
        <ele>63.2</ele>
        <time>2024-10-02T14:33:57Z</time>
      </trkpt>
      <trkpt lat="49.31597" lon="-0.00097">
        <ele>63.4</ele>
        <time>2024-10-02T14:33:58Z</time>
      </trkpt>
      <trkpt lat="49.31599" lon="-0.001">
        <ele>63.4</ele>
        <time>2024-10-02T14:33:59Z</time>
      </trkpt>
      <trkpt lat="49.316" lon="-0.00103">
        <ele>63.6</ele>
        <time>2024-10-02T14:34:00Z</time>
      </trkpt>
      <trkpt lat="49.31601" lon="-0.00107">
        <ele>63.8</ele>
        <time>2024-10-02T14:34:01Z</time>
      </trkpt>
      <trkpt lat="49.31603" lon="-0.00111">
        <ele>64</ele>
        <time>2024-10-02T14:34:02Z</time>
      </trkpt>
      <trkpt lat="49.31604" lon="-0.00115">
        <ele>64.2</ele>
        <time>2024-10-02T14:34:03Z</time>
      </trkpt>
      <trkpt lat="49.31605" lon="-0.00119">
        <ele>64.4</ele>
        <time>2024-10-02T14:34:04Z</time>
      </trkpt>
      <trkpt lat="49.31606" lon="-0.00122">
        <ele>64.6</ele>
        <time>2024-10-02T14:34:05Z</time>
      </trkpt>
      <trkpt lat="49.31607" lon="-0.00126">
        <ele>65</ele>
        <time>2024-10-02T14:34:06Z</time>
      </trkpt>
      <trkpt lat="49.31609" lon="-0.00129">
        <ele>65.4</ele>
        <time>2024-10-02T14:34:07Z</time>
      </trkpt>
      <trkpt lat="49.3161" lon="-0.00133">
        <ele>65.4</ele>
        <time>2024-10-02T14:34:08Z</time>
      </trkpt>
      <trkpt lat="49.31611" lon="-0.00137">
        <ele>65.8</ele>
        <time>2024-10-02T14:34:09Z</time>
      </trkpt>
      <trkpt lat="49.31612" lon="-0.0014">
        <ele>66</ele>
        <time>2024-10-02T14:34:10Z</time>
      </trkpt>
      <trkpt lat="49.31614" lon="-0.00145">
        <ele>66</ele>
        <time>2024-10-02T14:34:11Z</time>
      </trkpt>
      <trkpt lat="49.31615" lon="-0.00148">
        <ele>66.2</ele>
        <time>2024-10-02T14:34:12Z</time>
      </trkpt>
      <trkpt lat="49.31616" lon="-0.00151">
        <ele>66.4</ele>
        <time>2024-10-02T14:34:13Z</time>
      </trkpt>
      <trkpt lat="49.31618" lon="-0.00156">
        <ele>66.4</ele>
        <time>2024-10-02T14:34:14Z</time>
      </trkpt>
      <trkpt lat="49.31619" lon="-0.00159">
        <ele>66.4</ele>
        <time>2024-10-02T14:34:15Z</time>
      </trkpt>
      <trkpt lat="49.3162" lon="-0.00163">
        <ele>66.6</ele>
        <time>2024-10-02T14:34:16Z</time>
      </trkpt>
      <trkpt lat="49.31621" lon="-0.00166">
        <ele>66.6</ele>
        <time>2024-10-02T14:34:17Z</time>
      </trkpt>
      <trkpt lat="49.31623" lon="-0.0017">
        <ele>66.6</ele>
        <time>2024-10-02T14:34:18Z</time>
      </trkpt>
      <trkpt lat="49.31624" lon="-0.00172">
        <ele>66.8</ele>
        <time>2024-10-02T14:34:19Z</time>
      </trkpt>
      <trkpt lat="49.31625" lon="-0.00175">
        <ele>66.8</ele>
        <time>2024-10-02T14:34:20Z</time>
      </trkpt>
      <trkpt lat="49.31626" lon="-0.00179">
        <ele>66.8</ele>
        <time>2024-10-02T14:34:21Z</time>
      </trkpt>
      <trkpt lat="49.31627" lon="-0.00182">
        <ele>67</ele>
        <time>2024-10-02T14:34:22Z</time>
      </trkpt>
      <trkpt lat="49.31628" lon="-0.00185">
        <ele>67</ele>
        <time>2024-10-02T14:34:23Z</time>
      </trkpt>
      <trkpt lat="49.31629" lon="-0.00188">
        <ele>67.2</ele>
        <time>2024-10-02T14:34:24Z</time>
      </trkpt>
      <trkpt lat="49.3163" lon="-0.0019">
        <ele>67.2</ele>
        <time>2024-10-02T14:34:25Z</time>
      </trkpt>
      <trkpt lat="49.31631" lon="-0.00193">
        <ele>67.2</ele>
        <time>2024-10-02T14:34:26Z</time>
      </trkpt>
      <trkpt lat="49.31632" lon="-0.00194">
        <ele>67.4</ele>
        <time>2024-10-02T14:34:27Z</time>
      </trkpt>
      <trkpt lat="49.31632" lon="-0.00194">
        <ele>67.4</ele>
        <time>2024-10-02T14:34:28Z</time>
      </trkpt>
      <trkpt lat="49.31635" lon="-0.002">
        <ele>68.2</ele>
        <time>2024-10-02T14:35:08Z</time>
      </trkpt>
      <trkpt lat="49.31636" lon="-0.00203">
        <ele>68.2</ele>
        <time>2024-10-02T14:35:09Z</time>
      </trkpt>
      <trkpt lat="49.31637" lon="-0.00206">
        <ele>68.2</ele>
        <time>2024-10-02T14:35:10Z</time>
      </trkpt>
      <trkpt lat="49.31638" lon="-0.00209">
        <ele>68.2</ele>
        <time>2024-10-02T14:35:11Z</time>
      </trkpt>
      <trkpt lat="49.3164" lon="-0.00215">
        <ele>68.2</ele>
        <time>2024-10-02T14:35:12Z</time>
      </trkpt>
      <trkpt lat="49.31642" lon="-0.00219">
        <ele>68.2</ele>
        <time>2024-10-02T14:35:13Z</time>
      </trkpt>
      <trkpt lat="49.31644" lon="-0.00225">
        <ele>68.2</ele>
        <time>2024-10-02T14:35:14Z</time>
      </trkpt>
      <trkpt lat="49.31646" lon="-0.00231">
        <ele>68.2</ele>
        <time>2024-10-02T14:35:15Z</time>
      </trkpt>
      <trkpt lat="49.31648" lon="-0.00238">
        <ele>68.2</ele>
        <time>2024-10-02T14:35:16Z</time>
      </trkpt>
      <trkpt lat="49.31651" lon="-0.00246">
        <ele>68.2</ele>
        <time>2024-10-02T14:35:17Z</time>
      </trkpt>
      <trkpt lat="49.31654" lon="-0.00253">
        <ele>68.2</ele>
        <time>2024-10-02T14:35:18Z</time>
      </trkpt>
      <trkpt lat="49.31656" lon="-0.0026">
        <ele>68.2</ele>
        <time>2024-10-02T14:35:19Z</time>
      </trkpt>
      <trkpt lat="49.31657" lon="-0.00272">
        <ele>68.2</ele>
        <time>2024-10-02T14:35:20Z</time>
      </trkpt>
      <trkpt lat="49.31656" lon="-0.00281">
        <ele>68.2</ele>
        <time>2024-10-02T14:35:21Z</time>
      </trkpt>
      <trkpt lat="49.31653" lon="-0.00288">
        <ele>68</ele>
        <time>2024-10-02T14:35:22Z</time>
      </trkpt>
      <trkpt lat="49.31649" lon="-0.00295">
        <ele>67.8</ele>
        <time>2024-10-02T14:35:23Z</time>
      </trkpt>
      <trkpt lat="49.31644" lon="-0.00298">
        <ele>67.4</ele>
        <time>2024-10-02T14:35:24Z</time>
      </trkpt>
      <trkpt lat="49.3164" lon="-0.00301">
        <ele>67.2</ele>
        <time>2024-10-02T14:35:25Z</time>
      </trkpt>
      <trkpt lat="49.31635" lon="-0.00305">
        <ele>67</ele>
        <time>2024-10-02T14:35:26Z</time>
      </trkpt>
      <trkpt lat="49.31631" lon="-0.00308">
        <ele>66.8</ele>
        <time>2024-10-02T14:35:27Z</time>
      </trkpt>
      <trkpt lat="49.31626" lon="-0.00311">
        <ele>66.8</ele>
        <time>2024-10-02T14:35:28Z</time>
      </trkpt>
      <trkpt lat="49.31623" lon="-0.00313">
        <ele>66.8</ele>
        <time>2024-10-02T14:35:29Z</time>
      </trkpt>
      <trkpt lat="49.31618" lon="-0.00316">
        <ele>66.8</ele>
        <time>2024-10-02T14:35:30Z</time>
      </trkpt>
      <trkpt lat="49.31615" lon="-0.00318">
        <ele>66.8</ele>
        <time>2024-10-02T14:35:31Z</time>
      </trkpt>
      <trkpt lat="49.3161" lon="-0.00321">
        <ele>66.8</ele>
        <time>2024-10-02T14:35:32Z</time>
      </trkpt>
      <trkpt lat="49.31607" lon="-0.00324">
        <ele>66.8</ele>
        <time>2024-10-02T14:35:33Z</time>
      </trkpt>
      <trkpt lat="49.31604" lon="-0.00326">
        <ele>66.8</ele>
        <time>2024-10-02T14:35:34Z</time>
      </trkpt>
      <trkpt lat="49.31599" lon="-0.00329">
        <ele>66.8</ele>
        <time>2024-10-02T14:35:35Z</time>
      </trkpt>
      <trkpt lat="49.31595" lon="-0.00332">
        <ele>67</ele>
        <time>2024-10-02T14:35:36Z</time>
      </trkpt>
      <trkpt lat="49.31592" lon="-0.00334">
        <ele>67.2</ele>
        <time>2024-10-02T14:35:37Z</time>
      </trkpt>
      <trkpt lat="49.31588" lon="-0.00336">
        <ele>67.6</ele>
        <time>2024-10-02T14:35:38Z</time>
      </trkpt>
      <trkpt lat="49.31584" lon="-0.00339">
        <ele>68</ele>
        <time>2024-10-02T14:35:39Z</time>
      </trkpt>
      <trkpt lat="49.3158" lon="-0.0034">
        <ele>68.6</ele>
        <time>2024-10-02T14:35:40Z</time>
      </trkpt>
      <trkpt lat="49.31576" lon="-0.00342">
        <ele>69</ele>
        <time>2024-10-02T14:35:41Z</time>
      </trkpt>
      <trkpt lat="49.31572" lon="-0.00344">
        <ele>69.4</ele>
        <time>2024-10-02T14:35:42Z</time>
      </trkpt>
      <trkpt lat="49.31569" lon="-0.00345">
        <ele>69.4</ele>
        <time>2024-10-02T14:35:43Z</time>
      </trkpt>
      <trkpt lat="49.31564" lon="-0.00347">
        <ele>69.8</ele>
        <time>2024-10-02T14:35:44Z</time>
      </trkpt>
      <trkpt lat="49.31562" lon="-0.00349">
        <ele>70.2</ele>
        <time>2024-10-02T14:35:45Z</time>
      </trkpt>
      <trkpt lat="49.31558" lon="-0.00351">
        <ele>70.4</ele>
        <time>2024-10-02T14:35:46Z</time>
      </trkpt>
      <trkpt lat="49.31555" lon="-0.00354">
        <ele>70.8</ele>
        <time>2024-10-02T14:35:47Z</time>
      </trkpt>
      <trkpt lat="49.31551" lon="-0.00357">
        <ele>71</ele>
        <time>2024-10-02T14:35:48Z</time>
      </trkpt>
      <trkpt lat="49.31549" lon="-0.0036">
        <ele>71.4</ele>
        <time>2024-10-02T14:35:49Z</time>
      </trkpt>
      <trkpt lat="49.31544" lon="-0.00365">
        <ele>71.8</ele>
        <time>2024-10-02T14:35:50Z</time>
      </trkpt>
      <trkpt lat="49.31542" lon="-0.00368">
        <ele>72.2</ele>
        <time>2024-10-02T14:35:51Z</time>
      </trkpt>
      <trkpt lat="49.31539" lon="-0.00373">
        <ele>72.4</ele>
        <time>2024-10-02T14:35:52Z</time>
      </trkpt>
      <trkpt lat="49.31536" lon="-0.0038">
        <ele>72.8</ele>
        <time>2024-10-02T14:35:53Z</time>
      </trkpt>
      <trkpt lat="49.31532" lon="-0.00385">
        <ele>73.2</ele>
        <time>2024-10-02T14:35:54Z</time>
      </trkpt>
      <trkpt lat="49.31529" lon="-0.0039">
        <ele>73.4</ele>
        <time>2024-10-02T14:35:55Z</time>
      </trkpt>
      <trkpt lat="49.31526" lon="-0.00396">
        <ele>73.4</ele>
        <time>2024-10-02T14:35:56Z</time>
      </trkpt>
      <trkpt lat="49.31523" lon="-0.00401">
        <ele>73.6</ele>
        <time>2024-10-02T14:35:57Z</time>
      </trkpt>
      <trkpt lat="49.3152" lon="-0.00405">
        <ele>73.8</ele>
        <time>2024-10-02T14:35:58Z</time>
      </trkpt>
      <trkpt lat="49.31516" lon="-0.00412">
        <ele>74</ele>
        <time>2024-10-02T14:35:59Z</time>
      </trkpt>
      <trkpt lat="49.31513" lon="-0.00417">
        <ele>74</ele>
        <time>2024-10-02T14:36:00Z</time>
      </trkpt>
      <trkpt lat="49.3151" lon="-0.00422">
        <ele>74.2</ele>
        <time>2024-10-02T14:36:01Z</time>
      </trkpt>
      <trkpt lat="49.31507" lon="-0.00428">
        <ele>74.2</ele>
        <time>2024-10-02T14:36:02Z</time>
      </trkpt>
      <trkpt lat="49.31503" lon="-0.00435">
        <ele>74.2</ele>
        <time>2024-10-02T14:36:03Z</time>
      </trkpt>
      <trkpt lat="49.315" lon="-0.00439">
        <ele>74.2</ele>
        <time>2024-10-02T14:36:04Z</time>
      </trkpt>
      <trkpt lat="49.31497" lon="-0.00445">
        <ele>74.4</ele>
        <time>2024-10-02T14:36:05Z</time>
      </trkpt>
      <trkpt lat="49.31494" lon="-0.00451">
        <ele>74.4</ele>
        <time>2024-10-02T14:36:06Z</time>
      </trkpt>
      <trkpt lat="49.31491" lon="-0.00456">
        <ele>74.8</ele>
        <time>2024-10-02T14:36:07Z</time>
      </trkpt>
      <trkpt lat="49.31487" lon="-0.00463">
        <ele>75</ele>
        <time>2024-10-02T14:36:08Z</time>
      </trkpt>
      <trkpt lat="49.31484" lon="-0.00469">
        <ele>75.2</ele>
        <time>2024-10-02T14:36:09Z</time>
      </trkpt>
      <trkpt lat="49.31481" lon="-0.00473">
        <ele>75.4</ele>
        <time>2024-10-02T14:36:10Z</time>
      </trkpt>
      <trkpt lat="49.31477" lon="-0.0048">
        <ele>75.6</ele>
        <time>2024-10-02T14:36:11Z</time>
      </trkpt>
      <trkpt lat="49.31474" lon="-0.00486">
        <ele>75.6</ele>
        <time>2024-10-02T14:36:12Z</time>
      </trkpt>
      <trkpt lat="49.31471" lon="-0.0049">
        <ele>75.8</ele>
        <time>2024-10-02T14:36:13Z</time>
      </trkpt>
      <trkpt lat="49.31467" lon="-0.00496">
        <ele>75.8</ele>
        <time>2024-10-02T14:36:14Z</time>
      </trkpt>
      <trkpt lat="49.31462" lon="-0.00502">
        <ele>76.2</ele>
        <time>2024-10-02T14:36:15Z</time>
      </trkpt>
      <trkpt lat="49.31459" lon="-0.00506">
        <ele>76.4</ele>
        <time>2024-10-02T14:36:16Z</time>
      </trkpt>
      <trkpt lat="49.31455" lon="-0.00511">
        <ele>76.4</ele>
        <time>2024-10-02T14:36:17Z</time>
      </trkpt>
      <trkpt lat="49.31451" lon="-0.00516">
        <ele>76.6</ele>
        <time>2024-10-02T14:36:18Z</time>
      </trkpt>
      <trkpt lat="49.31448" lon="-0.00519">
        <ele>76.6</ele>
        <time>2024-10-02T14:36:19Z</time>
      </trkpt>
      <trkpt lat="49.31445" lon="-0.00524">
        <ele>76.8</ele>
        <time>2024-10-02T14:36:20Z</time>
      </trkpt>
      <trkpt lat="49.31441" lon="-0.00528">
        <ele>77</ele>
        <time>2024-10-02T14:36:21Z</time>
      </trkpt>
      <trkpt lat="49.31438" lon="-0.00533">
        <ele>77.2</ele>
        <time>2024-10-02T14:36:22Z</time>
      </trkpt>
      <trkpt lat="49.31435" lon="-0.00536">
        <ele>77.4</ele>
        <time>2024-10-02T14:36:23Z</time>
      </trkpt>
      <trkpt lat="49.31431" lon="-0.0054">
        <ele>77.8</ele>
        <time>2024-10-02T14:36:24Z</time>
      </trkpt>
      <trkpt lat="49.31429" lon="-0.00543">
        <ele>78</ele>
        <time>2024-10-02T14:36:25Z</time>
      </trkpt>
      <trkpt lat="49.31424" lon="-0.00548">
        <ele>78</ele>
        <time>2024-10-02T14:36:26Z</time>
      </trkpt>
      <trkpt lat="49.31421" lon="-0.00552">
        <ele>78</ele>
        <time>2024-10-02T14:36:27Z</time>
      </trkpt>
      <trkpt lat="49.31418" lon="-0.00555">
        <ele>78.2</ele>
        <time>2024-10-02T14:36:28Z</time>
      </trkpt>
      <trkpt lat="49.31414" lon="-0.00558">
        <ele>78.6</ele>
        <time>2024-10-02T14:36:29Z</time>
      </trkpt>
      <trkpt lat="49.3141" lon="-0.00563">
        <ele>78.8</ele>
        <time>2024-10-02T14:36:30Z</time>
      </trkpt>
      <trkpt lat="49.31408" lon="-0.00566">
        <ele>79</ele>
        <time>2024-10-02T14:36:31Z</time>
      </trkpt>
      <trkpt lat="49.31404" lon="-0.0057">
        <ele>79.2</ele>
        <time>2024-10-02T14:36:32Z</time>
      </trkpt>
      <trkpt lat="49.314" lon="-0.00573">
        <ele>79.4</ele>
        <time>2024-10-02T14:36:33Z</time>
      </trkpt>
      <trkpt lat="49.31398" lon="-0.00576">
        <ele>79.6</ele>
        <time>2024-10-02T14:36:34Z</time>
      </trkpt>
      <trkpt lat="49.31394" lon="-0.0058">
        <ele>80</ele>
        <time>2024-10-02T14:36:35Z</time>
      </trkpt>
      <trkpt lat="49.3139" lon="-0.00584">
        <ele>80.2</ele>
        <time>2024-10-02T14:36:36Z</time>
      </trkpt>
      <trkpt lat="49.31387" lon="-0.00588">
        <ele>80.2</ele>
        <time>2024-10-02T14:36:37Z</time>
      </trkpt>
      <trkpt lat="49.31383" lon="-0.00591">
        <ele>80.4</ele>
        <time>2024-10-02T14:36:38Z</time>
      </trkpt>
      <trkpt lat="49.3138" lon="-0.00596">
        <ele>80.6</ele>
        <time>2024-10-02T14:36:39Z</time>
      </trkpt>
      <trkpt lat="49.31377" lon="-0.00599">
        <ele>81</ele>
        <time>2024-10-02T14:36:40Z</time>
      </trkpt>
      <trkpt lat="49.31373" lon="-0.00605">
        <ele>81.2</ele>
        <time>2024-10-02T14:36:41Z</time>
      </trkpt>
      <trkpt lat="49.3137" lon="-0.00609">
        <ele>81.4</ele>
        <time>2024-10-02T14:36:42Z</time>
      </trkpt>
      <trkpt lat="49.31366" lon="-0.00614">
        <ele>81.6</ele>
        <time>2024-10-02T14:36:43Z</time>
      </trkpt>
      <trkpt lat="49.31363" lon="-0.00618">
        <ele>82</ele>
        <time>2024-10-02T14:36:44Z</time>
      </trkpt>
      <trkpt lat="49.3136" lon="-0.00622">
        <ele>82.2</ele>
        <time>2024-10-02T14:36:45Z</time>
      </trkpt>
      <trkpt lat="49.31357" lon="-0.00627">
        <ele>82.4</ele>
        <time>2024-10-02T14:36:46Z</time>
      </trkpt>
      <trkpt lat="49.31354" lon="-0.00632">
        <ele>82.8</ele>
        <time>2024-10-02T14:36:47Z</time>
      </trkpt>
      <trkpt lat="49.31352" lon="-0.00636">
        <ele>82.8</ele>
        <time>2024-10-02T14:36:48Z</time>
      </trkpt>
      <trkpt lat="49.3135" lon="-0.0064">
        <ele>83.2</ele>
        <time>2024-10-02T14:36:49Z</time>
      </trkpt>
      <trkpt lat="49.31346" lon="-0.00645">
        <ele>83.2</ele>
        <time>2024-10-02T14:36:50Z</time>
      </trkpt>
      <trkpt lat="49.31343" lon="-0.00651">
        <ele>83.6</ele>
        <time>2024-10-02T14:36:51Z</time>
      </trkpt>
      <trkpt lat="49.31341" lon="-0.00657">
        <ele>83.6</ele>
        <time>2024-10-02T14:36:52Z</time>
      </trkpt>
      <trkpt lat="49.31337" lon="-0.00665">
        <ele>83.8</ele>
        <time>2024-10-02T14:36:53Z</time>
      </trkpt>
      <trkpt lat="49.31334" lon="-0.00672">
        <ele>83.8</ele>
        <time>2024-10-02T14:36:54Z</time>
      </trkpt>
      <trkpt lat="49.31331" lon="-0.00678">
        <ele>84</ele>
        <time>2024-10-02T14:36:55Z</time>
      </trkpt>
      <trkpt lat="49.31328" lon="-0.00685">
        <ele>84</ele>
        <time>2024-10-02T14:36:56Z</time>
      </trkpt>
      <trkpt lat="49.31326" lon="-0.00691">
        <ele>84.2</ele>
        <time>2024-10-02T14:36:57Z</time>
      </trkpt>
      <trkpt lat="49.31323" lon="-0.00697">
        <ele>84.4</ele>
        <time>2024-10-02T14:36:58Z</time>
      </trkpt>
      <trkpt lat="49.3132" lon="-0.00704">
        <ele>84.6</ele>
        <time>2024-10-02T14:36:59Z</time>
      </trkpt>
      <trkpt lat="49.31316" lon="-0.0071">
        <ele>84.6</ele>
        <time>2024-10-02T14:37:00Z</time>
      </trkpt>
      <trkpt lat="49.31312" lon="-0.00717">
        <ele>84.8</ele>
        <time>2024-10-02T14:37:01Z</time>
      </trkpt>
      <trkpt lat="49.31309" lon="-0.00724">
        <ele>84.8</ele>
        <time>2024-10-02T14:37:02Z</time>
      </trkpt>
      <trkpt lat="49.31305" lon="-0.00732">
        <ele>85</ele>
        <time>2024-10-02T14:37:03Z</time>
      </trkpt>
      <trkpt lat="49.313" lon="-0.0074">
        <ele>85</ele>
        <time>2024-10-02T14:37:04Z</time>
      </trkpt>
      <trkpt lat="49.31297" lon="-0.00747">
        <ele>85</ele>
        <time>2024-10-02T14:37:05Z</time>
      </trkpt>
      <trkpt lat="49.31293" lon="-0.00754">
        <ele>85</ele>
        <time>2024-10-02T14:37:06Z</time>
      </trkpt>
      <trkpt lat="49.31289" lon="-0.0076">
        <ele>85.2</ele>
        <time>2024-10-02T14:37:07Z</time>
      </trkpt>
      <trkpt lat="49.31285" lon="-0.00769">
        <ele>85.2</ele>
        <time>2024-10-02T14:37:08Z</time>
      </trkpt>
      <trkpt lat="49.31281" lon="-0.00775">
        <ele>85.2</ele>
        <time>2024-10-02T14:37:09Z</time>
      </trkpt>
      <trkpt lat="49.31276" lon="-0.00783">
        <ele>85.2</ele>
        <time>2024-10-02T14:37:10Z</time>
      </trkpt>
      <trkpt lat="49.31272" lon="-0.00788">
        <ele>85.4</ele>
        <time>2024-10-02T14:37:11Z</time>
      </trkpt>
      <trkpt lat="49.31267" lon="-0.00795">
        <ele>85.4</ele>
        <time>2024-10-02T14:37:12Z</time>
      </trkpt>
      <trkpt lat="49.31262" lon="-0.00801">
        <ele>85.4</ele>
        <time>2024-10-02T14:37:13Z</time>
      </trkpt>
      <trkpt lat="49.31258" lon="-0.00808">
        <ele>85.4</ele>
        <time>2024-10-02T14:37:14Z</time>
      </trkpt>
      <trkpt lat="49.31254" lon="-0.00815">
        <ele>85.4</ele>
        <time>2024-10-02T14:37:15Z</time>
      </trkpt>
      <trkpt lat="49.3125" lon="-0.00821">
        <ele>85.4</ele>
        <time>2024-10-02T14:37:16Z</time>
      </trkpt>
      <trkpt lat="49.31245" lon="-0.00827">
        <ele>85.4</ele>
        <time>2024-10-02T14:37:17Z</time>
      </trkpt>
      <trkpt lat="49.31241" lon="-0.00832">
        <ele>85.6</ele>
        <time>2024-10-02T14:37:18Z</time>
      </trkpt>
      <trkpt lat="49.31237" lon="-0.00836">
        <ele>85.6</ele>
        <time>2024-10-02T14:37:19Z</time>
      </trkpt>
      <trkpt lat="49.31232" lon="-0.00843">
        <ele>85.6</ele>
        <time>2024-10-02T14:37:20Z</time>
      </trkpt>
      <trkpt lat="49.31227" lon="-0.00849">
        <ele>85.6</ele>
        <time>2024-10-02T14:37:21Z</time>
      </trkpt>
      <trkpt lat="49.31222" lon="-0.00854">
        <ele>85.6</ele>
        <time>2024-10-02T14:37:22Z</time>
      </trkpt>
      <trkpt lat="49.31217" lon="-0.00859">
        <ele>85.6</ele>
        <time>2024-10-02T14:37:23Z</time>
      </trkpt>
      <trkpt lat="49.31212" lon="-0.00863">
        <ele>85.6</ele>
        <time>2024-10-02T14:37:24Z</time>
      </trkpt>
      <trkpt lat="49.31208" lon="-0.00867">
        <ele>85.6</ele>
        <time>2024-10-02T14:37:25Z</time>
      </trkpt>
      <trkpt lat="49.31202" lon="-0.00872">
        <ele>85.8</ele>
        <time>2024-10-02T14:37:26Z</time>
      </trkpt>
      <trkpt lat="49.31197" lon="-0.00876">
        <ele>86.2</ele>
        <time>2024-10-02T14:37:27Z</time>
      </trkpt>
      <trkpt lat="49.31193" lon="-0.0088">
        <ele>86.2</ele>
        <time>2024-10-02T14:37:28Z</time>
      </trkpt>
      <trkpt lat="49.31188" lon="-0.00885">
        <ele>86.4</ele>
        <time>2024-10-02T14:37:29Z</time>
      </trkpt>
      <trkpt lat="49.31183" lon="-0.0089">
        <ele>86.6</ele>
        <time>2024-10-02T14:37:30Z</time>
      </trkpt>
      <trkpt lat="49.31178" lon="-0.00895">
        <ele>86.6</ele>
        <time>2024-10-02T14:37:31Z</time>
      </trkpt>
      <trkpt lat="49.31173" lon="-0.00899">
        <ele>86.6</ele>
        <time>2024-10-02T14:37:32Z</time>
      </trkpt>
      <trkpt lat="49.31169" lon="-0.00902">
        <ele>86.8</ele>
        <time>2024-10-02T14:37:33Z</time>
      </trkpt>
      <trkpt lat="49.31164" lon="-0.00907">
        <ele>86.8</ele>
        <time>2024-10-02T14:37:34Z</time>
      </trkpt>
      <trkpt lat="49.31159" lon="-0.00911">
        <ele>86.8</ele>
        <time>2024-10-02T14:37:35Z</time>
      </trkpt>
      <trkpt lat="49.31155" lon="-0.00915">
        <ele>87</ele>
        <time>2024-10-02T14:37:36Z</time>
      </trkpt>
      <trkpt lat="49.31151" lon="-0.00918">
        <ele>87.2</ele>
        <time>2024-10-02T14:37:37Z</time>
      </trkpt>
      <trkpt lat="49.31146" lon="-0.00923">
        <ele>87.6</ele>
        <time>2024-10-02T14:37:38Z</time>
      </trkpt>
      <trkpt lat="49.31142" lon="-0.00928">
        <ele>87.6</ele>
        <time>2024-10-02T14:37:39Z</time>
      </trkpt>
      <trkpt lat="49.31139" lon="-0.00931">
        <ele>87.8</ele>
        <time>2024-10-02T14:37:40Z</time>
      </trkpt>
      <trkpt lat="49.31135" lon="-0.00936">
        <ele>88.2</ele>
        <time>2024-10-02T14:37:41Z</time>
      </trkpt>
      <trkpt lat="49.31133" lon="-0.0094">
        <ele>88.4</ele>
        <time>2024-10-02T14:37:42Z</time>
      </trkpt>
      <trkpt lat="49.31131" lon="-0.00944">
        <ele>88.4</ele>
        <time>2024-10-02T14:37:43Z</time>
      </trkpt>
      <trkpt lat="49.31129" lon="-0.0095">
        <ele>88.6</ele>
        <time>2024-10-02T14:37:44Z</time>
      </trkpt>
      <trkpt lat="49.31129" lon="-0.00954">
        <ele>88.8</ele>
        <time>2024-10-02T14:37:45Z</time>
      </trkpt>
      <trkpt lat="49.31129" lon="-0.0096">
        <ele>89</ele>
        <time>2024-10-02T14:37:46Z</time>
      </trkpt>
      <trkpt lat="49.3113" lon="-0.00967">
        <ele>89.2</ele>
        <time>2024-10-02T14:37:47Z</time>
      </trkpt>
      <trkpt lat="49.31131" lon="-0.00974">
        <ele>89.6</ele>
        <time>2024-10-02T14:37:48Z</time>
      </trkpt>
      <trkpt lat="49.31132" lon="-0.0098">
        <ele>90</ele>
        <time>2024-10-02T14:37:49Z</time>
      </trkpt>
      <trkpt lat="49.31134" lon="-0.00988">
        <ele>90</ele>
        <time>2024-10-02T14:37:50Z</time>
      </trkpt>
      <trkpt lat="49.31137" lon="-0.00996">
        <ele>90.2</ele>
        <time>2024-10-02T14:37:51Z</time>
      </trkpt>
      <trkpt lat="49.31139" lon="-0.01003">
        <ele>90.2</ele>
        <time>2024-10-02T14:37:52Z</time>
      </trkpt>
      <trkpt lat="49.31141" lon="-0.0101">
        <ele>90.2</ele>
        <time>2024-10-02T14:37:53Z</time>
      </trkpt>
      <trkpt lat="49.31143" lon="-0.01018">
        <ele>90.2</ele>
        <time>2024-10-02T14:37:54Z</time>
      </trkpt>
      <trkpt lat="49.31146" lon="-0.01028">
        <ele>90.2</ele>
        <time>2024-10-02T14:37:55Z</time>
      </trkpt>
      <trkpt lat="49.31148" lon="-0.01037">
        <ele>90.2</ele>
        <time>2024-10-02T14:37:56Z</time>
      </trkpt>
      <trkpt lat="49.31151" lon="-0.01046">
        <ele>90.2</ele>
        <time>2024-10-02T14:37:57Z</time>
      </trkpt>
      <trkpt lat="49.31154" lon="-0.01055">
        <ele>90.2</ele>
        <time>2024-10-02T14:37:58Z</time>
      </trkpt>
      <trkpt lat="49.31157" lon="-0.01064">
        <ele>90.2</ele>
        <time>2024-10-02T14:37:59Z</time>
      </trkpt>
      <trkpt lat="49.3116" lon="-0.01075">
        <ele>90.2</ele>
        <time>2024-10-02T14:38:00Z</time>
      </trkpt>
      <trkpt lat="49.31163" lon="-0.01083">
        <ele>90.2</ele>
        <time>2024-10-02T14:38:01Z</time>
      </trkpt>
      <trkpt lat="49.31167" lon="-0.01096">
        <ele>90</ele>
        <time>2024-10-02T14:38:02Z</time>
      </trkpt>
      <trkpt lat="49.31171" lon="-0.01108">
        <ele>89.8</ele>
        <time>2024-10-02T14:38:03Z</time>
      </trkpt>
      <trkpt lat="49.31175" lon="-0.0112">
        <ele>89.6</ele>
        <time>2024-10-02T14:38:04Z</time>
      </trkpt>
      <trkpt lat="49.31179" lon="-0.01133">
        <ele>89.4</ele>
        <time>2024-10-02T14:38:05Z</time>
      </trkpt>
      <trkpt lat="49.31183" lon="-0.01146">
        <ele>89</ele>
        <time>2024-10-02T14:38:06Z</time>
      </trkpt>
      <trkpt lat="49.31187" lon="-0.0116">
        <ele>88.6</ele>
        <time>2024-10-02T14:38:07Z</time>
      </trkpt>
      <trkpt lat="49.31192" lon="-0.01175">
        <ele>87.4</ele>
        <time>2024-10-02T14:38:08Z</time>
      </trkpt>
      <trkpt lat="49.31196" lon="-0.0119">
        <ele>86.6</ele>
        <time>2024-10-02T14:38:09Z</time>
      </trkpt>
      <trkpt lat="49.312" lon="-0.01206">
        <ele>85.8</ele>
        <time>2024-10-02T14:38:10Z</time>
      </trkpt>
      <trkpt lat="49.31204" lon="-0.01222">
        <ele>84.8</ele>
        <time>2024-10-02T14:38:11Z</time>
      </trkpt>
      <trkpt lat="49.31207" lon="-0.01238">
        <ele>83.6</ele>
        <time>2024-10-02T14:38:12Z</time>
      </trkpt>
      <trkpt lat="49.3121" lon="-0.01251">
        <ele>83</ele>
        <time>2024-10-02T14:38:13Z</time>
      </trkpt>
      <trkpt lat="49.31214" lon="-0.01268">
        <ele>82</ele>
        <time>2024-10-02T14:38:14Z</time>
      </trkpt>
      <trkpt lat="49.31216" lon="-0.01281">
        <ele>82</ele>
        <time>2024-10-02T14:38:15Z</time>
      </trkpt>
      <trkpt lat="49.31218" lon="-0.0129">
        <ele>81</ele>
        <time>2024-10-02T14:38:16Z</time>
      </trkpt>
      <trkpt lat="49.31221" lon="-0.01302">
        <ele>80.2</ele>
        <time>2024-10-02T14:38:17Z</time>
      </trkpt>
      <trkpt lat="49.31223" lon="-0.01309">
        <ele>79.6</ele>
        <time>2024-10-02T14:38:18Z</time>
      </trkpt>
      <trkpt lat="49.31225" lon="-0.01313">
        <ele>79.4</ele>
        <time>2024-10-02T14:38:19Z</time>
      </trkpt>
      <trkpt lat="49.31227" lon="-0.01318">
        <ele>79.2</ele>
        <time>2024-10-02T14:38:20Z</time>
      </trkpt>
      <trkpt lat="49.31229" lon="-0.01321">
        <ele>79.2</ele>
        <time>2024-10-02T14:38:21Z</time>
      </trkpt>
      <trkpt lat="49.31231" lon="-0.01323">
        <ele>79.2</ele>
        <time>2024-10-02T14:38:22Z</time>
      </trkpt>
      <trkpt lat="49.31232" lon="-0.01326">
        <ele>79.2</ele>
        <time>2024-10-02T14:38:23Z</time>
      </trkpt>
      <trkpt lat="49.31232" lon="-0.01328">
        <ele>79.2</ele>
        <time>2024-10-02T14:38:24Z</time>
      </trkpt>
      <trkpt lat="49.31232" lon="-0.0133">
        <ele>79.2</ele>
        <time>2024-10-02T14:38:25Z</time>
      </trkpt>
      <trkpt lat="49.31232" lon="-0.01332">
        <ele>79.2</ele>
        <time>2024-10-02T14:38:26Z</time>
      </trkpt>
      <trkpt lat="49.31231" lon="-0.01335">
        <ele>79.2</ele>
        <time>2024-10-02T14:38:27Z</time>
      </trkpt>
      <trkpt lat="49.3123" lon="-0.01338">
        <ele>79.6</ele>
        <time>2024-10-02T14:38:28Z</time>
      </trkpt>
      <trkpt lat="49.31228" lon="-0.01341">
        <ele>80</ele>
        <time>2024-10-02T14:38:29Z</time>
      </trkpt>
      <trkpt lat="49.31226" lon="-0.01344">
        <ele>80.4</ele>
        <time>2024-10-02T14:38:30Z</time>
      </trkpt>
      <trkpt lat="49.31224" lon="-0.01347">
        <ele>80.6</ele>
        <time>2024-10-02T14:38:31Z</time>
      </trkpt>
      <trkpt lat="49.3122" lon="-0.01351">
        <ele>81</ele>
        <time>2024-10-02T14:38:32Z</time>
      </trkpt>
      <trkpt lat="49.31217" lon="-0.01354">
        <ele>81.2</ele>
        <time>2024-10-02T14:38:33Z</time>
      </trkpt>
      <trkpt lat="49.31213" lon="-0.01358">
        <ele>81.4</ele>
        <time>2024-10-02T14:38:34Z</time>
      </trkpt>
      <trkpt lat="49.3121" lon="-0.01363">
        <ele>81.6</ele>
        <time>2024-10-02T14:38:35Z</time>
      </trkpt>
      <trkpt lat="49.31207" lon="-0.01366">
        <ele>81.8</ele>
        <time>2024-10-02T14:38:36Z</time>
      </trkpt>
      <trkpt lat="49.31204" lon="-0.01371">
        <ele>81.8</ele>
        <time>2024-10-02T14:38:37Z</time>
      </trkpt>
      <trkpt lat="49.312" lon="-0.01376">
        <ele>81.8</ele>
        <time>2024-10-02T14:38:38Z</time>
      </trkpt>
      <trkpt lat="49.31197" lon="-0.01381">
        <ele>82</ele>
        <time>2024-10-02T14:38:39Z</time>
      </trkpt>
      <trkpt lat="49.31194" lon="-0.01385">
        <ele>82.2</ele>
        <time>2024-10-02T14:38:40Z</time>
      </trkpt>
      <trkpt lat="49.31189" lon="-0.0139">
        <ele>82.2</ele>
        <time>2024-10-02T14:38:41Z</time>
      </trkpt>
      <trkpt lat="49.31186" lon="-0.01394">
        <ele>82.2</ele>
        <time>2024-10-02T14:38:42Z</time>
      </trkpt>
      <trkpt lat="49.31182" lon="-0.01399">
        <ele>82.4</ele>
        <time>2024-10-02T14:38:43Z</time>
      </trkpt>
      <trkpt lat="49.31178" lon="-0.01403">
        <ele>82.4</ele>
        <time>2024-10-02T14:38:44Z</time>
      </trkpt>
      <trkpt lat="49.31175" lon="-0.01407">
        <ele>82.6</ele>
        <time>2024-10-02T14:38:45Z</time>
      </trkpt>
      <trkpt lat="49.31171" lon="-0.01412">
        <ele>82.6</ele>
        <time>2024-10-02T14:38:46Z</time>
      </trkpt>
      <trkpt lat="49.31167" lon="-0.01416">
        <ele>82.8</ele>
        <time>2024-10-02T14:38:47Z</time>
      </trkpt>
      <trkpt lat="49.31164" lon="-0.01421">
        <ele>82.8</ele>
        <time>2024-10-02T14:38:48Z</time>
      </trkpt>
      <trkpt lat="49.31161" lon="-0.01424">
        <ele>82.8</ele>
        <time>2024-10-02T14:38:49Z</time>
      </trkpt>
      <trkpt lat="49.31157" lon="-0.01429">
        <ele>82.8</ele>
        <time>2024-10-02T14:38:50Z</time>
      </trkpt>
      <trkpt lat="49.31153" lon="-0.01433">
        <ele>83</ele>
        <time>2024-10-02T14:38:51Z</time>
      </trkpt>
      <trkpt lat="49.3115" lon="-0.01436">
        <ele>83.2</ele>
        <time>2024-10-02T14:38:52Z</time>
      </trkpt>
      <trkpt lat="49.31147" lon="-0.0144">
        <ele>83.4</ele>
        <time>2024-10-02T14:38:53Z</time>
      </trkpt>
      <trkpt lat="49.31143" lon="-0.01445">
        <ele>83.6</ele>
        <time>2024-10-02T14:38:54Z</time>
      </trkpt>
      <trkpt lat="49.3114" lon="-0.01448">
        <ele>83.6</ele>
        <time>2024-10-02T14:38:55Z</time>
      </trkpt>
      <trkpt lat="49.31136" lon="-0.01453">
        <ele>83.8</ele>
        <time>2024-10-02T14:38:56Z</time>
      </trkpt>
      <trkpt lat="49.31133" lon="-0.01456">
        <ele>84</ele>
        <time>2024-10-02T14:38:57Z</time>
      </trkpt>
      <trkpt lat="49.3113" lon="-0.01459">
        <ele>84.6</ele>
        <time>2024-10-02T14:38:58Z</time>
      </trkpt>
      <trkpt lat="49.31127" lon="-0.01462">
        <ele>84.6</ele>
        <time>2024-10-02T14:38:59Z</time>
      </trkpt>
      <trkpt lat="49.31123" lon="-0.01465">
        <ele>84.8</ele>
        <time>2024-10-02T14:39:00Z</time>
      </trkpt>
      <trkpt lat="49.31121" lon="-0.01467">
        <ele>84.8</ele>
        <time>2024-10-02T14:39:01Z</time>
      </trkpt>
      <trkpt lat="49.31117" lon="-0.01471">
        <ele>85</ele>
        <time>2024-10-02T14:39:02Z</time>
      </trkpt>
      <trkpt lat="49.31114" lon="-0.01474">
        <ele>85.4</ele>
        <time>2024-10-02T14:39:03Z</time>
      </trkpt>
      <trkpt lat="49.31111" lon="-0.01477">
        <ele>85.6</ele>
        <time>2024-10-02T14:39:04Z</time>
      </trkpt>
      <trkpt lat="49.31108" lon="-0.0148">
        <ele>85.8</ele>
        <time>2024-10-02T14:39:05Z</time>
      </trkpt>
      <trkpt lat="49.31105" lon="-0.01483">
        <ele>86.2</ele>
        <time>2024-10-02T14:39:06Z</time>
      </trkpt>
      <trkpt lat="49.31102" lon="-0.01486">
        <ele>86.6</ele>
        <time>2024-10-02T14:39:07Z</time>
      </trkpt>
      <trkpt lat="49.31098" lon="-0.01488">
        <ele>87</ele>
        <time>2024-10-02T14:39:08Z</time>
      </trkpt>
      <trkpt lat="49.31096" lon="-0.0149">
        <ele>87.2</ele>
        <time>2024-10-02T14:39:09Z</time>
      </trkpt>
      <trkpt lat="49.31092" lon="-0.01493">
        <ele>87.6</ele>
        <time>2024-10-02T14:39:10Z</time>
      </trkpt>
      <trkpt lat="49.31089" lon="-0.01496">
        <ele>87.8</ele>
        <time>2024-10-02T14:39:11Z</time>
      </trkpt>
      <trkpt lat="49.31086" lon="-0.01498">
        <ele>88.2</ele>
        <time>2024-10-02T14:39:12Z</time>
      </trkpt>
      <trkpt lat="49.31083" lon="-0.015">
        <ele>88.4</ele>
        <time>2024-10-02T14:39:13Z</time>
      </trkpt>
      <trkpt lat="49.31078" lon="-0.01502">
        <ele>88.8</ele>
        <time>2024-10-02T14:39:14Z</time>
      </trkpt>
      <trkpt lat="49.31075" lon="-0.01505">
        <ele>89</ele>
        <time>2024-10-02T14:39:15Z</time>
      </trkpt>
      <trkpt lat="49.31072" lon="-0.01507">
        <ele>89.4</ele>
        <time>2024-10-02T14:39:16Z</time>
      </trkpt>
      <trkpt lat="49.31069" lon="-0.01509">
        <ele>89.4</ele>
        <time>2024-10-02T14:39:17Z</time>
      </trkpt>
      <trkpt lat="49.31065" lon="-0.01511">
        <ele>89.8</ele>
        <time>2024-10-02T14:39:18Z</time>
      </trkpt>
      <trkpt lat="49.31063" lon="-0.01512">
        <ele>90.2</ele>
        <time>2024-10-02T14:39:19Z</time>
      </trkpt>
      <trkpt lat="49.3106" lon="-0.01514">
        <ele>90.2</ele>
        <time>2024-10-02T14:39:20Z</time>
      </trkpt>
      <trkpt lat="49.31057" lon="-0.01516">
        <ele>90.4</ele>
        <time>2024-10-02T14:39:21Z</time>
      </trkpt>
      <trkpt lat="49.31053" lon="-0.01518">
        <ele>90.8</ele>
        <time>2024-10-02T14:39:22Z</time>
      </trkpt>
      <trkpt lat="49.31049" lon="-0.0152">
        <ele>91</ele>
        <time>2024-10-02T14:39:23Z</time>
      </trkpt>
      <trkpt lat="49.31046" lon="-0.01522">
        <ele>91.4</ele>
        <time>2024-10-02T14:39:24Z</time>
      </trkpt>
      <trkpt lat="49.31043" lon="-0.01523">
        <ele>91.8</ele>
        <time>2024-10-02T14:39:25Z</time>
      </trkpt>
      <trkpt lat="49.3104" lon="-0.01525">
        <ele>92</ele>
        <time>2024-10-02T14:39:26Z</time>
      </trkpt>
      <trkpt lat="49.31037" lon="-0.01527">
        <ele>92.4</ele>
        <time>2024-10-02T14:39:27Z</time>
      </trkpt>
      <trkpt lat="49.31034" lon="-0.01528">
        <ele>92.6</ele>
        <time>2024-10-02T14:39:28Z</time>
      </trkpt>
      <trkpt lat="49.31031" lon="-0.01529">
        <ele>92.6</ele>
        <time>2024-10-02T14:39:29Z</time>
      </trkpt>
      <trkpt lat="49.31028" lon="-0.01531">
        <ele>93.2</ele>
        <time>2024-10-02T14:39:30Z</time>
      </trkpt>
      <trkpt lat="49.31024" lon="-0.01532">
        <ele>93.4</ele>
        <time>2024-10-02T14:39:31Z</time>
      </trkpt>
      <trkpt lat="49.31021" lon="-0.01533">
        <ele>93.6</ele>
        <time>2024-10-02T14:39:32Z</time>
      </trkpt>
      <trkpt lat="49.31018" lon="-0.01534">
        <ele>94</ele>
        <time>2024-10-02T14:39:33Z</time>
      </trkpt>
      <trkpt lat="49.31015" lon="-0.01536">
        <ele>94.4</ele>
        <time>2024-10-02T14:39:34Z</time>
      </trkpt>
      <trkpt lat="49.31012" lon="-0.01538">
        <ele>94.8</ele>
        <time>2024-10-02T14:39:35Z</time>
      </trkpt>
      <trkpt lat="49.31009" lon="-0.0154">
        <ele>95.2</ele>
        <time>2024-10-02T14:39:36Z</time>
      </trkpt>
      <trkpt lat="49.31006" lon="-0.01541">
        <ele>95.6</ele>
        <time>2024-10-02T14:39:37Z</time>
      </trkpt>
      <trkpt lat="49.31002" lon="-0.01543">
        <ele>95.6</ele>
        <time>2024-10-02T14:39:38Z</time>
      </trkpt>
      <trkpt lat="49.30999" lon="-0.01544">
        <ele>95.8</ele>
        <time>2024-10-02T14:39:39Z</time>
      </trkpt>
      <trkpt lat="49.30996" lon="-0.01546">
        <ele>96</ele>
        <time>2024-10-02T14:39:40Z</time>
      </trkpt>
      <trkpt lat="49.30993" lon="-0.01547">
        <ele>96</ele>
        <time>2024-10-02T14:39:41Z</time>
      </trkpt>
      <trkpt lat="49.30989" lon="-0.01548">
        <ele>96.4</ele>
        <time>2024-10-02T14:39:42Z</time>
      </trkpt>
      <trkpt lat="49.30986" lon="-0.0155">
        <ele>96.8</ele>
        <time>2024-10-02T14:39:43Z</time>
      </trkpt>
      <trkpt lat="49.30983" lon="-0.01551">
        <ele>96.8</ele>
        <time>2024-10-02T14:39:44Z</time>
      </trkpt>
      <trkpt lat="49.3098" lon="-0.01553">
        <ele>97</ele>
        <time>2024-10-02T14:39:45Z</time>
      </trkpt>
      <trkpt lat="49.30977" lon="-0.01555">
        <ele>97.2</ele>
        <time>2024-10-02T14:39:46Z</time>
      </trkpt>
      <trkpt lat="49.30974" lon="-0.01557">
        <ele>97.6</ele>
        <time>2024-10-02T14:39:47Z</time>
      </trkpt>
      <trkpt lat="49.30971" lon="-0.01559">
        <ele>98</ele>
        <time>2024-10-02T14:39:48Z</time>
      </trkpt>
      <trkpt lat="49.30967" lon="-0.01561">
        <ele>98.2</ele>
        <time>2024-10-02T14:39:49Z</time>
      </trkpt>
      <trkpt lat="49.30964" lon="-0.01563">
        <ele>98.6</ele>
        <time>2024-10-02T14:39:50Z</time>
      </trkpt>
      <trkpt lat="49.30961" lon="-0.01566">
        <ele>98.8</ele>
        <time>2024-10-02T14:39:51Z</time>
      </trkpt>
      <trkpt lat="49.30958" lon="-0.01568">
        <ele>99</ele>
        <time>2024-10-02T14:39:52Z</time>
      </trkpt>
      <trkpt lat="49.30956" lon="-0.0157">
        <ele>99.2</ele>
        <time>2024-10-02T14:39:53Z</time>
      </trkpt>
      <trkpt lat="49.30953" lon="-0.01573">
        <ele>99.6</ele>
        <time>2024-10-02T14:39:54Z</time>
      </trkpt>
      <trkpt lat="49.3095" lon="-0.01576">
        <ele>99.8</ele>
        <time>2024-10-02T14:39:55Z</time>
      </trkpt>
      <trkpt lat="49.30947" lon="-0.01579">
        <ele>100</ele>
        <time>2024-10-02T14:39:56Z</time>
      </trkpt>
      <trkpt lat="49.30945" lon="-0.01582">
        <ele>100.2</ele>
        <time>2024-10-02T14:39:57Z</time>
      </trkpt>
      <trkpt lat="49.30942" lon="-0.01585">
        <ele>100.6</ele>
        <time>2024-10-02T14:39:58Z</time>
      </trkpt>
      <trkpt lat="49.3094" lon="-0.01588">
        <ele>100.8</ele>
        <time>2024-10-02T14:39:59Z</time>
      </trkpt>
      <trkpt lat="49.30937" lon="-0.01591">
        <ele>101</ele>
        <time>2024-10-02T14:40:00Z</time>
      </trkpt>
      <trkpt lat="49.30935" lon="-0.01594">
        <ele>101.2</ele>
        <time>2024-10-02T14:40:01Z</time>
      </trkpt>
      <trkpt lat="49.30933" lon="-0.01598">
        <ele>101.6</ele>
        <time>2024-10-02T14:40:02Z</time>
      </trkpt>
      <trkpt lat="49.30931" lon="-0.01602">
        <ele>101.6</ele>
        <time>2024-10-02T14:40:03Z</time>
      </trkpt>
      <trkpt lat="49.30929" lon="-0.01606">
        <ele>102</ele>
        <time>2024-10-02T14:40:04Z</time>
      </trkpt>
      <trkpt lat="49.30927" lon="-0.01609">
        <ele>102.2</ele>
        <time>2024-10-02T14:40:05Z</time>
      </trkpt>
      <trkpt lat="49.30925" lon="-0.01612">
        <ele>102.4</ele>
        <time>2024-10-02T14:40:06Z</time>
      </trkpt>
      <trkpt lat="49.30923" lon="-0.01616">
        <ele>102.6</ele>
        <time>2024-10-02T14:40:07Z</time>
      </trkpt>
      <trkpt lat="49.30922" lon="-0.0162">
        <ele>103</ele>
        <time>2024-10-02T14:40:08Z</time>
      </trkpt>
      <trkpt lat="49.3092" lon="-0.01625">
        <ele>103.4</ele>
        <time>2024-10-02T14:40:09Z</time>
      </trkpt>
      <trkpt lat="49.30919" lon="-0.01628">
        <ele>103.6</ele>
        <time>2024-10-02T14:40:10Z</time>
      </trkpt>
      <trkpt lat="49.30917" lon="-0.01633">
        <ele>103.8</ele>
        <time>2024-10-02T14:40:11Z</time>
      </trkpt>
      <trkpt lat="49.30915" lon="-0.01637">
        <ele>104.2</ele>
        <time>2024-10-02T14:40:12Z</time>
      </trkpt>
      <trkpt lat="49.30914" lon="-0.01642">
        <ele>104.4</ele>
        <time>2024-10-02T14:40:13Z</time>
      </trkpt>
      <trkpt lat="49.30913" lon="-0.01646">
        <ele>104.6</ele>
        <time>2024-10-02T14:40:14Z</time>
      </trkpt>
      <trkpt lat="49.30911" lon="-0.01651">
        <ele>105</ele>
        <time>2024-10-02T14:40:15Z</time>
      </trkpt>
      <trkpt lat="49.3091" lon="-0.01656">
        <ele>105</ele>
        <time>2024-10-02T14:40:16Z</time>
      </trkpt>
      <trkpt lat="49.30909" lon="-0.0166">
        <ele>105.4</ele>
        <time>2024-10-02T14:40:17Z</time>
      </trkpt>
      <trkpt lat="49.30908" lon="-0.01665">
        <ele>105.6</ele>
        <time>2024-10-02T14:40:18Z</time>
      </trkpt>
      <trkpt lat="49.30906" lon="-0.0167">
        <ele>106</ele>
        <time>2024-10-02T14:40:19Z</time>
      </trkpt>
      <trkpt lat="49.30905" lon="-0.01675">
        <ele>106.2</ele>
        <time>2024-10-02T14:40:20Z</time>
      </trkpt>
      <trkpt lat="49.30904" lon="-0.0168">
        <ele>106.4</ele>
        <time>2024-10-02T14:40:21Z</time>
      </trkpt>
      <trkpt lat="49.30904" lon="-0.01684">
        <ele>106.8</ele>
        <time>2024-10-02T14:40:22Z</time>
      </trkpt>
      <trkpt lat="49.30903" lon="-0.01689">
        <ele>107</ele>
        <time>2024-10-02T14:40:23Z</time>
      </trkpt>
      <trkpt lat="49.30902" lon="-0.01694">
        <ele>107</ele>
        <time>2024-10-02T14:40:24Z</time>
      </trkpt>
      <trkpt lat="49.30901" lon="-0.01699">
        <ele>107.4</ele>
        <time>2024-10-02T14:40:25Z</time>
      </trkpt>
      <trkpt lat="49.30901" lon="-0.01704">
        <ele>107.6</ele>
        <time>2024-10-02T14:40:26Z</time>
      </trkpt>
      <trkpt lat="49.309" lon="-0.01709">
        <ele>107.8</ele>
        <time>2024-10-02T14:40:27Z</time>
      </trkpt>
      <trkpt lat="49.30899" lon="-0.01714">
        <ele>108</ele>
        <time>2024-10-02T14:40:28Z</time>
      </trkpt>
      <trkpt lat="49.30899" lon="-0.01719">
        <ele>108.4</ele>
        <time>2024-10-02T14:40:29Z</time>
      </trkpt>
      <trkpt lat="49.30899" lon="-0.01724">
        <ele>108.6</ele>
        <time>2024-10-02T14:40:30Z</time>
      </trkpt>
      <trkpt lat="49.30898" lon="-0.01729">
        <ele>108.8</ele>
        <time>2024-10-02T14:40:31Z</time>
      </trkpt>
      <trkpt lat="49.30898" lon="-0.01734">
        <ele>109</ele>
        <time>2024-10-02T14:40:32Z</time>
      </trkpt>
      <trkpt lat="49.30897" lon="-0.01739">
        <ele>109.2</ele>
        <time>2024-10-02T14:40:33Z</time>
      </trkpt>
      <trkpt lat="49.30896" lon="-0.01744">
        <ele>109.6</ele>
        <time>2024-10-02T14:40:34Z</time>
      </trkpt>
      <trkpt lat="49.30896" lon="-0.01749">
        <ele>109.8</ele>
        <time>2024-10-02T14:40:35Z</time>
      </trkpt>
      <trkpt lat="49.30895" lon="-0.01754">
        <ele>110</ele>
        <time>2024-10-02T14:40:36Z</time>
      </trkpt>
      <trkpt lat="49.30895" lon="-0.01758">
        <ele>110.2</ele>
        <time>2024-10-02T14:40:37Z</time>
      </trkpt>
      <trkpt lat="49.30894" lon="-0.01765">
        <ele>110.6</ele>
        <time>2024-10-02T14:40:38Z</time>
      </trkpt>
      <trkpt lat="49.30893" lon="-0.0177">
        <ele>111</ele>
        <time>2024-10-02T14:40:39Z</time>
      </trkpt>
      <trkpt lat="49.30892" lon="-0.01774">
        <ele>111.2</ele>
        <time>2024-10-02T14:40:40Z</time>
      </trkpt>
      <trkpt lat="49.30891" lon="-0.0178">
        <ele>111.6</ele>
        <time>2024-10-02T14:40:41Z</time>
      </trkpt>
      <trkpt lat="49.30891" lon="-0.01785">
        <ele>111.8</ele>
        <time>2024-10-02T14:40:42Z</time>
      </trkpt>
      <trkpt lat="49.30891" lon="-0.0179">
        <ele>112</ele>
        <time>2024-10-02T14:40:43Z</time>
      </trkpt>
      <trkpt lat="49.3089" lon="-0.01795">
        <ele>112.4</ele>
        <time>2024-10-02T14:40:44Z</time>
      </trkpt>
      <trkpt lat="49.3089" lon="-0.01799">
        <ele>112.6</ele>
        <time>2024-10-02T14:40:45Z</time>
      </trkpt>
      <trkpt lat="49.30889" lon="-0.01804">
        <ele>112.6</ele>
        <time>2024-10-02T14:40:46Z</time>
      </trkpt>
      <trkpt lat="49.30889" lon="-0.0181">
        <ele>113</ele>
        <time>2024-10-02T14:40:47Z</time>
      </trkpt>
      <trkpt lat="49.30889" lon="-0.01815">
        <ele>113.4</ele>
        <time>2024-10-02T14:40:48Z</time>
      </trkpt>
      <trkpt lat="49.30888" lon="-0.0182">
        <ele>113.6</ele>
        <time>2024-10-02T14:40:49Z</time>
      </trkpt>
      <trkpt lat="49.30888" lon="-0.01825">
        <ele>114</ele>
        <time>2024-10-02T14:40:50Z</time>
      </trkpt>
      <trkpt lat="49.30887" lon="-0.0183">
        <ele>114.2</ele>
        <time>2024-10-02T14:40:51Z</time>
      </trkpt>
      <trkpt lat="49.30887" lon="-0.01835">
        <ele>114.6</ele>
        <time>2024-10-02T14:40:52Z</time>
      </trkpt>
      <trkpt lat="49.30887" lon="-0.0184">
        <ele>115</ele>
        <time>2024-10-02T14:40:53Z</time>
      </trkpt>
      <trkpt lat="49.30887" lon="-0.01845">
        <ele>115.2</ele>
        <time>2024-10-02T14:40:54Z</time>
      </trkpt>
      <trkpt lat="49.30886" lon="-0.0185">
        <ele>115.6</ele>
        <time>2024-10-02T14:40:55Z</time>
      </trkpt>
      <trkpt lat="49.30886" lon="-0.01855">
        <ele>115.8</ele>
        <time>2024-10-02T14:40:56Z</time>
      </trkpt>
      <trkpt lat="49.30885" lon="-0.01861">
        <ele>116.2</ele>
        <time>2024-10-02T14:40:57Z</time>
      </trkpt>
      <trkpt lat="49.30885" lon="-0.01866">
        <ele>116.6</ele>
        <time>2024-10-02T14:40:58Z</time>
      </trkpt>
      <trkpt lat="49.30884" lon="-0.01871">
        <ele>116.8</ele>
        <time>2024-10-02T14:40:59Z</time>
      </trkpt>
      <trkpt lat="49.30884" lon="-0.01876">
        <ele>117</ele>
        <time>2024-10-02T14:41:00Z</time>
      </trkpt>
      <trkpt lat="49.30883" lon="-0.01881">
        <ele>117.2</ele>
        <time>2024-10-02T14:41:01Z</time>
      </trkpt>
      <trkpt lat="49.30883" lon="-0.01887">
        <ele>117.4</ele>
        <time>2024-10-02T14:41:02Z</time>
      </trkpt>
      <trkpt lat="49.30882" lon="-0.01892">
        <ele>117.6</ele>
        <time>2024-10-02T14:41:03Z</time>
      </trkpt>
      <trkpt lat="49.30882" lon="-0.01898">
        <ele>117.8</ele>
        <time>2024-10-02T14:41:04Z</time>
      </trkpt>
      <trkpt lat="49.30881" lon="-0.01903">
        <ele>118.2</ele>
        <time>2024-10-02T14:41:05Z</time>
      </trkpt>
      <trkpt lat="49.30881" lon="-0.01909">
        <ele>118.4</ele>
        <time>2024-10-02T14:41:06Z</time>
      </trkpt>
      <trkpt lat="49.3088" lon="-0.01914">
        <ele>118.4</ele>
        <time>2024-10-02T14:41:07Z</time>
      </trkpt>
      <trkpt lat="49.3088" lon="-0.01921">
        <ele>118.8</ele>
        <time>2024-10-02T14:41:08Z</time>
      </trkpt>
      <trkpt lat="49.30879" lon="-0.01927">
        <ele>119</ele>
        <time>2024-10-02T14:41:09Z</time>
      </trkpt>
      <trkpt lat="49.30879" lon="-0.01931">
        <ele>119.2</ele>
        <time>2024-10-02T14:41:10Z</time>
      </trkpt>
      <trkpt lat="49.30878" lon="-0.01938">
        <ele>119.2</ele>
        <time>2024-10-02T14:41:11Z</time>
      </trkpt>
      <trkpt lat="49.30877" lon="-0.01944">
        <ele>119.4</ele>
        <time>2024-10-02T14:41:12Z</time>
      </trkpt>
      <trkpt lat="49.30876" lon="-0.01949">
        <ele>119.8</ele>
        <time>2024-10-02T14:41:13Z</time>
      </trkpt>
      <trkpt lat="49.30875" lon="-0.01956">
        <ele>119.8</ele>
        <time>2024-10-02T14:41:14Z</time>
      </trkpt>
      <trkpt lat="49.30874" lon="-0.01963">
        <ele>120</ele>
        <time>2024-10-02T14:41:15Z</time>
      </trkpt>
      <trkpt lat="49.30874" lon="-0.01968">
        <ele>120.2</ele>
        <time>2024-10-02T14:41:16Z</time>
      </trkpt>
      <trkpt lat="49.30872" lon="-0.01976">
        <ele>120.2</ele>
        <time>2024-10-02T14:41:17Z</time>
      </trkpt>
      <trkpt lat="49.30871" lon="-0.01982">
        <ele>120.4</ele>
        <time>2024-10-02T14:41:18Z</time>
      </trkpt>
      <trkpt lat="49.3087" lon="-0.01987">
        <ele>120.6</ele>
        <time>2024-10-02T14:41:19Z</time>
      </trkpt>
      <trkpt lat="49.30868" lon="-0.01995">
        <ele>120.8</ele>
        <time>2024-10-02T14:41:20Z</time>
      </trkpt>
      <trkpt lat="49.30866" lon="-0.02002">
        <ele>121</ele>
        <time>2024-10-02T14:41:21Z</time>
      </trkpt>
      <trkpt lat="49.30864" lon="-0.02008">
        <ele>121.2</ele>
        <time>2024-10-02T14:41:22Z</time>
      </trkpt>
      <trkpt lat="49.30862" lon="-0.02016">
        <ele>121.2</ele>
        <time>2024-10-02T14:41:23Z</time>
      </trkpt>
      <trkpt lat="49.30861" lon="-0.02024">
        <ele>121.2</ele>
        <time>2024-10-02T14:41:24Z</time>
      </trkpt>
      <trkpt lat="49.30859" lon="-0.0203">
        <ele>121.4</ele>
        <time>2024-10-02T14:41:25Z</time>
      </trkpt>
      <trkpt lat="49.30857" lon="-0.02039">
        <ele>121.4</ele>
        <time>2024-10-02T14:41:26Z</time>
      </trkpt>
      <trkpt lat="49.30856" lon="-0.02046">
        <ele>121.6</ele>
        <time>2024-10-02T14:41:27Z</time>
      </trkpt>
      <trkpt lat="49.30854" lon="-0.02053">
        <ele>121.6</ele>
        <time>2024-10-02T14:41:28Z</time>
      </trkpt>
      <trkpt lat="49.30852" lon="-0.02062">
        <ele>121.6</ele>
        <time>2024-10-02T14:41:29Z</time>
      </trkpt>
      <trkpt lat="49.3085" lon="-0.02069">
        <ele>121.8</ele>
        <time>2024-10-02T14:41:30Z</time>
      </trkpt>
      <trkpt lat="49.30849" lon="-0.02076">
        <ele>122</ele>
        <time>2024-10-02T14:41:31Z</time>
      </trkpt>
      <trkpt lat="49.30847" lon="-0.02085">
        <ele>122</ele>
        <time>2024-10-02T14:41:32Z</time>
      </trkpt>
      <trkpt lat="49.30845" lon="-0.02092">
        <ele>122.2</ele>
        <time>2024-10-02T14:41:33Z</time>
      </trkpt>
      <trkpt lat="49.30844" lon="-0.02099">
        <ele>122.2</ele>
        <time>2024-10-02T14:41:34Z</time>
      </trkpt>
      <trkpt lat="49.30842" lon="-0.02108">
        <ele>122.4</ele>
        <time>2024-10-02T14:41:35Z</time>
      </trkpt>
      <trkpt lat="49.3084" lon="-0.02116">
        <ele>122.4</ele>
        <time>2024-10-02T14:41:36Z</time>
      </trkpt>
      <trkpt lat="49.30839" lon="-0.02122">
        <ele>122.6</ele>
        <time>2024-10-02T14:41:37Z</time>
      </trkpt>
      <trkpt lat="49.30837" lon="-0.0213">
        <ele>122.8</ele>
        <time>2024-10-02T14:41:38Z</time>
      </trkpt>
      <trkpt lat="49.30835" lon="-0.02139">
        <ele>122.8</ele>
        <time>2024-10-02T14:41:39Z</time>
      </trkpt>
      <trkpt lat="49.30833" lon="-0.02146">
        <ele>123</ele>
        <time>2024-10-02T14:41:40Z</time>
      </trkpt>
      <trkpt lat="49.30831" lon="-0.02155">
        <ele>123.2</ele>
        <time>2024-10-02T14:41:41Z</time>
      </trkpt>
      <trkpt lat="49.30829" lon="-0.02163">
        <ele>123.4</ele>
        <time>2024-10-02T14:41:42Z</time>
      </trkpt>
      <trkpt lat="49.30827" lon="-0.02171">
        <ele>123.6</ele>
        <time>2024-10-02T14:41:43Z</time>
      </trkpt>
      <trkpt lat="49.30825" lon="-0.0218">
        <ele>123.6</ele>
        <time>2024-10-02T14:41:44Z</time>
      </trkpt>
      <trkpt lat="49.30823" lon="-0.02188">
        <ele>123.8</ele>
        <time>2024-10-02T14:41:45Z</time>
      </trkpt>
      <trkpt lat="49.30821" lon="-0.02195">
        <ele>123.8</ele>
        <time>2024-10-02T14:41:46Z</time>
      </trkpt>
      <trkpt lat="49.30819" lon="-0.02205">
        <ele>124</ele>
        <time>2024-10-02T14:41:47Z</time>
      </trkpt>
      <trkpt lat="49.30817" lon="-0.02214">
        <ele>124</ele>
        <time>2024-10-02T14:41:48Z</time>
      </trkpt>
      <trkpt lat="49.30816" lon="-0.0222">
        <ele>124.2</ele>
        <time>2024-10-02T14:41:49Z</time>
      </trkpt>
      <trkpt lat="49.30814" lon="-0.02229">
        <ele>124.2</ele>
        <time>2024-10-02T14:41:50Z</time>
      </trkpt>
      <trkpt lat="49.30811" lon="-0.0224">
        <ele>124.4</ele>
        <time>2024-10-02T14:41:51Z</time>
      </trkpt>
      <trkpt lat="49.30809" lon="-0.02248">
        <ele>124.6</ele>
        <time>2024-10-02T14:41:52Z</time>
      </trkpt>
      <trkpt lat="49.30807" lon="-0.02257">
        <ele>124.8</ele>
        <time>2024-10-02T14:41:53Z</time>
      </trkpt>
      <trkpt lat="49.30804" lon="-0.02266">
        <ele>124.8</ele>
        <time>2024-10-02T14:41:54Z</time>
      </trkpt>
      <trkpt lat="49.30802" lon="-0.02274">
        <ele>124.8</ele>
        <time>2024-10-02T14:41:55Z</time>
      </trkpt>
      <trkpt lat="49.308" lon="-0.02285">
        <ele>125</ele>
        <time>2024-10-02T14:41:56Z</time>
      </trkpt>
      <trkpt lat="49.30797" lon="-0.02294">
        <ele>125</ele>
        <time>2024-10-02T14:41:57Z</time>
      </trkpt>
      <trkpt lat="49.30795" lon="-0.02304">
        <ele>125.2</ele>
        <time>2024-10-02T14:41:58Z</time>
      </trkpt>
      <trkpt lat="49.30792" lon="-0.02313">
        <ele>125.2</ele>
        <time>2024-10-02T14:41:59Z</time>
      </trkpt>
      <trkpt lat="49.3079" lon="-0.02323">
        <ele>125.4</ele>
        <time>2024-10-02T14:42:00Z</time>
      </trkpt>
      <trkpt lat="49.30788" lon="-0.02331">
        <ele>125.4</ele>
        <time>2024-10-02T14:42:01Z</time>
      </trkpt>
      <trkpt lat="49.30785" lon="-0.02342">
        <ele>125.6</ele>
        <time>2024-10-02T14:42:02Z</time>
      </trkpt>
      <trkpt lat="49.30782" lon="-0.02352">
        <ele>125.6</ele>
        <time>2024-10-02T14:42:03Z</time>
      </trkpt>
      <trkpt lat="49.3078" lon="-0.02362">
        <ele>125.6</ele>
        <time>2024-10-02T14:42:04Z</time>
      </trkpt>
      <trkpt lat="49.30777" lon="-0.02372">
        <ele>125.6</ele>
        <time>2024-10-02T14:42:05Z</time>
      </trkpt>
      <trkpt lat="49.30774" lon="-0.02381">
        <ele>125.6</ele>
        <time>2024-10-02T14:42:06Z</time>
      </trkpt>
      <trkpt lat="49.30772" lon="-0.02389">
        <ele>125.8</ele>
        <time>2024-10-02T14:42:07Z</time>
      </trkpt>
      <trkpt lat="49.30769" lon="-0.02401">
        <ele>125.8</ele>
        <time>2024-10-02T14:42:08Z</time>
      </trkpt>
      <trkpt lat="49.30766" lon="-0.0241">
        <ele>125.8</ele>
        <time>2024-10-02T14:42:09Z</time>
      </trkpt>
      <trkpt lat="49.30764" lon="-0.02418">
        <ele>125.8</ele>
        <time>2024-10-02T14:42:10Z</time>
      </trkpt>
      <trkpt lat="49.30761" lon="-0.02428">
        <ele>125.8</ele>
        <time>2024-10-02T14:42:11Z</time>
      </trkpt>
      <trkpt lat="49.30759" lon="-0.02438">
        <ele>126</ele>
        <time>2024-10-02T14:42:12Z</time>
      </trkpt>
      <trkpt lat="49.30756" lon="-0.02449">
        <ele>126</ele>
        <time>2024-10-02T14:42:13Z</time>
      </trkpt>
      <trkpt lat="49.30753" lon="-0.02461">
        <ele>126</ele>
        <time>2024-10-02T14:42:14Z</time>
      </trkpt>
      <trkpt lat="49.30751" lon="-0.02471">
        <ele>126</ele>
        <time>2024-10-02T14:42:15Z</time>
      </trkpt>
      <trkpt lat="49.30748" lon="-0.02481">
        <ele>126</ele>
        <time>2024-10-02T14:42:16Z</time>
      </trkpt>
      <trkpt lat="49.30746" lon="-0.02491">
        <ele>126</ele>
        <time>2024-10-02T14:42:17Z</time>
      </trkpt>
      <trkpt lat="49.30743" lon="-0.02502">
        <ele>126</ele>
        <time>2024-10-02T14:42:18Z</time>
      </trkpt>
      <trkpt lat="49.3074" lon="-0.02512">
        <ele>126.2</ele>
        <time>2024-10-02T14:42:19Z</time>
      </trkpt>
      <trkpt lat="49.30737" lon="-0.02521">
        <ele>126.2</ele>
        <time>2024-10-02T14:42:20Z</time>
      </trkpt>
      <trkpt lat="49.30735" lon="-0.02531">
        <ele>126.2</ele>
        <time>2024-10-02T14:42:21Z</time>
      </trkpt>
      <trkpt lat="49.30733" lon="-0.0254">
        <ele>126.2</ele>
        <time>2024-10-02T14:42:22Z</time>
      </trkpt>
      <trkpt lat="49.30731" lon="-0.0255">
        <ele>126.4</ele>
        <time>2024-10-02T14:42:23Z</time>
      </trkpt>
      <trkpt lat="49.30729" lon="-0.02559">
        <ele>126.4</ele>
        <time>2024-10-02T14:42:24Z</time>
      </trkpt>
      <trkpt lat="49.30727" lon="-0.02568">
        <ele>126.4</ele>
        <time>2024-10-02T14:42:25Z</time>
      </trkpt>
      <trkpt lat="49.30725" lon="-0.02576">
        <ele>126.4</ele>
        <time>2024-10-02T14:42:26Z</time>
      </trkpt>
      <trkpt lat="49.30722" lon="-0.02585">
        <ele>126.4</ele>
        <time>2024-10-02T14:42:27Z</time>
      </trkpt>
      <trkpt lat="49.3072" lon="-0.02591">
        <ele>126.4</ele>
        <time>2024-10-02T14:42:28Z</time>
      </trkpt>
      <trkpt lat="49.30717" lon="-0.026">
        <ele>126.6</ele>
        <time>2024-10-02T14:42:29Z</time>
      </trkpt>
      <trkpt lat="49.30715" lon="-0.02608">
        <ele>126.6</ele>
        <time>2024-10-02T14:42:30Z</time>
      </trkpt>
      <trkpt lat="49.30713" lon="-0.02616">
        <ele>126.6</ele>
        <time>2024-10-02T14:42:31Z</time>
      </trkpt>
      <trkpt lat="49.30712" lon="-0.02622">
        <ele>126.6</ele>
        <time>2024-10-02T14:42:32Z</time>
      </trkpt>
      <trkpt lat="49.3071" lon="-0.0263">
        <ele>126.6</ele>
        <time>2024-10-02T14:42:33Z</time>
      </trkpt>
      <trkpt lat="49.30708" lon="-0.02637">
        <ele>126.8</ele>
        <time>2024-10-02T14:42:34Z</time>
      </trkpt>
      <trkpt lat="49.30707" lon="-0.02644">
        <ele>127</ele>
        <time>2024-10-02T14:42:35Z</time>
      </trkpt>
      <trkpt lat="49.30707" lon="-0.02649">
        <ele>127.2</ele>
        <time>2024-10-02T14:42:36Z</time>
      </trkpt>
      <trkpt lat="49.30707" lon="-0.02655">
        <ele>127.4</ele>
        <time>2024-10-02T14:42:37Z</time>
      </trkpt>
      <trkpt lat="49.30707" lon="-0.0266">
        <ele>127.6</ele>
        <time>2024-10-02T14:42:38Z</time>
      </trkpt>
      <trkpt lat="49.30706" lon="-0.02665">
        <ele>127.8</ele>
        <time>2024-10-02T14:42:39Z</time>
      </trkpt>
      <trkpt lat="49.30705" lon="-0.0267">
        <ele>127.8</ele>
        <time>2024-10-02T14:42:40Z</time>
      </trkpt>
      <trkpt lat="49.30703" lon="-0.02674">
        <ele>127.8</ele>
        <time>2024-10-02T14:42:41Z</time>
      </trkpt>
      <trkpt lat="49.30701" lon="-0.02679">
        <ele>128</ele>
        <time>2024-10-02T14:42:42Z</time>
      </trkpt>
      <trkpt lat="49.307" lon="-0.02683">
        <ele>128</ele>
        <time>2024-10-02T14:42:43Z</time>
      </trkpt>
      <trkpt lat="49.30699" lon="-0.02689">
        <ele>128</ele>
        <time>2024-10-02T14:42:44Z</time>
      </trkpt>
      <trkpt lat="49.30698" lon="-0.02694">
        <ele>128.2</ele>
        <time>2024-10-02T14:42:45Z</time>
      </trkpt>
      <trkpt lat="49.30697" lon="-0.02699">
        <ele>128.2</ele>
        <time>2024-10-02T14:42:46Z</time>
      </trkpt>
      <trkpt lat="49.30696" lon="-0.02704">
        <ele>128.2</ele>
        <time>2024-10-02T14:42:47Z</time>
      </trkpt>
      <trkpt lat="49.30695" lon="-0.02709">
        <ele>128.2</ele>
        <time>2024-10-02T14:42:48Z</time>
      </trkpt>
      <trkpt lat="49.30694" lon="-0.02715">
        <ele>128.2</ele>
        <time>2024-10-02T14:42:49Z</time>
      </trkpt>
      <trkpt lat="49.30693" lon="-0.02719">
        <ele>128.2</ele>
        <time>2024-10-02T14:42:50Z</time>
      </trkpt>
      <trkpt lat="49.30692" lon="-0.02724">
        <ele>128.2</ele>
        <time>2024-10-02T14:42:51Z</time>
      </trkpt>
      <trkpt lat="49.30691" lon="-0.02729">
        <ele>128.2</ele>
        <time>2024-10-02T14:42:52Z</time>
      </trkpt>
      <trkpt lat="49.30689" lon="-0.02734">
        <ele>128.2</ele>
        <time>2024-10-02T14:42:53Z</time>
      </trkpt>
      <trkpt lat="49.30688" lon="-0.02738">
        <ele>128.2</ele>
        <time>2024-10-02T14:42:54Z</time>
      </trkpt>
      <trkpt lat="49.30686" lon="-0.02744">
        <ele>128.2</ele>
        <time>2024-10-02T14:42:55Z</time>
      </trkpt>
      <trkpt lat="49.30685" lon="-0.02749">
        <ele>128.2</ele>
        <time>2024-10-02T14:42:56Z</time>
      </trkpt>
      <trkpt lat="49.30684" lon="-0.02755">
        <ele>128.2</ele>
        <time>2024-10-02T14:42:57Z</time>
      </trkpt>
      <trkpt lat="49.30683" lon="-0.02761">
        <ele>128.2</ele>
        <time>2024-10-02T14:42:58Z</time>
      </trkpt>
      <trkpt lat="49.30681" lon="-0.02767">
        <ele>128.2</ele>
        <time>2024-10-02T14:42:59Z</time>
      </trkpt>
      <trkpt lat="49.3068" lon="-0.02773">
        <ele>128.2</ele>
        <time>2024-10-02T14:43:00Z</time>
      </trkpt>
      <trkpt lat="49.30678" lon="-0.02779">
        <ele>128.2</ele>
        <time>2024-10-02T14:43:01Z</time>
      </trkpt>
      <trkpt lat="49.30677" lon="-0.02785">
        <ele>128.2</ele>
        <time>2024-10-02T14:43:02Z</time>
      </trkpt>
      <trkpt lat="49.30675" lon="-0.02791">
        <ele>128.2</ele>
        <time>2024-10-02T14:43:03Z</time>
      </trkpt>
      <trkpt lat="49.30673" lon="-0.02797">
        <ele>128.2</ele>
        <time>2024-10-02T14:43:04Z</time>
      </trkpt>
      <trkpt lat="49.30672" lon="-0.02803">
        <ele>128</ele>
        <time>2024-10-02T14:43:05Z</time>
      </trkpt>
      <trkpt lat="49.3067" lon="-0.02809">
        <ele>128</ele>
        <time>2024-10-02T14:43:06Z</time>
      </trkpt>
      <trkpt lat="49.30669" lon="-0.02815">
        <ele>128</ele>
        <time>2024-10-02T14:43:07Z</time>
      </trkpt>
      <trkpt lat="49.30667" lon="-0.02821">
        <ele>128</ele>
        <time>2024-10-02T14:43:08Z</time>
      </trkpt>
      <trkpt lat="49.30666" lon="-0.02827">
        <ele>128</ele>
        <time>2024-10-02T14:43:09Z</time>
      </trkpt>
      <trkpt lat="49.30664" lon="-0.02834">
        <ele>127.8</ele>
        <time>2024-10-02T14:43:10Z</time>
      </trkpt>
      <trkpt lat="49.30663" lon="-0.0284">
        <ele>127.8</ele>
        <time>2024-10-02T14:43:11Z</time>
      </trkpt>
      <trkpt lat="49.30661" lon="-0.02847">
        <ele>127.8</ele>
        <time>2024-10-02T14:43:12Z</time>
      </trkpt>
      <trkpt lat="49.3066" lon="-0.02853">
        <ele>127.6</ele>
        <time>2024-10-02T14:43:13Z</time>
      </trkpt>
      <trkpt lat="49.30658" lon="-0.02859">
        <ele>127.6</ele>
        <time>2024-10-02T14:43:14Z</time>
      </trkpt>
      <trkpt lat="49.30657" lon="-0.02866">
        <ele>127.6</ele>
        <time>2024-10-02T14:43:15Z</time>
      </trkpt>
      <trkpt lat="49.30655" lon="-0.02873">
        <ele>127.6</ele>
        <time>2024-10-02T14:43:16Z</time>
      </trkpt>
      <trkpt lat="49.30653" lon="-0.02879">
        <ele>127.6</ele>
        <time>2024-10-02T14:43:17Z</time>
      </trkpt>
      <trkpt lat="49.30651" lon="-0.02886">
        <ele>127.4</ele>
        <time>2024-10-02T14:43:18Z</time>
      </trkpt>
      <trkpt lat="49.3065" lon="-0.02892">
        <ele>127.4</ele>
        <time>2024-10-02T14:43:19Z</time>
      </trkpt>
      <trkpt lat="49.30648" lon="-0.02898">
        <ele>127.2</ele>
        <time>2024-10-02T14:43:20Z</time>
      </trkpt>
      <trkpt lat="49.30647" lon="-0.02905">
        <ele>127.2</ele>
        <time>2024-10-02T14:43:21Z</time>
      </trkpt>
      <trkpt lat="49.30645" lon="-0.0291">
        <ele>127</ele>
        <time>2024-10-02T14:43:22Z</time>
      </trkpt>
      <trkpt lat="49.30643" lon="-0.02918">
        <ele>127</ele>
        <time>2024-10-02T14:43:23Z</time>
      </trkpt>
      <trkpt lat="49.30641" lon="-0.02924">
        <ele>126.8</ele>
        <time>2024-10-02T14:43:24Z</time>
      </trkpt>
      <trkpt lat="49.30639" lon="-0.0293">
        <ele>126.8</ele>
        <time>2024-10-02T14:43:25Z</time>
      </trkpt>
      <trkpt lat="49.30637" lon="-0.02937">
        <ele>126.6</ele>
        <time>2024-10-02T14:43:26Z</time>
      </trkpt>
      <trkpt lat="49.30636" lon="-0.02943">
        <ele>126.6</ele>
        <time>2024-10-02T14:43:27Z</time>
      </trkpt>
      <trkpt lat="49.30635" lon="-0.02949">
        <ele>126.6</ele>
        <time>2024-10-02T14:43:28Z</time>
      </trkpt>
      <trkpt lat="49.30634" lon="-0.02955">
        <ele>126.6</ele>
        <time>2024-10-02T14:43:29Z</time>
      </trkpt>
      <trkpt lat="49.30633" lon="-0.02961">
        <ele>126.4</ele>
        <time>2024-10-02T14:43:30Z</time>
      </trkpt>
      <trkpt lat="49.30631" lon="-0.02965">
        <ele>126.4</ele>
        <time>2024-10-02T14:43:31Z</time>
      </trkpt>
      <trkpt lat="49.3063" lon="-0.02969">
        <ele>126.4</ele>
        <time>2024-10-02T14:43:32Z</time>
      </trkpt>
      <trkpt lat="49.30629" lon="-0.02973">
        <ele>126.4</ele>
        <time>2024-10-02T14:43:33Z</time>
      </trkpt>
      <trkpt lat="49.30627" lon="-0.02976">
        <ele>126.4</ele>
        <time>2024-10-02T14:43:34Z</time>
      </trkpt>
      <trkpt lat="49.30626" lon="-0.02979">
        <ele>126.4</ele>
        <time>2024-10-02T14:43:35Z</time>
      </trkpt>
      <trkpt lat="49.30625" lon="-0.02983">
        <ele>126.4</ele>
        <time>2024-10-02T14:43:36Z</time>
      </trkpt>
      <trkpt lat="49.30625" lon="-0.02986">
        <ele>126.4</ele>
        <time>2024-10-02T14:43:37Z</time>
      </trkpt>
      <trkpt lat="49.30623" lon="-0.02991">
        <ele>126.4</ele>
        <time>2024-10-02T14:43:38Z</time>
      </trkpt>
      <trkpt lat="49.30622" lon="-0.02995">
        <ele>126.4</ele>
        <time>2024-10-02T14:43:39Z</time>
      </trkpt>
      <trkpt lat="49.30621" lon="-0.03">
        <ele>126.4</ele>
        <time>2024-10-02T14:43:40Z</time>
      </trkpt>
      <trkpt lat="49.30619" lon="-0.03005">
        <ele>126.4</ele>
        <time>2024-10-02T14:43:41Z</time>
      </trkpt>
      <trkpt lat="49.30618" lon="-0.0301">
        <ele>126.4</ele>
        <time>2024-10-02T14:43:42Z</time>
      </trkpt>
      <trkpt lat="49.30617" lon="-0.03015">
        <ele>126.4</ele>
        <time>2024-10-02T14:43:43Z</time>
      </trkpt>
      <trkpt lat="49.30616" lon="-0.03021">
        <ele>126.4</ele>
        <time>2024-10-02T14:43:44Z</time>
      </trkpt>
      <trkpt lat="49.30615" lon="-0.03026">
        <ele>126.4</ele>
        <time>2024-10-02T14:43:45Z</time>
      </trkpt>
      <trkpt lat="49.30614" lon="-0.03031">
        <ele>126.2</ele>
        <time>2024-10-02T14:43:46Z</time>
      </trkpt>
      <trkpt lat="49.30613" lon="-0.03037">
        <ele>126.2</ele>
        <time>2024-10-02T14:43:47Z</time>
      </trkpt>
      <trkpt lat="49.30611" lon="-0.03043">
        <ele>126.2</ele>
        <time>2024-10-02T14:43:48Z</time>
      </trkpt>
      <trkpt lat="49.30609" lon="-0.0305">
        <ele>126.2</ele>
        <time>2024-10-02T14:43:49Z</time>
      </trkpt>
      <trkpt lat="49.30606" lon="-0.03058">
        <ele>126</ele>
        <time>2024-10-02T14:43:50Z</time>
      </trkpt>
      <trkpt lat="49.30603" lon="-0.03066">
        <ele>126</ele>
        <time>2024-10-02T14:43:51Z</time>
      </trkpt>
      <trkpt lat="49.30601" lon="-0.03075">
        <ele>126</ele>
        <time>2024-10-02T14:43:52Z</time>
      </trkpt>
      <trkpt lat="49.30599" lon="-0.03083">
        <ele>126</ele>
        <time>2024-10-02T14:43:53Z</time>
      </trkpt>
      <trkpt lat="49.30596" lon="-0.03092">
        <ele>126</ele>
        <time>2024-10-02T14:43:54Z</time>
      </trkpt>
      <trkpt lat="49.30594" lon="-0.03101">
        <ele>125.8</ele>
        <time>2024-10-02T14:43:55Z</time>
      </trkpt>
      <trkpt lat="49.30592" lon="-0.0311">
        <ele>125.8</ele>
        <time>2024-10-02T14:43:56Z</time>
      </trkpt>
      <trkpt lat="49.30589" lon="-0.0312">
        <ele>125.8</ele>
        <time>2024-10-02T14:43:57Z</time>
      </trkpt>
      <trkpt lat="49.30587" lon="-0.0313">
        <ele>125.8</ele>
        <time>2024-10-02T14:43:58Z</time>
      </trkpt>
      <trkpt lat="49.30584" lon="-0.0314">
        <ele>125.6</ele>
        <time>2024-10-02T14:43:59Z</time>
      </trkpt>
      <trkpt lat="49.30581" lon="-0.03149">
        <ele>125.6</ele>
        <time>2024-10-02T14:44:00Z</time>
      </trkpt>
      <trkpt lat="49.30578" lon="-0.03159">
        <ele>125.4</ele>
        <time>2024-10-02T14:44:01Z</time>
      </trkpt>
      <trkpt lat="49.30575" lon="-0.03169">
        <ele>125.4</ele>
        <time>2024-10-02T14:44:02Z</time>
      </trkpt>
      <trkpt lat="49.30572" lon="-0.0318">
        <ele>125.2</ele>
        <time>2024-10-02T14:44:03Z</time>
      </trkpt>
      <trkpt lat="49.30569" lon="-0.0319">
        <ele>125.2</ele>
        <time>2024-10-02T14:44:04Z</time>
      </trkpt>
      <trkpt lat="49.30566" lon="-0.03201">
        <ele>125.2</ele>
        <time>2024-10-02T14:44:05Z</time>
      </trkpt>
      <trkpt lat="49.30563" lon="-0.03212">
        <ele>125</ele>
        <time>2024-10-02T14:44:06Z</time>
      </trkpt>
      <trkpt lat="49.3056" lon="-0.03222">
        <ele>125</ele>
        <time>2024-10-02T14:44:07Z</time>
      </trkpt>
      <trkpt lat="49.30557" lon="-0.03233">
        <ele>125</ele>
        <time>2024-10-02T14:44:08Z</time>
      </trkpt>
      <trkpt lat="49.30554" lon="-0.03244">
        <ele>124.8</ele>
        <time>2024-10-02T14:44:09Z</time>
      </trkpt>
      <trkpt lat="49.30551" lon="-0.03255">
        <ele>124.8</ele>
        <time>2024-10-02T14:44:10Z</time>
      </trkpt>
      <trkpt lat="49.30548" lon="-0.03266">
        <ele>124.8</ele>
        <time>2024-10-02T14:44:11Z</time>
      </trkpt>
      <trkpt lat="49.30545" lon="-0.03277">
        <ele>124.8</ele>
        <time>2024-10-02T14:44:12Z</time>
      </trkpt>
      <trkpt lat="49.30542" lon="-0.03287">
        <ele>124.8</ele>
        <time>2024-10-02T14:44:13Z</time>
      </trkpt>
      <trkpt lat="49.30539" lon="-0.03298">
        <ele>124.8</ele>
        <time>2024-10-02T14:44:14Z</time>
      </trkpt>
      <trkpt lat="49.30536" lon="-0.0331">
        <ele>124.8</ele>
        <time>2024-10-02T14:44:15Z</time>
      </trkpt>
      <trkpt lat="49.30533" lon="-0.03322">
        <ele>124.6</ele>
        <time>2024-10-02T14:44:16Z</time>
      </trkpt>
      <trkpt lat="49.3053" lon="-0.03334">
        <ele>124.6</ele>
        <time>2024-10-02T14:44:17Z</time>
      </trkpt>
      <trkpt lat="49.30527" lon="-0.03346">
        <ele>124.6</ele>
        <time>2024-10-02T14:44:18Z</time>
      </trkpt>
      <trkpt lat="49.30524" lon="-0.03358">
        <ele>124.6</ele>
        <time>2024-10-02T14:44:19Z</time>
      </trkpt>
      <trkpt lat="49.3052" lon="-0.03371">
        <ele>124.6</ele>
        <time>2024-10-02T14:44:20Z</time>
      </trkpt>
      <trkpt lat="49.30517" lon="-0.03384">
        <ele>124.4</ele>
        <time>2024-10-02T14:44:21Z</time>
      </trkpt>
      <trkpt lat="49.30513" lon="-0.03396">
        <ele>124.4</ele>
        <time>2024-10-02T14:44:22Z</time>
      </trkpt>
      <trkpt lat="49.3051" lon="-0.03408">
        <ele>124.4</ele>
        <time>2024-10-02T14:44:23Z</time>
      </trkpt>
      <trkpt lat="49.30506" lon="-0.03421">
        <ele>124.4</ele>
        <time>2024-10-02T14:44:24Z</time>
      </trkpt>
      <trkpt lat="49.30502" lon="-0.03433">
        <ele>124.2</ele>
        <time>2024-10-02T14:44:25Z</time>
      </trkpt>
      <trkpt lat="49.30498" lon="-0.03445">
        <ele>124.2</ele>
        <time>2024-10-02T14:44:26Z</time>
      </trkpt>
      <trkpt lat="49.30493" lon="-0.03456">
        <ele>124</ele>
        <time>2024-10-02T14:44:27Z</time>
      </trkpt>
      <trkpt lat="49.30488" lon="-0.03467">
        <ele>124</ele>
        <time>2024-10-02T14:44:28Z</time>
      </trkpt>
      <trkpt lat="49.30482" lon="-0.03478">
        <ele>123.8</ele>
        <time>2024-10-02T14:44:29Z</time>
      </trkpt>
      <trkpt lat="49.30476" lon="-0.03488">
        <ele>123.8</ele>
        <time>2024-10-02T14:44:30Z</time>
      </trkpt>
      <trkpt lat="49.30469" lon="-0.03498">
        <ele>123.8</ele>
        <time>2024-10-02T14:44:31Z</time>
      </trkpt>
      <trkpt lat="49.30463" lon="-0.03507">
        <ele>123.6</ele>
        <time>2024-10-02T14:44:32Z</time>
      </trkpt>
      <trkpt lat="49.30456" lon="-0.03515">
        <ele>123.6</ele>
        <time>2024-10-02T14:44:33Z</time>
      </trkpt>
      <trkpt lat="49.3045" lon="-0.03522">
        <ele>123.6</ele>
        <time>2024-10-02T14:44:34Z</time>
      </trkpt>
      <trkpt lat="49.30441" lon="-0.03532">
        <ele>123.6</ele>
        <time>2024-10-02T14:44:35Z</time>
      </trkpt>
      <trkpt lat="49.30434" lon="-0.0354">
        <ele>123.6</ele>
        <time>2024-10-02T14:44:36Z</time>
      </trkpt>
      <trkpt lat="49.30426" lon="-0.03549">
        <ele>123.6</ele>
        <time>2024-10-02T14:44:37Z</time>
      </trkpt>
      <trkpt lat="49.30418" lon="-0.03557">
        <ele>123.6</ele>
        <time>2024-10-02T14:44:38Z</time>
      </trkpt>
      <trkpt lat="49.30411" lon="-0.03565">
        <ele>123.4</ele>
        <time>2024-10-02T14:44:39Z</time>
      </trkpt>
      <trkpt lat="49.30403" lon="-0.03573">
        <ele>123.4</ele>
        <time>2024-10-02T14:44:40Z</time>
      </trkpt>
      <trkpt lat="49.30395" lon="-0.03582">
        <ele>123.4</ele>
        <time>2024-10-02T14:44:41Z</time>
      </trkpt>
      <trkpt lat="49.30387" lon="-0.0359">
        <ele>123.4</ele>
        <time>2024-10-02T14:44:42Z</time>
      </trkpt>
      <trkpt lat="49.3038" lon="-0.03598">
        <ele>123.2</ele>
        <time>2024-10-02T14:44:43Z</time>
      </trkpt>
      <trkpt lat="49.30372" lon="-0.03607">
        <ele>123</ele>
        <time>2024-10-02T14:44:44Z</time>
      </trkpt>
      <trkpt lat="49.30365" lon="-0.03616">
        <ele>122.8</ele>
        <time>2024-10-02T14:44:45Z</time>
      </trkpt>
      <trkpt lat="49.30359" lon="-0.03623">
        <ele>122.4</ele>
        <time>2024-10-02T14:44:46Z</time>
      </trkpt>
      <trkpt lat="49.30351" lon="-0.03635">
        <ele>122.4</ele>
        <time>2024-10-02T14:44:47Z</time>
      </trkpt>
      <trkpt lat="49.30344" lon="-0.03646">
        <ele>122.2</ele>
        <time>2024-10-02T14:44:48Z</time>
      </trkpt>
      <trkpt lat="49.30338" lon="-0.03657">
        <ele>122.2</ele>
        <time>2024-10-02T14:44:49Z</time>
      </trkpt>
      <trkpt lat="49.30332" lon="-0.03668">
        <ele>122</ele>
        <time>2024-10-02T14:44:50Z</time>
      </trkpt>
      <trkpt lat="49.30327" lon="-0.0368">
        <ele>122</ele>
        <time>2024-10-02T14:44:51Z</time>
      </trkpt>
      <trkpt lat="49.30322" lon="-0.03692">
        <ele>121.8</ele>
        <time>2024-10-02T14:44:52Z</time>
      </trkpt>
      <trkpt lat="49.30317" lon="-0.03705">
        <ele>121.6</ele>
        <time>2024-10-02T14:44:53Z</time>
      </trkpt>
      <trkpt lat="49.30312" lon="-0.03718">
        <ele>121.6</ele>
        <time>2024-10-02T14:44:54Z</time>
      </trkpt>
      <trkpt lat="49.30308" lon="-0.03731">
        <ele>121.4</ele>
        <time>2024-10-02T14:44:55Z</time>
      </trkpt>
      <trkpt lat="49.30303" lon="-0.03744">
        <ele>121.2</ele>
        <time>2024-10-02T14:44:56Z</time>
      </trkpt>
      <trkpt lat="49.30299" lon="-0.03757">
        <ele>121</ele>
        <time>2024-10-02T14:44:57Z</time>
      </trkpt>
      <trkpt lat="49.30294" lon="-0.0377">
        <ele>120.8</ele>
        <time>2024-10-02T14:44:58Z</time>
      </trkpt>
      <trkpt lat="49.3029" lon="-0.03783">
        <ele>120.6</ele>
        <time>2024-10-02T14:44:59Z</time>
      </trkpt>
      <trkpt lat="49.30286" lon="-0.03796">
        <ele>120.4</ele>
        <time>2024-10-02T14:45:00Z</time>
      </trkpt>
      <trkpt lat="49.30281" lon="-0.03809">
        <ele>120.2</ele>
        <time>2024-10-02T14:45:01Z</time>
      </trkpt>
      <trkpt lat="49.30278" lon="-0.03819">
        <ele>120</ele>
        <time>2024-10-02T14:45:02Z</time>
      </trkpt>
      <trkpt lat="49.30273" lon="-0.03835">
        <ele>120</ele>
        <time>2024-10-02T14:45:03Z</time>
      </trkpt>
      <trkpt lat="49.30268" lon="-0.03847">
        <ele>119.8</ele>
        <time>2024-10-02T14:45:04Z</time>
      </trkpt>
      <trkpt lat="49.30264" lon="-0.0386">
        <ele>119.8</ele>
        <time>2024-10-02T14:45:05Z</time>
      </trkpt>
      <trkpt lat="49.30259" lon="-0.03873">
        <ele>119.8</ele>
        <time>2024-10-02T14:45:06Z</time>
      </trkpt>
      <trkpt lat="49.30254" lon="-0.03885">
        <ele>119.6</ele>
        <time>2024-10-02T14:45:07Z</time>
      </trkpt>
      <trkpt lat="49.30249" lon="-0.03898">
        <ele>119.6</ele>
        <time>2024-10-02T14:45:08Z</time>
      </trkpt>
      <trkpt lat="49.30243" lon="-0.0391">
        <ele>119.6</ele>
        <time>2024-10-02T14:45:09Z</time>
      </trkpt>
      <trkpt lat="49.30237" lon="-0.03921">
        <ele>119.4</ele>
        <time>2024-10-02T14:45:10Z</time>
      </trkpt>
      <trkpt lat="49.3023" lon="-0.03931">
        <ele>119.4</ele>
        <time>2024-10-02T14:45:11Z</time>
      </trkpt>
      <trkpt lat="49.30222" lon="-0.03941">
        <ele>119.4</ele>
        <time>2024-10-02T14:45:12Z</time>
      </trkpt>
      <trkpt lat="49.30215" lon="-0.03949">
        <ele>119.4</ele>
        <time>2024-10-02T14:45:13Z</time>
      </trkpt>
      <trkpt lat="49.30207" lon="-0.03957">
        <ele>119.4</ele>
        <time>2024-10-02T14:45:14Z</time>
      </trkpt>
      <trkpt lat="49.30199" lon="-0.03964">
        <ele>119.4</ele>
        <time>2024-10-02T14:45:15Z</time>
      </trkpt>
      <trkpt lat="49.3019" lon="-0.0397">
        <ele>119.4</ele>
        <time>2024-10-02T14:45:16Z</time>
      </trkpt>
      <trkpt lat="49.30182" lon="-0.03976">
        <ele>119.4</ele>
        <time>2024-10-02T14:45:17Z</time>
      </trkpt>
      <trkpt lat="49.30173" lon="-0.0398">
        <ele>119.4</ele>
        <time>2024-10-02T14:45:18Z</time>
      </trkpt>
      <trkpt lat="49.30163" lon="-0.03984">
        <ele>119.2</ele>
        <time>2024-10-02T14:45:19Z</time>
      </trkpt>
      <trkpt lat="49.30153" lon="-0.03988">
        <ele>119.2</ele>
        <time>2024-10-02T14:45:20Z</time>
      </trkpt>
      <trkpt lat="49.30143" lon="-0.03993">
        <ele>119.2</ele>
        <time>2024-10-02T14:45:21Z</time>
      </trkpt>
      <trkpt lat="49.30133" lon="-0.03998">
        <ele>119.2</ele>
        <time>2024-10-02T14:45:22Z</time>
      </trkpt>
      <trkpt lat="49.30122" lon="-0.04004">
        <ele>119.2</ele>
        <time>2024-10-02T14:45:23Z</time>
      </trkpt>
      <trkpt lat="49.30111" lon="-0.0401">
        <ele>119.2</ele>
        <time>2024-10-02T14:45:24Z</time>
      </trkpt>
      <trkpt lat="49.30099" lon="-0.04018">
        <ele>119.2</ele>
        <time>2024-10-02T14:45:25Z</time>
      </trkpt>
      <trkpt lat="49.30088" lon="-0.04026">
        <ele>119.2</ele>
        <time>2024-10-02T14:45:26Z</time>
      </trkpt>
      <trkpt lat="49.30077" lon="-0.04036">
        <ele>119.2</ele>
        <time>2024-10-02T14:45:27Z</time>
      </trkpt>
      <trkpt lat="49.30066" lon="-0.04047">
        <ele>119</ele>
        <time>2024-10-02T14:45:28Z</time>
      </trkpt>
      <trkpt lat="49.30055" lon="-0.04059">
        <ele>118.6</ele>
        <time>2024-10-02T14:45:29Z</time>
      </trkpt>
      <trkpt lat="49.30044" lon="-0.04073">
        <ele>118</ele>
        <time>2024-10-02T14:45:30Z</time>
      </trkpt>
      <trkpt lat="49.30034" lon="-0.04087">
        <ele>117.4</ele>
        <time>2024-10-02T14:45:31Z</time>
      </trkpt>
      <trkpt lat="49.30023" lon="-0.04102">
        <ele>116.4</ele>
        <time>2024-10-02T14:45:32Z</time>
      </trkpt>
      <trkpt lat="49.30015" lon="-0.04115">
        <ele>115</ele>
        <time>2024-10-02T14:45:33Z</time>
      </trkpt>
      <trkpt lat="49.30002" lon="-0.04134">
        <ele>113.6</ele>
        <time>2024-10-02T14:45:34Z</time>
      </trkpt>
      <trkpt lat="49.29991" lon="-0.0415">
        <ele>112.4</ele>
        <time>2024-10-02T14:45:35Z</time>
      </trkpt>
      <trkpt lat="49.2998" lon="-0.04166">
        <ele>111.4</ele>
        <time>2024-10-02T14:45:36Z</time>
      </trkpt>
      <trkpt lat="49.29968" lon="-0.0418">
        <ele>110</ele>
        <time>2024-10-02T14:45:37Z</time>
      </trkpt>
      <trkpt lat="49.29955" lon="-0.04193">
        <ele>108.4</ele>
        <time>2024-10-02T14:45:38Z</time>
      </trkpt>
      <trkpt lat="49.29942" lon="-0.04205">
        <ele>106.8</ele>
        <time>2024-10-02T14:45:39Z</time>
      </trkpt>
      <trkpt lat="49.29928" lon="-0.04216">
        <ele>105.4</ele>
        <time>2024-10-02T14:45:40Z</time>
      </trkpt>
      <trkpt lat="49.29914" lon="-0.04225">
        <ele>104</ele>
        <time>2024-10-02T14:45:41Z</time>
      </trkpt>
      <trkpt lat="49.299" lon="-0.04234">
        <ele>102.4</ele>
        <time>2024-10-02T14:45:42Z</time>
      </trkpt>
      <trkpt lat="49.29886" lon="-0.04244">
        <ele>101</ele>
        <time>2024-10-02T14:45:43Z</time>
      </trkpt>
      <trkpt lat="49.29871" lon="-0.04254">
        <ele>99.6</ele>
        <time>2024-10-02T14:45:44Z</time>
      </trkpt>
      <trkpt lat="49.29857" lon="-0.04266">
        <ele>98</ele>
        <time>2024-10-02T14:45:45Z</time>
      </trkpt>
      <trkpt lat="49.29844" lon="-0.04279">
        <ele>98</ele>
        <time>2024-10-02T14:45:46Z</time>
      </trkpt>
      <trkpt lat="49.29831" lon="-0.04295">
        <ele>96.4</ele>
        <time>2024-10-02T14:45:47Z</time>
      </trkpt>
      <trkpt lat="49.2982" lon="-0.04313">
        <ele>95</ele>
        <time>2024-10-02T14:45:48Z</time>
      </trkpt>
      <trkpt lat="49.2981" lon="-0.04332">
        <ele>93</ele>
        <time>2024-10-02T14:45:49Z</time>
      </trkpt>
      <trkpt lat="49.29801" lon="-0.04353">
        <ele>91.4</ele>
        <time>2024-10-02T14:45:50Z</time>
      </trkpt>
      <trkpt lat="49.29795" lon="-0.04376">
        <ele>89.6</ele>
        <time>2024-10-02T14:45:51Z</time>
      </trkpt>
      <trkpt lat="49.29789" lon="-0.04399">
        <ele>88</ele>
        <time>2024-10-02T14:45:52Z</time>
      </trkpt>
      <trkpt lat="49.29784" lon="-0.04423">
        <ele>87.2</ele>
        <time>2024-10-02T14:45:53Z</time>
      </trkpt>
      <trkpt lat="49.29779" lon="-0.04448">
        <ele>85.8</ele>
        <time>2024-10-02T14:45:54Z</time>
      </trkpt>
      <trkpt lat="49.29774" lon="-0.04471">
        <ele>84</ele>
        <time>2024-10-02T14:45:55Z</time>
      </trkpt>
      <trkpt lat="49.29769" lon="-0.04495">
        <ele>82.6</ele>
        <time>2024-10-02T14:45:56Z</time>
      </trkpt>
      <trkpt lat="49.29763" lon="-0.04518">
        <ele>81</ele>
        <time>2024-10-02T14:45:57Z</time>
      </trkpt>
      <trkpt lat="49.29757" lon="-0.0454">
        <ele>79.6</ele>
        <time>2024-10-02T14:45:58Z</time>
      </trkpt>
      <trkpt lat="49.2975" lon="-0.04562">
        <ele>77.4</ele>
        <time>2024-10-02T14:45:59Z</time>
      </trkpt>
      <trkpt lat="49.29742" lon="-0.04583">
        <ele>74.8</ele>
        <time>2024-10-02T14:46:00Z</time>
      </trkpt>
      <trkpt lat="49.29734" lon="-0.04604">
        <ele>72.2</ele>
        <time>2024-10-02T14:46:01Z</time>
      </trkpt>
      <trkpt lat="49.29725" lon="-0.04625">
        <ele>69.8</ele>
        <time>2024-10-02T14:46:02Z</time>
      </trkpt>
      <trkpt lat="49.29717" lon="-0.04645">
        <ele>67.4</ele>
        <time>2024-10-02T14:46:03Z</time>
      </trkpt>
      <trkpt lat="49.29709" lon="-0.04666">
        <ele>65</ele>
        <time>2024-10-02T14:46:04Z</time>
      </trkpt>
      <trkpt lat="49.29702" lon="-0.04686">
        <ele>63.6</ele>
        <time>2024-10-02T14:46:05Z</time>
      </trkpt>
      <trkpt lat="49.29696" lon="-0.04706">
        <ele>62.6</ele>
        <time>2024-10-02T14:46:06Z</time>
      </trkpt>
      <trkpt lat="49.29691" lon="-0.04726">
        <ele>62.6</ele>
        <time>2024-10-02T14:46:07Z</time>
      </trkpt>
      <trkpt lat="49.29686" lon="-0.04747">
        <ele>61.8</ele>
        <time>2024-10-02T14:46:08Z</time>
      </trkpt>
      <trkpt lat="49.29683" lon="-0.04768">
        <ele>61</ele>
        <time>2024-10-02T14:46:09Z</time>
      </trkpt>
      <trkpt lat="49.29681" lon="-0.04789">
        <ele>60.6</ele>
        <time>2024-10-02T14:46:10Z</time>
      </trkpt>
      <trkpt lat="49.2968" lon="-0.04811">
        <ele>60.2</ele>
        <time>2024-10-02T14:46:11Z</time>
      </trkpt>
      <trkpt lat="49.2968" lon="-0.04833">
        <ele>59.6</ele>
        <time>2024-10-02T14:46:12Z</time>
      </trkpt>
      <trkpt lat="49.2968" lon="-0.04855">
        <ele>58.4</ele>
        <time>2024-10-02T14:46:13Z</time>
      </trkpt>
      <trkpt lat="49.29682" lon="-0.04877">
        <ele>58</ele>
        <time>2024-10-02T14:46:14Z</time>
      </trkpt>
      <trkpt lat="49.29684" lon="-0.04898">
        <ele>57.4</ele>
        <time>2024-10-02T14:46:15Z</time>
      </trkpt>
      <trkpt lat="49.29686" lon="-0.04919">
        <ele>57.4</ele>
        <time>2024-10-02T14:46:16Z</time>
      </trkpt>
      <trkpt lat="49.29689" lon="-0.04941">
        <ele>57</ele>
        <time>2024-10-02T14:46:17Z</time>
      </trkpt>
      <trkpt lat="49.29693" lon="-0.04961">
        <ele>56.6</ele>
        <time>2024-10-02T14:46:18Z</time>
      </trkpt>
      <trkpt lat="49.29696" lon="-0.04982">
        <ele>56.2</ele>
        <time>2024-10-02T14:46:19Z</time>
      </trkpt>
      <trkpt lat="49.297" lon="-0.05003">
        <ele>55.8</ele>
        <time>2024-10-02T14:46:20Z</time>
      </trkpt>
      <trkpt lat="49.29704" lon="-0.05024">
        <ele>55.2</ele>
        <time>2024-10-02T14:46:21Z</time>
      </trkpt>
      <trkpt lat="49.29708" lon="-0.05044">
        <ele>54.2</ele>
        <time>2024-10-02T14:46:22Z</time>
      </trkpt>
      <trkpt lat="49.29712" lon="-0.05065">
        <ele>53.4</ele>
        <time>2024-10-02T14:46:23Z</time>
      </trkpt>
      <trkpt lat="49.29716" lon="-0.05085">
        <ele>52.8</ele>
        <time>2024-10-02T14:46:24Z</time>
      </trkpt>
      <trkpt lat="49.2972" lon="-0.05106">
        <ele>52.4</ele>
        <time>2024-10-02T14:46:25Z</time>
      </trkpt>
      <trkpt lat="49.29724" lon="-0.05126">
        <ele>51.4</ele>
        <time>2024-10-02T14:46:26Z</time>
      </trkpt>
      <trkpt lat="49.29728" lon="-0.05146">
        <ele>50.8</ele>
        <time>2024-10-02T14:46:27Z</time>
      </trkpt>
      <trkpt lat="49.29732" lon="-0.05167">
        <ele>50.8</ele>
        <time>2024-10-02T14:46:28Z</time>
      </trkpt>
      <trkpt lat="49.29735" lon="-0.05186">
        <ele>50.2</ele>
        <time>2024-10-02T14:46:29Z</time>
      </trkpt>
      <trkpt lat="49.29739" lon="-0.05206">
        <ele>49.2</ele>
        <time>2024-10-02T14:46:30Z</time>
      </trkpt>
      <trkpt lat="49.29743" lon="-0.05225">
        <ele>48.6</ele>
        <time>2024-10-02T14:46:31Z</time>
      </trkpt>
      <trkpt lat="49.29747" lon="-0.05243">
        <ele>47.8</ele>
        <time>2024-10-02T14:46:32Z</time>
      </trkpt>
      <trkpt lat="49.29751" lon="-0.05262">
        <ele>47.2</ele>
        <time>2024-10-02T14:46:33Z</time>
      </trkpt>
      <trkpt lat="49.29756" lon="-0.0528">
        <ele>46.6</ele>
        <time>2024-10-02T14:46:34Z</time>
      </trkpt>
      <trkpt lat="49.29762" lon="-0.05297">
        <ele>45.4</ele>
        <time>2024-10-02T14:46:35Z</time>
      </trkpt>
      <trkpt lat="49.29768" lon="-0.05314">
        <ele>44.4</ele>
        <time>2024-10-02T14:46:36Z</time>
      </trkpt>
      <trkpt lat="49.29773" lon="-0.05331">
        <ele>43.6</ele>
        <time>2024-10-02T14:46:37Z</time>
      </trkpt>
      <trkpt lat="49.29779" lon="-0.05348">
        <ele>42.6</ele>
        <time>2024-10-02T14:46:38Z</time>
      </trkpt>
      <trkpt lat="49.29785" lon="-0.05364">
        <ele>41.4</ele>
        <time>2024-10-02T14:46:39Z</time>
      </trkpt>
      <trkpt lat="49.29791" lon="-0.0538">
        <ele>40.6</ele>
        <time>2024-10-02T14:46:40Z</time>
      </trkpt>
      <trkpt lat="49.29797" lon="-0.05397">
        <ele>39.8</ele>
        <time>2024-10-02T14:46:41Z</time>
      </trkpt>
      <trkpt lat="49.29803" lon="-0.05413">
        <ele>39.4</ele>
        <time>2024-10-02T14:46:42Z</time>
      </trkpt>
      <trkpt lat="49.29809" lon="-0.0543">
        <ele>39.2</ele>
        <time>2024-10-02T14:46:43Z</time>
      </trkpt>
      <trkpt lat="49.29814" lon="-0.05447">
        <ele>39</ele>
        <time>2024-10-02T14:46:44Z</time>
      </trkpt>
      <trkpt lat="49.29819" lon="-0.05464">
        <ele>38.6</ele>
        <time>2024-10-02T14:46:45Z</time>
      </trkpt>
      <trkpt lat="49.29823" lon="-0.05482">
        <ele>37.6</ele>
        <time>2024-10-02T14:46:46Z</time>
      </trkpt>
      <trkpt lat="49.29825" lon="-0.05499">
        <ele>37.2</ele>
        <time>2024-10-02T14:46:47Z</time>
      </trkpt>
      <trkpt lat="49.29827" lon="-0.05517">
        <ele>36.6</ele>
        <time>2024-10-02T14:46:48Z</time>
      </trkpt>
      <trkpt lat="49.29828" lon="-0.05534">
        <ele>36.6</ele>
        <time>2024-10-02T14:46:49Z</time>
      </trkpt>
      <trkpt lat="49.29827" lon="-0.0555">
        <ele>36</ele>
        <time>2024-10-02T14:46:50Z</time>
      </trkpt>
      <trkpt lat="49.29826" lon="-0.05566">
        <ele>35.6</ele>
        <time>2024-10-02T14:46:51Z</time>
      </trkpt>
      <trkpt lat="49.29824" lon="-0.05582">
        <ele>35.2</ele>
        <time>2024-10-02T14:46:52Z</time>
      </trkpt>
      <trkpt lat="49.29821" lon="-0.05598">
        <ele>35.2</ele>
        <time>2024-10-02T14:46:53Z</time>
      </trkpt>
      <trkpt lat="49.29818" lon="-0.05614">
        <ele>35</ele>
        <time>2024-10-02T14:46:54Z</time>
      </trkpt>
      <trkpt lat="49.29815" lon="-0.05629">
        <ele>35</ele>
        <time>2024-10-02T14:46:55Z</time>
      </trkpt>
      <trkpt lat="49.29812" lon="-0.05645">
        <ele>35</ele>
        <time>2024-10-02T14:46:56Z</time>
      </trkpt>
      <trkpt lat="49.29809" lon="-0.0566">
        <ele>34.8</ele>
        <time>2024-10-02T14:46:57Z</time>
      </trkpt>
      <trkpt lat="49.29806" lon="-0.05675">
        <ele>34.8</ele>
        <time>2024-10-02T14:46:58Z</time>
      </trkpt>
      <trkpt lat="49.29802" lon="-0.05691">
        <ele>34.8</ele>
        <time>2024-10-02T14:46:59Z</time>
      </trkpt>
      <trkpt lat="49.29799" lon="-0.05706">
        <ele>34.6</ele>
        <time>2024-10-02T14:47:00Z</time>
      </trkpt>
      <trkpt lat="49.29797" lon="-0.05721">
        <ele>34.6</ele>
        <time>2024-10-02T14:47:01Z</time>
      </trkpt>
      <trkpt lat="49.29794" lon="-0.05737">
        <ele>34.6</ele>
        <time>2024-10-02T14:47:02Z</time>
      </trkpt>
      <trkpt lat="49.29792" lon="-0.05753">
        <ele>34.6</ele>
        <time>2024-10-02T14:47:03Z</time>
      </trkpt>
      <trkpt lat="49.29789" lon="-0.05768">
        <ele>34.6</ele>
        <time>2024-10-02T14:47:04Z</time>
      </trkpt>
      <trkpt lat="49.29787" lon="-0.05783">
        <ele>34.6</ele>
        <time>2024-10-02T14:47:05Z</time>
      </trkpt>
      <trkpt lat="49.29786" lon="-0.05798">
        <ele>34.8</ele>
        <time>2024-10-02T14:47:06Z</time>
      </trkpt>
      <trkpt lat="49.29784" lon="-0.05813">
        <ele>34.8</ele>
        <time>2024-10-02T14:47:07Z</time>
      </trkpt>
      <trkpt lat="49.29783" lon="-0.05828">
        <ele>35</ele>
        <time>2024-10-02T14:47:08Z</time>
      </trkpt>
      <trkpt lat="49.29783" lon="-0.05843">
        <ele>35.2</ele>
        <time>2024-10-02T14:47:09Z</time>
      </trkpt>
      <trkpt lat="49.29782" lon="-0.05857">
        <ele>35.2</ele>
        <time>2024-10-02T14:47:10Z</time>
      </trkpt>
      <trkpt lat="49.29781" lon="-0.05871">
        <ele>35.4</ele>
        <time>2024-10-02T14:47:11Z</time>
      </trkpt>
      <trkpt lat="49.29781" lon="-0.05884">
        <ele>35.8</ele>
        <time>2024-10-02T14:47:12Z</time>
      </trkpt>
      <trkpt lat="49.29781" lon="-0.05898">
        <ele>36</ele>
        <time>2024-10-02T14:47:13Z</time>
      </trkpt>
      <trkpt lat="49.2978" lon="-0.05911">
        <ele>36.2</ele>
        <time>2024-10-02T14:47:14Z</time>
      </trkpt>
      <trkpt lat="49.2978" lon="-0.05924">
        <ele>36.4</ele>
        <time>2024-10-02T14:47:15Z</time>
      </trkpt>
      <trkpt lat="49.29779" lon="-0.05937">
        <ele>36.4</ele>
        <time>2024-10-02T14:47:16Z</time>
      </trkpt>
      <trkpt lat="49.29779" lon="-0.05951">
        <ele>36.4</ele>
        <time>2024-10-02T14:47:17Z</time>
      </trkpt>
      <trkpt lat="49.29778" lon="-0.05964">
        <ele>36.4</ele>
        <time>2024-10-02T14:47:18Z</time>
      </trkpt>
      <trkpt lat="49.29777" lon="-0.05978">
        <ele>36.4</ele>
        <time>2024-10-02T14:47:19Z</time>
      </trkpt>
      <trkpt lat="49.29777" lon="-0.05991">
        <ele>36.4</ele>
        <time>2024-10-02T14:47:20Z</time>
      </trkpt>
      <trkpt lat="49.29776" lon="-0.06004">
        <ele>36.4</ele>
        <time>2024-10-02T14:47:21Z</time>
      </trkpt>
      <trkpt lat="49.29776" lon="-0.06018">
        <ele>36.4</ele>
        <time>2024-10-02T14:47:22Z</time>
      </trkpt>
      <trkpt lat="49.29775" lon="-0.06031">
        <ele>36.4</ele>
        <time>2024-10-02T14:47:23Z</time>
      </trkpt>
      <trkpt lat="49.29775" lon="-0.06044">
        <ele>36.4</ele>
        <time>2024-10-02T14:47:24Z</time>
      </trkpt>
      <trkpt lat="49.29774" lon="-0.06058">
        <ele>36.4</ele>
        <time>2024-10-02T14:47:25Z</time>
      </trkpt>
      <trkpt lat="49.29774" lon="-0.06072">
        <ele>36.4</ele>
        <time>2024-10-02T14:47:26Z</time>
      </trkpt>
      <trkpt lat="49.29773" lon="-0.06086">
        <ele>36.2</ele>
        <time>2024-10-02T14:47:27Z</time>
      </trkpt>
      <trkpt lat="49.29772" lon="-0.061">
        <ele>36</ele>
        <time>2024-10-02T14:47:28Z</time>
      </trkpt>
      <trkpt lat="49.29772" lon="-0.06115">
        <ele>35.8</ele>
        <time>2024-10-02T14:47:29Z</time>
      </trkpt>
      <trkpt lat="49.29771" lon="-0.0613">
        <ele>35.4</ele>
        <time>2024-10-02T14:47:30Z</time>
      </trkpt>
      <trkpt lat="49.2977" lon="-0.06145">
        <ele>35.4</ele>
        <time>2024-10-02T14:47:31Z</time>
      </trkpt>
      <trkpt lat="49.29769" lon="-0.0616">
        <ele>34.8</ele>
        <time>2024-10-02T14:47:32Z</time>
      </trkpt>
      <trkpt lat="49.29768" lon="-0.06175">
        <ele>34.4</ele>
        <time>2024-10-02T14:47:33Z</time>
      </trkpt>
      <trkpt lat="49.29767" lon="-0.0619">
        <ele>33.8</ele>
        <time>2024-10-02T14:47:34Z</time>
      </trkpt>
      <trkpt lat="49.29767" lon="-0.06206">
        <ele>33.2</ele>
        <time>2024-10-02T14:47:35Z</time>
      </trkpt>
      <trkpt lat="49.29766" lon="-0.06221">
        <ele>32.8</ele>
        <time>2024-10-02T14:47:36Z</time>
      </trkpt>
      <trkpt lat="49.29766" lon="-0.06237">
        <ele>32.4</ele>
        <time>2024-10-02T14:47:37Z</time>
      </trkpt>
      <trkpt lat="49.29767" lon="-0.06253">
        <ele>32.2</ele>
        <time>2024-10-02T14:47:38Z</time>
      </trkpt>
      <trkpt lat="49.29767" lon="-0.06269">
        <ele>32</ele>
        <time>2024-10-02T14:47:39Z</time>
      </trkpt>
      <trkpt lat="49.29767" lon="-0.06285">
        <ele>31.8</ele>
        <time>2024-10-02T14:47:40Z</time>
      </trkpt>
      <trkpt lat="49.29768" lon="-0.06301">
        <ele>31.8</ele>
        <time>2024-10-02T14:47:41Z</time>
      </trkpt>
      <trkpt lat="49.29769" lon="-0.06317">
        <ele>31.6</ele>
        <time>2024-10-02T14:47:42Z</time>
      </trkpt>
      <trkpt lat="49.29771" lon="-0.06333">
        <ele>31.2</ele>
        <time>2024-10-02T14:47:43Z</time>
      </trkpt>
      <trkpt lat="49.29773" lon="-0.06349">
        <ele>30.8</ele>
        <time>2024-10-02T14:47:44Z</time>
      </trkpt>
      <trkpt lat="49.29774" lon="-0.06366">
        <ele>30.4</ele>
        <time>2024-10-02T14:47:45Z</time>
      </trkpt>
      <trkpt lat="49.29776" lon="-0.06382">
        <ele>29.8</ele>
        <time>2024-10-02T14:47:46Z</time>
      </trkpt>
      <trkpt lat="49.29777" lon="-0.06399">
        <ele>28.8</ele>
        <time>2024-10-02T14:47:47Z</time>
      </trkpt>
      <trkpt lat="49.29779" lon="-0.06416">
        <ele>28.2</ele>
        <time>2024-10-02T14:47:48Z</time>
      </trkpt>
      <trkpt lat="49.29779" lon="-0.06432">
        <ele>27.6</ele>
        <time>2024-10-02T14:47:49Z</time>
      </trkpt>
      <trkpt lat="49.2978" lon="-0.06449">
        <ele>27</ele>
        <time>2024-10-02T14:47:50Z</time>
      </trkpt>
      <trkpt lat="49.29781" lon="-0.06466">
        <ele>26.6</ele>
        <time>2024-10-02T14:47:51Z</time>
      </trkpt>
      <trkpt lat="49.29781" lon="-0.06483">
        <ele>26.6</ele>
        <time>2024-10-02T14:47:52Z</time>
      </trkpt>
      <trkpt lat="49.29782" lon="-0.065">
        <ele>26</ele>
        <time>2024-10-02T14:47:53Z</time>
      </trkpt>
      <trkpt lat="49.29783" lon="-0.06517">
        <ele>25.4</ele>
        <time>2024-10-02T14:47:54Z</time>
      </trkpt>
      <trkpt lat="49.29784" lon="-0.06534">
        <ele>24.8</ele>
        <time>2024-10-02T14:47:55Z</time>
      </trkpt>
      <trkpt lat="49.29785" lon="-0.06551">
        <ele>24.4</ele>
        <time>2024-10-02T14:47:56Z</time>
      </trkpt>
      <trkpt lat="49.29786" lon="-0.06568">
        <ele>24.2</ele>
        <time>2024-10-02T14:47:57Z</time>
      </trkpt>
      <trkpt lat="49.29787" lon="-0.06584">
        <ele>24.2</ele>
        <time>2024-10-02T14:47:58Z</time>
      </trkpt>
      <trkpt lat="49.29788" lon="-0.06601">
        <ele>24</ele>
        <time>2024-10-02T14:47:59Z</time>
      </trkpt>
      <trkpt lat="49.29789" lon="-0.06617">
        <ele>23.8</ele>
        <time>2024-10-02T14:48:00Z</time>
      </trkpt>
      <trkpt lat="49.29791" lon="-0.06633">
        <ele>23.6</ele>
        <time>2024-10-02T14:48:01Z</time>
      </trkpt>
      <trkpt lat="49.29794" lon="-0.06649">
        <ele>23.4</ele>
        <time>2024-10-02T14:48:02Z</time>
      </trkpt>
      <trkpt lat="49.29797" lon="-0.06664">
        <ele>23.2</ele>
        <time>2024-10-02T14:48:03Z</time>
      </trkpt>
      <trkpt lat="49.29801" lon="-0.0668">
        <ele>22.6</ele>
        <time>2024-10-02T14:48:04Z</time>
      </trkpt>
      <trkpt lat="49.29804" lon="-0.06695">
        <ele>22.6</ele>
        <time>2024-10-02T14:48:05Z</time>
      </trkpt>
      <trkpt lat="49.29808" lon="-0.06709">
        <ele>22.4</ele>
        <time>2024-10-02T14:48:06Z</time>
      </trkpt>
      <trkpt lat="49.29812" lon="-0.06724">
        <ele>22</ele>
        <time>2024-10-02T14:48:07Z</time>
      </trkpt>
      <trkpt lat="49.29817" lon="-0.06738">
        <ele>21.8</ele>
        <time>2024-10-02T14:48:08Z</time>
      </trkpt>
      <trkpt lat="49.29822" lon="-0.06752">
        <ele>21.8</ele>
        <time>2024-10-02T14:48:09Z</time>
      </trkpt>
      <trkpt lat="49.29827" lon="-0.06765">
        <ele>21.6</ele>
        <time>2024-10-02T14:48:10Z</time>
      </trkpt>
      <trkpt lat="49.29833" lon="-0.06777">
        <ele>21.4</ele>
        <time>2024-10-02T14:48:11Z</time>
      </trkpt>
      <trkpt lat="49.29838" lon="-0.06789">
        <ele>21.2</ele>
        <time>2024-10-02T14:48:12Z</time>
      </trkpt>
      <trkpt lat="49.29844" lon="-0.068">
        <ele>21.2</ele>
        <time>2024-10-02T14:48:13Z</time>
      </trkpt>
      <trkpt lat="49.29851" lon="-0.0681">
        <ele>20.8</ele>
        <time>2024-10-02T14:48:14Z</time>
      </trkpt>
      <trkpt lat="49.29857" lon="-0.0682">
        <ele>20.6</ele>
        <time>2024-10-02T14:48:15Z</time>
      </trkpt>
      <trkpt lat="49.29863" lon="-0.06829">
        <ele>20.6</ele>
        <time>2024-10-02T14:48:16Z</time>
      </trkpt>
      <trkpt lat="49.29869" lon="-0.06839">
        <ele>20.8</ele>
        <time>2024-10-02T14:48:17Z</time>
      </trkpt>
      <trkpt lat="49.29874" lon="-0.06849">
        <ele>21</ele>
        <time>2024-10-02T14:48:18Z</time>
      </trkpt>
      <trkpt lat="49.29879" lon="-0.06859">
        <ele>21</ele>
        <time>2024-10-02T14:48:19Z</time>
      </trkpt>
      <trkpt lat="49.29884" lon="-0.06869">
        <ele>21.2</ele>
        <time>2024-10-02T14:48:20Z</time>
      </trkpt>
      <trkpt lat="49.29889" lon="-0.06878">
        <ele>21.2</ele>
        <time>2024-10-02T14:48:21Z</time>
      </trkpt>
      <trkpt lat="49.29894" lon="-0.06888">
        <ele>21.4</ele>
        <time>2024-10-02T14:48:22Z</time>
      </trkpt>
      <trkpt lat="49.29899" lon="-0.06897">
        <ele>21.2</ele>
        <time>2024-10-02T14:48:23Z</time>
      </trkpt>
      <trkpt lat="49.29902" lon="-0.06905">
        <ele>21.4</ele>
        <time>2024-10-02T14:48:24Z</time>
      </trkpt>
      <trkpt lat="49.29907" lon="-0.06918">
        <ele>21.4</ele>
        <time>2024-10-02T14:48:25Z</time>
      </trkpt>
      <trkpt lat="49.29911" lon="-0.06929">
        <ele>21.4</ele>
        <time>2024-10-02T14:48:26Z</time>
      </trkpt>
      <trkpt lat="49.29915" lon="-0.06939">
        <ele>21.4</ele>
        <time>2024-10-02T14:48:27Z</time>
      </trkpt>
      <trkpt lat="49.2992" lon="-0.06949">
        <ele>21.6</ele>
        <time>2024-10-02T14:48:28Z</time>
      </trkpt>
      <trkpt lat="49.29924" lon="-0.06959">
        <ele>21.6</ele>
        <time>2024-10-02T14:48:29Z</time>
      </trkpt>
      <trkpt lat="49.29929" lon="-0.06969">
        <ele>21.8</ele>
        <time>2024-10-02T14:48:30Z</time>
      </trkpt>
      <trkpt lat="49.29933" lon="-0.06979">
        <ele>22</ele>
        <time>2024-10-02T14:48:31Z</time>
      </trkpt>
      <trkpt lat="49.29938" lon="-0.0699">
        <ele>22.4</ele>
        <time>2024-10-02T14:48:32Z</time>
      </trkpt>
      <trkpt lat="49.29943" lon="-0.07">
        <ele>22.8</ele>
        <time>2024-10-02T14:48:33Z</time>
      </trkpt>
      <trkpt lat="49.29947" lon="-0.0701">
        <ele>22.8</ele>
        <time>2024-10-02T14:48:34Z</time>
      </trkpt>
      <trkpt lat="49.29951" lon="-0.0702">
        <ele>22.8</ele>
        <time>2024-10-02T14:48:35Z</time>
      </trkpt>
      <trkpt lat="49.29955" lon="-0.07028">
        <ele>23</ele>
        <time>2024-10-02T14:48:36Z</time>
      </trkpt>
      <trkpt lat="49.2996" lon="-0.07039">
        <ele>23</ele>
        <time>2024-10-02T14:48:37Z</time>
      </trkpt>
      <trkpt lat="49.29964" lon="-0.07048">
        <ele>23.2</ele>
        <time>2024-10-02T14:48:38Z</time>
      </trkpt>
      <trkpt lat="49.29968" lon="-0.07057">
        <ele>23.2</ele>
        <time>2024-10-02T14:48:39Z</time>
      </trkpt>
      <trkpt lat="49.29972" lon="-0.07066">
        <ele>23.4</ele>
        <time>2024-10-02T14:48:40Z</time>
      </trkpt>
      <trkpt lat="49.29976" lon="-0.07075">
        <ele>23.4</ele>
        <time>2024-10-02T14:48:41Z</time>
      </trkpt>
      <trkpt lat="49.2998" lon="-0.07083">
        <ele>23.6</ele>
        <time>2024-10-02T14:48:42Z</time>
      </trkpt>
      <trkpt lat="49.29984" lon="-0.07091">
        <ele>23.6</ele>
        <time>2024-10-02T14:48:43Z</time>
      </trkpt>
      <trkpt lat="49.29988" lon="-0.071">
        <ele>23.6</ele>
        <time>2024-10-02T14:48:44Z</time>
      </trkpt>
      <trkpt lat="49.29992" lon="-0.07109">
        <ele>23.6</ele>
        <time>2024-10-02T14:48:45Z</time>
      </trkpt>
      <trkpt lat="49.29994" lon="-0.07116">
        <ele>23.6</ele>
        <time>2024-10-02T14:48:46Z</time>
      </trkpt>
      <trkpt lat="49.29999" lon="-0.07127">
        <ele>23.6</ele>
        <time>2024-10-02T14:48:47Z</time>
      </trkpt>
      <trkpt lat="49.30003" lon="-0.07135">
        <ele>23.6</ele>
        <time>2024-10-02T14:48:48Z</time>
      </trkpt>
      <trkpt lat="49.30006" lon="-0.07143">
        <ele>23.6</ele>
        <time>2024-10-02T14:48:49Z</time>
      </trkpt>
      <trkpt lat="49.3001" lon="-0.07151">
        <ele>23.4</ele>
        <time>2024-10-02T14:48:50Z</time>
      </trkpt>
      <trkpt lat="49.30014" lon="-0.07158">
        <ele>23.4</ele>
        <time>2024-10-02T14:48:51Z</time>
      </trkpt>
      <trkpt lat="49.30017" lon="-0.07165">
        <ele>23.4</ele>
        <time>2024-10-02T14:48:52Z</time>
      </trkpt>
      <trkpt lat="49.30017" lon="-0.07174">
        <ele>23.4</ele>
        <time>2024-10-02T14:48:53Z</time>
      </trkpt>
      <trkpt lat="49.30015" lon="-0.07183">
        <ele>23.4</ele>
        <time>2024-10-02T14:48:54Z</time>
      </trkpt>
      <trkpt lat="49.30014" lon="-0.07195">
        <ele>23.4</ele>
        <time>2024-10-02T14:48:55Z</time>
      </trkpt>
      <trkpt lat="49.30015" lon="-0.07207">
        <ele>23.4</ele>
        <time>2024-10-02T14:48:56Z</time>
      </trkpt>
      <trkpt lat="49.30016" lon="-0.0722">
        <ele>23.2</ele>
        <time>2024-10-02T14:48:57Z</time>
      </trkpt>
      <trkpt lat="49.30018" lon="-0.07232">
        <ele>23.2</ele>
        <time>2024-10-02T14:48:58Z</time>
      </trkpt>
      <trkpt lat="49.30021" lon="-0.07245">
        <ele>23.2</ele>
        <time>2024-10-02T14:48:59Z</time>
      </trkpt>
      <trkpt lat="49.30023" lon="-0.07258">
        <ele>23.2</ele>
        <time>2024-10-02T14:49:00Z</time>
      </trkpt>
      <trkpt lat="49.30025" lon="-0.07272">
        <ele>23</ele>
        <time>2024-10-02T14:49:01Z</time>
      </trkpt>
      <trkpt lat="49.30027" lon="-0.07285">
        <ele>23</ele>
        <time>2024-10-02T14:49:02Z</time>
      </trkpt>
      <trkpt lat="49.3003" lon="-0.07299">
        <ele>22.8</ele>
        <time>2024-10-02T14:49:03Z</time>
      </trkpt>
      <trkpt lat="49.30032" lon="-0.07313">
        <ele>22.4</ele>
        <time>2024-10-02T14:49:04Z</time>
      </trkpt>
      <trkpt lat="49.30034" lon="-0.07327">
        <ele>22</ele>
        <time>2024-10-02T14:49:05Z</time>
      </trkpt>
      <trkpt lat="49.30037" lon="-0.07341">
        <ele>21.8</ele>
        <time>2024-10-02T14:49:06Z</time>
      </trkpt>
      <trkpt lat="49.30039" lon="-0.07355">
        <ele>21.6</ele>
        <time>2024-10-02T14:49:07Z</time>
      </trkpt>
      <trkpt lat="49.30041" lon="-0.07368">
        <ele>21.4</ele>
        <time>2024-10-02T14:49:08Z</time>
      </trkpt>
      <trkpt lat="49.30044" lon="-0.0738">
        <ele>21.2</ele>
        <time>2024-10-02T14:49:09Z</time>
      </trkpt>
      <trkpt lat="49.30047" lon="-0.07393">
        <ele>20.4</ele>
        <time>2024-10-02T14:49:10Z</time>
      </trkpt>
      <trkpt lat="49.3005" lon="-0.07405">
        <ele>19.6</ele>
        <time>2024-10-02T14:49:11Z</time>
      </trkpt>
      <trkpt lat="49.30052" lon="-0.07419">
        <ele>18</ele>
        <time>2024-10-02T14:49:12Z</time>
      </trkpt>
      <trkpt lat="49.30055" lon="-0.07432">
        <ele>17</ele>
        <time>2024-10-02T14:49:13Z</time>
      </trkpt>
      <trkpt lat="49.30058" lon="-0.07446">
        <ele>16.2</ele>
        <time>2024-10-02T14:49:14Z</time>
      </trkpt>
      <trkpt lat="49.3006" lon="-0.0746">
        <ele>16.2</ele>
        <time>2024-10-02T14:49:15Z</time>
      </trkpt>
      <trkpt lat="49.30063" lon="-0.07473">
        <ele>15.2</ele>
        <time>2024-10-02T14:49:16Z</time>
      </trkpt>
      <trkpt lat="49.30065" lon="-0.07485">
        <ele>14.6</ele>
        <time>2024-10-02T14:49:17Z</time>
      </trkpt>
      <trkpt lat="49.30066" lon="-0.07495">
        <ele>14.2</ele>
        <time>2024-10-02T14:49:18Z</time>
      </trkpt>
      <trkpt lat="49.30068" lon="-0.07503">
        <ele>13.4</ele>
        <time>2024-10-02T14:49:19Z</time>
      </trkpt>
      <trkpt lat="49.3007" lon="-0.0751">
        <ele>13</ele>
        <time>2024-10-02T14:49:20Z</time>
      </trkpt>
      <trkpt lat="49.30073" lon="-0.07518">
        <ele>12.8</ele>
        <time>2024-10-02T14:49:21Z</time>
      </trkpt>
      <trkpt lat="49.30076" lon="-0.07525">
        <ele>12</ele>
        <time>2024-10-02T14:49:22Z</time>
      </trkpt>
      <trkpt lat="49.30079" lon="-0.0753">
        <ele>11.4</ele>
        <time>2024-10-02T14:49:23Z</time>
      </trkpt>
      <trkpt lat="49.30082" lon="-0.07537">
        <ele>11</ele>
        <time>2024-10-02T14:49:24Z</time>
      </trkpt>
      <trkpt lat="49.30085" lon="-0.07542">
        <ele>10.6</ele>
        <time>2024-10-02T14:49:25Z</time>
      </trkpt>
      <trkpt lat="49.30088" lon="-0.07548">
        <ele>10.6</ele>
        <time>2024-10-02T14:49:26Z</time>
      </trkpt>
      <trkpt lat="49.30092" lon="-0.07554">
        <ele>10.4</ele>
        <time>2024-10-02T14:49:27Z</time>
      </trkpt>
      <trkpt lat="49.30095" lon="-0.0756">
        <ele>10</ele>
        <time>2024-10-02T14:49:28Z</time>
      </trkpt>
      <trkpt lat="49.30098" lon="-0.07566">
        <ele>10</ele>
        <time>2024-10-02T14:49:29Z</time>
      </trkpt>
      <trkpt lat="49.301" lon="-0.07572">
        <ele>9.8</ele>
        <time>2024-10-02T14:49:30Z</time>
      </trkpt>
      <trkpt lat="49.30103" lon="-0.07578">
        <ele>9.8</ele>
        <time>2024-10-02T14:49:31Z</time>
      </trkpt>
      <trkpt lat="49.30105" lon="-0.07583">
        <ele>9.8</ele>
        <time>2024-10-02T14:49:32Z</time>
      </trkpt>
      <trkpt lat="49.30108" lon="-0.0759">
        <ele>9.6</ele>
        <time>2024-10-02T14:49:33Z</time>
      </trkpt>
      <trkpt lat="49.30111" lon="-0.07596">
        <ele>9.4</ele>
        <time>2024-10-02T14:49:34Z</time>
      </trkpt>
      <trkpt lat="49.30113" lon="-0.07603">
        <ele>9.4</ele>
        <time>2024-10-02T14:49:35Z</time>
      </trkpt>
      <trkpt lat="49.30116" lon="-0.07609">
        <ele>9.4</ele>
        <time>2024-10-02T14:49:36Z</time>
      </trkpt>
      <trkpt lat="49.30118" lon="-0.07613">
        <ele>9.4</ele>
        <time>2024-10-02T14:49:37Z</time>
      </trkpt>
      <trkpt lat="49.30122" lon="-0.07619">
        <ele>9.4</ele>
        <time>2024-10-02T14:49:38Z</time>
      </trkpt>
      <trkpt lat="49.30125" lon="-0.07626">
        <ele>9.4</ele>
        <time>2024-10-02T14:49:39Z</time>
      </trkpt>
      <trkpt lat="49.30129" lon="-0.07633">
        <ele>9.2</ele>
        <time>2024-10-02T14:49:40Z</time>
      </trkpt>
      <trkpt lat="49.30131" lon="-0.07638">
        <ele>9.2</ele>
        <time>2024-10-02T14:49:41Z</time>
      </trkpt>
      <trkpt lat="49.30135" lon="-0.07646">
        <ele>9</ele>
        <time>2024-10-02T14:49:42Z</time>
      </trkpt>
      <trkpt lat="49.30138" lon="-0.07653">
        <ele>9</ele>
        <time>2024-10-02T14:49:43Z</time>
      </trkpt>
      <trkpt lat="49.30141" lon="-0.07659">
        <ele>9</ele>
        <time>2024-10-02T14:49:44Z</time>
      </trkpt>
      <trkpt lat="49.30145" lon="-0.07665">
        <ele>8.8</ele>
        <time>2024-10-02T14:49:45Z</time>
      </trkpt>
      <trkpt lat="49.30148" lon="-0.07672">
        <ele>8.8</ele>
        <time>2024-10-02T14:49:46Z</time>
      </trkpt>
      <trkpt lat="49.30151" lon="-0.07678">
        <ele>8.8</ele>
        <time>2024-10-02T14:49:47Z</time>
      </trkpt>
      <trkpt lat="49.30154" lon="-0.07685">
        <ele>8.6</ele>
        <time>2024-10-02T14:49:48Z</time>
      </trkpt>
      <trkpt lat="49.30157" lon="-0.0769">
        <ele>8.6</ele>
        <time>2024-10-02T14:49:49Z</time>
      </trkpt>
      <trkpt lat="49.3016" lon="-0.07696">
        <ele>8.6</ele>
        <time>2024-10-02T14:49:50Z</time>
      </trkpt>
      <trkpt lat="49.30163" lon="-0.07702">
        <ele>8.6</ele>
        <time>2024-10-02T14:49:51Z</time>
      </trkpt>
      <trkpt lat="49.30166" lon="-0.07707">
        <ele>8.4</ele>
        <time>2024-10-02T14:49:52Z</time>
      </trkpt>
      <trkpt lat="49.30169" lon="-0.07713">
        <ele>8.4</ele>
        <time>2024-10-02T14:49:53Z</time>
      </trkpt>
      <trkpt lat="49.30172" lon="-0.07719">
        <ele>8.4</ele>
        <time>2024-10-02T14:49:54Z</time>
      </trkpt>
      <trkpt lat="49.30175" lon="-0.07725">
        <ele>8.2</ele>
        <time>2024-10-02T14:49:55Z</time>
      </trkpt>
      <trkpt lat="49.30179" lon="-0.07731">
        <ele>8.2</ele>
        <time>2024-10-02T14:49:56Z</time>
      </trkpt>
      <trkpt lat="49.30182" lon="-0.07736">
        <ele>8.2</ele>
        <time>2024-10-02T14:49:57Z</time>
      </trkpt>
      <trkpt lat="49.30185" lon="-0.07741">
        <ele>8.2</ele>
        <time>2024-10-02T14:49:58Z</time>
      </trkpt>
      <trkpt lat="49.30188" lon="-0.07747">
        <ele>8.2</ele>
        <time>2024-10-02T14:49:59Z</time>
      </trkpt>
      <trkpt lat="49.30191" lon="-0.07751">
        <ele>8</ele>
        <time>2024-10-02T14:50:00Z</time>
      </trkpt>
      <trkpt lat="49.30193" lon="-0.07757">
        <ele>8</ele>
        <time>2024-10-02T14:50:01Z</time>
      </trkpt>
      <trkpt lat="49.30196" lon="-0.07762">
        <ele>8</ele>
        <time>2024-10-02T14:50:02Z</time>
      </trkpt>
      <trkpt lat="49.30199" lon="-0.07767">
        <ele>8</ele>
        <time>2024-10-02T14:50:03Z</time>
      </trkpt>
      <trkpt lat="49.30202" lon="-0.07772">
        <ele>8</ele>
        <time>2024-10-02T14:50:04Z</time>
      </trkpt>
      <trkpt lat="49.30205" lon="-0.07777">
        <ele>7.8</ele>
        <time>2024-10-02T14:50:05Z</time>
      </trkpt>
      <trkpt lat="49.30209" lon="-0.07783">
        <ele>7.8</ele>
        <time>2024-10-02T14:50:06Z</time>
      </trkpt>
      <trkpt lat="49.30212" lon="-0.07788">
        <ele>7.8</ele>
        <time>2024-10-02T14:50:07Z</time>
      </trkpt>
      <trkpt lat="49.30214" lon="-0.07794">
        <ele>7.6</ele>
        <time>2024-10-02T14:50:08Z</time>
      </trkpt>
      <trkpt lat="49.30217" lon="-0.07799">
        <ele>7.6</ele>
        <time>2024-10-02T14:50:09Z</time>
      </trkpt>
      <trkpt lat="49.3022" lon="-0.07805">
        <ele>7.6</ele>
        <time>2024-10-02T14:50:10Z</time>
      </trkpt>
      <trkpt lat="49.30223" lon="-0.0781">
        <ele>7.4</ele>
        <time>2024-10-02T14:50:11Z</time>
      </trkpt>
      <trkpt lat="49.30226" lon="-0.07815">
        <ele>7.4</ele>
        <time>2024-10-02T14:50:12Z</time>
      </trkpt>
      <trkpt lat="49.30228" lon="-0.07819">
        <ele>7.4</ele>
        <time>2024-10-02T14:50:13Z</time>
      </trkpt>
      <trkpt lat="49.30229" lon="-0.07823">
        <ele>7.4</ele>
        <time>2024-10-02T14:50:14Z</time>
      </trkpt>
      <trkpt lat="49.30231" lon="-0.07827">
        <ele>7.2</ele>
        <time>2024-10-02T14:50:15Z</time>
      </trkpt>
      <trkpt lat="49.30232" lon="-0.0783">
        <ele>7.2</ele>
        <time>2024-10-02T14:50:16Z</time>
      </trkpt>
      <trkpt lat="49.30233" lon="-0.07833">
        <ele>7.2</ele>
        <time>2024-10-02T14:50:17Z</time>
      </trkpt>
      <trkpt lat="49.30234" lon="-0.07835">
        <ele>7.2</ele>
        <time>2024-10-02T14:50:18Z</time>
      </trkpt>
      <trkpt lat="49.30235" lon="-0.07836">
        <ele>7.2</ele>
        <time>2024-10-02T14:50:19Z</time>
      </trkpt>
      <trkpt lat="49.30235" lon="-0.07837">
        <ele>7.2</ele>
        <time>2024-10-02T14:50:20Z</time>
      </trkpt>
      <trkpt lat="49.30235" lon="-0.07837">
        <ele>7.2</ele>
        <time>2024-10-02T14:50:21Z</time>
      </trkpt>
      <trkpt lat="49.30239" lon="-0.07846">
        <ele>6.8</ele>
        <time>2024-10-02T14:50:52Z</time>
      </trkpt>
      <trkpt lat="49.3024" lon="-0.07848">
        <ele>6.8</ele>
        <time>2024-10-02T14:50:53Z</time>
      </trkpt>
      <trkpt lat="49.30241" lon="-0.07851">
        <ele>6.8</ele>
        <time>2024-10-02T14:50:54Z</time>
      </trkpt>
      <trkpt lat="49.30243" lon="-0.07853">
        <ele>6.8</ele>
        <time>2024-10-02T14:50:55Z</time>
      </trkpt>
      <trkpt lat="49.30245" lon="-0.07857">
        <ele>6.8</ele>
        <time>2024-10-02T14:50:56Z</time>
      </trkpt>
      <trkpt lat="49.30246" lon="-0.0786">
        <ele>6.8</ele>
        <time>2024-10-02T14:50:57Z</time>
      </trkpt>
      <trkpt lat="49.30247" lon="-0.07864">
        <ele>6.8</ele>
        <time>2024-10-02T14:50:58Z</time>
      </trkpt>
      <trkpt lat="49.30249" lon="-0.07869">
        <ele>6.8</ele>
        <time>2024-10-02T14:50:59Z</time>
      </trkpt>
      <trkpt lat="49.30251" lon="-0.07873">
        <ele>6.8</ele>
        <time>2024-10-02T14:51:00Z</time>
      </trkpt>
      <trkpt lat="49.30252" lon="-0.07878">
        <ele>6.8</ele>
        <time>2024-10-02T14:51:01Z</time>
      </trkpt>
      <trkpt lat="49.30254" lon="-0.07882">
        <ele>6.8</ele>
        <time>2024-10-02T14:51:02Z</time>
      </trkpt>
      <trkpt lat="49.30256" lon="-0.07887">
        <ele>6.8</ele>
        <time>2024-10-02T14:51:03Z</time>
      </trkpt>
      <trkpt lat="49.30258" lon="-0.07892">
        <ele>6.8</ele>
        <time>2024-10-02T14:51:04Z</time>
      </trkpt>
      <trkpt lat="49.30259" lon="-0.07896">
        <ele>6.8</ele>
        <time>2024-10-02T14:51:05Z</time>
      </trkpt>
      <trkpt lat="49.30261" lon="-0.079">
        <ele>6.8</ele>
        <time>2024-10-02T14:51:06Z</time>
      </trkpt>
      <trkpt lat="49.30263" lon="-0.07905">
        <ele>6.6</ele>
        <time>2024-10-02T14:51:07Z</time>
      </trkpt>
      <trkpt lat="49.30265" lon="-0.07909">
        <ele>6.6</ele>
        <time>2024-10-02T14:51:08Z</time>
      </trkpt>
      <trkpt lat="49.30267" lon="-0.07913">
        <ele>6.4</ele>
        <time>2024-10-02T14:51:09Z</time>
      </trkpt>
      <trkpt lat="49.30269" lon="-0.07918">
        <ele>6.4</ele>
        <time>2024-10-02T14:51:10Z</time>
      </trkpt>
      <trkpt lat="49.3027" lon="-0.07924">
        <ele>6.4</ele>
        <time>2024-10-02T14:51:11Z</time>
      </trkpt>
      <trkpt lat="49.3027" lon="-0.07931">
        <ele>6.2</ele>
        <time>2024-10-02T14:51:12Z</time>
      </trkpt>
      <trkpt lat="49.30269" lon="-0.07938">
        <ele>6.2</ele>
        <time>2024-10-02T14:51:13Z</time>
      </trkpt>
      <trkpt lat="49.30267" lon="-0.07946">
        <ele>6.2</ele>
        <time>2024-10-02T14:51:14Z</time>
      </trkpt>
      <trkpt lat="49.30264" lon="-0.07954">
        <ele>6.2</ele>
        <time>2024-10-02T14:51:15Z</time>
      </trkpt>
      <trkpt lat="49.30262" lon="-0.07962">
        <ele>6</ele>
        <time>2024-10-02T14:51:16Z</time>
      </trkpt>
      <trkpt lat="49.30259" lon="-0.0797">
        <ele>6</ele>
        <time>2024-10-02T14:51:17Z</time>
      </trkpt>
      <trkpt lat="49.30256" lon="-0.07978">
        <ele>6</ele>
        <time>2024-10-02T14:51:18Z</time>
      </trkpt>
      <trkpt lat="49.30254" lon="-0.07985">
        <ele>6</ele>
        <time>2024-10-02T14:51:19Z</time>
      </trkpt>
      <trkpt lat="49.30251" lon="-0.07991">
        <ele>6</ele>
        <time>2024-10-02T14:51:20Z</time>
      </trkpt>
      <trkpt lat="49.30249" lon="-0.07995">
        <ele>5.8</ele>
        <time>2024-10-02T14:51:21Z</time>
      </trkpt>
      <trkpt lat="49.30248" lon="-0.08">
        <ele>5.8</ele>
        <time>2024-10-02T14:51:22Z</time>
      </trkpt>
      <trkpt lat="49.30247" lon="-0.08004">
        <ele>5.6</ele>
        <time>2024-10-02T14:51:23Z</time>
      </trkpt>
      <trkpt lat="49.30246" lon="-0.08009">
        <ele>5.6</ele>
        <time>2024-10-02T14:51:24Z</time>
      </trkpt>
      <trkpt lat="49.30245" lon="-0.08014">
        <ele>5.6</ele>
        <time>2024-10-02T14:51:25Z</time>
      </trkpt>
      <trkpt lat="49.30245" lon="-0.08019">
        <ele>5.6</ele>
        <time>2024-10-02T14:51:26Z</time>
      </trkpt>
      <trkpt lat="49.30244" lon="-0.08024">
        <ele>5.4</ele>
        <time>2024-10-02T14:51:27Z</time>
      </trkpt>
      <trkpt lat="49.30243" lon="-0.08029">
        <ele>5.4</ele>
        <time>2024-10-02T14:51:28Z</time>
      </trkpt>
      <trkpt lat="49.30241" lon="-0.08034">
        <ele>5.4</ele>
        <time>2024-10-02T14:51:29Z</time>
      </trkpt>
      <trkpt lat="49.30239" lon="-0.08039">
        <ele>5.2</ele>
        <time>2024-10-02T14:51:30Z</time>
      </trkpt>
      <trkpt lat="49.30236" lon="-0.08044">
        <ele>5.2</ele>
        <time>2024-10-02T14:51:31Z</time>
      </trkpt>
      <trkpt lat="49.30233" lon="-0.0805">
        <ele>5</ele>
        <time>2024-10-02T14:51:32Z</time>
      </trkpt>
      <trkpt lat="49.3023" lon="-0.08056">
        <ele>5</ele>
        <time>2024-10-02T14:51:33Z</time>
      </trkpt>
      <trkpt lat="49.30227" lon="-0.08063">
        <ele>5</ele>
        <time>2024-10-02T14:51:34Z</time>
      </trkpt>
      <trkpt lat="49.30224" lon="-0.0807">
        <ele>5</ele>
        <time>2024-10-02T14:51:35Z</time>
      </trkpt>
      <trkpt lat="49.30222" lon="-0.08077">
        <ele>5</ele>
        <time>2024-10-02T14:51:36Z</time>
      </trkpt>
      <trkpt lat="49.30219" lon="-0.08085">
        <ele>5</ele>
        <time>2024-10-02T14:51:37Z</time>
      </trkpt>
      <trkpt lat="49.30216" lon="-0.08093">
        <ele>5</ele>
        <time>2024-10-02T14:51:38Z</time>
      </trkpt>
      <trkpt lat="49.30213" lon="-0.08101">
        <ele>5</ele>
        <time>2024-10-02T14:51:39Z</time>
      </trkpt>
      <trkpt lat="49.3021" lon="-0.08109">
        <ele>5</ele>
        <time>2024-10-02T14:51:40Z</time>
      </trkpt>
      <trkpt lat="49.30208" lon="-0.08117">
        <ele>5</ele>
        <time>2024-10-02T14:51:41Z</time>
      </trkpt>
      <trkpt lat="49.30205" lon="-0.08126">
        <ele>4.8</ele>
        <time>2024-10-02T14:51:42Z</time>
      </trkpt>
      <trkpt lat="49.30202" lon="-0.08134">
        <ele>4.8</ele>
        <time>2024-10-02T14:51:43Z</time>
      </trkpt>
      <trkpt lat="49.30199" lon="-0.08142">
        <ele>4.8</ele>
        <time>2024-10-02T14:51:44Z</time>
      </trkpt>
      <trkpt lat="49.30196" lon="-0.08151">
        <ele>4.8</ele>
        <time>2024-10-02T14:51:45Z</time>
      </trkpt>
      <trkpt lat="49.30193" lon="-0.08159">
        <ele>4.8</ele>
        <time>2024-10-02T14:51:46Z</time>
      </trkpt>
      <trkpt lat="49.3019" lon="-0.08166">
        <ele>4.8</ele>
        <time>2024-10-02T14:51:47Z</time>
      </trkpt>
      <trkpt lat="49.30186" lon="-0.08174">
        <ele>4.8</ele>
        <time>2024-10-02T14:51:48Z</time>
      </trkpt>
      <trkpt lat="49.30181" lon="-0.08182">
        <ele>4.8</ele>
        <time>2024-10-02T14:51:49Z</time>
      </trkpt>
      <trkpt lat="49.30176" lon="-0.08189">
        <ele>4.6</ele>
        <time>2024-10-02T14:51:50Z</time>
      </trkpt>
      <trkpt lat="49.30169" lon="-0.08197">
        <ele>4.4</ele>
        <time>2024-10-02T14:51:51Z</time>
      </trkpt>
      <trkpt lat="49.30164" lon="-0.08203">
        <ele>4.2</ele>
        <time>2024-10-02T14:51:52Z</time>
      </trkpt>
      <trkpt lat="49.30158" lon="-0.08209">
        <ele>4</ele>
        <time>2024-10-02T14:51:53Z</time>
      </trkpt>
      <trkpt lat="49.30152" lon="-0.08215">
        <ele>3.8</ele>
        <time>2024-10-02T14:51:54Z</time>
      </trkpt>
      <trkpt lat="49.30146" lon="-0.08222">
        <ele>3.6</ele>
        <time>2024-10-02T14:51:55Z</time>
      </trkpt>
      <trkpt lat="49.3014" lon="-0.08228">
        <ele>3.2</ele>
        <time>2024-10-02T14:51:56Z</time>
      </trkpt>
      <trkpt lat="49.30133" lon="-0.08234">
        <ele>2.8</ele>
        <time>2024-10-02T14:51:57Z</time>
      </trkpt>
      <trkpt lat="49.30127" lon="-0.0824">
        <ele>2.8</ele>
        <time>2024-10-02T14:51:58Z</time>
      </trkpt>
      <trkpt lat="49.30122" lon="-0.08245">
        <ele>2.4</ele>
        <time>2024-10-02T14:51:59Z</time>
      </trkpt>
      <trkpt lat="49.30115" lon="-0.08253">
        <ele>2.4</ele>
        <time>2024-10-02T14:52:00Z</time>
      </trkpt>
      <trkpt lat="49.30109" lon="-0.08259">
        <ele>2.2</ele>
        <time>2024-10-02T14:52:01Z</time>
      </trkpt>
      <trkpt lat="49.30103" lon="-0.08265">
        <ele>2.2</ele>
        <time>2024-10-02T14:52:02Z</time>
      </trkpt>
      <trkpt lat="49.30097" lon="-0.08271">
        <ele>2</ele>
        <time>2024-10-02T14:52:03Z</time>
      </trkpt>
      <trkpt lat="49.30092" lon="-0.08277">
        <ele>2</ele>
        <time>2024-10-02T14:52:04Z</time>
      </trkpt>
      <trkpt lat="49.30086" lon="-0.08283">
        <ele>2</ele>
        <time>2024-10-02T14:52:05Z</time>
      </trkpt>
      <trkpt lat="49.3008" lon="-0.08289">
        <ele>2</ele>
        <time>2024-10-02T14:52:06Z</time>
      </trkpt>
      <trkpt lat="49.30074" lon="-0.08295">
        <ele>2</ele>
        <time>2024-10-02T14:52:07Z</time>
      </trkpt>
      <trkpt lat="49.30068" lon="-0.08301">
        <ele>2</ele>
        <time>2024-10-02T14:52:08Z</time>
      </trkpt>
      <trkpt lat="49.30062" lon="-0.08306">
        <ele>2</ele>
        <time>2024-10-02T14:52:09Z</time>
      </trkpt>
      <trkpt lat="49.30057" lon="-0.08312">
        <ele>2</ele>
        <time>2024-10-02T14:52:10Z</time>
      </trkpt>
      <trkpt lat="49.30051" lon="-0.08318">
        <ele>2</ele>
        <time>2024-10-02T14:52:11Z</time>
      </trkpt>
      <trkpt lat="49.30046" lon="-0.08324">
        <ele>2</ele>
        <time>2024-10-02T14:52:12Z</time>
      </trkpt>
      <trkpt lat="49.3004" lon="-0.0833">
        <ele>2</ele>
        <time>2024-10-02T14:52:13Z</time>
      </trkpt>
      <trkpt lat="49.30034" lon="-0.08336">
        <ele>2</ele>
        <time>2024-10-02T14:52:14Z</time>
      </trkpt>
      <trkpt lat="49.30028" lon="-0.08342">
        <ele>2</ele>
        <time>2024-10-02T14:52:15Z</time>
      </trkpt>
      <trkpt lat="49.30022" lon="-0.08348">
        <ele>2.2</ele>
        <time>2024-10-02T14:52:16Z</time>
      </trkpt>
      <trkpt lat="49.30016" lon="-0.08353">
        <ele>2.2</ele>
        <time>2024-10-02T14:52:17Z</time>
      </trkpt>
      <trkpt lat="49.3001" lon="-0.08359">
        <ele>2.2</ele>
        <time>2024-10-02T14:52:18Z</time>
      </trkpt>
      <trkpt lat="49.30005" lon="-0.08364">
        <ele>2.2</ele>
        <time>2024-10-02T14:52:19Z</time>
      </trkpt>
      <trkpt lat="49.3" lon="-0.08369">
        <ele>2.2</ele>
        <time>2024-10-02T14:52:20Z</time>
      </trkpt>
      <trkpt lat="49.29996" lon="-0.08372">
        <ele>2.4</ele>
        <time>2024-10-02T14:52:21Z</time>
      </trkpt>
      <trkpt lat="49.29993" lon="-0.08374">
        <ele>2.4</ele>
        <time>2024-10-02T14:52:22Z</time>
      </trkpt>
      <trkpt lat="49.29992" lon="-0.08375">
        <ele>2.4</ele>
        <time>2024-10-02T14:52:23Z</time>
      </trkpt>
      <trkpt lat="49.29992" lon="-0.08375">
        <ele>2.4</ele>
        <time>2024-10-02T14:52:24Z</time>
      </trkpt>
      <trkpt lat="49.29992" lon="-0.08375">
        <ele>2.6</ele>
        <time>2024-10-02T14:52:25Z</time>
      </trkpt>
      <trkpt lat="49.29988" lon="-0.08379">
        <ele>4.2</ele>
        <time>2024-10-02T14:52:46Z</time>
      </trkpt>
      <trkpt lat="49.29985" lon="-0.0838">
        <ele>4.2</ele>
        <time>2024-10-02T14:52:47Z</time>
      </trkpt>
      <trkpt lat="49.29983" lon="-0.08381">
        <ele>4.2</ele>
        <time>2024-10-02T14:52:48Z</time>
      </trkpt>
      <trkpt lat="49.2998" lon="-0.08383">
        <ele>4.2</ele>
        <time>2024-10-02T14:52:49Z</time>
      </trkpt>
      <trkpt lat="49.29977" lon="-0.08385">
        <ele>4.2</ele>
        <time>2024-10-02T14:52:50Z</time>
      </trkpt>
      <trkpt lat="49.29974" lon="-0.08387">
        <ele>4.2</ele>
        <time>2024-10-02T14:52:51Z</time>
      </trkpt>
      <trkpt lat="49.29971" lon="-0.0839">
        <ele>4.2</ele>
        <time>2024-10-02T14:52:52Z</time>
      </trkpt>
      <trkpt lat="49.29968" lon="-0.08394">
        <ele>4</ele>
        <time>2024-10-02T14:52:53Z</time>
      </trkpt>
      <trkpt lat="49.29965" lon="-0.08399">
        <ele>4</ele>
        <time>2024-10-02T14:52:54Z</time>
      </trkpt>
      <trkpt lat="49.29962" lon="-0.08405">
        <ele>4</ele>
        <time>2024-10-02T14:52:55Z</time>
      </trkpt>
      <trkpt lat="49.29959" lon="-0.08411">
        <ele>3.8</ele>
        <time>2024-10-02T14:52:56Z</time>
      </trkpt>
      <trkpt lat="49.29957" lon="-0.08417">
        <ele>3.8</ele>
        <time>2024-10-02T14:52:57Z</time>
      </trkpt>
      <trkpt lat="49.29953" lon="-0.08422">
        <ele>3.8</ele>
        <time>2024-10-02T14:52:58Z</time>
      </trkpt>
      <trkpt lat="49.29949" lon="-0.08427">
        <ele>3.8</ele>
        <time>2024-10-02T14:52:59Z</time>
      </trkpt>
      <trkpt lat="49.29944" lon="-0.08432">
        <ele>3.6</ele>
        <time>2024-10-02T14:53:00Z</time>
      </trkpt>
      <trkpt lat="49.29939" lon="-0.08438">
        <ele>3.4</ele>
        <time>2024-10-02T14:53:01Z</time>
      </trkpt>
      <trkpt lat="49.29934" lon="-0.08443">
        <ele>3</ele>
        <time>2024-10-02T14:53:02Z</time>
      </trkpt>
      <trkpt lat="49.29929" lon="-0.08449">
        <ele>2.6</ele>
        <time>2024-10-02T14:53:03Z</time>
      </trkpt>
      <trkpt lat="49.29925" lon="-0.08456">
        <ele>2.6</ele>
        <time>2024-10-02T14:53:04Z</time>
      </trkpt>
      <trkpt lat="49.29921" lon="-0.08461">
        <ele>2.6</ele>
        <time>2024-10-02T14:53:05Z</time>
      </trkpt>
      <trkpt lat="49.29916" lon="-0.08469">
        <ele>2.4</ele>
        <time>2024-10-02T14:53:06Z</time>
      </trkpt>
      <trkpt lat="49.29911" lon="-0.08476">
        <ele>2.4</ele>
        <time>2024-10-02T14:53:07Z</time>
      </trkpt>
      <trkpt lat="49.29906" lon="-0.08482">
        <ele>2.4</ele>
        <time>2024-10-02T14:53:08Z</time>
      </trkpt>
      <trkpt lat="49.299" lon="-0.08487">
        <ele>2.4</ele>
        <time>2024-10-02T14:53:09Z</time>
      </trkpt>
      <trkpt lat="49.29894" lon="-0.08493">
        <ele>2.4</ele>
        <time>2024-10-02T14:53:10Z</time>
      </trkpt>
      <trkpt lat="49.29888" lon="-0.08498">
        <ele>2.2</ele>
        <time>2024-10-02T14:53:11Z</time>
      </trkpt>
      <trkpt lat="49.29882" lon="-0.08504">
        <ele>2.2</ele>
        <time>2024-10-02T14:53:12Z</time>
      </trkpt>
      <trkpt lat="49.29877" lon="-0.0851">
        <ele>2.2</ele>
        <time>2024-10-02T14:53:13Z</time>
      </trkpt>
      <trkpt lat="49.29871" lon="-0.08516">
        <ele>2.2</ele>
        <time>2024-10-02T14:53:14Z</time>
      </trkpt>
      <trkpt lat="49.29865" lon="-0.08522">
        <ele>2.2</ele>
        <time>2024-10-02T14:53:15Z</time>
      </trkpt>
      <trkpt lat="49.29859" lon="-0.08528">
        <ele>2.2</ele>
        <time>2024-10-02T14:53:16Z</time>
      </trkpt>
      <trkpt lat="49.29853" lon="-0.08533">
        <ele>2.2</ele>
        <time>2024-10-02T14:53:17Z</time>
      </trkpt>
      <trkpt lat="49.29846" lon="-0.08539">
        <ele>2</ele>
        <time>2024-10-02T14:53:18Z</time>
      </trkpt>
      <trkpt lat="49.2984" lon="-0.08545">
        <ele>2</ele>
        <time>2024-10-02T14:53:19Z</time>
      </trkpt>
      <trkpt lat="49.29834" lon="-0.08551">
        <ele>2</ele>
        <time>2024-10-02T14:53:20Z</time>
      </trkpt>
      <trkpt lat="49.29828" lon="-0.08557">
        <ele>2</ele>
        <time>2024-10-02T14:53:21Z</time>
      </trkpt>
      <trkpt lat="49.29822" lon="-0.08564">
        <ele>1.8</ele>
        <time>2024-10-02T14:53:22Z</time>
      </trkpt>
      <trkpt lat="49.29815" lon="-0.0857">
        <ele>1.8</ele>
        <time>2024-10-02T14:53:23Z</time>
      </trkpt>
      <trkpt lat="49.29809" lon="-0.08576">
        <ele>1.8</ele>
        <time>2024-10-02T14:53:24Z</time>
      </trkpt>
      <trkpt lat="49.29804" lon="-0.08581">
        <ele>1.8</ele>
        <time>2024-10-02T14:53:25Z</time>
      </trkpt>
      <trkpt lat="49.29797" lon="-0.08587">
        <ele>1.6</ele>
        <time>2024-10-02T14:53:26Z</time>
      </trkpt>
      <trkpt lat="49.2979" lon="-0.08595">
        <ele>1.6</ele>
        <time>2024-10-02T14:53:27Z</time>
      </trkpt>
      <trkpt lat="49.29783" lon="-0.08601">
        <ele>1.6</ele>
        <time>2024-10-02T14:53:28Z</time>
      </trkpt>
      <trkpt lat="49.29778" lon="-0.08606">
        <ele>1.4</ele>
        <time>2024-10-02T14:53:29Z</time>
      </trkpt>
      <trkpt lat="49.2977" lon="-0.08613">
        <ele>1.4</ele>
        <time>2024-10-02T14:53:30Z</time>
      </trkpt>
      <trkpt lat="49.29765" lon="-0.08619">
        <ele>1.4</ele>
        <time>2024-10-02T14:53:31Z</time>
      </trkpt>
      <trkpt lat="49.29758" lon="-0.08625">
        <ele>1.4</ele>
        <time>2024-10-02T14:53:32Z</time>
      </trkpt>
      <trkpt lat="49.2975" lon="-0.08634">
        <ele>1.4</ele>
        <time>2024-10-02T14:53:33Z</time>
      </trkpt>
      <trkpt lat="49.29743" lon="-0.0864">
        <ele>1.6</ele>
        <time>2024-10-02T14:53:34Z</time>
      </trkpt>
      <trkpt lat="49.29738" lon="-0.08645">
        <ele>1.6</ele>
        <time>2024-10-02T14:53:35Z</time>
      </trkpt>
      <trkpt lat="49.2973" lon="-0.08653">
        <ele>1.8</ele>
        <time>2024-10-02T14:53:36Z</time>
      </trkpt>
      <trkpt lat="49.29724" lon="-0.08658">
        <ele>1.6</ele>
        <time>2024-10-02T14:53:37Z</time>
      </trkpt>
      <trkpt lat="49.29718" lon="-0.08665">
        <ele>1.4</ele>
        <time>2024-10-02T14:53:38Z</time>
      </trkpt>
      <trkpt lat="49.29711" lon="-0.08671">
        <ele>1.4</ele>
        <time>2024-10-02T14:53:39Z</time>
      </trkpt>
      <trkpt lat="49.29702" lon="-0.08678">
        <ele>1.4</ele>
        <time>2024-10-02T14:53:40Z</time>
      </trkpt>
      <trkpt lat="49.29697" lon="-0.08683">
        <ele>1.6</ele>
        <time>2024-10-02T14:53:41Z</time>
      </trkpt>
      <trkpt lat="49.29688" lon="-0.08689">
        <ele>1.4</ele>
        <time>2024-10-02T14:53:42Z</time>
      </trkpt>
      <trkpt lat="49.29681" lon="-0.08695">
        <ele>1.4</ele>
        <time>2024-10-02T14:53:43Z</time>
      </trkpt>
      <trkpt lat="49.29675" lon="-0.08699">
        <ele>1.4</ele>
        <time>2024-10-02T14:53:44Z</time>
      </trkpt>
      <trkpt lat="49.29668" lon="-0.08705">
        <ele>1.4</ele>
        <time>2024-10-02T14:53:45Z</time>
      </trkpt>
      <trkpt lat="49.2966" lon="-0.08712">
        <ele>1.6</ele>
        <time>2024-10-02T14:53:46Z</time>
      </trkpt>
      <trkpt lat="49.29654" lon="-0.08717">
        <ele>1.6</ele>
        <time>2024-10-02T14:53:47Z</time>
      </trkpt>
      <trkpt lat="49.29645" lon="-0.08724">
        <ele>1.6</ele>
        <time>2024-10-02T14:53:48Z</time>
      </trkpt>
      <trkpt lat="49.29638" lon="-0.08729">
        <ele>1.6</ele>
        <time>2024-10-02T14:53:49Z</time>
      </trkpt>
      <trkpt lat="49.29632" lon="-0.08734">
        <ele>1.6</ele>
        <time>2024-10-02T14:53:50Z</time>
      </trkpt>
      <trkpt lat="49.29624" lon="-0.0874">
        <ele>1.4</ele>
        <time>2024-10-02T14:53:51Z</time>
      </trkpt>
      <trkpt lat="49.29617" lon="-0.08746">
        <ele>1.4</ele>
        <time>2024-10-02T14:53:52Z</time>
      </trkpt>
      <trkpt lat="49.29611" lon="-0.0875">
        <ele>1.4</ele>
        <time>2024-10-02T14:53:53Z</time>
      </trkpt>
      <trkpt lat="49.29604" lon="-0.08756">
        <ele>1.4</ele>
        <time>2024-10-02T14:53:54Z</time>
      </trkpt>
      <trkpt lat="49.29596" lon="-0.08763">
        <ele>1.4</ele>
        <time>2024-10-02T14:53:55Z</time>
      </trkpt>
      <trkpt lat="49.29591" lon="-0.08768">
        <ele>1.4</ele>
        <time>2024-10-02T14:53:56Z</time>
      </trkpt>
      <trkpt lat="49.29585" lon="-0.08774">
        <ele>1.4</ele>
        <time>2024-10-02T14:53:57Z</time>
      </trkpt>
      <trkpt lat="49.29578" lon="-0.0878">
        <ele>1.4</ele>
        <time>2024-10-02T14:53:58Z</time>
      </trkpt>
      <trkpt lat="49.29572" lon="-0.08787">
        <ele>1.4</ele>
        <time>2024-10-02T14:53:59Z</time>
      </trkpt>
      <trkpt lat="49.29566" lon="-0.08795">
        <ele>1.4</ele>
        <time>2024-10-02T14:54:00Z</time>
      </trkpt>
      <trkpt lat="49.2956" lon="-0.08803">
        <ele>1.4</ele>
        <time>2024-10-02T14:54:01Z</time>
      </trkpt>
      <trkpt lat="49.29554" lon="-0.08811">
        <ele>1.4</ele>
        <time>2024-10-02T14:54:02Z</time>
      </trkpt>
      <trkpt lat="49.29548" lon="-0.08819">
        <ele>1.4</ele>
        <time>2024-10-02T14:54:03Z</time>
      </trkpt>
      <trkpt lat="49.29542" lon="-0.08827">
        <ele>1.2</ele>
        <time>2024-10-02T14:54:04Z</time>
      </trkpt>
      <trkpt lat="49.29537" lon="-0.08836">
        <ele>1.2</ele>
        <time>2024-10-02T14:54:05Z</time>
      </trkpt>
      <trkpt lat="49.29532" lon="-0.08845">
        <ele>1.2</ele>
        <time>2024-10-02T14:54:06Z</time>
      </trkpt>
      <trkpt lat="49.29527" lon="-0.08854">
        <ele>1.2</ele>
        <time>2024-10-02T14:54:07Z</time>
      </trkpt>
      <trkpt lat="49.29522" lon="-0.08863">
        <ele>1.2</ele>
        <time>2024-10-02T14:54:08Z</time>
      </trkpt>
      <trkpt lat="49.29517" lon="-0.08872">
        <ele>1</ele>
        <time>2024-10-02T14:54:09Z</time>
      </trkpt>
      <trkpt lat="49.29513" lon="-0.08881">
        <ele>1</ele>
        <time>2024-10-02T14:54:10Z</time>
      </trkpt>
      <trkpt lat="49.29509" lon="-0.08891">
        <ele>1</ele>
        <time>2024-10-02T14:54:11Z</time>
      </trkpt>
      <trkpt lat="49.29505" lon="-0.089">
        <ele>1</ele>
        <time>2024-10-02T14:54:12Z</time>
      </trkpt>
      <trkpt lat="49.295" lon="-0.08913">
        <ele>0.8</ele>
        <time>2024-10-02T14:54:13Z</time>
      </trkpt>
      <trkpt lat="49.29497" lon="-0.08921">
        <ele>0.8</ele>
        <time>2024-10-02T14:54:14Z</time>
      </trkpt>
      <trkpt lat="49.29494" lon="-0.08932">
        <ele>0.8</ele>
        <time>2024-10-02T14:54:15Z</time>
      </trkpt>
      <trkpt lat="49.2949" lon="-0.08944">
        <ele>0.8</ele>
        <time>2024-10-02T14:54:16Z</time>
      </trkpt>
      <trkpt lat="49.29487" lon="-0.08953">
        <ele>0.8</ele>
        <time>2024-10-02T14:54:17Z</time>
      </trkpt>
      <trkpt lat="49.29484" lon="-0.08963">
        <ele>0.8</ele>
        <time>2024-10-02T14:54:18Z</time>
      </trkpt>
      <trkpt lat="49.29481" lon="-0.08973">
        <ele>0.8</ele>
        <time>2024-10-02T14:54:19Z</time>
      </trkpt>
      <trkpt lat="49.29477" lon="-0.08983">
        <ele>0.8</ele>
        <time>2024-10-02T14:54:20Z</time>
      </trkpt>
      <trkpt lat="49.29474" lon="-0.08992">
        <ele>0.8</ele>
        <time>2024-10-02T14:54:21Z</time>
      </trkpt>
      <trkpt lat="49.2947" lon="-0.09001">
        <ele>0.8</ele>
        <time>2024-10-02T14:54:22Z</time>
      </trkpt>
      <trkpt lat="49.29467" lon="-0.0901">
        <ele>0.8</ele>
        <time>2024-10-02T14:54:23Z</time>
      </trkpt>
      <trkpt lat="49.29464" lon="-0.09019">
        <ele>0.8</ele>
        <time>2024-10-02T14:54:24Z</time>
      </trkpt>
      <trkpt lat="49.29461" lon="-0.09029">
        <ele>0.8</ele>
        <time>2024-10-02T14:54:25Z</time>
      </trkpt>
      <trkpt lat="49.29459" lon="-0.09037">
        <ele>1</ele>
        <time>2024-10-02T14:54:26Z</time>
      </trkpt>
      <trkpt lat="49.29457" lon="-0.09043">
        <ele>1.2</ele>
        <time>2024-10-02T14:54:27Z</time>
      </trkpt>
      <trkpt lat="49.29456" lon="-0.09049">
        <ele>1.6</ele>
        <time>2024-10-02T14:54:28Z</time>
      </trkpt>
      <trkpt lat="49.29455" lon="-0.09054">
        <ele>2</ele>
        <time>2024-10-02T14:54:29Z</time>
      </trkpt>
      <trkpt lat="49.29454" lon="-0.09058">
        <ele>2.2</ele>
        <time>2024-10-02T14:54:30Z</time>
      </trkpt>
      <trkpt lat="49.29454" lon="-0.09062">
        <ele>2.4</ele>
        <time>2024-10-02T14:54:31Z</time>
      </trkpt>
      <trkpt lat="49.29455" lon="-0.09065">
        <ele>2.6</ele>
        <time>2024-10-02T14:54:32Z</time>
      </trkpt>
      <trkpt lat="49.29457" lon="-0.09067">
        <ele>2.6</ele>
        <time>2024-10-02T14:54:33Z</time>
      </trkpt>
      <trkpt lat="49.29461" lon="-0.09068">
        <ele>2.6</ele>
        <time>2024-10-02T14:54:34Z</time>
      </trkpt>
      <trkpt lat="49.29464" lon="-0.0907">
        <ele>2.6</ele>
        <time>2024-10-02T14:54:35Z</time>
      </trkpt>
      <trkpt lat="49.29467" lon="-0.09075">
        <ele>2.6</ele>
        <time>2024-10-02T14:54:36Z</time>
      </trkpt>
      <trkpt lat="49.29469" lon="-0.09082">
        <ele>2.6</ele>
        <time>2024-10-02T14:54:37Z</time>
      </trkpt>
      <trkpt lat="49.29468" lon="-0.0909">
        <ele>2.6</ele>
        <time>2024-10-02T14:54:38Z</time>
      </trkpt>
      <trkpt lat="49.29466" lon="-0.09098">
        <ele>2.6</ele>
        <time>2024-10-02T14:54:39Z</time>
      </trkpt>
      <trkpt lat="49.29463" lon="-0.09106">
        <ele>2.6</ele>
        <time>2024-10-02T14:54:40Z</time>
      </trkpt>
      <trkpt lat="49.29461" lon="-0.09114">
        <ele>2.6</ele>
        <time>2024-10-02T14:54:41Z</time>
      </trkpt>
      <trkpt lat="49.29458" lon="-0.09122">
        <ele>2.6</ele>
        <time>2024-10-02T14:54:42Z</time>
      </trkpt>
      <trkpt lat="49.29456" lon="-0.09131">
        <ele>2.4</ele>
        <time>2024-10-02T14:54:43Z</time>
      </trkpt>
      <trkpt lat="49.29453" lon="-0.0914">
        <ele>2.2</ele>
        <time>2024-10-02T14:54:44Z</time>
      </trkpt>
      <trkpt lat="49.2945" lon="-0.09149">
        <ele>2.2</ele>
        <time>2024-10-02T14:54:45Z</time>
      </trkpt>
      <trkpt lat="49.29448" lon="-0.09158">
        <ele>2</ele>
        <time>2024-10-02T14:54:46Z</time>
      </trkpt>
      <trkpt lat="49.29444" lon="-0.09169">
        <ele>2</ele>
        <time>2024-10-02T14:54:47Z</time>
      </trkpt>
      <trkpt lat="49.2944" lon="-0.09178">
        <ele>2</ele>
        <time>2024-10-02T14:54:48Z</time>
      </trkpt>
      <trkpt lat="49.29437" lon="-0.09187">
        <ele>1.8</ele>
        <time>2024-10-02T14:54:49Z</time>
      </trkpt>
      <trkpt lat="49.29434" lon="-0.09196">
        <ele>1.8</ele>
        <time>2024-10-02T14:54:50Z</time>
      </trkpt>
      <trkpt lat="49.29431" lon="-0.09205">
        <ele>1.8</ele>
        <time>2024-10-02T14:54:51Z</time>
      </trkpt>
      <trkpt lat="49.29429" lon="-0.09213">
        <ele>1.8</ele>
        <time>2024-10-02T14:54:52Z</time>
      </trkpt>
      <trkpt lat="49.29426" lon="-0.09224">
        <ele>1.8</ele>
        <time>2024-10-02T14:54:53Z</time>
      </trkpt>
      <trkpt lat="49.29423" lon="-0.09233">
        <ele>1.8</ele>
        <time>2024-10-02T14:54:54Z</time>
      </trkpt>
      <trkpt lat="49.29421" lon="-0.09243">
        <ele>1.8</ele>
        <time>2024-10-02T14:54:55Z</time>
      </trkpt>
      <trkpt lat="49.2942" lon="-0.09252">
        <ele>1.8</ele>
        <time>2024-10-02T14:54:56Z</time>
      </trkpt>
      <trkpt lat="49.29419" lon="-0.09262">
        <ele>1.8</ele>
        <time>2024-10-02T14:54:57Z</time>
      </trkpt>
      <trkpt lat="49.29419" lon="-0.09272">
        <ele>1.8</ele>
        <time>2024-10-02T14:54:58Z</time>
      </trkpt>
      <trkpt lat="49.29419" lon="-0.09281">
        <ele>1.8</ele>
        <time>2024-10-02T14:54:59Z</time>
      </trkpt>
      <trkpt lat="49.29417" lon="-0.0929">
        <ele>1.8</ele>
        <time>2024-10-02T14:55:00Z</time>
      </trkpt>
      <trkpt lat="49.29415" lon="-0.09298">
        <ele>1.8</ele>
        <time>2024-10-02T14:55:01Z</time>
      </trkpt>
      <trkpt lat="49.29412" lon="-0.09305">
        <ele>1.8</ele>
        <time>2024-10-02T14:55:02Z</time>
      </trkpt>
      <trkpt lat="49.29409" lon="-0.09313">
        <ele>1.8</ele>
        <time>2024-10-02T14:55:03Z</time>
      </trkpt>
      <trkpt lat="49.29405" lon="-0.09321">
        <ele>1.8</ele>
        <time>2024-10-02T14:55:04Z</time>
      </trkpt>
      <trkpt lat="49.29402" lon="-0.0933">
        <ele>1.8</ele>
        <time>2024-10-02T14:55:05Z</time>
      </trkpt>
      <trkpt lat="49.29398" lon="-0.0934">
        <ele>1.8</ele>
        <time>2024-10-02T14:55:06Z</time>
      </trkpt>
      <trkpt lat="49.29394" lon="-0.09349">
        <ele>1.8</ele>
        <time>2024-10-02T14:55:07Z</time>
      </trkpt>
      <trkpt lat="49.2939" lon="-0.09359">
        <ele>1.8</ele>
        <time>2024-10-02T14:55:08Z</time>
      </trkpt>
      <trkpt lat="49.29387" lon="-0.09368">
        <ele>1.8</ele>
        <time>2024-10-02T14:55:09Z</time>
      </trkpt>
      <trkpt lat="49.29384" lon="-0.09378">
        <ele>1.8</ele>
        <time>2024-10-02T14:55:10Z</time>
      </trkpt>
      <trkpt lat="49.29382" lon="-0.09389">
        <ele>1.8</ele>
        <time>2024-10-02T14:55:11Z</time>
      </trkpt>
      <trkpt lat="49.2938" lon="-0.094">
        <ele>1.8</ele>
        <time>2024-10-02T14:55:12Z</time>
      </trkpt>
      <trkpt lat="49.29377" lon="-0.09411">
        <ele>1.8</ele>
        <time>2024-10-02T14:55:13Z</time>
      </trkpt>
      <trkpt lat="49.29375" lon="-0.09422">
        <ele>1.8</ele>
        <time>2024-10-02T14:55:14Z</time>
      </trkpt>
      <trkpt lat="49.29372" lon="-0.09432">
        <ele>1.8</ele>
        <time>2024-10-02T14:55:15Z</time>
      </trkpt>
      <trkpt lat="49.29369" lon="-0.09442">
        <ele>1.8</ele>
        <time>2024-10-02T14:55:16Z</time>
      </trkpt>
      <trkpt lat="49.29366" lon="-0.09451">
        <ele>1.8</ele>
        <time>2024-10-02T14:55:17Z</time>
      </trkpt>
      <trkpt lat="49.29363" lon="-0.09463">
        <ele>1.8</ele>
        <time>2024-10-02T14:55:18Z</time>
      </trkpt>
      <trkpt lat="49.2936" lon="-0.09473">
        <ele>1.6</ele>
        <time>2024-10-02T14:55:19Z</time>
      </trkpt>
      <trkpt lat="49.29357" lon="-0.09483">
        <ele>1.6</ele>
        <time>2024-10-02T14:55:20Z</time>
      </trkpt>
      <trkpt lat="49.29355" lon="-0.09492">
        <ele>1.6</ele>
        <time>2024-10-02T14:55:21Z</time>
      </trkpt>
      <trkpt lat="49.29351" lon="-0.09504">
        <ele>1.4</ele>
        <time>2024-10-02T14:55:22Z</time>
      </trkpt>
      <trkpt lat="49.29348" lon="-0.09514">
        <ele>1.4</ele>
        <time>2024-10-02T14:55:23Z</time>
      </trkpt>
      <trkpt lat="49.29345" lon="-0.09524">
        <ele>1.4</ele>
        <time>2024-10-02T14:55:24Z</time>
      </trkpt>
      <trkpt lat="49.29343" lon="-0.09532">
        <ele>1.4</ele>
        <time>2024-10-02T14:55:25Z</time>
      </trkpt>
      <trkpt lat="49.29339" lon="-0.09543">
        <ele>1.2</ele>
        <time>2024-10-02T14:55:26Z</time>
      </trkpt>
      <trkpt lat="49.29336" lon="-0.09555">
        <ele>1.2</ele>
        <time>2024-10-02T14:55:27Z</time>
      </trkpt>
      <trkpt lat="49.29333" lon="-0.09565">
        <ele>1.2</ele>
        <time>2024-10-02T14:55:28Z</time>
      </trkpt>
      <trkpt lat="49.2933" lon="-0.09576">
        <ele>1.2</ele>
        <time>2024-10-02T14:55:29Z</time>
      </trkpt>
      <trkpt lat="49.29327" lon="-0.09584">
        <ele>1.2</ele>
        <time>2024-10-02T14:55:30Z</time>
      </trkpt>
      <trkpt lat="49.29324" lon="-0.09597">
        <ele>1</ele>
        <time>2024-10-02T14:55:31Z</time>
      </trkpt>
      <trkpt lat="49.29321" lon="-0.09607">
        <ele>0.8</ele>
        <time>2024-10-02T14:55:32Z</time>
      </trkpt>
      <trkpt lat="49.29318" lon="-0.09617">
        <ele>0.8</ele>
        <time>2024-10-02T14:55:33Z</time>
      </trkpt>
      <trkpt lat="49.29315" lon="-0.09628">
        <ele>0.8</ele>
        <time>2024-10-02T14:55:34Z</time>
      </trkpt>
      <trkpt lat="49.29312" lon="-0.09638">
        <ele>0.6</ele>
        <time>2024-10-02T14:55:35Z</time>
      </trkpt>
      <trkpt lat="49.29308" lon="-0.09649">
        <ele>0.6</ele>
        <time>2024-10-02T14:55:36Z</time>
      </trkpt>
      <trkpt lat="49.29305" lon="-0.0966">
        <ele>0.6</ele>
        <time>2024-10-02T14:55:37Z</time>
      </trkpt>
      <trkpt lat="49.29303" lon="-0.09668">
        <ele>0.4</ele>
        <time>2024-10-02T14:55:38Z</time>
      </trkpt>
      <trkpt lat="49.293" lon="-0.09681">
        <ele>0.4</ele>
        <time>2024-10-02T14:55:39Z</time>
      </trkpt>
      <trkpt lat="49.29297" lon="-0.09692">
        <ele>0.4</ele>
        <time>2024-10-02T14:55:40Z</time>
      </trkpt>
      <trkpt lat="49.29294" lon="-0.09703">
        <ele>0.4</ele>
        <time>2024-10-02T14:55:41Z</time>
      </trkpt>
      <trkpt lat="49.29291" lon="-0.09713">
        <ele>0.4</ele>
        <time>2024-10-02T14:55:42Z</time>
      </trkpt>
      <trkpt lat="49.29288" lon="-0.09724">
        <ele>0.2</ele>
        <time>2024-10-02T14:55:43Z</time>
      </trkpt>
      <trkpt lat="49.29285" lon="-0.09734">
        <ele>0.2</ele>
        <time>2024-10-02T14:55:44Z</time>
      </trkpt>
      <trkpt lat="49.29282" lon="-0.09742">
        <ele>0.2</ele>
        <time>2024-10-02T14:55:45Z</time>
      </trkpt>
      <trkpt lat="49.29279" lon="-0.09752">
        <ele>0.2</ele>
        <time>2024-10-02T14:55:46Z</time>
      </trkpt>
      <trkpt lat="49.29276" lon="-0.09762">
        <ele>0.2</ele>
        <time>2024-10-02T14:55:47Z</time>
      </trkpt>
      <trkpt lat="49.29272" lon="-0.09775">
        <ele>0.2</ele>
        <time>2024-10-02T14:55:48Z</time>
      </trkpt>
      <trkpt lat="49.29269" lon="-0.09785">
        <ele>0.2</ele>
        <time>2024-10-02T14:55:49Z</time>
      </trkpt>
      <trkpt lat="49.29265" lon="-0.09796">
        <ele>0.2</ele>
        <time>2024-10-02T14:55:50Z</time>
      </trkpt>
      <trkpt lat="49.29262" lon="-0.09807">
        <ele>0.2</ele>
        <time>2024-10-02T14:55:51Z</time>
      </trkpt>
      <trkpt lat="49.29259" lon="-0.09817">
        <ele>0.4</ele>
        <time>2024-10-02T14:55:52Z</time>
      </trkpt>
      <trkpt lat="49.29256" lon="-0.09828">
        <ele>0.4</ele>
        <time>2024-10-02T14:55:53Z</time>
      </trkpt>
      <trkpt lat="49.29253" lon="-0.09838">
        <ele>0.4</ele>
        <time>2024-10-02T14:55:54Z</time>
      </trkpt>
      <trkpt lat="49.29249" lon="-0.09849">
        <ele>0.6</ele>
        <time>2024-10-02T14:55:55Z</time>
      </trkpt>
      <trkpt lat="49.29246" lon="-0.09859">
        <ele>0.8</ele>
        <time>2024-10-02T14:55:56Z</time>
      </trkpt>
      <trkpt lat="49.29242" lon="-0.0987">
        <ele>1</ele>
        <time>2024-10-02T14:55:57Z</time>
      </trkpt>
      <trkpt lat="49.29238" lon="-0.0988">
        <ele>1.4</ele>
        <time>2024-10-02T14:55:58Z</time>
      </trkpt>
      <trkpt lat="49.29235" lon="-0.0989">
        <ele>1.6</ele>
        <time>2024-10-02T14:55:59Z</time>
      </trkpt>
      <trkpt lat="49.29231" lon="-0.099">
        <ele>1.6</ele>
        <time>2024-10-02T14:56:00Z</time>
      </trkpt>
      <trkpt lat="49.29227" lon="-0.09909">
        <ele>1.6</ele>
        <time>2024-10-02T14:56:01Z</time>
      </trkpt>
      <trkpt lat="49.29223" lon="-0.09918">
        <ele>1.6</ele>
        <time>2024-10-02T14:56:02Z</time>
      </trkpt>
      <trkpt lat="49.29218" lon="-0.09926">
        <ele>1.6</ele>
        <time>2024-10-02T14:56:03Z</time>
      </trkpt>
      <trkpt lat="49.29214" lon="-0.09935">
        <ele>1.8</ele>
        <time>2024-10-02T14:56:04Z</time>
      </trkpt>
      <trkpt lat="49.2921" lon="-0.09944">
        <ele>1.8</ele>
        <time>2024-10-02T14:56:05Z</time>
      </trkpt>
      <trkpt lat="49.29205" lon="-0.09952">
        <ele>1.8</ele>
        <time>2024-10-02T14:56:06Z</time>
      </trkpt>
      <trkpt lat="49.29201" lon="-0.09961">
        <ele>1.4</ele>
        <time>2024-10-02T14:56:07Z</time>
      </trkpt>
      <trkpt lat="49.29197" lon="-0.09969">
        <ele>1.4</ele>
        <time>2024-10-02T14:56:08Z</time>
      </trkpt>
      <trkpt lat="49.29192" lon="-0.09977">
        <ele>1.2</ele>
        <time>2024-10-02T14:56:09Z</time>
      </trkpt>
      <trkpt lat="49.29189" lon="-0.09984">
        <ele>1.2</ele>
        <time>2024-10-02T14:56:10Z</time>
      </trkpt>
      <trkpt lat="49.29185" lon="-0.09992">
        <ele>1</ele>
        <time>2024-10-02T14:56:11Z</time>
      </trkpt>
      <trkpt lat="49.29181" lon="-0.09998">
        <ele>1</ele>
        <time>2024-10-02T14:56:12Z</time>
      </trkpt>
      <trkpt lat="49.29178" lon="-0.10005">
        <ele>1</ele>
        <time>2024-10-02T14:56:13Z</time>
      </trkpt>
      <trkpt lat="49.29176" lon="-0.10012">
        <ele>1</ele>
        <time>2024-10-02T14:56:14Z</time>
      </trkpt>
      <trkpt lat="49.29174" lon="-0.10018">
        <ele>1</ele>
        <time>2024-10-02T14:56:15Z</time>
      </trkpt>
      <trkpt lat="49.2917" lon="-0.10024">
        <ele>1</ele>
        <time>2024-10-02T14:56:16Z</time>
      </trkpt>
      <trkpt lat="49.29167" lon="-0.10028">
        <ele>1</ele>
        <time>2024-10-02T14:56:17Z</time>
      </trkpt>
      <trkpt lat="49.29162" lon="-0.1003">
        <ele>1</ele>
        <time>2024-10-02T14:56:18Z</time>
      </trkpt>
      <trkpt lat="49.29157" lon="-0.1003">
        <ele>1</ele>
        <time>2024-10-02T14:56:19Z</time>
      </trkpt>
      <trkpt lat="49.29153" lon="-0.10027">
        <ele>1</ele>
        <time>2024-10-02T14:56:20Z</time>
      </trkpt>
      <trkpt lat="49.29151" lon="-0.10024">
        <ele>1</ele>
        <time>2024-10-02T14:56:21Z</time>
      </trkpt>
      <trkpt lat="49.29148" lon="-0.1002">
        <ele>1</ele>
        <time>2024-10-02T14:56:22Z</time>
      </trkpt>
      <trkpt lat="49.29146" lon="-0.10017">
        <ele>1</ele>
        <time>2024-10-02T14:56:23Z</time>
      </trkpt>
      <trkpt lat="49.29143" lon="-0.10015">
        <ele>1.2</ele>
        <time>2024-10-02T14:56:24Z</time>
      </trkpt>
      <trkpt lat="49.29139" lon="-0.10015">
        <ele>1.4</ele>
        <time>2024-10-02T14:56:25Z</time>
      </trkpt>
      <trkpt lat="49.29136" lon="-0.10017">
        <ele>1.4</ele>
        <time>2024-10-02T14:56:26Z</time>
      </trkpt>
      <trkpt lat="49.29134" lon="-0.10021">
        <ele>1.4</ele>
        <time>2024-10-02T14:56:27Z</time>
      </trkpt>
      <trkpt lat="49.29131" lon="-0.10025">
        <ele>1.4</ele>
        <time>2024-10-02T14:56:28Z</time>
      </trkpt>
      <trkpt lat="49.29129" lon="-0.10029">
        <ele>1.4</ele>
        <time>2024-10-02T14:56:29Z</time>
      </trkpt>
      <trkpt lat="49.29126" lon="-0.10034">
        <ele>1.4</ele>
        <time>2024-10-02T14:56:30Z</time>
      </trkpt>
      <trkpt lat="49.29123" lon="-0.10039">
        <ele>1.4</ele>
        <time>2024-10-02T14:56:31Z</time>
      </trkpt>
      <trkpt lat="49.2912" lon="-0.10044">
        <ele>1.4</ele>
        <time>2024-10-02T14:56:32Z</time>
      </trkpt>
      <trkpt lat="49.29116" lon="-0.1005">
        <ele>1.4</ele>
        <time>2024-10-02T14:56:33Z</time>
      </trkpt>
      <trkpt lat="49.29112" lon="-0.10056">
        <ele>1.4</ele>
        <time>2024-10-02T14:56:34Z</time>
      </trkpt>
      <trkpt lat="49.29109" lon="-0.10062">
        <ele>1.4</ele>
        <time>2024-10-02T14:56:35Z</time>
      </trkpt>
      <trkpt lat="49.29106" lon="-0.10068">
        <ele>1.4</ele>
        <time>2024-10-02T14:56:36Z</time>
      </trkpt>
      <trkpt lat="49.29103" lon="-0.10072">
        <ele>1.4</ele>
        <time>2024-10-02T14:56:37Z</time>
      </trkpt>
      <trkpt lat="49.29099" lon="-0.10078">
        <ele>1.4</ele>
        <time>2024-10-02T14:56:38Z</time>
      </trkpt>
      <trkpt lat="49.29095" lon="-0.10086">
        <ele>1.4</ele>
        <time>2024-10-02T14:56:39Z</time>
      </trkpt>
      <trkpt lat="49.29091" lon="-0.10092">
        <ele>1.4</ele>
        <time>2024-10-02T14:56:40Z</time>
      </trkpt>
      <trkpt lat="49.29087" lon="-0.10098">
        <ele>1.4</ele>
        <time>2024-10-02T14:56:41Z</time>
      </trkpt>
      <trkpt lat="49.29083" lon="-0.10104">
        <ele>1.4</ele>
        <time>2024-10-02T14:56:42Z</time>
      </trkpt>
      <trkpt lat="49.29079" lon="-0.1011">
        <ele>1.4</ele>
        <time>2024-10-02T14:56:43Z</time>
      </trkpt>
      <trkpt lat="49.29075" lon="-0.10115">
        <ele>1.4</ele>
        <time>2024-10-02T14:56:44Z</time>
      </trkpt>
      <trkpt lat="49.2907" lon="-0.10122">
        <ele>1.4</ele>
        <time>2024-10-02T14:56:45Z</time>
      </trkpt>
      <trkpt lat="49.29067" lon="-0.10127">
        <ele>1.4</ele>
        <time>2024-10-02T14:56:46Z</time>
      </trkpt>
      <trkpt lat="49.29061" lon="-0.10134">
        <ele>1.4</ele>
        <time>2024-10-02T14:56:47Z</time>
      </trkpt>
      <trkpt lat="49.29056" lon="-0.1014">
        <ele>1.4</ele>
        <time>2024-10-02T14:56:48Z</time>
      </trkpt>
      <trkpt lat="49.29051" lon="-0.10145">
        <ele>1.6</ele>
        <time>2024-10-02T14:56:49Z</time>
      </trkpt>
      <trkpt lat="49.29046" lon="-0.10151">
        <ele>1.6</ele>
        <time>2024-10-02T14:56:50Z</time>
      </trkpt>
      <trkpt lat="49.29041" lon="-0.10157">
        <ele>1.6</ele>
        <time>2024-10-02T14:56:51Z</time>
      </trkpt>
      <trkpt lat="49.29036" lon="-0.10162">
        <ele>1.6</ele>
        <time>2024-10-02T14:56:52Z</time>
      </trkpt>
      <trkpt lat="49.29031" lon="-0.10169">
        <ele>1.6</ele>
        <time>2024-10-02T14:56:53Z</time>
      </trkpt>
      <trkpt lat="49.29026" lon="-0.10175">
        <ele>1.6</ele>
        <time>2024-10-02T14:56:54Z</time>
      </trkpt>
      <trkpt lat="49.29021" lon="-0.10183">
        <ele>1.6</ele>
        <time>2024-10-02T14:56:55Z</time>
      </trkpt>
      <trkpt lat="49.29016" lon="-0.1019">
        <ele>1.6</ele>
        <time>2024-10-02T14:56:56Z</time>
      </trkpt>
      <trkpt lat="49.29011" lon="-0.10197">
        <ele>1.6</ele>
        <time>2024-10-02T14:56:57Z</time>
      </trkpt>
      <trkpt lat="49.29006" lon="-0.10204">
        <ele>1.6</ele>
        <time>2024-10-02T14:56:58Z</time>
      </trkpt>
      <trkpt lat="49.29002" lon="-0.1021">
        <ele>1.6</ele>
        <time>2024-10-02T14:56:59Z</time>
      </trkpt>
      <trkpt lat="49.28997" lon="-0.10217">
        <ele>1.4</ele>
        <time>2024-10-02T14:57:00Z</time>
      </trkpt>
      <trkpt lat="49.28992" lon="-0.10224">
        <ele>1.4</ele>
        <time>2024-10-02T14:57:01Z</time>
      </trkpt>
      <trkpt lat="49.28987" lon="-0.10231">
        <ele>1.2</ele>
        <time>2024-10-02T14:57:02Z</time>
      </trkpt>
      <trkpt lat="49.28983" lon="-0.10238">
        <ele>1.2</ele>
        <time>2024-10-02T14:57:03Z</time>
      </trkpt>
      <trkpt lat="49.28978" lon="-0.10245">
        <ele>1.2</ele>
        <time>2024-10-02T14:57:04Z</time>
      </trkpt>
      <trkpt lat="49.28974" lon="-0.10252">
        <ele>1</ele>
        <time>2024-10-02T14:57:05Z</time>
      </trkpt>
      <trkpt lat="49.2897" lon="-0.1026">
        <ele>0.8</ele>
        <time>2024-10-02T14:57:06Z</time>
      </trkpt>
      <trkpt lat="49.28966" lon="-0.10267">
        <ele>0.6</ele>
        <time>2024-10-02T14:57:07Z</time>
      </trkpt>
      <trkpt lat="49.28962" lon="-0.10275">
        <ele>0.4</ele>
        <time>2024-10-02T14:57:08Z</time>
      </trkpt>
      <trkpt lat="49.28958" lon="-0.10282">
        <ele>0.4</ele>
        <time>2024-10-02T14:57:09Z</time>
      </trkpt>
      <trkpt lat="49.28954" lon="-0.10289">
        <ele>0.4</ele>
        <time>2024-10-02T14:57:10Z</time>
      </trkpt>
      <trkpt lat="49.28951" lon="-0.10295">
        <ele>0.4</ele>
        <time>2024-10-02T14:57:11Z</time>
      </trkpt>
      <trkpt lat="49.28946" lon="-0.10303">
        <ele>0.2</ele>
        <time>2024-10-02T14:57:12Z</time>
      </trkpt>
      <trkpt lat="49.28941" lon="-0.1031">
        <ele>0.2</ele>
        <time>2024-10-02T14:57:13Z</time>
      </trkpt>
      <trkpt lat="49.28936" lon="-0.10318">
        <ele>0.2</ele>
        <time>2024-10-02T14:57:14Z</time>
      </trkpt>
      <trkpt lat="49.28931" lon="-0.10325">
        <ele>0.2</ele>
        <time>2024-10-02T14:57:15Z</time>
      </trkpt>
      <trkpt lat="49.28926" lon="-0.10331">
        <ele>0.2</ele>
        <time>2024-10-02T14:57:16Z</time>
      </trkpt>
      <trkpt lat="49.28921" lon="-0.10337">
        <ele>0.2</ele>
        <time>2024-10-02T14:57:17Z</time>
      </trkpt>
      <trkpt lat="49.28915" lon="-0.10343">
        <ele>0.2</ele>
        <time>2024-10-02T14:57:18Z</time>
      </trkpt>
      <trkpt lat="49.28911" lon="-0.10347">
        <ele>0.2</ele>
        <time>2024-10-02T14:57:19Z</time>
      </trkpt>
      <trkpt lat="49.28904" lon="-0.10354">
        <ele>0.2</ele>
        <time>2024-10-02T14:57:20Z</time>
      </trkpt>
      <trkpt lat="49.28898" lon="-0.10359">
        <ele>0.2</ele>
        <time>2024-10-02T14:57:21Z</time>
      </trkpt>
      <trkpt lat="49.28892" lon="-0.10365">
        <ele>0.2</ele>
        <time>2024-10-02T14:57:22Z</time>
      </trkpt>
      <trkpt lat="49.28886" lon="-0.1037">
        <ele>0.4</ele>
        <time>2024-10-02T14:57:23Z</time>
      </trkpt>
      <trkpt lat="49.28879" lon="-0.10376">
        <ele>0.6</ele>
        <time>2024-10-02T14:57:24Z</time>
      </trkpt>
      <trkpt lat="49.28873" lon="-0.10382">
        <ele>0.6</ele>
        <time>2024-10-02T14:57:25Z</time>
      </trkpt>
      <trkpt lat="49.28867" lon="-0.10387">
        <ele>0.4</ele>
        <time>2024-10-02T14:57:26Z</time>
      </trkpt>
      <trkpt lat="49.28861" lon="-0.10394">
        <ele>0.4</ele>
        <time>2024-10-02T14:57:27Z</time>
      </trkpt>
      <trkpt lat="49.28856" lon="-0.10401">
        <ele>0.4</ele>
        <time>2024-10-02T14:57:28Z</time>
      </trkpt>
      <trkpt lat="49.2885" lon="-0.10409">
        <ele>0.8</ele>
        <time>2024-10-02T14:57:29Z</time>
      </trkpt>
      <trkpt lat="49.28845" lon="-0.10417">
        <ele>0.8</ele>
        <time>2024-10-02T14:57:30Z</time>
      </trkpt>
      <trkpt lat="49.28841" lon="-0.10423">
        <ele>0.8</ele>
        <time>2024-10-02T14:57:31Z</time>
      </trkpt>
      <trkpt lat="49.28835" lon="-0.10433">
        <ele>0.8</ele>
        <time>2024-10-02T14:57:32Z</time>
      </trkpt>
      <trkpt lat="49.2883" lon="-0.1044">
        <ele>0.8</ele>
        <time>2024-10-02T14:57:33Z</time>
      </trkpt>
      <trkpt lat="49.28826" lon="-0.10448">
        <ele>0.8</ele>
        <time>2024-10-02T14:57:34Z</time>
      </trkpt>
      <trkpt lat="49.2882" lon="-0.10458">
        <ele>0.8</ele>
        <time>2024-10-02T14:57:35Z</time>
      </trkpt>
      <trkpt lat="49.28815" lon="-0.10466">
        <ele>0.8</ele>
        <time>2024-10-02T14:57:36Z</time>
      </trkpt>
      <trkpt lat="49.28811" lon="-0.10473">
        <ele>0.8</ele>
        <time>2024-10-02T14:57:37Z</time>
      </trkpt>
      <trkpt lat="49.28805" lon="-0.10483">
        <ele>0.6</ele>
        <time>2024-10-02T14:57:38Z</time>
      </trkpt>
      <trkpt lat="49.288" lon="-0.10491">
        <ele>0.4</ele>
        <time>2024-10-02T14:57:39Z</time>
      </trkpt>
      <trkpt lat="49.28795" lon="-0.105">
        <ele>0.6</ele>
        <time>2024-10-02T14:57:40Z</time>
      </trkpt>
      <trkpt lat="49.28791" lon="-0.10509">
        <ele>0.6</ele>
        <time>2024-10-02T14:57:41Z</time>
      </trkpt>
      <trkpt lat="49.28786" lon="-0.10517">
        <ele>0.6</ele>
        <time>2024-10-02T14:57:42Z</time>
      </trkpt>
      <trkpt lat="49.28782" lon="-0.10525">
        <ele>0.6</ele>
        <time>2024-10-02T14:57:43Z</time>
      </trkpt>
      <trkpt lat="49.28778" lon="-0.10534">
        <ele>0.6</ele>
        <time>2024-10-02T14:57:44Z</time>
      </trkpt>
      <trkpt lat="49.28774" lon="-0.10543">
        <ele>0.6</ele>
        <time>2024-10-02T14:57:45Z</time>
      </trkpt>
      <trkpt lat="49.28771" lon="-0.10551">
        <ele>0.6</ele>
        <time>2024-10-02T14:57:46Z</time>
      </trkpt>
      <trkpt lat="49.28769" lon="-0.10559">
        <ele>0.6</ele>
        <time>2024-10-02T14:57:47Z</time>
      </trkpt>
      <trkpt lat="49.28765" lon="-0.10571">
        <ele>0.6</ele>
        <time>2024-10-02T14:57:48Z</time>
      </trkpt>
      <trkpt lat="49.28763" lon="-0.1058">
        <ele>0.6</ele>
        <time>2024-10-02T14:57:49Z</time>
      </trkpt>
      <trkpt lat="49.2876" lon="-0.10589">
        <ele>0.6</ele>
        <time>2024-10-02T14:57:50Z</time>
      </trkpt>
      <trkpt lat="49.28757" lon="-0.10597">
        <ele>0.6</ele>
        <time>2024-10-02T14:57:51Z</time>
      </trkpt>
      <trkpt lat="49.28754" lon="-0.10605">
        <ele>0.6</ele>
        <time>2024-10-02T14:57:52Z</time>
      </trkpt>
      <trkpt lat="49.2875" lon="-0.10613">
        <ele>0.6</ele>
        <time>2024-10-02T14:57:53Z</time>
      </trkpt>
      <trkpt lat="49.28746" lon="-0.1062">
        <ele>0.6</ele>
        <time>2024-10-02T14:57:54Z</time>
      </trkpt>
      <trkpt lat="49.28743" lon="-0.10627">
        <ele>0.6</ele>
        <time>2024-10-02T14:57:55Z</time>
      </trkpt>
      <trkpt lat="49.28739" lon="-0.10635">
        <ele>0.6</ele>
        <time>2024-10-02T14:57:56Z</time>
      </trkpt>
      <trkpt lat="49.28734" lon="-0.10644">
        <ele>0.6</ele>
        <time>2024-10-02T14:57:57Z</time>
      </trkpt>
      <trkpt lat="49.28729" lon="-0.10652">
        <ele>0.6</ele>
        <time>2024-10-02T14:57:58Z</time>
      </trkpt>
      <trkpt lat="49.28725" lon="-0.10659">
        <ele>0.6</ele>
        <time>2024-10-02T14:57:59Z</time>
      </trkpt>
      <trkpt lat="49.28721" lon="-0.10667">
        <ele>0.6</ele>
        <time>2024-10-02T14:58:00Z</time>
      </trkpt>
      <trkpt lat="49.28717" lon="-0.10674">
        <ele>0.6</ele>
        <time>2024-10-02T14:58:01Z</time>
      </trkpt>
      <trkpt lat="49.28713" lon="-0.10681">
        <ele>0.6</ele>
        <time>2024-10-02T14:58:02Z</time>
      </trkpt>
      <trkpt lat="49.28709" lon="-0.10687">
        <ele>0.6</ele>
        <time>2024-10-02T14:58:03Z</time>
      </trkpt>
      <trkpt lat="49.28705" lon="-0.10694">
        <ele>0.8</ele>
        <time>2024-10-02T14:58:04Z</time>
      </trkpt>
      <trkpt lat="49.28701" lon="-0.107">
        <ele>0.8</ele>
        <time>2024-10-02T14:58:05Z</time>
      </trkpt>
      <trkpt lat="49.28696" lon="-0.10705">
        <ele>1</ele>
        <time>2024-10-02T14:58:06Z</time>
      </trkpt>
      <trkpt lat="49.28692" lon="-0.10711">
        <ele>1.2</ele>
        <time>2024-10-02T14:58:07Z</time>
      </trkpt>
      <trkpt lat="49.28687" lon="-0.10716">
        <ele>1.2</ele>
        <time>2024-10-02T14:58:08Z</time>
      </trkpt>
      <trkpt lat="49.28683" lon="-0.10721">
        <ele>1.2</ele>
        <time>2024-10-02T14:58:09Z</time>
      </trkpt>
      <trkpt lat="49.28678" lon="-0.10725">
        <ele>1.2</ele>
        <time>2024-10-02T14:58:10Z</time>
      </trkpt>
      <trkpt lat="49.28672" lon="-0.10729">
        <ele>1.4</ele>
        <time>2024-10-02T14:58:11Z</time>
      </trkpt>
      <trkpt lat="49.28666" lon="-0.10732">
        <ele>1.4</ele>
        <time>2024-10-02T14:58:12Z</time>
      </trkpt>
      <trkpt lat="49.2866" lon="-0.10734">
        <ele>1.4</ele>
        <time>2024-10-02T14:58:13Z</time>
      </trkpt>
      <trkpt lat="49.28653" lon="-0.10738">
        <ele>1.4</ele>
        <time>2024-10-02T14:58:14Z</time>
      </trkpt>
      <trkpt lat="49.28647" lon="-0.10743">
        <ele>1.4</ele>
        <time>2024-10-02T14:58:15Z</time>
      </trkpt>
      <trkpt lat="49.28642" lon="-0.10747">
        <ele>1.6</ele>
        <time>2024-10-02T14:58:16Z</time>
      </trkpt>
      <trkpt lat="49.28635" lon="-0.10753">
        <ele>1.6</ele>
        <time>2024-10-02T14:58:17Z</time>
      </trkpt>
      <trkpt lat="49.2863" lon="-0.10759">
        <ele>1.6</ele>
        <time>2024-10-02T14:58:18Z</time>
      </trkpt>
      <trkpt lat="49.28626" lon="-0.10765">
        <ele>1.6</ele>
        <time>2024-10-02T14:58:19Z</time>
      </trkpt>
      <trkpt lat="49.28621" lon="-0.10774">
        <ele>1.6</ele>
        <time>2024-10-02T14:58:20Z</time>
      </trkpt>
      <trkpt lat="49.28618" lon="-0.10783">
        <ele>1.6</ele>
        <time>2024-10-02T14:58:21Z</time>
      </trkpt>
      <trkpt lat="49.28615" lon="-0.10791">
        <ele>1.6</ele>
        <time>2024-10-02T14:58:22Z</time>
      </trkpt>
      <trkpt lat="49.28612" lon="-0.108">
        <ele>1.6</ele>
        <time>2024-10-02T14:58:23Z</time>
      </trkpt>
      <trkpt lat="49.28609" lon="-0.10808">
        <ele>1.6</ele>
        <time>2024-10-02T14:58:24Z</time>
      </trkpt>
      <trkpt lat="49.28604" lon="-0.10814">
        <ele>1.6</ele>
        <time>2024-10-02T14:58:25Z</time>
      </trkpt>
      <trkpt lat="49.28598" lon="-0.10818">
        <ele>1.6</ele>
        <time>2024-10-02T14:58:26Z</time>
      </trkpt>
      <trkpt lat="49.28592" lon="-0.1082">
        <ele>1.6</ele>
        <time>2024-10-02T14:58:27Z</time>
      </trkpt>
      <trkpt lat="49.28588" lon="-0.10822">
        <ele>1.6</ele>
        <time>2024-10-02T14:58:28Z</time>
      </trkpt>
      <trkpt lat="49.28581" lon="-0.10825">
        <ele>1.6</ele>
        <time>2024-10-02T14:58:29Z</time>
      </trkpt>
      <trkpt lat="49.28575" lon="-0.10828">
        <ele>1.6</ele>
        <time>2024-10-02T14:58:30Z</time>
      </trkpt>
      <trkpt lat="49.28569" lon="-0.10831">
        <ele>1.6</ele>
        <time>2024-10-02T14:58:31Z</time>
      </trkpt>
      <trkpt lat="49.28564" lon="-0.10834">
        <ele>1.6</ele>
        <time>2024-10-02T14:58:32Z</time>
      </trkpt>
      <trkpt lat="49.28559" lon="-0.10836">
        <ele>1.6</ele>
        <time>2024-10-02T14:58:33Z</time>
      </trkpt>
      <trkpt lat="49.28554" lon="-0.10839">
        <ele>1.6</ele>
        <time>2024-10-02T14:58:34Z</time>
      </trkpt>
      <trkpt lat="49.2855" lon="-0.10841">
        <ele>1.6</ele>
        <time>2024-10-02T14:58:35Z</time>
      </trkpt>
      <trkpt lat="49.28547" lon="-0.10843">
        <ele>1.6</ele>
        <time>2024-10-02T14:58:36Z</time>
      </trkpt>
      <trkpt lat="49.28545" lon="-0.10844">
        <ele>1.6</ele>
        <time>2024-10-02T14:58:37Z</time>
      </trkpt>
      <trkpt lat="49.28542" lon="-0.10849">
        <ele>1.6</ele>
        <time>2024-10-02T14:58:38Z</time>
      </trkpt>
      <trkpt lat="49.28541" lon="-0.10854">
        <ele>1.6</ele>
        <time>2024-10-02T14:58:39Z</time>
      </trkpt>
      <trkpt lat="49.28541" lon="-0.1086">
        <ele>1.4</ele>
        <time>2024-10-02T14:58:40Z</time>
      </trkpt>
      <trkpt lat="49.28541" lon="-0.10868">
        <ele>1.4</ele>
        <time>2024-10-02T14:58:41Z</time>
      </trkpt>
      <trkpt lat="49.28541" lon="-0.10875">
        <ele>1.4</ele>
        <time>2024-10-02T14:58:42Z</time>
      </trkpt>
      <trkpt lat="49.2854" lon="-0.10882">
        <ele>1.4</ele>
        <time>2024-10-02T14:58:43Z</time>
      </trkpt>
      <trkpt lat="49.28539" lon="-0.10889">
        <ele>1.4</ele>
        <time>2024-10-02T14:58:44Z</time>
      </trkpt>
      <trkpt lat="49.28536" lon="-0.10894">
        <ele>1.4</ele>
        <time>2024-10-02T14:58:45Z</time>
      </trkpt>
      <trkpt lat="49.28532" lon="-0.10898">
        <ele>1.4</ele>
        <time>2024-10-02T14:58:46Z</time>
      </trkpt>
      <trkpt lat="49.28528" lon="-0.10899">
        <ele>1.4</ele>
        <time>2024-10-02T14:58:47Z</time>
      </trkpt>
      <trkpt lat="49.28524" lon="-0.10896">
        <ele>1.4</ele>
        <time>2024-10-02T14:58:48Z</time>
      </trkpt>
      <trkpt lat="49.28521" lon="-0.10891">
        <ele>1.6</ele>
        <time>2024-10-02T14:58:49Z</time>
      </trkpt>
      <trkpt lat="49.2852" lon="-0.10885">
        <ele>1.4</ele>
        <time>2024-10-02T14:58:50Z</time>
      </trkpt>
      <trkpt lat="49.2852" lon="-0.10879">
        <ele>1.4</ele>
        <time>2024-10-02T14:58:51Z</time>
      </trkpt>
      <trkpt lat="49.2852" lon="-0.10872">
        <ele>1.4</ele>
        <time>2024-10-02T14:58:52Z</time>
      </trkpt>
      <trkpt lat="49.28521" lon="-0.10866">
        <ele>1.4</ele>
        <time>2024-10-02T14:58:53Z</time>
      </trkpt>
      <trkpt lat="49.28521" lon="-0.1086">
        <ele>1.4</ele>
        <time>2024-10-02T14:58:54Z</time>
      </trkpt>
      <trkpt lat="49.28521" lon="-0.10853">
        <ele>1.4</ele>
        <time>2024-10-02T14:58:55Z</time>
      </trkpt>
      <trkpt lat="49.28521" lon="-0.10846">
        <ele>1.4</ele>
        <time>2024-10-02T14:58:56Z</time>
      </trkpt>
      <trkpt lat="49.28521" lon="-0.10838">
        <ele>1.4</ele>
        <time>2024-10-02T14:58:57Z</time>
      </trkpt>
      <trkpt lat="49.28521" lon="-0.1083">
        <ele>1.4</ele>
        <time>2024-10-02T14:58:58Z</time>
      </trkpt>
      <trkpt lat="49.28521" lon="-0.10824">
        <ele>1.4</ele>
        <time>2024-10-02T14:58:59Z</time>
      </trkpt>
      <trkpt lat="49.2852" lon="-0.10814">
        <ele>1.4</ele>
        <time>2024-10-02T14:59:00Z</time>
      </trkpt>
      <trkpt lat="49.28519" lon="-0.10805">
        <ele>1.4</ele>
        <time>2024-10-02T14:59:01Z</time>
      </trkpt>
      <trkpt lat="49.28518" lon="-0.10797">
        <ele>1.4</ele>
        <time>2024-10-02T14:59:02Z</time>
      </trkpt>
      <trkpt lat="49.28518" lon="-0.10788">
        <ele>1.4</ele>
        <time>2024-10-02T14:59:03Z</time>
      </trkpt>
      <trkpt lat="49.28517" lon="-0.10779">
        <ele>1.4</ele>
        <time>2024-10-02T14:59:04Z</time>
      </trkpt>
      <trkpt lat="49.28517" lon="-0.10771">
        <ele>1.4</ele>
        <time>2024-10-02T14:59:05Z</time>
      </trkpt>
      <trkpt lat="49.28517" lon="-0.10762">
        <ele>1.4</ele>
        <time>2024-10-02T14:59:06Z</time>
      </trkpt>
      <trkpt lat="49.28517" lon="-0.10754">
        <ele>1.2</ele>
        <time>2024-10-02T14:59:07Z</time>
      </trkpt>
      <trkpt lat="49.28516" lon="-0.10746">
        <ele>1.2</ele>
        <time>2024-10-02T14:59:08Z</time>
      </trkpt>
      <trkpt lat="49.28515" lon="-0.10739">
        <ele>1</ele>
        <time>2024-10-02T14:59:09Z</time>
      </trkpt>
      <trkpt lat="49.28512" lon="-0.10733">
        <ele>1</ele>
        <time>2024-10-02T14:59:10Z</time>
      </trkpt>
      <trkpt lat="49.28508" lon="-0.10729">
        <ele>1</ele>
        <time>2024-10-02T14:59:11Z</time>
      </trkpt>
      <trkpt lat="49.28504" lon="-0.10728">
        <ele>0.8</ele>
        <time>2024-10-02T14:59:12Z</time>
      </trkpt>
      <trkpt lat="49.28499" lon="-0.10729">
        <ele>0.8</ele>
        <time>2024-10-02T14:59:13Z</time>
      </trkpt>
      <trkpt lat="49.28493" lon="-0.10731">
        <ele>0.8</ele>
        <time>2024-10-02T14:59:14Z</time>
      </trkpt>
      <trkpt lat="49.28488" lon="-0.10732">
        <ele>0.8</ele>
        <time>2024-10-02T14:59:15Z</time>
      </trkpt>
      <trkpt lat="49.28483" lon="-0.10734">
        <ele>0.8</ele>
        <time>2024-10-02T14:59:16Z</time>
      </trkpt>
      <trkpt lat="49.28479" lon="-0.10735">
        <ele>0.8</ele>
        <time>2024-10-02T14:59:17Z</time>
      </trkpt>
      <trkpt lat="49.28474" lon="-0.10737">
        <ele>1</ele>
        <time>2024-10-02T14:59:18Z</time>
      </trkpt>
      <trkpt lat="49.28471" lon="-0.10738">
        <ele>1</ele>
        <time>2024-10-02T14:59:19Z</time>
      </trkpt>
      <trkpt lat="49.28467" lon="-0.10739">
        <ele>1</ele>
        <time>2024-10-02T14:59:20Z</time>
      </trkpt>
      <trkpt lat="49.28463" lon="-0.10741">
        <ele>1</ele>
        <time>2024-10-02T14:59:21Z</time>
      </trkpt>
      <trkpt lat="49.28459" lon="-0.10743">
        <ele>1</ele>
        <time>2024-10-02T14:59:22Z</time>
      </trkpt>
      <trkpt lat="49.28456" lon="-0.10745">
        <ele>1</ele>
        <time>2024-10-02T14:59:23Z</time>
      </trkpt>
      <trkpt lat="49.28452" lon="-0.10745">
        <ele>1</ele>
        <time>2024-10-02T14:59:24Z</time>
      </trkpt>
      <trkpt lat="49.2845" lon="-0.10744">
        <ele>1.2</ele>
        <time>2024-10-02T14:59:25Z</time>
      </trkpt>
      <trkpt lat="49.28447" lon="-0.1074">
        <ele>1.2</ele>
        <time>2024-10-02T14:59:26Z</time>
      </trkpt>
      <trkpt lat="49.28447" lon="-0.10736">
        <ele>1.2</ele>
        <time>2024-10-02T14:59:27Z</time>
      </trkpt>
      <trkpt lat="49.28446" lon="-0.1073">
        <ele>1.2</ele>
        <time>2024-10-02T14:59:28Z</time>
      </trkpt>
      <trkpt lat="49.28446" lon="-0.10725">
        <ele>1.2</ele>
        <time>2024-10-02T14:59:29Z</time>
      </trkpt>
      <trkpt lat="49.28447" lon="-0.1072">
        <ele>1.2</ele>
        <time>2024-10-02T14:59:30Z</time>
      </trkpt>
      <trkpt lat="49.28447" lon="-0.10715">
        <ele>1.2</ele>
        <time>2024-10-02T14:59:31Z</time>
      </trkpt>
      <trkpt lat="49.28448" lon="-0.1071">
        <ele>1.2</ele>
        <time>2024-10-02T14:59:32Z</time>
      </trkpt>
      <trkpt lat="49.28448" lon="-0.10707">
        <ele>1.2</ele>
        <time>2024-10-02T14:59:33Z</time>
      </trkpt>
      <trkpt lat="49.28448" lon="-0.10703">
        <ele>1.2</ele>
        <time>2024-10-02T14:59:34Z</time>
      </trkpt>
      <trkpt lat="49.28448" lon="-0.10701">
        <ele>1.2</ele>
        <time>2024-10-02T14:59:35Z</time>
      </trkpt>
      <trkpt lat="49.28448" lon="-0.107">
        <ele>1.2</ele>
        <time>2024-10-02T14:59:36Z</time>
      </trkpt>
      <trkpt lat="49.28449" lon="-0.10698">
        <ele>1.2</ele>
        <time>2024-10-02T14:59:37Z</time>
      </trkpt>
    </trkseg>
  </trk>
</gpx>